<?xml version="1.0" encoding="UTF-8" standalone="no" ?>
<gpx xmlns="http://www.topografix.com/GPX/1/1" xmlns:xsi="http://www.w3.org/2001/XMLSchema-instance" xsi:schemaLocation="http://www.topografix.com/GPX/1/1 http://www.topografix.com/GPX/1/1/gpx.xsd" version="1.1" creator="VisuGPX - https://www.visugpx.com">
  <metadata>
    <name>ForetOlonneBrem</name>
    <desc><![CDATA[Foret d'Olonne, puis Brem, L'Ile d'Olonne er retourà Olonne sur mer]]></desc>
  </metadata>
  <trk>
    <name><![CDATA[ForetOlonneBrem]]></name>
    <trkseg>
      <trkpt lat="46.53244" lon="-1.77715">
        <ele>13</ele>
        <time>2021-02-21T21:19:44.000Z</time>
      </trkpt>
      <trkpt lat="46.53244" lon="-1.77715">
        <ele>12.800000190735</ele>
        <time>2021-02-21T21:19:45.000Z</time>
      </trkpt>
      <trkpt lat="46.5331" lon="-1.77734">
        <ele>8.8000001907349</ele>
        <time>2021-02-23T07:58:04.000Z</time>
      </trkpt>
      <trkpt lat="46.53321" lon="-1.77745">
        <ele>-146.80000305176</ele>
        <time>2021-02-23T07:58:05.000Z</time>
      </trkpt>
      <trkpt lat="46.53334" lon="-1.77774">
        <ele>-146.80000305176</ele>
        <time>2021-02-23T07:58:11.000Z</time>
      </trkpt>
      <trkpt lat="46.53348" lon="-1.77798">
        <ele>-146.60000610352</ele>
        <time>2021-02-23T07:58:15.000Z</time>
      </trkpt>
      <trkpt lat="46.53351" lon="-1.77805">
        <ele>-146.60000610352</ele>
        <time>2021-02-23T07:58:16.000Z</time>
      </trkpt>
      <trkpt lat="46.53356" lon="-1.77817">
        <ele>-146.60000610352</ele>
        <time>2021-02-23T07:58:18.000Z</time>
      </trkpt>
      <trkpt lat="46.53359" lon="-1.77823">
        <ele>-146.80000305176</ele>
        <time>2021-02-23T07:58:19.000Z</time>
      </trkpt>
      <trkpt lat="46.53364" lon="-1.77835">
        <ele>-146.80000305176</ele>
        <time>2021-02-23T07:58:21.000Z</time>
      </trkpt>
      <trkpt lat="46.53367" lon="-1.77841">
        <ele>-147</ele>
        <time>2021-02-23T07:58:22.000Z</time>
      </trkpt>
      <trkpt lat="46.5337" lon="-1.77846">
        <ele>-147</ele>
        <time>2021-02-23T07:58:23.000Z</time>
      </trkpt>
      <trkpt lat="46.53373" lon="-1.77851">
        <ele>-147</ele>
        <time>2021-02-23T07:58:24.000Z</time>
      </trkpt>
      <trkpt lat="46.53375" lon="-1.77855">
        <ele>-147.19999694824</ele>
        <time>2021-02-23T07:58:25.000Z</time>
      </trkpt>
      <trkpt lat="46.53377" lon="-1.77859">
        <ele>-147.19999694824</ele>
        <time>2021-02-23T07:58:26.000Z</time>
      </trkpt>
      <trkpt lat="46.5338" lon="-1.77862">
        <ele>-147.19999694824</ele>
        <time>2021-02-23T07:58:27.000Z</time>
      </trkpt>
      <trkpt lat="46.53387" lon="-1.77872">
        <ele>-147.39999389648</ele>
        <time>2021-02-23T07:58:30.000Z</time>
      </trkpt>
      <trkpt lat="46.53389" lon="-1.77874">
        <ele>-147.39999389648</ele>
        <time>2021-02-23T07:58:31.000Z</time>
      </trkpt>
      <trkpt lat="46.5339" lon="-1.77877">
        <ele>-147.39999389648</ele>
        <time>2021-02-23T07:58:32.000Z</time>
      </trkpt>
      <trkpt lat="46.53391" lon="-1.77879">
        <ele>-147.39999389648</ele>
        <time>2021-02-23T07:58:33.000Z</time>
      </trkpt>
      <trkpt lat="46.53391" lon="-1.7788">
        <ele>-147.39999389648</ele>
        <time>2021-02-23T07:58:34.000Z</time>
      </trkpt>
      <trkpt lat="46.53389" lon="-1.77883">
        <ele>-147.39999389648</ele>
        <time>2021-02-23T07:58:35.000Z</time>
      </trkpt>
      <trkpt lat="46.53387" lon="-1.7789">
        <ele>-147.39999389648</ele>
        <time>2021-02-23T07:58:37.000Z</time>
      </trkpt>
      <trkpt lat="46.53385" lon="-1.77893">
        <ele>-147.60000610352</ele>
        <time>2021-02-23T07:58:38.000Z</time>
      </trkpt>
      <trkpt lat="46.53382" lon="-1.77897">
        <ele>-147.60000610352</ele>
        <time>2021-02-23T07:58:39.000Z</time>
      </trkpt>
      <trkpt lat="46.53378" lon="-1.77899">
        <ele>-147.60000610352</ele>
        <time>2021-02-23T07:58:40.000Z</time>
      </trkpt>
      <trkpt lat="46.53374" lon="-1.77902">
        <ele>-147.60000610352</ele>
        <time>2021-02-23T07:58:41.000Z</time>
      </trkpt>
      <trkpt lat="46.5337" lon="-1.77903">
        <ele>-147.60000610352</ele>
        <time>2021-02-23T07:58:42.000Z</time>
      </trkpt>
      <trkpt lat="46.53367" lon="-1.77905">
        <ele>-147.60000610352</ele>
        <time>2021-02-23T07:58:43.000Z</time>
      </trkpt>
      <trkpt lat="46.53363" lon="-1.77906">
        <ele>-147.39999389648</ele>
        <time>2021-02-23T07:58:44.000Z</time>
      </trkpt>
      <trkpt lat="46.53349" lon="-1.77913">
        <ele>-147</ele>
        <time>2021-02-23T07:58:48.000Z</time>
      </trkpt>
      <trkpt lat="46.53346" lon="-1.77915">
        <ele>-147</ele>
        <time>2021-02-23T07:58:49.000Z</time>
      </trkpt>
      <trkpt lat="46.53342" lon="-1.77916">
        <ele>-146.80000305176</ele>
        <time>2021-02-23T07:58:50.000Z</time>
      </trkpt>
      <trkpt lat="46.53321" lon="-1.77924">
        <ele>-146.39999389648</ele>
        <time>2021-02-23T07:58:55.000Z</time>
      </trkpt>
      <trkpt lat="46.53316" lon="-1.77926">
        <ele>-146.19999694824</ele>
        <time>2021-02-23T07:58:56.000Z</time>
      </trkpt>
      <trkpt lat="46.53303" lon="-1.77928">
        <ele>-145.80000305176</ele>
        <time>2021-02-23T07:58:59.000Z</time>
      </trkpt>
      <trkpt lat="46.53279" lon="-1.77934">
        <ele>-145.39999389648</ele>
        <time>2021-02-23T07:59:04.000Z</time>
      </trkpt>
      <trkpt lat="46.53269" lon="-1.77937">
        <ele>-145.19999694824</ele>
        <time>2021-02-23T07:59:06.000Z</time>
      </trkpt>
      <trkpt lat="46.53265" lon="-1.77938">
        <ele>-145.19999694824</ele>
        <time>2021-02-23T07:59:07.000Z</time>
      </trkpt>
      <trkpt lat="46.53256" lon="-1.77941">
        <ele>-145</ele>
        <time>2021-02-23T07:59:09.000Z</time>
      </trkpt>
      <trkpt lat="46.53251" lon="-1.77943">
        <ele>-145</ele>
        <time>2021-02-23T07:59:10.000Z</time>
      </trkpt>
      <trkpt lat="46.53247" lon="-1.77945">
        <ele>-144.80000305176</ele>
        <time>2021-02-23T07:59:11.000Z</time>
      </trkpt>
      <trkpt lat="46.53244" lon="-1.77949">
        <ele>-144.60000610352</ele>
        <time>2021-02-23T07:59:12.000Z</time>
      </trkpt>
      <trkpt lat="46.53241" lon="-1.77955">
        <ele>-144.60000610352</ele>
        <time>2021-02-23T07:59:13.000Z</time>
      </trkpt>
      <trkpt lat="46.53239" lon="-1.77962">
        <ele>-144.39999389648</ele>
        <time>2021-02-23T07:59:14.000Z</time>
      </trkpt>
      <trkpt lat="46.53237" lon="-1.77969">
        <ele>-144.39999389648</ele>
        <time>2021-02-23T07:59:15.000Z</time>
      </trkpt>
      <trkpt lat="46.53235" lon="-1.77976">
        <ele>-144.19999694824</ele>
        <time>2021-02-23T07:59:16.000Z</time>
      </trkpt>
      <trkpt lat="46.5323" lon="-1.78004">
        <ele>-144.19999694824</ele>
        <time>2021-02-23T07:59:20.000Z</time>
      </trkpt>
      <trkpt lat="46.53229" lon="-1.78011">
        <ele>-144.19999694824</ele>
        <time>2021-02-23T07:59:21.000Z</time>
      </trkpt>
      <trkpt lat="46.53227" lon="-1.78017">
        <ele>-144.19999694824</ele>
        <time>2021-02-23T07:59:22.000Z</time>
      </trkpt>
      <trkpt lat="46.53225" lon="-1.7803">
        <ele>-144.39999389648</ele>
        <time>2021-02-23T07:59:24.000Z</time>
      </trkpt>
      <trkpt lat="46.53225" lon="-1.78037">
        <ele>-144.39999389648</ele>
        <time>2021-02-23T07:59:25.000Z</time>
      </trkpt>
      <trkpt lat="46.53225" lon="-1.78045">
        <ele>-144.39999389648</ele>
        <time>2021-02-23T07:59:26.000Z</time>
      </trkpt>
      <trkpt lat="46.53225" lon="-1.78053">
        <ele>-144.60000610352</ele>
        <time>2021-02-23T07:59:27.000Z</time>
      </trkpt>
      <trkpt lat="46.53225" lon="-1.7806">
        <ele>-144.60000610352</ele>
        <time>2021-02-23T07:59:28.000Z</time>
      </trkpt>
      <trkpt lat="46.53224" lon="-1.78067">
        <ele>-144.60000610352</ele>
        <time>2021-02-23T07:59:29.000Z</time>
      </trkpt>
      <trkpt lat="46.5322" lon="-1.78082">
        <ele>-144.80000305176</ele>
        <time>2021-02-23T07:59:31.000Z</time>
      </trkpt>
      <trkpt lat="46.53212" lon="-1.78104">
        <ele>-144.80000305176</ele>
        <time>2021-02-23T07:59:34.000Z</time>
      </trkpt>
      <trkpt lat="46.53201" lon="-1.7813">
        <ele>-145</ele>
        <time>2021-02-23T07:59:37.000Z</time>
      </trkpt>
      <trkpt lat="46.5319" lon="-1.78157">
        <ele>-145</ele>
        <time>2021-02-23T07:59:40.000Z</time>
      </trkpt>
      <trkpt lat="46.53186" lon="-1.78164">
        <ele>-145.19999694824</ele>
        <time>2021-02-23T07:59:41.000Z</time>
      </trkpt>
      <trkpt lat="46.53184" lon="-1.78172">
        <ele>-145.19999694824</ele>
        <time>2021-02-23T07:59:42.000Z</time>
      </trkpt>
      <trkpt lat="46.53182" lon="-1.78179">
        <ele>-145.19999694824</ele>
        <time>2021-02-23T07:59:43.000Z</time>
      </trkpt>
      <trkpt lat="46.53179" lon="-1.78188">
        <ele>-145.19999694824</ele>
        <time>2021-02-23T07:59:44.000Z</time>
      </trkpt>
      <trkpt lat="46.53172" lon="-1.78211">
        <ele>-145.39999389648</ele>
        <time>2021-02-23T07:59:47.000Z</time>
      </trkpt>
      <trkpt lat="46.5317" lon="-1.78219">
        <ele>-145.60000610352</ele>
        <time>2021-02-23T07:59:48.000Z</time>
      </trkpt>
      <trkpt lat="46.53168" lon="-1.78227">
        <ele>-145.60000610352</ele>
        <time>2021-02-23T07:59:49.000Z</time>
      </trkpt>
      <trkpt lat="46.53165" lon="-1.78242">
        <ele>-145.60000610352</ele>
        <time>2021-02-23T07:59:51.000Z</time>
      </trkpt>
      <trkpt lat="46.53162" lon="-1.78257">
        <ele>-145.60000610352</ele>
        <time>2021-02-23T07:59:53.000Z</time>
      </trkpt>
      <trkpt lat="46.53143" lon="-1.783">
        <ele>-145.60000610352</ele>
        <time>2021-02-23T07:59:59.000Z</time>
      </trkpt>
      <trkpt lat="46.53133" lon="-1.78311">
        <ele>-145.39999389648</ele>
        <time>2021-02-23T08:00:01.000Z</time>
      </trkpt>
      <trkpt lat="46.53123" lon="-1.7832">
        <ele>-145.60000610352</ele>
        <time>2021-02-23T08:00:03.000Z</time>
      </trkpt>
      <trkpt lat="46.53118" lon="-1.78322">
        <ele>-145.39999389648</ele>
        <time>2021-02-23T08:00:04.000Z</time>
      </trkpt>
      <trkpt lat="46.53113" lon="-1.78324">
        <ele>-145.39999389648</ele>
        <time>2021-02-23T08:00:05.000Z</time>
      </trkpt>
      <trkpt lat="46.53108" lon="-1.78325">
        <ele>-145.39999389648</ele>
        <time>2021-02-23T08:00:06.000Z</time>
      </trkpt>
      <trkpt lat="46.53092" lon="-1.78328">
        <ele>-145.39999389648</ele>
        <time>2021-02-23T08:00:09.000Z</time>
      </trkpt>
      <trkpt lat="46.53082" lon="-1.78335">
        <ele>-145.19999694824</ele>
        <time>2021-02-23T08:00:11.000Z</time>
      </trkpt>
      <trkpt lat="46.53077" lon="-1.78339">
        <ele>-145.19999694824</ele>
        <time>2021-02-23T08:00:12.000Z</time>
      </trkpt>
      <trkpt lat="46.53072" lon="-1.7834">
        <ele>-145</ele>
        <time>2021-02-23T08:00:13.000Z</time>
      </trkpt>
      <trkpt lat="46.53041" lon="-1.78346">
        <ele>-144.19999694824</ele>
        <time>2021-02-23T08:00:19.000Z</time>
      </trkpt>
      <trkpt lat="46.53036" lon="-1.78346">
        <ele>-144</ele>
        <time>2021-02-23T08:00:20.000Z</time>
      </trkpt>
      <trkpt lat="46.53031" lon="-1.78346">
        <ele>-143.80000305176</ele>
        <time>2021-02-23T08:00:21.000Z</time>
      </trkpt>
      <trkpt lat="46.53026" lon="-1.78346">
        <ele>-143.80000305176</ele>
        <time>2021-02-23T08:00:22.000Z</time>
      </trkpt>
      <trkpt lat="46.53021" lon="-1.78347">
        <ele>-143.60000610352</ele>
        <time>2021-02-23T08:00:23.000Z</time>
      </trkpt>
      <trkpt lat="46.53016" lon="-1.78347">
        <ele>-143.39999389648</ele>
        <time>2021-02-23T08:00:24.000Z</time>
      </trkpt>
      <trkpt lat="46.53011" lon="-1.78347">
        <ele>-143.39999389648</ele>
        <time>2021-02-23T08:00:25.000Z</time>
      </trkpt>
      <trkpt lat="46.53007" lon="-1.78348">
        <ele>-143.19999694824</ele>
        <time>2021-02-23T08:00:26.000Z</time>
      </trkpt>
      <trkpt lat="46.52993" lon="-1.78348">
        <ele>-143</ele>
        <time>2021-02-23T08:00:29.000Z</time>
      </trkpt>
      <trkpt lat="46.52989" lon="-1.78348">
        <ele>-142.80000305176</ele>
        <time>2021-02-23T08:00:30.000Z</time>
      </trkpt>
      <trkpt lat="46.52986" lon="-1.78348">
        <ele>-142.60000610352</ele>
        <time>2021-02-23T08:00:31.000Z</time>
      </trkpt>
      <trkpt lat="46.52983" lon="-1.78348">
        <ele>-142.60000610352</ele>
        <time>2021-02-23T08:00:32.000Z</time>
      </trkpt>
      <trkpt lat="46.5298" lon="-1.78348">
        <ele>-142.39999389648</ele>
        <time>2021-02-23T08:00:33.000Z</time>
      </trkpt>
      <trkpt lat="46.52976" lon="-1.78348">
        <ele>-142.19999694824</ele>
        <time>2021-02-23T08:00:34.000Z</time>
      </trkpt>
      <trkpt lat="46.52973" lon="-1.78349">
        <ele>-142</ele>
        <time>2021-02-23T08:00:35.000Z</time>
      </trkpt>
      <trkpt lat="46.5297" lon="-1.78351">
        <ele>-142</ele>
        <time>2021-02-23T08:00:36.000Z</time>
      </trkpt>
      <trkpt lat="46.52969" lon="-1.78354">
        <ele>-141.80000305176</ele>
        <time>2021-02-23T08:00:37.000Z</time>
      </trkpt>
      <trkpt lat="46.52969" lon="-1.78358">
        <ele>-141.60000610352</ele>
        <time>2021-02-23T08:00:38.000Z</time>
      </trkpt>
      <trkpt lat="46.52969" lon="-1.78363">
        <ele>-141.60000610352</ele>
        <time>2021-02-23T08:00:39.000Z</time>
      </trkpt>
      <trkpt lat="46.52969" lon="-1.78369">
        <ele>-141.60000610352</ele>
        <time>2021-02-23T08:00:40.000Z</time>
      </trkpt>
      <trkpt lat="46.52966" lon="-1.78373">
        <ele>-141.39999389648</ele>
        <time>2021-02-23T08:00:41.000Z</time>
      </trkpt>
      <trkpt lat="46.52963" lon="-1.78375">
        <ele>-141.39999389648</ele>
        <time>2021-02-23T08:00:42.000Z</time>
      </trkpt>
      <trkpt lat="46.52959" lon="-1.78375">
        <ele>-141.39999389648</ele>
        <time>2021-02-23T08:00:43.000Z</time>
      </trkpt>
      <trkpt lat="46.52954" lon="-1.78376">
        <ele>-141.39999389648</ele>
        <time>2021-02-23T08:00:44.000Z</time>
      </trkpt>
      <trkpt lat="46.5295" lon="-1.78377">
        <ele>-141.19999694824</ele>
        <time>2021-02-23T08:00:45.000Z</time>
      </trkpt>
      <trkpt lat="46.52946" lon="-1.78377">
        <ele>-141.19999694824</ele>
        <time>2021-02-23T08:00:46.000Z</time>
      </trkpt>
      <trkpt lat="46.52942" lon="-1.78377">
        <ele>-141.19999694824</ele>
        <time>2021-02-23T08:00:47.000Z</time>
      </trkpt>
      <trkpt lat="46.52938" lon="-1.78378">
        <ele>-141</ele>
        <time>2021-02-23T08:00:48.000Z</time>
      </trkpt>
      <trkpt lat="46.52933" lon="-1.78378">
        <ele>-141</ele>
        <time>2021-02-23T08:00:49.000Z</time>
      </trkpt>
      <trkpt lat="46.52929" lon="-1.78378">
        <ele>-140.80000305176</ele>
        <time>2021-02-23T08:00:50.000Z</time>
      </trkpt>
      <trkpt lat="46.52925" lon="-1.78378">
        <ele>-140.80000305176</ele>
        <time>2021-02-23T08:00:51.000Z</time>
      </trkpt>
      <trkpt lat="46.52921" lon="-1.78378">
        <ele>-140.60000610352</ele>
        <time>2021-02-23T08:00:52.000Z</time>
      </trkpt>
      <trkpt lat="46.52916" lon="-1.78378">
        <ele>-140.39999389648</ele>
        <time>2021-02-23T08:00:53.000Z</time>
      </trkpt>
      <trkpt lat="46.52907" lon="-1.78378">
        <ele>-140</ele>
        <time>2021-02-23T08:00:55.000Z</time>
      </trkpt>
      <trkpt lat="46.52903" lon="-1.78379">
        <ele>-140</ele>
        <time>2021-02-23T08:00:56.000Z</time>
      </trkpt>
      <trkpt lat="46.52899" lon="-1.78379">
        <ele>-140</ele>
        <time>2021-02-23T08:00:57.000Z</time>
      </trkpt>
      <trkpt lat="46.52894" lon="-1.78379">
        <ele>-139.80000305176</ele>
        <time>2021-02-23T08:00:58.000Z</time>
      </trkpt>
      <trkpt lat="46.5289" lon="-1.78379">
        <ele>-139.80000305176</ele>
        <time>2021-02-23T08:00:59.000Z</time>
      </trkpt>
      <trkpt lat="46.52886" lon="-1.7838">
        <ele>-139.60000610352</ele>
        <time>2021-02-23T08:01:00.000Z</time>
      </trkpt>
      <trkpt lat="46.52881" lon="-1.7838">
        <ele>-139.39999389648</ele>
        <time>2021-02-23T08:01:01.000Z</time>
      </trkpt>
      <trkpt lat="46.52877" lon="-1.7838">
        <ele>-139.19999694824</ele>
        <time>2021-02-23T08:01:02.000Z</time>
      </trkpt>
      <trkpt lat="46.52873" lon="-1.78381">
        <ele>-139</ele>
        <time>2021-02-23T08:01:03.000Z</time>
      </trkpt>
      <trkpt lat="46.52869" lon="-1.78381">
        <ele>-139</ele>
        <time>2021-02-23T08:01:04.000Z</time>
      </trkpt>
      <trkpt lat="46.52864" lon="-1.78381">
        <ele>-138.39999389648</ele>
        <time>2021-02-23T08:01:05.000Z</time>
      </trkpt>
      <trkpt lat="46.5286" lon="-1.78381">
        <ele>-138.39999389648</ele>
        <time>2021-02-23T08:01:06.000Z</time>
      </trkpt>
      <trkpt lat="46.52855" lon="-1.78381">
        <ele>-138.19999694824</ele>
        <time>2021-02-23T08:01:07.000Z</time>
      </trkpt>
      <trkpt lat="46.52851" lon="-1.78382">
        <ele>-138</ele>
        <time>2021-02-23T08:01:08.000Z</time>
      </trkpt>
      <trkpt lat="46.52846" lon="-1.78382">
        <ele>-138</ele>
        <time>2021-02-23T08:01:09.000Z</time>
      </trkpt>
      <trkpt lat="46.52841" lon="-1.78382">
        <ele>-137.80000305176</ele>
        <time>2021-02-23T08:01:10.000Z</time>
      </trkpt>
      <trkpt lat="46.52836" lon="-1.78382">
        <ele>-137.80000305176</ele>
        <time>2021-02-23T08:01:11.000Z</time>
      </trkpt>
      <trkpt lat="46.52832" lon="-1.78382">
        <ele>-137.60000610352</ele>
        <time>2021-02-23T08:01:12.000Z</time>
      </trkpt>
      <trkpt lat="46.52827" lon="-1.78382">
        <ele>-137.60000610352</ele>
        <time>2021-02-23T08:01:13.000Z</time>
      </trkpt>
      <trkpt lat="46.52822" lon="-1.78382">
        <ele>-137.60000610352</ele>
        <time>2021-02-23T08:01:14.000Z</time>
      </trkpt>
      <trkpt lat="46.52816" lon="-1.78382">
        <ele>-137.60000610352</ele>
        <time>2021-02-23T08:01:15.000Z</time>
      </trkpt>
      <trkpt lat="46.52811" lon="-1.78382">
        <ele>-137.60000610352</ele>
        <time>2021-02-23T08:01:16.000Z</time>
      </trkpt>
      <trkpt lat="46.52806" lon="-1.78382">
        <ele>-137.60000610352</ele>
        <time>2021-02-23T08:01:17.000Z</time>
      </trkpt>
      <trkpt lat="46.52801" lon="-1.78382">
        <ele>-137.60000610352</ele>
        <time>2021-02-23T08:01:18.000Z</time>
      </trkpt>
      <trkpt lat="46.52796" lon="-1.78382">
        <ele>-137.60000610352</ele>
        <time>2021-02-23T08:01:19.000Z</time>
      </trkpt>
      <trkpt lat="46.52796" lon="-1.78382">
        <ele>-137.80000305176</ele>
        <time>2021-02-23T08:01:20.000Z</time>
      </trkpt>
      <trkpt lat="46.52789" lon="-1.78382">
        <ele>-137.80000305176</ele>
        <time>2021-02-23T08:01:25.000Z</time>
      </trkpt>
      <trkpt lat="46.52782" lon="-1.78383">
        <ele>-138</ele>
        <time>2021-02-23T08:01:26.000Z</time>
      </trkpt>
      <trkpt lat="46.5277" lon="-1.78382">
        <ele>-138.19999694824</ele>
        <time>2021-02-23T08:01:28.000Z</time>
      </trkpt>
      <trkpt lat="46.52749" lon="-1.78383">
        <ele>-138.60000610352</ele>
        <time>2021-02-23T08:01:32.000Z</time>
      </trkpt>
      <trkpt lat="46.52727" lon="-1.78382">
        <ele>-139</ele>
        <time>2021-02-23T08:01:36.000Z</time>
      </trkpt>
      <trkpt lat="46.52709" lon="-1.78383">
        <ele>-139.39999389648</ele>
        <time>2021-02-23T08:01:39.000Z</time>
      </trkpt>
      <trkpt lat="46.52704" lon="-1.78383">
        <ele>-139.39999389648</ele>
        <time>2021-02-23T08:01:40.000Z</time>
      </trkpt>
      <trkpt lat="46.52698" lon="-1.78383">
        <ele>-139.60000610352</ele>
        <time>2021-02-23T08:01:41.000Z</time>
      </trkpt>
      <trkpt lat="46.52693" lon="-1.78383">
        <ele>-139.80000305176</ele>
        <time>2021-02-23T08:01:42.000Z</time>
      </trkpt>
      <trkpt lat="46.52687" lon="-1.78383">
        <ele>-140</ele>
        <time>2021-02-23T08:01:43.000Z</time>
      </trkpt>
      <trkpt lat="46.52682" lon="-1.78383">
        <ele>-140.19999694824</ele>
        <time>2021-02-23T08:01:44.000Z</time>
      </trkpt>
      <trkpt lat="46.5266" lon="-1.78382">
        <ele>-140.39999389648</ele>
        <time>2021-02-23T08:01:48.000Z</time>
      </trkpt>
      <trkpt lat="46.52625" lon="-1.78381">
        <ele>-141.39999389648</ele>
        <time>2021-02-23T08:01:54.000Z</time>
      </trkpt>
      <trkpt lat="46.52613" lon="-1.78382">
        <ele>-141.60000610352</ele>
        <time>2021-02-23T08:01:56.000Z</time>
      </trkpt>
      <trkpt lat="46.52606" lon="-1.78382">
        <ele>-141.60000610352</ele>
        <time>2021-02-23T08:01:57.000Z</time>
      </trkpt>
      <trkpt lat="46.526" lon="-1.78382">
        <ele>-141.60000610352</ele>
        <time>2021-02-23T08:01:58.000Z</time>
      </trkpt>
      <trkpt lat="46.52588" lon="-1.78383">
        <ele>-141.60000610352</ele>
        <time>2021-02-23T08:02:00.000Z</time>
      </trkpt>
      <trkpt lat="46.52583" lon="-1.78383">
        <ele>-141.60000610352</ele>
        <time>2021-02-23T08:02:01.000Z</time>
      </trkpt>
      <trkpt lat="46.52577" lon="-1.78383">
        <ele>-141.60000610352</ele>
        <time>2021-02-23T08:02:02.000Z</time>
      </trkpt>
      <trkpt lat="46.52571" lon="-1.78383">
        <ele>-141.80000305176</ele>
        <time>2021-02-23T08:02:03.000Z</time>
      </trkpt>
      <trkpt lat="46.52565" lon="-1.78383">
        <ele>-141.80000305176</ele>
        <time>2021-02-23T08:02:04.000Z</time>
      </trkpt>
      <trkpt lat="46.52548" lon="-1.78384">
        <ele>-142</ele>
        <time>2021-02-23T08:02:07.000Z</time>
      </trkpt>
      <trkpt lat="46.52519" lon="-1.78386">
        <ele>-142.39999389648</ele>
        <time>2021-02-23T08:02:12.000Z</time>
      </trkpt>
      <trkpt lat="46.52486" lon="-1.78387">
        <ele>-143</ele>
        <time>2021-02-23T08:02:17.000Z</time>
      </trkpt>
      <trkpt lat="46.5248" lon="-1.78388">
        <ele>-143</ele>
        <time>2021-02-23T08:02:18.000Z</time>
      </trkpt>
      <trkpt lat="46.52473" lon="-1.78389">
        <ele>-143.19999694824</ele>
        <time>2021-02-23T08:02:19.000Z</time>
      </trkpt>
      <trkpt lat="46.52467" lon="-1.78392">
        <ele>-143.19999694824</ele>
        <time>2021-02-23T08:02:20.000Z</time>
      </trkpt>
      <trkpt lat="46.52462" lon="-1.78396">
        <ele>-143.39999389648</ele>
        <time>2021-02-23T08:02:21.000Z</time>
      </trkpt>
      <trkpt lat="46.52456" lon="-1.78399">
        <ele>-143.60000610352</ele>
        <time>2021-02-23T08:02:22.000Z</time>
      </trkpt>
      <trkpt lat="46.52452" lon="-1.784">
        <ele>-143.60000610352</ele>
        <time>2021-02-23T08:02:23.000Z</time>
      </trkpt>
      <trkpt lat="46.52449" lon="-1.78402">
        <ele>-143.60000610352</ele>
        <time>2021-02-23T08:02:24.000Z</time>
      </trkpt>
      <trkpt lat="46.52447" lon="-1.78404">
        <ele>-143.60000610352</ele>
        <time>2021-02-23T08:02:25.000Z</time>
      </trkpt>
      <trkpt lat="46.52446" lon="-1.78407">
        <ele>-143.60000610352</ele>
        <time>2021-02-23T08:02:26.000Z</time>
      </trkpt>
      <trkpt lat="46.52444" lon="-1.78415">
        <ele>-143.80000305176</ele>
        <time>2021-02-23T08:02:28.000Z</time>
      </trkpt>
      <trkpt lat="46.52441" lon="-1.78419">
        <ele>-143.80000305176</ele>
        <time>2021-02-23T08:02:29.000Z</time>
      </trkpt>
      <trkpt lat="46.52433" lon="-1.78427">
        <ele>-143.80000305176</ele>
        <time>2021-02-23T08:02:31.000Z</time>
      </trkpt>
      <trkpt lat="46.52429" lon="-1.78431">
        <ele>-143.80000305176</ele>
        <time>2021-02-23T08:02:32.000Z</time>
      </trkpt>
      <trkpt lat="46.5242" lon="-1.78439">
        <ele>-143.80000305176</ele>
        <time>2021-02-23T08:02:34.000Z</time>
      </trkpt>
      <trkpt lat="46.52397" lon="-1.78462">
        <ele>-144</ele>
        <time>2021-02-23T08:02:39.000Z</time>
      </trkpt>
      <trkpt lat="46.52392" lon="-1.78467">
        <ele>-144</ele>
        <time>2021-02-23T08:02:40.000Z</time>
      </trkpt>
      <trkpt lat="46.52361" lon="-1.78505">
        <ele>-143.80000305176</ele>
        <time>2021-02-23T08:02:47.000Z</time>
      </trkpt>
      <trkpt lat="46.52357" lon="-1.78511">
        <ele>-143.80000305176</ele>
        <time>2021-02-23T08:02:48.000Z</time>
      </trkpt>
      <trkpt lat="46.52353" lon="-1.78518">
        <ele>-143.80000305176</ele>
        <time>2021-02-23T08:02:49.000Z</time>
      </trkpt>
      <trkpt lat="46.5235" lon="-1.78525">
        <ele>-143.80000305176</ele>
        <time>2021-02-23T08:02:50.000Z</time>
      </trkpt>
      <trkpt lat="46.52336" lon="-1.78552">
        <ele>-143.80000305176</ele>
        <time>2021-02-23T08:02:54.000Z</time>
      </trkpt>
      <trkpt lat="46.52332" lon="-1.78559">
        <ele>-143.80000305176</ele>
        <time>2021-02-23T08:02:55.000Z</time>
      </trkpt>
      <trkpt lat="46.52328" lon="-1.78565">
        <ele>-144</ele>
        <time>2021-02-23T08:02:56.000Z</time>
      </trkpt>
      <trkpt lat="46.52324" lon="-1.7857">
        <ele>-144</ele>
        <time>2021-02-23T08:02:57.000Z</time>
      </trkpt>
      <trkpt lat="46.52321" lon="-1.78575">
        <ele>-144</ele>
        <time>2021-02-23T08:02:58.000Z</time>
      </trkpt>
      <trkpt lat="46.52318" lon="-1.78579">
        <ele>-144.19999694824</ele>
        <time>2021-02-23T08:02:59.000Z</time>
      </trkpt>
      <trkpt lat="46.52315" lon="-1.78581">
        <ele>-144.19999694824</ele>
        <time>2021-02-23T08:03:00.000Z</time>
      </trkpt>
      <trkpt lat="46.52312" lon="-1.78581">
        <ele>-144.19999694824</ele>
        <time>2021-02-23T08:03:01.000Z</time>
      </trkpt>
      <trkpt lat="46.5231" lon="-1.7858">
        <ele>-144.60000610352</ele>
        <time>2021-02-23T08:03:02.000Z</time>
      </trkpt>
      <trkpt lat="46.52308" lon="-1.78576">
        <ele>-144.80000305176</ele>
        <time>2021-02-23T08:03:03.000Z</time>
      </trkpt>
      <trkpt lat="46.52306" lon="-1.78568">
        <ele>-145.19999694824</ele>
        <time>2021-02-23T08:03:05.000Z</time>
      </trkpt>
      <trkpt lat="46.52304" lon="-1.78566">
        <ele>-145.19999694824</ele>
        <time>2021-02-23T08:03:06.000Z</time>
      </trkpt>
      <trkpt lat="46.52301" lon="-1.78566">
        <ele>-145.39999389648</ele>
        <time>2021-02-23T08:03:07.000Z</time>
      </trkpt>
      <trkpt lat="46.52297" lon="-1.78567">
        <ele>-145.39999389648</ele>
        <time>2021-02-23T08:03:08.000Z</time>
      </trkpt>
      <trkpt lat="46.52289" lon="-1.78566">
        <ele>-145.60000610352</ele>
        <time>2021-02-23T08:03:10.000Z</time>
      </trkpt>
      <trkpt lat="46.52279" lon="-1.78567">
        <ele>-145.60000610352</ele>
        <time>2021-02-23T08:03:12.000Z</time>
      </trkpt>
      <trkpt lat="46.52237" lon="-1.78572">
        <ele>-146.39999389648</ele>
        <time>2021-02-23T08:03:19.000Z</time>
      </trkpt>
      <trkpt lat="46.52224" lon="-1.78573">
        <ele>-146.80000305176</ele>
        <time>2021-02-23T08:03:21.000Z</time>
      </trkpt>
      <trkpt lat="46.52217" lon="-1.78574">
        <ele>-146.80000305176</ele>
        <time>2021-02-23T08:03:22.000Z</time>
      </trkpt>
      <trkpt lat="46.5221" lon="-1.78575">
        <ele>-147</ele>
        <time>2021-02-23T08:03:23.000Z</time>
      </trkpt>
      <trkpt lat="46.52204" lon="-1.78576">
        <ele>-147</ele>
        <time>2021-02-23T08:03:24.000Z</time>
      </trkpt>
      <trkpt lat="46.52197" lon="-1.78578">
        <ele>-147.39999389648</ele>
        <time>2021-02-23T08:03:25.000Z</time>
      </trkpt>
      <trkpt lat="46.52191" lon="-1.7858">
        <ele>-147.60000610352</ele>
        <time>2021-02-23T08:03:26.000Z</time>
      </trkpt>
      <trkpt lat="46.52185" lon="-1.78582">
        <ele>-148</ele>
        <time>2021-02-23T08:03:27.000Z</time>
      </trkpt>
      <trkpt lat="46.52162" lon="-1.78591">
        <ele>-148.60000610352</ele>
        <time>2021-02-23T08:03:31.000Z</time>
      </trkpt>
      <trkpt lat="46.52143" lon="-1.78598">
        <ele>-149</ele>
        <time>2021-02-23T08:03:34.000Z</time>
      </trkpt>
      <trkpt lat="46.52137" lon="-1.78599">
        <ele>-149.19999694824</ele>
        <time>2021-02-23T08:03:35.000Z</time>
      </trkpt>
      <trkpt lat="46.52131" lon="-1.78601">
        <ele>-149.19999694824</ele>
        <time>2021-02-23T08:03:36.000Z</time>
      </trkpt>
      <trkpt lat="46.52125" lon="-1.78603">
        <ele>-149.19999694824</ele>
        <time>2021-02-23T08:03:37.000Z</time>
      </trkpt>
      <trkpt lat="46.52119" lon="-1.78606">
        <ele>-149.19999694824</ele>
        <time>2021-02-23T08:03:38.000Z</time>
      </trkpt>
      <trkpt lat="46.52114" lon="-1.7861">
        <ele>-149.19999694824</ele>
        <time>2021-02-23T08:03:39.000Z</time>
      </trkpt>
      <trkpt lat="46.52109" lon="-1.78616">
        <ele>-149.39999389648</ele>
        <time>2021-02-23T08:03:40.000Z</time>
      </trkpt>
      <trkpt lat="46.52106" lon="-1.78623">
        <ele>-149.39999389648</ele>
        <time>2021-02-23T08:03:41.000Z</time>
      </trkpt>
      <trkpt lat="46.52103" lon="-1.78629">
        <ele>-149.60000610352</ele>
        <time>2021-02-23T08:03:42.000Z</time>
      </trkpt>
      <trkpt lat="46.52098" lon="-1.78635">
        <ele>-149.80000305176</ele>
        <time>2021-02-23T08:03:43.000Z</time>
      </trkpt>
      <trkpt lat="46.52093" lon="-1.78639">
        <ele>-150</ele>
        <time>2021-02-23T08:03:44.000Z</time>
      </trkpt>
      <trkpt lat="46.52087" lon="-1.78642">
        <ele>-150</ele>
        <time>2021-02-23T08:03:45.000Z</time>
      </trkpt>
      <trkpt lat="46.52081" lon="-1.78645">
        <ele>-150.19999694824</ele>
        <time>2021-02-23T08:03:46.000Z</time>
      </trkpt>
      <trkpt lat="46.52076" lon="-1.7865">
        <ele>-150.39999389648</ele>
        <time>2021-02-23T08:03:47.000Z</time>
      </trkpt>
      <trkpt lat="46.52072" lon="-1.78656">
        <ele>-150.39999389648</ele>
        <time>2021-02-23T08:03:48.000Z</time>
      </trkpt>
      <trkpt lat="46.52067" lon="-1.78662">
        <ele>-150.60000610352</ele>
        <time>2021-02-23T08:03:49.000Z</time>
      </trkpt>
      <trkpt lat="46.52051" lon="-1.78677">
        <ele>-150.80000305176</ele>
        <time>2021-02-23T08:03:52.000Z</time>
      </trkpt>
      <trkpt lat="46.52046" lon="-1.78682">
        <ele>-150.80000305176</ele>
        <time>2021-02-23T08:03:53.000Z</time>
      </trkpt>
      <trkpt lat="46.52041" lon="-1.78687">
        <ele>-151</ele>
        <time>2021-02-23T08:03:54.000Z</time>
      </trkpt>
      <trkpt lat="46.52036" lon="-1.78692">
        <ele>-151</ele>
        <time>2021-02-23T08:03:55.000Z</time>
      </trkpt>
      <trkpt lat="46.52027" lon="-1.78703">
        <ele>-151</ele>
        <time>2021-02-23T08:03:57.000Z</time>
      </trkpt>
      <trkpt lat="46.52023" lon="-1.7871">
        <ele>-151</ele>
        <time>2021-02-23T08:03:58.000Z</time>
      </trkpt>
      <trkpt lat="46.51986" lon="-1.78772">
        <ele>-150.80000305176</ele>
        <time>2021-02-23T08:04:07.000Z</time>
      </trkpt>
      <trkpt lat="46.51982" lon="-1.78779">
        <ele>-150.80000305176</ele>
        <time>2021-02-23T08:04:08.000Z</time>
      </trkpt>
      <trkpt lat="46.51978" lon="-1.78784">
        <ele>-150.80000305176</ele>
        <time>2021-02-23T08:04:09.000Z</time>
      </trkpt>
      <trkpt lat="46.5197" lon="-1.78796">
        <ele>-150.80000305176</ele>
        <time>2021-02-23T08:04:11.000Z</time>
      </trkpt>
      <trkpt lat="46.51966" lon="-1.78803">
        <ele>-150.60000610352</ele>
        <time>2021-02-23T08:04:12.000Z</time>
      </trkpt>
      <trkpt lat="46.51962" lon="-1.7881">
        <ele>-150.60000610352</ele>
        <time>2021-02-23T08:04:13.000Z</time>
      </trkpt>
      <trkpt lat="46.51957" lon="-1.78817">
        <ele>-150.60000610352</ele>
        <time>2021-02-23T08:04:14.000Z</time>
      </trkpt>
      <trkpt lat="46.51953" lon="-1.78824">
        <ele>-150.60000610352</ele>
        <time>2021-02-23T08:04:15.000Z</time>
      </trkpt>
      <trkpt lat="46.51948" lon="-1.78829">
        <ele>-150.60000610352</ele>
        <time>2021-02-23T08:04:16.000Z</time>
      </trkpt>
      <trkpt lat="46.51944" lon="-1.78834">
        <ele>-150.80000305176</ele>
        <time>2021-02-23T08:04:17.000Z</time>
      </trkpt>
      <trkpt lat="46.51939" lon="-1.78839">
        <ele>-150.80000305176</ele>
        <time>2021-02-23T08:04:18.000Z</time>
      </trkpt>
      <trkpt lat="46.51935" lon="-1.78844">
        <ele>-150.80000305176</ele>
        <time>2021-02-23T08:04:19.000Z</time>
      </trkpt>
      <trkpt lat="46.51931" lon="-1.78848">
        <ele>-150.80000305176</ele>
        <time>2021-02-23T08:04:20.000Z</time>
      </trkpt>
      <trkpt lat="46.51926" lon="-1.78852">
        <ele>-150.80000305176</ele>
        <time>2021-02-23T08:04:21.000Z</time>
      </trkpt>
      <trkpt lat="46.51922" lon="-1.78855">
        <ele>-150.80000305176</ele>
        <time>2021-02-23T08:04:22.000Z</time>
      </trkpt>
      <trkpt lat="46.51918" lon="-1.78857">
        <ele>-150.80000305176</ele>
        <time>2021-02-23T08:04:23.000Z</time>
      </trkpt>
      <trkpt lat="46.51914" lon="-1.7886">
        <ele>-151.19999694824</ele>
        <time>2021-02-23T08:04:24.000Z</time>
      </trkpt>
      <trkpt lat="46.51913" lon="-1.7887">
        <ele>-151.39999389648</ele>
        <time>2021-02-23T08:04:26.000Z</time>
      </trkpt>
      <trkpt lat="46.51918" lon="-1.78883">
        <ele>-151.39999389648</ele>
        <time>2021-02-23T08:04:28.000Z</time>
      </trkpt>
      <trkpt lat="46.51924" lon="-1.78908">
        <ele>-151.39999389648</ele>
        <time>2021-02-23T08:04:31.000Z</time>
      </trkpt>
      <trkpt lat="46.51926" lon="-1.78916">
        <ele>-151.39999389648</ele>
        <time>2021-02-23T08:04:32.000Z</time>
      </trkpt>
      <trkpt lat="46.51927" lon="-1.78923">
        <ele>-151.39999389648</ele>
        <time>2021-02-23T08:04:33.000Z</time>
      </trkpt>
      <trkpt lat="46.51928" lon="-1.7893">
        <ele>-151.60000610352</ele>
        <time>2021-02-23T08:04:34.000Z</time>
      </trkpt>
      <trkpt lat="46.51929" lon="-1.78936">
        <ele>-151.60000610352</ele>
        <time>2021-02-23T08:04:35.000Z</time>
      </trkpt>
      <trkpt lat="46.51929" lon="-1.78941">
        <ele>-151.60000610352</ele>
        <time>2021-02-23T08:04:36.000Z</time>
      </trkpt>
      <trkpt lat="46.51928" lon="-1.78945">
        <ele>-151.60000610352</ele>
        <time>2021-02-23T08:04:37.000Z</time>
      </trkpt>
      <trkpt lat="46.51928" lon="-1.78949">
        <ele>-151.60000610352</ele>
        <time>2021-02-23T08:04:38.000Z</time>
      </trkpt>
      <trkpt lat="46.51931" lon="-1.78961">
        <ele>-151.60000610352</ele>
        <time>2021-02-23T08:04:41.000Z</time>
      </trkpt>
      <trkpt lat="46.51932" lon="-1.78967">
        <ele>-151.80000305176</ele>
        <time>2021-02-23T08:04:42.000Z</time>
      </trkpt>
      <trkpt lat="46.51932" lon="-1.78973">
        <ele>-151.80000305176</ele>
        <time>2021-02-23T08:04:43.000Z</time>
      </trkpt>
      <trkpt lat="46.51933" lon="-1.78985">
        <ele>-151.80000305176</ele>
        <time>2021-02-23T08:04:45.000Z</time>
      </trkpt>
      <trkpt lat="46.51934" lon="-1.78997">
        <ele>-151.80000305176</ele>
        <time>2021-02-23T08:04:47.000Z</time>
      </trkpt>
      <trkpt lat="46.51935" lon="-1.79004">
        <ele>-151.80000305176</ele>
        <time>2021-02-23T08:04:48.000Z</time>
      </trkpt>
      <trkpt lat="46.51939" lon="-1.79016">
        <ele>-151.60000610352</ele>
        <time>2021-02-23T08:04:50.000Z</time>
      </trkpt>
      <trkpt lat="46.51942" lon="-1.79019">
        <ele>-151.60000610352</ele>
        <time>2021-02-23T08:04:51.000Z</time>
      </trkpt>
      <trkpt lat="46.51947" lon="-1.79022">
        <ele>-151.80000305176</ele>
        <time>2021-02-23T08:04:52.000Z</time>
      </trkpt>
      <trkpt lat="46.5195" lon="-1.79024">
        <ele>-151.80000305176</ele>
        <time>2021-02-23T08:04:53.000Z</time>
      </trkpt>
      <trkpt lat="46.51954" lon="-1.79027">
        <ele>-151.80000305176</ele>
        <time>2021-02-23T08:04:54.000Z</time>
      </trkpt>
      <trkpt lat="46.51957" lon="-1.7903">
        <ele>-151.80000305176</ele>
        <time>2021-02-23T08:04:55.000Z</time>
      </trkpt>
      <trkpt lat="46.5196" lon="-1.79033">
        <ele>-151.80000305176</ele>
        <time>2021-02-23T08:04:56.000Z</time>
      </trkpt>
      <trkpt lat="46.5196" lon="-1.79037">
        <ele>-151.80000305176</ele>
        <time>2021-02-23T08:04:57.000Z</time>
      </trkpt>
      <trkpt lat="46.5196" lon="-1.79043">
        <ele>-151.80000305176</ele>
        <time>2021-02-23T08:04:58.000Z</time>
      </trkpt>
      <trkpt lat="46.51954" lon="-1.79061">
        <ele>-151.80000305176</ele>
        <time>2021-02-23T08:05:01.000Z</time>
      </trkpt>
      <trkpt lat="46.51942" lon="-1.79089">
        <ele>-151.60000610352</ele>
        <time>2021-02-23T08:05:05.000Z</time>
      </trkpt>
      <trkpt lat="46.51939" lon="-1.79095">
        <ele>-151.60000610352</ele>
        <time>2021-02-23T08:05:06.000Z</time>
      </trkpt>
      <trkpt lat="46.51936" lon="-1.79102">
        <ele>-151.80000305176</ele>
        <time>2021-02-23T08:05:07.000Z</time>
      </trkpt>
      <trkpt lat="46.51933" lon="-1.79109">
        <ele>-151.80000305176</ele>
        <time>2021-02-23T08:05:08.000Z</time>
      </trkpt>
      <trkpt lat="46.5193" lon="-1.79114">
        <ele>-151.80000305176</ele>
        <time>2021-02-23T08:05:09.000Z</time>
      </trkpt>
      <trkpt lat="46.51928" lon="-1.79119">
        <ele>-152</ele>
        <time>2021-02-23T08:05:10.000Z</time>
      </trkpt>
      <trkpt lat="46.51927" lon="-1.79122">
        <ele>-152</ele>
        <time>2021-02-23T08:05:11.000Z</time>
      </trkpt>
      <trkpt lat="46.51926" lon="-1.79123">
        <ele>-152</ele>
        <time>2021-02-23T08:05:12.000Z</time>
      </trkpt>
      <trkpt lat="46.51926" lon="-1.79125">
        <ele>-152.19999694824</ele>
        <time>2021-02-23T08:05:13.000Z</time>
      </trkpt>
      <trkpt lat="46.51925" lon="-1.79127">
        <ele>-152.19999694824</ele>
        <time>2021-02-23T08:05:14.000Z</time>
      </trkpt>
      <trkpt lat="46.51925" lon="-1.79128">
        <ele>-152.19999694824</ele>
        <time>2021-02-23T08:05:15.000Z</time>
      </trkpt>
      <trkpt lat="46.51924" lon="-1.79132">
        <ele>-152.19999694824</ele>
        <time>2021-02-23T08:05:17.000Z</time>
      </trkpt>
      <trkpt lat="46.51917" lon="-1.79148">
        <ele>-152</ele>
        <time>2021-02-23T08:05:21.000Z</time>
      </trkpt>
      <trkpt lat="46.51905" lon="-1.79182">
        <ele>-151.80000305176</ele>
        <time>2021-02-23T08:05:26.000Z</time>
      </trkpt>
      <trkpt lat="46.51898" lon="-1.79204">
        <ele>-152</ele>
        <time>2021-02-23T08:05:29.000Z</time>
      </trkpt>
      <trkpt lat="46.51886" lon="-1.79244">
        <ele>-152.19999694824</ele>
        <time>2021-02-23T08:05:34.000Z</time>
      </trkpt>
      <trkpt lat="46.51873" lon="-1.79283">
        <ele>-152.39999389648</ele>
        <time>2021-02-23T08:05:39.000Z</time>
      </trkpt>
      <trkpt lat="46.5187" lon="-1.79291">
        <ele>-152.39999389648</ele>
        <time>2021-02-23T08:05:40.000Z</time>
      </trkpt>
      <trkpt lat="46.51868" lon="-1.79299">
        <ele>-152.39999389648</ele>
        <time>2021-02-23T08:05:41.000Z</time>
      </trkpt>
      <trkpt lat="46.51866" lon="-1.79307">
        <ele>-152.60000610352</ele>
        <time>2021-02-23T08:05:42.000Z</time>
      </trkpt>
      <trkpt lat="46.5186" lon="-1.79322">
        <ele>-152.80000305176</ele>
        <time>2021-02-23T08:05:44.000Z</time>
      </trkpt>
      <trkpt lat="46.51858" lon="-1.7933">
        <ele>-152.80000305176</ele>
        <time>2021-02-23T08:05:45.000Z</time>
      </trkpt>
      <trkpt lat="46.51855" lon="-1.79337">
        <ele>-152.80000305176</ele>
        <time>2021-02-23T08:05:46.000Z</time>
      </trkpt>
      <trkpt lat="46.51853" lon="-1.79345">
        <ele>-152.80000305176</ele>
        <time>2021-02-23T08:05:47.000Z</time>
      </trkpt>
      <trkpt lat="46.51851" lon="-1.79353">
        <ele>-153</ele>
        <time>2021-02-23T08:05:48.000Z</time>
      </trkpt>
      <trkpt lat="46.51848" lon="-1.7936">
        <ele>-153</ele>
        <time>2021-02-23T08:05:49.000Z</time>
      </trkpt>
      <trkpt lat="46.51846" lon="-1.79367">
        <ele>-153</ele>
        <time>2021-02-23T08:05:50.000Z</time>
      </trkpt>
      <trkpt lat="46.51821" lon="-1.79439">
        <ele>-153.19999694824</ele>
        <time>2021-02-23T08:06:00.000Z</time>
      </trkpt>
      <trkpt lat="46.51817" lon="-1.79446">
        <ele>-153.19999694824</ele>
        <time>2021-02-23T08:06:01.000Z</time>
      </trkpt>
      <trkpt lat="46.51815" lon="-1.79453">
        <ele>-153.19999694824</ele>
        <time>2021-02-23T08:06:02.000Z</time>
      </trkpt>
      <trkpt lat="46.51812" lon="-1.79461">
        <ele>-153.39999389648</ele>
        <time>2021-02-23T08:06:03.000Z</time>
      </trkpt>
      <trkpt lat="46.51808" lon="-1.79476">
        <ele>-153.60000610352</ele>
        <time>2021-02-23T08:06:05.000Z</time>
      </trkpt>
      <trkpt lat="46.51806" lon="-1.79484">
        <ele>-153.60000610352</ele>
        <time>2021-02-23T08:06:06.000Z</time>
      </trkpt>
      <trkpt lat="46.51803" lon="-1.79491">
        <ele>-153.80000305176</ele>
        <time>2021-02-23T08:06:07.000Z</time>
      </trkpt>
      <trkpt lat="46.51801" lon="-1.79498">
        <ele>-154</ele>
        <time>2021-02-23T08:06:08.000Z</time>
      </trkpt>
      <trkpt lat="46.51798" lon="-1.79505">
        <ele>-154</ele>
        <time>2021-02-23T08:06:09.000Z</time>
      </trkpt>
      <trkpt lat="46.51797" lon="-1.79511">
        <ele>-154.19999694824</ele>
        <time>2021-02-23T08:06:10.000Z</time>
      </trkpt>
      <trkpt lat="46.51797" lon="-1.79518">
        <ele>-154.19999694824</ele>
        <time>2021-02-23T08:06:11.000Z</time>
      </trkpt>
      <trkpt lat="46.51798" lon="-1.79524">
        <ele>-154.39999389648</ele>
        <time>2021-02-23T08:06:12.000Z</time>
      </trkpt>
      <trkpt lat="46.51801" lon="-1.79528">
        <ele>-154.80000305176</ele>
        <time>2021-02-23T08:06:13.000Z</time>
      </trkpt>
      <trkpt lat="46.51806" lon="-1.7953">
        <ele>-154.80000305176</ele>
        <time>2021-02-23T08:06:14.000Z</time>
      </trkpt>
      <trkpt lat="46.51811" lon="-1.7953">
        <ele>-155</ele>
        <time>2021-02-23T08:06:15.000Z</time>
      </trkpt>
      <trkpt lat="46.51821" lon="-1.79528">
        <ele>-155</ele>
        <time>2021-02-23T08:06:17.000Z</time>
      </trkpt>
      <trkpt lat="46.51826" lon="-1.79526">
        <ele>-155</ele>
        <time>2021-02-23T08:06:18.000Z</time>
      </trkpt>
      <trkpt lat="46.51831" lon="-1.79523">
        <ele>-155</ele>
        <time>2021-02-23T08:06:19.000Z</time>
      </trkpt>
      <trkpt lat="46.51841" lon="-1.79518">
        <ele>-155</ele>
        <time>2021-02-23T08:06:21.000Z</time>
      </trkpt>
      <trkpt lat="46.51881" lon="-1.79495">
        <ele>-154.80000305176</ele>
        <time>2021-02-23T08:06:29.000Z</time>
      </trkpt>
      <trkpt lat="46.51892" lon="-1.79493">
        <ele>-154.60000610352</ele>
        <time>2021-02-23T08:06:31.000Z</time>
      </trkpt>
      <trkpt lat="46.51916" lon="-1.79494">
        <ele>-154.80000305176</ele>
        <time>2021-02-23T08:06:35.000Z</time>
      </trkpt>
      <trkpt lat="46.51927" lon="-1.79499">
        <ele>-155</ele>
        <time>2021-02-23T08:06:37.000Z</time>
      </trkpt>
      <trkpt lat="46.51932" lon="-1.79502">
        <ele>-155</ele>
        <time>2021-02-23T08:06:38.000Z</time>
      </trkpt>
      <trkpt lat="46.51938" lon="-1.79506">
        <ele>-155</ele>
        <time>2021-02-23T08:06:39.000Z</time>
      </trkpt>
      <trkpt lat="46.51943" lon="-1.7951">
        <ele>-155</ele>
        <time>2021-02-23T08:06:40.000Z</time>
      </trkpt>
      <trkpt lat="46.51948" lon="-1.79514">
        <ele>-155.19999694824</ele>
        <time>2021-02-23T08:06:41.000Z</time>
      </trkpt>
      <trkpt lat="46.51959" lon="-1.79522">
        <ele>-155.19999694824</ele>
        <time>2021-02-23T08:06:43.000Z</time>
      </trkpt>
      <trkpt lat="46.5197" lon="-1.79528">
        <ele>-155.39999389648</ele>
        <time>2021-02-23T08:06:45.000Z</time>
      </trkpt>
      <trkpt lat="46.51975" lon="-1.7953">
        <ele>-155.39999389648</ele>
        <time>2021-02-23T08:06:46.000Z</time>
      </trkpt>
      <trkpt lat="46.51981" lon="-1.79533">
        <ele>-155.39999389648</ele>
        <time>2021-02-23T08:06:47.000Z</time>
      </trkpt>
      <trkpt lat="46.51986" lon="-1.79535">
        <ele>-155.39999389648</ele>
        <time>2021-02-23T08:06:48.000Z</time>
      </trkpt>
      <trkpt lat="46.51992" lon="-1.79537">
        <ele>-155.60000610352</ele>
        <time>2021-02-23T08:06:49.000Z</time>
      </trkpt>
      <trkpt lat="46.51997" lon="-1.79539">
        <ele>-155.60000610352</ele>
        <time>2021-02-23T08:06:50.000Z</time>
      </trkpt>
      <trkpt lat="46.52002" lon="-1.7954">
        <ele>-155.60000610352</ele>
        <time>2021-02-23T08:06:51.000Z</time>
      </trkpt>
      <trkpt lat="46.52006" lon="-1.7954">
        <ele>-155.80000305176</ele>
        <time>2021-02-23T08:06:52.000Z</time>
      </trkpt>
      <trkpt lat="46.5201" lon="-1.79541">
        <ele>-155.80000305176</ele>
        <time>2021-02-23T08:06:53.000Z</time>
      </trkpt>
      <trkpt lat="46.52014" lon="-1.79542">
        <ele>-155.80000305176</ele>
        <time>2021-02-23T08:06:55.000Z</time>
      </trkpt>
      <trkpt lat="46.52018" lon="-1.79546">
        <ele>-155.80000305176</ele>
        <time>2021-02-23T08:06:56.000Z</time>
      </trkpt>
      <trkpt lat="46.5202" lon="-1.7955">
        <ele>-156</ele>
        <time>2021-02-23T08:06:57.000Z</time>
      </trkpt>
      <trkpt lat="46.52023" lon="-1.79562">
        <ele>-156.19999694824</ele>
        <time>2021-02-23T08:06:59.000Z</time>
      </trkpt>
      <trkpt lat="46.52024" lon="-1.7957">
        <ele>-156.19999694824</ele>
        <time>2021-02-23T08:07:00.000Z</time>
      </trkpt>
      <trkpt lat="46.52025" lon="-1.79576">
        <ele>-156.19999694824</ele>
        <time>2021-02-23T08:07:01.000Z</time>
      </trkpt>
      <trkpt lat="46.52028" lon="-1.79599">
        <ele>-156.19999694824</ele>
        <time>2021-02-23T08:07:04.000Z</time>
      </trkpt>
      <trkpt lat="46.52036" lon="-1.79658">
        <ele>-156</ele>
        <time>2021-02-23T08:07:11.000Z</time>
      </trkpt>
      <trkpt lat="46.52044" lon="-1.79709">
        <ele>-155.80000305176</ele>
        <time>2021-02-23T08:07:17.000Z</time>
      </trkpt>
      <trkpt lat="46.52045" lon="-1.79717">
        <ele>-155.60000610352</ele>
        <time>2021-02-23T08:07:18.000Z</time>
      </trkpt>
      <trkpt lat="46.52047" lon="-1.79732">
        <ele>-155.60000610352</ele>
        <time>2021-02-23T08:07:20.000Z</time>
      </trkpt>
      <trkpt lat="46.52051" lon="-1.79767">
        <ele>-155.39999389648</ele>
        <time>2021-02-23T08:07:24.000Z</time>
      </trkpt>
      <trkpt lat="46.52057" lon="-1.79802">
        <ele>-155.19999694824</ele>
        <time>2021-02-23T08:07:28.000Z</time>
      </trkpt>
      <trkpt lat="46.52063" lon="-1.79829">
        <ele>-155.19999694824</ele>
        <time>2021-02-23T08:07:31.000Z</time>
      </trkpt>
      <trkpt lat="46.52065" lon="-1.79838">
        <ele>-155</ele>
        <time>2021-02-23T08:07:32.000Z</time>
      </trkpt>
      <trkpt lat="46.52067" lon="-1.79847">
        <ele>-154.80000305176</ele>
        <time>2021-02-23T08:07:33.000Z</time>
      </trkpt>
      <trkpt lat="46.52069" lon="-1.79855">
        <ele>-154.80000305176</ele>
        <time>2021-02-23T08:07:34.000Z</time>
      </trkpt>
      <trkpt lat="46.52071" lon="-1.79863">
        <ele>-154.60000610352</ele>
        <time>2021-02-23T08:07:35.000Z</time>
      </trkpt>
      <trkpt lat="46.52078" lon="-1.79897">
        <ele>-154.39999389648</ele>
        <time>2021-02-23T08:07:39.000Z</time>
      </trkpt>
      <trkpt lat="46.5208" lon="-1.79905">
        <ele>-154.39999389648</ele>
        <time>2021-02-23T08:07:40.000Z</time>
      </trkpt>
      <trkpt lat="46.52083" lon="-1.79922">
        <ele>-154.39999389648</ele>
        <time>2021-02-23T08:07:42.000Z</time>
      </trkpt>
      <trkpt lat="46.52085" lon="-1.79933">
        <ele>-154.39999389648</ele>
        <time>2021-02-23T08:07:43.000Z</time>
      </trkpt>
      <trkpt lat="46.52086" lon="-1.7994">
        <ele>-154.39999389648</ele>
        <time>2021-02-23T08:07:44.000Z</time>
      </trkpt>
      <trkpt lat="46.52087" lon="-1.79947">
        <ele>-154.39999389648</ele>
        <time>2021-02-23T08:07:45.000Z</time>
      </trkpt>
      <trkpt lat="46.52087" lon="-1.79953">
        <ele>-154.39999389648</ele>
        <time>2021-02-23T08:07:46.000Z</time>
      </trkpt>
      <trkpt lat="46.52088" lon="-1.79957">
        <ele>-154.39999389648</ele>
        <time>2021-02-23T08:07:47.000Z</time>
      </trkpt>
      <trkpt lat="46.52089" lon="-1.79961">
        <ele>-154.39999389648</ele>
        <time>2021-02-23T08:07:48.000Z</time>
      </trkpt>
      <trkpt lat="46.52089" lon="-1.79964">
        <ele>-154.60000610352</ele>
        <time>2021-02-23T08:07:49.000Z</time>
      </trkpt>
      <trkpt lat="46.5209" lon="-1.79966">
        <ele>-154.60000610352</ele>
        <time>2021-02-23T08:07:50.000Z</time>
      </trkpt>
      <trkpt lat="46.5209" lon="-1.79969">
        <ele>-154.60000610352</ele>
        <time>2021-02-23T08:07:51.000Z</time>
      </trkpt>
      <trkpt lat="46.5209" lon="-1.7997">
        <ele>-154.80000305176</ele>
        <time>2021-02-23T08:07:52.000Z</time>
      </trkpt>
      <trkpt lat="46.52091" lon="-1.79972">
        <ele>-154.80000305176</ele>
        <time>2021-02-23T08:07:53.000Z</time>
      </trkpt>
      <trkpt lat="46.52091" lon="-1.79973">
        <ele>-155</ele>
        <time>2021-02-23T08:07:54.000Z</time>
      </trkpt>
      <trkpt lat="46.52091" lon="-1.79974">
        <ele>-155</ele>
        <time>2021-02-23T08:07:55.000Z</time>
      </trkpt>
      <trkpt lat="46.52092" lon="-1.79975">
        <ele>-155</ele>
        <time>2021-02-23T08:07:56.000Z</time>
      </trkpt>
      <trkpt lat="46.52093" lon="-1.7998">
        <ele>-155</ele>
        <time>2021-02-23T08:07:59.000Z</time>
      </trkpt>
      <trkpt lat="46.52093" lon="-1.79983">
        <ele>-155</ele>
        <time>2021-02-23T08:08:00.000Z</time>
      </trkpt>
      <trkpt lat="46.52093" lon="-1.79986">
        <ele>-155</ele>
        <time>2021-02-23T08:08:01.000Z</time>
      </trkpt>
      <trkpt lat="46.52094" lon="-1.79988">
        <ele>-155</ele>
        <time>2021-02-23T08:08:02.000Z</time>
      </trkpt>
      <trkpt lat="46.52094" lon="-1.79991">
        <ele>-155.19999694824</ele>
        <time>2021-02-23T08:08:03.000Z</time>
      </trkpt>
      <trkpt lat="46.52094" lon="-1.79993">
        <ele>-155.19999694824</ele>
        <time>2021-02-23T08:08:04.000Z</time>
      </trkpt>
      <trkpt lat="46.52094" lon="-1.79997">
        <ele>-155.19999694824</ele>
        <time>2021-02-23T08:08:06.000Z</time>
      </trkpt>
      <trkpt lat="46.52098" lon="-1.8001">
        <ele>-155.19999694824</ele>
        <time>2021-02-23T08:08:10.000Z</time>
      </trkpt>
      <trkpt lat="46.52099" lon="-1.80014">
        <ele>-155.19999694824</ele>
        <time>2021-02-23T08:08:11.000Z</time>
      </trkpt>
      <trkpt lat="46.52106" lon="-1.80033">
        <ele>-155</ele>
        <time>2021-02-23T08:08:15.000Z</time>
      </trkpt>
      <trkpt lat="46.52108" lon="-1.80038">
        <ele>-155</ele>
        <time>2021-02-23T08:08:16.000Z</time>
      </trkpt>
      <trkpt lat="46.52121" lon="-1.80067">
        <ele>-154.60000610352</ele>
        <time>2021-02-23T08:08:21.000Z</time>
      </trkpt>
      <trkpt lat="46.52146" lon="-1.80105">
        <ele>-154.39999389648</ele>
        <time>2021-02-23T08:08:28.000Z</time>
      </trkpt>
      <trkpt lat="46.52149" lon="-1.80111">
        <ele>-154.39999389648</ele>
        <time>2021-02-23T08:08:29.000Z</time>
      </trkpt>
      <trkpt lat="46.52152" lon="-1.80115">
        <ele>-154.39999389648</ele>
        <time>2021-02-23T08:08:30.000Z</time>
      </trkpt>
      <trkpt lat="46.52157" lon="-1.80117">
        <ele>-154.60000610352</ele>
        <time>2021-02-23T08:08:31.000Z</time>
      </trkpt>
      <trkpt lat="46.52162" lon="-1.8012">
        <ele>-154.60000610352</ele>
        <time>2021-02-23T08:08:32.000Z</time>
      </trkpt>
      <trkpt lat="46.52166" lon="-1.80123">
        <ele>-154.60000610352</ele>
        <time>2021-02-23T08:08:33.000Z</time>
      </trkpt>
      <trkpt lat="46.5217" lon="-1.80127">
        <ele>-154.60000610352</ele>
        <time>2021-02-23T08:08:34.000Z</time>
      </trkpt>
      <trkpt lat="46.52174" lon="-1.80132">
        <ele>-154.60000610352</ele>
        <time>2021-02-23T08:08:35.000Z</time>
      </trkpt>
      <trkpt lat="46.52177" lon="-1.80139">
        <ele>-154.60000610352</ele>
        <time>2021-02-23T08:08:36.000Z</time>
      </trkpt>
      <trkpt lat="46.52179" lon="-1.80146">
        <ele>-154.60000610352</ele>
        <time>2021-02-23T08:08:37.000Z</time>
      </trkpt>
      <trkpt lat="46.52181" lon="-1.80154">
        <ele>-154.60000610352</ele>
        <time>2021-02-23T08:08:38.000Z</time>
      </trkpt>
      <trkpt lat="46.52185" lon="-1.80171">
        <ele>-154.80000305176</ele>
        <time>2021-02-23T08:08:40.000Z</time>
      </trkpt>
      <trkpt lat="46.52196" lon="-1.80222">
        <ele>-155</ele>
        <time>2021-02-23T08:08:46.000Z</time>
      </trkpt>
      <trkpt lat="46.52201" lon="-1.80248">
        <ele>-155.19999694824</ele>
        <time>2021-02-23T08:08:49.000Z</time>
      </trkpt>
      <trkpt lat="46.52205" lon="-1.80274">
        <ele>-155.39999389648</ele>
        <time>2021-02-23T08:08:52.000Z</time>
      </trkpt>
      <trkpt lat="46.52207" lon="-1.80291">
        <ele>-155.39999389648</ele>
        <time>2021-02-23T08:08:54.000Z</time>
      </trkpt>
      <trkpt lat="46.52207" lon="-1.803">
        <ele>-155.60000610352</ele>
        <time>2021-02-23T08:08:55.000Z</time>
      </trkpt>
      <trkpt lat="46.52208" lon="-1.80318">
        <ele>-155.80000305176</ele>
        <time>2021-02-23T08:08:57.000Z</time>
      </trkpt>
      <trkpt lat="46.52208" lon="-1.80345">
        <ele>-156</ele>
        <time>2021-02-23T08:09:00.000Z</time>
      </trkpt>
      <trkpt lat="46.52205" lon="-1.804">
        <ele>-156.19999694824</ele>
        <time>2021-02-23T08:09:06.000Z</time>
      </trkpt>
      <trkpt lat="46.52206" lon="-1.80418">
        <ele>-156.39999389648</ele>
        <time>2021-02-23T08:09:08.000Z</time>
      </trkpt>
      <trkpt lat="46.52211" lon="-1.80436">
        <ele>-156.60000610352</ele>
        <time>2021-02-23T08:09:10.000Z</time>
      </trkpt>
      <trkpt lat="46.52218" lon="-1.80454">
        <ele>-156.60000610352</ele>
        <time>2021-02-23T08:09:12.000Z</time>
      </trkpt>
      <trkpt lat="46.5222" lon="-1.80463">
        <ele>-156.80000305176</ele>
        <time>2021-02-23T08:09:13.000Z</time>
      </trkpt>
      <trkpt lat="46.52221" lon="-1.80473">
        <ele>-156.80000305176</ele>
        <time>2021-02-23T08:09:14.000Z</time>
      </trkpt>
      <trkpt lat="46.52222" lon="-1.80483">
        <ele>-156.80000305176</ele>
        <time>2021-02-23T08:09:15.000Z</time>
      </trkpt>
      <trkpt lat="46.52222" lon="-1.80492">
        <ele>-157</ele>
        <time>2021-02-23T08:09:16.000Z</time>
      </trkpt>
      <trkpt lat="46.52221" lon="-1.80502">
        <ele>-157</ele>
        <time>2021-02-23T08:09:17.000Z</time>
      </trkpt>
      <trkpt lat="46.5222" lon="-1.80519">
        <ele>-157</ele>
        <time>2021-02-23T08:09:19.000Z</time>
      </trkpt>
      <trkpt lat="46.52221" lon="-1.80528">
        <ele>-157</ele>
        <time>2021-02-23T08:09:20.000Z</time>
      </trkpt>
      <trkpt lat="46.52223" lon="-1.80537">
        <ele>-157.19999694824</ele>
        <time>2021-02-23T08:09:21.000Z</time>
      </trkpt>
      <trkpt lat="46.52225" lon="-1.80546">
        <ele>-157.19999694824</ele>
        <time>2021-02-23T08:09:22.000Z</time>
      </trkpt>
      <trkpt lat="46.52228" lon="-1.80553">
        <ele>-157.19999694824</ele>
        <time>2021-02-23T08:09:23.000Z</time>
      </trkpt>
      <trkpt lat="46.52233" lon="-1.80561">
        <ele>-157.19999694824</ele>
        <time>2021-02-23T08:09:24.000Z</time>
      </trkpt>
      <trkpt lat="46.52238" lon="-1.80567">
        <ele>-157.19999694824</ele>
        <time>2021-02-23T08:09:25.000Z</time>
      </trkpt>
      <trkpt lat="46.52243" lon="-1.80573">
        <ele>-157.19999694824</ele>
        <time>2021-02-23T08:09:26.000Z</time>
      </trkpt>
      <trkpt lat="46.52266" lon="-1.80593">
        <ele>-157.19999694824</ele>
        <time>2021-02-23T08:09:30.000Z</time>
      </trkpt>
      <trkpt lat="46.52284" lon="-1.80608">
        <ele>-157.19999694824</ele>
        <time>2021-02-23T08:09:33.000Z</time>
      </trkpt>
      <trkpt lat="46.5229" lon="-1.80612">
        <ele>-157.19999694824</ele>
        <time>2021-02-23T08:09:34.000Z</time>
      </trkpt>
      <trkpt lat="46.52297" lon="-1.80616">
        <ele>-157.19999694824</ele>
        <time>2021-02-23T08:09:35.000Z</time>
      </trkpt>
      <trkpt lat="46.52309" lon="-1.80623">
        <ele>-157.19999694824</ele>
        <time>2021-02-23T08:09:37.000Z</time>
      </trkpt>
      <trkpt lat="46.52314" lon="-1.80626">
        <ele>-157.19999694824</ele>
        <time>2021-02-23T08:09:38.000Z</time>
      </trkpt>
      <trkpt lat="46.52358" lon="-1.80655">
        <ele>-157.39999389648</ele>
        <time>2021-02-23T08:09:45.000Z</time>
      </trkpt>
      <trkpt lat="46.52363" lon="-1.8066">
        <ele>-157.39999389648</ele>
        <time>2021-02-23T08:09:46.000Z</time>
      </trkpt>
      <trkpt lat="46.52368" lon="-1.80666">
        <ele>-157.39999389648</ele>
        <time>2021-02-23T08:09:47.000Z</time>
      </trkpt>
      <trkpt lat="46.52373" lon="-1.80672">
        <ele>-157.39999389648</ele>
        <time>2021-02-23T08:09:48.000Z</time>
      </trkpt>
      <trkpt lat="46.52384" lon="-1.80684">
        <ele>-157.39999389648</ele>
        <time>2021-02-23T08:09:50.000Z</time>
      </trkpt>
      <trkpt lat="46.52389" lon="-1.8069">
        <ele>-157.39999389648</ele>
        <time>2021-02-23T08:09:51.000Z</time>
      </trkpt>
      <trkpt lat="46.52394" lon="-1.80695">
        <ele>-157.39999389648</ele>
        <time>2021-02-23T08:09:52.000Z</time>
      </trkpt>
      <trkpt lat="46.52406" lon="-1.80708">
        <ele>-157.39999389648</ele>
        <time>2021-02-23T08:09:54.000Z</time>
      </trkpt>
      <trkpt lat="46.5241" lon="-1.80713">
        <ele>-157.39999389648</ele>
        <time>2021-02-23T08:09:55.000Z</time>
      </trkpt>
      <trkpt lat="46.52415" lon="-1.80718">
        <ele>-157.39999389648</ele>
        <time>2021-02-23T08:09:56.000Z</time>
      </trkpt>
      <trkpt lat="46.52419" lon="-1.80724">
        <ele>-157.39999389648</ele>
        <time>2021-02-23T08:09:57.000Z</time>
      </trkpt>
      <trkpt lat="46.52424" lon="-1.80729">
        <ele>-157.39999389648</ele>
        <time>2021-02-23T08:09:58.000Z</time>
      </trkpt>
      <trkpt lat="46.52429" lon="-1.80734">
        <ele>-157.39999389648</ele>
        <time>2021-02-23T08:09:59.000Z</time>
      </trkpt>
      <trkpt lat="46.52437" lon="-1.80745">
        <ele>-157.39999389648</ele>
        <time>2021-02-23T08:10:01.000Z</time>
      </trkpt>
      <trkpt lat="46.5244" lon="-1.80753">
        <ele>-157.39999389648</ele>
        <time>2021-02-23T08:10:02.000Z</time>
      </trkpt>
      <trkpt lat="46.52441" lon="-1.80762">
        <ele>-157.39999389648</ele>
        <time>2021-02-23T08:10:03.000Z</time>
      </trkpt>
      <trkpt lat="46.52442" lon="-1.80771">
        <ele>-157.19999694824</ele>
        <time>2021-02-23T08:10:04.000Z</time>
      </trkpt>
      <trkpt lat="46.52442" lon="-1.8078">
        <ele>-157</ele>
        <time>2021-02-23T08:10:05.000Z</time>
      </trkpt>
      <trkpt lat="46.52441" lon="-1.80788">
        <ele>-156.60000610352</ele>
        <time>2021-02-23T08:10:06.000Z</time>
      </trkpt>
      <trkpt lat="46.52441" lon="-1.80796">
        <ele>-156.19999694824</ele>
        <time>2021-02-23T08:10:07.000Z</time>
      </trkpt>
      <trkpt lat="46.52439" lon="-1.80821">
        <ele>-155.80000305176</ele>
        <time>2021-02-23T08:10:10.000Z</time>
      </trkpt>
      <trkpt lat="46.52436" lon="-1.80865">
        <ele>-155.39999389648</ele>
        <time>2021-02-23T08:10:15.000Z</time>
      </trkpt>
      <trkpt lat="46.52434" lon="-1.80876">
        <ele>-155.19999694824</ele>
        <time>2021-02-23T08:10:16.000Z</time>
      </trkpt>
      <trkpt lat="46.52434" lon="-1.80882">
        <ele>-155.19999694824</ele>
        <time>2021-02-23T08:10:17.000Z</time>
      </trkpt>
      <trkpt lat="46.52433" lon="-1.8089">
        <ele>-155.19999694824</ele>
        <time>2021-02-23T08:10:18.000Z</time>
      </trkpt>
      <trkpt lat="46.52433" lon="-1.80898">
        <ele>-155</ele>
        <time>2021-02-23T08:10:19.000Z</time>
      </trkpt>
      <trkpt lat="46.52432" lon="-1.80906">
        <ele>-155</ele>
        <time>2021-02-23T08:10:20.000Z</time>
      </trkpt>
      <trkpt lat="46.52431" lon="-1.80913">
        <ele>-155</ele>
        <time>2021-02-23T08:10:21.000Z</time>
      </trkpt>
      <trkpt lat="46.52431" lon="-1.8092">
        <ele>-154.80000305176</ele>
        <time>2021-02-23T08:10:22.000Z</time>
      </trkpt>
      <trkpt lat="46.52432" lon="-1.80927">
        <ele>-154.60000610352</ele>
        <time>2021-02-23T08:10:23.000Z</time>
      </trkpt>
      <trkpt lat="46.52434" lon="-1.80932">
        <ele>-154.60000610352</ele>
        <time>2021-02-23T08:10:24.000Z</time>
      </trkpt>
      <trkpt lat="46.52436" lon="-1.80937">
        <ele>-154.60000610352</ele>
        <time>2021-02-23T08:10:25.000Z</time>
      </trkpt>
      <trkpt lat="46.52436" lon="-1.80943">
        <ele>-154.60000610352</ele>
        <time>2021-02-23T08:10:26.000Z</time>
      </trkpt>
      <trkpt lat="46.52436" lon="-1.80955">
        <ele>-154.60000610352</ele>
        <time>2021-02-23T08:10:28.000Z</time>
      </trkpt>
      <trkpt lat="46.52435" lon="-1.80963">
        <ele>-154.80000305176</ele>
        <time>2021-02-23T08:10:29.000Z</time>
      </trkpt>
      <trkpt lat="46.52435" lon="-1.80971">
        <ele>-154.80000305176</ele>
        <time>2021-02-23T08:10:30.000Z</time>
      </trkpt>
      <trkpt lat="46.52435" lon="-1.80977">
        <ele>-154.80000305176</ele>
        <time>2021-02-23T08:10:31.000Z</time>
      </trkpt>
      <trkpt lat="46.52435" lon="-1.80983">
        <ele>-155</ele>
        <time>2021-02-23T08:10:32.000Z</time>
      </trkpt>
      <trkpt lat="46.52434" lon="-1.80989">
        <ele>-155</ele>
        <time>2021-02-23T08:10:33.000Z</time>
      </trkpt>
      <trkpt lat="46.52434" lon="-1.80993">
        <ele>-155</ele>
        <time>2021-02-23T08:10:34.000Z</time>
      </trkpt>
      <trkpt lat="46.52434" lon="-1.80996">
        <ele>-155.19999694824</ele>
        <time>2021-02-23T08:10:35.000Z</time>
      </trkpt>
      <trkpt lat="46.52433" lon="-1.80998">
        <ele>-155.19999694824</ele>
        <time>2021-02-23T08:10:36.000Z</time>
      </trkpt>
      <trkpt lat="46.52433" lon="-1.81">
        <ele>-155.19999694824</ele>
        <time>2021-02-23T08:10:37.000Z</time>
      </trkpt>
      <trkpt lat="46.52432" lon="-1.81002">
        <ele>-155.19999694824</ele>
        <time>2021-02-23T08:10:38.000Z</time>
      </trkpt>
      <trkpt lat="46.5243" lon="-1.81004">
        <ele>-155.19999694824</ele>
        <time>2021-02-23T08:10:39.000Z</time>
      </trkpt>
      <trkpt lat="46.52429" lon="-1.81006">
        <ele>-155.19999694824</ele>
        <time>2021-02-23T08:10:40.000Z</time>
      </trkpt>
      <trkpt lat="46.52427" lon="-1.81009">
        <ele>-155.19999694824</ele>
        <time>2021-02-23T08:10:41.000Z</time>
      </trkpt>
      <trkpt lat="46.52427" lon="-1.81014">
        <ele>-155.19999694824</ele>
        <time>2021-02-23T08:10:42.000Z</time>
      </trkpt>
      <trkpt lat="46.52426" lon="-1.81018">
        <ele>-155.19999694824</ele>
        <time>2021-02-23T08:10:43.000Z</time>
      </trkpt>
      <trkpt lat="46.52426" lon="-1.81021">
        <ele>-155.19999694824</ele>
        <time>2021-02-23T08:10:44.000Z</time>
      </trkpt>
      <trkpt lat="46.52428" lon="-1.81037">
        <ele>-155.19999694824</ele>
        <time>2021-02-23T08:10:48.000Z</time>
      </trkpt>
      <trkpt lat="46.52427" lon="-1.81043">
        <ele>-155.19999694824</ele>
        <time>2021-02-23T08:10:49.000Z</time>
      </trkpt>
      <trkpt lat="46.52426" lon="-1.81048">
        <ele>-155.19999694824</ele>
        <time>2021-02-23T08:10:50.000Z</time>
      </trkpt>
      <trkpt lat="46.52426" lon="-1.8106">
        <ele>-155</ele>
        <time>2021-02-23T08:10:52.000Z</time>
      </trkpt>
      <trkpt lat="46.52427" lon="-1.81068">
        <ele>-155</ele>
        <time>2021-02-23T08:10:53.000Z</time>
      </trkpt>
      <trkpt lat="46.52428" lon="-1.81073">
        <ele>-155</ele>
        <time>2021-02-23T08:10:54.000Z</time>
      </trkpt>
      <trkpt lat="46.5243" lon="-1.81081">
        <ele>-154.80000305176</ele>
        <time>2021-02-23T08:10:55.000Z</time>
      </trkpt>
      <trkpt lat="46.52435" lon="-1.81093">
        <ele>-154.60000610352</ele>
        <time>2021-02-23T08:10:57.000Z</time>
      </trkpt>
      <trkpt lat="46.52439" lon="-1.811">
        <ele>-154.39999389648</ele>
        <time>2021-02-23T08:10:58.000Z</time>
      </trkpt>
      <trkpt lat="46.52446" lon="-1.81113">
        <ele>-154.19999694824</ele>
        <time>2021-02-23T08:11:00.000Z</time>
      </trkpt>
      <trkpt lat="46.52453" lon="-1.81126">
        <ele>-154</ele>
        <time>2021-02-23T08:11:02.000Z</time>
      </trkpt>
      <trkpt lat="46.52456" lon="-1.81133">
        <ele>-153.80000305176</ele>
        <time>2021-02-23T08:11:03.000Z</time>
      </trkpt>
      <trkpt lat="46.5246" lon="-1.81139">
        <ele>-153.80000305176</ele>
        <time>2021-02-23T08:11:04.000Z</time>
      </trkpt>
      <trkpt lat="46.52463" lon="-1.81146">
        <ele>-153.80000305176</ele>
        <time>2021-02-23T08:11:05.000Z</time>
      </trkpt>
      <trkpt lat="46.52466" lon="-1.81152">
        <ele>-153.80000305176</ele>
        <time>2021-02-23T08:11:06.000Z</time>
      </trkpt>
      <trkpt lat="46.52469" lon="-1.81158">
        <ele>-153.60000610352</ele>
        <time>2021-02-23T08:11:07.000Z</time>
      </trkpt>
      <trkpt lat="46.52472" lon="-1.81164">
        <ele>-153.60000610352</ele>
        <time>2021-02-23T08:11:08.000Z</time>
      </trkpt>
      <trkpt lat="46.52476" lon="-1.81171">
        <ele>-153.60000610352</ele>
        <time>2021-02-23T08:11:09.000Z</time>
      </trkpt>
      <trkpt lat="46.52478" lon="-1.81176">
        <ele>-153.39999389648</ele>
        <time>2021-02-23T08:11:10.000Z</time>
      </trkpt>
      <trkpt lat="46.52481" lon="-1.81182">
        <ele>-153.39999389648</ele>
        <time>2021-02-23T08:11:11.000Z</time>
      </trkpt>
      <trkpt lat="46.52485" lon="-1.81188">
        <ele>-153.19999694824</ele>
        <time>2021-02-23T08:11:12.000Z</time>
      </trkpt>
      <trkpt lat="46.52494" lon="-1.81205">
        <ele>-153</ele>
        <time>2021-02-23T08:11:15.000Z</time>
      </trkpt>
      <trkpt lat="46.52498" lon="-1.81211">
        <ele>-153</ele>
        <time>2021-02-23T08:11:16.000Z</time>
      </trkpt>
      <trkpt lat="46.52505" lon="-1.81224">
        <ele>-152.80000305176</ele>
        <time>2021-02-23T08:11:18.000Z</time>
      </trkpt>
      <trkpt lat="46.52515" lon="-1.81242">
        <ele>-152.39999389648</ele>
        <time>2021-02-23T08:11:21.000Z</time>
      </trkpt>
      <trkpt lat="46.52517" lon="-1.81248">
        <ele>-152.39999389648</ele>
        <time>2021-02-23T08:11:22.000Z</time>
      </trkpt>
      <trkpt lat="46.52522" lon="-1.81259">
        <ele>-152.19999694824</ele>
        <time>2021-02-23T08:11:24.000Z</time>
      </trkpt>
      <trkpt lat="46.52532" lon="-1.81278">
        <ele>-152.39999389648</ele>
        <time>2021-02-23T08:11:27.000Z</time>
      </trkpt>
      <trkpt lat="46.52535" lon="-1.81284">
        <ele>-152.39999389648</ele>
        <time>2021-02-23T08:11:28.000Z</time>
      </trkpt>
      <trkpt lat="46.52538" lon="-1.8129">
        <ele>-152.39999389648</ele>
        <time>2021-02-23T08:11:29.000Z</time>
      </trkpt>
      <trkpt lat="46.52542" lon="-1.81296">
        <ele>-152.39999389648</ele>
        <time>2021-02-23T08:11:30.000Z</time>
      </trkpt>
      <trkpt lat="46.52545" lon="-1.81302">
        <ele>-152.39999389648</ele>
        <time>2021-02-23T08:11:31.000Z</time>
      </trkpt>
      <trkpt lat="46.52548" lon="-1.81309">
        <ele>-152.19999694824</ele>
        <time>2021-02-23T08:11:32.000Z</time>
      </trkpt>
      <trkpt lat="46.52554" lon="-1.81319">
        <ele>-152.19999694824</ele>
        <time>2021-02-23T08:11:34.000Z</time>
      </trkpt>
      <trkpt lat="46.52564" lon="-1.81332">
        <ele>-152.19999694824</ele>
        <time>2021-02-23T08:11:37.000Z</time>
      </trkpt>
      <trkpt lat="46.52567" lon="-1.81336">
        <ele>-152.19999694824</ele>
        <time>2021-02-23T08:11:38.000Z</time>
      </trkpt>
      <trkpt lat="46.52578" lon="-1.81351">
        <ele>-152.19999694824</ele>
        <time>2021-02-23T08:11:41.000Z</time>
      </trkpt>
      <trkpt lat="46.52582" lon="-1.81357">
        <ele>-152.19999694824</ele>
        <time>2021-02-23T08:11:42.000Z</time>
      </trkpt>
      <trkpt lat="46.52586" lon="-1.81363">
        <ele>-152.19999694824</ele>
        <time>2021-02-23T08:11:43.000Z</time>
      </trkpt>
      <trkpt lat="46.5259" lon="-1.81368">
        <ele>-152.19999694824</ele>
        <time>2021-02-23T08:11:44.000Z</time>
      </trkpt>
      <trkpt lat="46.52593" lon="-1.81373">
        <ele>-152.19999694824</ele>
        <time>2021-02-23T08:11:45.000Z</time>
      </trkpt>
      <trkpt lat="46.52597" lon="-1.81379">
        <ele>-152.19999694824</ele>
        <time>2021-02-23T08:11:46.000Z</time>
      </trkpt>
      <trkpt lat="46.526" lon="-1.81384">
        <ele>-152.19999694824</ele>
        <time>2021-02-23T08:11:47.000Z</time>
      </trkpt>
      <trkpt lat="46.52606" lon="-1.81394">
        <ele>-152.19999694824</ele>
        <time>2021-02-23T08:11:49.000Z</time>
      </trkpt>
      <trkpt lat="46.5261" lon="-1.81397">
        <ele>-152</ele>
        <time>2021-02-23T08:11:50.000Z</time>
      </trkpt>
      <trkpt lat="46.52614" lon="-1.814">
        <ele>-151.80000305176</ele>
        <time>2021-02-23T08:11:51.000Z</time>
      </trkpt>
      <trkpt lat="46.5262" lon="-1.81405">
        <ele>-151.39999389648</ele>
        <time>2021-02-23T08:11:53.000Z</time>
      </trkpt>
      <trkpt lat="46.5263" lon="-1.81413">
        <ele>-151.19999694824</ele>
        <time>2021-02-23T08:11:56.000Z</time>
      </trkpt>
      <trkpt lat="46.52638" lon="-1.81424">
        <ele>-151.19999694824</ele>
        <time>2021-02-23T08:11:58.000Z</time>
      </trkpt>
      <trkpt lat="46.52642" lon="-1.81432">
        <ele>-151.19999694824</ele>
        <time>2021-02-23T08:11:59.000Z</time>
      </trkpt>
      <trkpt lat="46.52647" lon="-1.8144">
        <ele>-151.60000610352</ele>
        <time>2021-02-23T08:12:00.000Z</time>
      </trkpt>
      <trkpt lat="46.5265" lon="-1.81447">
        <ele>-151.60000610352</ele>
        <time>2021-02-23T08:12:01.000Z</time>
      </trkpt>
      <trkpt lat="46.52653" lon="-1.81451">
        <ele>-152</ele>
        <time>2021-02-23T08:12:02.000Z</time>
      </trkpt>
      <trkpt lat="46.52656" lon="-1.81454">
        <ele>-152.39999389648</ele>
        <time>2021-02-23T08:12:03.000Z</time>
      </trkpt>
      <trkpt lat="46.5266" lon="-1.81456">
        <ele>-153</ele>
        <time>2021-02-23T08:12:04.000Z</time>
      </trkpt>
      <trkpt lat="46.52665" lon="-1.8146">
        <ele>-153</ele>
        <time>2021-02-23T08:12:05.000Z</time>
      </trkpt>
      <trkpt lat="46.52669" lon="-1.81464">
        <ele>-153.19999694824</ele>
        <time>2021-02-23T08:12:06.000Z</time>
      </trkpt>
      <trkpt lat="46.52673" lon="-1.81469">
        <ele>-153.19999694824</ele>
        <time>2021-02-23T08:12:07.000Z</time>
      </trkpt>
      <trkpt lat="46.52677" lon="-1.81474">
        <ele>-153.19999694824</ele>
        <time>2021-02-23T08:12:08.000Z</time>
      </trkpt>
      <trkpt lat="46.52679" lon="-1.81477">
        <ele>-153.19999694824</ele>
        <time>2021-02-23T08:12:09.000Z</time>
      </trkpt>
      <trkpt lat="46.52682" lon="-1.81479">
        <ele>-153.19999694824</ele>
        <time>2021-02-23T08:12:10.000Z</time>
      </trkpt>
      <trkpt lat="46.52686" lon="-1.81481">
        <ele>-153.39999389648</ele>
        <time>2021-02-23T08:12:11.000Z</time>
      </trkpt>
      <trkpt lat="46.52697" lon="-1.81488">
        <ele>-153.19999694824</ele>
        <time>2021-02-23T08:12:14.000Z</time>
      </trkpt>
      <trkpt lat="46.527" lon="-1.81491">
        <ele>-153.19999694824</ele>
        <time>2021-02-23T08:12:15.000Z</time>
      </trkpt>
      <trkpt lat="46.52703" lon="-1.81493">
        <ele>-153.19999694824</ele>
        <time>2021-02-23T08:12:16.000Z</time>
      </trkpt>
      <trkpt lat="46.52705" lon="-1.81495">
        <ele>-153.19999694824</ele>
        <time>2021-02-23T08:12:17.000Z</time>
      </trkpt>
      <trkpt lat="46.52707" lon="-1.81496">
        <ele>-153.19999694824</ele>
        <time>2021-02-23T08:12:18.000Z</time>
      </trkpt>
      <trkpt lat="46.52709" lon="-1.81495">
        <ele>-153</ele>
        <time>2021-02-23T08:12:19.000Z</time>
      </trkpt>
      <trkpt lat="46.52711" lon="-1.81495">
        <ele>-153</ele>
        <time>2021-02-23T08:12:20.000Z</time>
      </trkpt>
      <trkpt lat="46.52713" lon="-1.81496">
        <ele>-153</ele>
        <time>2021-02-23T08:12:21.000Z</time>
      </trkpt>
      <trkpt lat="46.52715" lon="-1.81495">
        <ele>-152.80000305176</ele>
        <time>2021-02-23T08:12:22.000Z</time>
      </trkpt>
      <trkpt lat="46.52721" lon="-1.81501">
        <ele>-152.80000305176</ele>
        <time>2021-02-23T08:12:24.000Z</time>
      </trkpt>
      <trkpt lat="46.52723" lon="-1.81504">
        <ele>-152.60000610352</ele>
        <time>2021-02-23T08:12:25.000Z</time>
      </trkpt>
      <trkpt lat="46.52725" lon="-1.81508">
        <ele>-152.60000610352</ele>
        <time>2021-02-23T08:12:26.000Z</time>
      </trkpt>
      <trkpt lat="46.52732" lon="-1.81515">
        <ele>-152.60000610352</ele>
        <time>2021-02-23T08:12:28.000Z</time>
      </trkpt>
      <trkpt lat="46.52742" lon="-1.81526">
        <ele>-152.60000610352</ele>
        <time>2021-02-23T08:12:31.000Z</time>
      </trkpt>
      <trkpt lat="46.52748" lon="-1.81534">
        <ele>-152.60000610352</ele>
        <time>2021-02-23T08:12:33.000Z</time>
      </trkpt>
      <trkpt lat="46.52751" lon="-1.81537">
        <ele>-152.60000610352</ele>
        <time>2021-02-23T08:12:34.000Z</time>
      </trkpt>
      <trkpt lat="46.52754" lon="-1.81541">
        <ele>-152.60000610352</ele>
        <time>2021-02-23T08:12:35.000Z</time>
      </trkpt>
      <trkpt lat="46.52757" lon="-1.81542">
        <ele>-152.60000610352</ele>
        <time>2021-02-23T08:12:36.000Z</time>
      </trkpt>
      <trkpt lat="46.52759" lon="-1.81543">
        <ele>-152.60000610352</ele>
        <time>2021-02-23T08:12:37.000Z</time>
      </trkpt>
      <trkpt lat="46.52762" lon="-1.81542">
        <ele>-152.60000610352</ele>
        <time>2021-02-23T08:12:38.000Z</time>
      </trkpt>
      <trkpt lat="46.52764" lon="-1.81533">
        <ele>-152.60000610352</ele>
        <time>2021-02-23T08:12:40.000Z</time>
      </trkpt>
      <trkpt lat="46.52765" lon="-1.81529">
        <ele>-152.60000610352</ele>
        <time>2021-02-23T08:12:41.000Z</time>
      </trkpt>
      <trkpt lat="46.52766" lon="-1.81523">
        <ele>-152.60000610352</ele>
        <time>2021-02-23T08:12:42.000Z</time>
      </trkpt>
      <trkpt lat="46.52767" lon="-1.81519">
        <ele>-152.60000610352</ele>
        <time>2021-02-23T08:12:43.000Z</time>
      </trkpt>
      <trkpt lat="46.52769" lon="-1.81515">
        <ele>-152.60000610352</ele>
        <time>2021-02-23T08:12:44.000Z</time>
      </trkpt>
      <trkpt lat="46.5277" lon="-1.81511">
        <ele>-152.39999389648</ele>
        <time>2021-02-23T08:12:45.000Z</time>
      </trkpt>
      <trkpt lat="46.52772" lon="-1.81502">
        <ele>-152.39999389648</ele>
        <time>2021-02-23T08:12:47.000Z</time>
      </trkpt>
      <trkpt lat="46.52773" lon="-1.81498">
        <ele>-152.19999694824</ele>
        <time>2021-02-23T08:12:48.000Z</time>
      </trkpt>
      <trkpt lat="46.52773" lon="-1.81494">
        <ele>-152.19999694824</ele>
        <time>2021-02-23T08:12:49.000Z</time>
      </trkpt>
      <trkpt lat="46.52773" lon="-1.81489">
        <ele>-152.19999694824</ele>
        <time>2021-02-23T08:12:50.000Z</time>
      </trkpt>
      <trkpt lat="46.52772" lon="-1.81483">
        <ele>-152.19999694824</ele>
        <time>2021-02-23T08:12:51.000Z</time>
      </trkpt>
      <trkpt lat="46.5277" lon="-1.81476">
        <ele>-152.19999694824</ele>
        <time>2021-02-23T08:12:52.000Z</time>
      </trkpt>
      <trkpt lat="46.52768" lon="-1.81469">
        <ele>-152.19999694824</ele>
        <time>2021-02-23T08:12:53.000Z</time>
      </trkpt>
      <trkpt lat="46.52766" lon="-1.81463">
        <ele>-152.39999389648</ele>
        <time>2021-02-23T08:12:54.000Z</time>
      </trkpt>
      <trkpt lat="46.52764" lon="-1.81457">
        <ele>-152.39999389648</ele>
        <time>2021-02-23T08:12:55.000Z</time>
      </trkpt>
      <trkpt lat="46.52764" lon="-1.81453">
        <ele>-152.39999389648</ele>
        <time>2021-02-23T08:12:56.000Z</time>
      </trkpt>
      <trkpt lat="46.52764" lon="-1.81449">
        <ele>-152.39999389648</ele>
        <time>2021-02-23T08:12:57.000Z</time>
      </trkpt>
      <trkpt lat="46.52762" lon="-1.81446">
        <ele>-152.19999694824</ele>
        <time>2021-02-23T08:12:58.000Z</time>
      </trkpt>
      <trkpt lat="46.5276" lon="-1.81441">
        <ele>-152.19999694824</ele>
        <time>2021-02-23T08:12:59.000Z</time>
      </trkpt>
      <trkpt lat="46.52757" lon="-1.81424">
        <ele>-151</ele>
        <time>2021-02-23T08:13:02.000Z</time>
      </trkpt>
      <trkpt lat="46.52756" lon="-1.81418">
        <ele>-150.60000610352</ele>
        <time>2021-02-23T08:13:03.000Z</time>
      </trkpt>
      <trkpt lat="46.52756" lon="-1.81413">
        <ele>-150.60000610352</ele>
        <time>2021-02-23T08:13:04.000Z</time>
      </trkpt>
      <trkpt lat="46.52756" lon="-1.81407">
        <ele>-150.39999389648</ele>
        <time>2021-02-23T08:13:05.000Z</time>
      </trkpt>
      <trkpt lat="46.52757" lon="-1.81401">
        <ele>-150.39999389648</ele>
        <time>2021-02-23T08:13:06.000Z</time>
      </trkpt>
      <trkpt lat="46.52758" lon="-1.81392">
        <ele>-150.39999389648</ele>
        <time>2021-02-23T08:13:07.000Z</time>
      </trkpt>
      <trkpt lat="46.5276" lon="-1.81384">
        <ele>-150.39999389648</ele>
        <time>2021-02-23T08:13:08.000Z</time>
      </trkpt>
      <trkpt lat="46.52761" lon="-1.81375">
        <ele>-150.39999389648</ele>
        <time>2021-02-23T08:13:09.000Z</time>
      </trkpt>
      <trkpt lat="46.52762" lon="-1.81364">
        <ele>-150.60000610352</ele>
        <time>2021-02-23T08:13:11.000Z</time>
      </trkpt>
      <trkpt lat="46.52763" lon="-1.81358">
        <ele>-151</ele>
        <time>2021-02-23T08:13:12.000Z</time>
      </trkpt>
      <trkpt lat="46.52764" lon="-1.81352">
        <ele>-151.19999694824</ele>
        <time>2021-02-23T08:13:13.000Z</time>
      </trkpt>
      <trkpt lat="46.52767" lon="-1.81338">
        <ele>-151.39999389648</ele>
        <time>2021-02-23T08:13:15.000Z</time>
      </trkpt>
      <trkpt lat="46.52768" lon="-1.81331">
        <ele>-151.39999389648</ele>
        <time>2021-02-23T08:13:16.000Z</time>
      </trkpt>
      <trkpt lat="46.52769" lon="-1.81324">
        <ele>-151.60000610352</ele>
        <time>2021-02-23T08:13:17.000Z</time>
      </trkpt>
      <trkpt lat="46.52771" lon="-1.81317">
        <ele>-151.80000305176</ele>
        <time>2021-02-23T08:13:18.000Z</time>
      </trkpt>
      <trkpt lat="46.52773" lon="-1.8131">
        <ele>-152</ele>
        <time>2021-02-23T08:13:19.000Z</time>
      </trkpt>
      <trkpt lat="46.52774" lon="-1.813">
        <ele>-152.19999694824</ele>
        <time>2021-02-23T08:13:20.000Z</time>
      </trkpt>
      <trkpt lat="46.52774" lon="-1.81293">
        <ele>-152.19999694824</ele>
        <time>2021-02-23T08:13:21.000Z</time>
      </trkpt>
      <trkpt lat="46.52775" lon="-1.81285">
        <ele>-152.39999389648</ele>
        <time>2021-02-23T08:13:22.000Z</time>
      </trkpt>
      <trkpt lat="46.52775" lon="-1.81278">
        <ele>-152.60000610352</ele>
        <time>2021-02-23T08:13:23.000Z</time>
      </trkpt>
      <trkpt lat="46.52776" lon="-1.81265">
        <ele>-152.80000305176</ele>
        <time>2021-02-23T08:13:25.000Z</time>
      </trkpt>
      <trkpt lat="46.52776" lon="-1.81257">
        <ele>-153</ele>
        <time>2021-02-23T08:13:26.000Z</time>
      </trkpt>
      <trkpt lat="46.52776" lon="-1.81242">
        <ele>-153</ele>
        <time>2021-02-23T08:13:28.000Z</time>
      </trkpt>
      <trkpt lat="46.52775" lon="-1.81233">
        <ele>-153</ele>
        <time>2021-02-23T08:13:29.000Z</time>
      </trkpt>
      <trkpt lat="46.52774" lon="-1.81227">
        <ele>-153</ele>
        <time>2021-02-23T08:13:30.000Z</time>
      </trkpt>
      <trkpt lat="46.52775" lon="-1.81219">
        <ele>-152.80000305176</ele>
        <time>2021-02-23T08:13:31.000Z</time>
      </trkpt>
      <trkpt lat="46.52777" lon="-1.81212">
        <ele>-152.80000305176</ele>
        <time>2021-02-23T08:13:32.000Z</time>
      </trkpt>
      <trkpt lat="46.52778" lon="-1.81208">
        <ele>-152.80000305176</ele>
        <time>2021-02-23T08:13:33.000Z</time>
      </trkpt>
      <trkpt lat="46.5278" lon="-1.81203">
        <ele>-152.80000305176</ele>
        <time>2021-02-23T08:13:34.000Z</time>
      </trkpt>
      <trkpt lat="46.5278" lon="-1.81199">
        <ele>-152.80000305176</ele>
        <time>2021-02-23T08:13:35.000Z</time>
      </trkpt>
      <trkpt lat="46.5278" lon="-1.81192">
        <ele>-152.60000610352</ele>
        <time>2021-02-23T08:13:36.000Z</time>
      </trkpt>
      <trkpt lat="46.52779" lon="-1.81186">
        <ele>-152.60000610352</ele>
        <time>2021-02-23T08:13:37.000Z</time>
      </trkpt>
      <trkpt lat="46.52777" lon="-1.8118">
        <ele>-152.60000610352</ele>
        <time>2021-02-23T08:13:38.000Z</time>
      </trkpt>
      <trkpt lat="46.52775" lon="-1.81176">
        <ele>-152.39999389648</ele>
        <time>2021-02-23T08:13:39.000Z</time>
      </trkpt>
      <trkpt lat="46.52772" lon="-1.81171">
        <ele>-152.39999389648</ele>
        <time>2021-02-23T08:13:40.000Z</time>
      </trkpt>
      <trkpt lat="46.52772" lon="-1.81166">
        <ele>-152.39999389648</ele>
        <time>2021-02-23T08:13:41.000Z</time>
      </trkpt>
      <trkpt lat="46.52772" lon="-1.81161">
        <ele>-152.39999389648</ele>
        <time>2021-02-23T08:13:42.000Z</time>
      </trkpt>
      <trkpt lat="46.52775" lon="-1.81156">
        <ele>-152.39999389648</ele>
        <time>2021-02-23T08:13:43.000Z</time>
      </trkpt>
      <trkpt lat="46.52777" lon="-1.81153">
        <ele>-152.39999389648</ele>
        <time>2021-02-23T08:13:44.000Z</time>
      </trkpt>
      <trkpt lat="46.52783" lon="-1.81151">
        <ele>-152.80000305176</ele>
        <time>2021-02-23T08:13:46.000Z</time>
      </trkpt>
      <trkpt lat="46.52786" lon="-1.81151">
        <ele>-152.80000305176</ele>
        <time>2021-02-23T08:13:47.000Z</time>
      </trkpt>
      <trkpt lat="46.52792" lon="-1.81152">
        <ele>-152.60000610352</ele>
        <time>2021-02-23T08:13:48.000Z</time>
      </trkpt>
      <trkpt lat="46.52802" lon="-1.81153">
        <ele>-153</ele>
        <time>2021-02-23T08:13:51.000Z</time>
      </trkpt>
      <trkpt lat="46.5281" lon="-1.81154">
        <ele>-153.39999389648</ele>
        <time>2021-02-23T08:13:53.000Z</time>
      </trkpt>
      <trkpt lat="46.5282" lon="-1.81157">
        <ele>-153.80000305176</ele>
        <time>2021-02-23T08:13:55.000Z</time>
      </trkpt>
      <trkpt lat="46.52824" lon="-1.81162">
        <ele>-154</ele>
        <time>2021-02-23T08:13:56.000Z</time>
      </trkpt>
      <trkpt lat="46.52834" lon="-1.81172">
        <ele>-154.39999389648</ele>
        <time>2021-02-23T08:13:58.000Z</time>
      </trkpt>
      <trkpt lat="46.52839" lon="-1.81177">
        <ele>-154.60000610352</ele>
        <time>2021-02-23T08:13:59.000Z</time>
      </trkpt>
      <trkpt lat="46.52844" lon="-1.81181">
        <ele>-154.60000610352</ele>
        <time>2021-02-23T08:14:00.000Z</time>
      </trkpt>
      <trkpt lat="46.52848" lon="-1.81184">
        <ele>-154.80000305176</ele>
        <time>2021-02-23T08:14:01.000Z</time>
      </trkpt>
      <trkpt lat="46.52852" lon="-1.81187">
        <ele>-154.80000305176</ele>
        <time>2021-02-23T08:14:02.000Z</time>
      </trkpt>
      <trkpt lat="46.52857" lon="-1.81189">
        <ele>-154.80000305176</ele>
        <time>2021-02-23T08:14:03.000Z</time>
      </trkpt>
      <trkpt lat="46.52862" lon="-1.81189">
        <ele>-154.80000305176</ele>
        <time>2021-02-23T08:14:04.000Z</time>
      </trkpt>
      <trkpt lat="46.52866" lon="-1.81191">
        <ele>-154.80000305176</ele>
        <time>2021-02-23T08:14:05.000Z</time>
      </trkpt>
      <trkpt lat="46.5287" lon="-1.81194">
        <ele>-154.80000305176</ele>
        <time>2021-02-23T08:14:06.000Z</time>
      </trkpt>
      <trkpt lat="46.52873" lon="-1.81196">
        <ele>-154.60000610352</ele>
        <time>2021-02-23T08:14:07.000Z</time>
      </trkpt>
      <trkpt lat="46.52877" lon="-1.812">
        <ele>-154.39999389648</ele>
        <time>2021-02-23T08:14:08.000Z</time>
      </trkpt>
      <trkpt lat="46.52881" lon="-1.81205">
        <ele>-154.19999694824</ele>
        <time>2021-02-23T08:14:09.000Z</time>
      </trkpt>
      <trkpt lat="46.52884" lon="-1.81209">
        <ele>-154.19999694824</ele>
        <time>2021-02-23T08:14:10.000Z</time>
      </trkpt>
      <trkpt lat="46.52884" lon="-1.81211">
        <ele>-154</ele>
        <time>2021-02-23T08:14:11.000Z</time>
      </trkpt>
      <trkpt lat="46.52884" lon="-1.81213">
        <ele>-154</ele>
        <time>2021-02-23T08:14:12.000Z</time>
      </trkpt>
      <trkpt lat="46.52884" lon="-1.81215">
        <ele>-154</ele>
        <time>2021-02-23T08:14:13.000Z</time>
      </trkpt>
      <trkpt lat="46.52879" lon="-1.81223">
        <ele>-153.80000305176</ele>
        <time>2021-02-23T08:14:15.000Z</time>
      </trkpt>
      <trkpt lat="46.52875" lon="-1.8123">
        <ele>-153.80000305176</ele>
        <time>2021-02-23T08:14:17.000Z</time>
      </trkpt>
      <trkpt lat="46.52868" lon="-1.81241">
        <ele>-153.60000610352</ele>
        <time>2021-02-23T08:14:20.000Z</time>
      </trkpt>
      <trkpt lat="46.52864" lon="-1.8125">
        <ele>-153.60000610352</ele>
        <time>2021-02-23T08:14:22.000Z</time>
      </trkpt>
      <trkpt lat="46.52862" lon="-1.81255">
        <ele>-153.80000305176</ele>
        <time>2021-02-23T08:14:23.000Z</time>
      </trkpt>
      <trkpt lat="46.5286" lon="-1.8126">
        <ele>-154</ele>
        <time>2021-02-23T08:14:24.000Z</time>
      </trkpt>
      <trkpt lat="46.52858" lon="-1.81271">
        <ele>-154.19999694824</ele>
        <time>2021-02-23T08:14:26.000Z</time>
      </trkpt>
      <trkpt lat="46.52857" lon="-1.81277">
        <ele>-154.39999389648</ele>
        <time>2021-02-23T08:14:27.000Z</time>
      </trkpt>
      <trkpt lat="46.52856" lon="-1.81283">
        <ele>-154.60000610352</ele>
        <time>2021-02-23T08:14:28.000Z</time>
      </trkpt>
      <trkpt lat="46.52855" lon="-1.81288">
        <ele>-154.60000610352</ele>
        <time>2021-02-23T08:14:29.000Z</time>
      </trkpt>
      <trkpt lat="46.52853" lon="-1.81293">
        <ele>-154.60000610352</ele>
        <time>2021-02-23T08:14:30.000Z</time>
      </trkpt>
      <trkpt lat="46.52851" lon="-1.81303">
        <ele>-154.80000305176</ele>
        <time>2021-02-23T08:14:32.000Z</time>
      </trkpt>
      <trkpt lat="46.52849" lon="-1.8131">
        <ele>-154.80000305176</ele>
        <time>2021-02-23T08:14:33.000Z</time>
      </trkpt>
      <trkpt lat="46.52847" lon="-1.81316">
        <ele>-154.60000610352</ele>
        <time>2021-02-23T08:14:34.000Z</time>
      </trkpt>
      <trkpt lat="46.52845" lon="-1.81322">
        <ele>-154.60000610352</ele>
        <time>2021-02-23T08:14:35.000Z</time>
      </trkpt>
      <trkpt lat="46.52843" lon="-1.81327">
        <ele>-154.60000610352</ele>
        <time>2021-02-23T08:14:36.000Z</time>
      </trkpt>
      <trkpt lat="46.52842" lon="-1.81332">
        <ele>-154.60000610352</ele>
        <time>2021-02-23T08:14:37.000Z</time>
      </trkpt>
      <trkpt lat="46.5284" lon="-1.81338">
        <ele>-154.60000610352</ele>
        <time>2021-02-23T08:14:38.000Z</time>
      </trkpt>
      <trkpt lat="46.52838" lon="-1.81344">
        <ele>-154.60000610352</ele>
        <time>2021-02-23T08:14:39.000Z</time>
      </trkpt>
      <trkpt lat="46.52838" lon="-1.81352">
        <ele>-154.39999389648</ele>
        <time>2021-02-23T08:14:40.000Z</time>
      </trkpt>
      <trkpt lat="46.52837" lon="-1.81359">
        <ele>-154.39999389648</ele>
        <time>2021-02-23T08:14:41.000Z</time>
      </trkpt>
      <trkpt lat="46.52837" lon="-1.81365">
        <ele>-154.39999389648</ele>
        <time>2021-02-23T08:14:42.000Z</time>
      </trkpt>
      <trkpt lat="46.52837" lon="-1.8137">
        <ele>-154.39999389648</ele>
        <time>2021-02-23T08:14:43.000Z</time>
      </trkpt>
      <trkpt lat="46.52837" lon="-1.81375">
        <ele>-154.19999694824</ele>
        <time>2021-02-23T08:14:44.000Z</time>
      </trkpt>
      <trkpt lat="46.52839" lon="-1.8138">
        <ele>-153.80000305176</ele>
        <time>2021-02-23T08:14:45.000Z</time>
      </trkpt>
      <trkpt lat="46.52841" lon="-1.81386">
        <ele>-153.80000305176</ele>
        <time>2021-02-23T08:14:46.000Z</time>
      </trkpt>
      <trkpt lat="46.52844" lon="-1.81398">
        <ele>-153.60000610352</ele>
        <time>2021-02-23T08:14:48.000Z</time>
      </trkpt>
      <trkpt lat="46.52847" lon="-1.81405">
        <ele>-153.60000610352</ele>
        <time>2021-02-23T08:14:49.000Z</time>
      </trkpt>
      <trkpt lat="46.52847" lon="-1.8141">
        <ele>-153.39999389648</ele>
        <time>2021-02-23T08:14:50.000Z</time>
      </trkpt>
      <trkpt lat="46.52848" lon="-1.81414">
        <ele>-153.39999389648</ele>
        <time>2021-02-23T08:14:51.000Z</time>
      </trkpt>
      <trkpt lat="46.52849" lon="-1.81418">
        <ele>-153.19999694824</ele>
        <time>2021-02-23T08:14:52.000Z</time>
      </trkpt>
      <trkpt lat="46.52849" lon="-1.81422">
        <ele>-153.19999694824</ele>
        <time>2021-02-23T08:14:53.000Z</time>
      </trkpt>
      <trkpt lat="46.52849" lon="-1.81425">
        <ele>-153.19999694824</ele>
        <time>2021-02-23T08:14:54.000Z</time>
      </trkpt>
      <trkpt lat="46.52848" lon="-1.81428">
        <ele>-153.19999694824</ele>
        <time>2021-02-23T08:14:55.000Z</time>
      </trkpt>
      <trkpt lat="46.52848" lon="-1.81428">
        <ele>-153.39999389648</ele>
        <time>2021-02-23T08:14:56.000Z</time>
      </trkpt>
      <trkpt lat="46.52848" lon="-1.81428">
        <ele>-153.39999389648</ele>
        <time>2021-02-23T08:14:57.000Z</time>
      </trkpt>
      <trkpt lat="46.52849" lon="-1.81429">
        <ele>-153.39999389648</ele>
        <time>2021-02-23T08:14:58.000Z</time>
      </trkpt>
      <trkpt lat="46.5285" lon="-1.8143">
        <ele>-153.39999389648</ele>
        <time>2021-02-23T08:14:59.000Z</time>
      </trkpt>
      <trkpt lat="46.52851" lon="-1.81431">
        <ele>-153.39999389648</ele>
        <time>2021-02-23T08:15:00.000Z</time>
      </trkpt>
      <trkpt lat="46.5285" lon="-1.81431">
        <ele>-153.39999389648</ele>
        <time>2021-02-23T08:15:01.000Z</time>
      </trkpt>
      <trkpt lat="46.5285" lon="-1.81431">
        <ele>-153.39999389648</ele>
        <time>2021-02-23T08:15:02.000Z</time>
      </trkpt>
      <trkpt lat="46.52853" lon="-1.81431">
        <ele>-153.39999389648</ele>
        <time>2021-02-23T08:15:04.000Z</time>
      </trkpt>
      <trkpt lat="46.52858" lon="-1.81422">
        <ele>-153.19999694824</ele>
        <time>2021-02-23T08:15:11.000Z</time>
      </trkpt>
      <trkpt lat="46.52859" lon="-1.8142">
        <ele>-153</ele>
        <time>2021-02-23T08:15:12.000Z</time>
      </trkpt>
      <trkpt lat="46.52859" lon="-1.81417">
        <ele>-152.60000610352</ele>
        <time>2021-02-23T08:15:13.000Z</time>
      </trkpt>
      <trkpt lat="46.52863" lon="-1.81405">
        <ele>-152.19999694824</ele>
        <time>2021-02-23T08:15:16.000Z</time>
      </trkpt>
      <trkpt lat="46.52866" lon="-1.81396">
        <ele>-151.60000610352</ele>
        <time>2021-02-23T08:15:18.000Z</time>
      </trkpt>
      <trkpt lat="46.52867" lon="-1.81385">
        <ele>-151.39999389648</ele>
        <time>2021-02-23T08:15:20.000Z</time>
      </trkpt>
      <trkpt lat="46.52868" lon="-1.8138">
        <ele>-151.39999389648</ele>
        <time>2021-02-23T08:15:21.000Z</time>
      </trkpt>
      <trkpt lat="46.52869" lon="-1.81375">
        <ele>-151.39999389648</ele>
        <time>2021-02-23T08:15:22.000Z</time>
      </trkpt>
      <trkpt lat="46.5287" lon="-1.81371">
        <ele>-151.39999389648</ele>
        <time>2021-02-23T08:15:23.000Z</time>
      </trkpt>
      <trkpt lat="46.52871" lon="-1.81368">
        <ele>-151.39999389648</ele>
        <time>2021-02-23T08:15:24.000Z</time>
      </trkpt>
      <trkpt lat="46.52872" lon="-1.81362">
        <ele>-151.19999694824</ele>
        <time>2021-02-23T08:15:26.000Z</time>
      </trkpt>
      <trkpt lat="46.52872" lon="-1.81359">
        <ele>-151.19999694824</ele>
        <time>2021-02-23T08:15:27.000Z</time>
      </trkpt>
      <trkpt lat="46.52873" lon="-1.81354">
        <ele>-151.19999694824</ele>
        <time>2021-02-23T08:15:28.000Z</time>
      </trkpt>
      <trkpt lat="46.52876" lon="-1.81344">
        <ele>-151</ele>
        <time>2021-02-23T08:15:30.000Z</time>
      </trkpt>
      <trkpt lat="46.52877" lon="-1.81337">
        <ele>-151</ele>
        <time>2021-02-23T08:15:31.000Z</time>
      </trkpt>
      <trkpt lat="46.52879" lon="-1.81333">
        <ele>-150.80000305176</ele>
        <time>2021-02-23T08:15:32.000Z</time>
      </trkpt>
      <trkpt lat="46.52879" lon="-1.81331">
        <ele>-150.80000305176</ele>
        <time>2021-02-23T08:15:33.000Z</time>
      </trkpt>
      <trkpt lat="46.52879" lon="-1.8133">
        <ele>-150.80000305176</ele>
        <time>2021-02-23T08:15:34.000Z</time>
      </trkpt>
      <trkpt lat="46.52878" lon="-1.81327">
        <ele>-150.80000305176</ele>
        <time>2021-02-23T08:15:36.000Z</time>
      </trkpt>
      <trkpt lat="46.52877" lon="-1.81328">
        <ele>-150.80000305176</ele>
        <time>2021-02-23T08:15:37.000Z</time>
      </trkpt>
      <trkpt lat="46.52878" lon="-1.8133">
        <ele>-151</ele>
        <time>2021-02-23T08:15:47.000Z</time>
      </trkpt>
      <trkpt lat="46.52875" lon="-1.81337">
        <ele>-151</ele>
        <time>2021-02-23T08:15:50.000Z</time>
      </trkpt>
      <trkpt lat="46.52874" lon="-1.8134">
        <ele>-151</ele>
        <time>2021-02-23T08:15:51.000Z</time>
      </trkpt>
      <trkpt lat="46.52873" lon="-1.81343">
        <ele>-151</ele>
        <time>2021-02-23T08:15:52.000Z</time>
      </trkpt>
      <trkpt lat="46.52873" lon="-1.81345">
        <ele>-151</ele>
        <time>2021-02-23T08:15:53.000Z</time>
      </trkpt>
      <trkpt lat="46.52871" lon="-1.81351">
        <ele>-151</ele>
        <time>2021-02-23T08:15:55.000Z</time>
      </trkpt>
      <trkpt lat="46.52865" lon="-1.81363">
        <ele>-151.19999694824</ele>
        <time>2021-02-23T08:15:59.000Z</time>
      </trkpt>
      <trkpt lat="46.52864" lon="-1.81367">
        <ele>-151.19999694824</ele>
        <time>2021-02-23T08:16:00.000Z</time>
      </trkpt>
      <trkpt lat="46.52865" lon="-1.81371">
        <ele>-151.19999694824</ele>
        <time>2021-02-23T08:16:01.000Z</time>
      </trkpt>
      <trkpt lat="46.52866" lon="-1.81374">
        <ele>-151.39999389648</ele>
        <time>2021-02-23T08:16:02.000Z</time>
      </trkpt>
      <trkpt lat="46.52868" lon="-1.81378">
        <ele>-151.39999389648</ele>
        <time>2021-02-23T08:16:03.000Z</time>
      </trkpt>
      <trkpt lat="46.5287" lon="-1.81381">
        <ele>-151.60000610352</ele>
        <time>2021-02-23T08:16:04.000Z</time>
      </trkpt>
      <trkpt lat="46.52871" lon="-1.81383">
        <ele>-152.19999694824</ele>
        <time>2021-02-23T08:16:05.000Z</time>
      </trkpt>
      <trkpt lat="46.52876" lon="-1.8139">
        <ele>-152.60000610352</ele>
        <time>2021-02-23T08:16:08.000Z</time>
      </trkpt>
      <trkpt lat="46.52882" lon="-1.81394">
        <ele>-152.80000305176</ele>
        <time>2021-02-23T08:16:10.000Z</time>
      </trkpt>
      <trkpt lat="46.52885" lon="-1.81395">
        <ele>-152.80000305176</ele>
        <time>2021-02-23T08:16:11.000Z</time>
      </trkpt>
      <trkpt lat="46.52888" lon="-1.81397">
        <ele>-152.80000305176</ele>
        <time>2021-02-23T08:16:12.000Z</time>
      </trkpt>
      <trkpt lat="46.52891" lon="-1.814">
        <ele>-153</ele>
        <time>2021-02-23T08:16:13.000Z</time>
      </trkpt>
      <trkpt lat="46.52906" lon="-1.81407">
        <ele>-153.19999694824</ele>
        <time>2021-02-23T08:16:16.000Z</time>
      </trkpt>
      <trkpt lat="46.52911" lon="-1.81407">
        <ele>-153.39999389648</ele>
        <time>2021-02-23T08:16:17.000Z</time>
      </trkpt>
      <trkpt lat="46.52916" lon="-1.81407">
        <ele>-153.60000610352</ele>
        <time>2021-02-23T08:16:18.000Z</time>
      </trkpt>
      <trkpt lat="46.52921" lon="-1.81407">
        <ele>-153.60000610352</ele>
        <time>2021-02-23T08:16:19.000Z</time>
      </trkpt>
      <trkpt lat="46.52926" lon="-1.81407">
        <ele>-153.60000610352</ele>
        <time>2021-02-23T08:16:20.000Z</time>
      </trkpt>
      <trkpt lat="46.52931" lon="-1.81406">
        <ele>-153.60000610352</ele>
        <time>2021-02-23T08:16:21.000Z</time>
      </trkpt>
      <trkpt lat="46.52935" lon="-1.81405">
        <ele>-153.60000610352</ele>
        <time>2021-02-23T08:16:22.000Z</time>
      </trkpt>
      <trkpt lat="46.52939" lon="-1.81404">
        <ele>-153.60000610352</ele>
        <time>2021-02-23T08:16:23.000Z</time>
      </trkpt>
      <trkpt lat="46.52941" lon="-1.81403">
        <ele>-153.60000610352</ele>
        <time>2021-02-23T08:16:24.000Z</time>
      </trkpt>
      <trkpt lat="46.52943" lon="-1.81404">
        <ele>-153.60000610352</ele>
        <time>2021-02-23T08:16:25.000Z</time>
      </trkpt>
      <trkpt lat="46.52944" lon="-1.81404">
        <ele>-153.60000610352</ele>
        <time>2021-02-23T08:16:26.000Z</time>
      </trkpt>
      <trkpt lat="46.52944" lon="-1.81404">
        <ele>-153.60000610352</ele>
        <time>2021-02-23T08:16:27.000Z</time>
      </trkpt>
      <trkpt lat="46.52947" lon="-1.81403">
        <ele>-154</ele>
        <time>2021-02-23T08:16:32.000Z</time>
      </trkpt>
      <trkpt lat="46.5295" lon="-1.81399">
        <ele>-154.19999694824</ele>
        <time>2021-02-23T08:16:34.000Z</time>
      </trkpt>
      <trkpt lat="46.52952" lon="-1.814">
        <ele>-154.19999694824</ele>
        <time>2021-02-23T08:16:35.000Z</time>
      </trkpt>
      <trkpt lat="46.52955" lon="-1.81399">
        <ele>-154.39999389648</ele>
        <time>2021-02-23T08:16:36.000Z</time>
      </trkpt>
      <trkpt lat="46.52969" lon="-1.81392">
        <ele>-154.60000610352</ele>
        <time>2021-02-23T08:16:40.000Z</time>
      </trkpt>
      <trkpt lat="46.52972" lon="-1.8139">
        <ele>-154.60000610352</ele>
        <time>2021-02-23T08:16:41.000Z</time>
      </trkpt>
      <trkpt lat="46.52972" lon="-1.8139">
        <ele>-154.80000305176</ele>
        <time>2021-02-23T08:16:42.000Z</time>
      </trkpt>
      <trkpt lat="46.52974" lon="-1.8139">
        <ele>-154.80000305176</ele>
        <time>2021-02-23T08:16:43.000Z</time>
      </trkpt>
      <trkpt lat="46.52979" lon="-1.81398">
        <ele>-155</ele>
        <time>2021-02-23T08:16:45.000Z</time>
      </trkpt>
      <trkpt lat="46.52981" lon="-1.81405">
        <ele>-155</ele>
        <time>2021-02-23T08:16:46.000Z</time>
      </trkpt>
      <trkpt lat="46.52981" lon="-1.81413">
        <ele>-155</ele>
        <time>2021-02-23T08:16:48.000Z</time>
      </trkpt>
      <trkpt lat="46.52981" lon="-1.81417">
        <ele>-155</ele>
        <time>2021-02-23T08:16:49.000Z</time>
      </trkpt>
      <trkpt lat="46.52982" lon="-1.81431">
        <ele>-154.80000305176</ele>
        <time>2021-02-23T08:16:52.000Z</time>
      </trkpt>
      <trkpt lat="46.52985" lon="-1.81436">
        <ele>-154.80000305176</ele>
        <time>2021-02-23T08:16:53.000Z</time>
      </trkpt>
      <trkpt lat="46.52987" lon="-1.8144">
        <ele>-154.60000610352</ele>
        <time>2021-02-23T08:16:54.000Z</time>
      </trkpt>
      <trkpt lat="46.52988" lon="-1.81444">
        <ele>-154.60000610352</ele>
        <time>2021-02-23T08:16:55.000Z</time>
      </trkpt>
      <trkpt lat="46.5299" lon="-1.81447">
        <ele>-154.60000610352</ele>
        <time>2021-02-23T08:16:56.000Z</time>
      </trkpt>
      <trkpt lat="46.52991" lon="-1.8145">
        <ele>-154.39999389648</ele>
        <time>2021-02-23T08:16:57.000Z</time>
      </trkpt>
      <trkpt lat="46.52993" lon="-1.81455">
        <ele>-155</ele>
        <time>2021-02-23T08:19:18.000Z</time>
      </trkpt>
      <trkpt lat="46.52993" lon="-1.81455">
        <ele>-155</ele>
        <time>2021-02-23T08:19:19.000Z</time>
      </trkpt>
      <trkpt lat="46.53002" lon="-1.81457">
        <ele>-155</ele>
        <time>2021-02-23T08:19:22.000Z</time>
      </trkpt>
      <trkpt lat="46.53004" lon="-1.81458">
        <ele>-155</ele>
        <time>2021-02-23T08:19:23.000Z</time>
      </trkpt>
      <trkpt lat="46.53006" lon="-1.81457">
        <ele>-155</ele>
        <time>2021-02-23T08:19:24.000Z</time>
      </trkpt>
      <trkpt lat="46.53007" lon="-1.81457">
        <ele>-155</ele>
        <time>2021-02-23T08:19:25.000Z</time>
      </trkpt>
      <trkpt lat="46.53007" lon="-1.81457">
        <ele>-155.19999694824</ele>
        <time>2021-02-23T08:19:26.000Z</time>
      </trkpt>
      <trkpt lat="46.5301" lon="-1.81457">
        <ele>-155.19999694824</ele>
        <time>2021-02-23T08:19:27.000Z</time>
      </trkpt>
      <trkpt lat="46.53012" lon="-1.81459">
        <ele>-155.19999694824</ele>
        <time>2021-02-23T08:19:28.000Z</time>
      </trkpt>
      <trkpt lat="46.53014" lon="-1.81461">
        <ele>-155.19999694824</ele>
        <time>2021-02-23T08:19:29.000Z</time>
      </trkpt>
      <trkpt lat="46.53016" lon="-1.81461">
        <ele>-155.19999694824</ele>
        <time>2021-02-23T08:19:30.000Z</time>
      </trkpt>
      <trkpt lat="46.53018" lon="-1.81461">
        <ele>-155.39999389648</ele>
        <time>2021-02-23T08:19:31.000Z</time>
      </trkpt>
      <trkpt lat="46.5302" lon="-1.81462">
        <ele>-155.39999389648</ele>
        <time>2021-02-23T08:19:32.000Z</time>
      </trkpt>
      <trkpt lat="46.53022" lon="-1.81464">
        <ele>-155.39999389648</ele>
        <time>2021-02-23T08:19:33.000Z</time>
      </trkpt>
      <trkpt lat="46.53028" lon="-1.81469">
        <ele>-155.39999389648</ele>
        <time>2021-02-23T08:19:35.000Z</time>
      </trkpt>
      <trkpt lat="46.5303" lon="-1.81471">
        <ele>-155.39999389648</ele>
        <time>2021-02-23T08:19:36.000Z</time>
      </trkpt>
      <trkpt lat="46.53032" lon="-1.81473">
        <ele>-155.39999389648</ele>
        <time>2021-02-23T08:19:37.000Z</time>
      </trkpt>
      <trkpt lat="46.53035" lon="-1.81475">
        <ele>-155.39999389648</ele>
        <time>2021-02-23T08:19:38.000Z</time>
      </trkpt>
      <trkpt lat="46.53037" lon="-1.81476">
        <ele>-155.19999694824</ele>
        <time>2021-02-23T08:19:39.000Z</time>
      </trkpt>
      <trkpt lat="46.53039" lon="-1.81478">
        <ele>-155</ele>
        <time>2021-02-23T08:19:40.000Z</time>
      </trkpt>
      <trkpt lat="46.53043" lon="-1.81481">
        <ele>-154.80000305176</ele>
        <time>2021-02-23T08:19:41.000Z</time>
      </trkpt>
      <trkpt lat="46.53049" lon="-1.81482">
        <ele>-154.19999694824</ele>
        <time>2021-02-23T08:19:43.000Z</time>
      </trkpt>
      <trkpt lat="46.53049" lon="-1.81482">
        <ele>-154</ele>
        <time>2021-02-23T08:19:44.000Z</time>
      </trkpt>
      <trkpt lat="46.53052" lon="-1.81482">
        <ele>-153.80000305176</ele>
        <time>2021-02-23T08:19:45.000Z</time>
      </trkpt>
      <trkpt lat="46.53054" lon="-1.81484">
        <ele>-153.80000305176</ele>
        <time>2021-02-23T08:19:46.000Z</time>
      </trkpt>
      <trkpt lat="46.53057" lon="-1.81488">
        <ele>-153.60000610352</ele>
        <time>2021-02-23T08:19:47.000Z</time>
      </trkpt>
      <trkpt lat="46.5306" lon="-1.81492">
        <ele>-153.60000610352</ele>
        <time>2021-02-23T08:19:48.000Z</time>
      </trkpt>
      <trkpt lat="46.53065" lon="-1.81495">
        <ele>-153.60000610352</ele>
        <time>2021-02-23T08:19:49.000Z</time>
      </trkpt>
      <trkpt lat="46.53069" lon="-1.81499">
        <ele>-153.60000610352</ele>
        <time>2021-02-23T08:19:50.000Z</time>
      </trkpt>
      <trkpt lat="46.53073" lon="-1.81502">
        <ele>-153.80000305176</ele>
        <time>2021-02-23T08:19:51.000Z</time>
      </trkpt>
      <trkpt lat="46.53077" lon="-1.81505">
        <ele>-153.80000305176</ele>
        <time>2021-02-23T08:19:52.000Z</time>
      </trkpt>
      <trkpt lat="46.53081" lon="-1.81507">
        <ele>-153.80000305176</ele>
        <time>2021-02-23T08:19:53.000Z</time>
      </trkpt>
      <trkpt lat="46.53087" lon="-1.81505">
        <ele>-154</ele>
        <time>2021-02-23T08:19:55.000Z</time>
      </trkpt>
      <trkpt lat="46.5309" lon="-1.81504">
        <ele>-154.19999694824</ele>
        <time>2021-02-23T08:19:56.000Z</time>
      </trkpt>
      <trkpt lat="46.53094" lon="-1.81502">
        <ele>-154.39999389648</ele>
        <time>2021-02-23T08:19:57.000Z</time>
      </trkpt>
      <trkpt lat="46.53097" lon="-1.81501">
        <ele>-154.39999389648</ele>
        <time>2021-02-23T08:19:58.000Z</time>
      </trkpt>
      <trkpt lat="46.531" lon="-1.81502">
        <ele>-154.60000610352</ele>
        <time>2021-02-23T08:19:59.000Z</time>
      </trkpt>
      <trkpt lat="46.53102" lon="-1.81505">
        <ele>-154.60000610352</ele>
        <time>2021-02-23T08:20:00.000Z</time>
      </trkpt>
      <trkpt lat="46.53106" lon="-1.81513">
        <ele>-154.80000305176</ele>
        <time>2021-02-23T08:20:02.000Z</time>
      </trkpt>
      <trkpt lat="46.53107" lon="-1.81517">
        <ele>-154.80000305176</ele>
        <time>2021-02-23T08:20:03.000Z</time>
      </trkpt>
      <trkpt lat="46.53109" lon="-1.8152">
        <ele>-154.80000305176</ele>
        <time>2021-02-23T08:20:04.000Z</time>
      </trkpt>
      <trkpt lat="46.53114" lon="-1.81528">
        <ele>-154.80000305176</ele>
        <time>2021-02-23T08:20:06.000Z</time>
      </trkpt>
      <trkpt lat="46.53117" lon="-1.81533">
        <ele>-154.80000305176</ele>
        <time>2021-02-23T08:20:07.000Z</time>
      </trkpt>
      <trkpt lat="46.53119" lon="-1.81538">
        <ele>-154.80000305176</ele>
        <time>2021-02-23T08:20:08.000Z</time>
      </trkpt>
      <trkpt lat="46.5312" lon="-1.81541">
        <ele>-154.80000305176</ele>
        <time>2021-02-23T08:20:09.000Z</time>
      </trkpt>
      <trkpt lat="46.53122" lon="-1.81545">
        <ele>-154.80000305176</ele>
        <time>2021-02-23T08:20:10.000Z</time>
      </trkpt>
      <trkpt lat="46.53126" lon="-1.81552">
        <ele>-154.60000610352</ele>
        <time>2021-02-23T08:20:12.000Z</time>
      </trkpt>
      <trkpt lat="46.53129" lon="-1.81555">
        <ele>-154.19999694824</ele>
        <time>2021-02-23T08:20:13.000Z</time>
      </trkpt>
      <trkpt lat="46.53136" lon="-1.81566">
        <ele>-154</ele>
        <time>2021-02-23T08:20:16.000Z</time>
      </trkpt>
      <trkpt lat="46.53138" lon="-1.8157">
        <ele>-154</ele>
        <time>2021-02-23T08:20:17.000Z</time>
      </trkpt>
      <trkpt lat="46.5314" lon="-1.81571">
        <ele>-154</ele>
        <time>2021-02-23T08:20:18.000Z</time>
      </trkpt>
      <trkpt lat="46.53143" lon="-1.81572">
        <ele>-154</ele>
        <time>2021-02-23T08:20:19.000Z</time>
      </trkpt>
      <trkpt lat="46.53146" lon="-1.81574">
        <ele>-154</ele>
        <time>2021-02-23T08:20:20.000Z</time>
      </trkpt>
      <trkpt lat="46.53148" lon="-1.81577">
        <ele>-154</ele>
        <time>2021-02-23T08:20:21.000Z</time>
      </trkpt>
      <trkpt lat="46.53152" lon="-1.8158">
        <ele>-154</ele>
        <time>2021-02-23T08:20:22.000Z</time>
      </trkpt>
      <trkpt lat="46.53155" lon="-1.81582">
        <ele>-154</ele>
        <time>2021-02-23T08:20:23.000Z</time>
      </trkpt>
      <trkpt lat="46.53158" lon="-1.81585">
        <ele>-154</ele>
        <time>2021-02-23T08:20:24.000Z</time>
      </trkpt>
      <trkpt lat="46.5316" lon="-1.81588">
        <ele>-153.80000305176</ele>
        <time>2021-02-23T08:20:25.000Z</time>
      </trkpt>
      <trkpt lat="46.53162" lon="-1.81592">
        <ele>-153.80000305176</ele>
        <time>2021-02-23T08:20:26.000Z</time>
      </trkpt>
      <trkpt lat="46.53166" lon="-1.816">
        <ele>-153.60000610352</ele>
        <time>2021-02-23T08:20:28.000Z</time>
      </trkpt>
      <trkpt lat="46.53167" lon="-1.81603">
        <ele>-153.60000610352</ele>
        <time>2021-02-23T08:20:29.000Z</time>
      </trkpt>
      <trkpt lat="46.53168" lon="-1.81606">
        <ele>-153.39999389648</ele>
        <time>2021-02-23T08:20:30.000Z</time>
      </trkpt>
      <trkpt lat="46.5317" lon="-1.81608">
        <ele>-153.39999389648</ele>
        <time>2021-02-23T08:20:31.000Z</time>
      </trkpt>
      <trkpt lat="46.53171" lon="-1.81611">
        <ele>-153.19999694824</ele>
        <time>2021-02-23T08:20:32.000Z</time>
      </trkpt>
      <trkpt lat="46.53172" lon="-1.81615">
        <ele>-153.19999694824</ele>
        <time>2021-02-23T08:20:33.000Z</time>
      </trkpt>
      <trkpt lat="46.53174" lon="-1.81619">
        <ele>-153.19999694824</ele>
        <time>2021-02-23T08:20:34.000Z</time>
      </trkpt>
      <trkpt lat="46.53176" lon="-1.81622">
        <ele>-153.19999694824</ele>
        <time>2021-02-23T08:20:35.000Z</time>
      </trkpt>
      <trkpt lat="46.53177" lon="-1.81625">
        <ele>-153.19999694824</ele>
        <time>2021-02-23T08:20:36.000Z</time>
      </trkpt>
      <trkpt lat="46.5318" lon="-1.81628">
        <ele>-153.19999694824</ele>
        <time>2021-02-23T08:20:37.000Z</time>
      </trkpt>
      <trkpt lat="46.53183" lon="-1.81631">
        <ele>-153</ele>
        <time>2021-02-23T08:20:38.000Z</time>
      </trkpt>
      <trkpt lat="46.53187" lon="-1.81632">
        <ele>-152.80000305176</ele>
        <time>2021-02-23T08:20:39.000Z</time>
      </trkpt>
      <trkpt lat="46.53193" lon="-1.81637">
        <ele>-152.19999694824</ele>
        <time>2021-02-23T08:20:41.000Z</time>
      </trkpt>
      <trkpt lat="46.53196" lon="-1.81639">
        <ele>-152</ele>
        <time>2021-02-23T08:20:42.000Z</time>
      </trkpt>
      <trkpt lat="46.53198" lon="-1.81643">
        <ele>-151.80000305176</ele>
        <time>2021-02-23T08:20:43.000Z</time>
      </trkpt>
      <trkpt lat="46.53201" lon="-1.81648">
        <ele>-151.80000305176</ele>
        <time>2021-02-23T08:20:44.000Z</time>
      </trkpt>
      <trkpt lat="46.53202" lon="-1.81651">
        <ele>-151.60000610352</ele>
        <time>2021-02-23T08:20:45.000Z</time>
      </trkpt>
      <trkpt lat="46.53206" lon="-1.81656">
        <ele>-151</ele>
        <time>2021-02-23T08:20:47.000Z</time>
      </trkpt>
      <trkpt lat="46.53209" lon="-1.81658">
        <ele>-150.80000305176</ele>
        <time>2021-02-23T08:20:48.000Z</time>
      </trkpt>
      <trkpt lat="46.53212" lon="-1.81661">
        <ele>-150.60000610352</ele>
        <time>2021-02-23T08:20:49.000Z</time>
      </trkpt>
      <trkpt lat="46.53214" lon="-1.81665">
        <ele>-150.60000610352</ele>
        <time>2021-02-23T08:20:50.000Z</time>
      </trkpt>
      <trkpt lat="46.53216" lon="-1.81669">
        <ele>-150.39999389648</ele>
        <time>2021-02-23T08:20:51.000Z</time>
      </trkpt>
      <trkpt lat="46.53217" lon="-1.81672">
        <ele>-150.39999389648</ele>
        <time>2021-02-23T08:20:52.000Z</time>
      </trkpt>
      <trkpt lat="46.53218" lon="-1.81675">
        <ele>-150.39999389648</ele>
        <time>2021-02-23T08:20:53.000Z</time>
      </trkpt>
      <trkpt lat="46.53219" lon="-1.81677">
        <ele>-150.39999389648</ele>
        <time>2021-02-23T08:20:54.000Z</time>
      </trkpt>
      <trkpt lat="46.53222" lon="-1.8168">
        <ele>-150.39999389648</ele>
        <time>2021-02-23T08:20:55.000Z</time>
      </trkpt>
      <trkpt lat="46.53225" lon="-1.81684">
        <ele>-150.39999389648</ele>
        <time>2021-02-23T08:20:56.000Z</time>
      </trkpt>
      <trkpt lat="46.53228" lon="-1.81688">
        <ele>-150.39999389648</ele>
        <time>2021-02-23T08:20:57.000Z</time>
      </trkpt>
      <trkpt lat="46.53229" lon="-1.81691">
        <ele>-150.39999389648</ele>
        <time>2021-02-23T08:20:58.000Z</time>
      </trkpt>
      <trkpt lat="46.53228" lon="-1.81694">
        <ele>-150.39999389648</ele>
        <time>2021-02-23T08:20:59.000Z</time>
      </trkpt>
      <trkpt lat="46.5323" lon="-1.817">
        <ele>-150.60000610352</ele>
        <time>2021-02-23T08:21:00.000Z</time>
      </trkpt>
      <trkpt lat="46.53231" lon="-1.81705">
        <ele>-150.80000305176</ele>
        <time>2021-02-23T08:21:01.000Z</time>
      </trkpt>
      <trkpt lat="46.53231" lon="-1.8171">
        <ele>-151.19999694824</ele>
        <time>2021-02-23T08:21:02.000Z</time>
      </trkpt>
      <trkpt lat="46.53232" lon="-1.81714">
        <ele>-151.60000610352</ele>
        <time>2021-02-23T08:21:03.000Z</time>
      </trkpt>
      <trkpt lat="46.53233" lon="-1.81717">
        <ele>-151.60000610352</ele>
        <time>2021-02-23T08:21:04.000Z</time>
      </trkpt>
      <trkpt lat="46.53234" lon="-1.81718">
        <ele>-151.60000610352</ele>
        <time>2021-02-23T08:21:05.000Z</time>
      </trkpt>
      <trkpt lat="46.53235" lon="-1.81717">
        <ele>-151.60000610352</ele>
        <time>2021-02-23T08:21:06.000Z</time>
      </trkpt>
      <trkpt lat="46.53236" lon="-1.81717">
        <ele>-151.60000610352</ele>
        <time>2021-02-23T08:21:07.000Z</time>
      </trkpt>
      <trkpt lat="46.53237" lon="-1.81717">
        <ele>-151.60000610352</ele>
        <time>2021-02-23T08:21:08.000Z</time>
      </trkpt>
      <trkpt lat="46.53238" lon="-1.81716">
        <ele>-151.60000610352</ele>
        <time>2021-02-23T08:21:09.000Z</time>
      </trkpt>
      <trkpt lat="46.53239" lon="-1.81715">
        <ele>-151.39999389648</ele>
        <time>2021-02-23T08:21:10.000Z</time>
      </trkpt>
      <trkpt lat="46.53242" lon="-1.81713">
        <ele>-151</ele>
        <time>2021-02-23T08:21:12.000Z</time>
      </trkpt>
      <trkpt lat="46.53244" lon="-1.81711">
        <ele>-151</ele>
        <time>2021-02-23T08:21:13.000Z</time>
      </trkpt>
      <trkpt lat="46.53245" lon="-1.8171">
        <ele>-150.80000305176</ele>
        <time>2021-02-23T08:21:14.000Z</time>
      </trkpt>
      <trkpt lat="46.53246" lon="-1.81709">
        <ele>-150.60000610352</ele>
        <time>2021-02-23T08:21:15.000Z</time>
      </trkpt>
      <trkpt lat="46.5325" lon="-1.81707">
        <ele>-150.19999694824</ele>
        <time>2021-02-23T08:21:17.000Z</time>
      </trkpt>
      <trkpt lat="46.53252" lon="-1.81707">
        <ele>-149.80000305176</ele>
        <time>2021-02-23T08:21:18.000Z</time>
      </trkpt>
      <trkpt lat="46.53254" lon="-1.81706">
        <ele>-149.60000610352</ele>
        <time>2021-02-23T08:21:19.000Z</time>
      </trkpt>
      <trkpt lat="46.53256" lon="-1.81704">
        <ele>-149.60000610352</ele>
        <time>2021-02-23T08:21:20.000Z</time>
      </trkpt>
      <trkpt lat="46.53257" lon="-1.81701">
        <ele>-149.19999694824</ele>
        <time>2021-02-23T08:21:21.000Z</time>
      </trkpt>
      <trkpt lat="46.53257" lon="-1.81701">
        <ele>-149.19999694824</ele>
        <time>2021-02-23T08:21:22.000Z</time>
      </trkpt>
      <trkpt lat="46.5326" lon="-1.81694">
        <ele>-149</ele>
        <time>2021-02-23T08:21:23.000Z</time>
      </trkpt>
      <trkpt lat="46.53262" lon="-1.8169">
        <ele>-148.80000305176</ele>
        <time>2021-02-23T08:21:24.000Z</time>
      </trkpt>
      <trkpt lat="46.53262" lon="-1.81687">
        <ele>-148.80000305176</ele>
        <time>2021-02-23T08:21:25.000Z</time>
      </trkpt>
      <trkpt lat="46.53265" lon="-1.8168">
        <ele>-148.60000610352</ele>
        <time>2021-02-23T08:21:27.000Z</time>
      </trkpt>
      <trkpt lat="46.53265" lon="-1.81677">
        <ele>-148.60000610352</ele>
        <time>2021-02-23T08:21:28.000Z</time>
      </trkpt>
      <trkpt lat="46.53265" lon="-1.81675">
        <ele>-148.60000610352</ele>
        <time>2021-02-23T08:21:29.000Z</time>
      </trkpt>
      <trkpt lat="46.53266" lon="-1.81672">
        <ele>-148.60000610352</ele>
        <time>2021-02-23T08:21:30.000Z</time>
      </trkpt>
      <trkpt lat="46.53267" lon="-1.81669">
        <ele>-148.39999389648</ele>
        <time>2021-02-23T08:21:31.000Z</time>
      </trkpt>
      <trkpt lat="46.53268" lon="-1.81666">
        <ele>-148.39999389648</ele>
        <time>2021-02-23T08:21:32.000Z</time>
      </trkpt>
      <trkpt lat="46.53269" lon="-1.81662">
        <ele>-148.19999694824</ele>
        <time>2021-02-23T08:21:33.000Z</time>
      </trkpt>
      <trkpt lat="46.5327" lon="-1.81659">
        <ele>-148.19999694824</ele>
        <time>2021-02-23T08:21:34.000Z</time>
      </trkpt>
      <trkpt lat="46.53271" lon="-1.81655">
        <ele>-148.19999694824</ele>
        <time>2021-02-23T08:21:35.000Z</time>
      </trkpt>
      <trkpt lat="46.53273" lon="-1.81653">
        <ele>-148</ele>
        <time>2021-02-23T08:21:36.000Z</time>
      </trkpt>
      <trkpt lat="46.53274" lon="-1.8165">
        <ele>-148</ele>
        <time>2021-02-23T08:21:37.000Z</time>
      </trkpt>
      <trkpt lat="46.53276" lon="-1.81647">
        <ele>-148</ele>
        <time>2021-02-23T08:21:38.000Z</time>
      </trkpt>
      <trkpt lat="46.53277" lon="-1.81644">
        <ele>-148</ele>
        <time>2021-02-23T08:21:39.000Z</time>
      </trkpt>
      <trkpt lat="46.53278" lon="-1.81642">
        <ele>-148</ele>
        <time>2021-02-23T08:21:40.000Z</time>
      </trkpt>
      <trkpt lat="46.53279" lon="-1.81637">
        <ele>-148</ele>
        <time>2021-02-23T08:21:42.000Z</time>
      </trkpt>
      <trkpt lat="46.53279" lon="-1.81633">
        <ele>-147.80000305176</ele>
        <time>2021-02-23T08:21:43.000Z</time>
      </trkpt>
      <trkpt lat="46.5328" lon="-1.8163">
        <ele>-147.80000305176</ele>
        <time>2021-02-23T08:21:44.000Z</time>
      </trkpt>
      <trkpt lat="46.53281" lon="-1.81627">
        <ele>-147.80000305176</ele>
        <time>2021-02-23T08:21:45.000Z</time>
      </trkpt>
      <trkpt lat="46.53281" lon="-1.81627">
        <ele>-147.60000610352</ele>
        <time>2021-02-23T08:21:46.000Z</time>
      </trkpt>
      <trkpt lat="46.53286" lon="-1.81608">
        <ele>-147.39999389648</ele>
        <time>2021-02-23T08:21:50.000Z</time>
      </trkpt>
      <trkpt lat="46.53291" lon="-1.8159">
        <ele>-147.39999389648</ele>
        <time>2021-02-23T08:21:54.000Z</time>
      </trkpt>
      <trkpt lat="46.53291" lon="-1.8159">
        <ele>-147.39999389648</ele>
        <time>2021-02-23T08:21:55.000Z</time>
      </trkpt>
      <trkpt lat="46.53294" lon="-1.81582">
        <ele>-147.39999389648</ele>
        <time>2021-02-23T08:21:56.000Z</time>
      </trkpt>
      <trkpt lat="46.53295" lon="-1.81578">
        <ele>-147.39999389648</ele>
        <time>2021-02-23T08:21:57.000Z</time>
      </trkpt>
      <trkpt lat="46.53295" lon="-1.81578">
        <ele>-147.39999389648</ele>
        <time>2021-02-23T08:21:58.000Z</time>
      </trkpt>
      <trkpt lat="46.53298" lon="-1.81565">
        <ele>-147.39999389648</ele>
        <time>2021-02-23T08:22:01.000Z</time>
      </trkpt>
      <trkpt lat="46.53301" lon="-1.8155">
        <ele>-147.39999389648</ele>
        <time>2021-02-23T08:22:03.000Z</time>
      </trkpt>
      <trkpt lat="46.53305" lon="-1.81538">
        <ele>-147.39999389648</ele>
        <time>2021-02-23T08:22:05.000Z</time>
      </trkpt>
      <trkpt lat="46.53306" lon="-1.81533">
        <ele>-147.39999389648</ele>
        <time>2021-02-23T08:22:06.000Z</time>
      </trkpt>
      <trkpt lat="46.53309" lon="-1.81522">
        <ele>-147.39999389648</ele>
        <time>2021-02-23T08:22:08.000Z</time>
      </trkpt>
      <trkpt lat="46.53311" lon="-1.81516">
        <ele>-147.60000610352</ele>
        <time>2021-02-23T08:22:09.000Z</time>
      </trkpt>
      <trkpt lat="46.53312" lon="-1.8151">
        <ele>-147.80000305176</ele>
        <time>2021-02-23T08:22:10.000Z</time>
      </trkpt>
      <trkpt lat="46.53312" lon="-1.81504">
        <ele>-148</ele>
        <time>2021-02-23T08:22:11.000Z</time>
      </trkpt>
      <trkpt lat="46.53312" lon="-1.81493">
        <ele>-148.19999694824</ele>
        <time>2021-02-23T08:22:13.000Z</time>
      </trkpt>
      <trkpt lat="46.53311" lon="-1.81487">
        <ele>-148.39999389648</ele>
        <time>2021-02-23T08:22:14.000Z</time>
      </trkpt>
      <trkpt lat="46.53311" lon="-1.81482">
        <ele>-148.39999389648</ele>
        <time>2021-02-23T08:22:15.000Z</time>
      </trkpt>
      <trkpt lat="46.53313" lon="-1.81476">
        <ele>-148.80000305176</ele>
        <time>2021-02-23T08:22:16.000Z</time>
      </trkpt>
      <trkpt lat="46.53314" lon="-1.8147">
        <ele>-149</ele>
        <time>2021-02-23T08:22:17.000Z</time>
      </trkpt>
      <trkpt lat="46.53315" lon="-1.81464">
        <ele>-149.19999694824</ele>
        <time>2021-02-23T08:22:18.000Z</time>
      </trkpt>
      <trkpt lat="46.53314" lon="-1.81458">
        <ele>-149.39999389648</ele>
        <time>2021-02-23T08:22:19.000Z</time>
      </trkpt>
      <trkpt lat="46.53311" lon="-1.81444">
        <ele>-149.80000305176</ele>
        <time>2021-02-23T08:22:21.000Z</time>
      </trkpt>
      <trkpt lat="46.53311" lon="-1.81444">
        <ele>-150</ele>
        <time>2021-02-23T08:22:22.000Z</time>
      </trkpt>
      <trkpt lat="46.53309" lon="-1.81428">
        <ele>-150</ele>
        <time>2021-02-23T08:22:23.000Z</time>
      </trkpt>
      <trkpt lat="46.53309" lon="-1.8142">
        <ele>-150.19999694824</ele>
        <time>2021-02-23T08:22:24.000Z</time>
      </trkpt>
      <trkpt lat="46.53309" lon="-1.81413">
        <ele>-150.39999389648</ele>
        <time>2021-02-23T08:22:25.000Z</time>
      </trkpt>
      <trkpt lat="46.53309" lon="-1.81406">
        <ele>-151</ele>
        <time>2021-02-23T08:22:26.000Z</time>
      </trkpt>
      <trkpt lat="46.5331" lon="-1.814">
        <ele>-151.19999694824</ele>
        <time>2021-02-23T08:22:27.000Z</time>
      </trkpt>
      <trkpt lat="46.53312" lon="-1.81383">
        <ele>-151.39999389648</ele>
        <time>2021-02-23T08:22:29.000Z</time>
      </trkpt>
      <trkpt lat="46.53311" lon="-1.81374">
        <ele>-151.60000610352</ele>
        <time>2021-02-23T08:22:30.000Z</time>
      </trkpt>
      <trkpt lat="46.53311" lon="-1.81366">
        <ele>-151.80000305176</ele>
        <time>2021-02-23T08:22:31.000Z</time>
      </trkpt>
      <trkpt lat="46.53309" lon="-1.81358">
        <ele>-151.80000305176</ele>
        <time>2021-02-23T08:22:32.000Z</time>
      </trkpt>
      <trkpt lat="46.53309" lon="-1.81351">
        <ele>-152</ele>
        <time>2021-02-23T08:22:33.000Z</time>
      </trkpt>
      <trkpt lat="46.53309" lon="-1.81345">
        <ele>-152</ele>
        <time>2021-02-23T08:22:34.000Z</time>
      </trkpt>
      <trkpt lat="46.5331" lon="-1.8134">
        <ele>-152</ele>
        <time>2021-02-23T08:22:35.000Z</time>
      </trkpt>
      <trkpt lat="46.53311" lon="-1.81334">
        <ele>-152</ele>
        <time>2021-02-23T08:22:36.000Z</time>
      </trkpt>
      <trkpt lat="46.53311" lon="-1.81321">
        <ele>-151.60000610352</ele>
        <time>2021-02-23T08:22:38.000Z</time>
      </trkpt>
      <trkpt lat="46.53311" lon="-1.81306">
        <ele>-151.39999389648</ele>
        <time>2021-02-23T08:22:40.000Z</time>
      </trkpt>
      <trkpt lat="46.53311" lon="-1.813">
        <ele>-151.39999389648</ele>
        <time>2021-02-23T08:22:41.000Z</time>
      </trkpt>
      <trkpt lat="46.5331" lon="-1.81296">
        <ele>-151.39999389648</ele>
        <time>2021-02-23T08:22:42.000Z</time>
      </trkpt>
      <trkpt lat="46.53309" lon="-1.81292">
        <ele>-151.39999389648</ele>
        <time>2021-02-23T08:22:43.000Z</time>
      </trkpt>
      <trkpt lat="46.53308" lon="-1.81289">
        <ele>-151.39999389648</ele>
        <time>2021-02-23T08:22:44.000Z</time>
      </trkpt>
      <trkpt lat="46.53306" lon="-1.81285">
        <ele>-151.60000610352</ele>
        <time>2021-02-23T08:22:45.000Z</time>
      </trkpt>
      <trkpt lat="46.53306" lon="-1.81281">
        <ele>-151.80000305176</ele>
        <time>2021-02-23T08:22:46.000Z</time>
      </trkpt>
      <trkpt lat="46.53305" lon="-1.81278">
        <ele>-152.19999694824</ele>
        <time>2021-02-23T08:22:47.000Z</time>
      </trkpt>
      <trkpt lat="46.53306" lon="-1.81275">
        <ele>-152.60000610352</ele>
        <time>2021-02-23T08:22:48.000Z</time>
      </trkpt>
      <trkpt lat="46.53305" lon="-1.81274">
        <ele>-153.19999694824</ele>
        <time>2021-02-23T08:22:49.000Z</time>
      </trkpt>
      <trkpt lat="46.53305" lon="-1.81271">
        <ele>-153.39999389648</ele>
        <time>2021-02-23T08:22:50.000Z</time>
      </trkpt>
      <trkpt lat="46.53304" lon="-1.81263">
        <ele>-154</ele>
        <time>2021-02-23T08:22:52.000Z</time>
      </trkpt>
      <trkpt lat="46.53308" lon="-1.8126">
        <ele>-154.19999694824</ele>
        <time>2021-02-23T08:22:53.000Z</time>
      </trkpt>
      <trkpt lat="46.53313" lon="-1.81258">
        <ele>-154.39999389648</ele>
        <time>2021-02-23T08:22:54.000Z</time>
      </trkpt>
      <trkpt lat="46.53318" lon="-1.81256">
        <ele>-154.39999389648</ele>
        <time>2021-02-23T08:22:55.000Z</time>
      </trkpt>
      <trkpt lat="46.53327" lon="-1.81254">
        <ele>-155.19999694824</ele>
        <time>2021-02-23T08:22:57.000Z</time>
      </trkpt>
      <trkpt lat="46.53336" lon="-1.81251">
        <ele>-155.39999389648</ele>
        <time>2021-02-23T08:22:59.000Z</time>
      </trkpt>
      <trkpt lat="46.53359" lon="-1.81248">
        <ele>-155.39999389648</ele>
        <time>2021-02-23T08:23:04.000Z</time>
      </trkpt>
      <trkpt lat="46.5337" lon="-1.81252">
        <ele>-155.19999694824</ele>
        <time>2021-02-23T08:23:06.000Z</time>
      </trkpt>
      <trkpt lat="46.53375" lon="-1.81256">
        <ele>-155.19999694824</ele>
        <time>2021-02-23T08:23:07.000Z</time>
      </trkpt>
      <trkpt lat="46.53375" lon="-1.81256">
        <ele>-155</ele>
        <time>2021-02-23T08:23:08.000Z</time>
      </trkpt>
      <trkpt lat="46.53384" lon="-1.81266">
        <ele>-155</ele>
        <time>2021-02-23T08:23:09.000Z</time>
      </trkpt>
      <trkpt lat="46.53388" lon="-1.81272">
        <ele>-155</ele>
        <time>2021-02-23T08:23:10.000Z</time>
      </trkpt>
      <trkpt lat="46.53388" lon="-1.81272">
        <ele>-155</ele>
        <time>2021-02-23T08:23:11.000Z</time>
      </trkpt>
      <trkpt lat="46.53408" lon="-1.81305">
        <ele>-155</ele>
        <time>2021-02-23T08:23:15.000Z</time>
      </trkpt>
      <trkpt lat="46.53412" lon="-1.8131">
        <ele>-155</ele>
        <time>2021-02-23T08:23:16.000Z</time>
      </trkpt>
      <trkpt lat="46.53417" lon="-1.81314">
        <ele>-155</ele>
        <time>2021-02-23T08:23:17.000Z</time>
      </trkpt>
      <trkpt lat="46.53421" lon="-1.81316">
        <ele>-155</ele>
        <time>2021-02-23T08:23:18.000Z</time>
      </trkpt>
      <trkpt lat="46.53426" lon="-1.81318">
        <ele>-155</ele>
        <time>2021-02-23T08:23:19.000Z</time>
      </trkpt>
      <trkpt lat="46.5343" lon="-1.8132">
        <ele>-155</ele>
        <time>2021-02-23T08:23:20.000Z</time>
      </trkpt>
      <trkpt lat="46.53434" lon="-1.81322">
        <ele>-155</ele>
        <time>2021-02-23T08:23:21.000Z</time>
      </trkpt>
      <trkpt lat="46.53437" lon="-1.81324">
        <ele>-155</ele>
        <time>2021-02-23T08:23:22.000Z</time>
      </trkpt>
      <trkpt lat="46.53443" lon="-1.81331">
        <ele>-155</ele>
        <time>2021-02-23T08:23:24.000Z</time>
      </trkpt>
      <trkpt lat="46.53446" lon="-1.81335">
        <ele>-155</ele>
        <time>2021-02-23T08:23:25.000Z</time>
      </trkpt>
      <trkpt lat="46.53446" lon="-1.8134">
        <ele>-155</ele>
        <time>2021-02-23T08:23:26.000Z</time>
      </trkpt>
      <trkpt lat="46.53445" lon="-1.81344">
        <ele>-155</ele>
        <time>2021-02-23T08:23:27.000Z</time>
      </trkpt>
      <trkpt lat="46.53439" lon="-1.81356">
        <ele>-154.80000305176</ele>
        <time>2021-02-23T08:23:30.000Z</time>
      </trkpt>
      <trkpt lat="46.53438" lon="-1.81359">
        <ele>-154.80000305176</ele>
        <time>2021-02-23T08:23:31.000Z</time>
      </trkpt>
      <trkpt lat="46.53438" lon="-1.81362">
        <ele>-154.80000305176</ele>
        <time>2021-02-23T08:23:32.000Z</time>
      </trkpt>
      <trkpt lat="46.5344" lon="-1.81365">
        <ele>-154.80000305176</ele>
        <time>2021-02-23T08:23:33.000Z</time>
      </trkpt>
      <trkpt lat="46.53441" lon="-1.81368">
        <ele>-154.60000610352</ele>
        <time>2021-02-23T08:23:34.000Z</time>
      </trkpt>
      <trkpt lat="46.53443" lon="-1.8137">
        <ele>-154.60000610352</ele>
        <time>2021-02-23T08:23:35.000Z</time>
      </trkpt>
      <trkpt lat="46.53449" lon="-1.81379">
        <ele>-153.60000610352</ele>
        <time>2021-02-23T08:23:37.000Z</time>
      </trkpt>
      <trkpt lat="46.53454" lon="-1.81387">
        <ele>-153.39999389648</ele>
        <time>2021-02-23T08:23:38.000Z</time>
      </trkpt>
      <trkpt lat="46.53456" lon="-1.81393">
        <ele>-153</ele>
        <time>2021-02-23T08:23:39.000Z</time>
      </trkpt>
      <trkpt lat="46.53462" lon="-1.81407">
        <ele>-152.80000305176</ele>
        <time>2021-02-23T08:23:41.000Z</time>
      </trkpt>
      <trkpt lat="46.53471" lon="-1.81427">
        <ele>-152.60000610352</ele>
        <time>2021-02-23T08:23:44.000Z</time>
      </trkpt>
      <trkpt lat="46.53481" lon="-1.81451">
        <ele>-152.80000305176</ele>
        <time>2021-02-23T08:23:47.000Z</time>
      </trkpt>
      <trkpt lat="46.53484" lon="-1.81455">
        <ele>-152.80000305176</ele>
        <time>2021-02-23T08:23:48.000Z</time>
      </trkpt>
      <trkpt lat="46.53488" lon="-1.81461">
        <ele>-152.80000305176</ele>
        <time>2021-02-23T08:23:49.000Z</time>
      </trkpt>
      <trkpt lat="46.53491" lon="-1.81466">
        <ele>-153</ele>
        <time>2021-02-23T08:23:50.000Z</time>
      </trkpt>
      <trkpt lat="46.53492" lon="-1.8147">
        <ele>-153</ele>
        <time>2021-02-23T08:23:51.000Z</time>
      </trkpt>
      <trkpt lat="46.53493" lon="-1.81474">
        <ele>-153</ele>
        <time>2021-02-23T08:23:52.000Z</time>
      </trkpt>
      <trkpt lat="46.53495" lon="-1.81479">
        <ele>-153</ele>
        <time>2021-02-23T08:23:53.000Z</time>
      </trkpt>
      <trkpt lat="46.53499" lon="-1.81493">
        <ele>-153</ele>
        <time>2021-02-23T08:23:56.000Z</time>
      </trkpt>
      <trkpt lat="46.53504" lon="-1.81503">
        <ele>-152.80000305176</ele>
        <time>2021-02-23T08:23:58.000Z</time>
      </trkpt>
      <trkpt lat="46.53506" lon="-1.81507">
        <ele>-152.39999389648</ele>
        <time>2021-02-23T08:23:59.000Z</time>
      </trkpt>
      <trkpt lat="46.53513" lon="-1.81517">
        <ele>-152</ele>
        <time>2021-02-23T08:24:01.000Z</time>
      </trkpt>
      <trkpt lat="46.53516" lon="-1.81521">
        <ele>-151.60000610352</ele>
        <time>2021-02-23T08:24:02.000Z</time>
      </trkpt>
      <trkpt lat="46.53523" lon="-1.81529">
        <ele>-151.60000610352</ele>
        <time>2021-02-23T08:24:04.000Z</time>
      </trkpt>
      <trkpt lat="46.53526" lon="-1.81533">
        <ele>-151.39999389648</ele>
        <time>2021-02-23T08:24:05.000Z</time>
      </trkpt>
      <trkpt lat="46.53531" lon="-1.81539">
        <ele>-151.39999389648</ele>
        <time>2021-02-23T08:24:06.000Z</time>
      </trkpt>
      <trkpt lat="46.53535" lon="-1.81545">
        <ele>-151.39999389648</ele>
        <time>2021-02-23T08:24:07.000Z</time>
      </trkpt>
      <trkpt lat="46.53539" lon="-1.81558">
        <ele>-151.39999389648</ele>
        <time>2021-02-23T08:24:09.000Z</time>
      </trkpt>
      <trkpt lat="46.53542" lon="-1.81566">
        <ele>-151.60000610352</ele>
        <time>2021-02-23T08:24:10.000Z</time>
      </trkpt>
      <trkpt lat="46.53544" lon="-1.81571">
        <ele>-151.60000610352</ele>
        <time>2021-02-23T08:24:11.000Z</time>
      </trkpt>
      <trkpt lat="46.53546" lon="-1.81576">
        <ele>-151.60000610352</ele>
        <time>2021-02-23T08:24:12.000Z</time>
      </trkpt>
      <trkpt lat="46.53551" lon="-1.81587">
        <ele>-151.80000305176</ele>
        <time>2021-02-23T08:24:14.000Z</time>
      </trkpt>
      <trkpt lat="46.53553" lon="-1.81593">
        <ele>-151.80000305176</ele>
        <time>2021-02-23T08:24:15.000Z</time>
      </trkpt>
      <trkpt lat="46.53555" lon="-1.81599">
        <ele>-151.80000305176</ele>
        <time>2021-02-23T08:24:16.000Z</time>
      </trkpt>
      <trkpt lat="46.53557" lon="-1.81606">
        <ele>-151.80000305176</ele>
        <time>2021-02-23T08:24:17.000Z</time>
      </trkpt>
      <trkpt lat="46.53561" lon="-1.81615">
        <ele>-151.80000305176</ele>
        <time>2021-02-23T08:24:19.000Z</time>
      </trkpt>
      <trkpt lat="46.53564" lon="-1.81621">
        <ele>-151.80000305176</ele>
        <time>2021-02-23T08:24:20.000Z</time>
      </trkpt>
      <trkpt lat="46.53566" lon="-1.81628">
        <ele>-151.80000305176</ele>
        <time>2021-02-23T08:24:21.000Z</time>
      </trkpt>
      <trkpt lat="46.53566" lon="-1.81628">
        <ele>-151.80000305176</ele>
        <time>2021-02-23T08:24:22.000Z</time>
      </trkpt>
      <trkpt lat="46.53569" lon="-1.81636">
        <ele>-152</ele>
        <time>2021-02-23T08:24:23.000Z</time>
      </trkpt>
      <trkpt lat="46.53571" lon="-1.81641">
        <ele>-152.19999694824</ele>
        <time>2021-02-23T08:24:24.000Z</time>
      </trkpt>
      <trkpt lat="46.53573" lon="-1.81644">
        <ele>-152.39999389648</ele>
        <time>2021-02-23T08:24:25.000Z</time>
      </trkpt>
      <trkpt lat="46.53576" lon="-1.81647">
        <ele>-152.80000305176</ele>
        <time>2021-02-23T08:24:26.000Z</time>
      </trkpt>
      <trkpt lat="46.53578" lon="-1.81649">
        <ele>-153</ele>
        <time>2021-02-23T08:24:27.000Z</time>
      </trkpt>
      <trkpt lat="46.53585" lon="-1.81651">
        <ele>-153.19999694824</ele>
        <time>2021-02-23T08:24:29.000Z</time>
      </trkpt>
      <trkpt lat="46.5359" lon="-1.81652">
        <ele>-153.19999694824</ele>
        <time>2021-02-23T08:24:30.000Z</time>
      </trkpt>
      <trkpt lat="46.53593" lon="-1.81652">
        <ele>-153.39999389648</ele>
        <time>2021-02-23T08:24:31.000Z</time>
      </trkpt>
      <trkpt lat="46.53607" lon="-1.81653">
        <ele>-153.60000610352</ele>
        <time>2021-02-23T08:24:35.000Z</time>
      </trkpt>
      <trkpt lat="46.53611" lon="-1.81654">
        <ele>-153.60000610352</ele>
        <time>2021-02-23T08:24:36.000Z</time>
      </trkpt>
      <trkpt lat="46.53621" lon="-1.81656">
        <ele>-153.80000305176</ele>
        <time>2021-02-23T08:24:38.000Z</time>
      </trkpt>
      <trkpt lat="46.53626" lon="-1.81659">
        <ele>-154</ele>
        <time>2021-02-23T08:24:39.000Z</time>
      </trkpt>
      <trkpt lat="46.53629" lon="-1.81661">
        <ele>-154</ele>
        <time>2021-02-23T08:24:40.000Z</time>
      </trkpt>
      <trkpt lat="46.53633" lon="-1.81663">
        <ele>-154</ele>
        <time>2021-02-23T08:24:41.000Z</time>
      </trkpt>
      <trkpt lat="46.53636" lon="-1.81663">
        <ele>-154</ele>
        <time>2021-02-23T08:24:42.000Z</time>
      </trkpt>
      <trkpt lat="46.5364" lon="-1.81665">
        <ele>-154</ele>
        <time>2021-02-23T08:24:43.000Z</time>
      </trkpt>
      <trkpt lat="46.53642" lon="-1.81666">
        <ele>-154</ele>
        <time>2021-02-23T08:24:44.000Z</time>
      </trkpt>
      <trkpt lat="46.53648" lon="-1.81671">
        <ele>-154</ele>
        <time>2021-02-23T08:24:46.000Z</time>
      </trkpt>
      <trkpt lat="46.53655" lon="-1.81676">
        <ele>-153.60000610352</ele>
        <time>2021-02-23T08:24:48.000Z</time>
      </trkpt>
      <trkpt lat="46.53658" lon="-1.81678">
        <ele>-153.60000610352</ele>
        <time>2021-02-23T08:24:49.000Z</time>
      </trkpt>
      <trkpt lat="46.53669" lon="-1.81686">
        <ele>-153</ele>
        <time>2021-02-23T08:24:52.000Z</time>
      </trkpt>
      <trkpt lat="46.53672" lon="-1.81686">
        <ele>-153</ele>
        <time>2021-02-23T08:24:53.000Z</time>
      </trkpt>
      <trkpt lat="46.53675" lon="-1.81687">
        <ele>-153.19999694824</ele>
        <time>2021-02-23T08:24:54.000Z</time>
      </trkpt>
      <trkpt lat="46.53677" lon="-1.81687">
        <ele>-153</ele>
        <time>2021-02-23T08:24:55.000Z</time>
      </trkpt>
      <trkpt lat="46.5368" lon="-1.81688">
        <ele>-153</ele>
        <time>2021-02-23T08:24:56.000Z</time>
      </trkpt>
      <trkpt lat="46.53682" lon="-1.81689">
        <ele>-152.80000305176</ele>
        <time>2021-02-23T08:24:57.000Z</time>
      </trkpt>
      <trkpt lat="46.53685" lon="-1.81692">
        <ele>-152.60000610352</ele>
        <time>2021-02-23T08:24:58.000Z</time>
      </trkpt>
      <trkpt lat="46.53688" lon="-1.81695">
        <ele>-152.39999389648</ele>
        <time>2021-02-23T08:24:59.000Z</time>
      </trkpt>
      <trkpt lat="46.53689" lon="-1.81697">
        <ele>-152</ele>
        <time>2021-02-23T08:25:00.000Z</time>
      </trkpt>
      <trkpt lat="46.53693" lon="-1.81702">
        <ele>-151.39999389648</ele>
        <time>2021-02-23T08:25:02.000Z</time>
      </trkpt>
      <trkpt lat="46.53697" lon="-1.81704">
        <ele>-151.19999694824</ele>
        <time>2021-02-23T08:25:03.000Z</time>
      </trkpt>
      <trkpt lat="46.53699" lon="-1.81705">
        <ele>-150.80000305176</ele>
        <time>2021-02-23T08:25:04.000Z</time>
      </trkpt>
      <trkpt lat="46.5371" lon="-1.81714">
        <ele>-150.60000610352</ele>
        <time>2021-02-23T08:25:07.000Z</time>
      </trkpt>
      <trkpt lat="46.5371" lon="-1.81714">
        <ele>-150.60000610352</ele>
        <time>2021-02-23T08:25:08.000Z</time>
      </trkpt>
      <trkpt lat="46.53718" lon="-1.81725">
        <ele>-150.60000610352</ele>
        <time>2021-02-23T08:25:09.000Z</time>
      </trkpt>
      <trkpt lat="46.53721" lon="-1.81732">
        <ele>-150.60000610352</ele>
        <time>2021-02-23T08:25:10.000Z</time>
      </trkpt>
      <trkpt lat="46.53724" lon="-1.81738">
        <ele>-150.60000610352</ele>
        <time>2021-02-23T08:25:11.000Z</time>
      </trkpt>
      <trkpt lat="46.53728" lon="-1.81744">
        <ele>-150.60000610352</ele>
        <time>2021-02-23T08:25:12.000Z</time>
      </trkpt>
      <trkpt lat="46.53731" lon="-1.81748">
        <ele>-150.80000305176</ele>
        <time>2021-02-23T08:25:13.000Z</time>
      </trkpt>
      <trkpt lat="46.53733" lon="-1.81755">
        <ele>-151.80000305176</ele>
        <time>2021-02-23T08:25:14.000Z</time>
      </trkpt>
      <trkpt lat="46.53735" lon="-1.81759">
        <ele>-152.19999694824</ele>
        <time>2021-02-23T08:25:15.000Z</time>
      </trkpt>
      <trkpt lat="46.53736" lon="-1.81764">
        <ele>-152.60000610352</ele>
        <time>2021-02-23T08:25:16.000Z</time>
      </trkpt>
      <trkpt lat="46.53737" lon="-1.81766">
        <ele>-152.80000305176</ele>
        <time>2021-02-23T08:25:17.000Z</time>
      </trkpt>
      <trkpt lat="46.5374" lon="-1.81768">
        <ele>-153.19999694824</ele>
        <time>2021-02-23T08:25:18.000Z</time>
      </trkpt>
      <trkpt lat="46.53749" lon="-1.8177">
        <ele>-153.39999389648</ele>
        <time>2021-02-23T08:25:22.000Z</time>
      </trkpt>
      <trkpt lat="46.53753" lon="-1.81775">
        <ele>-153.39999389648</ele>
        <time>2021-02-23T08:25:24.000Z</time>
      </trkpt>
      <trkpt lat="46.53755" lon="-1.81778">
        <ele>-153.39999389648</ele>
        <time>2021-02-23T08:25:25.000Z</time>
      </trkpt>
      <trkpt lat="46.53757" lon="-1.81781">
        <ele>-153.39999389648</ele>
        <time>2021-02-23T08:25:26.000Z</time>
      </trkpt>
      <trkpt lat="46.53757" lon="-1.81781">
        <ele>-153.39999389648</ele>
        <time>2021-02-23T08:25:27.000Z</time>
      </trkpt>
      <trkpt lat="46.5376" lon="-1.81786">
        <ele>-153.39999389648</ele>
        <time>2021-02-23T08:25:28.000Z</time>
      </trkpt>
      <trkpt lat="46.53764" lon="-1.81791">
        <ele>-153.39999389648</ele>
        <time>2021-02-23T08:25:30.000Z</time>
      </trkpt>
      <trkpt lat="46.53766" lon="-1.81792">
        <ele>-153.39999389648</ele>
        <time>2021-02-23T08:25:31.000Z</time>
      </trkpt>
      <trkpt lat="46.53769" lon="-1.81795">
        <ele>-153.39999389648</ele>
        <time>2021-02-23T08:25:32.000Z</time>
      </trkpt>
      <trkpt lat="46.53772" lon="-1.81796">
        <ele>-153.39999389648</ele>
        <time>2021-02-23T08:25:33.000Z</time>
      </trkpt>
      <trkpt lat="46.53777" lon="-1.81797">
        <ele>-153.39999389648</ele>
        <time>2021-02-23T08:25:35.000Z</time>
      </trkpt>
      <trkpt lat="46.53779" lon="-1.81797">
        <ele>-153.39999389648</ele>
        <time>2021-02-23T08:25:36.000Z</time>
      </trkpt>
      <trkpt lat="46.53788" lon="-1.81794">
        <ele>-153.39999389648</ele>
        <time>2021-02-23T08:25:39.000Z</time>
      </trkpt>
      <trkpt lat="46.53795" lon="-1.81789">
        <ele>-153.60000610352</ele>
        <time>2021-02-23T08:25:41.000Z</time>
      </trkpt>
      <trkpt lat="46.53799" lon="-1.81785">
        <ele>-153.60000610352</ele>
        <time>2021-02-23T08:25:42.000Z</time>
      </trkpt>
      <trkpt lat="46.53803" lon="-1.8178">
        <ele>-153.60000610352</ele>
        <time>2021-02-23T08:25:43.000Z</time>
      </trkpt>
      <trkpt lat="46.53806" lon="-1.81777">
        <ele>-153.60000610352</ele>
        <time>2021-02-23T08:25:44.000Z</time>
      </trkpt>
      <trkpt lat="46.5381" lon="-1.81774">
        <ele>-153.80000305176</ele>
        <time>2021-02-23T08:25:45.000Z</time>
      </trkpt>
      <trkpt lat="46.53815" lon="-1.81769">
        <ele>-153.80000305176</ele>
        <time>2021-02-23T08:25:47.000Z</time>
      </trkpt>
      <trkpt lat="46.53817" lon="-1.81768">
        <ele>-153.80000305176</ele>
        <time>2021-02-23T08:25:48.000Z</time>
      </trkpt>
      <trkpt lat="46.53821" lon="-1.81764">
        <ele>-153.80000305176</ele>
        <time>2021-02-23T08:25:49.000Z</time>
      </trkpt>
      <trkpt lat="46.53826" lon="-1.81761">
        <ele>-153.80000305176</ele>
        <time>2021-02-23T08:25:50.000Z</time>
      </trkpt>
      <trkpt lat="46.53829" lon="-1.81759">
        <ele>-153.80000305176</ele>
        <time>2021-02-23T08:25:51.000Z</time>
      </trkpt>
      <trkpt lat="46.53831" lon="-1.81761">
        <ele>-153.80000305176</ele>
        <time>2021-02-23T08:25:52.000Z</time>
      </trkpt>
      <trkpt lat="46.53834" lon="-1.81762">
        <ele>-153.80000305176</ele>
        <time>2021-02-23T08:25:53.000Z</time>
      </trkpt>
      <trkpt lat="46.53837" lon="-1.8176">
        <ele>-153.60000610352</ele>
        <time>2021-02-23T08:25:54.000Z</time>
      </trkpt>
      <trkpt lat="46.5384" lon="-1.81758">
        <ele>-153.60000610352</ele>
        <time>2021-02-23T08:25:55.000Z</time>
      </trkpt>
      <trkpt lat="46.53842" lon="-1.81756">
        <ele>-153.39999389648</ele>
        <time>2021-02-23T08:25:56.000Z</time>
      </trkpt>
      <trkpt lat="46.53844" lon="-1.81753">
        <ele>-153.19999694824</ele>
        <time>2021-02-23T08:25:57.000Z</time>
      </trkpt>
      <trkpt lat="46.53844" lon="-1.81751">
        <ele>-153.19999694824</ele>
        <time>2021-02-23T08:25:58.000Z</time>
      </trkpt>
      <trkpt lat="46.53845" lon="-1.81746">
        <ele>-153.19999694824</ele>
        <time>2021-02-23T08:26:00.000Z</time>
      </trkpt>
      <trkpt lat="46.53844" lon="-1.81742">
        <ele>-152.80000305176</ele>
        <time>2021-02-23T08:26:01.000Z</time>
      </trkpt>
      <trkpt lat="46.53844" lon="-1.81739">
        <ele>-152.80000305176</ele>
        <time>2021-02-23T08:26:02.000Z</time>
      </trkpt>
      <trkpt lat="46.53844" lon="-1.81739">
        <ele>-152.60000610352</ele>
        <time>2021-02-23T08:26:03.000Z</time>
      </trkpt>
      <trkpt lat="46.53844" lon="-1.81725">
        <ele>-152.60000610352</ele>
        <time>2021-02-23T08:26:05.000Z</time>
      </trkpt>
      <trkpt lat="46.53843" lon="-1.8172">
        <ele>-152.60000610352</ele>
        <time>2021-02-23T08:26:06.000Z</time>
      </trkpt>
      <trkpt lat="46.53843" lon="-1.81718">
        <ele>-152.60000610352</ele>
        <time>2021-02-23T08:26:07.000Z</time>
      </trkpt>
      <trkpt lat="46.53843" lon="-1.81716">
        <ele>-152.39999389648</ele>
        <time>2021-02-23T08:26:08.000Z</time>
      </trkpt>
      <trkpt lat="46.53843" lon="-1.81715">
        <ele>-152.39999389648</ele>
        <time>2021-02-23T08:26:09.000Z</time>
      </trkpt>
      <trkpt lat="46.53843" lon="-1.81713">
        <ele>-152.39999389648</ele>
        <time>2021-02-23T08:26:10.000Z</time>
      </trkpt>
      <trkpt lat="46.53843" lon="-1.81712">
        <ele>-152.60000610352</ele>
        <time>2021-02-23T08:26:11.000Z</time>
      </trkpt>
      <trkpt lat="46.53843" lon="-1.81711">
        <ele>-152.60000610352</ele>
        <time>2021-02-23T08:26:12.000Z</time>
      </trkpt>
      <trkpt lat="46.53843" lon="-1.81709">
        <ele>-152.60000610352</ele>
        <time>2021-02-23T08:26:13.000Z</time>
      </trkpt>
      <trkpt lat="46.53843" lon="-1.81709">
        <ele>-152.80000305176</ele>
        <time>2021-02-23T08:26:14.000Z</time>
      </trkpt>
      <trkpt lat="46.53844" lon="-1.81707">
        <ele>-152.80000305176</ele>
        <time>2021-02-23T08:26:15.000Z</time>
      </trkpt>
      <trkpt lat="46.53844" lon="-1.81707">
        <ele>-152.80000305176</ele>
        <time>2021-02-23T08:26:16.000Z</time>
      </trkpt>
      <trkpt lat="46.53844" lon="-1.81707">
        <ele>-152.80000305176</ele>
        <time>2021-02-23T08:26:17.000Z</time>
      </trkpt>
      <trkpt lat="46.53844" lon="-1.81707">
        <ele>-152.80000305176</ele>
        <time>2021-02-23T08:26:18.000Z</time>
      </trkpt>
      <trkpt lat="46.53844" lon="-1.81707">
        <ele>-152.80000305176</ele>
        <time>2021-02-23T08:26:19.000Z</time>
      </trkpt>
      <trkpt lat="46.53844" lon="-1.81711">
        <ele>-152.80000305176</ele>
        <time>2021-02-23T08:26:23.000Z</time>
      </trkpt>
      <trkpt lat="46.53844" lon="-1.81713">
        <ele>-152.80000305176</ele>
        <time>2021-02-23T08:26:24.000Z</time>
      </trkpt>
      <trkpt lat="46.53845" lon="-1.81717">
        <ele>-152.80000305176</ele>
        <time>2021-02-23T08:26:25.000Z</time>
      </trkpt>
      <trkpt lat="46.53847" lon="-1.81736">
        <ele>-152.60000610352</ele>
        <time>2021-02-23T08:26:29.000Z</time>
      </trkpt>
      <trkpt lat="46.53848" lon="-1.81743">
        <ele>-152.39999389648</ele>
        <time>2021-02-23T08:26:30.000Z</time>
      </trkpt>
      <trkpt lat="46.5385" lon="-1.81753">
        <ele>-152.80000305176</ele>
        <time>2021-02-23T08:26:32.000Z</time>
      </trkpt>
      <trkpt lat="46.53852" lon="-1.81758">
        <ele>-152.80000305176</ele>
        <time>2021-02-23T08:26:33.000Z</time>
      </trkpt>
      <trkpt lat="46.53854" lon="-1.81762">
        <ele>-152.80000305176</ele>
        <time>2021-02-23T08:26:34.000Z</time>
      </trkpt>
      <trkpt lat="46.53856" lon="-1.81766">
        <ele>-152.80000305176</ele>
        <time>2021-02-23T08:26:35.000Z</time>
      </trkpt>
      <trkpt lat="46.53857" lon="-1.81768">
        <ele>-152.60000610352</ele>
        <time>2021-02-23T08:26:36.000Z</time>
      </trkpt>
      <trkpt lat="46.53863" lon="-1.81771">
        <ele>-152.80000305176</ele>
        <time>2021-02-23T08:26:38.000Z</time>
      </trkpt>
      <trkpt lat="46.53866" lon="-1.81772">
        <ele>-153</ele>
        <time>2021-02-23T08:26:39.000Z</time>
      </trkpt>
      <trkpt lat="46.5387" lon="-1.81772">
        <ele>-153</ele>
        <time>2021-02-23T08:26:40.000Z</time>
      </trkpt>
      <trkpt lat="46.53874" lon="-1.81772">
        <ele>-153</ele>
        <time>2021-02-23T08:26:41.000Z</time>
      </trkpt>
      <trkpt lat="46.53878" lon="-1.81772">
        <ele>-153</ele>
        <time>2021-02-23T08:26:42.000Z</time>
      </trkpt>
      <trkpt lat="46.53882" lon="-1.81772">
        <ele>-153</ele>
        <time>2021-02-23T08:26:43.000Z</time>
      </trkpt>
      <trkpt lat="46.53886" lon="-1.81771">
        <ele>-153</ele>
        <time>2021-02-23T08:26:44.000Z</time>
      </trkpt>
      <trkpt lat="46.53889" lon="-1.8177">
        <ele>-153</ele>
        <time>2021-02-23T08:26:45.000Z</time>
      </trkpt>
      <trkpt lat="46.53893" lon="-1.81769">
        <ele>-153.19999694824</ele>
        <time>2021-02-23T08:26:46.000Z</time>
      </trkpt>
      <trkpt lat="46.53897" lon="-1.81767">
        <ele>-153.39999389648</ele>
        <time>2021-02-23T08:26:47.000Z</time>
      </trkpt>
      <trkpt lat="46.53902" lon="-1.81766">
        <ele>-153.39999389648</ele>
        <time>2021-02-23T08:26:48.000Z</time>
      </trkpt>
      <trkpt lat="46.53906" lon="-1.81765">
        <ele>-153.39999389648</ele>
        <time>2021-02-23T08:26:49.000Z</time>
      </trkpt>
      <trkpt lat="46.5391" lon="-1.81765">
        <ele>-153.39999389648</ele>
        <time>2021-02-23T08:26:50.000Z</time>
      </trkpt>
      <trkpt lat="46.53923" lon="-1.81756">
        <ele>-153.39999389648</ele>
        <time>2021-02-23T08:26:54.000Z</time>
      </trkpt>
      <trkpt lat="46.53934" lon="-1.81746">
        <ele>-153.19999694824</ele>
        <time>2021-02-23T08:26:57.000Z</time>
      </trkpt>
      <trkpt lat="46.53939" lon="-1.81745">
        <ele>-153.19999694824</ele>
        <time>2021-02-23T08:26:58.000Z</time>
      </trkpt>
      <trkpt lat="46.53942" lon="-1.81744">
        <ele>-153.19999694824</ele>
        <time>2021-02-23T08:26:59.000Z</time>
      </trkpt>
      <trkpt lat="46.53945" lon="-1.81743">
        <ele>-153.19999694824</ele>
        <time>2021-02-23T08:27:00.000Z</time>
      </trkpt>
      <trkpt lat="46.53948" lon="-1.81742">
        <ele>-153.19999694824</ele>
        <time>2021-02-23T08:27:01.000Z</time>
      </trkpt>
      <trkpt lat="46.53957" lon="-1.81739">
        <ele>-153.19999694824</ele>
        <time>2021-02-23T08:27:03.000Z</time>
      </trkpt>
      <trkpt lat="46.53961" lon="-1.81738">
        <ele>-153.19999694824</ele>
        <time>2021-02-23T08:27:04.000Z</time>
      </trkpt>
      <trkpt lat="46.53963" lon="-1.81737">
        <ele>-153.19999694824</ele>
        <time>2021-02-23T08:27:05.000Z</time>
      </trkpt>
      <trkpt lat="46.53969" lon="-1.81736">
        <ele>-153.19999694824</ele>
        <time>2021-02-23T08:27:06.000Z</time>
      </trkpt>
      <trkpt lat="46.53975" lon="-1.81735">
        <ele>-153.19999694824</ele>
        <time>2021-02-23T08:27:08.000Z</time>
      </trkpt>
      <trkpt lat="46.53979" lon="-1.81734">
        <ele>-153.19999694824</ele>
        <time>2021-02-23T08:27:09.000Z</time>
      </trkpt>
      <trkpt lat="46.53982" lon="-1.81732">
        <ele>-153</ele>
        <time>2021-02-23T08:27:10.000Z</time>
      </trkpt>
      <trkpt lat="46.53985" lon="-1.81729">
        <ele>-153</ele>
        <time>2021-02-23T08:27:11.000Z</time>
      </trkpt>
      <trkpt lat="46.53986" lon="-1.81727">
        <ele>-152.80000305176</ele>
        <time>2021-02-23T08:27:12.000Z</time>
      </trkpt>
      <trkpt lat="46.53987" lon="-1.81727">
        <ele>-152.80000305176</ele>
        <time>2021-02-23T08:27:13.000Z</time>
      </trkpt>
      <trkpt lat="46.53993" lon="-1.81724">
        <ele>-152.60000610352</ele>
        <time>2021-02-23T08:27:15.000Z</time>
      </trkpt>
      <trkpt lat="46.53996" lon="-1.81725">
        <ele>-152.60000610352</ele>
        <time>2021-02-23T08:27:16.000Z</time>
      </trkpt>
      <trkpt lat="46.53999" lon="-1.81728">
        <ele>-152.19999694824</ele>
        <time>2021-02-23T08:27:17.000Z</time>
      </trkpt>
      <trkpt lat="46.54001" lon="-1.81732">
        <ele>-152.19999694824</ele>
        <time>2021-02-23T08:27:18.000Z</time>
      </trkpt>
      <trkpt lat="46.54002" lon="-1.81737">
        <ele>-152</ele>
        <time>2021-02-23T08:27:19.000Z</time>
      </trkpt>
      <trkpt lat="46.54003" lon="-1.81742">
        <ele>-152</ele>
        <time>2021-02-23T08:27:20.000Z</time>
      </trkpt>
      <trkpt lat="46.54004" lon="-1.81746">
        <ele>-152</ele>
        <time>2021-02-23T08:27:21.000Z</time>
      </trkpt>
      <trkpt lat="46.54006" lon="-1.8175">
        <ele>-152</ele>
        <time>2021-02-23T08:27:22.000Z</time>
      </trkpt>
      <trkpt lat="46.54006" lon="-1.81755">
        <ele>-152</ele>
        <time>2021-02-23T08:27:23.000Z</time>
      </trkpt>
      <trkpt lat="46.5401" lon="-1.81771">
        <ele>-152</ele>
        <time>2021-02-23T08:27:26.000Z</time>
      </trkpt>
      <trkpt lat="46.5401" lon="-1.81782">
        <ele>-152</ele>
        <time>2021-02-23T08:27:28.000Z</time>
      </trkpt>
      <trkpt lat="46.54012" lon="-1.81787">
        <ele>-152</ele>
        <time>2021-02-23T08:27:29.000Z</time>
      </trkpt>
      <trkpt lat="46.54013" lon="-1.81792">
        <ele>-152</ele>
        <time>2021-02-23T08:27:30.000Z</time>
      </trkpt>
      <trkpt lat="46.54015" lon="-1.81798">
        <ele>-151.80000305176</ele>
        <time>2021-02-23T08:27:31.000Z</time>
      </trkpt>
      <trkpt lat="46.54017" lon="-1.81803">
        <ele>-151.80000305176</ele>
        <time>2021-02-23T08:27:32.000Z</time>
      </trkpt>
      <trkpt lat="46.54018" lon="-1.81808">
        <ele>-151.60000610352</ele>
        <time>2021-02-23T08:27:33.000Z</time>
      </trkpt>
      <trkpt lat="46.54022" lon="-1.81835">
        <ele>-151.19999694824</ele>
        <time>2021-02-23T08:27:38.000Z</time>
      </trkpt>
      <trkpt lat="46.54026" lon="-1.81851">
        <ele>-151</ele>
        <time>2021-02-23T08:27:41.000Z</time>
      </trkpt>
      <trkpt lat="46.54029" lon="-1.81864">
        <ele>-151</ele>
        <time>2021-02-23T08:27:43.000Z</time>
      </trkpt>
      <trkpt lat="46.5403" lon="-1.81869">
        <ele>-151</ele>
        <time>2021-02-23T08:27:44.000Z</time>
      </trkpt>
      <trkpt lat="46.54032" lon="-1.81871">
        <ele>-151.39999389648</ele>
        <time>2021-02-23T08:27:45.000Z</time>
      </trkpt>
      <trkpt lat="46.54035" lon="-1.81872">
        <ele>-151.39999389648</ele>
        <time>2021-02-23T08:27:46.000Z</time>
      </trkpt>
      <trkpt lat="46.54038" lon="-1.81873">
        <ele>-151.80000305176</ele>
        <time>2021-02-23T08:27:47.000Z</time>
      </trkpt>
      <trkpt lat="46.5404" lon="-1.81874">
        <ele>-152</ele>
        <time>2021-02-23T08:27:48.000Z</time>
      </trkpt>
      <trkpt lat="46.54043" lon="-1.81873">
        <ele>-152</ele>
        <time>2021-02-23T08:27:49.000Z</time>
      </trkpt>
      <trkpt lat="46.54045" lon="-1.81873">
        <ele>-152.19999694824</ele>
        <time>2021-02-23T08:27:50.000Z</time>
      </trkpt>
      <trkpt lat="46.54048" lon="-1.81872">
        <ele>-152.19999694824</ele>
        <time>2021-02-23T08:27:51.000Z</time>
      </trkpt>
      <trkpt lat="46.5405" lon="-1.81873">
        <ele>-152.19999694824</ele>
        <time>2021-02-23T08:27:52.000Z</time>
      </trkpt>
      <trkpt lat="46.54052" lon="-1.81874">
        <ele>-152</ele>
        <time>2021-02-23T08:27:53.000Z</time>
      </trkpt>
      <trkpt lat="46.54054" lon="-1.81876">
        <ele>-151.80000305176</ele>
        <time>2021-02-23T08:27:54.000Z</time>
      </trkpt>
      <trkpt lat="46.54056" lon="-1.81878">
        <ele>-151.80000305176</ele>
        <time>2021-02-23T08:27:55.000Z</time>
      </trkpt>
      <trkpt lat="46.54058" lon="-1.8188">
        <ele>-151.60000610352</ele>
        <time>2021-02-23T08:27:56.000Z</time>
      </trkpt>
      <trkpt lat="46.5406" lon="-1.81881">
        <ele>-151.19999694824</ele>
        <time>2021-02-23T08:27:57.000Z</time>
      </trkpt>
      <trkpt lat="46.54066" lon="-1.81884">
        <ele>-150.19999694824</ele>
        <time>2021-02-23T08:27:59.000Z</time>
      </trkpt>
      <trkpt lat="46.54068" lon="-1.81885">
        <ele>-149.80000305176</ele>
        <time>2021-02-23T08:28:00.000Z</time>
      </trkpt>
      <trkpt lat="46.54071" lon="-1.81887">
        <ele>-149.39999389648</ele>
        <time>2021-02-23T08:28:01.000Z</time>
      </trkpt>
      <trkpt lat="46.54073" lon="-1.81888">
        <ele>-149</ele>
        <time>2021-02-23T08:28:02.000Z</time>
      </trkpt>
      <trkpt lat="46.54074" lon="-1.81889">
        <ele>-148.60000610352</ele>
        <time>2021-02-23T08:28:03.000Z</time>
      </trkpt>
      <trkpt lat="46.54076" lon="-1.8189">
        <ele>-148.19999694824</ele>
        <time>2021-02-23T08:28:04.000Z</time>
      </trkpt>
      <trkpt lat="46.54078" lon="-1.8189">
        <ele>-148</ele>
        <time>2021-02-23T08:28:05.000Z</time>
      </trkpt>
      <trkpt lat="46.5408" lon="-1.81891">
        <ele>-147.80000305176</ele>
        <time>2021-02-23T08:28:06.000Z</time>
      </trkpt>
      <trkpt lat="46.54082" lon="-1.81891">
        <ele>-147.80000305176</ele>
        <time>2021-02-23T08:28:07.000Z</time>
      </trkpt>
      <trkpt lat="46.54083" lon="-1.81893">
        <ele>-147.60000610352</ele>
        <time>2021-02-23T08:28:08.000Z</time>
      </trkpt>
      <trkpt lat="46.54086" lon="-1.81895">
        <ele>-147.60000610352</ele>
        <time>2021-02-23T08:28:09.000Z</time>
      </trkpt>
      <trkpt lat="46.54088" lon="-1.81896">
        <ele>-147.60000610352</ele>
        <time>2021-02-23T08:28:10.000Z</time>
      </trkpt>
      <trkpt lat="46.54089" lon="-1.81897">
        <ele>-147.60000610352</ele>
        <time>2021-02-23T08:28:11.000Z</time>
      </trkpt>
      <trkpt lat="46.54096" lon="-1.81898">
        <ele>-150</ele>
        <time>2021-02-23T08:28:19.000Z</time>
      </trkpt>
      <trkpt lat="46.54103" lon="-1.81903">
        <ele>-150.39999389648</ele>
        <time>2021-02-23T08:28:21.000Z</time>
      </trkpt>
      <trkpt lat="46.54111" lon="-1.81908">
        <ele>-151</ele>
        <time>2021-02-23T08:28:23.000Z</time>
      </trkpt>
      <trkpt lat="46.54114" lon="-1.81909">
        <ele>-151.60000610352</ele>
        <time>2021-02-23T08:28:24.000Z</time>
      </trkpt>
      <trkpt lat="46.54115" lon="-1.8191">
        <ele>-152.39999389648</ele>
        <time>2021-02-23T08:28:25.000Z</time>
      </trkpt>
      <trkpt lat="46.54117" lon="-1.8191">
        <ele>-153</ele>
        <time>2021-02-23T08:28:26.000Z</time>
      </trkpt>
      <trkpt lat="46.5412" lon="-1.81911">
        <ele>-153.39999389648</ele>
        <time>2021-02-23T08:28:27.000Z</time>
      </trkpt>
      <trkpt lat="46.54123" lon="-1.81912">
        <ele>-154</ele>
        <time>2021-02-23T08:28:28.000Z</time>
      </trkpt>
      <trkpt lat="46.54139" lon="-1.81921">
        <ele>-154.80000305176</ele>
        <time>2021-02-23T08:28:33.000Z</time>
      </trkpt>
      <trkpt lat="46.54143" lon="-1.81923">
        <ele>-154.80000305176</ele>
        <time>2021-02-23T08:28:34.000Z</time>
      </trkpt>
      <trkpt lat="46.54146" lon="-1.81924">
        <ele>-154.80000305176</ele>
        <time>2021-02-23T08:28:35.000Z</time>
      </trkpt>
      <trkpt lat="46.54149" lon="-1.81926">
        <ele>-154.80000305176</ele>
        <time>2021-02-23T08:28:36.000Z</time>
      </trkpt>
      <trkpt lat="46.54162" lon="-1.8193">
        <ele>-154.80000305176</ele>
        <time>2021-02-23T08:28:40.000Z</time>
      </trkpt>
      <trkpt lat="46.54165" lon="-1.81931">
        <ele>-154.80000305176</ele>
        <time>2021-02-23T08:28:41.000Z</time>
      </trkpt>
      <trkpt lat="46.54168" lon="-1.81932">
        <ele>-154.60000610352</ele>
        <time>2021-02-23T08:28:42.000Z</time>
      </trkpt>
      <trkpt lat="46.54171" lon="-1.81933">
        <ele>-154.39999389648</ele>
        <time>2021-02-23T08:28:43.000Z</time>
      </trkpt>
      <trkpt lat="46.54184" lon="-1.81938">
        <ele>-154.19999694824</ele>
        <time>2021-02-23T08:28:47.000Z</time>
      </trkpt>
      <trkpt lat="46.54187" lon="-1.81939">
        <ele>-154.19999694824</ele>
        <time>2021-02-23T08:28:48.000Z</time>
      </trkpt>
      <trkpt lat="46.5419" lon="-1.81941">
        <ele>-154.19999694824</ele>
        <time>2021-02-23T08:28:49.000Z</time>
      </trkpt>
      <trkpt lat="46.54199" lon="-1.81948">
        <ele>-154</ele>
        <time>2021-02-23T08:28:52.000Z</time>
      </trkpt>
      <trkpt lat="46.54202" lon="-1.81951">
        <ele>-154</ele>
        <time>2021-02-23T08:28:53.000Z</time>
      </trkpt>
      <trkpt lat="46.54204" lon="-1.81953">
        <ele>-154</ele>
        <time>2021-02-23T08:28:54.000Z</time>
      </trkpt>
      <trkpt lat="46.54206" lon="-1.81954">
        <ele>-153.80000305176</ele>
        <time>2021-02-23T08:28:55.000Z</time>
      </trkpt>
      <trkpt lat="46.54208" lon="-1.81955">
        <ele>-153.80000305176</ele>
        <time>2021-02-23T08:28:56.000Z</time>
      </trkpt>
      <trkpt lat="46.5421" lon="-1.81956">
        <ele>-153.60000610352</ele>
        <time>2021-02-23T08:28:57.000Z</time>
      </trkpt>
      <trkpt lat="46.54212" lon="-1.81956">
        <ele>-153.60000610352</ele>
        <time>2021-02-23T08:28:58.000Z</time>
      </trkpt>
      <trkpt lat="46.54214" lon="-1.81957">
        <ele>-153.39999389648</ele>
        <time>2021-02-23T08:28:59.000Z</time>
      </trkpt>
      <trkpt lat="46.54216" lon="-1.81956">
        <ele>-153.19999694824</ele>
        <time>2021-02-23T08:29:00.000Z</time>
      </trkpt>
      <trkpt lat="46.54217" lon="-1.81957">
        <ele>-153</ele>
        <time>2021-02-23T08:29:01.000Z</time>
      </trkpt>
      <trkpt lat="46.54219" lon="-1.81957">
        <ele>-153</ele>
        <time>2021-02-23T08:29:02.000Z</time>
      </trkpt>
      <trkpt lat="46.54223" lon="-1.81959">
        <ele>-153</ele>
        <time>2021-02-23T08:29:04.000Z</time>
      </trkpt>
      <trkpt lat="46.54234" lon="-1.81964">
        <ele>-153.39999389648</ele>
        <time>2021-02-23T08:29:08.000Z</time>
      </trkpt>
      <trkpt lat="46.54236" lon="-1.81964">
        <ele>-153.39999389648</ele>
        <time>2021-02-23T08:29:09.000Z</time>
      </trkpt>
      <trkpt lat="46.54238" lon="-1.81966">
        <ele>-153.60000610352</ele>
        <time>2021-02-23T08:29:10.000Z</time>
      </trkpt>
      <trkpt lat="46.54243" lon="-1.81969">
        <ele>-154.19999694824</ele>
        <time>2021-02-23T08:29:12.000Z</time>
      </trkpt>
      <trkpt lat="46.54246" lon="-1.81971">
        <ele>-154.19999694824</ele>
        <time>2021-02-23T08:29:13.000Z</time>
      </trkpt>
      <trkpt lat="46.54256" lon="-1.81978">
        <ele>-154.19999694824</ele>
        <time>2021-02-23T08:29:17.000Z</time>
      </trkpt>
      <trkpt lat="46.54264" lon="-1.81983">
        <ele>-154.19999694824</ele>
        <time>2021-02-23T08:29:20.000Z</time>
      </trkpt>
      <trkpt lat="46.54267" lon="-1.81984">
        <ele>-154.19999694824</ele>
        <time>2021-02-23T08:29:21.000Z</time>
      </trkpt>
      <trkpt lat="46.54276" lon="-1.81986">
        <ele>-154.19999694824</ele>
        <time>2021-02-23T08:29:24.000Z</time>
      </trkpt>
      <trkpt lat="46.54278" lon="-1.81987">
        <ele>-154.19999694824</ele>
        <time>2021-02-23T08:29:25.000Z</time>
      </trkpt>
      <trkpt lat="46.54281" lon="-1.81988">
        <ele>-154.19999694824</ele>
        <time>2021-02-23T08:29:26.000Z</time>
      </trkpt>
      <trkpt lat="46.54283" lon="-1.81989">
        <ele>-154.19999694824</ele>
        <time>2021-02-23T08:29:27.000Z</time>
      </trkpt>
      <trkpt lat="46.54285" lon="-1.8199">
        <ele>-154.19999694824</ele>
        <time>2021-02-23T08:29:28.000Z</time>
      </trkpt>
      <trkpt lat="46.54286" lon="-1.8199">
        <ele>-154.19999694824</ele>
        <time>2021-02-23T08:29:29.000Z</time>
      </trkpt>
      <trkpt lat="46.54286" lon="-1.81991">
        <ele>-154.19999694824</ele>
        <time>2021-02-23T08:29:30.000Z</time>
      </trkpt>
      <trkpt lat="46.54287" lon="-1.81991">
        <ele>-154.19999694824</ele>
        <time>2021-02-23T08:29:31.000Z</time>
      </trkpt>
      <trkpt lat="46.54287" lon="-1.81991">
        <ele>-153.60000610352</ele>
        <time>2021-02-23T08:29:32.000Z</time>
      </trkpt>
      <trkpt lat="46.54288" lon="-1.81991">
        <ele>-153.39999389648</ele>
        <time>2021-02-23T08:29:33.000Z</time>
      </trkpt>
      <trkpt lat="46.54288" lon="-1.81991">
        <ele>-153.39999389648</ele>
        <time>2021-02-23T08:29:34.000Z</time>
      </trkpt>
      <trkpt lat="46.54288" lon="-1.81992">
        <ele>-152.80000305176</ele>
        <time>2021-02-23T08:29:35.000Z</time>
      </trkpt>
      <trkpt lat="46.54289" lon="-1.81992">
        <ele>-152.60000610352</ele>
        <time>2021-02-23T08:29:36.000Z</time>
      </trkpt>
      <trkpt lat="46.54289" lon="-1.81992">
        <ele>-152.19999694824</ele>
        <time>2021-02-23T08:29:37.000Z</time>
      </trkpt>
      <trkpt lat="46.5429" lon="-1.81993">
        <ele>-152.19999694824</ele>
        <time>2021-02-23T08:29:38.000Z</time>
      </trkpt>
      <trkpt lat="46.54291" lon="-1.81993">
        <ele>-152</ele>
        <time>2021-02-23T08:29:39.000Z</time>
      </trkpt>
      <trkpt lat="46.54292" lon="-1.81993">
        <ele>-151.80000305176</ele>
        <time>2021-02-23T08:29:40.000Z</time>
      </trkpt>
      <trkpt lat="46.54294" lon="-1.81994">
        <ele>-151.39999389648</ele>
        <time>2021-02-23T08:29:43.000Z</time>
      </trkpt>
      <trkpt lat="46.54295" lon="-1.81994">
        <ele>-151</ele>
        <time>2021-02-23T08:29:44.000Z</time>
      </trkpt>
      <trkpt lat="46.54296" lon="-1.81994">
        <ele>-151</ele>
        <time>2021-02-23T08:29:45.000Z</time>
      </trkpt>
      <trkpt lat="46.54297" lon="-1.81995">
        <ele>-150.80000305176</ele>
        <time>2021-02-23T08:29:46.000Z</time>
      </trkpt>
      <trkpt lat="46.54298" lon="-1.81996">
        <ele>-150.80000305176</ele>
        <time>2021-02-23T08:29:47.000Z</time>
      </trkpt>
      <trkpt lat="46.54299" lon="-1.81997">
        <ele>-150.60000610352</ele>
        <time>2021-02-23T08:29:48.000Z</time>
      </trkpt>
      <trkpt lat="46.54301" lon="-1.81997">
        <ele>-150.39999389648</ele>
        <time>2021-02-23T08:29:49.000Z</time>
      </trkpt>
      <trkpt lat="46.54302" lon="-1.81997">
        <ele>-150.19999694824</ele>
        <time>2021-02-23T08:29:50.000Z</time>
      </trkpt>
      <trkpt lat="46.54304" lon="-1.81998">
        <ele>-149.80000305176</ele>
        <time>2021-02-23T08:29:51.000Z</time>
      </trkpt>
      <trkpt lat="46.54305" lon="-1.81998">
        <ele>-149.80000305176</ele>
        <time>2021-02-23T08:29:52.000Z</time>
      </trkpt>
      <trkpt lat="46.54306" lon="-1.82">
        <ele>-149.60000610352</ele>
        <time>2021-02-23T08:29:53.000Z</time>
      </trkpt>
      <trkpt lat="46.54307" lon="-1.82001">
        <ele>-149.60000610352</ele>
        <time>2021-02-23T08:29:54.000Z</time>
      </trkpt>
      <trkpt lat="46.54308" lon="-1.82002">
        <ele>-149.60000610352</ele>
        <time>2021-02-23T08:29:55.000Z</time>
      </trkpt>
      <trkpt lat="46.5431" lon="-1.82003">
        <ele>-149.39999389648</ele>
        <time>2021-02-23T08:29:56.000Z</time>
      </trkpt>
      <trkpt lat="46.54313" lon="-1.82004">
        <ele>-149.39999389648</ele>
        <time>2021-02-23T08:29:57.000Z</time>
      </trkpt>
      <trkpt lat="46.54316" lon="-1.82004">
        <ele>-149.39999389648</ele>
        <time>2021-02-23T08:29:58.000Z</time>
      </trkpt>
      <trkpt lat="46.54319" lon="-1.82006">
        <ele>-149.39999389648</ele>
        <time>2021-02-23T08:29:59.000Z</time>
      </trkpt>
      <trkpt lat="46.54321" lon="-1.82007">
        <ele>-149.60000610352</ele>
        <time>2021-02-23T08:30:00.000Z</time>
      </trkpt>
      <trkpt lat="46.54324" lon="-1.82009">
        <ele>-149.60000610352</ele>
        <time>2021-02-23T08:30:01.000Z</time>
      </trkpt>
      <trkpt lat="46.54328" lon="-1.82011">
        <ele>-149.60000610352</ele>
        <time>2021-02-23T08:30:02.000Z</time>
      </trkpt>
      <trkpt lat="46.54332" lon="-1.82014">
        <ele>-149.80000305176</ele>
        <time>2021-02-23T08:30:03.000Z</time>
      </trkpt>
      <trkpt lat="46.54337" lon="-1.82016">
        <ele>-150</ele>
        <time>2021-02-23T08:30:04.000Z</time>
      </trkpt>
      <trkpt lat="46.54342" lon="-1.82018">
        <ele>-150.60000610352</ele>
        <time>2021-02-23T08:30:05.000Z</time>
      </trkpt>
      <trkpt lat="46.54346" lon="-1.8202">
        <ele>-150.80000305176</ele>
        <time>2021-02-23T08:30:06.000Z</time>
      </trkpt>
      <trkpt lat="46.5435" lon="-1.8202">
        <ele>-151.39999389648</ele>
        <time>2021-02-23T08:30:07.000Z</time>
      </trkpt>
      <trkpt lat="46.54353" lon="-1.82018">
        <ele>-152.60000610352</ele>
        <time>2021-02-23T08:30:08.000Z</time>
      </trkpt>
      <trkpt lat="46.54355" lon="-1.82016">
        <ele>-152.80000305176</ele>
        <time>2021-02-23T08:30:09.000Z</time>
      </trkpt>
      <trkpt lat="46.54357" lon="-1.82014">
        <ele>-153.19999694824</ele>
        <time>2021-02-23T08:30:10.000Z</time>
      </trkpt>
      <trkpt lat="46.54359" lon="-1.82012">
        <ele>-153.19999694824</ele>
        <time>2021-02-23T08:30:11.000Z</time>
      </trkpt>
      <trkpt lat="46.54363" lon="-1.8201">
        <ele>-153.39999389648</ele>
        <time>2021-02-23T08:30:13.000Z</time>
      </trkpt>
      <trkpt lat="46.54382" lon="-1.82003">
        <ele>-153.39999389648</ele>
        <time>2021-02-23T08:30:18.000Z</time>
      </trkpt>
      <trkpt lat="46.54384" lon="-1.82002">
        <ele>-153.39999389648</ele>
        <time>2021-02-23T08:30:19.000Z</time>
      </trkpt>
      <trkpt lat="46.54386" lon="-1.82001">
        <ele>-153.39999389648</ele>
        <time>2021-02-23T08:30:20.000Z</time>
      </trkpt>
      <trkpt lat="46.54388" lon="-1.82">
        <ele>-153.39999389648</ele>
        <time>2021-02-23T08:30:21.000Z</time>
      </trkpt>
      <trkpt lat="46.54391" lon="-1.81998">
        <ele>-153.60000610352</ele>
        <time>2021-02-23T08:30:22.000Z</time>
      </trkpt>
      <trkpt lat="46.54393" lon="-1.81997">
        <ele>-153.80000305176</ele>
        <time>2021-02-23T08:30:23.000Z</time>
      </trkpt>
      <trkpt lat="46.54404" lon="-1.81983">
        <ele>-154.19999694824</ele>
        <time>2021-02-23T08:30:27.000Z</time>
      </trkpt>
      <trkpt lat="46.54406" lon="-1.81979">
        <ele>-154.19999694824</ele>
        <time>2021-02-23T08:30:28.000Z</time>
      </trkpt>
      <trkpt lat="46.5441" lon="-1.81975">
        <ele>-154.39999389648</ele>
        <time>2021-02-23T08:30:29.000Z</time>
      </trkpt>
      <trkpt lat="46.54413" lon="-1.81971">
        <ele>-154.39999389648</ele>
        <time>2021-02-23T08:30:30.000Z</time>
      </trkpt>
      <trkpt lat="46.54416" lon="-1.81963">
        <ele>-154.39999389648</ele>
        <time>2021-02-23T08:30:32.000Z</time>
      </trkpt>
      <trkpt lat="46.5442" lon="-1.81957">
        <ele>-154.19999694824</ele>
        <time>2021-02-23T08:30:34.000Z</time>
      </trkpt>
      <trkpt lat="46.54423" lon="-1.81954">
        <ele>-154.19999694824</ele>
        <time>2021-02-23T08:30:35.000Z</time>
      </trkpt>
      <trkpt lat="46.54426" lon="-1.81947">
        <ele>-154.19999694824</ele>
        <time>2021-02-23T08:30:37.000Z</time>
      </trkpt>
      <trkpt lat="46.54431" lon="-1.81929">
        <ele>-154.19999694824</ele>
        <time>2021-02-23T08:30:41.000Z</time>
      </trkpt>
      <trkpt lat="46.54433" lon="-1.81922">
        <ele>-154.19999694824</ele>
        <time>2021-02-23T08:30:42.000Z</time>
      </trkpt>
      <trkpt lat="46.54435" lon="-1.81909">
        <ele>-154</ele>
        <time>2021-02-23T08:30:44.000Z</time>
      </trkpt>
      <trkpt lat="46.54435" lon="-1.81896">
        <ele>-154</ele>
        <time>2021-02-23T08:30:46.000Z</time>
      </trkpt>
      <trkpt lat="46.54436" lon="-1.8189">
        <ele>-154</ele>
        <time>2021-02-23T08:30:47.000Z</time>
      </trkpt>
      <trkpt lat="46.54435" lon="-1.81884">
        <ele>-154</ele>
        <time>2021-02-23T08:30:48.000Z</time>
      </trkpt>
      <trkpt lat="46.54436" lon="-1.81871">
        <ele>-154</ele>
        <time>2021-02-23T08:30:50.000Z</time>
      </trkpt>
      <trkpt lat="46.54442" lon="-1.8186">
        <ele>-153.80000305176</ele>
        <time>2021-02-23T08:30:52.000Z</time>
      </trkpt>
      <trkpt lat="46.54444" lon="-1.81855">
        <ele>-153.80000305176</ele>
        <time>2021-02-23T08:30:53.000Z</time>
      </trkpt>
      <trkpt lat="46.54447" lon="-1.8185">
        <ele>-153.80000305176</ele>
        <time>2021-02-23T08:30:54.000Z</time>
      </trkpt>
      <trkpt lat="46.54452" lon="-1.81845">
        <ele>-153.60000610352</ele>
        <time>2021-02-23T08:30:55.000Z</time>
      </trkpt>
      <trkpt lat="46.54455" lon="-1.81842">
        <ele>-153.60000610352</ele>
        <time>2021-02-23T08:30:56.000Z</time>
      </trkpt>
      <trkpt lat="46.54459" lon="-1.81838">
        <ele>-153.60000610352</ele>
        <time>2021-02-23T08:30:57.000Z</time>
      </trkpt>
      <trkpt lat="46.54461" lon="-1.81836">
        <ele>-153.60000610352</ele>
        <time>2021-02-23T08:30:58.000Z</time>
      </trkpt>
      <trkpt lat="46.54464" lon="-1.81834">
        <ele>-153.60000610352</ele>
        <time>2021-02-23T08:30:59.000Z</time>
      </trkpt>
      <trkpt lat="46.54467" lon="-1.81833">
        <ele>-153.39999389648</ele>
        <time>2021-02-23T08:31:00.000Z</time>
      </trkpt>
      <trkpt lat="46.5447" lon="-1.81831">
        <ele>-153.39999389648</ele>
        <time>2021-02-23T08:31:01.000Z</time>
      </trkpt>
      <trkpt lat="46.5447" lon="-1.81828">
        <ele>-153.39999389648</ele>
        <time>2021-02-23T08:31:02.000Z</time>
      </trkpt>
      <trkpt lat="46.54471" lon="-1.81824">
        <ele>-153.39999389648</ele>
        <time>2021-02-23T08:31:03.000Z</time>
      </trkpt>
      <trkpt lat="46.54472" lon="-1.81821">
        <ele>-153.39999389648</ele>
        <time>2021-02-23T08:31:04.000Z</time>
      </trkpt>
      <trkpt lat="46.54476" lon="-1.81806">
        <ele>-153.39999389648</ele>
        <time>2021-02-23T08:31:07.000Z</time>
      </trkpt>
      <trkpt lat="46.54481" lon="-1.81796">
        <ele>-153.60000610352</ele>
        <time>2021-02-23T08:31:09.000Z</time>
      </trkpt>
      <trkpt lat="46.54485" lon="-1.81789">
        <ele>-153.80000305176</ele>
        <time>2021-02-23T08:31:11.000Z</time>
      </trkpt>
      <trkpt lat="46.54491" lon="-1.81786">
        <ele>-154</ele>
        <time>2021-02-23T08:31:13.000Z</time>
      </trkpt>
      <trkpt lat="46.54496" lon="-1.81785">
        <ele>-154.19999694824</ele>
        <time>2021-02-23T08:31:14.000Z</time>
      </trkpt>
      <trkpt lat="46.54501" lon="-1.81783">
        <ele>-154.39999389648</ele>
        <time>2021-02-23T08:31:15.000Z</time>
      </trkpt>
      <trkpt lat="46.54505" lon="-1.81781">
        <ele>-154.60000610352</ele>
        <time>2021-02-23T08:31:16.000Z</time>
      </trkpt>
      <trkpt lat="46.54511" lon="-1.81779">
        <ele>-154.80000305176</ele>
        <time>2021-02-23T08:31:18.000Z</time>
      </trkpt>
      <trkpt lat="46.54515" lon="-1.81777">
        <ele>-154.80000305176</ele>
        <time>2021-02-23T08:31:19.000Z</time>
      </trkpt>
      <trkpt lat="46.5452" lon="-1.81775">
        <ele>-154.80000305176</ele>
        <time>2021-02-23T08:31:20.000Z</time>
      </trkpt>
      <trkpt lat="46.54523" lon="-1.81772">
        <ele>-155</ele>
        <time>2021-02-23T08:31:21.000Z</time>
      </trkpt>
      <trkpt lat="46.54527" lon="-1.81771">
        <ele>-155</ele>
        <time>2021-02-23T08:31:22.000Z</time>
      </trkpt>
      <trkpt lat="46.54528" lon="-1.81772">
        <ele>-155</ele>
        <time>2021-02-23T08:31:23.000Z</time>
      </trkpt>
      <trkpt lat="46.54529" lon="-1.81773">
        <ele>-155.19999694824</ele>
        <time>2021-02-23T08:31:24.000Z</time>
      </trkpt>
      <trkpt lat="46.54531" lon="-1.81773">
        <ele>-155.19999694824</ele>
        <time>2021-02-23T08:31:25.000Z</time>
      </trkpt>
      <trkpt lat="46.54531" lon="-1.81773">
        <ele>-155.19999694824</ele>
        <time>2021-02-23T08:31:26.000Z</time>
      </trkpt>
      <trkpt lat="46.54533" lon="-1.81773">
        <ele>-155</ele>
        <time>2021-02-23T08:31:27.000Z</time>
      </trkpt>
      <trkpt lat="46.54533" lon="-1.81773">
        <ele>-155</ele>
        <time>2021-02-23T08:31:28.000Z</time>
      </trkpt>
      <trkpt lat="46.54533" lon="-1.81773">
        <ele>-155</ele>
        <time>2021-02-23T08:31:30.000Z</time>
      </trkpt>
      <trkpt lat="46.54536" lon="-1.81773">
        <ele>-155</ele>
        <time>2021-02-23T08:31:32.000Z</time>
      </trkpt>
      <trkpt lat="46.54537" lon="-1.81775">
        <ele>-154.80000305176</ele>
        <time>2021-02-23T08:31:33.000Z</time>
      </trkpt>
      <trkpt lat="46.54539" lon="-1.81779">
        <ele>-154.80000305176</ele>
        <time>2021-02-23T08:31:34.000Z</time>
      </trkpt>
      <trkpt lat="46.54542" lon="-1.81787">
        <ele>-154.80000305176</ele>
        <time>2021-02-23T08:31:36.000Z</time>
      </trkpt>
      <trkpt lat="46.54543" lon="-1.81791">
        <ele>-154.80000305176</ele>
        <time>2021-02-23T08:31:37.000Z</time>
      </trkpt>
      <trkpt lat="46.54546" lon="-1.81805">
        <ele>-154.39999389648</ele>
        <time>2021-02-23T08:31:40.000Z</time>
      </trkpt>
      <trkpt lat="46.5455" lon="-1.81827">
        <ele>-154.39999389648</ele>
        <time>2021-02-23T08:31:44.000Z</time>
      </trkpt>
      <trkpt lat="46.54555" lon="-1.8184">
        <ele>-154.19999694824</ele>
        <time>2021-02-23T08:31:46.000Z</time>
      </trkpt>
      <trkpt lat="46.54556" lon="-1.81846">
        <ele>-154.19999694824</ele>
        <time>2021-02-23T08:31:47.000Z</time>
      </trkpt>
      <trkpt lat="46.54557" lon="-1.81852">
        <ele>-154.19999694824</ele>
        <time>2021-02-23T08:31:48.000Z</time>
      </trkpt>
      <trkpt lat="46.54559" lon="-1.81858">
        <ele>-154.19999694824</ele>
        <time>2021-02-23T08:31:49.000Z</time>
      </trkpt>
      <trkpt lat="46.54562" lon="-1.81871">
        <ele>-154.19999694824</ele>
        <time>2021-02-23T08:31:51.000Z</time>
      </trkpt>
      <trkpt lat="46.54564" lon="-1.81877">
        <ele>-154</ele>
        <time>2021-02-23T08:31:52.000Z</time>
      </trkpt>
      <trkpt lat="46.54565" lon="-1.81884">
        <ele>-154.19999694824</ele>
        <time>2021-02-23T08:31:53.000Z</time>
      </trkpt>
      <trkpt lat="46.54566" lon="-1.81891">
        <ele>-154.19999694824</ele>
        <time>2021-02-23T08:31:54.000Z</time>
      </trkpt>
      <trkpt lat="46.54566" lon="-1.81896">
        <ele>-154.19999694824</ele>
        <time>2021-02-23T08:31:55.000Z</time>
      </trkpt>
      <trkpt lat="46.54572" lon="-1.81922">
        <ele>-154.19999694824</ele>
        <time>2021-02-23T08:31:59.000Z</time>
      </trkpt>
      <trkpt lat="46.54573" lon="-1.81928">
        <ele>-154.19999694824</ele>
        <time>2021-02-23T08:32:00.000Z</time>
      </trkpt>
      <trkpt lat="46.54577" lon="-1.81968">
        <ele>-154</ele>
        <time>2021-02-23T08:32:06.000Z</time>
      </trkpt>
      <trkpt lat="46.54578" lon="-1.81975">
        <ele>-154</ele>
        <time>2021-02-23T08:32:07.000Z</time>
      </trkpt>
      <trkpt lat="46.54582" lon="-1.82003">
        <ele>-154</ele>
        <time>2021-02-23T08:32:11.000Z</time>
      </trkpt>
      <trkpt lat="46.54584" lon="-1.82017">
        <ele>-153.80000305176</ele>
        <time>2021-02-23T08:32:13.000Z</time>
      </trkpt>
      <trkpt lat="46.54585" lon="-1.82047">
        <ele>-153.80000305176</ele>
        <time>2021-02-23T08:32:17.000Z</time>
      </trkpt>
      <trkpt lat="46.54585" lon="-1.82054">
        <ele>-153.80000305176</ele>
        <time>2021-02-23T08:32:18.000Z</time>
      </trkpt>
      <trkpt lat="46.54586" lon="-1.82061">
        <ele>-153.80000305176</ele>
        <time>2021-02-23T08:32:19.000Z</time>
      </trkpt>
      <trkpt lat="46.54585" lon="-1.82068">
        <ele>-153.80000305176</ele>
        <time>2021-02-23T08:32:20.000Z</time>
      </trkpt>
      <trkpt lat="46.54585" lon="-1.82076">
        <ele>-153.60000610352</ele>
        <time>2021-02-23T08:32:21.000Z</time>
      </trkpt>
      <trkpt lat="46.54583" lon="-1.82103">
        <ele>-153</ele>
        <time>2021-02-23T08:32:25.000Z</time>
      </trkpt>
      <trkpt lat="46.54583" lon="-1.82118">
        <ele>-152.80000305176</ele>
        <time>2021-02-23T08:32:27.000Z</time>
      </trkpt>
      <trkpt lat="46.54583" lon="-1.82141">
        <ele>-152.80000305176</ele>
        <time>2021-02-23T08:32:30.000Z</time>
      </trkpt>
      <trkpt lat="46.54582" lon="-1.82163">
        <ele>-152.80000305176</ele>
        <time>2021-02-23T08:32:33.000Z</time>
      </trkpt>
      <trkpt lat="46.54582" lon="-1.8217">
        <ele>-152.80000305176</ele>
        <time>2021-02-23T08:32:34.000Z</time>
      </trkpt>
      <trkpt lat="46.54582" lon="-1.82177">
        <ele>-152.80000305176</ele>
        <time>2021-02-23T08:32:35.000Z</time>
      </trkpt>
      <trkpt lat="46.54583" lon="-1.82184">
        <ele>-153</ele>
        <time>2021-02-23T08:32:36.000Z</time>
      </trkpt>
      <trkpt lat="46.54584" lon="-1.82199">
        <ele>-153</ele>
        <time>2021-02-23T08:32:38.000Z</time>
      </trkpt>
      <trkpt lat="46.54586" lon="-1.82213">
        <ele>-153</ele>
        <time>2021-02-23T08:32:40.000Z</time>
      </trkpt>
      <trkpt lat="46.54588" lon="-1.8222">
        <ele>-153</ele>
        <time>2021-02-23T08:32:41.000Z</time>
      </trkpt>
      <trkpt lat="46.5459" lon="-1.82227">
        <ele>-153</ele>
        <time>2021-02-23T08:32:42.000Z</time>
      </trkpt>
      <trkpt lat="46.54595" lon="-1.8224">
        <ele>-153</ele>
        <time>2021-02-23T08:32:44.000Z</time>
      </trkpt>
      <trkpt lat="46.54596" lon="-1.82246">
        <ele>-153</ele>
        <time>2021-02-23T08:32:45.000Z</time>
      </trkpt>
      <trkpt lat="46.54598" lon="-1.82253">
        <ele>-152.80000305176</ele>
        <time>2021-02-23T08:32:46.000Z</time>
      </trkpt>
      <trkpt lat="46.54601" lon="-1.82259">
        <ele>-152.80000305176</ele>
        <time>2021-02-23T08:32:47.000Z</time>
      </trkpt>
      <trkpt lat="46.54603" lon="-1.82266">
        <ele>-152.80000305176</ele>
        <time>2021-02-23T08:32:48.000Z</time>
      </trkpt>
      <trkpt lat="46.54616" lon="-1.82303">
        <ele>-152.60000610352</ele>
        <time>2021-02-23T08:32:54.000Z</time>
      </trkpt>
      <trkpt lat="46.54617" lon="-1.82309">
        <ele>-152.39999389648</ele>
        <time>2021-02-23T08:32:55.000Z</time>
      </trkpt>
      <trkpt lat="46.54619" lon="-1.82316">
        <ele>-152.60000610352</ele>
        <time>2021-02-23T08:32:56.000Z</time>
      </trkpt>
      <trkpt lat="46.5463" lon="-1.82348">
        <ele>-152.19999694824</ele>
        <time>2021-02-23T08:33:01.000Z</time>
      </trkpt>
      <trkpt lat="46.54633" lon="-1.82354">
        <ele>-152.19999694824</ele>
        <time>2021-02-23T08:33:02.000Z</time>
      </trkpt>
      <trkpt lat="46.54636" lon="-1.8236">
        <ele>-152.19999694824</ele>
        <time>2021-02-23T08:33:03.000Z</time>
      </trkpt>
      <trkpt lat="46.54643" lon="-1.82379">
        <ele>-152</ele>
        <time>2021-02-23T08:33:06.000Z</time>
      </trkpt>
      <trkpt lat="46.54645" lon="-1.82386">
        <ele>-151.80000305176</ele>
        <time>2021-02-23T08:33:07.000Z</time>
      </trkpt>
      <trkpt lat="46.54647" lon="-1.82392">
        <ele>-151.80000305176</ele>
        <time>2021-02-23T08:33:08.000Z</time>
      </trkpt>
      <trkpt lat="46.54648" lon="-1.82399">
        <ele>-151.60000610352</ele>
        <time>2021-02-23T08:33:09.000Z</time>
      </trkpt>
      <trkpt lat="46.54656" lon="-1.82418">
        <ele>-151.39999389648</ele>
        <time>2021-02-23T08:33:12.000Z</time>
      </trkpt>
      <trkpt lat="46.54659" lon="-1.82425">
        <ele>-151.19999694824</ele>
        <time>2021-02-23T08:33:13.000Z</time>
      </trkpt>
      <trkpt lat="46.54667" lon="-1.82451">
        <ele>-151</ele>
        <time>2021-02-23T08:33:17.000Z</time>
      </trkpt>
      <trkpt lat="46.54683" lon="-1.82499">
        <ele>-150.60000610352</ele>
        <time>2021-02-23T08:33:24.000Z</time>
      </trkpt>
      <trkpt lat="46.54691" lon="-1.82527">
        <ele>-150.60000610352</ele>
        <time>2021-02-23T08:33:28.000Z</time>
      </trkpt>
      <trkpt lat="46.54694" lon="-1.82534">
        <ele>-150.60000610352</ele>
        <time>2021-02-23T08:33:29.000Z</time>
      </trkpt>
      <trkpt lat="46.54699" lon="-1.82547">
        <ele>-150.60000610352</ele>
        <time>2021-02-23T08:33:31.000Z</time>
      </trkpt>
      <trkpt lat="46.54708" lon="-1.82566">
        <ele>-150.80000305176</ele>
        <time>2021-02-23T08:33:34.000Z</time>
      </trkpt>
      <trkpt lat="46.54716" lon="-1.82577">
        <ele>-150.80000305176</ele>
        <time>2021-02-23T08:33:36.000Z</time>
      </trkpt>
      <trkpt lat="46.54739" lon="-1.826">
        <ele>-151.19999694824</ele>
        <time>2021-02-23T08:33:41.000Z</time>
      </trkpt>
      <trkpt lat="46.54744" lon="-1.82604">
        <ele>-151.19999694824</ele>
        <time>2021-02-23T08:33:42.000Z</time>
      </trkpt>
      <trkpt lat="46.54749" lon="-1.82608">
        <ele>-151.39999389648</ele>
        <time>2021-02-23T08:33:43.000Z</time>
      </trkpt>
      <trkpt lat="46.54754" lon="-1.82612">
        <ele>-151.39999389648</ele>
        <time>2021-02-23T08:33:44.000Z</time>
      </trkpt>
      <trkpt lat="46.54767" lon="-1.82624">
        <ele>-151.60000610352</ele>
        <time>2021-02-23T08:33:47.000Z</time>
      </trkpt>
      <trkpt lat="46.54772" lon="-1.82629">
        <ele>-151.39999389648</ele>
        <time>2021-02-23T08:33:48.000Z</time>
      </trkpt>
      <trkpt lat="46.54784" lon="-1.82643">
        <ele>-151.19999694824</ele>
        <time>2021-02-23T08:33:51.000Z</time>
      </trkpt>
      <trkpt lat="46.54787" lon="-1.82648">
        <ele>-151.19999694824</ele>
        <time>2021-02-23T08:33:52.000Z</time>
      </trkpt>
      <trkpt lat="46.54792" lon="-1.82661">
        <ele>-151</ele>
        <time>2021-02-23T08:33:54.000Z</time>
      </trkpt>
      <trkpt lat="46.54793" lon="-1.82668">
        <ele>-151</ele>
        <time>2021-02-23T08:33:55.000Z</time>
      </trkpt>
      <trkpt lat="46.54795" lon="-1.82678">
        <ele>-150.80000305176</ele>
        <time>2021-02-23T08:33:56.000Z</time>
      </trkpt>
      <trkpt lat="46.54795" lon="-1.82684">
        <ele>-150.80000305176</ele>
        <time>2021-02-23T08:33:57.000Z</time>
      </trkpt>
      <trkpt lat="46.54796" lon="-1.82692">
        <ele>-150.80000305176</ele>
        <time>2021-02-23T08:33:58.000Z</time>
      </trkpt>
      <trkpt lat="46.54796" lon="-1.82699">
        <ele>-150.60000610352</ele>
        <time>2021-02-23T08:33:59.000Z</time>
      </trkpt>
      <trkpt lat="46.54797" lon="-1.82707">
        <ele>-150.60000610352</ele>
        <time>2021-02-23T08:34:00.000Z</time>
      </trkpt>
      <trkpt lat="46.54797" lon="-1.82721">
        <ele>-150.60000610352</ele>
        <time>2021-02-23T08:34:02.000Z</time>
      </trkpt>
      <trkpt lat="46.54801" lon="-1.82752">
        <ele>-150.80000305176</ele>
        <time>2021-02-23T08:34:06.000Z</time>
      </trkpt>
      <trkpt lat="46.54802" lon="-1.82759">
        <ele>-150.80000305176</ele>
        <time>2021-02-23T08:34:07.000Z</time>
      </trkpt>
      <trkpt lat="46.54803" lon="-1.82767">
        <ele>-150.80000305176</ele>
        <time>2021-02-23T08:34:08.000Z</time>
      </trkpt>
      <trkpt lat="46.54804" lon="-1.82774">
        <ele>-150.80000305176</ele>
        <time>2021-02-23T08:34:09.000Z</time>
      </trkpt>
      <trkpt lat="46.54805" lon="-1.82789">
        <ele>-150.80000305176</ele>
        <time>2021-02-23T08:34:11.000Z</time>
      </trkpt>
      <trkpt lat="46.54812" lon="-1.82843">
        <ele>-150.60000610352</ele>
        <time>2021-02-23T08:34:18.000Z</time>
      </trkpt>
      <trkpt lat="46.54815" lon="-1.82866">
        <ele>-150.60000610352</ele>
        <time>2021-02-23T08:34:21.000Z</time>
      </trkpt>
      <trkpt lat="46.54816" lon="-1.82874">
        <ele>-150.60000610352</ele>
        <time>2021-02-23T08:34:22.000Z</time>
      </trkpt>
      <trkpt lat="46.54817" lon="-1.82881">
        <ele>-150.80000305176</ele>
        <time>2021-02-23T08:34:23.000Z</time>
      </trkpt>
      <trkpt lat="46.54818" lon="-1.82888">
        <ele>-150.80000305176</ele>
        <time>2021-02-23T08:34:24.000Z</time>
      </trkpt>
      <trkpt lat="46.54819" lon="-1.82895">
        <ele>-150.80000305176</ele>
        <time>2021-02-23T08:34:25.000Z</time>
      </trkpt>
      <trkpt lat="46.5482" lon="-1.82903">
        <ele>-150.80000305176</ele>
        <time>2021-02-23T08:34:26.000Z</time>
      </trkpt>
      <trkpt lat="46.54821" lon="-1.8291">
        <ele>-150.80000305176</ele>
        <time>2021-02-23T08:34:27.000Z</time>
      </trkpt>
      <trkpt lat="46.54821" lon="-1.82917">
        <ele>-150.80000305176</ele>
        <time>2021-02-23T08:34:28.000Z</time>
      </trkpt>
      <trkpt lat="46.54822" lon="-1.82924">
        <ele>-150.60000610352</ele>
        <time>2021-02-23T08:34:29.000Z</time>
      </trkpt>
      <trkpt lat="46.54823" lon="-1.8293">
        <ele>-150.60000610352</ele>
        <time>2021-02-23T08:34:30.000Z</time>
      </trkpt>
      <trkpt lat="46.54824" lon="-1.82936">
        <ele>-150.39999389648</ele>
        <time>2021-02-23T08:34:31.000Z</time>
      </trkpt>
      <trkpt lat="46.54825" lon="-1.82949">
        <ele>-150.19999694824</ele>
        <time>2021-02-23T08:34:33.000Z</time>
      </trkpt>
      <trkpt lat="46.54825" lon="-1.82956">
        <ele>-150.19999694824</ele>
        <time>2021-02-23T08:34:34.000Z</time>
      </trkpt>
      <trkpt lat="46.54825" lon="-1.82963">
        <ele>-150.19999694824</ele>
        <time>2021-02-23T08:34:36.000Z</time>
      </trkpt>
      <trkpt lat="46.54827" lon="-1.82976">
        <ele>-150</ele>
        <time>2021-02-23T08:34:37.000Z</time>
      </trkpt>
      <trkpt lat="46.54834" lon="-1.82983">
        <ele>-150</ele>
        <time>2021-02-23T08:34:39.000Z</time>
      </trkpt>
      <trkpt lat="46.54839" lon="-1.82985">
        <ele>-150</ele>
        <time>2021-02-23T08:34:40.000Z</time>
      </trkpt>
      <trkpt lat="46.54844" lon="-1.82988">
        <ele>-150</ele>
        <time>2021-02-23T08:34:41.000Z</time>
      </trkpt>
      <trkpt lat="46.54849" lon="-1.8299">
        <ele>-150</ele>
        <time>2021-02-23T08:34:42.000Z</time>
      </trkpt>
      <trkpt lat="46.54863" lon="-1.83002">
        <ele>-150</ele>
        <time>2021-02-23T08:34:45.000Z</time>
      </trkpt>
      <trkpt lat="46.54868" lon="-1.83007">
        <ele>-150</ele>
        <time>2021-02-23T08:34:46.000Z</time>
      </trkpt>
      <trkpt lat="46.54873" lon="-1.83011">
        <ele>-150</ele>
        <time>2021-02-23T08:34:47.000Z</time>
      </trkpt>
      <trkpt lat="46.54883" lon="-1.8302">
        <ele>-149.80000305176</ele>
        <time>2021-02-23T08:34:49.000Z</time>
      </trkpt>
      <trkpt lat="46.54887" lon="-1.83025">
        <ele>-149.80000305176</ele>
        <time>2021-02-23T08:34:50.000Z</time>
      </trkpt>
      <trkpt lat="46.54892" lon="-1.83029">
        <ele>-149.80000305176</ele>
        <time>2021-02-23T08:34:51.000Z</time>
      </trkpt>
      <trkpt lat="46.54897" lon="-1.83033">
        <ele>-149.80000305176</ele>
        <time>2021-02-23T08:34:52.000Z</time>
      </trkpt>
      <trkpt lat="46.54902" lon="-1.83037">
        <ele>-150</ele>
        <time>2021-02-23T08:34:53.000Z</time>
      </trkpt>
      <trkpt lat="46.54906" lon="-1.83042">
        <ele>-150</ele>
        <time>2021-02-23T08:34:54.000Z</time>
      </trkpt>
      <trkpt lat="46.5491" lon="-1.83046">
        <ele>-150</ele>
        <time>2021-02-23T08:34:55.000Z</time>
      </trkpt>
      <trkpt lat="46.54914" lon="-1.8305">
        <ele>-150</ele>
        <time>2021-02-23T08:34:56.000Z</time>
      </trkpt>
      <trkpt lat="46.54918" lon="-1.83054">
        <ele>-150</ele>
        <time>2021-02-23T08:34:57.000Z</time>
      </trkpt>
      <trkpt lat="46.54922" lon="-1.83058">
        <ele>-150.19999694824</ele>
        <time>2021-02-23T08:34:58.000Z</time>
      </trkpt>
      <trkpt lat="46.54931" lon="-1.83065">
        <ele>-150.19999694824</ele>
        <time>2021-02-23T08:35:00.000Z</time>
      </trkpt>
      <trkpt lat="46.5494" lon="-1.83072">
        <ele>-150.39999389648</ele>
        <time>2021-02-23T08:35:02.000Z</time>
      </trkpt>
      <trkpt lat="46.54951" lon="-1.83087">
        <ele>-150.39999389648</ele>
        <time>2021-02-23T08:35:05.000Z</time>
      </trkpt>
      <trkpt lat="46.54954" lon="-1.83093">
        <ele>-150.39999389648</ele>
        <time>2021-02-23T08:35:06.000Z</time>
      </trkpt>
      <trkpt lat="46.54957" lon="-1.83099">
        <ele>-150.39999389648</ele>
        <time>2021-02-23T08:35:07.000Z</time>
      </trkpt>
      <trkpt lat="46.5496" lon="-1.83104">
        <ele>-150.19999694824</ele>
        <time>2021-02-23T08:35:08.000Z</time>
      </trkpt>
      <trkpt lat="46.54963" lon="-1.83109">
        <ele>-150.19999694824</ele>
        <time>2021-02-23T08:35:09.000Z</time>
      </trkpt>
      <trkpt lat="46.54965" lon="-1.83115">
        <ele>-150</ele>
        <time>2021-02-23T08:35:10.000Z</time>
      </trkpt>
      <trkpt lat="46.54968" lon="-1.8312">
        <ele>-149.80000305176</ele>
        <time>2021-02-23T08:35:11.000Z</time>
      </trkpt>
      <trkpt lat="46.5497" lon="-1.83124">
        <ele>-149.60000610352</ele>
        <time>2021-02-23T08:35:12.000Z</time>
      </trkpt>
      <trkpt lat="46.54973" lon="-1.83129">
        <ele>-149.19999694824</ele>
        <time>2021-02-23T08:35:13.000Z</time>
      </trkpt>
      <trkpt lat="46.54976" lon="-1.83134">
        <ele>-149</ele>
        <time>2021-02-23T08:35:14.000Z</time>
      </trkpt>
      <trkpt lat="46.54979" lon="-1.83137">
        <ele>-148.80000305176</ele>
        <time>2021-02-23T08:35:15.000Z</time>
      </trkpt>
      <trkpt lat="46.5499" lon="-1.83147">
        <ele>-148.39999389648</ele>
        <time>2021-02-23T08:35:18.000Z</time>
      </trkpt>
      <trkpt lat="46.54994" lon="-1.8315">
        <ele>-148.39999389648</ele>
        <time>2021-02-23T08:35:19.000Z</time>
      </trkpt>
      <trkpt lat="46.55015" lon="-1.83165">
        <ele>-148.60000610352</ele>
        <time>2021-02-23T08:35:24.000Z</time>
      </trkpt>
      <trkpt lat="46.55019" lon="-1.83168">
        <ele>-148.80000305176</ele>
        <time>2021-02-23T08:35:25.000Z</time>
      </trkpt>
      <trkpt lat="46.55023" lon="-1.8317">
        <ele>-149</ele>
        <time>2021-02-23T08:35:26.000Z</time>
      </trkpt>
      <trkpt lat="46.55026" lon="-1.83173">
        <ele>-149</ele>
        <time>2021-02-23T08:35:27.000Z</time>
      </trkpt>
      <trkpt lat="46.55028" lon="-1.83175">
        <ele>-149.19999694824</ele>
        <time>2021-02-23T08:35:28.000Z</time>
      </trkpt>
      <trkpt lat="46.5503" lon="-1.83178">
        <ele>-149.19999694824</ele>
        <time>2021-02-23T08:35:29.000Z</time>
      </trkpt>
      <trkpt lat="46.55032" lon="-1.83179">
        <ele>-149.39999389648</ele>
        <time>2021-02-23T08:35:30.000Z</time>
      </trkpt>
      <trkpt lat="46.55036" lon="-1.83179">
        <ele>-149.39999389648</ele>
        <time>2021-02-23T08:35:31.000Z</time>
      </trkpt>
      <trkpt lat="46.55045" lon="-1.83175">
        <ele>-149.60000610352</ele>
        <time>2021-02-23T08:35:34.000Z</time>
      </trkpt>
      <trkpt lat="46.55049" lon="-1.83174">
        <ele>-149.39999389648</ele>
        <time>2021-02-23T08:35:35.000Z</time>
      </trkpt>
      <trkpt lat="46.55053" lon="-1.83174">
        <ele>-149.39999389648</ele>
        <time>2021-02-23T08:35:36.000Z</time>
      </trkpt>
      <trkpt lat="46.55061" lon="-1.83176">
        <ele>-149.19999694824</ele>
        <time>2021-02-23T08:35:38.000Z</time>
      </trkpt>
      <trkpt lat="46.55076" lon="-1.83186">
        <ele>-148.60000610352</ele>
        <time>2021-02-23T08:35:42.000Z</time>
      </trkpt>
      <trkpt lat="46.55082" lon="-1.83194">
        <ele>-148.60000610352</ele>
        <time>2021-02-23T08:35:44.000Z</time>
      </trkpt>
      <trkpt lat="46.55085" lon="-1.83199">
        <ele>-148.60000610352</ele>
        <time>2021-02-23T08:35:45.000Z</time>
      </trkpt>
      <trkpt lat="46.5509" lon="-1.83208">
        <ele>-148.80000305176</ele>
        <time>2021-02-23T08:35:47.000Z</time>
      </trkpt>
      <trkpt lat="46.55095" lon="-1.83219">
        <ele>-148.80000305176</ele>
        <time>2021-02-23T08:35:49.000Z</time>
      </trkpt>
      <trkpt lat="46.55098" lon="-1.83224">
        <ele>-148.80000305176</ele>
        <time>2021-02-23T08:35:50.000Z</time>
      </trkpt>
      <trkpt lat="46.55101" lon="-1.83228">
        <ele>-148.80000305176</ele>
        <time>2021-02-23T08:35:51.000Z</time>
      </trkpt>
      <trkpt lat="46.55104" lon="-1.83232">
        <ele>-148.80000305176</ele>
        <time>2021-02-23T08:35:52.000Z</time>
      </trkpt>
      <trkpt lat="46.55121" lon="-1.83247">
        <ele>-149.19999694824</ele>
        <time>2021-02-23T08:35:56.000Z</time>
      </trkpt>
      <trkpt lat="46.55125" lon="-1.83252">
        <ele>-149.39999389648</ele>
        <time>2021-02-23T08:35:57.000Z</time>
      </trkpt>
      <trkpt lat="46.55138" lon="-1.83264">
        <ele>-149.80000305176</ele>
        <time>2021-02-23T08:36:00.000Z</time>
      </trkpt>
      <trkpt lat="46.55143" lon="-1.83267">
        <ele>-150</ele>
        <time>2021-02-23T08:36:01.000Z</time>
      </trkpt>
      <trkpt lat="46.55148" lon="-1.83269">
        <ele>-150</ele>
        <time>2021-02-23T08:36:02.000Z</time>
      </trkpt>
      <trkpt lat="46.55154" lon="-1.8327">
        <ele>-150</ele>
        <time>2021-02-23T08:36:03.000Z</time>
      </trkpt>
      <trkpt lat="46.55164" lon="-1.8327">
        <ele>-150.19999694824</ele>
        <time>2021-02-23T08:36:05.000Z</time>
      </trkpt>
      <trkpt lat="46.55169" lon="-1.83268">
        <ele>-150</ele>
        <time>2021-02-23T08:36:06.000Z</time>
      </trkpt>
      <trkpt lat="46.55173" lon="-1.83265">
        <ele>-150</ele>
        <time>2021-02-23T08:36:07.000Z</time>
      </trkpt>
      <trkpt lat="46.55176" lon="-1.83262">
        <ele>-149.80000305176</ele>
        <time>2021-02-23T08:36:08.000Z</time>
      </trkpt>
      <trkpt lat="46.5518" lon="-1.83259">
        <ele>-149.60000610352</ele>
        <time>2021-02-23T08:36:09.000Z</time>
      </trkpt>
      <trkpt lat="46.55183" lon="-1.83256">
        <ele>-149.39999389648</ele>
        <time>2021-02-23T08:36:10.000Z</time>
      </trkpt>
      <trkpt lat="46.55187" lon="-1.83252">
        <ele>-149.19999694824</ele>
        <time>2021-02-23T08:36:11.000Z</time>
      </trkpt>
      <trkpt lat="46.5519" lon="-1.83248">
        <ele>-149</ele>
        <time>2021-02-23T08:36:12.000Z</time>
      </trkpt>
      <trkpt lat="46.55197" lon="-1.83238">
        <ele>-149</ele>
        <time>2021-02-23T08:36:14.000Z</time>
      </trkpt>
      <trkpt lat="46.55201" lon="-1.83226">
        <ele>-149</ele>
        <time>2021-02-23T08:36:16.000Z</time>
      </trkpt>
      <trkpt lat="46.55203" lon="-1.8322">
        <ele>-149</ele>
        <time>2021-02-23T08:36:17.000Z</time>
      </trkpt>
      <trkpt lat="46.55204" lon="-1.83212">
        <ele>-149</ele>
        <time>2021-02-23T08:36:18.000Z</time>
      </trkpt>
      <trkpt lat="46.55204" lon="-1.83207">
        <ele>-149.19999694824</ele>
        <time>2021-02-23T08:36:19.000Z</time>
      </trkpt>
      <trkpt lat="46.55204" lon="-1.83186">
        <ele>-149.39999389648</ele>
        <time>2021-02-23T08:36:22.000Z</time>
      </trkpt>
      <trkpt lat="46.55205" lon="-1.83178">
        <ele>-149.39999389648</ele>
        <time>2021-02-23T08:36:23.000Z</time>
      </trkpt>
      <trkpt lat="46.55207" lon="-1.83163">
        <ele>-149.80000305176</ele>
        <time>2021-02-23T08:36:25.000Z</time>
      </trkpt>
      <trkpt lat="46.55208" lon="-1.83158">
        <ele>-150.19999694824</ele>
        <time>2021-02-23T08:36:26.000Z</time>
      </trkpt>
      <trkpt lat="46.5521" lon="-1.83155">
        <ele>-150.19999694824</ele>
        <time>2021-02-23T08:36:27.000Z</time>
      </trkpt>
      <trkpt lat="46.55211" lon="-1.83153">
        <ele>-150.60000610352</ele>
        <time>2021-02-23T08:36:28.000Z</time>
      </trkpt>
      <trkpt lat="46.55212" lon="-1.83151">
        <ele>-150.80000305176</ele>
        <time>2021-02-23T08:36:29.000Z</time>
      </trkpt>
      <trkpt lat="46.55212" lon="-1.83148">
        <ele>-151.39999389648</ele>
        <time>2021-02-23T08:36:30.000Z</time>
      </trkpt>
      <trkpt lat="46.5521" lon="-1.83142">
        <ele>-151.80000305176</ele>
        <time>2021-02-23T08:36:32.000Z</time>
      </trkpt>
      <trkpt lat="46.5521" lon="-1.83138">
        <ele>-152</ele>
        <time>2021-02-23T08:36:33.000Z</time>
      </trkpt>
      <trkpt lat="46.55211" lon="-1.83132">
        <ele>-152.19999694824</ele>
        <time>2021-02-23T08:36:34.000Z</time>
      </trkpt>
      <trkpt lat="46.55211" lon="-1.83102">
        <ele>-152</ele>
        <time>2021-02-23T08:36:39.000Z</time>
      </trkpt>
      <trkpt lat="46.5521" lon="-1.83083">
        <ele>-151.60000610352</ele>
        <time>2021-02-23T08:36:42.000Z</time>
      </trkpt>
      <trkpt lat="46.55208" lon="-1.83068">
        <ele>-151.39999389648</ele>
        <time>2021-02-23T08:36:44.000Z</time>
      </trkpt>
      <trkpt lat="46.55208" lon="-1.8306">
        <ele>-151.39999389648</ele>
        <time>2021-02-23T08:36:45.000Z</time>
      </trkpt>
      <trkpt lat="46.55208" lon="-1.83036">
        <ele>-151.39999389648</ele>
        <time>2021-02-23T08:36:48.000Z</time>
      </trkpt>
      <trkpt lat="46.55207" lon="-1.83003">
        <ele>-152.19999694824</ele>
        <time>2021-02-23T08:36:52.000Z</time>
      </trkpt>
      <trkpt lat="46.55208" lon="-1.82995">
        <ele>-152.39999389648</ele>
        <time>2021-02-23T08:36:53.000Z</time>
      </trkpt>
      <trkpt lat="46.55208" lon="-1.82986">
        <ele>-152.60000610352</ele>
        <time>2021-02-23T08:36:54.000Z</time>
      </trkpt>
      <trkpt lat="46.55208" lon="-1.82979">
        <ele>-153</ele>
        <time>2021-02-23T08:36:55.000Z</time>
      </trkpt>
      <trkpt lat="46.55208" lon="-1.82972">
        <ele>-153</ele>
        <time>2021-02-23T08:36:56.000Z</time>
      </trkpt>
      <trkpt lat="46.55208" lon="-1.82967">
        <ele>-152.80000305176</ele>
        <time>2021-02-23T08:36:57.000Z</time>
      </trkpt>
      <trkpt lat="46.55207" lon="-1.82961">
        <ele>-153</ele>
        <time>2021-02-23T08:36:58.000Z</time>
      </trkpt>
      <trkpt lat="46.55207" lon="-1.82955">
        <ele>-153</ele>
        <time>2021-02-23T08:36:59.000Z</time>
      </trkpt>
      <trkpt lat="46.55208" lon="-1.82948">
        <ele>-153</ele>
        <time>2021-02-23T08:37:00.000Z</time>
      </trkpt>
      <trkpt lat="46.55208" lon="-1.82944">
        <ele>-152.80000305176</ele>
        <time>2021-02-23T08:37:01.000Z</time>
      </trkpt>
      <trkpt lat="46.55208" lon="-1.82938">
        <ele>-152.80000305176</ele>
        <time>2021-02-23T08:37:02.000Z</time>
      </trkpt>
      <trkpt lat="46.55207" lon="-1.82928">
        <ele>-152.80000305176</ele>
        <time>2021-02-23T08:37:04.000Z</time>
      </trkpt>
      <trkpt lat="46.55206" lon="-1.82923">
        <ele>-152.60000610352</ele>
        <time>2021-02-23T08:37:05.000Z</time>
      </trkpt>
      <trkpt lat="46.55206" lon="-1.82919">
        <ele>-152.60000610352</ele>
        <time>2021-02-23T08:37:06.000Z</time>
      </trkpt>
      <trkpt lat="46.55206" lon="-1.82902">
        <ele>-152</ele>
        <time>2021-02-23T08:37:09.000Z</time>
      </trkpt>
      <trkpt lat="46.55204" lon="-1.8289">
        <ele>-151.80000305176</ele>
        <time>2021-02-23T08:37:11.000Z</time>
      </trkpt>
      <trkpt lat="46.55204" lon="-1.82883">
        <ele>-152</ele>
        <time>2021-02-23T08:37:12.000Z</time>
      </trkpt>
      <trkpt lat="46.55203" lon="-1.82869">
        <ele>-152.39999389648</ele>
        <time>2021-02-23T08:37:14.000Z</time>
      </trkpt>
      <trkpt lat="46.55204" lon="-1.82864">
        <ele>-152.60000610352</ele>
        <time>2021-02-23T08:37:15.000Z</time>
      </trkpt>
      <trkpt lat="46.55202" lon="-1.8285">
        <ele>-152.80000305176</ele>
        <time>2021-02-23T08:37:17.000Z</time>
      </trkpt>
      <trkpt lat="46.552" lon="-1.82838">
        <ele>-152.80000305176</ele>
        <time>2021-02-23T08:37:19.000Z</time>
      </trkpt>
      <trkpt lat="46.552" lon="-1.82831">
        <ele>-152.80000305176</ele>
        <time>2021-02-23T08:37:20.000Z</time>
      </trkpt>
      <trkpt lat="46.55199" lon="-1.82823">
        <ele>-152.80000305176</ele>
        <time>2021-02-23T08:37:21.000Z</time>
      </trkpt>
      <trkpt lat="46.55199" lon="-1.82815">
        <ele>-152.80000305176</ele>
        <time>2021-02-23T08:37:22.000Z</time>
      </trkpt>
      <trkpt lat="46.55201" lon="-1.82807">
        <ele>-152.80000305176</ele>
        <time>2021-02-23T08:37:23.000Z</time>
      </trkpt>
      <trkpt lat="46.55201" lon="-1.828">
        <ele>-153</ele>
        <time>2021-02-23T08:37:24.000Z</time>
      </trkpt>
      <trkpt lat="46.55201" lon="-1.82792">
        <ele>-153</ele>
        <time>2021-02-23T08:37:25.000Z</time>
      </trkpt>
      <trkpt lat="46.55201" lon="-1.82783">
        <ele>-153.19999694824</ele>
        <time>2021-02-23T08:37:26.000Z</time>
      </trkpt>
      <trkpt lat="46.55201" lon="-1.82776">
        <ele>-153.19999694824</ele>
        <time>2021-02-23T08:37:27.000Z</time>
      </trkpt>
      <trkpt lat="46.55202" lon="-1.82769">
        <ele>-153.19999694824</ele>
        <time>2021-02-23T08:37:28.000Z</time>
      </trkpt>
      <trkpt lat="46.55205" lon="-1.82758">
        <ele>-153.19999694824</ele>
        <time>2021-02-23T08:37:30.000Z</time>
      </trkpt>
      <trkpt lat="46.55208" lon="-1.82751">
        <ele>-153.19999694824</ele>
        <time>2021-02-23T08:37:31.000Z</time>
      </trkpt>
      <trkpt lat="46.5521" lon="-1.82745">
        <ele>-153.19999694824</ele>
        <time>2021-02-23T08:37:32.000Z</time>
      </trkpt>
      <trkpt lat="46.5521" lon="-1.8274">
        <ele>-153.19999694824</ele>
        <time>2021-02-23T08:37:33.000Z</time>
      </trkpt>
      <trkpt lat="46.55211" lon="-1.82735">
        <ele>-153.19999694824</ele>
        <time>2021-02-23T08:37:34.000Z</time>
      </trkpt>
      <trkpt lat="46.5521" lon="-1.82728">
        <ele>-153.19999694824</ele>
        <time>2021-02-23T08:37:35.000Z</time>
      </trkpt>
      <trkpt lat="46.55207" lon="-1.82722">
        <ele>-153.19999694824</ele>
        <time>2021-02-23T08:37:36.000Z</time>
      </trkpt>
      <trkpt lat="46.55205" lon="-1.82711">
        <ele>-153.19999694824</ele>
        <time>2021-02-23T08:37:38.000Z</time>
      </trkpt>
      <trkpt lat="46.55204" lon="-1.82706">
        <ele>-153.19999694824</ele>
        <time>2021-02-23T08:37:39.000Z</time>
      </trkpt>
      <trkpt lat="46.552" lon="-1.8269">
        <ele>-153</ele>
        <time>2021-02-23T08:37:42.000Z</time>
      </trkpt>
      <trkpt lat="46.552" lon="-1.82686">
        <ele>-152.60000610352</ele>
        <time>2021-02-23T08:37:43.000Z</time>
      </trkpt>
      <trkpt lat="46.55199" lon="-1.82679">
        <ele>-152.39999389648</ele>
        <time>2021-02-23T08:37:44.000Z</time>
      </trkpt>
      <trkpt lat="46.55197" lon="-1.82668">
        <ele>-152.80000305176</ele>
        <time>2021-02-23T08:37:46.000Z</time>
      </trkpt>
      <trkpt lat="46.55195" lon="-1.82658">
        <ele>-153</ele>
        <time>2021-02-23T08:37:48.000Z</time>
      </trkpt>
      <trkpt lat="46.55195" lon="-1.8265">
        <ele>-153</ele>
        <time>2021-02-23T08:37:49.000Z</time>
      </trkpt>
      <trkpt lat="46.55195" lon="-1.82637">
        <ele>-153</ele>
        <time>2021-02-23T08:37:51.000Z</time>
      </trkpt>
      <trkpt lat="46.55195" lon="-1.82624">
        <ele>-153</ele>
        <time>2021-02-23T08:37:53.000Z</time>
      </trkpt>
      <trkpt lat="46.55196" lon="-1.82618">
        <ele>-153</ele>
        <time>2021-02-23T08:37:54.000Z</time>
      </trkpt>
      <trkpt lat="46.55196" lon="-1.82612">
        <ele>-153</ele>
        <time>2021-02-23T08:37:55.000Z</time>
      </trkpt>
      <trkpt lat="46.55196" lon="-1.82607">
        <ele>-153</ele>
        <time>2021-02-23T08:37:56.000Z</time>
      </trkpt>
      <trkpt lat="46.55196" lon="-1.82594">
        <ele>-153</ele>
        <time>2021-02-23T08:37:58.000Z</time>
      </trkpt>
      <trkpt lat="46.55195" lon="-1.82576">
        <ele>-153</ele>
        <time>2021-02-23T08:38:01.000Z</time>
      </trkpt>
      <trkpt lat="46.55195" lon="-1.82569">
        <ele>-153</ele>
        <time>2021-02-23T08:38:02.000Z</time>
      </trkpt>
      <trkpt lat="46.55193" lon="-1.82545">
        <ele>-153</ele>
        <time>2021-02-23T08:38:06.000Z</time>
      </trkpt>
      <trkpt lat="46.55193" lon="-1.82537">
        <ele>-153.19999694824</ele>
        <time>2021-02-23T08:38:07.000Z</time>
      </trkpt>
      <trkpt lat="46.55193" lon="-1.82531">
        <ele>-153</ele>
        <time>2021-02-23T08:38:08.000Z</time>
      </trkpt>
      <trkpt lat="46.55194" lon="-1.82525">
        <ele>-153</ele>
        <time>2021-02-23T08:38:09.000Z</time>
      </trkpt>
      <trkpt lat="46.55195" lon="-1.82521">
        <ele>-153</ele>
        <time>2021-02-23T08:38:10.000Z</time>
      </trkpt>
      <trkpt lat="46.55196" lon="-1.82515">
        <ele>-153</ele>
        <time>2021-02-23T08:38:11.000Z</time>
      </trkpt>
      <trkpt lat="46.55198" lon="-1.82509">
        <ele>-153</ele>
        <time>2021-02-23T08:38:12.000Z</time>
      </trkpt>
      <trkpt lat="46.55199" lon="-1.82503">
        <ele>-153.19999694824</ele>
        <time>2021-02-23T08:38:13.000Z</time>
      </trkpt>
      <trkpt lat="46.55203" lon="-1.82482">
        <ele>-153.19999694824</ele>
        <time>2021-02-23T08:38:17.000Z</time>
      </trkpt>
      <trkpt lat="46.55204" lon="-1.82476">
        <ele>-153.39999389648</ele>
        <time>2021-02-23T08:38:18.000Z</time>
      </trkpt>
      <trkpt lat="46.55208" lon="-1.82465">
        <ele>-153.60000610352</ele>
        <time>2021-02-23T08:38:20.000Z</time>
      </trkpt>
      <trkpt lat="46.5521" lon="-1.8246">
        <ele>-153.80000305176</ele>
        <time>2021-02-23T08:38:21.000Z</time>
      </trkpt>
      <trkpt lat="46.55211" lon="-1.82456">
        <ele>-154</ele>
        <time>2021-02-23T08:38:22.000Z</time>
      </trkpt>
      <trkpt lat="46.55212" lon="-1.82453">
        <ele>-154</ele>
        <time>2021-02-23T08:38:23.000Z</time>
      </trkpt>
      <trkpt lat="46.55213" lon="-1.82449">
        <ele>-154.19999694824</ele>
        <time>2021-02-23T08:38:24.000Z</time>
      </trkpt>
      <trkpt lat="46.55215" lon="-1.82445">
        <ele>-154.19999694824</ele>
        <time>2021-02-23T08:38:25.000Z</time>
      </trkpt>
      <trkpt lat="46.55217" lon="-1.82442">
        <ele>-154.39999389648</ele>
        <time>2021-02-23T08:38:26.000Z</time>
      </trkpt>
      <trkpt lat="46.55218" lon="-1.8244">
        <ele>-154.39999389648</ele>
        <time>2021-02-23T08:38:27.000Z</time>
      </trkpt>
      <trkpt lat="46.55221" lon="-1.82436">
        <ele>-154.39999389648</ele>
        <time>2021-02-23T08:38:29.000Z</time>
      </trkpt>
      <trkpt lat="46.55222" lon="-1.82434">
        <ele>-154.39999389648</ele>
        <time>2021-02-23T08:38:30.000Z</time>
      </trkpt>
      <trkpt lat="46.55224" lon="-1.82433">
        <ele>-154.19999694824</ele>
        <time>2021-02-23T08:38:31.000Z</time>
      </trkpt>
      <trkpt lat="46.55225" lon="-1.82432">
        <ele>-154</ele>
        <time>2021-02-23T08:38:32.000Z</time>
      </trkpt>
      <trkpt lat="46.55227" lon="-1.82431">
        <ele>-153.80000305176</ele>
        <time>2021-02-23T08:38:33.000Z</time>
      </trkpt>
      <trkpt lat="46.55229" lon="-1.82428">
        <ele>-153.60000610352</ele>
        <time>2021-02-23T08:38:34.000Z</time>
      </trkpt>
      <trkpt lat="46.55232" lon="-1.82426">
        <ele>-153.39999389648</ele>
        <time>2021-02-23T08:38:35.000Z</time>
      </trkpt>
      <trkpt lat="46.55233" lon="-1.82424">
        <ele>-153</ele>
        <time>2021-02-23T08:38:36.000Z</time>
      </trkpt>
      <trkpt lat="46.55238" lon="-1.82415">
        <ele>-152.60000610352</ele>
        <time>2021-02-23T08:38:39.000Z</time>
      </trkpt>
      <trkpt lat="46.55239" lon="-1.82411">
        <ele>-152.39999389648</ele>
        <time>2021-02-23T08:38:40.000Z</time>
      </trkpt>
      <trkpt lat="46.5524" lon="-1.82406">
        <ele>-152.39999389648</ele>
        <time>2021-02-23T08:38:41.000Z</time>
      </trkpt>
      <trkpt lat="46.5524" lon="-1.824">
        <ele>-152.39999389648</ele>
        <time>2021-02-23T08:38:42.000Z</time>
      </trkpt>
      <trkpt lat="46.55242" lon="-1.82394">
        <ele>-152.19999694824</ele>
        <time>2021-02-23T08:38:43.000Z</time>
      </trkpt>
      <trkpt lat="46.55243" lon="-1.82386">
        <ele>-152.19999694824</ele>
        <time>2021-02-23T08:38:44.000Z</time>
      </trkpt>
      <trkpt lat="46.55244" lon="-1.82371">
        <ele>-152.19999694824</ele>
        <time>2021-02-23T08:38:46.000Z</time>
      </trkpt>
      <trkpt lat="46.55244" lon="-1.82365">
        <ele>-152.60000610352</ele>
        <time>2021-02-23T08:38:47.000Z</time>
      </trkpt>
      <trkpt lat="46.55246" lon="-1.8235">
        <ele>-152.80000305176</ele>
        <time>2021-02-23T08:38:49.000Z</time>
      </trkpt>
      <trkpt lat="46.55247" lon="-1.82343">
        <ele>-153.19999694824</ele>
        <time>2021-02-23T08:38:50.000Z</time>
      </trkpt>
      <trkpt lat="46.55247" lon="-1.82336">
        <ele>-153.39999389648</ele>
        <time>2021-02-23T08:38:51.000Z</time>
      </trkpt>
      <trkpt lat="46.55249" lon="-1.82322">
        <ele>-153.80000305176</ele>
        <time>2021-02-23T08:38:53.000Z</time>
      </trkpt>
      <trkpt lat="46.55249" lon="-1.82315">
        <ele>-153.80000305176</ele>
        <time>2021-02-23T08:38:54.000Z</time>
      </trkpt>
      <trkpt lat="46.55251" lon="-1.82308">
        <ele>-154</ele>
        <time>2021-02-23T08:38:55.000Z</time>
      </trkpt>
      <trkpt lat="46.5525" lon="-1.82304">
        <ele>-154</ele>
        <time>2021-02-23T08:38:56.000Z</time>
      </trkpt>
      <trkpt lat="46.55249" lon="-1.82298">
        <ele>-154</ele>
        <time>2021-02-23T08:38:57.000Z</time>
      </trkpt>
      <trkpt lat="46.55248" lon="-1.8229">
        <ele>-154</ele>
        <time>2021-02-23T08:38:58.000Z</time>
      </trkpt>
      <trkpt lat="46.55248" lon="-1.82285">
        <ele>-154</ele>
        <time>2021-02-23T08:38:59.000Z</time>
      </trkpt>
      <trkpt lat="46.55247" lon="-1.8228">
        <ele>-153.80000305176</ele>
        <time>2021-02-23T08:39:00.000Z</time>
      </trkpt>
      <trkpt lat="46.55245" lon="-1.82269">
        <ele>-153.80000305176</ele>
        <time>2021-02-23T08:39:02.000Z</time>
      </trkpt>
      <trkpt lat="46.55244" lon="-1.8226">
        <ele>-153.80000305176</ele>
        <time>2021-02-23T08:39:03.000Z</time>
      </trkpt>
      <trkpt lat="46.55242" lon="-1.82256">
        <ele>-153.80000305176</ele>
        <time>2021-02-23T08:39:04.000Z</time>
      </trkpt>
      <trkpt lat="46.5524" lon="-1.8225">
        <ele>-153.80000305176</ele>
        <time>2021-02-23T08:39:05.000Z</time>
      </trkpt>
      <trkpt lat="46.5524" lon="-1.82245">
        <ele>-153.80000305176</ele>
        <time>2021-02-23T08:39:06.000Z</time>
      </trkpt>
      <trkpt lat="46.55241" lon="-1.82241">
        <ele>-153.80000305176</ele>
        <time>2021-02-23T08:39:07.000Z</time>
      </trkpt>
      <trkpt lat="46.5524" lon="-1.82238">
        <ele>-154</ele>
        <time>2021-02-23T08:39:08.000Z</time>
      </trkpt>
      <trkpt lat="46.55239" lon="-1.82231">
        <ele>-154</ele>
        <time>2021-02-23T08:39:09.000Z</time>
      </trkpt>
      <trkpt lat="46.55236" lon="-1.82221">
        <ele>-154.39999389648</ele>
        <time>2021-02-23T08:39:11.000Z</time>
      </trkpt>
      <trkpt lat="46.55235" lon="-1.82215">
        <ele>-154.39999389648</ele>
        <time>2021-02-23T08:39:12.000Z</time>
      </trkpt>
      <trkpt lat="46.55233" lon="-1.82205">
        <ele>-154.60000610352</ele>
        <time>2021-02-23T08:39:14.000Z</time>
      </trkpt>
      <trkpt lat="46.5523" lon="-1.82194">
        <ele>-154.60000610352</ele>
        <time>2021-02-23T08:39:16.000Z</time>
      </trkpt>
      <trkpt lat="46.55228" lon="-1.82187">
        <ele>-154.60000610352</ele>
        <time>2021-02-23T08:39:17.000Z</time>
      </trkpt>
      <trkpt lat="46.55224" lon="-1.82169">
        <ele>-155</ele>
        <time>2021-02-23T08:39:20.000Z</time>
      </trkpt>
      <trkpt lat="46.55222" lon="-1.82163">
        <ele>-155.19999694824</ele>
        <time>2021-02-23T08:39:21.000Z</time>
      </trkpt>
      <trkpt lat="46.5522" lon="-1.82158">
        <ele>-155.19999694824</ele>
        <time>2021-02-23T08:39:22.000Z</time>
      </trkpt>
      <trkpt lat="46.5522" lon="-1.82154">
        <ele>-155</ele>
        <time>2021-02-23T08:39:23.000Z</time>
      </trkpt>
      <trkpt lat="46.55218" lon="-1.82151">
        <ele>-155</ele>
        <time>2021-02-23T08:39:24.000Z</time>
      </trkpt>
      <trkpt lat="46.55209" lon="-1.82116">
        <ele>-154.80000305176</ele>
        <time>2021-02-23T08:39:30.000Z</time>
      </trkpt>
      <trkpt lat="46.55208" lon="-1.82112">
        <ele>-154.80000305176</ele>
        <time>2021-02-23T08:39:31.000Z</time>
      </trkpt>
      <trkpt lat="46.55207" lon="-1.82106">
        <ele>-154.60000610352</ele>
        <time>2021-02-23T08:39:32.000Z</time>
      </trkpt>
      <trkpt lat="46.55206" lon="-1.82086">
        <ele>-154.60000610352</ele>
        <time>2021-02-23T08:39:35.000Z</time>
      </trkpt>
      <trkpt lat="46.55205" lon="-1.82074">
        <ele>-154.60000610352</ele>
        <time>2021-02-23T08:39:37.000Z</time>
      </trkpt>
      <trkpt lat="46.55204" lon="-1.82068">
        <ele>-154.60000610352</ele>
        <time>2021-02-23T08:39:38.000Z</time>
      </trkpt>
      <trkpt lat="46.55203" lon="-1.82062">
        <ele>-154.39999389648</ele>
        <time>2021-02-23T08:39:39.000Z</time>
      </trkpt>
      <trkpt lat="46.55203" lon="-1.82057">
        <ele>-154.39999389648</ele>
        <time>2021-02-23T08:39:40.000Z</time>
      </trkpt>
      <trkpt lat="46.55202" lon="-1.8205">
        <ele>-154.39999389648</ele>
        <time>2021-02-23T08:39:41.000Z</time>
      </trkpt>
      <trkpt lat="46.55201" lon="-1.82044">
        <ele>-154.39999389648</ele>
        <time>2021-02-23T08:39:42.000Z</time>
      </trkpt>
      <trkpt lat="46.55199" lon="-1.82039">
        <ele>-154.39999389648</ele>
        <time>2021-02-23T08:39:43.000Z</time>
      </trkpt>
      <trkpt lat="46.55195" lon="-1.82025">
        <ele>-154.39999389648</ele>
        <time>2021-02-23T08:39:46.000Z</time>
      </trkpt>
      <trkpt lat="46.55195" lon="-1.8202">
        <ele>-154.60000610352</ele>
        <time>2021-02-23T08:39:47.000Z</time>
      </trkpt>
      <trkpt lat="46.55197" lon="-1.82017">
        <ele>-154.60000610352</ele>
        <time>2021-02-23T08:39:48.000Z</time>
      </trkpt>
      <trkpt lat="46.55198" lon="-1.82016">
        <ele>-154.60000610352</ele>
        <time>2021-02-23T08:39:49.000Z</time>
      </trkpt>
      <trkpt lat="46.552" lon="-1.82016">
        <ele>-154.60000610352</ele>
        <time>2021-02-23T08:39:50.000Z</time>
      </trkpt>
      <trkpt lat="46.55202" lon="-1.82017">
        <ele>-154.60000610352</ele>
        <time>2021-02-23T08:39:51.000Z</time>
      </trkpt>
      <trkpt lat="46.55204" lon="-1.8202">
        <ele>-154.60000610352</ele>
        <time>2021-02-23T08:39:52.000Z</time>
      </trkpt>
      <trkpt lat="46.55209" lon="-1.82024">
        <ele>-154.80000305176</ele>
        <time>2021-02-23T08:39:54.000Z</time>
      </trkpt>
      <trkpt lat="46.55217" lon="-1.8203">
        <ele>-154.60000610352</ele>
        <time>2021-02-23T08:39:57.000Z</time>
      </trkpt>
      <trkpt lat="46.55219" lon="-1.82032">
        <ele>-154.60000610352</ele>
        <time>2021-02-23T08:39:58.000Z</time>
      </trkpt>
      <trkpt lat="46.55236" lon="-1.82051">
        <ele>-154.60000610352</ele>
        <time>2021-02-23T08:40:03.000Z</time>
      </trkpt>
      <trkpt lat="46.55239" lon="-1.82055">
        <ele>-154.80000305176</ele>
        <time>2021-02-23T08:40:04.000Z</time>
      </trkpt>
      <trkpt lat="46.55242" lon="-1.82059">
        <ele>-155</ele>
        <time>2021-02-23T08:40:05.000Z</time>
      </trkpt>
      <trkpt lat="46.55244" lon="-1.82063">
        <ele>-155</ele>
        <time>2021-02-23T08:40:06.000Z</time>
      </trkpt>
      <trkpt lat="46.55247" lon="-1.82067">
        <ele>-155.19999694824</ele>
        <time>2021-02-23T08:40:07.000Z</time>
      </trkpt>
      <trkpt lat="46.55252" lon="-1.82074">
        <ele>-154.80000305176</ele>
        <time>2021-02-23T08:40:09.000Z</time>
      </trkpt>
      <trkpt lat="46.55254" lon="-1.8208">
        <ele>-154.60000610352</ele>
        <time>2021-02-23T08:40:10.000Z</time>
      </trkpt>
      <trkpt lat="46.55259" lon="-1.8209">
        <ele>-154.80000305176</ele>
        <time>2021-02-23T08:40:12.000Z</time>
      </trkpt>
      <trkpt lat="46.55262" lon="-1.82093">
        <ele>-154.80000305176</ele>
        <time>2021-02-23T08:40:13.000Z</time>
      </trkpt>
      <trkpt lat="46.55264" lon="-1.82099">
        <ele>-154.80000305176</ele>
        <time>2021-02-23T08:40:14.000Z</time>
      </trkpt>
      <trkpt lat="46.55267" lon="-1.82105">
        <ele>-154.80000305176</ele>
        <time>2021-02-23T08:40:15.000Z</time>
      </trkpt>
      <trkpt lat="46.55274" lon="-1.82114">
        <ele>-154.60000610352</ele>
        <time>2021-02-23T08:40:17.000Z</time>
      </trkpt>
      <trkpt lat="46.55276" lon="-1.82117">
        <ele>-154.60000610352</ele>
        <time>2021-02-23T08:40:18.000Z</time>
      </trkpt>
      <trkpt lat="46.55286" lon="-1.82131">
        <ele>-154.60000610352</ele>
        <time>2021-02-23T08:40:21.000Z</time>
      </trkpt>
      <trkpt lat="46.55289" lon="-1.82135">
        <ele>-154.80000305176</ele>
        <time>2021-02-23T08:40:22.000Z</time>
      </trkpt>
      <trkpt lat="46.55291" lon="-1.82138">
        <ele>-154.80000305176</ele>
        <time>2021-02-23T08:40:23.000Z</time>
      </trkpt>
      <trkpt lat="46.55293" lon="-1.82141">
        <ele>-155</ele>
        <time>2021-02-23T08:40:24.000Z</time>
      </trkpt>
      <trkpt lat="46.55296" lon="-1.82145">
        <ele>-155</ele>
        <time>2021-02-23T08:40:25.000Z</time>
      </trkpt>
      <trkpt lat="46.55298" lon="-1.82148">
        <ele>-155</ele>
        <time>2021-02-23T08:40:26.000Z</time>
      </trkpt>
      <trkpt lat="46.553" lon="-1.8215">
        <ele>-155</ele>
        <time>2021-02-23T08:40:27.000Z</time>
      </trkpt>
      <trkpt lat="46.55301" lon="-1.82148">
        <ele>-155</ele>
        <time>2021-02-23T08:40:28.000Z</time>
      </trkpt>
      <trkpt lat="46.55302" lon="-1.82146">
        <ele>-155</ele>
        <time>2021-02-23T08:40:29.000Z</time>
      </trkpt>
      <trkpt lat="46.55304" lon="-1.82144">
        <ele>-155</ele>
        <time>2021-02-23T08:40:30.000Z</time>
      </trkpt>
      <trkpt lat="46.55304" lon="-1.82136">
        <ele>-155</ele>
        <time>2021-02-23T08:40:32.000Z</time>
      </trkpt>
      <trkpt lat="46.55304" lon="-1.82134">
        <ele>-155</ele>
        <time>2021-02-23T08:40:33.000Z</time>
      </trkpt>
      <trkpt lat="46.55305" lon="-1.82133">
        <ele>-154.80000305176</ele>
        <time>2021-02-23T08:40:34.000Z</time>
      </trkpt>
      <trkpt lat="46.55305" lon="-1.82132">
        <ele>-154.80000305176</ele>
        <time>2021-02-23T08:40:36.000Z</time>
      </trkpt>
      <trkpt lat="46.55305" lon="-1.82132">
        <ele>-154.80000305176</ele>
        <time>2021-02-23T08:40:37.000Z</time>
      </trkpt>
      <trkpt lat="46.55304" lon="-1.82132">
        <ele>-154.80000305176</ele>
        <time>2021-02-23T08:40:38.000Z</time>
      </trkpt>
      <trkpt lat="46.55304" lon="-1.82133">
        <ele>-154.80000305176</ele>
        <time>2021-02-23T08:40:39.000Z</time>
      </trkpt>
      <trkpt lat="46.55302" lon="-1.82144">
        <ele>-154.80000305176</ele>
        <time>2021-02-23T08:40:44.000Z</time>
      </trkpt>
      <trkpt lat="46.55304" lon="-1.82154">
        <ele>-155</ele>
        <time>2021-02-23T08:40:46.000Z</time>
      </trkpt>
      <trkpt lat="46.55306" lon="-1.82158">
        <ele>-155</ele>
        <time>2021-02-23T08:40:47.000Z</time>
      </trkpt>
      <trkpt lat="46.55309" lon="-1.82162">
        <ele>-155</ele>
        <time>2021-02-23T08:40:48.000Z</time>
      </trkpt>
      <trkpt lat="46.55311" lon="-1.82165">
        <ele>-155</ele>
        <time>2021-02-23T08:40:49.000Z</time>
      </trkpt>
      <trkpt lat="46.55314" lon="-1.82169">
        <ele>-155</ele>
        <time>2021-02-23T08:40:50.000Z</time>
      </trkpt>
      <trkpt lat="46.55315" lon="-1.82172">
        <ele>-155</ele>
        <time>2021-02-23T08:40:51.000Z</time>
      </trkpt>
      <trkpt lat="46.55321" lon="-1.82185">
        <ele>-154.80000305176</ele>
        <time>2021-02-23T08:40:54.000Z</time>
      </trkpt>
      <trkpt lat="46.55332" lon="-1.82202">
        <ele>-154.39999389648</ele>
        <time>2021-02-23T08:40:59.000Z</time>
      </trkpt>
      <trkpt lat="46.55335" lon="-1.82205">
        <ele>-154.19999694824</ele>
        <time>2021-02-23T08:41:00.000Z</time>
      </trkpt>
      <trkpt lat="46.55338" lon="-1.82207">
        <ele>-154.19999694824</ele>
        <time>2021-02-23T08:41:01.000Z</time>
      </trkpt>
      <trkpt lat="46.5534" lon="-1.82208">
        <ele>-154.19999694824</ele>
        <time>2021-02-23T08:41:02.000Z</time>
      </trkpt>
      <trkpt lat="46.55343" lon="-1.82209">
        <ele>-154.19999694824</ele>
        <time>2021-02-23T08:41:03.000Z</time>
      </trkpt>
      <trkpt lat="46.55347" lon="-1.82208">
        <ele>-154.19999694824</ele>
        <time>2021-02-23T08:41:04.000Z</time>
      </trkpt>
      <trkpt lat="46.5535" lon="-1.82209">
        <ele>-154.19999694824</ele>
        <time>2021-02-23T08:41:05.000Z</time>
      </trkpt>
      <trkpt lat="46.55352" lon="-1.8221">
        <ele>-154</ele>
        <time>2021-02-23T08:41:06.000Z</time>
      </trkpt>
      <trkpt lat="46.55354" lon="-1.82209">
        <ele>-154</ele>
        <time>2021-02-23T08:41:07.000Z</time>
      </trkpt>
      <trkpt lat="46.55355" lon="-1.82208">
        <ele>-154</ele>
        <time>2021-02-23T08:41:08.000Z</time>
      </trkpt>
      <trkpt lat="46.55357" lon="-1.82205">
        <ele>-154</ele>
        <time>2021-02-23T08:41:09.000Z</time>
      </trkpt>
      <trkpt lat="46.55359" lon="-1.82192">
        <ele>-154</ele>
        <time>2021-02-23T08:41:12.000Z</time>
      </trkpt>
      <trkpt lat="46.55358" lon="-1.82189">
        <ele>-154</ele>
        <time>2021-02-23T08:41:13.000Z</time>
      </trkpt>
      <trkpt lat="46.55358" lon="-1.82186">
        <ele>-154</ele>
        <time>2021-02-23T08:41:14.000Z</time>
      </trkpt>
      <trkpt lat="46.55358" lon="-1.82184">
        <ele>-154</ele>
        <time>2021-02-23T08:41:15.000Z</time>
      </trkpt>
      <trkpt lat="46.55359" lon="-1.82181">
        <ele>-154</ele>
        <time>2021-02-23T08:41:16.000Z</time>
      </trkpt>
      <trkpt lat="46.55359" lon="-1.82178">
        <ele>-154</ele>
        <time>2021-02-23T08:41:17.000Z</time>
      </trkpt>
      <trkpt lat="46.55359" lon="-1.82176">
        <ele>-154</ele>
        <time>2021-02-23T08:41:18.000Z</time>
      </trkpt>
      <trkpt lat="46.5536" lon="-1.82174">
        <ele>-154</ele>
        <time>2021-02-23T08:41:19.000Z</time>
      </trkpt>
      <trkpt lat="46.55361" lon="-1.82171">
        <ele>-154</ele>
        <time>2021-02-23T08:41:20.000Z</time>
      </trkpt>
      <trkpt lat="46.55361" lon="-1.82169">
        <ele>-154</ele>
        <time>2021-02-23T08:41:21.000Z</time>
      </trkpt>
      <trkpt lat="46.55362" lon="-1.82168">
        <ele>-154</ele>
        <time>2021-02-23T08:41:22.000Z</time>
      </trkpt>
      <trkpt lat="46.55364" lon="-1.82165">
        <ele>-154</ele>
        <time>2021-02-23T08:41:23.000Z</time>
      </trkpt>
      <trkpt lat="46.55366" lon="-1.82162">
        <ele>-154</ele>
        <time>2021-02-23T08:41:24.000Z</time>
      </trkpt>
      <trkpt lat="46.55369" lon="-1.82158">
        <ele>-154</ele>
        <time>2021-02-23T08:41:26.000Z</time>
      </trkpt>
      <trkpt lat="46.5537" lon="-1.82154">
        <ele>-154</ele>
        <time>2021-02-23T08:41:27.000Z</time>
      </trkpt>
      <trkpt lat="46.5537" lon="-1.8215">
        <ele>-154</ele>
        <time>2021-02-23T08:41:28.000Z</time>
      </trkpt>
      <trkpt lat="46.5537" lon="-1.82145">
        <ele>-154</ele>
        <time>2021-02-23T08:41:29.000Z</time>
      </trkpt>
      <trkpt lat="46.5537" lon="-1.82141">
        <ele>-154.19999694824</ele>
        <time>2021-02-23T08:41:30.000Z</time>
      </trkpt>
      <trkpt lat="46.5537" lon="-1.82137">
        <ele>-154.19999694824</ele>
        <time>2021-02-23T08:41:31.000Z</time>
      </trkpt>
      <trkpt lat="46.5537" lon="-1.82137">
        <ele>-154.60000610352</ele>
        <time>2021-02-23T08:41:42.000Z</time>
      </trkpt>
      <trkpt lat="46.55371" lon="-1.82134">
        <ele>-154.60000610352</ele>
        <time>2021-02-23T08:41:44.000Z</time>
      </trkpt>
      <trkpt lat="46.55371" lon="-1.82134">
        <ele>-154.60000610352</ele>
        <time>2021-02-23T08:41:50.000Z</time>
      </trkpt>
      <trkpt lat="46.55371" lon="-1.82136">
        <ele>-154.60000610352</ele>
        <time>2021-02-23T08:41:52.000Z</time>
      </trkpt>
      <trkpt lat="46.5537" lon="-1.82138">
        <ele>-154.60000610352</ele>
        <time>2021-02-23T08:41:54.000Z</time>
      </trkpt>
      <trkpt lat="46.55369" lon="-1.8214">
        <ele>-154.60000610352</ele>
        <time>2021-02-23T08:41:55.000Z</time>
      </trkpt>
      <trkpt lat="46.55367" lon="-1.82147">
        <ele>-154.39999389648</ele>
        <time>2021-02-23T08:41:58.000Z</time>
      </trkpt>
      <trkpt lat="46.55367" lon="-1.82148">
        <ele>-154.39999389648</ele>
        <time>2021-02-23T08:41:59.000Z</time>
      </trkpt>
      <trkpt lat="46.55366" lon="-1.8215">
        <ele>-154.39999389648</ele>
        <time>2021-02-23T08:42:00.000Z</time>
      </trkpt>
      <trkpt lat="46.55365" lon="-1.82151">
        <ele>-154.19999694824</ele>
        <time>2021-02-23T08:42:01.000Z</time>
      </trkpt>
      <trkpt lat="46.55363" lon="-1.82159">
        <ele>-154.19999694824</ele>
        <time>2021-02-23T08:42:06.000Z</time>
      </trkpt>
      <trkpt lat="46.55364" lon="-1.82162">
        <ele>-154.19999694824</ele>
        <time>2021-02-23T08:42:07.000Z</time>
      </trkpt>
      <trkpt lat="46.55365" lon="-1.82164">
        <ele>-154.19999694824</ele>
        <time>2021-02-23T08:42:08.000Z</time>
      </trkpt>
      <trkpt lat="46.55365" lon="-1.82166">
        <ele>-154.19999694824</ele>
        <time>2021-02-23T08:42:09.000Z</time>
      </trkpt>
      <trkpt lat="46.55364" lon="-1.8217">
        <ele>-154.19999694824</ele>
        <time>2021-02-23T08:42:10.000Z</time>
      </trkpt>
      <trkpt lat="46.55363" lon="-1.82173">
        <ele>-154.19999694824</ele>
        <time>2021-02-23T08:42:11.000Z</time>
      </trkpt>
      <trkpt lat="46.55362" lon="-1.82176">
        <ele>-154</ele>
        <time>2021-02-23T08:42:12.000Z</time>
      </trkpt>
      <trkpt lat="46.55361" lon="-1.82179">
        <ele>-154</ele>
        <time>2021-02-23T08:42:13.000Z</time>
      </trkpt>
      <trkpt lat="46.55361" lon="-1.82182">
        <ele>-154</ele>
        <time>2021-02-23T08:42:14.000Z</time>
      </trkpt>
      <trkpt lat="46.55361" lon="-1.82186">
        <ele>-154</ele>
        <time>2021-02-23T08:42:15.000Z</time>
      </trkpt>
      <trkpt lat="46.55361" lon="-1.82188">
        <ele>-154</ele>
        <time>2021-02-23T08:42:16.000Z</time>
      </trkpt>
      <trkpt lat="46.55361" lon="-1.82191">
        <ele>-154</ele>
        <time>2021-02-23T08:42:17.000Z</time>
      </trkpt>
      <trkpt lat="46.55362" lon="-1.82194">
        <ele>-153.80000305176</ele>
        <time>2021-02-23T08:42:18.000Z</time>
      </trkpt>
      <trkpt lat="46.55363" lon="-1.82196">
        <ele>-153.80000305176</ele>
        <time>2021-02-23T08:42:19.000Z</time>
      </trkpt>
      <trkpt lat="46.55365" lon="-1.82197">
        <ele>-153.80000305176</ele>
        <time>2021-02-23T08:42:20.000Z</time>
      </trkpt>
      <trkpt lat="46.55368" lon="-1.82201">
        <ele>-153.80000305176</ele>
        <time>2021-02-23T08:42:22.000Z</time>
      </trkpt>
      <trkpt lat="46.55371" lon="-1.82203">
        <ele>-153.80000305176</ele>
        <time>2021-02-23T08:42:23.000Z</time>
      </trkpt>
      <trkpt lat="46.55374" lon="-1.82205">
        <ele>-153.80000305176</ele>
        <time>2021-02-23T08:42:24.000Z</time>
      </trkpt>
      <trkpt lat="46.55377" lon="-1.82207">
        <ele>-154</ele>
        <time>2021-02-23T08:42:25.000Z</time>
      </trkpt>
      <trkpt lat="46.5538" lon="-1.82208">
        <ele>-154</ele>
        <time>2021-02-23T08:42:26.000Z</time>
      </trkpt>
      <trkpt lat="46.55382" lon="-1.82209">
        <ele>-154</ele>
        <time>2021-02-23T08:42:27.000Z</time>
      </trkpt>
      <trkpt lat="46.55384" lon="-1.8221">
        <ele>-154</ele>
        <time>2021-02-23T08:42:28.000Z</time>
      </trkpt>
      <trkpt lat="46.55388" lon="-1.82211">
        <ele>-153.80000305176</ele>
        <time>2021-02-23T08:42:29.000Z</time>
      </trkpt>
      <trkpt lat="46.5539" lon="-1.82209">
        <ele>-153.80000305176</ele>
        <time>2021-02-23T08:42:30.000Z</time>
      </trkpt>
      <trkpt lat="46.55393" lon="-1.82206">
        <ele>-153.60000610352</ele>
        <time>2021-02-23T08:42:31.000Z</time>
      </trkpt>
      <trkpt lat="46.55396" lon="-1.82199">
        <ele>-153.60000610352</ele>
        <time>2021-02-23T08:42:33.000Z</time>
      </trkpt>
      <trkpt lat="46.55398" lon="-1.82196">
        <ele>-153.60000610352</ele>
        <time>2021-02-23T08:42:34.000Z</time>
      </trkpt>
      <trkpt lat="46.55399" lon="-1.82191">
        <ele>-153.60000610352</ele>
        <time>2021-02-23T08:42:35.000Z</time>
      </trkpt>
      <trkpt lat="46.55404" lon="-1.82173">
        <ele>-153.39999389648</ele>
        <time>2021-02-23T08:42:38.000Z</time>
      </trkpt>
      <trkpt lat="46.55405" lon="-1.82169">
        <ele>-153.80000305176</ele>
        <time>2021-02-23T08:42:39.000Z</time>
      </trkpt>
      <trkpt lat="46.5541" lon="-1.8215">
        <ele>-154.19999694824</ele>
        <time>2021-02-23T08:42:43.000Z</time>
      </trkpt>
      <trkpt lat="46.55412" lon="-1.82143">
        <ele>-154.39999389648</ele>
        <time>2021-02-23T08:42:44.000Z</time>
      </trkpt>
      <trkpt lat="46.55413" lon="-1.82137">
        <ele>-154.39999389648</ele>
        <time>2021-02-23T08:42:45.000Z</time>
      </trkpt>
      <trkpt lat="46.55415" lon="-1.82132">
        <ele>-154.39999389648</ele>
        <time>2021-02-23T08:42:46.000Z</time>
      </trkpt>
      <trkpt lat="46.55417" lon="-1.82126">
        <ele>-154.39999389648</ele>
        <time>2021-02-23T08:42:47.000Z</time>
      </trkpt>
      <trkpt lat="46.5542" lon="-1.82115">
        <ele>-154.60000610352</ele>
        <time>2021-02-23T08:42:49.000Z</time>
      </trkpt>
      <trkpt lat="46.55422" lon="-1.8211">
        <ele>-154.60000610352</ele>
        <time>2021-02-23T08:42:50.000Z</time>
      </trkpt>
      <trkpt lat="46.55424" lon="-1.82105">
        <ele>-154.39999389648</ele>
        <time>2021-02-23T08:42:51.000Z</time>
      </trkpt>
      <trkpt lat="46.55426" lon="-1.821">
        <ele>-154.39999389648</ele>
        <time>2021-02-23T08:42:52.000Z</time>
      </trkpt>
      <trkpt lat="46.55431" lon="-1.82091">
        <ele>-154.19999694824</ele>
        <time>2021-02-23T08:42:54.000Z</time>
      </trkpt>
      <trkpt lat="46.55438" lon="-1.82078">
        <ele>-154</ele>
        <time>2021-02-23T08:42:57.000Z</time>
      </trkpt>
      <trkpt lat="46.55443" lon="-1.82074">
        <ele>-154</ele>
        <time>2021-02-23T08:42:58.000Z</time>
      </trkpt>
      <trkpt lat="46.55448" lon="-1.82071">
        <ele>-154</ele>
        <time>2021-02-23T08:42:59.000Z</time>
      </trkpt>
      <trkpt lat="46.55452" lon="-1.82067">
        <ele>-154</ele>
        <time>2021-02-23T08:43:00.000Z</time>
      </trkpt>
      <trkpt lat="46.55457" lon="-1.82062">
        <ele>-154</ele>
        <time>2021-02-23T08:43:01.000Z</time>
      </trkpt>
      <trkpt lat="46.55462" lon="-1.82057">
        <ele>-154</ele>
        <time>2021-02-23T08:43:02.000Z</time>
      </trkpt>
      <trkpt lat="46.55467" lon="-1.82051">
        <ele>-154</ele>
        <time>2021-02-23T08:43:03.000Z</time>
      </trkpt>
      <trkpt lat="46.55472" lon="-1.82037">
        <ele>-154</ele>
        <time>2021-02-23T08:43:05.000Z</time>
      </trkpt>
      <trkpt lat="46.55474" lon="-1.8203">
        <ele>-154</ele>
        <time>2021-02-23T08:43:06.000Z</time>
      </trkpt>
      <trkpt lat="46.55477" lon="-1.82024">
        <ele>-154</ele>
        <time>2021-02-23T08:43:07.000Z</time>
      </trkpt>
      <trkpt lat="46.5548" lon="-1.82021">
        <ele>-154</ele>
        <time>2021-02-23T08:43:08.000Z</time>
      </trkpt>
      <trkpt lat="46.55481" lon="-1.82017">
        <ele>-154</ele>
        <time>2021-02-23T08:43:09.000Z</time>
      </trkpt>
      <trkpt lat="46.55482" lon="-1.82013">
        <ele>-154.19999694824</ele>
        <time>2021-02-23T08:43:10.000Z</time>
      </trkpt>
      <trkpt lat="46.55484" lon="-1.82009">
        <ele>-154.19999694824</ele>
        <time>2021-02-23T08:43:11.000Z</time>
      </trkpt>
      <trkpt lat="46.55489" lon="-1.82006">
        <ele>-154.19999694824</ele>
        <time>2021-02-23T08:43:12.000Z</time>
      </trkpt>
      <trkpt lat="46.55494" lon="-1.82004">
        <ele>-154.19999694824</ele>
        <time>2021-02-23T08:43:13.000Z</time>
      </trkpt>
      <trkpt lat="46.55497" lon="-1.82002">
        <ele>-154.39999389648</ele>
        <time>2021-02-23T08:43:14.000Z</time>
      </trkpt>
      <trkpt lat="46.555" lon="-1.82002">
        <ele>-154.39999389648</ele>
        <time>2021-02-23T08:43:15.000Z</time>
      </trkpt>
      <trkpt lat="46.55503" lon="-1.82003">
        <ele>-154.39999389648</ele>
        <time>2021-02-23T08:43:16.000Z</time>
      </trkpt>
      <trkpt lat="46.55508" lon="-1.82004">
        <ele>-154.39999389648</ele>
        <time>2021-02-23T08:43:17.000Z</time>
      </trkpt>
      <trkpt lat="46.55514" lon="-1.82003">
        <ele>-154.39999389648</ele>
        <time>2021-02-23T08:43:18.000Z</time>
      </trkpt>
      <trkpt lat="46.55519" lon="-1.82004">
        <ele>-154.39999389648</ele>
        <time>2021-02-23T08:43:19.000Z</time>
      </trkpt>
      <trkpt lat="46.55524" lon="-1.82006">
        <ele>-154.19999694824</ele>
        <time>2021-02-23T08:43:20.000Z</time>
      </trkpt>
      <trkpt lat="46.5553" lon="-1.82009">
        <ele>-154.19999694824</ele>
        <time>2021-02-23T08:43:22.000Z</time>
      </trkpt>
      <trkpt lat="46.55534" lon="-1.82012">
        <ele>-154.19999694824</ele>
        <time>2021-02-23T08:43:23.000Z</time>
      </trkpt>
      <trkpt lat="46.55537" lon="-1.82015">
        <ele>-154</ele>
        <time>2021-02-23T08:43:24.000Z</time>
      </trkpt>
      <trkpt lat="46.55542" lon="-1.82018">
        <ele>-154</ele>
        <time>2021-02-23T08:43:25.000Z</time>
      </trkpt>
      <trkpt lat="46.55546" lon="-1.82019">
        <ele>-154</ele>
        <time>2021-02-23T08:43:26.000Z</time>
      </trkpt>
      <trkpt lat="46.55555" lon="-1.82021">
        <ele>-154</ele>
        <time>2021-02-23T08:43:28.000Z</time>
      </trkpt>
      <trkpt lat="46.55561" lon="-1.8202">
        <ele>-154</ele>
        <time>2021-02-23T08:43:29.000Z</time>
      </trkpt>
      <trkpt lat="46.55565" lon="-1.8202">
        <ele>-154</ele>
        <time>2021-02-23T08:43:30.000Z</time>
      </trkpt>
      <trkpt lat="46.55572" lon="-1.8202">
        <ele>-154.19999694824</ele>
        <time>2021-02-23T08:43:32.000Z</time>
      </trkpt>
      <trkpt lat="46.55574" lon="-1.82019">
        <ele>-154.39999389648</ele>
        <time>2021-02-23T08:43:33.000Z</time>
      </trkpt>
      <trkpt lat="46.55577" lon="-1.82017">
        <ele>-154.39999389648</ele>
        <time>2021-02-23T08:43:34.000Z</time>
      </trkpt>
      <trkpt lat="46.55581" lon="-1.82014">
        <ele>-154.39999389648</ele>
        <time>2021-02-23T08:43:35.000Z</time>
      </trkpt>
      <trkpt lat="46.55585" lon="-1.82011">
        <ele>-154.60000610352</ele>
        <time>2021-02-23T08:43:36.000Z</time>
      </trkpt>
      <trkpt lat="46.55596" lon="-1.82003">
        <ele>-154.80000305176</ele>
        <time>2021-02-23T08:43:38.000Z</time>
      </trkpt>
      <trkpt lat="46.55604" lon="-1.81998">
        <ele>-154.80000305176</ele>
        <time>2021-02-23T08:43:40.000Z</time>
      </trkpt>
      <trkpt lat="46.55607" lon="-1.81996">
        <ele>-154.80000305176</ele>
        <time>2021-02-23T08:43:41.000Z</time>
      </trkpt>
      <trkpt lat="46.5561" lon="-1.81993">
        <ele>-154.80000305176</ele>
        <time>2021-02-23T08:43:42.000Z</time>
      </trkpt>
      <trkpt lat="46.55613" lon="-1.8199">
        <ele>-154.60000610352</ele>
        <time>2021-02-23T08:43:43.000Z</time>
      </trkpt>
      <trkpt lat="46.5562" lon="-1.81986">
        <ele>-154.60000610352</ele>
        <time>2021-02-23T08:43:44.000Z</time>
      </trkpt>
      <trkpt lat="46.55624" lon="-1.8198">
        <ele>-154.60000610352</ele>
        <time>2021-02-23T08:43:45.000Z</time>
      </trkpt>
      <trkpt lat="46.55627" lon="-1.81977">
        <ele>-154.60000610352</ele>
        <time>2021-02-23T08:43:46.000Z</time>
      </trkpt>
      <trkpt lat="46.55631" lon="-1.81973">
        <ele>-154.39999389648</ele>
        <time>2021-02-23T08:43:47.000Z</time>
      </trkpt>
      <trkpt lat="46.55633" lon="-1.81968">
        <ele>-154.39999389648</ele>
        <time>2021-02-23T08:43:48.000Z</time>
      </trkpt>
      <trkpt lat="46.55635" lon="-1.81965">
        <ele>-154.19999694824</ele>
        <time>2021-02-23T08:43:49.000Z</time>
      </trkpt>
      <trkpt lat="46.55637" lon="-1.8196">
        <ele>-154.19999694824</ele>
        <time>2021-02-23T08:43:50.000Z</time>
      </trkpt>
      <trkpt lat="46.55641" lon="-1.81952">
        <ele>-154.19999694824</ele>
        <time>2021-02-23T08:43:52.000Z</time>
      </trkpt>
      <trkpt lat="46.55646" lon="-1.81948">
        <ele>-154.19999694824</ele>
        <time>2021-02-23T08:43:53.000Z</time>
      </trkpt>
      <trkpt lat="46.55648" lon="-1.81945">
        <ele>-154.19999694824</ele>
        <time>2021-02-23T08:43:54.000Z</time>
      </trkpt>
      <trkpt lat="46.55651" lon="-1.81942">
        <ele>-154.39999389648</ele>
        <time>2021-02-23T08:43:55.000Z</time>
      </trkpt>
      <trkpt lat="46.55657" lon="-1.81936">
        <ele>-154.39999389648</ele>
        <time>2021-02-23T08:43:57.000Z</time>
      </trkpt>
      <trkpt lat="46.55662" lon="-1.81927">
        <ele>-154.39999389648</ele>
        <time>2021-02-23T08:43:59.000Z</time>
      </trkpt>
      <trkpt lat="46.55664" lon="-1.81922">
        <ele>-154.39999389648</ele>
        <time>2021-02-23T08:44:00.000Z</time>
      </trkpt>
      <trkpt lat="46.55665" lon="-1.81918">
        <ele>-154.39999389648</ele>
        <time>2021-02-23T08:44:01.000Z</time>
      </trkpt>
      <trkpt lat="46.55666" lon="-1.81913">
        <ele>-154.39999389648</ele>
        <time>2021-02-23T08:44:02.000Z</time>
      </trkpt>
      <trkpt lat="46.55667" lon="-1.81908">
        <ele>-154.19999694824</ele>
        <time>2021-02-23T08:44:03.000Z</time>
      </trkpt>
      <trkpt lat="46.55669" lon="-1.81903">
        <ele>-154</ele>
        <time>2021-02-23T08:44:04.000Z</time>
      </trkpt>
      <trkpt lat="46.55669" lon="-1.81899">
        <ele>-153.80000305176</ele>
        <time>2021-02-23T08:44:05.000Z</time>
      </trkpt>
      <trkpt lat="46.55671" lon="-1.81894">
        <ele>-153.60000610352</ele>
        <time>2021-02-23T08:44:06.000Z</time>
      </trkpt>
      <trkpt lat="46.55673" lon="-1.8189">
        <ele>-153.19999694824</ele>
        <time>2021-02-23T08:44:07.000Z</time>
      </trkpt>
      <trkpt lat="46.55675" lon="-1.81885">
        <ele>-153.19999694824</ele>
        <time>2021-02-23T08:44:08.000Z</time>
      </trkpt>
      <trkpt lat="46.55678" lon="-1.81879">
        <ele>-152.80000305176</ele>
        <time>2021-02-23T08:44:09.000Z</time>
      </trkpt>
      <trkpt lat="46.55682" lon="-1.81872">
        <ele>-152.39999389648</ele>
        <time>2021-02-23T08:44:11.000Z</time>
      </trkpt>
      <trkpt lat="46.55684" lon="-1.81867">
        <ele>-152.19999694824</ele>
        <time>2021-02-23T08:44:12.000Z</time>
      </trkpt>
      <trkpt lat="46.55684" lon="-1.81862">
        <ele>-152</ele>
        <time>2021-02-23T08:44:13.000Z</time>
      </trkpt>
      <trkpt lat="46.55686" lon="-1.81855">
        <ele>-151.60000610352</ele>
        <time>2021-02-23T08:44:14.000Z</time>
      </trkpt>
      <trkpt lat="46.55687" lon="-1.8185">
        <ele>-151.60000610352</ele>
        <time>2021-02-23T08:44:15.000Z</time>
      </trkpt>
      <trkpt lat="46.55689" lon="-1.81845">
        <ele>-151.39999389648</ele>
        <time>2021-02-23T08:44:16.000Z</time>
      </trkpt>
      <trkpt lat="46.55692" lon="-1.8184">
        <ele>-151.39999389648</ele>
        <time>2021-02-23T08:44:17.000Z</time>
      </trkpt>
      <trkpt lat="46.55694" lon="-1.81836">
        <ele>-151.19999694824</ele>
        <time>2021-02-23T08:44:18.000Z</time>
      </trkpt>
      <trkpt lat="46.55697" lon="-1.8183">
        <ele>-150.80000305176</ele>
        <time>2021-02-23T08:44:19.000Z</time>
      </trkpt>
      <trkpt lat="46.557" lon="-1.81825">
        <ele>-150.60000610352</ele>
        <time>2021-02-23T08:44:20.000Z</time>
      </trkpt>
      <trkpt lat="46.55703" lon="-1.8182">
        <ele>-150</ele>
        <time>2021-02-23T08:44:21.000Z</time>
      </trkpt>
      <trkpt lat="46.55707" lon="-1.81816">
        <ele>-149.80000305176</ele>
        <time>2021-02-23T08:44:22.000Z</time>
      </trkpt>
      <trkpt lat="46.55709" lon="-1.8181">
        <ele>-149.39999389648</ele>
        <time>2021-02-23T08:44:23.000Z</time>
      </trkpt>
      <trkpt lat="46.55711" lon="-1.81805">
        <ele>-149.19999694824</ele>
        <time>2021-02-23T08:44:24.000Z</time>
      </trkpt>
      <trkpt lat="46.55713" lon="-1.81801">
        <ele>-149</ele>
        <time>2021-02-23T08:44:25.000Z</time>
      </trkpt>
      <trkpt lat="46.55715" lon="-1.81797">
        <ele>-148.80000305176</ele>
        <time>2021-02-23T08:44:26.000Z</time>
      </trkpt>
      <trkpt lat="46.55717" lon="-1.81793">
        <ele>-148.60000610352</ele>
        <time>2021-02-23T08:44:27.000Z</time>
      </trkpt>
      <trkpt lat="46.5572" lon="-1.81787">
        <ele>-148.60000610352</ele>
        <time>2021-02-23T08:44:28.000Z</time>
      </trkpt>
      <trkpt lat="46.55724" lon="-1.81782">
        <ele>-148.39999389648</ele>
        <time>2021-02-23T08:44:29.000Z</time>
      </trkpt>
      <trkpt lat="46.55726" lon="-1.81779">
        <ele>-148</ele>
        <time>2021-02-23T08:44:30.000Z</time>
      </trkpt>
      <trkpt lat="46.55728" lon="-1.81777">
        <ele>-147.39999389648</ele>
        <time>2021-02-23T08:44:31.000Z</time>
      </trkpt>
      <trkpt lat="46.55729" lon="-1.81775">
        <ele>-147.39999389648</ele>
        <time>2021-02-23T08:44:32.000Z</time>
      </trkpt>
      <trkpt lat="46.55729" lon="-1.81774">
        <ele>-147</ele>
        <time>2021-02-23T08:44:33.000Z</time>
      </trkpt>
      <trkpt lat="46.55731" lon="-1.81771">
        <ele>-147</ele>
        <time>2021-02-23T08:44:34.000Z</time>
      </trkpt>
      <trkpt lat="46.55733" lon="-1.81769">
        <ele>-146.60000610352</ele>
        <time>2021-02-23T08:44:35.000Z</time>
      </trkpt>
      <trkpt lat="46.55736" lon="-1.81765">
        <ele>-146.60000610352</ele>
        <time>2021-02-23T08:44:36.000Z</time>
      </trkpt>
      <trkpt lat="46.5574" lon="-1.81762">
        <ele>-146.19999694824</ele>
        <time>2021-02-23T08:44:37.000Z</time>
      </trkpt>
      <trkpt lat="46.55743" lon="-1.8176">
        <ele>-146</ele>
        <time>2021-02-23T08:44:38.000Z</time>
      </trkpt>
      <trkpt lat="46.55745" lon="-1.81758">
        <ele>-146</ele>
        <time>2021-02-23T08:44:39.000Z</time>
      </trkpt>
      <trkpt lat="46.55748" lon="-1.81758">
        <ele>-145.80000305176</ele>
        <time>2021-02-23T08:44:40.000Z</time>
      </trkpt>
      <trkpt lat="46.55751" lon="-1.81758">
        <ele>-145.80000305176</ele>
        <time>2021-02-23T08:44:41.000Z</time>
      </trkpt>
      <trkpt lat="46.55755" lon="-1.81758">
        <ele>-145.80000305176</ele>
        <time>2021-02-23T08:44:42.000Z</time>
      </trkpt>
      <trkpt lat="46.55758" lon="-1.81759">
        <ele>-145.80000305176</ele>
        <time>2021-02-23T08:44:43.000Z</time>
      </trkpt>
      <trkpt lat="46.55761" lon="-1.81761">
        <ele>-145.80000305176</ele>
        <time>2021-02-23T08:44:44.000Z</time>
      </trkpt>
      <trkpt lat="46.55763" lon="-1.81761">
        <ele>-146</ele>
        <time>2021-02-23T08:44:45.000Z</time>
      </trkpt>
      <trkpt lat="46.55763" lon="-1.81761">
        <ele>-146</ele>
        <time>2021-02-23T08:44:46.000Z</time>
      </trkpt>
      <trkpt lat="46.55765" lon="-1.81763">
        <ele>-146.19999694824</ele>
        <time>2021-02-23T08:44:47.000Z</time>
      </trkpt>
      <trkpt lat="46.55768" lon="-1.81765">
        <ele>-146.39999389648</ele>
        <time>2021-02-23T08:44:48.000Z</time>
      </trkpt>
      <trkpt lat="46.55772" lon="-1.81767">
        <ele>-146.60000610352</ele>
        <time>2021-02-23T08:44:49.000Z</time>
      </trkpt>
      <trkpt lat="46.55776" lon="-1.81768">
        <ele>-146.80000305176</ele>
        <time>2021-02-23T08:44:50.000Z</time>
      </trkpt>
      <trkpt lat="46.5578" lon="-1.8177">
        <ele>-147</ele>
        <time>2021-02-23T08:44:51.000Z</time>
      </trkpt>
      <trkpt lat="46.55784" lon="-1.81773">
        <ele>-147.19999694824</ele>
        <time>2021-02-23T08:44:52.000Z</time>
      </trkpt>
      <trkpt lat="46.55788" lon="-1.81778">
        <ele>-147.39999389648</ele>
        <time>2021-02-23T08:44:53.000Z</time>
      </trkpt>
      <trkpt lat="46.55793" lon="-1.81781">
        <ele>-147.60000610352</ele>
        <time>2021-02-23T08:44:54.000Z</time>
      </trkpt>
      <trkpt lat="46.55801" lon="-1.81781">
        <ele>-147.60000610352</ele>
        <time>2021-02-23T08:44:55.000Z</time>
      </trkpt>
      <trkpt lat="46.55807" lon="-1.81779">
        <ele>-147.80000305176</ele>
        <time>2021-02-23T08:44:56.000Z</time>
      </trkpt>
      <trkpt lat="46.55814" lon="-1.81774">
        <ele>-148</ele>
        <time>2021-02-23T08:44:57.000Z</time>
      </trkpt>
      <trkpt lat="46.55838" lon="-1.81752">
        <ele>-148.60000610352</ele>
        <time>2021-02-23T08:45:00.000Z</time>
      </trkpt>
      <trkpt lat="46.55846" lon="-1.81744">
        <ele>-149.19999694824</ele>
        <time>2021-02-23T08:45:01.000Z</time>
      </trkpt>
      <trkpt lat="46.55855" lon="-1.81736">
        <ele>-150</ele>
        <time>2021-02-23T08:45:02.000Z</time>
      </trkpt>
      <trkpt lat="46.55863" lon="-1.81728">
        <ele>-150.39999389648</ele>
        <time>2021-02-23T08:45:03.000Z</time>
      </trkpt>
      <trkpt lat="46.55869" lon="-1.8172">
        <ele>-151.39999389648</ele>
        <time>2021-02-23T08:45:04.000Z</time>
      </trkpt>
      <trkpt lat="46.55871" lon="-1.81715">
        <ele>-151.80000305176</ele>
        <time>2021-02-23T08:45:05.000Z</time>
      </trkpt>
      <trkpt lat="46.55868" lon="-1.81711">
        <ele>-152.80000305176</ele>
        <time>2021-02-23T08:45:06.000Z</time>
      </trkpt>
      <trkpt lat="46.55865" lon="-1.8171">
        <ele>-153</ele>
        <time>2021-02-23T08:45:07.000Z</time>
      </trkpt>
      <trkpt lat="46.55863" lon="-1.81708">
        <ele>-153.39999389648</ele>
        <time>2021-02-23T08:45:08.000Z</time>
      </trkpt>
      <trkpt lat="46.55859" lon="-1.81706">
        <ele>-153.80000305176</ele>
        <time>2021-02-23T08:45:09.000Z</time>
      </trkpt>
      <trkpt lat="46.55857" lon="-1.81704">
        <ele>-154</ele>
        <time>2021-02-23T08:45:10.000Z</time>
      </trkpt>
      <trkpt lat="46.55846" lon="-1.81693">
        <ele>-154.39999389648</ele>
        <time>2021-02-23T08:45:13.000Z</time>
      </trkpt>
      <trkpt lat="46.55838" lon="-1.81684">
        <ele>-154.60000610352</ele>
        <time>2021-02-23T08:45:15.000Z</time>
      </trkpt>
      <trkpt lat="46.55835" lon="-1.81678">
        <ele>-154.60000610352</ele>
        <time>2021-02-23T08:45:16.000Z</time>
      </trkpt>
      <trkpt lat="46.55831" lon="-1.81673">
        <ele>-154.60000610352</ele>
        <time>2021-02-23T08:45:17.000Z</time>
      </trkpt>
      <trkpt lat="46.55828" lon="-1.81667">
        <ele>-154.60000610352</ele>
        <time>2021-02-23T08:45:18.000Z</time>
      </trkpt>
      <trkpt lat="46.55826" lon="-1.81662">
        <ele>-154.60000610352</ele>
        <time>2021-02-23T08:45:19.000Z</time>
      </trkpt>
      <trkpt lat="46.55824" lon="-1.81656">
        <ele>-154.60000610352</ele>
        <time>2021-02-23T08:45:20.000Z</time>
      </trkpt>
      <trkpt lat="46.55818" lon="-1.81647">
        <ele>-154.60000610352</ele>
        <time>2021-02-23T08:45:22.000Z</time>
      </trkpt>
      <trkpt lat="46.55815" lon="-1.81643">
        <ele>-154.39999389648</ele>
        <time>2021-02-23T08:45:23.000Z</time>
      </trkpt>
      <trkpt lat="46.55812" lon="-1.81639">
        <ele>-154.19999694824</ele>
        <time>2021-02-23T08:45:24.000Z</time>
      </trkpt>
      <trkpt lat="46.55809" lon="-1.81636">
        <ele>-154</ele>
        <time>2021-02-23T08:45:25.000Z</time>
      </trkpt>
      <trkpt lat="46.55808" lon="-1.81634">
        <ele>-153.80000305176</ele>
        <time>2021-02-23T08:45:26.000Z</time>
      </trkpt>
      <trkpt lat="46.55804" lon="-1.81635">
        <ele>-153.60000610352</ele>
        <time>2021-02-23T08:45:27.000Z</time>
      </trkpt>
      <trkpt lat="46.558" lon="-1.81632">
        <ele>-153.39999389648</ele>
        <time>2021-02-23T08:45:28.000Z</time>
      </trkpt>
      <trkpt lat="46.55797" lon="-1.81629">
        <ele>-153.19999694824</ele>
        <time>2021-02-23T08:45:29.000Z</time>
      </trkpt>
      <trkpt lat="46.55794" lon="-1.81626">
        <ele>-153</ele>
        <time>2021-02-23T08:45:30.000Z</time>
      </trkpt>
      <trkpt lat="46.55789" lon="-1.81621">
        <ele>-152.80000305176</ele>
        <time>2021-02-23T08:45:31.000Z</time>
      </trkpt>
      <trkpt lat="46.55786" lon="-1.81618">
        <ele>-152.19999694824</ele>
        <time>2021-02-23T08:45:32.000Z</time>
      </trkpt>
      <trkpt lat="46.55778" lon="-1.81614">
        <ele>-152</ele>
        <time>2021-02-23T08:45:34.000Z</time>
      </trkpt>
      <trkpt lat="46.55774" lon="-1.81613">
        <ele>-152</ele>
        <time>2021-02-23T08:45:35.000Z</time>
      </trkpt>
      <trkpt lat="46.5577" lon="-1.81611">
        <ele>-151.80000305176</ele>
        <time>2021-02-23T08:45:36.000Z</time>
      </trkpt>
      <trkpt lat="46.55759" lon="-1.81603">
        <ele>-151.80000305176</ele>
        <time>2021-02-23T08:45:39.000Z</time>
      </trkpt>
      <trkpt lat="46.55755" lon="-1.81599">
        <ele>-152.19999694824</ele>
        <time>2021-02-23T08:45:40.000Z</time>
      </trkpt>
      <trkpt lat="46.55752" lon="-1.81597">
        <ele>-152.19999694824</ele>
        <time>2021-02-23T08:45:41.000Z</time>
      </trkpt>
      <trkpt lat="46.5575" lon="-1.81593">
        <ele>-152.39999389648</ele>
        <time>2021-02-23T08:45:42.000Z</time>
      </trkpt>
      <trkpt lat="46.55749" lon="-1.8159">
        <ele>-152.39999389648</ele>
        <time>2021-02-23T08:45:43.000Z</time>
      </trkpt>
      <trkpt lat="46.55748" lon="-1.81589">
        <ele>-152.19999694824</ele>
        <time>2021-02-23T08:45:44.000Z</time>
      </trkpt>
      <trkpt lat="46.55745" lon="-1.81586">
        <ele>-152.19999694824</ele>
        <time>2021-02-23T08:45:45.000Z</time>
      </trkpt>
      <trkpt lat="46.55742" lon="-1.81583">
        <ele>-152.19999694824</ele>
        <time>2021-02-23T08:45:46.000Z</time>
      </trkpt>
      <trkpt lat="46.55739" lon="-1.81579">
        <ele>-152</ele>
        <time>2021-02-23T08:45:47.000Z</time>
      </trkpt>
      <trkpt lat="46.55735" lon="-1.81576">
        <ele>-152.19999694824</ele>
        <time>2021-02-23T08:45:48.000Z</time>
      </trkpt>
      <trkpt lat="46.55729" lon="-1.81569">
        <ele>-152</ele>
        <time>2021-02-23T08:45:50.000Z</time>
      </trkpt>
      <trkpt lat="46.55725" lon="-1.81566">
        <ele>-152.39999389648</ele>
        <time>2021-02-23T08:45:51.000Z</time>
      </trkpt>
      <trkpt lat="46.55722" lon="-1.81563">
        <ele>-152.39999389648</ele>
        <time>2021-02-23T08:45:52.000Z</time>
      </trkpt>
      <trkpt lat="46.55718" lon="-1.81561">
        <ele>-152.39999389648</ele>
        <time>2021-02-23T08:45:53.000Z</time>
      </trkpt>
      <trkpt lat="46.55714" lon="-1.8156">
        <ele>-152.60000610352</ele>
        <time>2021-02-23T08:45:54.000Z</time>
      </trkpt>
      <trkpt lat="46.55711" lon="-1.81556">
        <ele>-152.60000610352</ele>
        <time>2021-02-23T08:45:55.000Z</time>
      </trkpt>
      <trkpt lat="46.55709" lon="-1.81551">
        <ele>-152.80000305176</ele>
        <time>2021-02-23T08:45:56.000Z</time>
      </trkpt>
      <trkpt lat="46.55706" lon="-1.81544">
        <ele>-153</ele>
        <time>2021-02-23T08:45:57.000Z</time>
      </trkpt>
      <trkpt lat="46.55703" lon="-1.81538">
        <ele>-153</ele>
        <time>2021-02-23T08:45:58.000Z</time>
      </trkpt>
      <trkpt lat="46.55702" lon="-1.81531">
        <ele>-153.19999694824</ele>
        <time>2021-02-23T08:45:59.000Z</time>
      </trkpt>
      <trkpt lat="46.557" lon="-1.81525">
        <ele>-153.19999694824</ele>
        <time>2021-02-23T08:46:00.000Z</time>
      </trkpt>
      <trkpt lat="46.55699" lon="-1.8152">
        <ele>-153.39999389648</ele>
        <time>2021-02-23T08:46:01.000Z</time>
      </trkpt>
      <trkpt lat="46.55695" lon="-1.81508">
        <ele>-153.39999389648</ele>
        <time>2021-02-23T08:46:03.000Z</time>
      </trkpt>
      <trkpt lat="46.55692" lon="-1.81497">
        <ele>-153.60000610352</ele>
        <time>2021-02-23T08:46:05.000Z</time>
      </trkpt>
      <trkpt lat="46.55692" lon="-1.81485">
        <ele>-153.80000305176</ele>
        <time>2021-02-23T08:46:07.000Z</time>
      </trkpt>
      <trkpt lat="46.55692" lon="-1.81478">
        <ele>-153.80000305176</ele>
        <time>2021-02-23T08:46:08.000Z</time>
      </trkpt>
      <trkpt lat="46.55691" lon="-1.81472">
        <ele>-153.80000305176</ele>
        <time>2021-02-23T08:46:09.000Z</time>
      </trkpt>
      <trkpt lat="46.55691" lon="-1.81465">
        <ele>-153.80000305176</ele>
        <time>2021-02-23T08:46:10.000Z</time>
      </trkpt>
      <trkpt lat="46.55691" lon="-1.81454">
        <ele>-153.80000305176</ele>
        <time>2021-02-23T08:46:12.000Z</time>
      </trkpt>
      <trkpt lat="46.55691" lon="-1.81448">
        <ele>-153.80000305176</ele>
        <time>2021-02-23T08:46:13.000Z</time>
      </trkpt>
      <trkpt lat="46.5569" lon="-1.81442">
        <ele>-153.60000610352</ele>
        <time>2021-02-23T08:46:14.000Z</time>
      </trkpt>
      <trkpt lat="46.55689" lon="-1.81437">
        <ele>-153.60000610352</ele>
        <time>2021-02-23T08:46:15.000Z</time>
      </trkpt>
      <trkpt lat="46.55689" lon="-1.81431">
        <ele>-153.60000610352</ele>
        <time>2021-02-23T08:46:16.000Z</time>
      </trkpt>
      <trkpt lat="46.55689" lon="-1.81426">
        <ele>-153.39999389648</ele>
        <time>2021-02-23T08:46:17.000Z</time>
      </trkpt>
      <trkpt lat="46.55689" lon="-1.81421">
        <ele>-153.39999389648</ele>
        <time>2021-02-23T08:46:18.000Z</time>
      </trkpt>
      <trkpt lat="46.55689" lon="-1.81418">
        <ele>-153.19999694824</ele>
        <time>2021-02-23T08:46:19.000Z</time>
      </trkpt>
      <trkpt lat="46.55688" lon="-1.81415">
        <ele>-153.19999694824</ele>
        <time>2021-02-23T08:46:20.000Z</time>
      </trkpt>
      <trkpt lat="46.55688" lon="-1.8141">
        <ele>-153</ele>
        <time>2021-02-23T08:46:21.000Z</time>
      </trkpt>
      <trkpt lat="46.55684" lon="-1.81401">
        <ele>-152.39999389648</ele>
        <time>2021-02-23T08:46:24.000Z</time>
      </trkpt>
      <trkpt lat="46.55683" lon="-1.814">
        <ele>-152.19999694824</ele>
        <time>2021-02-23T08:46:25.000Z</time>
      </trkpt>
      <trkpt lat="46.55681" lon="-1.81398">
        <ele>-151.60000610352</ele>
        <time>2021-02-23T08:46:26.000Z</time>
      </trkpt>
      <trkpt lat="46.55679" lon="-1.81398">
        <ele>-151.39999389648</ele>
        <time>2021-02-23T08:46:27.000Z</time>
      </trkpt>
      <trkpt lat="46.55676" lon="-1.81399">
        <ele>-151.39999389648</ele>
        <time>2021-02-23T08:46:28.000Z</time>
      </trkpt>
      <trkpt lat="46.55673" lon="-1.81399">
        <ele>-151.19999694824</ele>
        <time>2021-02-23T08:46:29.000Z</time>
      </trkpt>
      <trkpt lat="46.5567" lon="-1.814">
        <ele>-151.19999694824</ele>
        <time>2021-02-23T08:46:30.000Z</time>
      </trkpt>
      <trkpt lat="46.55666" lon="-1.81402">
        <ele>-151.19999694824</ele>
        <time>2021-02-23T08:46:31.000Z</time>
      </trkpt>
      <trkpt lat="46.55662" lon="-1.81402">
        <ele>-151.19999694824</ele>
        <time>2021-02-23T08:46:32.000Z</time>
      </trkpt>
      <trkpt lat="46.55654" lon="-1.81399">
        <ele>-151.19999694824</ele>
        <time>2021-02-23T08:46:34.000Z</time>
      </trkpt>
      <trkpt lat="46.55651" lon="-1.81397">
        <ele>-151.19999694824</ele>
        <time>2021-02-23T08:46:35.000Z</time>
      </trkpt>
      <trkpt lat="46.55649" lon="-1.81393">
        <ele>-151.39999389648</ele>
        <time>2021-02-23T08:46:36.000Z</time>
      </trkpt>
      <trkpt lat="46.55647" lon="-1.8139">
        <ele>-151.39999389648</ele>
        <time>2021-02-23T08:46:37.000Z</time>
      </trkpt>
      <trkpt lat="46.55646" lon="-1.81387">
        <ele>-151.39999389648</ele>
        <time>2021-02-23T08:46:38.000Z</time>
      </trkpt>
      <trkpt lat="46.55645" lon="-1.81385">
        <ele>-151.39999389648</ele>
        <time>2021-02-23T08:46:39.000Z</time>
      </trkpt>
      <trkpt lat="46.55643" lon="-1.81383">
        <ele>-151.39999389648</ele>
        <time>2021-02-23T08:46:40.000Z</time>
      </trkpt>
      <trkpt lat="46.55634" lon="-1.81369">
        <ele>-151</ele>
        <time>2021-02-23T08:46:44.000Z</time>
      </trkpt>
      <trkpt lat="46.55633" lon="-1.81364">
        <ele>-151</ele>
        <time>2021-02-23T08:46:45.000Z</time>
      </trkpt>
      <trkpt lat="46.55633" lon="-1.81359">
        <ele>-151</ele>
        <time>2021-02-23T08:46:46.000Z</time>
      </trkpt>
      <trkpt lat="46.55633" lon="-1.81354">
        <ele>-151</ele>
        <time>2021-02-23T08:46:47.000Z</time>
      </trkpt>
      <trkpt lat="46.55632" lon="-1.81348">
        <ele>-151.19999694824</ele>
        <time>2021-02-23T08:46:48.000Z</time>
      </trkpt>
      <trkpt lat="46.55627" lon="-1.81335">
        <ele>-151.60000610352</ele>
        <time>2021-02-23T08:46:50.000Z</time>
      </trkpt>
      <trkpt lat="46.55623" lon="-1.81328">
        <ele>-151.60000610352</ele>
        <time>2021-02-23T08:46:51.000Z</time>
      </trkpt>
      <trkpt lat="46.55618" lon="-1.81322">
        <ele>-152</ele>
        <time>2021-02-23T08:46:52.000Z</time>
      </trkpt>
      <trkpt lat="46.55613" lon="-1.81316">
        <ele>-152.60000610352</ele>
        <time>2021-02-23T08:46:53.000Z</time>
      </trkpt>
      <trkpt lat="46.55609" lon="-1.8131">
        <ele>-153</ele>
        <time>2021-02-23T08:46:54.000Z</time>
      </trkpt>
      <trkpt lat="46.55605" lon="-1.81304">
        <ele>-153.39999389648</ele>
        <time>2021-02-23T08:46:55.000Z</time>
      </trkpt>
      <trkpt lat="46.55601" lon="-1.81299">
        <ele>-153.39999389648</ele>
        <time>2021-02-23T08:46:56.000Z</time>
      </trkpt>
      <trkpt lat="46.55598" lon="-1.81293">
        <ele>-153.60000610352</ele>
        <time>2021-02-23T08:46:57.000Z</time>
      </trkpt>
      <trkpt lat="46.55595" lon="-1.81288">
        <ele>-153.60000610352</ele>
        <time>2021-02-23T08:46:58.000Z</time>
      </trkpt>
      <trkpt lat="46.55592" lon="-1.81283">
        <ele>-153.80000305176</ele>
        <time>2021-02-23T08:46:59.000Z</time>
      </trkpt>
      <trkpt lat="46.55588" lon="-1.81278">
        <ele>-153.80000305176</ele>
        <time>2021-02-23T08:47:00.000Z</time>
      </trkpt>
      <trkpt lat="46.55586" lon="-1.81273">
        <ele>-153.80000305176</ele>
        <time>2021-02-23T08:47:01.000Z</time>
      </trkpt>
      <trkpt lat="46.55584" lon="-1.81268">
        <ele>-154</ele>
        <time>2021-02-23T08:47:02.000Z</time>
      </trkpt>
      <trkpt lat="46.55584" lon="-1.81262">
        <ele>-154</ele>
        <time>2021-02-23T08:47:03.000Z</time>
      </trkpt>
      <trkpt lat="46.55586" lon="-1.81257">
        <ele>-154</ele>
        <time>2021-02-23T08:47:04.000Z</time>
      </trkpt>
      <trkpt lat="46.55592" lon="-1.81247">
        <ele>-154</ele>
        <time>2021-02-23T08:47:06.000Z</time>
      </trkpt>
      <trkpt lat="46.55595" lon="-1.81242">
        <ele>-154</ele>
        <time>2021-02-23T08:47:07.000Z</time>
      </trkpt>
      <trkpt lat="46.55598" lon="-1.81237">
        <ele>-154</ele>
        <time>2021-02-23T08:47:08.000Z</time>
      </trkpt>
      <trkpt lat="46.55609" lon="-1.81215">
        <ele>-154.19999694824</ele>
        <time>2021-02-23T08:47:12.000Z</time>
      </trkpt>
      <trkpt lat="46.55614" lon="-1.81204">
        <ele>-154.19999694824</ele>
        <time>2021-02-23T08:47:14.000Z</time>
      </trkpt>
      <trkpt lat="46.55617" lon="-1.81198">
        <ele>-154.19999694824</ele>
        <time>2021-02-23T08:47:15.000Z</time>
      </trkpt>
      <trkpt lat="46.5562" lon="-1.81193">
        <ele>-153.80000305176</ele>
        <time>2021-02-23T08:47:16.000Z</time>
      </trkpt>
      <trkpt lat="46.55623" lon="-1.81188">
        <ele>-153.80000305176</ele>
        <time>2021-02-23T08:47:17.000Z</time>
      </trkpt>
      <trkpt lat="46.55625" lon="-1.81184">
        <ele>-153.80000305176</ele>
        <time>2021-02-23T08:47:18.000Z</time>
      </trkpt>
      <trkpt lat="46.55628" lon="-1.81178">
        <ele>-153.60000610352</ele>
        <time>2021-02-23T08:47:19.000Z</time>
      </trkpt>
      <trkpt lat="46.55631" lon="-1.81172">
        <ele>-153.60000610352</ele>
        <time>2021-02-23T08:47:20.000Z</time>
      </trkpt>
      <trkpt lat="46.55634" lon="-1.81167">
        <ele>-153.60000610352</ele>
        <time>2021-02-23T08:47:21.000Z</time>
      </trkpt>
      <trkpt lat="46.55636" lon="-1.81162">
        <ele>-153.60000610352</ele>
        <time>2021-02-23T08:47:22.000Z</time>
      </trkpt>
      <trkpt lat="46.55638" lon="-1.81157">
        <ele>-153.60000610352</ele>
        <time>2021-02-23T08:47:23.000Z</time>
      </trkpt>
      <trkpt lat="46.5564" lon="-1.81153">
        <ele>-153.60000610352</ele>
        <time>2021-02-23T08:47:24.000Z</time>
      </trkpt>
      <trkpt lat="46.55643" lon="-1.81149">
        <ele>-153.60000610352</ele>
        <time>2021-02-23T08:47:25.000Z</time>
      </trkpt>
      <trkpt lat="46.55645" lon="-1.81146">
        <ele>-153.80000305176</ele>
        <time>2021-02-23T08:47:26.000Z</time>
      </trkpt>
      <trkpt lat="46.55646" lon="-1.81144">
        <ele>-153.80000305176</ele>
        <time>2021-02-23T08:47:27.000Z</time>
      </trkpt>
      <trkpt lat="46.55647" lon="-1.81142">
        <ele>-153.80000305176</ele>
        <time>2021-02-23T08:47:28.000Z</time>
      </trkpt>
      <trkpt lat="46.55647" lon="-1.81141">
        <ele>-153.80000305176</ele>
        <time>2021-02-23T08:47:29.000Z</time>
      </trkpt>
      <trkpt lat="46.55647" lon="-1.81139">
        <ele>-153.80000305176</ele>
        <time>2021-02-23T08:47:32.000Z</time>
      </trkpt>
      <trkpt lat="46.55647" lon="-1.81139">
        <ele>-153.80000305176</ele>
        <time>2021-02-23T08:47:33.000Z</time>
      </trkpt>
      <trkpt lat="46.55647" lon="-1.81138">
        <ele>-153.80000305176</ele>
        <time>2021-02-23T08:47:34.000Z</time>
      </trkpt>
      <trkpt lat="46.55647" lon="-1.81138">
        <ele>-154</ele>
        <time>2021-02-23T08:48:34.000Z</time>
      </trkpt>
      <trkpt lat="46.55647" lon="-1.81137">
        <ele>-154</ele>
        <time>2021-02-23T08:48:35.000Z</time>
      </trkpt>
      <trkpt lat="46.55648" lon="-1.81136">
        <ele>-154</ele>
        <time>2021-02-23T08:48:36.000Z</time>
      </trkpt>
      <trkpt lat="46.55649" lon="-1.81135">
        <ele>-153.80000305176</ele>
        <time>2021-02-23T08:48:38.000Z</time>
      </trkpt>
      <trkpt lat="46.55649" lon="-1.81135">
        <ele>-153.80000305176</ele>
        <time>2021-02-23T08:48:39.000Z</time>
      </trkpt>
      <trkpt lat="46.55649" lon="-1.81135">
        <ele>-153.80000305176</ele>
        <time>2021-02-23T08:48:40.000Z</time>
      </trkpt>
      <trkpt lat="46.55649" lon="-1.81135">
        <ele>-153.80000305176</ele>
        <time>2021-02-23T08:48:41.000Z</time>
      </trkpt>
      <trkpt lat="46.55649" lon="-1.81135">
        <ele>-153.80000305176</ele>
        <time>2021-02-23T08:48:42.000Z</time>
      </trkpt>
      <trkpt lat="46.55649" lon="-1.81135">
        <ele>-153.80000305176</ele>
        <time>2021-02-23T08:48:43.000Z</time>
      </trkpt>
      <trkpt lat="46.5565" lon="-1.81133">
        <ele>-153.80000305176</ele>
        <time>2021-02-23T08:48:45.000Z</time>
      </trkpt>
      <trkpt lat="46.5565" lon="-1.81127">
        <ele>-153.80000305176</ele>
        <time>2021-02-23T08:48:47.000Z</time>
      </trkpt>
      <trkpt lat="46.55649" lon="-1.8112">
        <ele>-154</ele>
        <time>2021-02-23T08:48:49.000Z</time>
      </trkpt>
      <trkpt lat="46.5565" lon="-1.81109">
        <ele>-154</ele>
        <time>2021-02-23T08:48:52.000Z</time>
      </trkpt>
      <trkpt lat="46.55648" lon="-1.81102">
        <ele>-154</ele>
        <time>2021-02-23T08:48:54.000Z</time>
      </trkpt>
      <trkpt lat="46.55648" lon="-1.81098">
        <ele>-154</ele>
        <time>2021-02-23T08:48:55.000Z</time>
      </trkpt>
      <trkpt lat="46.55649" lon="-1.81093">
        <ele>-154</ele>
        <time>2021-02-23T08:48:56.000Z</time>
      </trkpt>
      <trkpt lat="46.55651" lon="-1.81089">
        <ele>-154</ele>
        <time>2021-02-23T08:48:57.000Z</time>
      </trkpt>
      <trkpt lat="46.55656" lon="-1.8108">
        <ele>-154</ele>
        <time>2021-02-23T08:48:59.000Z</time>
      </trkpt>
      <trkpt lat="46.55658" lon="-1.81075">
        <ele>-154</ele>
        <time>2021-02-23T08:49:00.000Z</time>
      </trkpt>
      <trkpt lat="46.55664" lon="-1.81065">
        <ele>-154</ele>
        <time>2021-02-23T08:49:02.000Z</time>
      </trkpt>
      <trkpt lat="46.5568" lon="-1.81038">
        <ele>-154</ele>
        <time>2021-02-23T08:49:07.000Z</time>
      </trkpt>
      <trkpt lat="46.55702" lon="-1.80999">
        <ele>-154</ele>
        <time>2021-02-23T08:49:13.000Z</time>
      </trkpt>
      <trkpt lat="46.55717" lon="-1.80974">
        <ele>-154.19999694824</ele>
        <time>2021-02-23T08:49:17.000Z</time>
      </trkpt>
      <trkpt lat="46.55728" lon="-1.80955">
        <ele>-154.19999694824</ele>
        <time>2021-02-23T08:49:20.000Z</time>
      </trkpt>
      <trkpt lat="46.55762" lon="-1.80899">
        <ele>-154.80000305176</ele>
        <time>2021-02-23T08:49:28.000Z</time>
      </trkpt>
      <trkpt lat="46.55766" lon="-1.80892">
        <ele>-155</ele>
        <time>2021-02-23T08:49:29.000Z</time>
      </trkpt>
      <trkpt lat="46.55769" lon="-1.80884">
        <ele>-155</ele>
        <time>2021-02-23T08:49:30.000Z</time>
      </trkpt>
      <trkpt lat="46.55773" lon="-1.80878">
        <ele>-155</ele>
        <time>2021-02-23T08:49:31.000Z</time>
      </trkpt>
      <trkpt lat="46.55784" lon="-1.80869">
        <ele>-155.19999694824</ele>
        <time>2021-02-23T08:49:33.000Z</time>
      </trkpt>
      <trkpt lat="46.55791" lon="-1.80868">
        <ele>-155.39999389648</ele>
        <time>2021-02-23T08:49:34.000Z</time>
      </trkpt>
      <trkpt lat="46.55798" lon="-1.80868">
        <ele>-155.60000610352</ele>
        <time>2021-02-23T08:49:35.000Z</time>
      </trkpt>
      <trkpt lat="46.55804" lon="-1.80869">
        <ele>-156</ele>
        <time>2021-02-23T08:49:36.000Z</time>
      </trkpt>
      <trkpt lat="46.55811" lon="-1.8087">
        <ele>-156.19999694824</ele>
        <time>2021-02-23T08:49:37.000Z</time>
      </trkpt>
      <trkpt lat="46.55845" lon="-1.80871">
        <ele>-156.60000610352</ele>
        <time>2021-02-23T08:49:42.000Z</time>
      </trkpt>
      <trkpt lat="46.55852" lon="-1.80871">
        <ele>-156.60000610352</ele>
        <time>2021-02-23T08:49:43.000Z</time>
      </trkpt>
      <trkpt lat="46.55859" lon="-1.80871">
        <ele>-156.60000610352</ele>
        <time>2021-02-23T08:49:44.000Z</time>
      </trkpt>
      <trkpt lat="46.55866" lon="-1.80874">
        <ele>-156.60000610352</ele>
        <time>2021-02-23T08:49:45.000Z</time>
      </trkpt>
      <trkpt lat="46.55872" lon="-1.80877">
        <ele>-156.60000610352</ele>
        <time>2021-02-23T08:49:46.000Z</time>
      </trkpt>
      <trkpt lat="46.55878" lon="-1.80881">
        <ele>-156.60000610352</ele>
        <time>2021-02-23T08:49:47.000Z</time>
      </trkpt>
      <trkpt lat="46.55884" lon="-1.80886">
        <ele>-156.60000610352</ele>
        <time>2021-02-23T08:49:48.000Z</time>
      </trkpt>
      <trkpt lat="46.55889" lon="-1.80891">
        <ele>-156.39999389648</ele>
        <time>2021-02-23T08:49:49.000Z</time>
      </trkpt>
      <trkpt lat="46.55895" lon="-1.80895">
        <ele>-156.39999389648</ele>
        <time>2021-02-23T08:49:50.000Z</time>
      </trkpt>
      <trkpt lat="46.559" lon="-1.809">
        <ele>-156.19999694824</ele>
        <time>2021-02-23T08:49:51.000Z</time>
      </trkpt>
      <trkpt lat="46.55905" lon="-1.80904">
        <ele>-156.19999694824</ele>
        <time>2021-02-23T08:49:52.000Z</time>
      </trkpt>
      <trkpt lat="46.55909" lon="-1.80908">
        <ele>-156</ele>
        <time>2021-02-23T08:49:53.000Z</time>
      </trkpt>
      <trkpt lat="46.55919" lon="-1.80916">
        <ele>-155.80000305176</ele>
        <time>2021-02-23T08:49:55.000Z</time>
      </trkpt>
      <trkpt lat="46.55925" lon="-1.8092">
        <ele>-155.80000305176</ele>
        <time>2021-02-23T08:49:56.000Z</time>
      </trkpt>
      <trkpt lat="46.55941" lon="-1.80927">
        <ele>-155.60000610352</ele>
        <time>2021-02-23T08:49:59.000Z</time>
      </trkpt>
      <trkpt lat="46.55947" lon="-1.8093">
        <ele>-155.39999389648</ele>
        <time>2021-02-23T08:50:00.000Z</time>
      </trkpt>
      <trkpt lat="46.55954" lon="-1.80932">
        <ele>-155.39999389648</ele>
        <time>2021-02-23T08:50:01.000Z</time>
      </trkpt>
      <trkpt lat="46.5596" lon="-1.80935">
        <ele>-155.39999389648</ele>
        <time>2021-02-23T08:50:02.000Z</time>
      </trkpt>
      <trkpt lat="46.55966" lon="-1.80937">
        <ele>-155.19999694824</ele>
        <time>2021-02-23T08:50:03.000Z</time>
      </trkpt>
      <trkpt lat="46.55973" lon="-1.8094">
        <ele>-155.19999694824</ele>
        <time>2021-02-23T08:50:04.000Z</time>
      </trkpt>
      <trkpt lat="46.55979" lon="-1.80943">
        <ele>-155.19999694824</ele>
        <time>2021-02-23T08:50:05.000Z</time>
      </trkpt>
      <trkpt lat="46.55992" lon="-1.8095">
        <ele>-155.19999694824</ele>
        <time>2021-02-23T08:50:07.000Z</time>
      </trkpt>
      <trkpt lat="46.55997" lon="-1.80953">
        <ele>-155.19999694824</ele>
        <time>2021-02-23T08:50:08.000Z</time>
      </trkpt>
      <trkpt lat="46.56003" lon="-1.80956">
        <ele>-155.19999694824</ele>
        <time>2021-02-23T08:50:09.000Z</time>
      </trkpt>
      <trkpt lat="46.56008" lon="-1.8096">
        <ele>-155.19999694824</ele>
        <time>2021-02-23T08:50:10.000Z</time>
      </trkpt>
      <trkpt lat="46.56013" lon="-1.80964">
        <ele>-155.19999694824</ele>
        <time>2021-02-23T08:50:11.000Z</time>
      </trkpt>
      <trkpt lat="46.56018" lon="-1.80967">
        <ele>-155.39999389648</ele>
        <time>2021-02-23T08:50:12.000Z</time>
      </trkpt>
      <trkpt lat="46.56024" lon="-1.80971">
        <ele>-155.39999389648</ele>
        <time>2021-02-23T08:50:13.000Z</time>
      </trkpt>
      <trkpt lat="46.56029" lon="-1.80974">
        <ele>-155.39999389648</ele>
        <time>2021-02-23T08:50:14.000Z</time>
      </trkpt>
      <trkpt lat="46.56034" lon="-1.80977">
        <ele>-155.39999389648</ele>
        <time>2021-02-23T08:50:15.000Z</time>
      </trkpt>
      <trkpt lat="46.56039" lon="-1.80981">
        <ele>-155.39999389648</ele>
        <time>2021-02-23T08:50:16.000Z</time>
      </trkpt>
      <trkpt lat="46.56058" lon="-1.81002">
        <ele>-155.39999389648</ele>
        <time>2021-02-23T08:50:20.000Z</time>
      </trkpt>
      <trkpt lat="46.56088" lon="-1.81036">
        <ele>-156.19999694824</ele>
        <time>2021-02-23T08:50:26.000Z</time>
      </trkpt>
      <trkpt lat="46.56093" lon="-1.81041">
        <ele>-156.19999694824</ele>
        <time>2021-02-23T08:50:27.000Z</time>
      </trkpt>
      <trkpt lat="46.56098" lon="-1.81047">
        <ele>-156.60000610352</ele>
        <time>2021-02-23T08:50:28.000Z</time>
      </trkpt>
      <trkpt lat="46.56102" lon="-1.81052">
        <ele>-156.80000305176</ele>
        <time>2021-02-23T08:50:29.000Z</time>
      </trkpt>
      <trkpt lat="46.56106" lon="-1.81057">
        <ele>-156.80000305176</ele>
        <time>2021-02-23T08:50:30.000Z</time>
      </trkpt>
      <trkpt lat="46.56111" lon="-1.81063">
        <ele>-156.80000305176</ele>
        <time>2021-02-23T08:50:31.000Z</time>
      </trkpt>
      <trkpt lat="46.56116" lon="-1.81067">
        <ele>-157</ele>
        <time>2021-02-23T08:50:32.000Z</time>
      </trkpt>
      <trkpt lat="46.56121" lon="-1.81071">
        <ele>-157</ele>
        <time>2021-02-23T08:50:33.000Z</time>
      </trkpt>
      <trkpt lat="46.56126" lon="-1.81075">
        <ele>-157.19999694824</ele>
        <time>2021-02-23T08:50:34.000Z</time>
      </trkpt>
      <trkpt lat="46.56136" lon="-1.81079">
        <ele>-157.19999694824</ele>
        <time>2021-02-23T08:50:36.000Z</time>
      </trkpt>
      <trkpt lat="46.5614" lon="-1.81079">
        <ele>-157.19999694824</ele>
        <time>2021-02-23T08:50:37.000Z</time>
      </trkpt>
      <trkpt lat="46.56144" lon="-1.81076">
        <ele>-157.19999694824</ele>
        <time>2021-02-23T08:50:38.000Z</time>
      </trkpt>
      <trkpt lat="46.56148" lon="-1.81072">
        <ele>-157.19999694824</ele>
        <time>2021-02-23T08:50:39.000Z</time>
      </trkpt>
      <trkpt lat="46.56151" lon="-1.81066">
        <ele>-157.19999694824</ele>
        <time>2021-02-23T08:50:40.000Z</time>
      </trkpt>
      <trkpt lat="46.56157" lon="-1.81048">
        <ele>-157.19999694824</ele>
        <time>2021-02-23T08:50:42.000Z</time>
      </trkpt>
      <trkpt lat="46.5616" lon="-1.81039">
        <ele>-157.19999694824</ele>
        <time>2021-02-23T08:50:43.000Z</time>
      </trkpt>
      <trkpt lat="46.56163" lon="-1.81031">
        <ele>-157.19999694824</ele>
        <time>2021-02-23T08:50:44.000Z</time>
      </trkpt>
      <trkpt lat="46.56166" lon="-1.81023">
        <ele>-157.19999694824</ele>
        <time>2021-02-23T08:50:45.000Z</time>
      </trkpt>
      <trkpt lat="46.56171" lon="-1.81015">
        <ele>-157.19999694824</ele>
        <time>2021-02-23T08:50:46.000Z</time>
      </trkpt>
      <trkpt lat="46.56176" lon="-1.81008">
        <ele>-157.39999389648</ele>
        <time>2021-02-23T08:50:47.000Z</time>
      </trkpt>
      <trkpt lat="46.56182" lon="-1.81004">
        <ele>-157.39999389648</ele>
        <time>2021-02-23T08:50:48.000Z</time>
      </trkpt>
      <trkpt lat="46.56187" lon="-1.81001">
        <ele>-157.39999389648</ele>
        <time>2021-02-23T08:50:49.000Z</time>
      </trkpt>
      <trkpt lat="46.56193" lon="-1.80999">
        <ele>-157.39999389648</ele>
        <time>2021-02-23T08:50:50.000Z</time>
      </trkpt>
      <trkpt lat="46.56199" lon="-1.80997">
        <ele>-157.60000610352</ele>
        <time>2021-02-23T08:50:51.000Z</time>
      </trkpt>
      <trkpt lat="46.56205" lon="-1.80996">
        <ele>-157.60000610352</ele>
        <time>2021-02-23T08:50:52.000Z</time>
      </trkpt>
      <trkpt lat="46.56211" lon="-1.80995">
        <ele>-157.80000305176</ele>
        <time>2021-02-23T08:50:53.000Z</time>
      </trkpt>
      <trkpt lat="46.56217" lon="-1.80993">
        <ele>-157.80000305176</ele>
        <time>2021-02-23T08:50:54.000Z</time>
      </trkpt>
      <trkpt lat="46.56223" lon="-1.80991">
        <ele>-157.80000305176</ele>
        <time>2021-02-23T08:50:55.000Z</time>
      </trkpt>
      <trkpt lat="46.5623" lon="-1.80991">
        <ele>-157.80000305176</ele>
        <time>2021-02-23T08:50:56.000Z</time>
      </trkpt>
      <trkpt lat="46.56236" lon="-1.80991">
        <ele>-157.60000610352</ele>
        <time>2021-02-23T08:50:57.000Z</time>
      </trkpt>
      <trkpt lat="46.56242" lon="-1.80991">
        <ele>-157.60000610352</ele>
        <time>2021-02-23T08:50:58.000Z</time>
      </trkpt>
      <trkpt lat="46.56267" lon="-1.80991">
        <ele>-157.39999389648</ele>
        <time>2021-02-23T08:51:02.000Z</time>
      </trkpt>
      <trkpt lat="46.56279" lon="-1.8099">
        <ele>-157.39999389648</ele>
        <time>2021-02-23T08:51:04.000Z</time>
      </trkpt>
      <trkpt lat="46.5629" lon="-1.8099">
        <ele>-157.19999694824</ele>
        <time>2021-02-23T08:51:06.000Z</time>
      </trkpt>
      <trkpt lat="46.5632" lon="-1.80992">
        <ele>-157.60000610352</ele>
        <time>2021-02-23T08:51:11.000Z</time>
      </trkpt>
      <trkpt lat="46.56326" lon="-1.80994">
        <ele>-157.60000610352</ele>
        <time>2021-02-23T08:51:12.000Z</time>
      </trkpt>
      <trkpt lat="46.56331" lon="-1.80995">
        <ele>-157.60000610352</ele>
        <time>2021-02-23T08:51:13.000Z</time>
      </trkpt>
      <trkpt lat="46.56337" lon="-1.80997">
        <ele>-157.60000610352</ele>
        <time>2021-02-23T08:51:14.000Z</time>
      </trkpt>
      <trkpt lat="46.56342" lon="-1.81">
        <ele>-157.60000610352</ele>
        <time>2021-02-23T08:51:15.000Z</time>
      </trkpt>
      <trkpt lat="46.56346" lon="-1.81004">
        <ele>-157.60000610352</ele>
        <time>2021-02-23T08:51:16.000Z</time>
      </trkpt>
      <trkpt lat="46.56349" lon="-1.81011">
        <ele>-157.80000305176</ele>
        <time>2021-02-23T08:51:17.000Z</time>
      </trkpt>
      <trkpt lat="46.56351" lon="-1.81017">
        <ele>-157.80000305176</ele>
        <time>2021-02-23T08:51:18.000Z</time>
      </trkpt>
      <trkpt lat="46.56353" lon="-1.81024">
        <ele>-157.80000305176</ele>
        <time>2021-02-23T08:51:19.000Z</time>
      </trkpt>
      <trkpt lat="46.56355" lon="-1.81031">
        <ele>-157.80000305176</ele>
        <time>2021-02-23T08:51:20.000Z</time>
      </trkpt>
      <trkpt lat="46.56357" lon="-1.81038">
        <ele>-157.80000305176</ele>
        <time>2021-02-23T08:51:21.000Z</time>
      </trkpt>
      <trkpt lat="46.5636" lon="-1.81044">
        <ele>-157.60000610352</ele>
        <time>2021-02-23T08:51:22.000Z</time>
      </trkpt>
      <trkpt lat="46.56363" lon="-1.81049">
        <ele>-157.60000610352</ele>
        <time>2021-02-23T08:51:23.000Z</time>
      </trkpt>
      <trkpt lat="46.56367" lon="-1.81059">
        <ele>-157.39999389648</ele>
        <time>2021-02-23T08:51:25.000Z</time>
      </trkpt>
      <trkpt lat="46.56375" lon="-1.81077">
        <ele>-157.19999694824</ele>
        <time>2021-02-23T08:51:28.000Z</time>
      </trkpt>
      <trkpt lat="46.56383" lon="-1.81098">
        <ele>-156.80000305176</ele>
        <time>2021-02-23T08:51:31.000Z</time>
      </trkpt>
      <trkpt lat="46.56386" lon="-1.81105">
        <ele>-156.80000305176</ele>
        <time>2021-02-23T08:51:32.000Z</time>
      </trkpt>
      <trkpt lat="46.56388" lon="-1.81112">
        <ele>-156.80000305176</ele>
        <time>2021-02-23T08:51:33.000Z</time>
      </trkpt>
      <trkpt lat="46.56398" lon="-1.81131">
        <ele>-156.80000305176</ele>
        <time>2021-02-23T08:51:36.000Z</time>
      </trkpt>
      <trkpt lat="46.56406" lon="-1.81152">
        <ele>-157</ele>
        <time>2021-02-23T08:51:39.000Z</time>
      </trkpt>
      <trkpt lat="46.56411" lon="-1.81166">
        <ele>-157</ele>
        <time>2021-02-23T08:51:41.000Z</time>
      </trkpt>
      <trkpt lat="46.56414" lon="-1.81172">
        <ele>-157</ele>
        <time>2021-02-23T08:51:42.000Z</time>
      </trkpt>
      <trkpt lat="46.56417" lon="-1.81177">
        <ele>-157</ele>
        <time>2021-02-23T08:51:43.000Z</time>
      </trkpt>
      <trkpt lat="46.56419" lon="-1.81181">
        <ele>-157</ele>
        <time>2021-02-23T08:51:44.000Z</time>
      </trkpt>
      <trkpt lat="46.56423" lon="-1.81185">
        <ele>-157</ele>
        <time>2021-02-23T08:51:45.000Z</time>
      </trkpt>
      <trkpt lat="46.56427" lon="-1.8119">
        <ele>-157</ele>
        <time>2021-02-23T08:51:46.000Z</time>
      </trkpt>
      <trkpt lat="46.56436" lon="-1.81199">
        <ele>-157</ele>
        <time>2021-02-23T08:51:48.000Z</time>
      </trkpt>
      <trkpt lat="46.56441" lon="-1.81203">
        <ele>-157</ele>
        <time>2021-02-23T08:51:49.000Z</time>
      </trkpt>
      <trkpt lat="46.56446" lon="-1.81208">
        <ele>-157</ele>
        <time>2021-02-23T08:51:50.000Z</time>
      </trkpt>
      <trkpt lat="46.56481" lon="-1.81242">
        <ele>-157.19999694824</ele>
        <time>2021-02-23T08:51:57.000Z</time>
      </trkpt>
      <trkpt lat="46.56484" lon="-1.81248">
        <ele>-157.39999389648</ele>
        <time>2021-02-23T08:51:58.000Z</time>
      </trkpt>
      <trkpt lat="46.5649" lon="-1.81261">
        <ele>-157.39999389648</ele>
        <time>2021-02-23T08:52:00.000Z</time>
      </trkpt>
      <trkpt lat="46.56493" lon="-1.81267">
        <ele>-157.39999389648</ele>
        <time>2021-02-23T08:52:01.000Z</time>
      </trkpt>
      <trkpt lat="46.56497" lon="-1.81274">
        <ele>-157.39999389648</ele>
        <time>2021-02-23T08:52:02.000Z</time>
      </trkpt>
      <trkpt lat="46.56501" lon="-1.8128">
        <ele>-157.39999389648</ele>
        <time>2021-02-23T08:52:03.000Z</time>
      </trkpt>
      <trkpt lat="46.56504" lon="-1.81286">
        <ele>-157.39999389648</ele>
        <time>2021-02-23T08:52:04.000Z</time>
      </trkpt>
      <trkpt lat="46.56509" lon="-1.81299">
        <ele>-157.39999389648</ele>
        <time>2021-02-23T08:52:06.000Z</time>
      </trkpt>
      <trkpt lat="46.56514" lon="-1.81311">
        <ele>-157.39999389648</ele>
        <time>2021-02-23T08:52:08.000Z</time>
      </trkpt>
      <trkpt lat="46.56517" lon="-1.81316">
        <ele>-157.39999389648</ele>
        <time>2021-02-23T08:52:09.000Z</time>
      </trkpt>
      <trkpt lat="46.56521" lon="-1.8132">
        <ele>-157.39999389648</ele>
        <time>2021-02-23T08:52:10.000Z</time>
      </trkpt>
      <trkpt lat="46.56525" lon="-1.81323">
        <ele>-157.39999389648</ele>
        <time>2021-02-23T08:52:11.000Z</time>
      </trkpt>
      <trkpt lat="46.56529" lon="-1.81326">
        <ele>-157.39999389648</ele>
        <time>2021-02-23T08:52:12.000Z</time>
      </trkpt>
      <trkpt lat="46.56543" lon="-1.81332">
        <ele>-157.39999389648</ele>
        <time>2021-02-23T08:52:15.000Z</time>
      </trkpt>
      <trkpt lat="46.56555" lon="-1.81343">
        <ele>-157.60000610352</ele>
        <time>2021-02-23T08:52:18.000Z</time>
      </trkpt>
      <trkpt lat="46.5656" lon="-1.81348">
        <ele>-157.60000610352</ele>
        <time>2021-02-23T08:52:19.000Z</time>
      </trkpt>
      <trkpt lat="46.56563" lon="-1.81353">
        <ele>-157.80000305176</ele>
        <time>2021-02-23T08:52:20.000Z</time>
      </trkpt>
      <trkpt lat="46.56567" lon="-1.81357">
        <ele>-157.80000305176</ele>
        <time>2021-02-23T08:52:21.000Z</time>
      </trkpt>
      <trkpt lat="46.56571" lon="-1.81362">
        <ele>-157.80000305176</ele>
        <time>2021-02-23T08:52:22.000Z</time>
      </trkpt>
      <trkpt lat="46.56575" lon="-1.81368">
        <ele>-158</ele>
        <time>2021-02-23T08:52:23.000Z</time>
      </trkpt>
      <trkpt lat="46.56593" lon="-1.81392">
        <ele>-158</ele>
        <time>2021-02-23T08:52:27.000Z</time>
      </trkpt>
      <trkpt lat="46.56597" lon="-1.81398">
        <ele>-158</ele>
        <time>2021-02-23T08:52:28.000Z</time>
      </trkpt>
      <trkpt lat="46.56601" lon="-1.81404">
        <ele>-158</ele>
        <time>2021-02-23T08:52:29.000Z</time>
      </trkpt>
      <trkpt lat="46.56604" lon="-1.81411">
        <ele>-158</ele>
        <time>2021-02-23T08:52:30.000Z</time>
      </trkpt>
      <trkpt lat="46.56607" lon="-1.81417">
        <ele>-158</ele>
        <time>2021-02-23T08:52:31.000Z</time>
      </trkpt>
      <trkpt lat="46.56611" lon="-1.81422">
        <ele>-157.80000305176</ele>
        <time>2021-02-23T08:52:32.000Z</time>
      </trkpt>
      <trkpt lat="46.56615" lon="-1.81428">
        <ele>-157.80000305176</ele>
        <time>2021-02-23T08:52:33.000Z</time>
      </trkpt>
      <trkpt lat="46.56623" lon="-1.81439">
        <ele>-157.80000305176</ele>
        <time>2021-02-23T08:52:35.000Z</time>
      </trkpt>
      <trkpt lat="46.56626" lon="-1.81445">
        <ele>-157.60000610352</ele>
        <time>2021-02-23T08:52:36.000Z</time>
      </trkpt>
      <trkpt lat="46.56632" lon="-1.81456">
        <ele>-157.60000610352</ele>
        <time>2021-02-23T08:52:38.000Z</time>
      </trkpt>
      <trkpt lat="46.56635" lon="-1.81462">
        <ele>-157.39999389648</ele>
        <time>2021-02-23T08:52:39.000Z</time>
      </trkpt>
      <trkpt lat="46.56637" lon="-1.81467">
        <ele>-157.39999389648</ele>
        <time>2021-02-23T08:52:40.000Z</time>
      </trkpt>
      <trkpt lat="46.56645" lon="-1.81485">
        <ele>-157.39999389648</ele>
        <time>2021-02-23T08:52:43.000Z</time>
      </trkpt>
      <trkpt lat="46.56646" lon="-1.81492">
        <ele>-157.19999694824</ele>
        <time>2021-02-23T08:52:44.000Z</time>
      </trkpt>
      <trkpt lat="46.56648" lon="-1.81501">
        <ele>-157.19999694824</ele>
        <time>2021-02-23T08:52:45.000Z</time>
      </trkpt>
      <trkpt lat="46.56654" lon="-1.81527">
        <ele>-157.19999694824</ele>
        <time>2021-02-23T08:52:48.000Z</time>
      </trkpt>
      <trkpt lat="46.56657" lon="-1.81535">
        <ele>-157.19999694824</ele>
        <time>2021-02-23T08:52:49.000Z</time>
      </trkpt>
      <trkpt lat="46.5666" lon="-1.81557">
        <ele>-157</ele>
        <time>2021-02-23T08:52:52.000Z</time>
      </trkpt>
      <trkpt lat="46.56664" lon="-1.81578">
        <ele>-157.19999694824</ele>
        <time>2021-02-23T08:52:55.000Z</time>
      </trkpt>
      <trkpt lat="46.56666" lon="-1.81585">
        <ele>-157.19999694824</ele>
        <time>2021-02-23T08:52:56.000Z</time>
      </trkpt>
      <trkpt lat="46.56673" lon="-1.81606">
        <ele>-157.19999694824</ele>
        <time>2021-02-23T08:52:59.000Z</time>
      </trkpt>
      <trkpt lat="46.56676" lon="-1.81611">
        <ele>-157.19999694824</ele>
        <time>2021-02-23T08:53:00.000Z</time>
      </trkpt>
      <trkpt lat="46.5668" lon="-1.81617">
        <ele>-157.39999389648</ele>
        <time>2021-02-23T08:53:01.000Z</time>
      </trkpt>
      <trkpt lat="46.56683" lon="-1.81622">
        <ele>-157.39999389648</ele>
        <time>2021-02-23T08:53:02.000Z</time>
      </trkpt>
      <trkpt lat="46.56687" lon="-1.81627">
        <ele>-157.39999389648</ele>
        <time>2021-02-23T08:53:03.000Z</time>
      </trkpt>
      <trkpt lat="46.56691" lon="-1.81632">
        <ele>-157.39999389648</ele>
        <time>2021-02-23T08:53:04.000Z</time>
      </trkpt>
      <trkpt lat="46.56696" lon="-1.81637">
        <ele>-157.39999389648</ele>
        <time>2021-02-23T08:53:05.000Z</time>
      </trkpt>
      <trkpt lat="46.56703" lon="-1.81647">
        <ele>-157.19999694824</ele>
        <time>2021-02-23T08:53:07.000Z</time>
      </trkpt>
      <trkpt lat="46.56726" lon="-1.81676">
        <ele>-156.80000305176</ele>
        <time>2021-02-23T08:53:12.000Z</time>
      </trkpt>
      <trkpt lat="46.56729" lon="-1.81684">
        <ele>-156.80000305176</ele>
        <time>2021-02-23T08:53:13.000Z</time>
      </trkpt>
      <trkpt lat="46.56733" lon="-1.81689">
        <ele>-156.80000305176</ele>
        <time>2021-02-23T08:53:14.000Z</time>
      </trkpt>
      <trkpt lat="46.5674" lon="-1.81698">
        <ele>-156.60000610352</ele>
        <time>2021-02-23T08:53:16.000Z</time>
      </trkpt>
      <trkpt lat="46.56744" lon="-1.81701">
        <ele>-156.60000610352</ele>
        <time>2021-02-23T08:53:17.000Z</time>
      </trkpt>
      <trkpt lat="46.56748" lon="-1.81704">
        <ele>-156.60000610352</ele>
        <time>2021-02-23T08:53:18.000Z</time>
      </trkpt>
      <trkpt lat="46.56752" lon="-1.8171">
        <ele>-156.60000610352</ele>
        <time>2021-02-23T08:53:19.000Z</time>
      </trkpt>
      <trkpt lat="46.56756" lon="-1.81718">
        <ele>-156.60000610352</ele>
        <time>2021-02-23T08:53:20.000Z</time>
      </trkpt>
      <trkpt lat="46.5677" lon="-1.81744">
        <ele>-156.39999389648</ele>
        <time>2021-02-23T08:53:24.000Z</time>
      </trkpt>
      <trkpt lat="46.56778" lon="-1.81754">
        <ele>-156.39999389648</ele>
        <time>2021-02-23T08:53:26.000Z</time>
      </trkpt>
      <trkpt lat="46.56786" lon="-1.81764">
        <ele>-156.39999389648</ele>
        <time>2021-02-23T08:53:28.000Z</time>
      </trkpt>
      <trkpt lat="46.5679" lon="-1.81768">
        <ele>-156.39999389648</ele>
        <time>2021-02-23T08:53:29.000Z</time>
      </trkpt>
      <trkpt lat="46.56795" lon="-1.81772">
        <ele>-156.39999389648</ele>
        <time>2021-02-23T08:53:30.000Z</time>
      </trkpt>
      <trkpt lat="46.56799" lon="-1.81776">
        <ele>-156.39999389648</ele>
        <time>2021-02-23T08:53:31.000Z</time>
      </trkpt>
      <trkpt lat="46.56808" lon="-1.81787">
        <ele>-156.39999389648</ele>
        <time>2021-02-23T08:53:33.000Z</time>
      </trkpt>
      <trkpt lat="46.56818" lon="-1.81797">
        <ele>-156.39999389648</ele>
        <time>2021-02-23T08:53:35.000Z</time>
      </trkpt>
      <trkpt lat="46.56822" lon="-1.81802">
        <ele>-156.39999389648</ele>
        <time>2021-02-23T08:53:36.000Z</time>
      </trkpt>
      <trkpt lat="46.56836" lon="-1.81818">
        <ele>-156.39999389648</ele>
        <time>2021-02-23T08:53:39.000Z</time>
      </trkpt>
      <trkpt lat="46.56838" lon="-1.81824">
        <ele>-156.39999389648</ele>
        <time>2021-02-23T08:53:40.000Z</time>
      </trkpt>
      <trkpt lat="46.56839" lon="-1.8183">
        <ele>-156.39999389648</ele>
        <time>2021-02-23T08:53:41.000Z</time>
      </trkpt>
      <trkpt lat="46.5684" lon="-1.81835">
        <ele>-156.39999389648</ele>
        <time>2021-02-23T08:53:42.000Z</time>
      </trkpt>
      <trkpt lat="46.56842" lon="-1.81839">
        <ele>-156.60000610352</ele>
        <time>2021-02-23T08:53:43.000Z</time>
      </trkpt>
      <trkpt lat="46.56845" lon="-1.8185">
        <ele>-156.60000610352</ele>
        <time>2021-02-23T08:53:45.000Z</time>
      </trkpt>
      <trkpt lat="46.56846" lon="-1.8186">
        <ele>-156.80000305176</ele>
        <time>2021-02-23T08:53:47.000Z</time>
      </trkpt>
      <trkpt lat="46.56845" lon="-1.81865">
        <ele>-156.80000305176</ele>
        <time>2021-02-23T08:53:48.000Z</time>
      </trkpt>
      <trkpt lat="46.56845" lon="-1.81871">
        <ele>-156.80000305176</ele>
        <time>2021-02-23T08:53:49.000Z</time>
      </trkpt>
      <trkpt lat="46.56845" lon="-1.81876">
        <ele>-157</ele>
        <time>2021-02-23T08:53:50.000Z</time>
      </trkpt>
      <trkpt lat="46.56845" lon="-1.81881">
        <ele>-157</ele>
        <time>2021-02-23T08:53:51.000Z</time>
      </trkpt>
      <trkpt lat="46.56845" lon="-1.81887">
        <ele>-157</ele>
        <time>2021-02-23T08:53:52.000Z</time>
      </trkpt>
      <trkpt lat="46.56845" lon="-1.81893">
        <ele>-157</ele>
        <time>2021-02-23T08:53:53.000Z</time>
      </trkpt>
      <trkpt lat="46.56846" lon="-1.81899">
        <ele>-157</ele>
        <time>2021-02-23T08:53:54.000Z</time>
      </trkpt>
      <trkpt lat="46.56847" lon="-1.81906">
        <ele>-157</ele>
        <time>2021-02-23T08:53:55.000Z</time>
      </trkpt>
      <trkpt lat="46.56848" lon="-1.81913">
        <ele>-157.19999694824</ele>
        <time>2021-02-23T08:53:56.000Z</time>
      </trkpt>
      <trkpt lat="46.56848" lon="-1.81919">
        <ele>-157.19999694824</ele>
        <time>2021-02-23T08:53:57.000Z</time>
      </trkpt>
      <trkpt lat="46.56848" lon="-1.81925">
        <ele>-157.19999694824</ele>
        <time>2021-02-23T08:53:58.000Z</time>
      </trkpt>
      <trkpt lat="46.56848" lon="-1.81929">
        <ele>-157.19999694824</ele>
        <time>2021-02-23T08:53:59.000Z</time>
      </trkpt>
      <trkpt lat="46.56845" lon="-1.81935">
        <ele>-157.19999694824</ele>
        <time>2021-02-23T08:54:00.000Z</time>
      </trkpt>
      <trkpt lat="46.56846" lon="-1.81942">
        <ele>-157.19999694824</ele>
        <time>2021-02-23T08:54:01.000Z</time>
      </trkpt>
      <trkpt lat="46.56849" lon="-1.81954">
        <ele>-157.19999694824</ele>
        <time>2021-02-23T08:54:02.000Z</time>
      </trkpt>
      <trkpt lat="46.56852" lon="-1.81962">
        <ele>-157.19999694824</ele>
        <time>2021-02-23T08:54:03.000Z</time>
      </trkpt>
      <trkpt lat="46.56855" lon="-1.81968">
        <ele>-157.19999694824</ele>
        <time>2021-02-23T08:54:04.000Z</time>
      </trkpt>
      <trkpt lat="46.56869" lon="-1.82001">
        <ele>-157.19999694824</ele>
        <time>2021-02-23T08:54:08.000Z</time>
      </trkpt>
      <trkpt lat="46.56882" lon="-1.82018">
        <ele>-157.60000610352</ele>
        <time>2021-02-23T08:54:11.000Z</time>
      </trkpt>
      <trkpt lat="46.56897" lon="-1.82032">
        <ele>-157.80000305176</ele>
        <time>2021-02-23T08:54:14.000Z</time>
      </trkpt>
      <trkpt lat="46.56902" lon="-1.82036">
        <ele>-157.80000305176</ele>
        <time>2021-02-23T08:54:15.000Z</time>
      </trkpt>
      <trkpt lat="46.56906" lon="-1.82039">
        <ele>-157.80000305176</ele>
        <time>2021-02-23T08:54:16.000Z</time>
      </trkpt>
      <trkpt lat="46.56911" lon="-1.82042">
        <ele>-157.80000305176</ele>
        <time>2021-02-23T08:54:17.000Z</time>
      </trkpt>
      <trkpt lat="46.56916" lon="-1.82043">
        <ele>-157.80000305176</ele>
        <time>2021-02-23T08:54:18.000Z</time>
      </trkpt>
      <trkpt lat="46.5692" lon="-1.82042">
        <ele>-157.80000305176</ele>
        <time>2021-02-23T08:54:19.000Z</time>
      </trkpt>
      <trkpt lat="46.56923" lon="-1.82038">
        <ele>-157.80000305176</ele>
        <time>2021-02-23T08:54:20.000Z</time>
      </trkpt>
      <trkpt lat="46.56923" lon="-1.82032">
        <ele>-157.80000305176</ele>
        <time>2021-02-23T08:54:21.000Z</time>
      </trkpt>
      <trkpt lat="46.56924" lon="-1.82027">
        <ele>-157.80000305176</ele>
        <time>2021-02-23T08:54:22.000Z</time>
      </trkpt>
      <trkpt lat="46.56927" lon="-1.82015">
        <ele>-157.80000305176</ele>
        <time>2021-02-23T08:54:24.000Z</time>
      </trkpt>
      <trkpt lat="46.5693" lon="-1.82003">
        <ele>-157.80000305176</ele>
        <time>2021-02-23T08:54:26.000Z</time>
      </trkpt>
      <trkpt lat="46.56942" lon="-1.81966">
        <ele>-157.80000305176</ele>
        <time>2021-02-23T08:54:32.000Z</time>
      </trkpt>
      <trkpt lat="46.56946" lon="-1.81954">
        <ele>-157.80000305176</ele>
        <time>2021-02-23T08:54:34.000Z</time>
      </trkpt>
      <trkpt lat="46.56964" lon="-1.81917">
        <ele>-157.80000305176</ele>
        <time>2021-02-23T08:54:40.000Z</time>
      </trkpt>
      <trkpt lat="46.56968" lon="-1.81911">
        <ele>-157.80000305176</ele>
        <time>2021-02-23T08:54:41.000Z</time>
      </trkpt>
      <trkpt lat="46.56971" lon="-1.81905">
        <ele>-157.80000305176</ele>
        <time>2021-02-23T08:54:42.000Z</time>
      </trkpt>
      <trkpt lat="46.56975" lon="-1.819">
        <ele>-157.80000305176</ele>
        <time>2021-02-23T08:54:43.000Z</time>
      </trkpt>
      <trkpt lat="46.56978" lon="-1.81894">
        <ele>-157.80000305176</ele>
        <time>2021-02-23T08:54:44.000Z</time>
      </trkpt>
      <trkpt lat="46.56981" lon="-1.81889">
        <ele>-157.80000305176</ele>
        <time>2021-02-23T08:54:45.000Z</time>
      </trkpt>
      <trkpt lat="46.56985" lon="-1.81884">
        <ele>-157.80000305176</ele>
        <time>2021-02-23T08:54:46.000Z</time>
      </trkpt>
      <trkpt lat="46.56989" lon="-1.8188">
        <ele>-157.80000305176</ele>
        <time>2021-02-23T08:54:47.000Z</time>
      </trkpt>
      <trkpt lat="46.57007" lon="-1.81867">
        <ele>-158</ele>
        <time>2021-02-23T08:54:51.000Z</time>
      </trkpt>
      <trkpt lat="46.57045" lon="-1.81852">
        <ele>-158</ele>
        <time>2021-02-23T08:54:59.000Z</time>
      </trkpt>
      <trkpt lat="46.57055" lon="-1.81852">
        <ele>-158</ele>
        <time>2021-02-23T08:55:01.000Z</time>
      </trkpt>
      <trkpt lat="46.5706" lon="-1.81853">
        <ele>-158</ele>
        <time>2021-02-23T08:55:02.000Z</time>
      </trkpt>
      <trkpt lat="46.57071" lon="-1.81856">
        <ele>-158</ele>
        <time>2021-02-23T08:55:04.000Z</time>
      </trkpt>
      <trkpt lat="46.57076" lon="-1.81857">
        <ele>-157.80000305176</ele>
        <time>2021-02-23T08:55:05.000Z</time>
      </trkpt>
      <trkpt lat="46.57082" lon="-1.81859">
        <ele>-157.80000305176</ele>
        <time>2021-02-23T08:55:06.000Z</time>
      </trkpt>
      <trkpt lat="46.57086" lon="-1.8186">
        <ele>-157.60000610352</ele>
        <time>2021-02-23T08:55:07.000Z</time>
      </trkpt>
      <trkpt lat="46.57095" lon="-1.81864">
        <ele>-157.60000610352</ele>
        <time>2021-02-23T08:55:09.000Z</time>
      </trkpt>
      <trkpt lat="46.57099" lon="-1.81866">
        <ele>-157.60000610352</ele>
        <time>2021-02-23T08:55:10.000Z</time>
      </trkpt>
      <trkpt lat="46.57104" lon="-1.81869">
        <ele>-157.60000610352</ele>
        <time>2021-02-23T08:55:11.000Z</time>
      </trkpt>
      <trkpt lat="46.57112" lon="-1.81873">
        <ele>-157.60000610352</ele>
        <time>2021-02-23T08:55:13.000Z</time>
      </trkpt>
      <trkpt lat="46.57121" lon="-1.81878">
        <ele>-157.60000610352</ele>
        <time>2021-02-23T08:55:15.000Z</time>
      </trkpt>
      <trkpt lat="46.57125" lon="-1.81881">
        <ele>-157.60000610352</ele>
        <time>2021-02-23T08:55:16.000Z</time>
      </trkpt>
      <trkpt lat="46.57136" lon="-1.81888">
        <ele>-157.60000610352</ele>
        <time>2021-02-23T08:55:18.000Z</time>
      </trkpt>
      <trkpt lat="46.57151" lon="-1.819">
        <ele>-157.60000610352</ele>
        <time>2021-02-23T08:55:21.000Z</time>
      </trkpt>
      <trkpt lat="46.57156" lon="-1.81906">
        <ele>-157.60000610352</ele>
        <time>2021-02-23T08:55:22.000Z</time>
      </trkpt>
      <trkpt lat="46.5716" lon="-1.81913">
        <ele>-157.60000610352</ele>
        <time>2021-02-23T08:55:23.000Z</time>
      </trkpt>
      <trkpt lat="46.57168" lon="-1.81928">
        <ele>-157.80000305176</ele>
        <time>2021-02-23T08:55:25.000Z</time>
      </trkpt>
      <trkpt lat="46.57171" lon="-1.81935">
        <ele>-157.80000305176</ele>
        <time>2021-02-23T08:55:26.000Z</time>
      </trkpt>
      <trkpt lat="46.57179" lon="-1.8195">
        <ele>-157.80000305176</ele>
        <time>2021-02-23T08:55:28.000Z</time>
      </trkpt>
      <trkpt lat="46.57185" lon="-1.81964">
        <ele>-157.80000305176</ele>
        <time>2021-02-23T08:55:30.000Z</time>
      </trkpt>
      <trkpt lat="46.57188" lon="-1.81971">
        <ele>-157.80000305176</ele>
        <time>2021-02-23T08:55:31.000Z</time>
      </trkpt>
      <trkpt lat="46.57191" lon="-1.81978">
        <ele>-157.80000305176</ele>
        <time>2021-02-23T08:55:32.000Z</time>
      </trkpt>
      <trkpt lat="46.57194" lon="-1.81985">
        <ele>-157.80000305176</ele>
        <time>2021-02-23T08:55:33.000Z</time>
      </trkpt>
      <trkpt lat="46.57197" lon="-1.81992">
        <ele>-157.80000305176</ele>
        <time>2021-02-23T08:55:34.000Z</time>
      </trkpt>
      <trkpt lat="46.57203" lon="-1.82007">
        <ele>-157.80000305176</ele>
        <time>2021-02-23T08:55:36.000Z</time>
      </trkpt>
      <trkpt lat="46.57205" lon="-1.82013">
        <ele>-157.80000305176</ele>
        <time>2021-02-23T08:55:37.000Z</time>
      </trkpt>
      <trkpt lat="46.57207" lon="-1.82019">
        <ele>-158</ele>
        <time>2021-02-23T08:55:38.000Z</time>
      </trkpt>
      <trkpt lat="46.57209" lon="-1.82026">
        <ele>-158</ele>
        <time>2021-02-23T08:55:39.000Z</time>
      </trkpt>
      <trkpt lat="46.57211" lon="-1.8204">
        <ele>-157.80000305176</ele>
        <time>2021-02-23T08:55:41.000Z</time>
      </trkpt>
      <trkpt lat="46.57213" lon="-1.82053">
        <ele>-157.80000305176</ele>
        <time>2021-02-23T08:55:43.000Z</time>
      </trkpt>
      <trkpt lat="46.57218" lon="-1.82074">
        <ele>-157.60000610352</ele>
        <time>2021-02-23T08:55:46.000Z</time>
      </trkpt>
      <trkpt lat="46.5722" lon="-1.8208">
        <ele>-157.60000610352</ele>
        <time>2021-02-23T08:55:47.000Z</time>
      </trkpt>
      <trkpt lat="46.57226" lon="-1.82107">
        <ele>-157.60000610352</ele>
        <time>2021-02-23T08:55:51.000Z</time>
      </trkpt>
      <trkpt lat="46.57233" lon="-1.82118">
        <ele>-157.19999694824</ele>
        <time>2021-02-23T08:55:53.000Z</time>
      </trkpt>
      <trkpt lat="46.57236" lon="-1.82123">
        <ele>-157.39999389648</ele>
        <time>2021-02-23T08:55:54.000Z</time>
      </trkpt>
      <trkpt lat="46.57241" lon="-1.82127">
        <ele>-157.39999389648</ele>
        <time>2021-02-23T08:55:55.000Z</time>
      </trkpt>
      <trkpt lat="46.57245" lon="-1.8213">
        <ele>-157.39999389648</ele>
        <time>2021-02-23T08:55:56.000Z</time>
      </trkpt>
      <trkpt lat="46.57251" lon="-1.82131">
        <ele>-157.39999389648</ele>
        <time>2021-02-23T08:55:57.000Z</time>
      </trkpt>
      <trkpt lat="46.57256" lon="-1.82131">
        <ele>-157.39999389648</ele>
        <time>2021-02-23T08:55:58.000Z</time>
      </trkpt>
      <trkpt lat="46.57261" lon="-1.82131">
        <ele>-157.39999389648</ele>
        <time>2021-02-23T08:55:59.000Z</time>
      </trkpt>
      <trkpt lat="46.57266" lon="-1.8213">
        <ele>-157.19999694824</ele>
        <time>2021-02-23T08:56:00.000Z</time>
      </trkpt>
      <trkpt lat="46.5727" lon="-1.82129">
        <ele>-157.19999694824</ele>
        <time>2021-02-23T08:56:01.000Z</time>
      </trkpt>
      <trkpt lat="46.57279" lon="-1.82125">
        <ele>-157.19999694824</ele>
        <time>2021-02-23T08:56:03.000Z</time>
      </trkpt>
      <trkpt lat="46.57284" lon="-1.82123">
        <ele>-157.19999694824</ele>
        <time>2021-02-23T08:56:04.000Z</time>
      </trkpt>
      <trkpt lat="46.57289" lon="-1.82122">
        <ele>-157.19999694824</ele>
        <time>2021-02-23T08:56:05.000Z</time>
      </trkpt>
      <trkpt lat="46.57294" lon="-1.82119">
        <ele>-157</ele>
        <time>2021-02-23T08:56:06.000Z</time>
      </trkpt>
      <trkpt lat="46.57303" lon="-1.82115">
        <ele>-157</ele>
        <time>2021-02-23T08:56:08.000Z</time>
      </trkpt>
      <trkpt lat="46.57335" lon="-1.82108">
        <ele>-156.80000305176</ele>
        <time>2021-02-23T08:56:14.000Z</time>
      </trkpt>
      <trkpt lat="46.57339" lon="-1.82108">
        <ele>-156.80000305176</ele>
        <time>2021-02-23T08:56:15.000Z</time>
      </trkpt>
      <trkpt lat="46.57344" lon="-1.82107">
        <ele>-156.80000305176</ele>
        <time>2021-02-23T08:56:16.000Z</time>
      </trkpt>
      <trkpt lat="46.57347" lon="-1.82107">
        <ele>-156.80000305176</ele>
        <time>2021-02-23T08:56:17.000Z</time>
      </trkpt>
      <trkpt lat="46.5735" lon="-1.82108">
        <ele>-156.80000305176</ele>
        <time>2021-02-23T08:56:18.000Z</time>
      </trkpt>
      <trkpt lat="46.57351" lon="-1.82108">
        <ele>-156.80000305176</ele>
        <time>2021-02-23T08:56:19.000Z</time>
      </trkpt>
      <trkpt lat="46.57353" lon="-1.82108">
        <ele>-157.19999694824</ele>
        <time>2021-02-23T08:57:45.000Z</time>
      </trkpt>
      <trkpt lat="46.57357" lon="-1.8211">
        <ele>-157.19999694824</ele>
        <time>2021-02-23T08:57:47.000Z</time>
      </trkpt>
      <trkpt lat="46.57359" lon="-1.82112">
        <ele>-156.80000305176</ele>
        <time>2021-02-23T08:57:48.000Z</time>
      </trkpt>
      <trkpt lat="46.57361" lon="-1.82113">
        <ele>-156.60000610352</ele>
        <time>2021-02-23T08:57:49.000Z</time>
      </trkpt>
      <trkpt lat="46.57365" lon="-1.82116">
        <ele>-156.39999389648</ele>
        <time>2021-02-23T08:57:50.000Z</time>
      </trkpt>
      <trkpt lat="46.57369" lon="-1.82118">
        <ele>-156.39999389648</ele>
        <time>2021-02-23T08:57:51.000Z</time>
      </trkpt>
      <trkpt lat="46.57379" lon="-1.82128">
        <ele>-156.39999389648</ele>
        <time>2021-02-23T08:57:53.000Z</time>
      </trkpt>
      <trkpt lat="46.5739" lon="-1.82139">
        <ele>-156.39999389648</ele>
        <time>2021-02-23T08:57:55.000Z</time>
      </trkpt>
      <trkpt lat="46.57402" lon="-1.8215">
        <ele>-156</ele>
        <time>2021-02-23T08:57:57.000Z</time>
      </trkpt>
      <trkpt lat="46.57414" lon="-1.82159">
        <ele>-156</ele>
        <time>2021-02-23T08:57:59.000Z</time>
      </trkpt>
      <trkpt lat="46.57436" lon="-1.8217">
        <ele>-155.60000610352</ele>
        <time>2021-02-23T08:58:03.000Z</time>
      </trkpt>
      <trkpt lat="46.57442" lon="-1.82173">
        <ele>-155.60000610352</ele>
        <time>2021-02-23T08:58:04.000Z</time>
      </trkpt>
      <trkpt lat="46.57457" lon="-1.82177">
        <ele>-155.60000610352</ele>
        <time>2021-02-23T08:58:06.000Z</time>
      </trkpt>
      <trkpt lat="46.57463" lon="-1.82178">
        <ele>-155.60000610352</ele>
        <time>2021-02-23T08:58:07.000Z</time>
      </trkpt>
      <trkpt lat="46.57469" lon="-1.82181">
        <ele>-155.60000610352</ele>
        <time>2021-02-23T08:58:08.000Z</time>
      </trkpt>
      <trkpt lat="46.57478" lon="-1.82187">
        <ele>-155.60000610352</ele>
        <time>2021-02-23T08:58:09.000Z</time>
      </trkpt>
      <trkpt lat="46.57495" lon="-1.82197">
        <ele>-155.19999694824</ele>
        <time>2021-02-23T08:58:12.000Z</time>
      </trkpt>
      <trkpt lat="46.57505" lon="-1.82202">
        <ele>-155</ele>
        <time>2021-02-23T08:58:14.000Z</time>
      </trkpt>
      <trkpt lat="46.57519" lon="-1.8221">
        <ele>-155</ele>
        <time>2021-02-23T08:58:17.000Z</time>
      </trkpt>
      <trkpt lat="46.57541" lon="-1.82222">
        <ele>-155</ele>
        <time>2021-02-23T08:58:20.000Z</time>
      </trkpt>
      <trkpt lat="46.57556" lon="-1.8223">
        <ele>-155</ele>
        <time>2021-02-23T08:58:23.000Z</time>
      </trkpt>
      <trkpt lat="46.57562" lon="-1.82231">
        <ele>-155</ele>
        <time>2021-02-23T08:58:24.000Z</time>
      </trkpt>
      <trkpt lat="46.57568" lon="-1.82234">
        <ele>-155</ele>
        <time>2021-02-23T08:58:25.000Z</time>
      </trkpt>
      <trkpt lat="46.57576" lon="-1.82239">
        <ele>-155</ele>
        <time>2021-02-23T08:58:26.000Z</time>
      </trkpt>
      <trkpt lat="46.57583" lon="-1.82244">
        <ele>-155</ele>
        <time>2021-02-23T08:58:27.000Z</time>
      </trkpt>
      <trkpt lat="46.5759" lon="-1.82246">
        <ele>-155</ele>
        <time>2021-02-23T08:58:28.000Z</time>
      </trkpt>
      <trkpt lat="46.57613" lon="-1.82254">
        <ele>-155</ele>
        <time>2021-02-23T08:58:32.000Z</time>
      </trkpt>
      <trkpt lat="46.57617" lon="-1.82258">
        <ele>-155</ele>
        <time>2021-02-23T08:58:33.000Z</time>
      </trkpt>
      <trkpt lat="46.57621" lon="-1.82261">
        <ele>-155</ele>
        <time>2021-02-23T08:58:34.000Z</time>
      </trkpt>
      <trkpt lat="46.57625" lon="-1.82263">
        <ele>-155</ele>
        <time>2021-02-23T08:58:35.000Z</time>
      </trkpt>
      <trkpt lat="46.5763" lon="-1.82263">
        <ele>-155</ele>
        <time>2021-02-23T08:58:36.000Z</time>
      </trkpt>
      <trkpt lat="46.57634" lon="-1.82265">
        <ele>-154.80000305176</ele>
        <time>2021-02-23T08:58:37.000Z</time>
      </trkpt>
      <trkpt lat="46.57638" lon="-1.82267">
        <ele>-154.80000305176</ele>
        <time>2021-02-23T08:58:38.000Z</time>
      </trkpt>
      <trkpt lat="46.57639" lon="-1.82268">
        <ele>-154.80000305176</ele>
        <time>2021-02-23T08:58:39.000Z</time>
      </trkpt>
      <trkpt lat="46.5764" lon="-1.82268">
        <ele>-154.60000610352</ele>
        <time>2021-02-23T08:58:40.000Z</time>
      </trkpt>
      <trkpt lat="46.5764" lon="-1.82269">
        <ele>-154.60000610352</ele>
        <time>2021-02-23T08:58:41.000Z</time>
      </trkpt>
      <trkpt lat="46.5764" lon="-1.82269">
        <ele>-154.60000610352</ele>
        <time>2021-02-23T08:58:42.000Z</time>
      </trkpt>
      <trkpt lat="46.5764" lon="-1.82269">
        <ele>-154.60000610352</ele>
        <time>2021-02-23T08:58:43.000Z</time>
      </trkpt>
      <trkpt lat="46.57639" lon="-1.82272">
        <ele>-154.80000305176</ele>
        <time>2021-02-23T08:58:54.000Z</time>
      </trkpt>
      <trkpt lat="46.57638" lon="-1.82276">
        <ele>-154.80000305176</ele>
        <time>2021-02-23T08:58:55.000Z</time>
      </trkpt>
      <trkpt lat="46.57636" lon="-1.82284">
        <ele>-155</ele>
        <time>2021-02-23T08:58:57.000Z</time>
      </trkpt>
      <trkpt lat="46.57635" lon="-1.82288">
        <ele>-155</ele>
        <time>2021-02-23T08:58:58.000Z</time>
      </trkpt>
      <trkpt lat="46.57633" lon="-1.82293">
        <ele>-155.19999694824</ele>
        <time>2021-02-23T08:58:59.000Z</time>
      </trkpt>
      <trkpt lat="46.57628" lon="-1.82306">
        <ele>-155.80000305176</ele>
        <time>2021-02-23T08:59:01.000Z</time>
      </trkpt>
      <trkpt lat="46.57627" lon="-1.82311">
        <ele>-155.80000305176</ele>
        <time>2021-02-23T08:59:02.000Z</time>
      </trkpt>
      <trkpt lat="46.57625" lon="-1.82317">
        <ele>-156</ele>
        <time>2021-02-23T08:59:03.000Z</time>
      </trkpt>
      <trkpt lat="46.57624" lon="-1.82322">
        <ele>-156</ele>
        <time>2021-02-23T08:59:04.000Z</time>
      </trkpt>
      <trkpt lat="46.57623" lon="-1.82326">
        <ele>-156</ele>
        <time>2021-02-23T08:59:05.000Z</time>
      </trkpt>
      <trkpt lat="46.57623" lon="-1.8233">
        <ele>-156</ele>
        <time>2021-02-23T08:59:06.000Z</time>
      </trkpt>
      <trkpt lat="46.57622" lon="-1.82333">
        <ele>-156</ele>
        <time>2021-02-23T08:59:07.000Z</time>
      </trkpt>
      <trkpt lat="46.57624" lon="-1.82353">
        <ele>-155</ele>
        <time>2021-02-23T08:59:11.000Z</time>
      </trkpt>
      <trkpt lat="46.57625" lon="-1.82359">
        <ele>-154.80000305176</ele>
        <time>2021-02-23T08:59:12.000Z</time>
      </trkpt>
      <trkpt lat="46.57627" lon="-1.82366">
        <ele>-154.39999389648</ele>
        <time>2021-02-23T08:59:13.000Z</time>
      </trkpt>
      <trkpt lat="46.57629" lon="-1.82371">
        <ele>-154.19999694824</ele>
        <time>2021-02-23T08:59:14.000Z</time>
      </trkpt>
      <trkpt lat="46.5763" lon="-1.82376">
        <ele>-153.80000305176</ele>
        <time>2021-02-23T08:59:15.000Z</time>
      </trkpt>
      <trkpt lat="46.5763" lon="-1.82383">
        <ele>-153.60000610352</ele>
        <time>2021-02-23T08:59:16.000Z</time>
      </trkpt>
      <trkpt lat="46.57631" lon="-1.82398">
        <ele>-153.39999389648</ele>
        <time>2021-02-23T08:59:18.000Z</time>
      </trkpt>
      <trkpt lat="46.57631" lon="-1.82404">
        <ele>-153.39999389648</ele>
        <time>2021-02-23T08:59:19.000Z</time>
      </trkpt>
      <trkpt lat="46.57632" lon="-1.82409">
        <ele>-153.19999694824</ele>
        <time>2021-02-23T08:59:20.000Z</time>
      </trkpt>
      <trkpt lat="46.57634" lon="-1.82428">
        <ele>-153.19999694824</ele>
        <time>2021-02-23T08:59:23.000Z</time>
      </trkpt>
      <trkpt lat="46.57635" lon="-1.82435">
        <ele>-153.19999694824</ele>
        <time>2021-02-23T08:59:24.000Z</time>
      </trkpt>
      <trkpt lat="46.57637" lon="-1.82446">
        <ele>-153.19999694824</ele>
        <time>2021-02-23T08:59:26.000Z</time>
      </trkpt>
      <trkpt lat="46.57642" lon="-1.82469">
        <ele>-153.19999694824</ele>
        <time>2021-02-23T08:59:29.000Z</time>
      </trkpt>
      <trkpt lat="46.57646" lon="-1.82479">
        <ele>-153.19999694824</ele>
        <time>2021-02-23T08:59:30.000Z</time>
      </trkpt>
      <trkpt lat="46.5765" lon="-1.82485">
        <ele>-153.19999694824</ele>
        <time>2021-02-23T08:59:31.000Z</time>
      </trkpt>
      <trkpt lat="46.57656" lon="-1.82492">
        <ele>-153.19999694824</ele>
        <time>2021-02-23T08:59:33.000Z</time>
      </trkpt>
      <trkpt lat="46.5766" lon="-1.82495">
        <ele>-153.19999694824</ele>
        <time>2021-02-23T08:59:34.000Z</time>
      </trkpt>
      <trkpt lat="46.57663" lon="-1.82495">
        <ele>-153</ele>
        <time>2021-02-23T08:59:35.000Z</time>
      </trkpt>
      <trkpt lat="46.57668" lon="-1.82497">
        <ele>-153</ele>
        <time>2021-02-23T08:59:36.000Z</time>
      </trkpt>
      <trkpt lat="46.57672" lon="-1.82499">
        <ele>-153</ele>
        <time>2021-02-23T08:59:37.000Z</time>
      </trkpt>
      <trkpt lat="46.57676" lon="-1.82502">
        <ele>-153</ele>
        <time>2021-02-23T08:59:38.000Z</time>
      </trkpt>
      <trkpt lat="46.57685" lon="-1.82506">
        <ele>-152.80000305176</ele>
        <time>2021-02-23T08:59:40.000Z</time>
      </trkpt>
      <trkpt lat="46.5769" lon="-1.82507">
        <ele>-152.80000305176</ele>
        <time>2021-02-23T08:59:41.000Z</time>
      </trkpt>
      <trkpt lat="46.57694" lon="-1.82507">
        <ele>-152.80000305176</ele>
        <time>2021-02-23T08:59:42.000Z</time>
      </trkpt>
      <trkpt lat="46.57698" lon="-1.82508">
        <ele>-152.80000305176</ele>
        <time>2021-02-23T08:59:43.000Z</time>
      </trkpt>
      <trkpt lat="46.57707" lon="-1.82511">
        <ele>-152.80000305176</ele>
        <time>2021-02-23T08:59:45.000Z</time>
      </trkpt>
      <trkpt lat="46.57711" lon="-1.82511">
        <ele>-152.80000305176</ele>
        <time>2021-02-23T08:59:46.000Z</time>
      </trkpt>
      <trkpt lat="46.57714" lon="-1.82513">
        <ele>-152.60000610352</ele>
        <time>2021-02-23T08:59:47.000Z</time>
      </trkpt>
      <trkpt lat="46.57716" lon="-1.82514">
        <ele>-152.60000610352</ele>
        <time>2021-02-23T08:59:48.000Z</time>
      </trkpt>
      <trkpt lat="46.5772" lon="-1.82517">
        <ele>-152.60000610352</ele>
        <time>2021-02-23T08:59:49.000Z</time>
      </trkpt>
      <trkpt lat="46.57729" lon="-1.82524">
        <ele>-152.19999694824</ele>
        <time>2021-02-23T08:59:51.000Z</time>
      </trkpt>
      <trkpt lat="46.57741" lon="-1.82534">
        <ele>-152</ele>
        <time>2021-02-23T08:59:53.000Z</time>
      </trkpt>
      <trkpt lat="46.57748" lon="-1.82546">
        <ele>-151.80000305176</ele>
        <time>2021-02-23T08:59:55.000Z</time>
      </trkpt>
      <trkpt lat="46.57755" lon="-1.82563">
        <ele>-151.80000305176</ele>
        <time>2021-02-23T08:59:57.000Z</time>
      </trkpt>
      <trkpt lat="46.57757" lon="-1.82572">
        <ele>-151.80000305176</ele>
        <time>2021-02-23T08:59:58.000Z</time>
      </trkpt>
      <trkpt lat="46.57758" lon="-1.8258">
        <ele>-152</ele>
        <time>2021-02-23T08:59:59.000Z</time>
      </trkpt>
      <trkpt lat="46.5776" lon="-1.82588">
        <ele>-152</ele>
        <time>2021-02-23T09:00:00.000Z</time>
      </trkpt>
      <trkpt lat="46.57763" lon="-1.82595">
        <ele>-152</ele>
        <time>2021-02-23T09:00:01.000Z</time>
      </trkpt>
      <trkpt lat="46.57765" lon="-1.82604">
        <ele>-152.19999694824</ele>
        <time>2021-02-23T09:00:02.000Z</time>
      </trkpt>
      <trkpt lat="46.57768" lon="-1.82614">
        <ele>-152.19999694824</ele>
        <time>2021-02-23T09:00:03.000Z</time>
      </trkpt>
      <trkpt lat="46.5778" lon="-1.82644">
        <ele>-152.19999694824</ele>
        <time>2021-02-23T09:00:07.000Z</time>
      </trkpt>
      <trkpt lat="46.57787" lon="-1.82667">
        <ele>-152.39999389648</ele>
        <time>2021-02-23T09:00:09.000Z</time>
      </trkpt>
      <trkpt lat="46.57795" lon="-1.82685">
        <ele>-152.60000610352</ele>
        <time>2021-02-23T09:00:11.000Z</time>
      </trkpt>
      <trkpt lat="46.57798" lon="-1.82695">
        <ele>-152.60000610352</ele>
        <time>2021-02-23T09:00:12.000Z</time>
      </trkpt>
      <trkpt lat="46.57801" lon="-1.82703">
        <ele>-152.60000610352</ele>
        <time>2021-02-23T09:00:13.000Z</time>
      </trkpt>
      <trkpt lat="46.57804" lon="-1.82712">
        <ele>-152.60000610352</ele>
        <time>2021-02-23T09:00:14.000Z</time>
      </trkpt>
      <trkpt lat="46.57804" lon="-1.82719">
        <ele>-152.60000610352</ele>
        <time>2021-02-23T09:00:15.000Z</time>
      </trkpt>
      <trkpt lat="46.57804" lon="-1.82725">
        <ele>-152.80000305176</ele>
        <time>2021-02-23T09:00:16.000Z</time>
      </trkpt>
      <trkpt lat="46.57803" lon="-1.82732">
        <ele>-152.80000305176</ele>
        <time>2021-02-23T09:00:17.000Z</time>
      </trkpt>
      <trkpt lat="46.57803" lon="-1.82737">
        <ele>-152.80000305176</ele>
        <time>2021-02-23T09:00:18.000Z</time>
      </trkpt>
      <trkpt lat="46.57804" lon="-1.82742">
        <ele>-152.80000305176</ele>
        <time>2021-02-23T09:00:19.000Z</time>
      </trkpt>
      <trkpt lat="46.57805" lon="-1.8275">
        <ele>-152.80000305176</ele>
        <time>2021-02-23T09:00:20.000Z</time>
      </trkpt>
      <trkpt lat="46.57806" lon="-1.82759">
        <ele>-152.60000610352</ele>
        <time>2021-02-23T09:00:21.000Z</time>
      </trkpt>
      <trkpt lat="46.57806" lon="-1.82767">
        <ele>-152.39999389648</ele>
        <time>2021-02-23T09:00:22.000Z</time>
      </trkpt>
      <trkpt lat="46.57807" lon="-1.82773">
        <ele>-152.19999694824</ele>
        <time>2021-02-23T09:00:23.000Z</time>
      </trkpt>
      <trkpt lat="46.57806" lon="-1.82779">
        <ele>-152.19999694824</ele>
        <time>2021-02-23T09:00:24.000Z</time>
      </trkpt>
      <trkpt lat="46.57807" lon="-1.82785">
        <ele>-151.80000305176</ele>
        <time>2021-02-23T09:00:25.000Z</time>
      </trkpt>
      <trkpt lat="46.5781" lon="-1.82791">
        <ele>-151.39999389648</ele>
        <time>2021-02-23T09:00:26.000Z</time>
      </trkpt>
      <trkpt lat="46.57812" lon="-1.82793">
        <ele>-151</ele>
        <time>2021-02-23T09:00:27.000Z</time>
      </trkpt>
      <trkpt lat="46.57814" lon="-1.82798">
        <ele>-150.80000305176</ele>
        <time>2021-02-23T09:00:28.000Z</time>
      </trkpt>
      <trkpt lat="46.57817" lon="-1.82806">
        <ele>-150.80000305176</ele>
        <time>2021-02-23T09:00:29.000Z</time>
      </trkpt>
      <trkpt lat="46.57821" lon="-1.82827">
        <ele>-150.60000610352</ele>
        <time>2021-02-23T09:00:31.000Z</time>
      </trkpt>
      <trkpt lat="46.57821" lon="-1.82837">
        <ele>-150.60000610352</ele>
        <time>2021-02-23T09:00:32.000Z</time>
      </trkpt>
      <trkpt lat="46.5782" lon="-1.82845">
        <ele>-150.60000610352</ele>
        <time>2021-02-23T09:00:33.000Z</time>
      </trkpt>
      <trkpt lat="46.57821" lon="-1.82851">
        <ele>-150.60000610352</ele>
        <time>2021-02-23T09:00:34.000Z</time>
      </trkpt>
      <trkpt lat="46.57821" lon="-1.8286">
        <ele>-150.60000610352</ele>
        <time>2021-02-23T09:00:35.000Z</time>
      </trkpt>
      <trkpt lat="46.57821" lon="-1.82868">
        <ele>-150.60000610352</ele>
        <time>2021-02-23T09:00:36.000Z</time>
      </trkpt>
      <trkpt lat="46.57825" lon="-1.82884">
        <ele>-150.80000305176</ele>
        <time>2021-02-23T09:00:38.000Z</time>
      </trkpt>
      <trkpt lat="46.57828" lon="-1.82895">
        <ele>-150.80000305176</ele>
        <time>2021-02-23T09:00:39.000Z</time>
      </trkpt>
      <trkpt lat="46.5783" lon="-1.82903">
        <ele>-150.80000305176</ele>
        <time>2021-02-23T09:00:40.000Z</time>
      </trkpt>
      <trkpt lat="46.57831" lon="-1.8291">
        <ele>-150.80000305176</ele>
        <time>2021-02-23T09:00:41.000Z</time>
      </trkpt>
      <trkpt lat="46.57832" lon="-1.82917">
        <ele>-151</ele>
        <time>2021-02-23T09:00:42.000Z</time>
      </trkpt>
      <trkpt lat="46.57832" lon="-1.82921">
        <ele>-151.19999694824</ele>
        <time>2021-02-23T09:00:43.000Z</time>
      </trkpt>
      <trkpt lat="46.57832" lon="-1.82929">
        <ele>-151.60000610352</ele>
        <time>2021-02-23T09:00:44.000Z</time>
      </trkpt>
      <trkpt lat="46.57833" lon="-1.82938">
        <ele>-151.60000610352</ele>
        <time>2021-02-23T09:00:45.000Z</time>
      </trkpt>
      <trkpt lat="46.57836" lon="-1.82955">
        <ele>-152.60000610352</ele>
        <time>2021-02-23T09:00:47.000Z</time>
      </trkpt>
      <trkpt lat="46.57838" lon="-1.82963">
        <ele>-152.80000305176</ele>
        <time>2021-02-23T09:00:48.000Z</time>
      </trkpt>
      <trkpt lat="46.5784" lon="-1.82975">
        <ele>-152.80000305176</ele>
        <time>2021-02-23T09:00:49.000Z</time>
      </trkpt>
      <trkpt lat="46.57843" lon="-1.82986">
        <ele>-152.80000305176</ele>
        <time>2021-02-23T09:00:50.000Z</time>
      </trkpt>
      <trkpt lat="46.57845" lon="-1.82997">
        <ele>-152.80000305176</ele>
        <time>2021-02-23T09:00:51.000Z</time>
      </trkpt>
      <trkpt lat="46.57846" lon="-1.83004">
        <ele>-152.80000305176</ele>
        <time>2021-02-23T09:00:52.000Z</time>
      </trkpt>
      <trkpt lat="46.57846" lon="-1.83013">
        <ele>-152.80000305176</ele>
        <time>2021-02-23T09:00:53.000Z</time>
      </trkpt>
      <trkpt lat="46.57847" lon="-1.83022">
        <ele>-152.80000305176</ele>
        <time>2021-02-23T09:00:54.000Z</time>
      </trkpt>
      <trkpt lat="46.57847" lon="-1.8303">
        <ele>-152.80000305176</ele>
        <time>2021-02-23T09:00:55.000Z</time>
      </trkpt>
      <trkpt lat="46.57848" lon="-1.83037">
        <ele>-152.60000610352</ele>
        <time>2021-02-23T09:00:56.000Z</time>
      </trkpt>
      <trkpt lat="46.57846" lon="-1.83065">
        <ele>-151.80000305176</ele>
        <time>2021-02-23T09:00:59.000Z</time>
      </trkpt>
      <trkpt lat="46.57844" lon="-1.83074">
        <ele>-151.60000610352</ele>
        <time>2021-02-23T09:01:00.000Z</time>
      </trkpt>
      <trkpt lat="46.57841" lon="-1.83081">
        <ele>-151.60000610352</ele>
        <time>2021-02-23T09:01:01.000Z</time>
      </trkpt>
      <trkpt lat="46.57839" lon="-1.83098">
        <ele>-151.60000610352</ele>
        <time>2021-02-23T09:01:03.000Z</time>
      </trkpt>
      <trkpt lat="46.57839" lon="-1.83107">
        <ele>-151.60000610352</ele>
        <time>2021-02-23T09:01:04.000Z</time>
      </trkpt>
      <trkpt lat="46.5784" lon="-1.83114">
        <ele>-151.39999389648</ele>
        <time>2021-02-23T09:01:05.000Z</time>
      </trkpt>
      <trkpt lat="46.57843" lon="-1.83122">
        <ele>-151.39999389648</ele>
        <time>2021-02-23T09:01:06.000Z</time>
      </trkpt>
      <trkpt lat="46.57846" lon="-1.8313">
        <ele>-151.39999389648</ele>
        <time>2021-02-23T09:01:07.000Z</time>
      </trkpt>
      <trkpt lat="46.57849" lon="-1.83139">
        <ele>-151.60000610352</ele>
        <time>2021-02-23T09:01:08.000Z</time>
      </trkpt>
      <trkpt lat="46.57857" lon="-1.83158">
        <ele>-151.80000305176</ele>
        <time>2021-02-23T09:01:10.000Z</time>
      </trkpt>
      <trkpt lat="46.5786" lon="-1.83165">
        <ele>-152</ele>
        <time>2021-02-23T09:01:11.000Z</time>
      </trkpt>
      <trkpt lat="46.57865" lon="-1.83175">
        <ele>-152.19999694824</ele>
        <time>2021-02-23T09:01:12.000Z</time>
      </trkpt>
      <trkpt lat="46.5787" lon="-1.83181">
        <ele>-152.39999389648</ele>
        <time>2021-02-23T09:01:13.000Z</time>
      </trkpt>
      <trkpt lat="46.57874" lon="-1.83186">
        <ele>-152.39999389648</ele>
        <time>2021-02-23T09:01:14.000Z</time>
      </trkpt>
      <trkpt lat="46.57878" lon="-1.8319">
        <ele>-152.60000610352</ele>
        <time>2021-02-23T09:01:15.000Z</time>
      </trkpt>
      <trkpt lat="46.57884" lon="-1.83194">
        <ele>-152.60000610352</ele>
        <time>2021-02-23T09:01:16.000Z</time>
      </trkpt>
      <trkpt lat="46.5789" lon="-1.832">
        <ele>-152.60000610352</ele>
        <time>2021-02-23T09:01:17.000Z</time>
      </trkpt>
      <trkpt lat="46.57895" lon="-1.83205">
        <ele>-152.60000610352</ele>
        <time>2021-02-23T09:01:18.000Z</time>
      </trkpt>
      <trkpt lat="46.57906" lon="-1.83223">
        <ele>-152.39999389648</ele>
        <time>2021-02-23T09:01:21.000Z</time>
      </trkpt>
      <trkpt lat="46.57909" lon="-1.83229">
        <ele>-152.39999389648</ele>
        <time>2021-02-23T09:01:22.000Z</time>
      </trkpt>
      <trkpt lat="46.57913" lon="-1.83239">
        <ele>-152.19999694824</ele>
        <time>2021-02-23T09:01:24.000Z</time>
      </trkpt>
      <trkpt lat="46.57916" lon="-1.83246">
        <ele>-152.19999694824</ele>
        <time>2021-02-23T09:01:25.000Z</time>
      </trkpt>
      <trkpt lat="46.57923" lon="-1.8326">
        <ele>-152</ele>
        <time>2021-02-23T09:01:27.000Z</time>
      </trkpt>
      <trkpt lat="46.57925" lon="-1.83266">
        <ele>-152</ele>
        <time>2021-02-23T09:01:28.000Z</time>
      </trkpt>
      <trkpt lat="46.57931" lon="-1.83281">
        <ele>-151.80000305176</ele>
        <time>2021-02-23T09:01:30.000Z</time>
      </trkpt>
      <trkpt lat="46.57936" lon="-1.83294">
        <ele>-151.80000305176</ele>
        <time>2021-02-23T09:01:32.000Z</time>
      </trkpt>
      <trkpt lat="46.57939" lon="-1.83301">
        <ele>-151.60000610352</ele>
        <time>2021-02-23T09:01:33.000Z</time>
      </trkpt>
      <trkpt lat="46.57941" lon="-1.83309">
        <ele>-151.60000610352</ele>
        <time>2021-02-23T09:01:34.000Z</time>
      </trkpt>
      <trkpt lat="46.57943" lon="-1.83318">
        <ele>-151.60000610352</ele>
        <time>2021-02-23T09:01:35.000Z</time>
      </trkpt>
      <trkpt lat="46.57946" lon="-1.83328">
        <ele>-151.39999389648</ele>
        <time>2021-02-23T09:01:36.000Z</time>
      </trkpt>
      <trkpt lat="46.57948" lon="-1.83336">
        <ele>-151.39999389648</ele>
        <time>2021-02-23T09:01:37.000Z</time>
      </trkpt>
      <trkpt lat="46.5795" lon="-1.83342">
        <ele>-151.39999389648</ele>
        <time>2021-02-23T09:01:38.000Z</time>
      </trkpt>
      <trkpt lat="46.57953" lon="-1.8335">
        <ele>-151.39999389648</ele>
        <time>2021-02-23T09:01:39.000Z</time>
      </trkpt>
      <trkpt lat="46.57956" lon="-1.83357">
        <ele>-151.39999389648</ele>
        <time>2021-02-23T09:01:40.000Z</time>
      </trkpt>
      <trkpt lat="46.57959" lon="-1.83363">
        <ele>-151.39999389648</ele>
        <time>2021-02-23T09:01:41.000Z</time>
      </trkpt>
      <trkpt lat="46.57961" lon="-1.83369">
        <ele>-151.19999694824</ele>
        <time>2021-02-23T09:01:42.000Z</time>
      </trkpt>
      <trkpt lat="46.57963" lon="-1.83373">
        <ele>-151</ele>
        <time>2021-02-23T09:01:43.000Z</time>
      </trkpt>
      <trkpt lat="46.57966" lon="-1.83379">
        <ele>-150.80000305176</ele>
        <time>2021-02-23T09:01:44.000Z</time>
      </trkpt>
      <trkpt lat="46.57969" lon="-1.83383">
        <ele>-150.39999389648</ele>
        <time>2021-02-23T09:01:45.000Z</time>
      </trkpt>
      <trkpt lat="46.57971" lon="-1.83386">
        <ele>-150</ele>
        <time>2021-02-23T09:01:46.000Z</time>
      </trkpt>
      <trkpt lat="46.57973" lon="-1.8339">
        <ele>-149.80000305176</ele>
        <time>2021-02-23T09:01:47.000Z</time>
      </trkpt>
      <trkpt lat="46.57976" lon="-1.83395">
        <ele>-149.19999694824</ele>
        <time>2021-02-23T09:01:48.000Z</time>
      </trkpt>
      <trkpt lat="46.5798" lon="-1.83403">
        <ele>-149</ele>
        <time>2021-02-23T09:01:50.000Z</time>
      </trkpt>
      <trkpt lat="46.57983" lon="-1.83409">
        <ele>-148.80000305176</ele>
        <time>2021-02-23T09:01:51.000Z</time>
      </trkpt>
      <trkpt lat="46.57986" lon="-1.83416">
        <ele>-148.60000610352</ele>
        <time>2021-02-23T09:01:52.000Z</time>
      </trkpt>
      <trkpt lat="46.5799" lon="-1.83423">
        <ele>-148.39999389648</ele>
        <time>2021-02-23T09:01:53.000Z</time>
      </trkpt>
      <trkpt lat="46.57996" lon="-1.83432">
        <ele>-148.39999389648</ele>
        <time>2021-02-23T09:01:54.000Z</time>
      </trkpt>
      <trkpt lat="46.58" lon="-1.8344">
        <ele>-148.39999389648</ele>
        <time>2021-02-23T09:01:55.000Z</time>
      </trkpt>
      <trkpt lat="46.58004" lon="-1.83445">
        <ele>-148.60000610352</ele>
        <time>2021-02-23T09:01:56.000Z</time>
      </trkpt>
      <trkpt lat="46.58008" lon="-1.8345">
        <ele>-148.39999389648</ele>
        <time>2021-02-23T09:01:57.000Z</time>
      </trkpt>
      <trkpt lat="46.58013" lon="-1.83457">
        <ele>-148.80000305176</ele>
        <time>2021-02-23T09:01:58.000Z</time>
      </trkpt>
      <trkpt lat="46.58016" lon="-1.83464">
        <ele>-148.80000305176</ele>
        <time>2021-02-23T09:01:59.000Z</time>
      </trkpt>
      <trkpt lat="46.58018" lon="-1.83469">
        <ele>-148.80000305176</ele>
        <time>2021-02-23T09:02:00.000Z</time>
      </trkpt>
      <trkpt lat="46.5802" lon="-1.83476">
        <ele>-148.80000305176</ele>
        <time>2021-02-23T09:02:01.000Z</time>
      </trkpt>
      <trkpt lat="46.58023" lon="-1.83489">
        <ele>-148.80000305176</ele>
        <time>2021-02-23T09:02:02.000Z</time>
      </trkpt>
      <trkpt lat="46.58024" lon="-1.83498">
        <ele>-148.80000305176</ele>
        <time>2021-02-23T09:02:03.000Z</time>
      </trkpt>
      <trkpt lat="46.58026" lon="-1.83508">
        <ele>-148.80000305176</ele>
        <time>2021-02-23T09:02:04.000Z</time>
      </trkpt>
      <trkpt lat="46.58028" lon="-1.83516">
        <ele>-149</ele>
        <time>2021-02-23T09:02:05.000Z</time>
      </trkpt>
      <trkpt lat="46.58031" lon="-1.83527">
        <ele>-149</ele>
        <time>2021-02-23T09:02:06.000Z</time>
      </trkpt>
      <trkpt lat="46.58032" lon="-1.83537">
        <ele>-149</ele>
        <time>2021-02-23T09:02:07.000Z</time>
      </trkpt>
      <trkpt lat="46.58033" lon="-1.83548">
        <ele>-149</ele>
        <time>2021-02-23T09:02:08.000Z</time>
      </trkpt>
      <trkpt lat="46.58033" lon="-1.83555">
        <ele>-149</ele>
        <time>2021-02-23T09:02:09.000Z</time>
      </trkpt>
      <trkpt lat="46.58035" lon="-1.83562">
        <ele>-149</ele>
        <time>2021-02-23T09:02:10.000Z</time>
      </trkpt>
      <trkpt lat="46.58038" lon="-1.8357">
        <ele>-149.19999694824</ele>
        <time>2021-02-23T09:02:11.000Z</time>
      </trkpt>
      <trkpt lat="46.58041" lon="-1.83579">
        <ele>-149.19999694824</ele>
        <time>2021-02-23T09:02:12.000Z</time>
      </trkpt>
      <trkpt lat="46.58043" lon="-1.83588">
        <ele>-149.39999389648</ele>
        <time>2021-02-23T09:02:13.000Z</time>
      </trkpt>
      <trkpt lat="46.58044" lon="-1.83593">
        <ele>-149.60000610352</ele>
        <time>2021-02-23T09:02:14.000Z</time>
      </trkpt>
      <trkpt lat="46.58046" lon="-1.83606">
        <ele>-149.60000610352</ele>
        <time>2021-02-23T09:02:16.000Z</time>
      </trkpt>
      <trkpt lat="46.58048" lon="-1.83612">
        <ele>-149.80000305176</ele>
        <time>2021-02-23T09:02:17.000Z</time>
      </trkpt>
      <trkpt lat="46.5805" lon="-1.83618">
        <ele>-149.80000305176</ele>
        <time>2021-02-23T09:02:18.000Z</time>
      </trkpt>
      <trkpt lat="46.58054" lon="-1.83629">
        <ele>-150</ele>
        <time>2021-02-23T09:02:20.000Z</time>
      </trkpt>
      <trkpt lat="46.58058" lon="-1.83637">
        <ele>-150</ele>
        <time>2021-02-23T09:02:21.000Z</time>
      </trkpt>
      <trkpt lat="46.58061" lon="-1.83643">
        <ele>-150</ele>
        <time>2021-02-23T09:02:22.000Z</time>
      </trkpt>
      <trkpt lat="46.58067" lon="-1.83663">
        <ele>-150.19999694824</ele>
        <time>2021-02-23T09:02:25.000Z</time>
      </trkpt>
      <trkpt lat="46.5807" lon="-1.83671">
        <ele>-150.19999694824</ele>
        <time>2021-02-23T09:02:26.000Z</time>
      </trkpt>
      <trkpt lat="46.58074" lon="-1.83679">
        <ele>-150.19999694824</ele>
        <time>2021-02-23T09:02:27.000Z</time>
      </trkpt>
      <trkpt lat="46.58082" lon="-1.83692">
        <ele>-150.19999694824</ele>
        <time>2021-02-23T09:02:29.000Z</time>
      </trkpt>
      <trkpt lat="46.58087" lon="-1.837">
        <ele>-150.19999694824</ele>
        <time>2021-02-23T09:02:30.000Z</time>
      </trkpt>
      <trkpt lat="46.58093" lon="-1.83708">
        <ele>-150.19999694824</ele>
        <time>2021-02-23T09:02:31.000Z</time>
      </trkpt>
      <trkpt lat="46.58106" lon="-1.83724">
        <ele>-150.19999694824</ele>
        <time>2021-02-23T09:02:34.000Z</time>
      </trkpt>
      <trkpt lat="46.58118" lon="-1.83729">
        <ele>-150.39999389648</ele>
        <time>2021-02-23T09:02:36.000Z</time>
      </trkpt>
      <trkpt lat="46.58124" lon="-1.83726">
        <ele>-150.39999389648</ele>
        <time>2021-02-23T09:02:37.000Z</time>
      </trkpt>
      <trkpt lat="46.58131" lon="-1.83722">
        <ele>-150.39999389648</ele>
        <time>2021-02-23T09:02:38.000Z</time>
      </trkpt>
      <trkpt lat="46.58138" lon="-1.83714">
        <ele>-150.80000305176</ele>
        <time>2021-02-23T09:02:39.000Z</time>
      </trkpt>
      <trkpt lat="46.58145" lon="-1.83708">
        <ele>-151.60000610352</ele>
        <time>2021-02-23T09:02:40.000Z</time>
      </trkpt>
      <trkpt lat="46.58153" lon="-1.83707">
        <ele>-152</ele>
        <time>2021-02-23T09:02:41.000Z</time>
      </trkpt>
      <trkpt lat="46.58159" lon="-1.83709">
        <ele>-152.39999389648</ele>
        <time>2021-02-23T09:02:42.000Z</time>
      </trkpt>
      <trkpt lat="46.58167" lon="-1.83711">
        <ele>-152.60000610352</ele>
        <time>2021-02-23T09:02:43.000Z</time>
      </trkpt>
      <trkpt lat="46.58176" lon="-1.83715">
        <ele>-153.19999694824</ele>
        <time>2021-02-23T09:02:44.000Z</time>
      </trkpt>
      <trkpt lat="46.58183" lon="-1.83718">
        <ele>-153.19999694824</ele>
        <time>2021-02-23T09:02:45.000Z</time>
      </trkpt>
      <trkpt lat="46.58189" lon="-1.83721">
        <ele>-153.19999694824</ele>
        <time>2021-02-23T09:02:46.000Z</time>
      </trkpt>
      <trkpt lat="46.58194" lon="-1.83723">
        <ele>-153.39999389648</ele>
        <time>2021-02-23T09:02:47.000Z</time>
      </trkpt>
      <trkpt lat="46.58201" lon="-1.83724">
        <ele>-153.39999389648</ele>
        <time>2021-02-23T09:02:48.000Z</time>
      </trkpt>
      <trkpt lat="46.58225" lon="-1.83728">
        <ele>-152.60000610352</ele>
        <time>2021-02-23T09:02:52.000Z</time>
      </trkpt>
      <trkpt lat="46.58239" lon="-1.83735">
        <ele>-152.39999389648</ele>
        <time>2021-02-23T09:02:54.000Z</time>
      </trkpt>
      <trkpt lat="46.58244" lon="-1.83742">
        <ele>-152.39999389648</ele>
        <time>2021-02-23T09:02:55.000Z</time>
      </trkpt>
      <trkpt lat="46.58247" lon="-1.83753">
        <ele>-152.39999389648</ele>
        <time>2021-02-23T09:02:56.000Z</time>
      </trkpt>
      <trkpt lat="46.5825" lon="-1.83765">
        <ele>-152.39999389648</ele>
        <time>2021-02-23T09:02:57.000Z</time>
      </trkpt>
      <trkpt lat="46.58253" lon="-1.83777">
        <ele>-153</ele>
        <time>2021-02-23T09:02:58.000Z</time>
      </trkpt>
      <trkpt lat="46.58256" lon="-1.83787">
        <ele>-153.60000610352</ele>
        <time>2021-02-23T09:02:59.000Z</time>
      </trkpt>
      <trkpt lat="46.5826" lon="-1.83792">
        <ele>-154</ele>
        <time>2021-02-23T09:03:00.000Z</time>
      </trkpt>
      <trkpt lat="46.58264" lon="-1.83794">
        <ele>-154.39999389648</ele>
        <time>2021-02-23T09:03:01.000Z</time>
      </trkpt>
      <trkpt lat="46.58272" lon="-1.83791">
        <ele>-154.39999389648</ele>
        <time>2021-02-23T09:03:02.000Z</time>
      </trkpt>
      <trkpt lat="46.5828" lon="-1.83785">
        <ele>-154.60000610352</ele>
        <time>2021-02-23T09:03:03.000Z</time>
      </trkpt>
      <trkpt lat="46.58286" lon="-1.83781">
        <ele>-154.60000610352</ele>
        <time>2021-02-23T09:03:04.000Z</time>
      </trkpt>
      <trkpt lat="46.58297" lon="-1.83775">
        <ele>-155</ele>
        <time>2021-02-23T09:03:06.000Z</time>
      </trkpt>
      <trkpt lat="46.58304" lon="-1.83771">
        <ele>-155</ele>
        <time>2021-02-23T09:03:07.000Z</time>
      </trkpt>
      <trkpt lat="46.5831" lon="-1.83768">
        <ele>-155</ele>
        <time>2021-02-23T09:03:08.000Z</time>
      </trkpt>
      <trkpt lat="46.58314" lon="-1.83765">
        <ele>-155</ele>
        <time>2021-02-23T09:03:09.000Z</time>
      </trkpt>
      <trkpt lat="46.58319" lon="-1.83765">
        <ele>-155</ele>
        <time>2021-02-23T09:03:10.000Z</time>
      </trkpt>
      <trkpt lat="46.58325" lon="-1.83767">
        <ele>-155</ele>
        <time>2021-02-23T09:03:11.000Z</time>
      </trkpt>
      <trkpt lat="46.58329" lon="-1.83769">
        <ele>-155</ele>
        <time>2021-02-23T09:03:12.000Z</time>
      </trkpt>
      <trkpt lat="46.58334" lon="-1.83771">
        <ele>-155</ele>
        <time>2021-02-23T09:03:13.000Z</time>
      </trkpt>
      <trkpt lat="46.58337" lon="-1.83772">
        <ele>-155</ele>
        <time>2021-02-23T09:03:14.000Z</time>
      </trkpt>
      <trkpt lat="46.58343" lon="-1.83772">
        <ele>-154.60000610352</ele>
        <time>2021-02-23T09:03:15.000Z</time>
      </trkpt>
      <trkpt lat="46.58349" lon="-1.83774">
        <ele>-154.60000610352</ele>
        <time>2021-02-23T09:03:16.000Z</time>
      </trkpt>
      <trkpt lat="46.58353" lon="-1.83777">
        <ele>-154.60000610352</ele>
        <time>2021-02-23T09:03:17.000Z</time>
      </trkpt>
      <trkpt lat="46.58358" lon="-1.83783">
        <ele>-154.60000610352</ele>
        <time>2021-02-23T09:03:18.000Z</time>
      </trkpt>
      <trkpt lat="46.58362" lon="-1.8379">
        <ele>-154.60000610352</ele>
        <time>2021-02-23T09:03:19.000Z</time>
      </trkpt>
      <trkpt lat="46.58365" lon="-1.83796">
        <ele>-154.39999389648</ele>
        <time>2021-02-23T09:03:20.000Z</time>
      </trkpt>
      <trkpt lat="46.58369" lon="-1.83802">
        <ele>-154.39999389648</ele>
        <time>2021-02-23T09:03:21.000Z</time>
      </trkpt>
      <trkpt lat="46.58373" lon="-1.83809">
        <ele>-154.39999389648</ele>
        <time>2021-02-23T09:03:22.000Z</time>
      </trkpt>
      <trkpt lat="46.5838" lon="-1.83825">
        <ele>-154.39999389648</ele>
        <time>2021-02-23T09:03:24.000Z</time>
      </trkpt>
      <trkpt lat="46.58384" lon="-1.83832">
        <ele>-154.60000610352</ele>
        <time>2021-02-23T09:03:25.000Z</time>
      </trkpt>
      <trkpt lat="46.58389" lon="-1.83839">
        <ele>-154.60000610352</ele>
        <time>2021-02-23T09:03:26.000Z</time>
      </trkpt>
      <trkpt lat="46.584" lon="-1.83852">
        <ele>-154.80000305176</ele>
        <time>2021-02-23T09:03:28.000Z</time>
      </trkpt>
      <trkpt lat="46.58405" lon="-1.83857">
        <ele>-154.80000305176</ele>
        <time>2021-02-23T09:03:29.000Z</time>
      </trkpt>
      <trkpt lat="46.5841" lon="-1.83861">
        <ele>-154.80000305176</ele>
        <time>2021-02-23T09:03:30.000Z</time>
      </trkpt>
      <trkpt lat="46.58415" lon="-1.83867">
        <ele>-155</ele>
        <time>2021-02-23T09:03:31.000Z</time>
      </trkpt>
      <trkpt lat="46.58419" lon="-1.83872">
        <ele>-155</ele>
        <time>2021-02-23T09:03:32.000Z</time>
      </trkpt>
      <trkpt lat="46.58423" lon="-1.83877">
        <ele>-155</ele>
        <time>2021-02-23T09:03:33.000Z</time>
      </trkpt>
      <trkpt lat="46.58426" lon="-1.83883">
        <ele>-155</ele>
        <time>2021-02-23T09:03:34.000Z</time>
      </trkpt>
      <trkpt lat="46.58432" lon="-1.83896">
        <ele>-155.19999694824</ele>
        <time>2021-02-23T09:03:36.000Z</time>
      </trkpt>
      <trkpt lat="46.58441" lon="-1.83907">
        <ele>-155.19999694824</ele>
        <time>2021-02-23T09:03:38.000Z</time>
      </trkpt>
      <trkpt lat="46.58448" lon="-1.83912">
        <ele>-155.19999694824</ele>
        <time>2021-02-23T09:03:39.000Z</time>
      </trkpt>
      <trkpt lat="46.58454" lon="-1.83915">
        <ele>-155.19999694824</ele>
        <time>2021-02-23T09:03:40.000Z</time>
      </trkpt>
      <trkpt lat="46.5846" lon="-1.83919">
        <ele>-155.19999694824</ele>
        <time>2021-02-23T09:03:41.000Z</time>
      </trkpt>
      <trkpt lat="46.58474" lon="-1.83927">
        <ele>-155.19999694824</ele>
        <time>2021-02-23T09:03:43.000Z</time>
      </trkpt>
      <trkpt lat="46.58482" lon="-1.83932">
        <ele>-155.19999694824</ele>
        <time>2021-02-23T09:03:44.000Z</time>
      </trkpt>
      <trkpt lat="46.58488" lon="-1.83938">
        <ele>-155.19999694824</ele>
        <time>2021-02-23T09:03:45.000Z</time>
      </trkpt>
      <trkpt lat="46.58509" lon="-1.8395">
        <ele>-155.19999694824</ele>
        <time>2021-02-23T09:03:48.000Z</time>
      </trkpt>
      <trkpt lat="46.5852" lon="-1.83956">
        <ele>-155.19999694824</ele>
        <time>2021-02-23T09:03:50.000Z</time>
      </trkpt>
      <trkpt lat="46.58525" lon="-1.83959">
        <ele>-155.19999694824</ele>
        <time>2021-02-23T09:03:51.000Z</time>
      </trkpt>
      <trkpt lat="46.58531" lon="-1.83962">
        <ele>-155.19999694824</ele>
        <time>2021-02-23T09:03:52.000Z</time>
      </trkpt>
      <trkpt lat="46.58542" lon="-1.83965">
        <ele>-155.39999389648</ele>
        <time>2021-02-23T09:03:54.000Z</time>
      </trkpt>
      <trkpt lat="46.58548" lon="-1.83964">
        <ele>-155.60000610352</ele>
        <time>2021-02-23T09:03:55.000Z</time>
      </trkpt>
      <trkpt lat="46.58555" lon="-1.8396">
        <ele>-155.60000610352</ele>
        <time>2021-02-23T09:03:56.000Z</time>
      </trkpt>
      <trkpt lat="46.58562" lon="-1.83957">
        <ele>-155.60000610352</ele>
        <time>2021-02-23T09:03:57.000Z</time>
      </trkpt>
      <trkpt lat="46.58568" lon="-1.83953">
        <ele>-155.60000610352</ele>
        <time>2021-02-23T09:03:58.000Z</time>
      </trkpt>
      <trkpt lat="46.58574" lon="-1.83952">
        <ele>-155.80000305176</ele>
        <time>2021-02-23T09:03:59.000Z</time>
      </trkpt>
      <trkpt lat="46.5858" lon="-1.83951">
        <ele>-155.80000305176</ele>
        <time>2021-02-23T09:04:00.000Z</time>
      </trkpt>
      <trkpt lat="46.58586" lon="-1.83949">
        <ele>-155.80000305176</ele>
        <time>2021-02-23T09:04:01.000Z</time>
      </trkpt>
      <trkpt lat="46.58592" lon="-1.83947">
        <ele>-156</ele>
        <time>2021-02-23T09:04:02.000Z</time>
      </trkpt>
      <trkpt lat="46.58597" lon="-1.83944">
        <ele>-156</ele>
        <time>2021-02-23T09:04:03.000Z</time>
      </trkpt>
      <trkpt lat="46.58602" lon="-1.8394">
        <ele>-156.19999694824</ele>
        <time>2021-02-23T09:04:04.000Z</time>
      </trkpt>
      <trkpt lat="46.58606" lon="-1.83937">
        <ele>-156.19999694824</ele>
        <time>2021-02-23T09:04:05.000Z</time>
      </trkpt>
      <trkpt lat="46.58609" lon="-1.83934">
        <ele>-156.19999694824</ele>
        <time>2021-02-23T09:04:06.000Z</time>
      </trkpt>
      <trkpt lat="46.58613" lon="-1.83932">
        <ele>-156.19999694824</ele>
        <time>2021-02-23T09:04:07.000Z</time>
      </trkpt>
      <trkpt lat="46.58621" lon="-1.83925">
        <ele>-156.39999389648</ele>
        <time>2021-02-23T09:04:09.000Z</time>
      </trkpt>
      <trkpt lat="46.58625" lon="-1.83921">
        <ele>-156.39999389648</ele>
        <time>2021-02-23T09:04:10.000Z</time>
      </trkpt>
      <trkpt lat="46.58633" lon="-1.83912">
        <ele>-156.19999694824</ele>
        <time>2021-02-23T09:04:12.000Z</time>
      </trkpt>
      <trkpt lat="46.58641" lon="-1.83906">
        <ele>-156.19999694824</ele>
        <time>2021-02-23T09:04:14.000Z</time>
      </trkpt>
      <trkpt lat="46.58647" lon="-1.83903">
        <ele>-156.39999389648</ele>
        <time>2021-02-23T09:04:16.000Z</time>
      </trkpt>
      <trkpt lat="46.58655" lon="-1.83902">
        <ele>-156.39999389648</ele>
        <time>2021-02-23T09:04:18.000Z</time>
      </trkpt>
      <trkpt lat="46.58662" lon="-1.83901">
        <ele>-156.60000610352</ele>
        <time>2021-02-23T09:04:20.000Z</time>
      </trkpt>
      <trkpt lat="46.58666" lon="-1.83899">
        <ele>-156.80000305176</ele>
        <time>2021-02-23T09:04:21.000Z</time>
      </trkpt>
      <trkpt lat="46.58687" lon="-1.83893">
        <ele>-157</ele>
        <time>2021-02-23T09:04:25.000Z</time>
      </trkpt>
      <trkpt lat="46.58696" lon="-1.8389">
        <ele>-157</ele>
        <time>2021-02-23T09:04:27.000Z</time>
      </trkpt>
      <trkpt lat="46.58701" lon="-1.83887">
        <ele>-157</ele>
        <time>2021-02-23T09:04:28.000Z</time>
      </trkpt>
      <trkpt lat="46.58714" lon="-1.8388">
        <ele>-157</ele>
        <time>2021-02-23T09:04:30.000Z</time>
      </trkpt>
      <trkpt lat="46.58722" lon="-1.83877">
        <ele>-157</ele>
        <time>2021-02-23T09:04:31.000Z</time>
      </trkpt>
      <trkpt lat="46.5873" lon="-1.83874">
        <ele>-157</ele>
        <time>2021-02-23T09:04:32.000Z</time>
      </trkpt>
      <trkpt lat="46.58736" lon="-1.83872">
        <ele>-157.19999694824</ele>
        <time>2021-02-23T09:04:33.000Z</time>
      </trkpt>
      <trkpt lat="46.5875" lon="-1.83864">
        <ele>-157.19999694824</ele>
        <time>2021-02-23T09:04:35.000Z</time>
      </trkpt>
      <trkpt lat="46.58759" lon="-1.83861">
        <ele>-157.19999694824</ele>
        <time>2021-02-23T09:04:36.000Z</time>
      </trkpt>
      <trkpt lat="46.58778" lon="-1.83853">
        <ele>-157.39999389648</ele>
        <time>2021-02-23T09:04:39.000Z</time>
      </trkpt>
      <trkpt lat="46.58785" lon="-1.83852">
        <ele>-157.39999389648</ele>
        <time>2021-02-23T09:04:40.000Z</time>
      </trkpt>
      <trkpt lat="46.5879" lon="-1.83851">
        <ele>-157.39999389648</ele>
        <time>2021-02-23T09:04:41.000Z</time>
      </trkpt>
      <trkpt lat="46.58796" lon="-1.83849">
        <ele>-157.39999389648</ele>
        <time>2021-02-23T09:04:42.000Z</time>
      </trkpt>
      <trkpt lat="46.58802" lon="-1.83848">
        <ele>-157.39999389648</ele>
        <time>2021-02-23T09:04:43.000Z</time>
      </trkpt>
      <trkpt lat="46.58814" lon="-1.83839">
        <ele>-157.39999389648</ele>
        <time>2021-02-23T09:04:46.000Z</time>
      </trkpt>
      <trkpt lat="46.58832" lon="-1.83831">
        <ele>-157.39999389648</ele>
        <time>2021-02-23T09:04:49.000Z</time>
      </trkpt>
      <trkpt lat="46.58838" lon="-1.83829">
        <ele>-157.39999389648</ele>
        <time>2021-02-23T09:04:50.000Z</time>
      </trkpt>
      <trkpt lat="46.58844" lon="-1.83827">
        <ele>-157.39999389648</ele>
        <time>2021-02-23T09:04:51.000Z</time>
      </trkpt>
      <trkpt lat="46.58854" lon="-1.83824">
        <ele>-157.39999389648</ele>
        <time>2021-02-23T09:04:53.000Z</time>
      </trkpt>
      <trkpt lat="46.58867" lon="-1.83819">
        <ele>-157.60000610352</ele>
        <time>2021-02-23T09:04:55.000Z</time>
      </trkpt>
      <trkpt lat="46.58884" lon="-1.83811">
        <ele>-157.60000610352</ele>
        <time>2021-02-23T09:04:58.000Z</time>
      </trkpt>
      <trkpt lat="46.58904" lon="-1.83803">
        <ele>-157.60000610352</ele>
        <time>2021-02-23T09:05:01.000Z</time>
      </trkpt>
      <trkpt lat="46.58909" lon="-1.83801">
        <ele>-157.60000610352</ele>
        <time>2021-02-23T09:05:02.000Z</time>
      </trkpt>
      <trkpt lat="46.58914" lon="-1.83799">
        <ele>-157.60000610352</ele>
        <time>2021-02-23T09:05:03.000Z</time>
      </trkpt>
      <trkpt lat="46.5892" lon="-1.83796">
        <ele>-157.80000305176</ele>
        <time>2021-02-23T09:05:04.000Z</time>
      </trkpt>
      <trkpt lat="46.58925" lon="-1.83793">
        <ele>-157.80000305176</ele>
        <time>2021-02-23T09:05:05.000Z</time>
      </trkpt>
      <trkpt lat="46.5895" lon="-1.83786">
        <ele>-157.80000305176</ele>
        <time>2021-02-23T09:05:09.000Z</time>
      </trkpt>
      <trkpt lat="46.58961" lon="-1.8378">
        <ele>-157.80000305176</ele>
        <time>2021-02-23T09:05:11.000Z</time>
      </trkpt>
      <trkpt lat="46.58967" lon="-1.83778">
        <ele>-157.80000305176</ele>
        <time>2021-02-23T09:05:12.000Z</time>
      </trkpt>
      <trkpt lat="46.58974" lon="-1.83777">
        <ele>-157.80000305176</ele>
        <time>2021-02-23T09:05:13.000Z</time>
      </trkpt>
      <trkpt lat="46.58979" lon="-1.83775">
        <ele>-157.80000305176</ele>
        <time>2021-02-23T09:05:14.000Z</time>
      </trkpt>
      <trkpt lat="46.58985" lon="-1.83773">
        <ele>-157.80000305176</ele>
        <time>2021-02-23T09:05:15.000Z</time>
      </trkpt>
      <trkpt lat="46.59002" lon="-1.8377">
        <ele>-157.60000610352</ele>
        <time>2021-02-23T09:05:18.000Z</time>
      </trkpt>
      <trkpt lat="46.59012" lon="-1.83766">
        <ele>-157.60000610352</ele>
        <time>2021-02-23T09:05:20.000Z</time>
      </trkpt>
      <trkpt lat="46.5903" lon="-1.83758">
        <ele>-157.80000305176</ele>
        <time>2021-02-23T09:05:23.000Z</time>
      </trkpt>
      <trkpt lat="46.59036" lon="-1.83753">
        <ele>-157.80000305176</ele>
        <time>2021-02-23T09:05:24.000Z</time>
      </trkpt>
      <trkpt lat="46.59041" lon="-1.8375">
        <ele>-157.80000305176</ele>
        <time>2021-02-23T09:05:25.000Z</time>
      </trkpt>
      <trkpt lat="46.59056" lon="-1.83734">
        <ele>-158</ele>
        <time>2021-02-23T09:05:28.000Z</time>
      </trkpt>
      <trkpt lat="46.59075" lon="-1.83701">
        <ele>-158.19999694824</ele>
        <time>2021-02-23T09:05:33.000Z</time>
      </trkpt>
      <trkpt lat="46.59078" lon="-1.83695">
        <ele>-158.19999694824</ele>
        <time>2021-02-23T09:05:34.000Z</time>
      </trkpt>
      <trkpt lat="46.59082" lon="-1.83688">
        <ele>-158.19999694824</ele>
        <time>2021-02-23T09:05:35.000Z</time>
      </trkpt>
      <trkpt lat="46.59086" lon="-1.83679">
        <ele>-158.19999694824</ele>
        <time>2021-02-23T09:05:36.000Z</time>
      </trkpt>
      <trkpt lat="46.591" lon="-1.83652">
        <ele>-157.80000305176</ele>
        <time>2021-02-23T09:05:40.000Z</time>
      </trkpt>
      <trkpt lat="46.59103" lon="-1.83644">
        <ele>-157.80000305176</ele>
        <time>2021-02-23T09:05:41.000Z</time>
      </trkpt>
      <trkpt lat="46.59129" lon="-1.83596">
        <ele>-157.80000305176</ele>
        <time>2021-02-23T09:05:48.000Z</time>
      </trkpt>
      <trkpt lat="46.59132" lon="-1.83589">
        <ele>-157.80000305176</ele>
        <time>2021-02-23T09:05:49.000Z</time>
      </trkpt>
      <trkpt lat="46.59141" lon="-1.83578">
        <ele>-158</ele>
        <time>2021-02-23T09:05:51.000Z</time>
      </trkpt>
      <trkpt lat="46.59154" lon="-1.83561">
        <ele>-158</ele>
        <time>2021-02-23T09:05:54.000Z</time>
      </trkpt>
      <trkpt lat="46.59159" lon="-1.83556">
        <ele>-157.80000305176</ele>
        <time>2021-02-23T09:05:55.000Z</time>
      </trkpt>
      <trkpt lat="46.59173" lon="-1.83541">
        <ele>-158</ele>
        <time>2021-02-23T09:05:58.000Z</time>
      </trkpt>
      <trkpt lat="46.59178" lon="-1.83536">
        <ele>-158</ele>
        <time>2021-02-23T09:05:59.000Z</time>
      </trkpt>
      <trkpt lat="46.59182" lon="-1.83531">
        <ele>-158</ele>
        <time>2021-02-23T09:06:00.000Z</time>
      </trkpt>
      <trkpt lat="46.59187" lon="-1.83528">
        <ele>-158.19999694824</ele>
        <time>2021-02-23T09:06:01.000Z</time>
      </trkpt>
      <trkpt lat="46.59193" lon="-1.83526">
        <ele>-158</ele>
        <time>2021-02-23T09:06:02.000Z</time>
      </trkpt>
      <trkpt lat="46.59198" lon="-1.83524">
        <ele>-158</ele>
        <time>2021-02-23T09:06:03.000Z</time>
      </trkpt>
      <trkpt lat="46.59204" lon="-1.83523">
        <ele>-158</ele>
        <time>2021-02-23T09:06:04.000Z</time>
      </trkpt>
      <trkpt lat="46.59226" lon="-1.83521">
        <ele>-158.19999694824</ele>
        <time>2021-02-23T09:06:08.000Z</time>
      </trkpt>
      <trkpt lat="46.59232" lon="-1.8352">
        <ele>-158.19999694824</ele>
        <time>2021-02-23T09:06:09.000Z</time>
      </trkpt>
      <trkpt lat="46.59241" lon="-1.83515">
        <ele>-158.19999694824</ele>
        <time>2021-02-23T09:06:11.000Z</time>
      </trkpt>
      <trkpt lat="46.59245" lon="-1.83511">
        <ele>-158.19999694824</ele>
        <time>2021-02-23T09:06:12.000Z</time>
      </trkpt>
      <trkpt lat="46.59249" lon="-1.83506">
        <ele>-158.19999694824</ele>
        <time>2021-02-23T09:06:13.000Z</time>
      </trkpt>
      <trkpt lat="46.59253" lon="-1.835">
        <ele>-158</ele>
        <time>2021-02-23T09:06:14.000Z</time>
      </trkpt>
      <trkpt lat="46.59256" lon="-1.83493">
        <ele>-158</ele>
        <time>2021-02-23T09:06:15.000Z</time>
      </trkpt>
      <trkpt lat="46.59258" lon="-1.83486">
        <ele>-158</ele>
        <time>2021-02-23T09:06:16.000Z</time>
      </trkpt>
      <trkpt lat="46.59261" lon="-1.83479">
        <ele>-158</ele>
        <time>2021-02-23T09:06:17.000Z</time>
      </trkpt>
      <trkpt lat="46.59271" lon="-1.83441">
        <ele>-158</ele>
        <time>2021-02-23T09:06:22.000Z</time>
      </trkpt>
      <trkpt lat="46.59274" lon="-1.83434">
        <ele>-158</ele>
        <time>2021-02-23T09:06:23.000Z</time>
      </trkpt>
      <trkpt lat="46.59276" lon="-1.83426">
        <ele>-158</ele>
        <time>2021-02-23T09:06:24.000Z</time>
      </trkpt>
      <trkpt lat="46.59277" lon="-1.83419">
        <ele>-158</ele>
        <time>2021-02-23T09:06:25.000Z</time>
      </trkpt>
      <trkpt lat="46.59278" lon="-1.83388">
        <ele>-158.19999694824</ele>
        <time>2021-02-23T09:06:29.000Z</time>
      </trkpt>
      <trkpt lat="46.59278" lon="-1.8338">
        <ele>-158.19999694824</ele>
        <time>2021-02-23T09:06:30.000Z</time>
      </trkpt>
      <trkpt lat="46.59278" lon="-1.83372">
        <ele>-158.19999694824</ele>
        <time>2021-02-23T09:06:31.000Z</time>
      </trkpt>
      <trkpt lat="46.59278" lon="-1.83365">
        <ele>-158.19999694824</ele>
        <time>2021-02-23T09:06:32.000Z</time>
      </trkpt>
      <trkpt lat="46.59278" lon="-1.83357">
        <ele>-158.19999694824</ele>
        <time>2021-02-23T09:06:33.000Z</time>
      </trkpt>
      <trkpt lat="46.59278" lon="-1.8335">
        <ele>-158.19999694824</ele>
        <time>2021-02-23T09:06:34.000Z</time>
      </trkpt>
      <trkpt lat="46.59279" lon="-1.83343">
        <ele>-158.19999694824</ele>
        <time>2021-02-23T09:06:35.000Z</time>
      </trkpt>
      <trkpt lat="46.59281" lon="-1.83336">
        <ele>-158.19999694824</ele>
        <time>2021-02-23T09:06:36.000Z</time>
      </trkpt>
      <trkpt lat="46.59284" lon="-1.8333">
        <ele>-158.19999694824</ele>
        <time>2021-02-23T09:06:37.000Z</time>
      </trkpt>
      <trkpt lat="46.59288" lon="-1.83327">
        <ele>-158.19999694824</ele>
        <time>2021-02-23T09:06:38.000Z</time>
      </trkpt>
      <trkpt lat="46.59292" lon="-1.83327">
        <ele>-158.19999694824</ele>
        <time>2021-02-23T09:06:39.000Z</time>
      </trkpt>
      <trkpt lat="46.59297" lon="-1.83327">
        <ele>-158.19999694824</ele>
        <time>2021-02-23T09:06:40.000Z</time>
      </trkpt>
      <trkpt lat="46.5933" lon="-1.83336">
        <ele>-158.19999694824</ele>
        <time>2021-02-23T09:06:46.000Z</time>
      </trkpt>
      <trkpt lat="46.59342" lon="-1.83341">
        <ele>-158.19999694824</ele>
        <time>2021-02-23T09:06:48.000Z</time>
      </trkpt>
      <trkpt lat="46.59365" lon="-1.83352">
        <ele>-158.19999694824</ele>
        <time>2021-02-23T09:06:52.000Z</time>
      </trkpt>
      <trkpt lat="46.5937" lon="-1.83355">
        <ele>-158.19999694824</ele>
        <time>2021-02-23T09:06:53.000Z</time>
      </trkpt>
      <trkpt lat="46.59393" lon="-1.83367">
        <ele>-158.19999694824</ele>
        <time>2021-02-23T09:06:57.000Z</time>
      </trkpt>
      <trkpt lat="46.59399" lon="-1.8337">
        <ele>-158</ele>
        <time>2021-02-23T09:06:58.000Z</time>
      </trkpt>
      <trkpt lat="46.59404" lon="-1.83373">
        <ele>-158</ele>
        <time>2021-02-23T09:06:59.000Z</time>
      </trkpt>
      <trkpt lat="46.5941" lon="-1.83375">
        <ele>-158</ele>
        <time>2021-02-23T09:07:00.000Z</time>
      </trkpt>
      <trkpt lat="46.59415" lon="-1.83378">
        <ele>-157.80000305176</ele>
        <time>2021-02-23T09:07:01.000Z</time>
      </trkpt>
      <trkpt lat="46.5942" lon="-1.8338">
        <ele>-157.39999389648</ele>
        <time>2021-02-23T09:07:02.000Z</time>
      </trkpt>
      <trkpt lat="46.59426" lon="-1.83381">
        <ele>-157.39999389648</ele>
        <time>2021-02-23T09:07:03.000Z</time>
      </trkpt>
      <trkpt lat="46.59432" lon="-1.83381">
        <ele>-157.19999694824</ele>
        <time>2021-02-23T09:07:04.000Z</time>
      </trkpt>
      <trkpt lat="46.59437" lon="-1.8338">
        <ele>-157</ele>
        <time>2021-02-23T09:07:05.000Z</time>
      </trkpt>
      <trkpt lat="46.59443" lon="-1.83379">
        <ele>-156.60000610352</ele>
        <time>2021-02-23T09:07:06.000Z</time>
      </trkpt>
      <trkpt lat="46.59448" lon="-1.83376">
        <ele>-156.60000610352</ele>
        <time>2021-02-23T09:07:07.000Z</time>
      </trkpt>
      <trkpt lat="46.59452" lon="-1.83373">
        <ele>-156.39999389648</ele>
        <time>2021-02-23T09:07:08.000Z</time>
      </trkpt>
      <trkpt lat="46.59457" lon="-1.8337">
        <ele>-156.39999389648</ele>
        <time>2021-02-23T09:07:09.000Z</time>
      </trkpt>
      <trkpt lat="46.59461" lon="-1.83367">
        <ele>-156.19999694824</ele>
        <time>2021-02-23T09:07:10.000Z</time>
      </trkpt>
      <trkpt lat="46.59465" lon="-1.83364">
        <ele>-156.19999694824</ele>
        <time>2021-02-23T09:07:11.000Z</time>
      </trkpt>
      <trkpt lat="46.59482" lon="-1.83353">
        <ele>-155.39999389648</ele>
        <time>2021-02-23T09:07:15.000Z</time>
      </trkpt>
      <trkpt lat="46.59491" lon="-1.83347">
        <ele>-155.39999389648</ele>
        <time>2021-02-23T09:07:17.000Z</time>
      </trkpt>
      <trkpt lat="46.59523" lon="-1.83325">
        <ele>-155.60000610352</ele>
        <time>2021-02-23T09:07:24.000Z</time>
      </trkpt>
      <trkpt lat="46.59533" lon="-1.83318">
        <ele>-155.80000305176</ele>
        <time>2021-02-23T09:07:26.000Z</time>
      </trkpt>
      <trkpt lat="46.59548" lon="-1.83309">
        <ele>-156.39999389648</ele>
        <time>2021-02-23T09:07:29.000Z</time>
      </trkpt>
      <trkpt lat="46.59553" lon="-1.83306">
        <ele>-156.60000610352</ele>
        <time>2021-02-23T09:07:30.000Z</time>
      </trkpt>
      <trkpt lat="46.59558" lon="-1.83303">
        <ele>-156.80000305176</ele>
        <time>2021-02-23T09:07:31.000Z</time>
      </trkpt>
      <trkpt lat="46.59563" lon="-1.833">
        <ele>-157</ele>
        <time>2021-02-23T09:07:32.000Z</time>
      </trkpt>
      <trkpt lat="46.59566" lon="-1.83297">
        <ele>-157</ele>
        <time>2021-02-23T09:07:33.000Z</time>
      </trkpt>
      <trkpt lat="46.59569" lon="-1.83297">
        <ele>-157.19999694824</ele>
        <time>2021-02-23T09:07:34.000Z</time>
      </trkpt>
      <trkpt lat="46.59571" lon="-1.83298">
        <ele>-157.39999389648</ele>
        <time>2021-02-23T09:07:35.000Z</time>
      </trkpt>
      <trkpt lat="46.59573" lon="-1.83301">
        <ele>-157.39999389648</ele>
        <time>2021-02-23T09:07:36.000Z</time>
      </trkpt>
      <trkpt lat="46.59574" lon="-1.8331">
        <ele>-157.39999389648</ele>
        <time>2021-02-23T09:07:38.000Z</time>
      </trkpt>
      <trkpt lat="46.59573" lon="-1.83316">
        <ele>-157.60000610352</ele>
        <time>2021-02-23T09:07:39.000Z</time>
      </trkpt>
      <trkpt lat="46.59571" lon="-1.83323">
        <ele>-157.60000610352</ele>
        <time>2021-02-23T09:07:40.000Z</time>
      </trkpt>
      <trkpt lat="46.59569" lon="-1.83331">
        <ele>-157.60000610352</ele>
        <time>2021-02-23T09:07:41.000Z</time>
      </trkpt>
      <trkpt lat="46.59569" lon="-1.83345">
        <ele>-157.60000610352</ele>
        <time>2021-02-23T09:07:43.000Z</time>
      </trkpt>
      <trkpt lat="46.59569" lon="-1.83354">
        <ele>-157.60000610352</ele>
        <time>2021-02-23T09:07:44.000Z</time>
      </trkpt>
      <trkpt lat="46.5957" lon="-1.83372">
        <ele>-157.80000305176</ele>
        <time>2021-02-23T09:07:46.000Z</time>
      </trkpt>
      <trkpt lat="46.5957" lon="-1.83379">
        <ele>-157.80000305176</ele>
        <time>2021-02-23T09:07:47.000Z</time>
      </trkpt>
      <trkpt lat="46.59569" lon="-1.83387">
        <ele>-157.80000305176</ele>
        <time>2021-02-23T09:07:48.000Z</time>
      </trkpt>
      <trkpt lat="46.59567" lon="-1.83394">
        <ele>-157.80000305176</ele>
        <time>2021-02-23T09:07:49.000Z</time>
      </trkpt>
      <trkpt lat="46.59565" lon="-1.83401">
        <ele>-157.80000305176</ele>
        <time>2021-02-23T09:07:50.000Z</time>
      </trkpt>
      <trkpt lat="46.59562" lon="-1.83408">
        <ele>-157.80000305176</ele>
        <time>2021-02-23T09:07:51.000Z</time>
      </trkpt>
      <trkpt lat="46.5956" lon="-1.83413">
        <ele>-157.80000305176</ele>
        <time>2021-02-23T09:07:52.000Z</time>
      </trkpt>
      <trkpt lat="46.59557" lon="-1.83421">
        <ele>-157.80000305176</ele>
        <time>2021-02-23T09:07:53.000Z</time>
      </trkpt>
      <trkpt lat="46.59556" lon="-1.83427">
        <ele>-157.80000305176</ele>
        <time>2021-02-23T09:07:54.000Z</time>
      </trkpt>
      <trkpt lat="46.59556" lon="-1.83436">
        <ele>-157.80000305176</ele>
        <time>2021-02-23T09:07:55.000Z</time>
      </trkpt>
      <trkpt lat="46.59556" lon="-1.83453">
        <ele>-157.80000305176</ele>
        <time>2021-02-23T09:07:57.000Z</time>
      </trkpt>
      <trkpt lat="46.59557" lon="-1.83471">
        <ele>-157.80000305176</ele>
        <time>2021-02-23T09:07:59.000Z</time>
      </trkpt>
      <trkpt lat="46.59561" lon="-1.83531">
        <ele>-157.60000610352</ele>
        <time>2021-02-23T09:08:06.000Z</time>
      </trkpt>
      <trkpt lat="46.59562" lon="-1.8354">
        <ele>-157.80000305176</ele>
        <time>2021-02-23T09:08:07.000Z</time>
      </trkpt>
      <trkpt lat="46.59562" lon="-1.83548">
        <ele>-157.80000305176</ele>
        <time>2021-02-23T09:08:08.000Z</time>
      </trkpt>
      <trkpt lat="46.59562" lon="-1.83557">
        <ele>-157.80000305176</ele>
        <time>2021-02-23T09:08:09.000Z</time>
      </trkpt>
      <trkpt lat="46.59563" lon="-1.8359">
        <ele>-158.19999694824</ele>
        <time>2021-02-23T09:08:13.000Z</time>
      </trkpt>
      <trkpt lat="46.59563" lon="-1.83597">
        <ele>-158.19999694824</ele>
        <time>2021-02-23T09:08:14.000Z</time>
      </trkpt>
      <trkpt lat="46.59563" lon="-1.83605">
        <ele>-158.19999694824</ele>
        <time>2021-02-23T09:08:15.000Z</time>
      </trkpt>
      <trkpt lat="46.59562" lon="-1.83624">
        <ele>-158.19999694824</ele>
        <time>2021-02-23T09:08:17.000Z</time>
      </trkpt>
      <trkpt lat="46.59558" lon="-1.83648">
        <ele>-158.19999694824</ele>
        <time>2021-02-23T09:08:20.000Z</time>
      </trkpt>
      <trkpt lat="46.59554" lon="-1.83693">
        <ele>-158.19999694824</ele>
        <time>2021-02-23T09:08:25.000Z</time>
      </trkpt>
      <trkpt lat="46.59554" lon="-1.83702">
        <ele>-158.19999694824</ele>
        <time>2021-02-23T09:08:26.000Z</time>
      </trkpt>
      <trkpt lat="46.59555" lon="-1.83718">
        <ele>-158.39999389648</ele>
        <time>2021-02-23T09:08:28.000Z</time>
      </trkpt>
      <trkpt lat="46.59556" lon="-1.83736">
        <ele>-158.39999389648</ele>
        <time>2021-02-23T09:08:30.000Z</time>
      </trkpt>
      <trkpt lat="46.59559" lon="-1.83763">
        <ele>-158.60000610352</ele>
        <time>2021-02-23T09:08:33.000Z</time>
      </trkpt>
      <trkpt lat="46.5956" lon="-1.83773">
        <ele>-158.39999389648</ele>
        <time>2021-02-23T09:08:34.000Z</time>
      </trkpt>
      <trkpt lat="46.59563" lon="-1.83791">
        <ele>-158.39999389648</ele>
        <time>2021-02-23T09:08:36.000Z</time>
      </trkpt>
      <trkpt lat="46.59564" lon="-1.83797">
        <ele>-158.39999389648</ele>
        <time>2021-02-23T09:08:37.000Z</time>
      </trkpt>
      <trkpt lat="46.5957" lon="-1.83815">
        <ele>-158.19999694824</ele>
        <time>2021-02-23T09:08:39.000Z</time>
      </trkpt>
      <trkpt lat="46.59589" lon="-1.83851">
        <ele>-157.80000305176</ele>
        <time>2021-02-23T09:08:44.000Z</time>
      </trkpt>
      <trkpt lat="46.59593" lon="-1.83858">
        <ele>-157.80000305176</ele>
        <time>2021-02-23T09:08:45.000Z</time>
      </trkpt>
      <trkpt lat="46.5962" lon="-1.83907">
        <ele>-157.80000305176</ele>
        <time>2021-02-23T09:08:52.000Z</time>
      </trkpt>
      <trkpt lat="46.59625" lon="-1.83916">
        <ele>-157.80000305176</ele>
        <time>2021-02-23T09:08:53.000Z</time>
      </trkpt>
      <trkpt lat="46.59629" lon="-1.83923">
        <ele>-157.80000305176</ele>
        <time>2021-02-23T09:08:54.000Z</time>
      </trkpt>
      <trkpt lat="46.59632" lon="-1.83931">
        <ele>-157.80000305176</ele>
        <time>2021-02-23T09:08:55.000Z</time>
      </trkpt>
      <trkpt lat="46.59634" lon="-1.83938">
        <ele>-157.80000305176</ele>
        <time>2021-02-23T09:08:56.000Z</time>
      </trkpt>
      <trkpt lat="46.59635" lon="-1.83947">
        <ele>-157.80000305176</ele>
        <time>2021-02-23T09:08:57.000Z</time>
      </trkpt>
      <trkpt lat="46.59638" lon="-1.83995">
        <ele>-157.80000305176</ele>
        <time>2021-02-23T09:09:02.000Z</time>
      </trkpt>
      <trkpt lat="46.5964" lon="-1.84004">
        <ele>-157.80000305176</ele>
        <time>2021-02-23T09:09:03.000Z</time>
      </trkpt>
      <trkpt lat="46.59651" lon="-1.84048">
        <ele>-158</ele>
        <time>2021-02-23T09:09:08.000Z</time>
      </trkpt>
      <trkpt lat="46.59655" lon="-1.84056">
        <ele>-158</ele>
        <time>2021-02-23T09:09:09.000Z</time>
      </trkpt>
      <trkpt lat="46.59657" lon="-1.84062">
        <ele>-158</ele>
        <time>2021-02-23T09:09:10.000Z</time>
      </trkpt>
      <trkpt lat="46.5966" lon="-1.8407">
        <ele>-158</ele>
        <time>2021-02-23T09:09:11.000Z</time>
      </trkpt>
      <trkpt lat="46.59677" lon="-1.84109">
        <ele>-158</ele>
        <time>2021-02-23T09:09:16.000Z</time>
      </trkpt>
      <trkpt lat="46.59692" lon="-1.84142">
        <ele>-158</ele>
        <time>2021-02-23T09:09:20.000Z</time>
      </trkpt>
      <trkpt lat="46.59703" lon="-1.84167">
        <ele>-158</ele>
        <time>2021-02-23T09:09:23.000Z</time>
      </trkpt>
      <trkpt lat="46.59707" lon="-1.84174">
        <ele>-158</ele>
        <time>2021-02-23T09:09:24.000Z</time>
      </trkpt>
      <trkpt lat="46.59711" lon="-1.84181">
        <ele>-158</ele>
        <time>2021-02-23T09:09:25.000Z</time>
      </trkpt>
      <trkpt lat="46.59719" lon="-1.84196">
        <ele>-157.80000305176</ele>
        <time>2021-02-23T09:09:27.000Z</time>
      </trkpt>
      <trkpt lat="46.59723" lon="-1.84204">
        <ele>-157.80000305176</ele>
        <time>2021-02-23T09:09:28.000Z</time>
      </trkpt>
      <trkpt lat="46.59727" lon="-1.84211">
        <ele>-157.80000305176</ele>
        <time>2021-02-23T09:09:29.000Z</time>
      </trkpt>
      <trkpt lat="46.59731" lon="-1.84218">
        <ele>-157.80000305176</ele>
        <time>2021-02-23T09:09:30.000Z</time>
      </trkpt>
      <trkpt lat="46.59743" lon="-1.8424">
        <ele>-157.80000305176</ele>
        <time>2021-02-23T09:09:33.000Z</time>
      </trkpt>
      <trkpt lat="46.59747" lon="-1.84247">
        <ele>-157.80000305176</ele>
        <time>2021-02-23T09:09:34.000Z</time>
      </trkpt>
      <trkpt lat="46.59754" lon="-1.84263">
        <ele>-157.60000610352</ele>
        <time>2021-02-23T09:09:36.000Z</time>
      </trkpt>
      <trkpt lat="46.59757" lon="-1.84271">
        <ele>-157.60000610352</ele>
        <time>2021-02-23T09:09:37.000Z</time>
      </trkpt>
      <trkpt lat="46.5976" lon="-1.84279">
        <ele>-157.80000305176</ele>
        <time>2021-02-23T09:09:38.000Z</time>
      </trkpt>
      <trkpt lat="46.59767" lon="-1.84294">
        <ele>-157.60000610352</ele>
        <time>2021-02-23T09:09:40.000Z</time>
      </trkpt>
      <trkpt lat="46.5978" lon="-1.84326">
        <ele>-157.60000610352</ele>
        <time>2021-02-23T09:09:44.000Z</time>
      </trkpt>
      <trkpt lat="46.59794" lon="-1.84367">
        <ele>-157.60000610352</ele>
        <time>2021-02-23T09:09:49.000Z</time>
      </trkpt>
      <trkpt lat="46.59805" lon="-1.844">
        <ele>-157.60000610352</ele>
        <time>2021-02-23T09:09:53.000Z</time>
      </trkpt>
      <trkpt lat="46.59814" lon="-1.84426">
        <ele>-157.60000610352</ele>
        <time>2021-02-23T09:09:56.000Z</time>
      </trkpt>
      <trkpt lat="46.59818" lon="-1.84434">
        <ele>-157.60000610352</ele>
        <time>2021-02-23T09:09:57.000Z</time>
      </trkpt>
      <trkpt lat="46.5982" lon="-1.8444">
        <ele>-157.60000610352</ele>
        <time>2021-02-23T09:09:58.000Z</time>
      </trkpt>
      <trkpt lat="46.59825" lon="-1.84447">
        <ele>-157.80000305176</ele>
        <time>2021-02-23T09:09:59.000Z</time>
      </trkpt>
      <trkpt lat="46.59835" lon="-1.84458">
        <ele>-157.80000305176</ele>
        <time>2021-02-23T09:10:01.000Z</time>
      </trkpt>
      <trkpt lat="46.59841" lon="-1.84461">
        <ele>-157.80000305176</ele>
        <time>2021-02-23T09:10:02.000Z</time>
      </trkpt>
      <trkpt lat="46.59847" lon="-1.84464">
        <ele>-157.80000305176</ele>
        <time>2021-02-23T09:10:03.000Z</time>
      </trkpt>
      <trkpt lat="46.59853" lon="-1.84467">
        <ele>-157.80000305176</ele>
        <time>2021-02-23T09:10:04.000Z</time>
      </trkpt>
      <trkpt lat="46.59859" lon="-1.84469">
        <ele>-157.60000610352</ele>
        <time>2021-02-23T09:10:05.000Z</time>
      </trkpt>
      <trkpt lat="46.59865" lon="-1.84471">
        <ele>-157.60000610352</ele>
        <time>2021-02-23T09:10:06.000Z</time>
      </trkpt>
      <trkpt lat="46.59871" lon="-1.84472">
        <ele>-157.60000610352</ele>
        <time>2021-02-23T09:10:07.000Z</time>
      </trkpt>
      <trkpt lat="46.59878" lon="-1.84472">
        <ele>-157.60000610352</ele>
        <time>2021-02-23T09:10:08.000Z</time>
      </trkpt>
      <trkpt lat="46.59884" lon="-1.8447">
        <ele>-157.60000610352</ele>
        <time>2021-02-23T09:10:09.000Z</time>
      </trkpt>
      <trkpt lat="46.59889" lon="-1.84467">
        <ele>-157.60000610352</ele>
        <time>2021-02-23T09:10:10.000Z</time>
      </trkpt>
      <trkpt lat="46.59895" lon="-1.84462">
        <ele>-157.80000305176</ele>
        <time>2021-02-23T09:10:11.000Z</time>
      </trkpt>
      <trkpt lat="46.599" lon="-1.84456">
        <ele>-157.80000305176</ele>
        <time>2021-02-23T09:10:12.000Z</time>
      </trkpt>
      <trkpt lat="46.59905" lon="-1.84451">
        <ele>-157.60000610352</ele>
        <time>2021-02-23T09:10:13.000Z</time>
      </trkpt>
      <trkpt lat="46.5991" lon="-1.84445">
        <ele>-157.60000610352</ele>
        <time>2021-02-23T09:10:14.000Z</time>
      </trkpt>
      <trkpt lat="46.59916" lon="-1.8444">
        <ele>-157.60000610352</ele>
        <time>2021-02-23T09:10:15.000Z</time>
      </trkpt>
      <trkpt lat="46.59921" lon="-1.84436">
        <ele>-157.60000610352</ele>
        <time>2021-02-23T09:10:16.000Z</time>
      </trkpt>
      <trkpt lat="46.59927" lon="-1.84433">
        <ele>-157.60000610352</ele>
        <time>2021-02-23T09:10:17.000Z</time>
      </trkpt>
      <trkpt lat="46.59946" lon="-1.84428">
        <ele>-157.19999694824</ele>
        <time>2021-02-23T09:10:20.000Z</time>
      </trkpt>
      <trkpt lat="46.59952" lon="-1.84428">
        <ele>-157</ele>
        <time>2021-02-23T09:10:21.000Z</time>
      </trkpt>
      <trkpt lat="46.59958" lon="-1.84429">
        <ele>-156.80000305176</ele>
        <time>2021-02-23T09:10:22.000Z</time>
      </trkpt>
      <trkpt lat="46.59986" lon="-1.8443">
        <ele>-156</ele>
        <time>2021-02-23T09:10:27.000Z</time>
      </trkpt>
      <trkpt lat="46.59992" lon="-1.8443">
        <ele>-155.80000305176</ele>
        <time>2021-02-23T09:10:28.000Z</time>
      </trkpt>
      <trkpt lat="46.59996" lon="-1.8443">
        <ele>-155.80000305176</ele>
        <time>2021-02-23T09:10:29.000Z</time>
      </trkpt>
      <trkpt lat="46.60018" lon="-1.8443">
        <ele>-154.80000305176</ele>
        <time>2021-02-23T09:10:33.000Z</time>
      </trkpt>
      <trkpt lat="46.60031" lon="-1.84432">
        <ele>-154.39999389648</ele>
        <time>2021-02-23T09:10:35.000Z</time>
      </trkpt>
      <trkpt lat="46.60037" lon="-1.84432">
        <ele>-154.19999694824</ele>
        <time>2021-02-23T09:10:36.000Z</time>
      </trkpt>
      <trkpt lat="46.60042" lon="-1.84432">
        <ele>-154</ele>
        <time>2021-02-23T09:10:37.000Z</time>
      </trkpt>
      <trkpt lat="46.60048" lon="-1.84433">
        <ele>-154</ele>
        <time>2021-02-23T09:10:38.000Z</time>
      </trkpt>
      <trkpt lat="46.60053" lon="-1.84433">
        <ele>-153.80000305176</ele>
        <time>2021-02-23T09:10:39.000Z</time>
      </trkpt>
      <trkpt lat="46.6006" lon="-1.84434">
        <ele>-153.39999389648</ele>
        <time>2021-02-23T09:10:40.000Z</time>
      </trkpt>
      <trkpt lat="46.60064" lon="-1.84434">
        <ele>-153.19999694824</ele>
        <time>2021-02-23T09:10:41.000Z</time>
      </trkpt>
      <trkpt lat="46.6007" lon="-1.84434">
        <ele>-152.80000305176</ele>
        <time>2021-02-23T09:10:42.000Z</time>
      </trkpt>
      <trkpt lat="46.60077" lon="-1.84434">
        <ele>-152.80000305176</ele>
        <time>2021-02-23T09:10:43.000Z</time>
      </trkpt>
      <trkpt lat="46.60083" lon="-1.84434">
        <ele>-152.60000610352</ele>
        <time>2021-02-23T09:10:44.000Z</time>
      </trkpt>
      <trkpt lat="46.60089" lon="-1.84435">
        <ele>-152.39999389648</ele>
        <time>2021-02-23T09:10:45.000Z</time>
      </trkpt>
      <trkpt lat="46.60094" lon="-1.84435">
        <ele>-152.39999389648</ele>
        <time>2021-02-23T09:10:46.000Z</time>
      </trkpt>
      <trkpt lat="46.601" lon="-1.84436">
        <ele>-152.19999694824</ele>
        <time>2021-02-23T09:10:47.000Z</time>
      </trkpt>
      <trkpt lat="46.60107" lon="-1.84438">
        <ele>-152</ele>
        <time>2021-02-23T09:10:48.000Z</time>
      </trkpt>
      <trkpt lat="46.60114" lon="-1.84439">
        <ele>-152</ele>
        <time>2021-02-23T09:10:49.000Z</time>
      </trkpt>
      <trkpt lat="46.60119" lon="-1.8444">
        <ele>-151.80000305176</ele>
        <time>2021-02-23T09:10:50.000Z</time>
      </trkpt>
      <trkpt lat="46.60124" lon="-1.84442">
        <ele>-151.80000305176</ele>
        <time>2021-02-23T09:10:51.000Z</time>
      </trkpt>
      <trkpt lat="46.60132" lon="-1.84445">
        <ele>-151.80000305176</ele>
        <time>2021-02-23T09:10:52.000Z</time>
      </trkpt>
      <trkpt lat="46.60138" lon="-1.84447">
        <ele>-151.60000610352</ele>
        <time>2021-02-23T09:10:53.000Z</time>
      </trkpt>
      <trkpt lat="46.60144" lon="-1.8445">
        <ele>-151.60000610352</ele>
        <time>2021-02-23T09:10:54.000Z</time>
      </trkpt>
      <trkpt lat="46.60149" lon="-1.84452">
        <ele>-151.60000610352</ele>
        <time>2021-02-23T09:10:55.000Z</time>
      </trkpt>
      <trkpt lat="46.60156" lon="-1.84453">
        <ele>-151.60000610352</ele>
        <time>2021-02-23T09:10:56.000Z</time>
      </trkpt>
      <trkpt lat="46.60163" lon="-1.84455">
        <ele>-151.80000305176</ele>
        <time>2021-02-23T09:10:57.000Z</time>
      </trkpt>
      <trkpt lat="46.6017" lon="-1.84457">
        <ele>-151.80000305176</ele>
        <time>2021-02-23T09:10:58.000Z</time>
      </trkpt>
      <trkpt lat="46.60175" lon="-1.84459">
        <ele>-152</ele>
        <time>2021-02-23T09:10:59.000Z</time>
      </trkpt>
      <trkpt lat="46.60182" lon="-1.84461">
        <ele>-152</ele>
        <time>2021-02-23T09:11:00.000Z</time>
      </trkpt>
      <trkpt lat="46.6019" lon="-1.84464">
        <ele>-152.19999694824</ele>
        <time>2021-02-23T09:11:01.000Z</time>
      </trkpt>
      <trkpt lat="46.60197" lon="-1.84466">
        <ele>-152.39999389648</ele>
        <time>2021-02-23T09:11:02.000Z</time>
      </trkpt>
      <trkpt lat="46.60204" lon="-1.84468">
        <ele>-152.60000610352</ele>
        <time>2021-02-23T09:11:03.000Z</time>
      </trkpt>
      <trkpt lat="46.60238" lon="-1.84479">
        <ele>-153.60000610352</ele>
        <time>2021-02-23T09:11:08.000Z</time>
      </trkpt>
      <trkpt lat="46.60246" lon="-1.84481">
        <ele>-153.60000610352</ele>
        <time>2021-02-23T09:11:09.000Z</time>
      </trkpt>
      <trkpt lat="46.60255" lon="-1.84482">
        <ele>-154</ele>
        <time>2021-02-23T09:11:10.000Z</time>
      </trkpt>
      <trkpt lat="46.6027" lon="-1.84483">
        <ele>-154.60000610352</ele>
        <time>2021-02-23T09:11:12.000Z</time>
      </trkpt>
      <trkpt lat="46.60276" lon="-1.84482">
        <ele>-154.80000305176</ele>
        <time>2021-02-23T09:11:13.000Z</time>
      </trkpt>
      <trkpt lat="46.60283" lon="-1.84482">
        <ele>-155</ele>
        <time>2021-02-23T09:11:14.000Z</time>
      </trkpt>
      <trkpt lat="46.60292" lon="-1.8448">
        <ele>-155.39999389648</ele>
        <time>2021-02-23T09:11:15.000Z</time>
      </trkpt>
      <trkpt lat="46.60299" lon="-1.84479">
        <ele>-155.39999389648</ele>
        <time>2021-02-23T09:11:16.000Z</time>
      </trkpt>
      <trkpt lat="46.60306" lon="-1.84478">
        <ele>-155.60000610352</ele>
        <time>2021-02-23T09:11:17.000Z</time>
      </trkpt>
      <trkpt lat="46.60311" lon="-1.84477">
        <ele>-155.60000610352</ele>
        <time>2021-02-23T09:11:18.000Z</time>
      </trkpt>
      <trkpt lat="46.60319" lon="-1.84476">
        <ele>-155.80000305176</ele>
        <time>2021-02-23T09:11:19.000Z</time>
      </trkpt>
      <trkpt lat="46.60325" lon="-1.84475">
        <ele>-155.80000305176</ele>
        <time>2021-02-23T09:11:20.000Z</time>
      </trkpt>
      <trkpt lat="46.60359" lon="-1.84466">
        <ele>-156.19999694824</ele>
        <time>2021-02-23T09:11:25.000Z</time>
      </trkpt>
      <trkpt lat="46.60364" lon="-1.84462">
        <ele>-156.39999389648</ele>
        <time>2021-02-23T09:11:26.000Z</time>
      </trkpt>
      <trkpt lat="46.6037" lon="-1.84455">
        <ele>-156.39999389648</ele>
        <time>2021-02-23T09:11:27.000Z</time>
      </trkpt>
      <trkpt lat="46.60375" lon="-1.84445">
        <ele>-156.39999389648</ele>
        <time>2021-02-23T09:11:28.000Z</time>
      </trkpt>
      <trkpt lat="46.60378" lon="-1.84435">
        <ele>-156.60000610352</ele>
        <time>2021-02-23T09:11:29.000Z</time>
      </trkpt>
      <trkpt lat="46.60379" lon="-1.84425">
        <ele>-156.60000610352</ele>
        <time>2021-02-23T09:11:30.000Z</time>
      </trkpt>
      <trkpt lat="46.60379" lon="-1.84416">
        <ele>-156.60000610352</ele>
        <time>2021-02-23T09:11:31.000Z</time>
      </trkpt>
      <trkpt lat="46.60378" lon="-1.84408">
        <ele>-156.60000610352</ele>
        <time>2021-02-23T09:11:32.000Z</time>
      </trkpt>
      <trkpt lat="46.60378" lon="-1.84396">
        <ele>-156.60000610352</ele>
        <time>2021-02-23T09:11:33.000Z</time>
      </trkpt>
      <trkpt lat="46.60379" lon="-1.84388">
        <ele>-156.60000610352</ele>
        <time>2021-02-23T09:11:34.000Z</time>
      </trkpt>
      <trkpt lat="46.6038" lon="-1.84379">
        <ele>-156.39999389648</ele>
        <time>2021-02-23T09:11:35.000Z</time>
      </trkpt>
      <trkpt lat="46.60382" lon="-1.84371">
        <ele>-156.39999389648</ele>
        <time>2021-02-23T09:11:36.000Z</time>
      </trkpt>
      <trkpt lat="46.60386" lon="-1.84365">
        <ele>-156.19999694824</ele>
        <time>2021-02-23T09:11:37.000Z</time>
      </trkpt>
      <trkpt lat="46.6039" lon="-1.84361">
        <ele>-156</ele>
        <time>2021-02-23T09:11:38.000Z</time>
      </trkpt>
      <trkpt lat="46.60395" lon="-1.84357">
        <ele>-156</ele>
        <time>2021-02-23T09:11:39.000Z</time>
      </trkpt>
      <trkpt lat="46.60399" lon="-1.84355">
        <ele>-155.80000305176</ele>
        <time>2021-02-23T09:11:40.000Z</time>
      </trkpt>
      <trkpt lat="46.60405" lon="-1.84352">
        <ele>-155.60000610352</ele>
        <time>2021-02-23T09:11:41.000Z</time>
      </trkpt>
      <trkpt lat="46.60411" lon="-1.8435">
        <ele>-155.39999389648</ele>
        <time>2021-02-23T09:11:42.000Z</time>
      </trkpt>
      <trkpt lat="46.60416" lon="-1.84348">
        <ele>-155.19999694824</ele>
        <time>2021-02-23T09:11:43.000Z</time>
      </trkpt>
      <trkpt lat="46.60421" lon="-1.84347">
        <ele>-155.19999694824</ele>
        <time>2021-02-23T09:11:44.000Z</time>
      </trkpt>
      <trkpt lat="46.60426" lon="-1.84345">
        <ele>-155</ele>
        <time>2021-02-23T09:11:45.000Z</time>
      </trkpt>
      <trkpt lat="46.60432" lon="-1.84343">
        <ele>-155</ele>
        <time>2021-02-23T09:11:46.000Z</time>
      </trkpt>
      <trkpt lat="46.60438" lon="-1.84341">
        <ele>-154.80000305176</ele>
        <time>2021-02-23T09:11:47.000Z</time>
      </trkpt>
      <trkpt lat="46.60442" lon="-1.84339">
        <ele>-154.39999389648</ele>
        <time>2021-02-23T09:11:48.000Z</time>
      </trkpt>
      <trkpt lat="46.60447" lon="-1.84336">
        <ele>-154.19999694824</ele>
        <time>2021-02-23T09:11:49.000Z</time>
      </trkpt>
      <trkpt lat="46.60452" lon="-1.84334">
        <ele>-154</ele>
        <time>2021-02-23T09:11:50.000Z</time>
      </trkpt>
      <trkpt lat="46.60458" lon="-1.84332">
        <ele>-154</ele>
        <time>2021-02-23T09:11:51.000Z</time>
      </trkpt>
      <trkpt lat="46.60463" lon="-1.8433">
        <ele>-153.80000305176</ele>
        <time>2021-02-23T09:11:52.000Z</time>
      </trkpt>
      <trkpt lat="46.60466" lon="-1.84328">
        <ele>-153.80000305176</ele>
        <time>2021-02-23T09:11:53.000Z</time>
      </trkpt>
      <trkpt lat="46.60477" lon="-1.84325">
        <ele>-153.39999389648</ele>
        <time>2021-02-23T09:11:55.000Z</time>
      </trkpt>
      <trkpt lat="46.60481" lon="-1.84324">
        <ele>-153.19999694824</ele>
        <time>2021-02-23T09:11:56.000Z</time>
      </trkpt>
      <trkpt lat="46.60485" lon="-1.84323">
        <ele>-152.39999389648</ele>
        <time>2021-02-23T09:11:57.000Z</time>
      </trkpt>
      <trkpt lat="46.6049" lon="-1.84321">
        <ele>-152.19999694824</ele>
        <time>2021-02-23T09:11:58.000Z</time>
      </trkpt>
      <trkpt lat="46.60494" lon="-1.84319">
        <ele>-152</ele>
        <time>2021-02-23T09:11:59.000Z</time>
      </trkpt>
      <trkpt lat="46.60499" lon="-1.84317">
        <ele>-151.80000305176</ele>
        <time>2021-02-23T09:12:00.000Z</time>
      </trkpt>
      <trkpt lat="46.60505" lon="-1.84314">
        <ele>-151.60000610352</ele>
        <time>2021-02-23T09:12:01.000Z</time>
      </trkpt>
      <trkpt lat="46.6051" lon="-1.84312">
        <ele>-151.19999694824</ele>
        <time>2021-02-23T09:12:02.000Z</time>
      </trkpt>
      <trkpt lat="46.60514" lon="-1.84311">
        <ele>-151.19999694824</ele>
        <time>2021-02-23T09:12:03.000Z</time>
      </trkpt>
      <trkpt lat="46.60519" lon="-1.84309">
        <ele>-150.80000305176</ele>
        <time>2021-02-23T09:12:04.000Z</time>
      </trkpt>
      <trkpt lat="46.60523" lon="-1.84307">
        <ele>-150.60000610352</ele>
        <time>2021-02-23T09:12:05.000Z</time>
      </trkpt>
      <trkpt lat="46.60527" lon="-1.84306">
        <ele>-150.39999389648</ele>
        <time>2021-02-23T09:12:06.000Z</time>
      </trkpt>
      <trkpt lat="46.60531" lon="-1.84304">
        <ele>-150.19999694824</ele>
        <time>2021-02-23T09:12:07.000Z</time>
      </trkpt>
      <trkpt lat="46.60536" lon="-1.84302">
        <ele>-150</ele>
        <time>2021-02-23T09:12:08.000Z</time>
      </trkpt>
      <trkpt lat="46.60541" lon="-1.843">
        <ele>-149.80000305176</ele>
        <time>2021-02-23T09:12:09.000Z</time>
      </trkpt>
      <trkpt lat="46.60545" lon="-1.84298">
        <ele>-149.60000610352</ele>
        <time>2021-02-23T09:12:10.000Z</time>
      </trkpt>
      <trkpt lat="46.6055" lon="-1.84296">
        <ele>-149.60000610352</ele>
        <time>2021-02-23T09:12:11.000Z</time>
      </trkpt>
      <trkpt lat="46.60555" lon="-1.84294">
        <ele>-149.60000610352</ele>
        <time>2021-02-23T09:12:12.000Z</time>
      </trkpt>
      <trkpt lat="46.60561" lon="-1.84293">
        <ele>-149.39999389648</ele>
        <time>2021-02-23T09:12:13.000Z</time>
      </trkpt>
      <trkpt lat="46.60566" lon="-1.84294">
        <ele>-149.39999389648</ele>
        <time>2021-02-23T09:12:14.000Z</time>
      </trkpt>
      <trkpt lat="46.6057" lon="-1.84296">
        <ele>-149.39999389648</ele>
        <time>2021-02-23T09:12:15.000Z</time>
      </trkpt>
      <trkpt lat="46.60575" lon="-1.84298">
        <ele>-149.39999389648</ele>
        <time>2021-02-23T09:12:16.000Z</time>
      </trkpt>
      <trkpt lat="46.6058" lon="-1.84302">
        <ele>-149.39999389648</ele>
        <time>2021-02-23T09:12:17.000Z</time>
      </trkpt>
      <trkpt lat="46.60587" lon="-1.84306">
        <ele>-149.60000610352</ele>
        <time>2021-02-23T09:12:18.000Z</time>
      </trkpt>
      <trkpt lat="46.60593" lon="-1.8431">
        <ele>-149.60000610352</ele>
        <time>2021-02-23T09:12:19.000Z</time>
      </trkpt>
      <trkpt lat="46.60598" lon="-1.84313">
        <ele>-149.80000305176</ele>
        <time>2021-02-23T09:12:20.000Z</time>
      </trkpt>
      <trkpt lat="46.60604" lon="-1.84314">
        <ele>-149.80000305176</ele>
        <time>2021-02-23T09:12:21.000Z</time>
      </trkpt>
      <trkpt lat="46.60611" lon="-1.84315">
        <ele>-150</ele>
        <time>2021-02-23T09:12:22.000Z</time>
      </trkpt>
      <trkpt lat="46.60617" lon="-1.84314">
        <ele>-150.39999389648</ele>
        <time>2021-02-23T09:12:23.000Z</time>
      </trkpt>
      <trkpt lat="46.60626" lon="-1.84313">
        <ele>-150.60000610352</ele>
        <time>2021-02-23T09:12:24.000Z</time>
      </trkpt>
      <trkpt lat="46.60631" lon="-1.84312">
        <ele>-151</ele>
        <time>2021-02-23T09:12:25.000Z</time>
      </trkpt>
      <trkpt lat="46.60637" lon="-1.84311">
        <ele>-151.19999694824</ele>
        <time>2021-02-23T09:12:26.000Z</time>
      </trkpt>
      <trkpt lat="46.60657" lon="-1.84309">
        <ele>-151.60000610352</ele>
        <time>2021-02-23T09:12:29.000Z</time>
      </trkpt>
      <trkpt lat="46.60664" lon="-1.84309">
        <ele>-151.80000305176</ele>
        <time>2021-02-23T09:12:30.000Z</time>
      </trkpt>
      <trkpt lat="46.6067" lon="-1.84308">
        <ele>-151.80000305176</ele>
        <time>2021-02-23T09:12:31.000Z</time>
      </trkpt>
      <trkpt lat="46.60676" lon="-1.84308">
        <ele>-151.80000305176</ele>
        <time>2021-02-23T09:12:32.000Z</time>
      </trkpt>
      <trkpt lat="46.60684" lon="-1.84308">
        <ele>-151.80000305176</ele>
        <time>2021-02-23T09:12:33.000Z</time>
      </trkpt>
      <trkpt lat="46.60688" lon="-1.84307">
        <ele>-151.80000305176</ele>
        <time>2021-02-23T09:12:34.000Z</time>
      </trkpt>
      <trkpt lat="46.60694" lon="-1.84306">
        <ele>-151.80000305176</ele>
        <time>2021-02-23T09:12:35.000Z</time>
      </trkpt>
      <trkpt lat="46.60702" lon="-1.84303">
        <ele>-151.80000305176</ele>
        <time>2021-02-23T09:12:36.000Z</time>
      </trkpt>
      <trkpt lat="46.60706" lon="-1.84302">
        <ele>-151.80000305176</ele>
        <time>2021-02-23T09:12:37.000Z</time>
      </trkpt>
      <trkpt lat="46.60712" lon="-1.843">
        <ele>-151.60000610352</ele>
        <time>2021-02-23T09:12:38.000Z</time>
      </trkpt>
      <trkpt lat="46.60717" lon="-1.84298">
        <ele>-151.19999694824</ele>
        <time>2021-02-23T09:12:39.000Z</time>
      </trkpt>
      <trkpt lat="46.60722" lon="-1.84296">
        <ele>-150.80000305176</ele>
        <time>2021-02-23T09:12:40.000Z</time>
      </trkpt>
      <trkpt lat="46.60729" lon="-1.84293">
        <ele>-150.19999694824</ele>
        <time>2021-02-23T09:12:41.000Z</time>
      </trkpt>
      <trkpt lat="46.60733" lon="-1.84291">
        <ele>-150</ele>
        <time>2021-02-23T09:12:42.000Z</time>
      </trkpt>
      <trkpt lat="46.60742" lon="-1.84288">
        <ele>-149.39999389648</ele>
        <time>2021-02-23T09:12:44.000Z</time>
      </trkpt>
      <trkpt lat="46.60748" lon="-1.84286">
        <ele>-149.19999694824</ele>
        <time>2021-02-23T09:12:45.000Z</time>
      </trkpt>
      <trkpt lat="46.60752" lon="-1.84284">
        <ele>-149.19999694824</ele>
        <time>2021-02-23T09:12:46.000Z</time>
      </trkpt>
      <trkpt lat="46.60756" lon="-1.84282">
        <ele>-149</ele>
        <time>2021-02-23T09:12:47.000Z</time>
      </trkpt>
      <trkpt lat="46.60761" lon="-1.8428">
        <ele>-148.80000305176</ele>
        <time>2021-02-23T09:12:48.000Z</time>
      </trkpt>
      <trkpt lat="46.60765" lon="-1.84279">
        <ele>-148.80000305176</ele>
        <time>2021-02-23T09:12:49.000Z</time>
      </trkpt>
      <trkpt lat="46.60769" lon="-1.84277">
        <ele>-148.60000610352</ele>
        <time>2021-02-23T09:12:50.000Z</time>
      </trkpt>
      <trkpt lat="46.60772" lon="-1.84276">
        <ele>-148.60000610352</ele>
        <time>2021-02-23T09:12:51.000Z</time>
      </trkpt>
      <trkpt lat="46.60773" lon="-1.84275">
        <ele>-148.80000305176</ele>
        <time>2021-02-23T09:12:52.000Z</time>
      </trkpt>
      <trkpt lat="46.60775" lon="-1.84274">
        <ele>-148.80000305176</ele>
        <time>2021-02-23T09:12:53.000Z</time>
      </trkpt>
      <trkpt lat="46.60777" lon="-1.84274">
        <ele>-149</ele>
        <time>2021-02-23T09:12:54.000Z</time>
      </trkpt>
      <trkpt lat="46.60778" lon="-1.84273">
        <ele>-149.19999694824</ele>
        <time>2021-02-23T09:12:55.000Z</time>
      </trkpt>
      <trkpt lat="46.60779" lon="-1.84273">
        <ele>-149.39999389648</ele>
        <time>2021-02-23T09:12:56.000Z</time>
      </trkpt>
      <trkpt lat="46.60783" lon="-1.84272">
        <ele>-149.80000305176</ele>
        <time>2021-02-23T09:13:03.000Z</time>
      </trkpt>
      <trkpt lat="46.6079" lon="-1.84272">
        <ele>-150</ele>
        <time>2021-02-23T09:13:06.000Z</time>
      </trkpt>
      <trkpt lat="46.60804" lon="-1.84275">
        <ele>-150.39999389648</ele>
        <time>2021-02-23T09:13:10.000Z</time>
      </trkpt>
      <trkpt lat="46.60807" lon="-1.84276">
        <ele>-150.39999389648</ele>
        <time>2021-02-23T09:13:11.000Z</time>
      </trkpt>
      <trkpt lat="46.6081" lon="-1.84277">
        <ele>-150.39999389648</ele>
        <time>2021-02-23T09:13:12.000Z</time>
      </trkpt>
      <trkpt lat="46.60819" lon="-1.84276">
        <ele>-150.60000610352</ele>
        <time>2021-02-23T09:13:14.000Z</time>
      </trkpt>
      <trkpt lat="46.60824" lon="-1.84274">
        <ele>-150.60000610352</ele>
        <time>2021-02-23T09:13:15.000Z</time>
      </trkpt>
      <trkpt lat="46.60829" lon="-1.84271">
        <ele>-150.80000305176</ele>
        <time>2021-02-23T09:13:16.000Z</time>
      </trkpt>
      <trkpt lat="46.60832" lon="-1.84269">
        <ele>-151</ele>
        <time>2021-02-23T09:13:17.000Z</time>
      </trkpt>
      <trkpt lat="46.6084" lon="-1.84265">
        <ele>-151.80000305176</ele>
        <time>2021-02-23T09:13:19.000Z</time>
      </trkpt>
      <trkpt lat="46.60844" lon="-1.84263">
        <ele>-152.19999694824</ele>
        <time>2021-02-23T09:13:20.000Z</time>
      </trkpt>
      <trkpt lat="46.60848" lon="-1.84261">
        <ele>-153</ele>
        <time>2021-02-23T09:13:21.000Z</time>
      </trkpt>
      <trkpt lat="46.60853" lon="-1.84261">
        <ele>-153.39999389648</ele>
        <time>2021-02-23T09:13:22.000Z</time>
      </trkpt>
      <trkpt lat="46.60856" lon="-1.8426">
        <ele>-154.19999694824</ele>
        <time>2021-02-23T09:13:23.000Z</time>
      </trkpt>
      <trkpt lat="46.60859" lon="-1.84259">
        <ele>-155</ele>
        <time>2021-02-23T09:13:24.000Z</time>
      </trkpt>
      <trkpt lat="46.60864" lon="-1.84258">
        <ele>-155.19999694824</ele>
        <time>2021-02-23T09:13:25.000Z</time>
      </trkpt>
      <trkpt lat="46.60868" lon="-1.84258">
        <ele>-155.80000305176</ele>
        <time>2021-02-23T09:13:26.000Z</time>
      </trkpt>
      <trkpt lat="46.60872" lon="-1.84257">
        <ele>-155.80000305176</ele>
        <time>2021-02-23T09:13:27.000Z</time>
      </trkpt>
      <trkpt lat="46.60878" lon="-1.84255">
        <ele>-156</ele>
        <time>2021-02-23T09:13:28.000Z</time>
      </trkpt>
      <trkpt lat="46.60881" lon="-1.84254">
        <ele>-156.19999694824</ele>
        <time>2021-02-23T09:13:29.000Z</time>
      </trkpt>
      <trkpt lat="46.60884" lon="-1.84254">
        <ele>-156.19999694824</ele>
        <time>2021-02-23T09:13:30.000Z</time>
      </trkpt>
      <trkpt lat="46.60888" lon="-1.84253">
        <ele>-156.19999694824</ele>
        <time>2021-02-23T09:13:31.000Z</time>
      </trkpt>
      <trkpt lat="46.60891" lon="-1.84253">
        <ele>-156.19999694824</ele>
        <time>2021-02-23T09:13:32.000Z</time>
      </trkpt>
      <trkpt lat="46.60894" lon="-1.84253">
        <ele>-156.39999389648</ele>
        <time>2021-02-23T09:13:33.000Z</time>
      </trkpt>
      <trkpt lat="46.60897" lon="-1.84253">
        <ele>-156.39999389648</ele>
        <time>2021-02-23T09:13:34.000Z</time>
      </trkpt>
      <trkpt lat="46.60907" lon="-1.84252">
        <ele>-156.39999389648</ele>
        <time>2021-02-23T09:13:36.000Z</time>
      </trkpt>
      <trkpt lat="46.60915" lon="-1.84248">
        <ele>-156.19999694824</ele>
        <time>2021-02-23T09:13:38.000Z</time>
      </trkpt>
      <trkpt lat="46.6092" lon="-1.84248">
        <ele>-156.19999694824</ele>
        <time>2021-02-23T09:13:39.000Z</time>
      </trkpt>
      <trkpt lat="46.60925" lon="-1.84249">
        <ele>-156.19999694824</ele>
        <time>2021-02-23T09:13:40.000Z</time>
      </trkpt>
      <trkpt lat="46.60929" lon="-1.84251">
        <ele>-156.19999694824</ele>
        <time>2021-02-23T09:13:41.000Z</time>
      </trkpt>
      <trkpt lat="46.60932" lon="-1.84253">
        <ele>-156.19999694824</ele>
        <time>2021-02-23T09:13:42.000Z</time>
      </trkpt>
      <trkpt lat="46.60936" lon="-1.84252">
        <ele>-156.19999694824</ele>
        <time>2021-02-23T09:13:43.000Z</time>
      </trkpt>
      <trkpt lat="46.6094" lon="-1.84251">
        <ele>-156</ele>
        <time>2021-02-23T09:13:44.000Z</time>
      </trkpt>
      <trkpt lat="46.60945" lon="-1.84248">
        <ele>-156</ele>
        <time>2021-02-23T09:13:45.000Z</time>
      </trkpt>
      <trkpt lat="46.60951" lon="-1.84247">
        <ele>-156</ele>
        <time>2021-02-23T09:13:46.000Z</time>
      </trkpt>
      <trkpt lat="46.60968" lon="-1.84246">
        <ele>-155.80000305176</ele>
        <time>2021-02-23T09:13:49.000Z</time>
      </trkpt>
      <trkpt lat="46.6098" lon="-1.84253">
        <ele>-155.80000305176</ele>
        <time>2021-02-23T09:13:51.000Z</time>
      </trkpt>
      <trkpt lat="46.60985" lon="-1.84257">
        <ele>-155.80000305176</ele>
        <time>2021-02-23T09:13:52.000Z</time>
      </trkpt>
      <trkpt lat="46.6099" lon="-1.84263">
        <ele>-155.80000305176</ele>
        <time>2021-02-23T09:13:53.000Z</time>
      </trkpt>
      <trkpt lat="46.60995" lon="-1.84269">
        <ele>-156</ele>
        <time>2021-02-23T09:13:54.000Z</time>
      </trkpt>
      <trkpt lat="46.61001" lon="-1.84274">
        <ele>-156</ele>
        <time>2021-02-23T09:13:55.000Z</time>
      </trkpt>
      <trkpt lat="46.61004" lon="-1.84277">
        <ele>-156</ele>
        <time>2021-02-23T09:13:56.000Z</time>
      </trkpt>
      <trkpt lat="46.61008" lon="-1.84281">
        <ele>-156.19999694824</ele>
        <time>2021-02-23T09:13:57.000Z</time>
      </trkpt>
      <trkpt lat="46.61012" lon="-1.84285">
        <ele>-156.19999694824</ele>
        <time>2021-02-23T09:13:58.000Z</time>
      </trkpt>
      <trkpt lat="46.61015" lon="-1.84289">
        <ele>-156.19999694824</ele>
        <time>2021-02-23T09:13:59.000Z</time>
      </trkpt>
      <trkpt lat="46.61017" lon="-1.84292">
        <ele>-156.19999694824</ele>
        <time>2021-02-23T09:14:00.000Z</time>
      </trkpt>
      <trkpt lat="46.61019" lon="-1.84295">
        <ele>-156.19999694824</ele>
        <time>2021-02-23T09:14:01.000Z</time>
      </trkpt>
      <trkpt lat="46.61022" lon="-1.84297">
        <ele>-156.19999694824</ele>
        <time>2021-02-23T09:14:02.000Z</time>
      </trkpt>
      <trkpt lat="46.61024" lon="-1.84298">
        <ele>-156.19999694824</ele>
        <time>2021-02-23T09:14:03.000Z</time>
      </trkpt>
      <trkpt lat="46.61025" lon="-1.84305">
        <ele>-156.19999694824</ele>
        <time>2021-02-23T09:14:05.000Z</time>
      </trkpt>
      <trkpt lat="46.61024" lon="-1.84307">
        <ele>-156.19999694824</ele>
        <time>2021-02-23T09:14:06.000Z</time>
      </trkpt>
      <trkpt lat="46.61022" lon="-1.8431">
        <ele>-156.19999694824</ele>
        <time>2021-02-23T09:14:07.000Z</time>
      </trkpt>
      <trkpt lat="46.61015" lon="-1.84321">
        <ele>-156.19999694824</ele>
        <time>2021-02-23T09:14:10.000Z</time>
      </trkpt>
      <trkpt lat="46.61005" lon="-1.84337">
        <ele>-156.19999694824</ele>
        <time>2021-02-23T09:14:13.000Z</time>
      </trkpt>
      <trkpt lat="46.61001" lon="-1.84341">
        <ele>-156.19999694824</ele>
        <time>2021-02-23T09:14:14.000Z</time>
      </trkpt>
      <trkpt lat="46.60998" lon="-1.84346">
        <ele>-156.19999694824</ele>
        <time>2021-02-23T09:14:15.000Z</time>
      </trkpt>
      <trkpt lat="46.60995" lon="-1.84351">
        <ele>-156.19999694824</ele>
        <time>2021-02-23T09:14:16.000Z</time>
      </trkpt>
      <trkpt lat="46.60988" lon="-1.84368">
        <ele>-156.19999694824</ele>
        <time>2021-02-23T09:14:18.000Z</time>
      </trkpt>
      <trkpt lat="46.60988" lon="-1.84374">
        <ele>-156.19999694824</ele>
        <time>2021-02-23T09:14:19.000Z</time>
      </trkpt>
      <trkpt lat="46.60987" lon="-1.8438">
        <ele>-156.39999389648</ele>
        <time>2021-02-23T09:14:20.000Z</time>
      </trkpt>
      <trkpt lat="46.60988" lon="-1.84387">
        <ele>-156.39999389648</ele>
        <time>2021-02-23T09:14:21.000Z</time>
      </trkpt>
      <trkpt lat="46.60989" lon="-1.84394">
        <ele>-156.39999389648</ele>
        <time>2021-02-23T09:14:22.000Z</time>
      </trkpt>
      <trkpt lat="46.60992" lon="-1.844">
        <ele>-156.39999389648</ele>
        <time>2021-02-23T09:14:23.000Z</time>
      </trkpt>
      <trkpt lat="46.60996" lon="-1.84406">
        <ele>-156.39999389648</ele>
        <time>2021-02-23T09:14:24.000Z</time>
      </trkpt>
      <trkpt lat="46.60999" lon="-1.84412">
        <ele>-156.39999389648</ele>
        <time>2021-02-23T09:14:25.000Z</time>
      </trkpt>
      <trkpt lat="46.61002" lon="-1.84419">
        <ele>-156.39999389648</ele>
        <time>2021-02-23T09:14:26.000Z</time>
      </trkpt>
      <trkpt lat="46.61005" lon="-1.84434">
        <ele>-156.60000610352</ele>
        <time>2021-02-23T09:14:28.000Z</time>
      </trkpt>
      <trkpt lat="46.61006" lon="-1.8444">
        <ele>-156.60000610352</ele>
        <time>2021-02-23T09:14:29.000Z</time>
      </trkpt>
      <trkpt lat="46.61009" lon="-1.84448">
        <ele>-156.60000610352</ele>
        <time>2021-02-23T09:14:30.000Z</time>
      </trkpt>
      <trkpt lat="46.61015" lon="-1.84459">
        <ele>-156.80000305176</ele>
        <time>2021-02-23T09:14:32.000Z</time>
      </trkpt>
      <trkpt lat="46.61018" lon="-1.84465">
        <ele>-156.80000305176</ele>
        <time>2021-02-23T09:14:33.000Z</time>
      </trkpt>
      <trkpt lat="46.61027" lon="-1.84481">
        <ele>-156.19999694824</ele>
        <time>2021-02-23T09:14:36.000Z</time>
      </trkpt>
      <trkpt lat="46.61037" lon="-1.84484">
        <ele>-155.60000610352</ele>
        <time>2021-02-23T09:14:38.000Z</time>
      </trkpt>
      <trkpt lat="46.61042" lon="-1.84485">
        <ele>-155.39999389648</ele>
        <time>2021-02-23T09:14:39.000Z</time>
      </trkpt>
      <trkpt lat="46.61046" lon="-1.84487">
        <ele>-155.39999389648</ele>
        <time>2021-02-23T09:14:40.000Z</time>
      </trkpt>
      <trkpt lat="46.61048" lon="-1.84493">
        <ele>-155.39999389648</ele>
        <time>2021-02-23T09:14:41.000Z</time>
      </trkpt>
      <trkpt lat="46.61052" lon="-1.84498">
        <ele>-155.39999389648</ele>
        <time>2021-02-23T09:14:42.000Z</time>
      </trkpt>
      <trkpt lat="46.61055" lon="-1.84502">
        <ele>-155.39999389648</ele>
        <time>2021-02-23T09:14:43.000Z</time>
      </trkpt>
      <trkpt lat="46.61058" lon="-1.84506">
        <ele>-155.39999389648</ele>
        <time>2021-02-23T09:14:44.000Z</time>
      </trkpt>
      <trkpt lat="46.61061" lon="-1.84511">
        <ele>-155.19999694824</ele>
        <time>2021-02-23T09:14:45.000Z</time>
      </trkpt>
      <trkpt lat="46.61065" lon="-1.84516">
        <ele>-155</ele>
        <time>2021-02-23T09:14:46.000Z</time>
      </trkpt>
      <trkpt lat="46.61067" lon="-1.84519">
        <ele>-155</ele>
        <time>2021-02-23T09:14:47.000Z</time>
      </trkpt>
      <trkpt lat="46.6107" lon="-1.84522">
        <ele>-155</ele>
        <time>2021-02-23T09:14:48.000Z</time>
      </trkpt>
      <trkpt lat="46.61073" lon="-1.84524">
        <ele>-154.80000305176</ele>
        <time>2021-02-23T09:14:49.000Z</time>
      </trkpt>
      <trkpt lat="46.61083" lon="-1.84533">
        <ele>-154.19999694824</ele>
        <time>2021-02-23T09:14:52.000Z</time>
      </trkpt>
      <trkpt lat="46.61087" lon="-1.84536">
        <ele>-153.80000305176</ele>
        <time>2021-02-23T09:14:53.000Z</time>
      </trkpt>
      <trkpt lat="46.61091" lon="-1.84538">
        <ele>-153.80000305176</ele>
        <time>2021-02-23T09:14:54.000Z</time>
      </trkpt>
      <trkpt lat="46.61095" lon="-1.8454">
        <ele>-153.60000610352</ele>
        <time>2021-02-23T09:14:55.000Z</time>
      </trkpt>
      <trkpt lat="46.61098" lon="-1.8454">
        <ele>-153.60000610352</ele>
        <time>2021-02-23T09:14:56.000Z</time>
      </trkpt>
      <trkpt lat="46.61107" lon="-1.8454">
        <ele>-153.19999694824</ele>
        <time>2021-02-23T09:14:58.000Z</time>
      </trkpt>
      <trkpt lat="46.61112" lon="-1.8454">
        <ele>-153.19999694824</ele>
        <time>2021-02-23T09:14:59.000Z</time>
      </trkpt>
      <trkpt lat="46.61115" lon="-1.84539">
        <ele>-153</ele>
        <time>2021-02-23T09:15:00.000Z</time>
      </trkpt>
      <trkpt lat="46.61119" lon="-1.84538">
        <ele>-153</ele>
        <time>2021-02-23T09:15:01.000Z</time>
      </trkpt>
      <trkpt lat="46.61123" lon="-1.84537">
        <ele>-152.80000305176</ele>
        <time>2021-02-23T09:15:02.000Z</time>
      </trkpt>
      <trkpt lat="46.61128" lon="-1.84534">
        <ele>-152.60000610352</ele>
        <time>2021-02-23T09:15:03.000Z</time>
      </trkpt>
      <trkpt lat="46.61131" lon="-1.84528">
        <ele>-152.60000610352</ele>
        <time>2021-02-23T09:15:04.000Z</time>
      </trkpt>
      <trkpt lat="46.61132" lon="-1.84523">
        <ele>-152.39999389648</ele>
        <time>2021-02-23T09:15:05.000Z</time>
      </trkpt>
      <trkpt lat="46.61134" lon="-1.84515">
        <ele>-152.39999389648</ele>
        <time>2021-02-23T09:15:06.000Z</time>
      </trkpt>
      <trkpt lat="46.61136" lon="-1.84507">
        <ele>-152.39999389648</ele>
        <time>2021-02-23T09:15:07.000Z</time>
      </trkpt>
      <trkpt lat="46.61138" lon="-1.84498">
        <ele>-152.39999389648</ele>
        <time>2021-02-23T09:15:08.000Z</time>
      </trkpt>
      <trkpt lat="46.61141" lon="-1.8449">
        <ele>-152.39999389648</ele>
        <time>2021-02-23T09:15:09.000Z</time>
      </trkpt>
      <trkpt lat="46.61143" lon="-1.84483">
        <ele>-152.39999389648</ele>
        <time>2021-02-23T09:15:10.000Z</time>
      </trkpt>
      <trkpt lat="46.61146" lon="-1.84475">
        <ele>-152.60000610352</ele>
        <time>2021-02-23T09:15:11.000Z</time>
      </trkpt>
      <trkpt lat="46.61149" lon="-1.84466">
        <ele>-152.80000305176</ele>
        <time>2021-02-23T09:15:12.000Z</time>
      </trkpt>
      <trkpt lat="46.61153" lon="-1.84459">
        <ele>-153</ele>
        <time>2021-02-23T09:15:13.000Z</time>
      </trkpt>
      <trkpt lat="46.61155" lon="-1.84454">
        <ele>-153.39999389648</ele>
        <time>2021-02-23T09:15:14.000Z</time>
      </trkpt>
      <trkpt lat="46.61159" lon="-1.84449">
        <ele>-153.60000610352</ele>
        <time>2021-02-23T09:15:15.000Z</time>
      </trkpt>
      <trkpt lat="46.61163" lon="-1.84444">
        <ele>-153.80000305176</ele>
        <time>2021-02-23T09:15:16.000Z</time>
      </trkpt>
      <trkpt lat="46.61168" lon="-1.84438">
        <ele>-154</ele>
        <time>2021-02-23T09:15:17.000Z</time>
      </trkpt>
      <trkpt lat="46.61176" lon="-1.84434">
        <ele>-154.60000610352</ele>
        <time>2021-02-23T09:15:19.000Z</time>
      </trkpt>
      <trkpt lat="46.61181" lon="-1.84433">
        <ele>-154.60000610352</ele>
        <time>2021-02-23T09:15:20.000Z</time>
      </trkpt>
      <trkpt lat="46.61187" lon="-1.84434">
        <ele>-154.60000610352</ele>
        <time>2021-02-23T09:15:21.000Z</time>
      </trkpt>
      <trkpt lat="46.61193" lon="-1.84435">
        <ele>-154.60000610352</ele>
        <time>2021-02-23T09:15:22.000Z</time>
      </trkpt>
      <trkpt lat="46.61199" lon="-1.84436">
        <ele>-154.80000305176</ele>
        <time>2021-02-23T09:15:23.000Z</time>
      </trkpt>
      <trkpt lat="46.61206" lon="-1.84438">
        <ele>-154.80000305176</ele>
        <time>2021-02-23T09:15:24.000Z</time>
      </trkpt>
      <trkpt lat="46.61213" lon="-1.84441">
        <ele>-154.80000305176</ele>
        <time>2021-02-23T09:15:25.000Z</time>
      </trkpt>
      <trkpt lat="46.61218" lon="-1.84443">
        <ele>-155</ele>
        <time>2021-02-23T09:15:26.000Z</time>
      </trkpt>
      <trkpt lat="46.61224" lon="-1.84445">
        <ele>-155</ele>
        <time>2021-02-23T09:15:27.000Z</time>
      </trkpt>
      <trkpt lat="46.61228" lon="-1.84445">
        <ele>-155</ele>
        <time>2021-02-23T09:15:28.000Z</time>
      </trkpt>
      <trkpt lat="46.61232" lon="-1.84445">
        <ele>-155</ele>
        <time>2021-02-23T09:15:29.000Z</time>
      </trkpt>
      <trkpt lat="46.61235" lon="-1.84444">
        <ele>-155</ele>
        <time>2021-02-23T09:15:30.000Z</time>
      </trkpt>
      <trkpt lat="46.61239" lon="-1.84443">
        <ele>-155</ele>
        <time>2021-02-23T09:15:31.000Z</time>
      </trkpt>
      <trkpt lat="46.61241" lon="-1.84443">
        <ele>-155</ele>
        <time>2021-02-23T09:15:32.000Z</time>
      </trkpt>
      <trkpt lat="46.61244" lon="-1.84441">
        <ele>-154.80000305176</ele>
        <time>2021-02-23T09:15:33.000Z</time>
      </trkpt>
      <trkpt lat="46.61247" lon="-1.84439">
        <ele>-154.60000610352</ele>
        <time>2021-02-23T09:15:34.000Z</time>
      </trkpt>
      <trkpt lat="46.61253" lon="-1.84437">
        <ele>-154.19999694824</ele>
        <time>2021-02-23T09:15:36.000Z</time>
      </trkpt>
      <trkpt lat="46.61258" lon="-1.84436">
        <ele>-154</ele>
        <time>2021-02-23T09:15:37.000Z</time>
      </trkpt>
      <trkpt lat="46.61262" lon="-1.84433">
        <ele>-154</ele>
        <time>2021-02-23T09:15:38.000Z</time>
      </trkpt>
      <trkpt lat="46.61267" lon="-1.8443">
        <ele>-153.80000305176</ele>
        <time>2021-02-23T09:15:39.000Z</time>
      </trkpt>
      <trkpt lat="46.61271" lon="-1.84428">
        <ele>-153.39999389648</ele>
        <time>2021-02-23T09:15:40.000Z</time>
      </trkpt>
      <trkpt lat="46.61284" lon="-1.84424">
        <ele>-152.60000610352</ele>
        <time>2021-02-23T09:15:43.000Z</time>
      </trkpt>
      <trkpt lat="46.61291" lon="-1.84423">
        <ele>-151.39999389648</ele>
        <time>2021-02-23T09:15:45.000Z</time>
      </trkpt>
      <trkpt lat="46.61295" lon="-1.84423">
        <ele>-151</ele>
        <time>2021-02-23T09:15:46.000Z</time>
      </trkpt>
      <trkpt lat="46.613" lon="-1.84422">
        <ele>-150.60000610352</ele>
        <time>2021-02-23T09:15:47.000Z</time>
      </trkpt>
      <trkpt lat="46.61303" lon="-1.84421">
        <ele>-150.39999389648</ele>
        <time>2021-02-23T09:15:48.000Z</time>
      </trkpt>
      <trkpt lat="46.61306" lon="-1.8442">
        <ele>-150.19999694824</ele>
        <time>2021-02-23T09:15:49.000Z</time>
      </trkpt>
      <trkpt lat="46.6131" lon="-1.84417">
        <ele>-150</ele>
        <time>2021-02-23T09:15:50.000Z</time>
      </trkpt>
      <trkpt lat="46.61313" lon="-1.84414">
        <ele>-149</ele>
        <time>2021-02-23T09:15:51.000Z</time>
      </trkpt>
      <trkpt lat="46.61317" lon="-1.84412">
        <ele>-148.80000305176</ele>
        <time>2021-02-23T09:15:52.000Z</time>
      </trkpt>
      <trkpt lat="46.61324" lon="-1.84409">
        <ele>-148.39999389648</ele>
        <time>2021-02-23T09:15:53.000Z</time>
      </trkpt>
      <trkpt lat="46.61327" lon="-1.84407">
        <ele>-148</ele>
        <time>2021-02-23T09:15:54.000Z</time>
      </trkpt>
      <trkpt lat="46.61331" lon="-1.84406">
        <ele>-148</ele>
        <time>2021-02-23T09:15:55.000Z</time>
      </trkpt>
      <trkpt lat="46.61334" lon="-1.84403">
        <ele>-147.80000305176</ele>
        <time>2021-02-23T09:15:56.000Z</time>
      </trkpt>
      <trkpt lat="46.61338" lon="-1.84401">
        <ele>-147.80000305176</ele>
        <time>2021-02-23T09:15:57.000Z</time>
      </trkpt>
      <trkpt lat="46.61342" lon="-1.844">
        <ele>-147.60000610352</ele>
        <time>2021-02-23T09:15:58.000Z</time>
      </trkpt>
      <trkpt lat="46.61345" lon="-1.84398">
        <ele>-147.19999694824</ele>
        <time>2021-02-23T09:15:59.000Z</time>
      </trkpt>
      <trkpt lat="46.61348" lon="-1.84396">
        <ele>-147.19999694824</ele>
        <time>2021-02-23T09:16:00.000Z</time>
      </trkpt>
      <trkpt lat="46.61352" lon="-1.84394">
        <ele>-147</ele>
        <time>2021-02-23T09:16:01.000Z</time>
      </trkpt>
      <trkpt lat="46.61357" lon="-1.84394">
        <ele>-147</ele>
        <time>2021-02-23T09:16:02.000Z</time>
      </trkpt>
      <trkpt lat="46.61362" lon="-1.84392">
        <ele>-147</ele>
        <time>2021-02-23T09:16:03.000Z</time>
      </trkpt>
      <trkpt lat="46.61365" lon="-1.84392">
        <ele>-146.80000305176</ele>
        <time>2021-02-23T09:16:04.000Z</time>
      </trkpt>
      <trkpt lat="46.61369" lon="-1.84391">
        <ele>-146.60000610352</ele>
        <time>2021-02-23T09:16:05.000Z</time>
      </trkpt>
      <trkpt lat="46.61374" lon="-1.8439">
        <ele>-146.39999389648</ele>
        <time>2021-02-23T09:16:06.000Z</time>
      </trkpt>
      <trkpt lat="46.61378" lon="-1.84389">
        <ele>-146.19999694824</ele>
        <time>2021-02-23T09:16:07.000Z</time>
      </trkpt>
      <trkpt lat="46.61383" lon="-1.84388">
        <ele>-146.19999694824</ele>
        <time>2021-02-23T09:16:08.000Z</time>
      </trkpt>
      <trkpt lat="46.61386" lon="-1.84388">
        <ele>-146</ele>
        <time>2021-02-23T09:16:09.000Z</time>
      </trkpt>
      <trkpt lat="46.6139" lon="-1.84387">
        <ele>-146</ele>
        <time>2021-02-23T09:16:10.000Z</time>
      </trkpt>
      <trkpt lat="46.61394" lon="-1.84386">
        <ele>-146</ele>
        <time>2021-02-23T09:16:11.000Z</time>
      </trkpt>
      <trkpt lat="46.61399" lon="-1.84385">
        <ele>-146</ele>
        <time>2021-02-23T09:16:12.000Z</time>
      </trkpt>
      <trkpt lat="46.61403" lon="-1.84384">
        <ele>-146</ele>
        <time>2021-02-23T09:16:13.000Z</time>
      </trkpt>
      <trkpt lat="46.61407" lon="-1.84385">
        <ele>-145.80000305176</ele>
        <time>2021-02-23T09:16:14.000Z</time>
      </trkpt>
      <trkpt lat="46.61413" lon="-1.84384">
        <ele>-145.80000305176</ele>
        <time>2021-02-23T09:16:15.000Z</time>
      </trkpt>
      <trkpt lat="46.61417" lon="-1.84384">
        <ele>-145.80000305176</ele>
        <time>2021-02-23T09:16:16.000Z</time>
      </trkpt>
      <trkpt lat="46.61424" lon="-1.84383">
        <ele>-145.80000305176</ele>
        <time>2021-02-23T09:16:17.000Z</time>
      </trkpt>
      <trkpt lat="46.61427" lon="-1.84382">
        <ele>-145.80000305176</ele>
        <time>2021-02-23T09:16:18.000Z</time>
      </trkpt>
      <trkpt lat="46.61432" lon="-1.84382">
        <ele>-145.80000305176</ele>
        <time>2021-02-23T09:16:19.000Z</time>
      </trkpt>
      <trkpt lat="46.61437" lon="-1.84382">
        <ele>-146</ele>
        <time>2021-02-23T09:16:20.000Z</time>
      </trkpt>
      <trkpt lat="46.61444" lon="-1.84382">
        <ele>-146</ele>
        <time>2021-02-23T09:16:21.000Z</time>
      </trkpt>
      <trkpt lat="46.61448" lon="-1.84382">
        <ele>-146</ele>
        <time>2021-02-23T09:16:22.000Z</time>
      </trkpt>
      <trkpt lat="46.61452" lon="-1.84381">
        <ele>-146.19999694824</ele>
        <time>2021-02-23T09:16:23.000Z</time>
      </trkpt>
      <trkpt lat="46.61459" lon="-1.84383">
        <ele>-146.19999694824</ele>
        <time>2021-02-23T09:16:24.000Z</time>
      </trkpt>
      <trkpt lat="46.61466" lon="-1.84386">
        <ele>-146.19999694824</ele>
        <time>2021-02-23T09:16:25.000Z</time>
      </trkpt>
      <trkpt lat="46.61513" lon="-1.84397">
        <ele>-146.60000610352</ele>
        <time>2021-02-23T09:16:33.000Z</time>
      </trkpt>
      <trkpt lat="46.61521" lon="-1.84398">
        <ele>-146.60000610352</ele>
        <time>2021-02-23T09:16:34.000Z</time>
      </trkpt>
      <trkpt lat="46.61528" lon="-1.84398">
        <ele>-146.80000305176</ele>
        <time>2021-02-23T09:16:35.000Z</time>
      </trkpt>
      <trkpt lat="46.61532" lon="-1.84398">
        <ele>-146.80000305176</ele>
        <time>2021-02-23T09:16:36.000Z</time>
      </trkpt>
      <trkpt lat="46.61537" lon="-1.84399">
        <ele>-146.80000305176</ele>
        <time>2021-02-23T09:16:37.000Z</time>
      </trkpt>
      <trkpt lat="46.6155" lon="-1.84398">
        <ele>-147</ele>
        <time>2021-02-23T09:16:39.000Z</time>
      </trkpt>
      <trkpt lat="46.61576" lon="-1.84398">
        <ele>-147.80000305176</ele>
        <time>2021-02-23T09:16:43.000Z</time>
      </trkpt>
      <trkpt lat="46.616" lon="-1.84398">
        <ele>-149.19999694824</ele>
        <time>2021-02-23T09:16:47.000Z</time>
      </trkpt>
      <trkpt lat="46.61607" lon="-1.84399">
        <ele>-149.60000610352</ele>
        <time>2021-02-23T09:16:48.000Z</time>
      </trkpt>
      <trkpt lat="46.61615" lon="-1.84398">
        <ele>-149.60000610352</ele>
        <time>2021-02-23T09:16:49.000Z</time>
      </trkpt>
      <trkpt lat="46.6162" lon="-1.84399">
        <ele>-150</ele>
        <time>2021-02-23T09:16:50.000Z</time>
      </trkpt>
      <trkpt lat="46.61626" lon="-1.84399">
        <ele>-150.19999694824</ele>
        <time>2021-02-23T09:16:51.000Z</time>
      </trkpt>
      <trkpt lat="46.61632" lon="-1.844">
        <ele>-150.19999694824</ele>
        <time>2021-02-23T09:16:52.000Z</time>
      </trkpt>
      <trkpt lat="46.6164" lon="-1.844">
        <ele>-150.39999389648</ele>
        <time>2021-02-23T09:16:53.000Z</time>
      </trkpt>
      <trkpt lat="46.61644" lon="-1.84401">
        <ele>-150.39999389648</ele>
        <time>2021-02-23T09:16:54.000Z</time>
      </trkpt>
      <trkpt lat="46.6165" lon="-1.84401">
        <ele>-150.39999389648</ele>
        <time>2021-02-23T09:16:55.000Z</time>
      </trkpt>
      <trkpt lat="46.61657" lon="-1.84402">
        <ele>-150.60000610352</ele>
        <time>2021-02-23T09:16:56.000Z</time>
      </trkpt>
      <trkpt lat="46.61679" lon="-1.84404">
        <ele>-150.39999389648</ele>
        <time>2021-02-23T09:17:00.000Z</time>
      </trkpt>
      <trkpt lat="46.61686" lon="-1.84405">
        <ele>-150.39999389648</ele>
        <time>2021-02-23T09:17:01.000Z</time>
      </trkpt>
      <trkpt lat="46.61691" lon="-1.84406">
        <ele>-150.19999694824</ele>
        <time>2021-02-23T09:17:02.000Z</time>
      </trkpt>
      <trkpt lat="46.61696" lon="-1.84406">
        <ele>-150.19999694824</ele>
        <time>2021-02-23T09:17:03.000Z</time>
      </trkpt>
      <trkpt lat="46.61701" lon="-1.84406">
        <ele>-150.19999694824</ele>
        <time>2021-02-23T09:17:04.000Z</time>
      </trkpt>
      <trkpt lat="46.61706" lon="-1.84407">
        <ele>-150</ele>
        <time>2021-02-23T09:17:05.000Z</time>
      </trkpt>
      <trkpt lat="46.61712" lon="-1.84407">
        <ele>-149.80000305176</ele>
        <time>2021-02-23T09:17:06.000Z</time>
      </trkpt>
      <trkpt lat="46.61721" lon="-1.84403">
        <ele>-149.60000610352</ele>
        <time>2021-02-23T09:17:08.000Z</time>
      </trkpt>
      <trkpt lat="46.61726" lon="-1.84399">
        <ele>-149.39999389648</ele>
        <time>2021-02-23T09:17:09.000Z</time>
      </trkpt>
      <trkpt lat="46.6173" lon="-1.84393">
        <ele>-149.39999389648</ele>
        <time>2021-02-23T09:17:10.000Z</time>
      </trkpt>
      <trkpt lat="46.61734" lon="-1.84384">
        <ele>-149.39999389648</ele>
        <time>2021-02-23T09:17:11.000Z</time>
      </trkpt>
      <trkpt lat="46.61736" lon="-1.84377">
        <ele>-149.39999389648</ele>
        <time>2021-02-23T09:17:12.000Z</time>
      </trkpt>
      <trkpt lat="46.61738" lon="-1.84369">
        <ele>-149.39999389648</ele>
        <time>2021-02-23T09:17:13.000Z</time>
      </trkpt>
      <trkpt lat="46.61741" lon="-1.84361">
        <ele>-149.60000610352</ele>
        <time>2021-02-23T09:17:14.000Z</time>
      </trkpt>
      <trkpt lat="46.61743" lon="-1.84353">
        <ele>-149.60000610352</ele>
        <time>2021-02-23T09:17:15.000Z</time>
      </trkpt>
      <trkpt lat="46.61746" lon="-1.84344">
        <ele>-149.60000610352</ele>
        <time>2021-02-23T09:17:16.000Z</time>
      </trkpt>
      <trkpt lat="46.61748" lon="-1.84336">
        <ele>-149.60000610352</ele>
        <time>2021-02-23T09:17:17.000Z</time>
      </trkpt>
      <trkpt lat="46.61749" lon="-1.8433">
        <ele>-150</ele>
        <time>2021-02-23T09:17:18.000Z</time>
      </trkpt>
      <trkpt lat="46.61751" lon="-1.84322">
        <ele>-150</ele>
        <time>2021-02-23T09:17:19.000Z</time>
      </trkpt>
      <trkpt lat="46.61753" lon="-1.84315">
        <ele>-150.19999694824</ele>
        <time>2021-02-23T09:17:20.000Z</time>
      </trkpt>
      <trkpt lat="46.61754" lon="-1.84308">
        <ele>-150.19999694824</ele>
        <time>2021-02-23T09:17:21.000Z</time>
      </trkpt>
      <trkpt lat="46.61755" lon="-1.84301">
        <ele>-150.19999694824</ele>
        <time>2021-02-23T09:17:22.000Z</time>
      </trkpt>
      <trkpt lat="46.61756" lon="-1.84294">
        <ele>-150.19999694824</ele>
        <time>2021-02-23T09:17:23.000Z</time>
      </trkpt>
      <trkpt lat="46.61757" lon="-1.84286">
        <ele>-150.19999694824</ele>
        <time>2021-02-23T09:17:24.000Z</time>
      </trkpt>
      <trkpt lat="46.61758" lon="-1.8428">
        <ele>-150.19999694824</ele>
        <time>2021-02-23T09:17:25.000Z</time>
      </trkpt>
      <trkpt lat="46.61759" lon="-1.84274">
        <ele>-149.80000305176</ele>
        <time>2021-02-23T09:17:26.000Z</time>
      </trkpt>
      <trkpt lat="46.6176" lon="-1.84268">
        <ele>-149.60000610352</ele>
        <time>2021-02-23T09:17:27.000Z</time>
      </trkpt>
      <trkpt lat="46.61761" lon="-1.84262">
        <ele>-149.39999389648</ele>
        <time>2021-02-23T09:17:28.000Z</time>
      </trkpt>
      <trkpt lat="46.61761" lon="-1.84256">
        <ele>-149.39999389648</ele>
        <time>2021-02-23T09:17:29.000Z</time>
      </trkpt>
      <trkpt lat="46.61762" lon="-1.8425">
        <ele>-149.19999694824</ele>
        <time>2021-02-23T09:17:30.000Z</time>
      </trkpt>
      <trkpt lat="46.61763" lon="-1.84238">
        <ele>-148.60000610352</ele>
        <time>2021-02-23T09:17:32.000Z</time>
      </trkpt>
      <trkpt lat="46.61764" lon="-1.84233">
        <ele>-148.39999389648</ele>
        <time>2021-02-23T09:17:33.000Z</time>
      </trkpt>
      <trkpt lat="46.61765" lon="-1.84228">
        <ele>-148.19999694824</ele>
        <time>2021-02-23T09:17:34.000Z</time>
      </trkpt>
      <trkpt lat="46.61767" lon="-1.84223">
        <ele>-148</ele>
        <time>2021-02-23T09:17:35.000Z</time>
      </trkpt>
      <trkpt lat="46.6177" lon="-1.8422">
        <ele>-148</ele>
        <time>2021-02-23T09:17:36.000Z</time>
      </trkpt>
      <trkpt lat="46.61777" lon="-1.84219">
        <ele>-148</ele>
        <time>2021-02-23T09:17:38.000Z</time>
      </trkpt>
      <trkpt lat="46.61787" lon="-1.8422">
        <ele>-147.60000610352</ele>
        <time>2021-02-23T09:17:40.000Z</time>
      </trkpt>
      <trkpt lat="46.6179" lon="-1.84222">
        <ele>-147.60000610352</ele>
        <time>2021-02-23T09:17:41.000Z</time>
      </trkpt>
      <trkpt lat="46.61794" lon="-1.84223">
        <ele>-147</ele>
        <time>2021-02-23T09:17:42.000Z</time>
      </trkpt>
      <trkpt lat="46.61808" lon="-1.84229">
        <ele>-146.39999389648</ele>
        <time>2021-02-23T09:17:45.000Z</time>
      </trkpt>
      <trkpt lat="46.61813" lon="-1.84231">
        <ele>-146</ele>
        <time>2021-02-23T09:17:46.000Z</time>
      </trkpt>
      <trkpt lat="46.61817" lon="-1.84233">
        <ele>-145.80000305176</ele>
        <time>2021-02-23T09:17:47.000Z</time>
      </trkpt>
      <trkpt lat="46.61822" lon="-1.84234">
        <ele>-145.80000305176</ele>
        <time>2021-02-23T09:17:48.000Z</time>
      </trkpt>
      <trkpt lat="46.61827" lon="-1.84238">
        <ele>-145.60000610352</ele>
        <time>2021-02-23T09:17:49.000Z</time>
      </trkpt>
      <trkpt lat="46.61832" lon="-1.84241">
        <ele>-145.60000610352</ele>
        <time>2021-02-23T09:17:50.000Z</time>
      </trkpt>
      <trkpt lat="46.61838" lon="-1.84244">
        <ele>-145.39999389648</ele>
        <time>2021-02-23T09:17:51.000Z</time>
      </trkpt>
      <trkpt lat="46.61843" lon="-1.84246">
        <ele>-145.39999389648</ele>
        <time>2021-02-23T09:17:52.000Z</time>
      </trkpt>
      <trkpt lat="46.61847" lon="-1.84248">
        <ele>-145.39999389648</ele>
        <time>2021-02-23T09:17:53.000Z</time>
      </trkpt>
      <trkpt lat="46.61852" lon="-1.8425">
        <ele>-145.19999694824</ele>
        <time>2021-02-23T09:17:54.000Z</time>
      </trkpt>
      <trkpt lat="46.61857" lon="-1.84253">
        <ele>-145.19999694824</ele>
        <time>2021-02-23T09:17:55.000Z</time>
      </trkpt>
      <trkpt lat="46.61862" lon="-1.84256">
        <ele>-145.19999694824</ele>
        <time>2021-02-23T09:17:56.000Z</time>
      </trkpt>
      <trkpt lat="46.61867" lon="-1.84259">
        <ele>-145.19999694824</ele>
        <time>2021-02-23T09:17:57.000Z</time>
      </trkpt>
      <trkpt lat="46.61872" lon="-1.84262">
        <ele>-145.19999694824</ele>
        <time>2021-02-23T09:17:58.000Z</time>
      </trkpt>
      <trkpt lat="46.61878" lon="-1.84263">
        <ele>-145.19999694824</ele>
        <time>2021-02-23T09:17:59.000Z</time>
      </trkpt>
      <trkpt lat="46.61883" lon="-1.84263">
        <ele>-144.80000305176</ele>
        <time>2021-02-23T09:18:00.000Z</time>
      </trkpt>
      <trkpt lat="46.61889" lon="-1.84262">
        <ele>-144.80000305176</ele>
        <time>2021-02-23T09:18:01.000Z</time>
      </trkpt>
      <trkpt lat="46.61894" lon="-1.84259">
        <ele>-144.80000305176</ele>
        <time>2021-02-23T09:18:02.000Z</time>
      </trkpt>
      <trkpt lat="46.61899" lon="-1.84257">
        <ele>-144.80000305176</ele>
        <time>2021-02-23T09:18:03.000Z</time>
      </trkpt>
      <trkpt lat="46.61903" lon="-1.84253">
        <ele>-144.80000305176</ele>
        <time>2021-02-23T09:18:04.000Z</time>
      </trkpt>
      <trkpt lat="46.61906" lon="-1.84247">
        <ele>-144.80000305176</ele>
        <time>2021-02-23T09:18:05.000Z</time>
      </trkpt>
      <trkpt lat="46.61909" lon="-1.8424">
        <ele>-144.80000305176</ele>
        <time>2021-02-23T09:18:06.000Z</time>
      </trkpt>
      <trkpt lat="46.6191" lon="-1.84233">
        <ele>-144.80000305176</ele>
        <time>2021-02-23T09:18:07.000Z</time>
      </trkpt>
      <trkpt lat="46.61912" lon="-1.84225">
        <ele>-144.80000305176</ele>
        <time>2021-02-23T09:18:08.000Z</time>
      </trkpt>
      <trkpt lat="46.61914" lon="-1.84218">
        <ele>-144.80000305176</ele>
        <time>2021-02-23T09:18:09.000Z</time>
      </trkpt>
      <trkpt lat="46.61917" lon="-1.84203">
        <ele>-144.60000610352</ele>
        <time>2021-02-23T09:18:11.000Z</time>
      </trkpt>
      <trkpt lat="46.61919" lon="-1.84196">
        <ele>-144.39999389648</ele>
        <time>2021-02-23T09:18:12.000Z</time>
      </trkpt>
      <trkpt lat="46.61924" lon="-1.84168">
        <ele>-143.39999389648</ele>
        <time>2021-02-23T09:18:16.000Z</time>
      </trkpt>
      <trkpt lat="46.61926" lon="-1.84161">
        <ele>-143.19999694824</ele>
        <time>2021-02-23T09:18:17.000Z</time>
      </trkpt>
      <trkpt lat="46.6193" lon="-1.84144">
        <ele>-143.19999694824</ele>
        <time>2021-02-23T09:18:19.000Z</time>
      </trkpt>
      <trkpt lat="46.61933" lon="-1.84136">
        <ele>-143.19999694824</ele>
        <time>2021-02-23T09:18:20.000Z</time>
      </trkpt>
      <trkpt lat="46.61935" lon="-1.84128">
        <ele>-143.19999694824</ele>
        <time>2021-02-23T09:18:21.000Z</time>
      </trkpt>
      <trkpt lat="46.61936" lon="-1.84121">
        <ele>-143.19999694824</ele>
        <time>2021-02-23T09:18:22.000Z</time>
      </trkpt>
      <trkpt lat="46.61937" lon="-1.84113">
        <ele>-143.39999389648</ele>
        <time>2021-02-23T09:18:23.000Z</time>
      </trkpt>
      <trkpt lat="46.61939" lon="-1.84105">
        <ele>-143.39999389648</ele>
        <time>2021-02-23T09:18:24.000Z</time>
      </trkpt>
      <trkpt lat="46.61942" lon="-1.84098">
        <ele>-143.39999389648</ele>
        <time>2021-02-23T09:18:25.000Z</time>
      </trkpt>
      <trkpt lat="46.61944" lon="-1.84091">
        <ele>-143.60000610352</ele>
        <time>2021-02-23T09:18:26.000Z</time>
      </trkpt>
      <trkpt lat="46.61947" lon="-1.84085">
        <ele>-143.60000610352</ele>
        <time>2021-02-23T09:18:27.000Z</time>
      </trkpt>
      <trkpt lat="46.61949" lon="-1.84078">
        <ele>-143.60000610352</ele>
        <time>2021-02-23T09:18:28.000Z</time>
      </trkpt>
      <trkpt lat="46.61959" lon="-1.84052">
        <ele>-143.80000305176</ele>
        <time>2021-02-23T09:18:32.000Z</time>
      </trkpt>
      <trkpt lat="46.61961" lon="-1.84046">
        <ele>-143.80000305176</ele>
        <time>2021-02-23T09:18:33.000Z</time>
      </trkpt>
      <trkpt lat="46.61964" lon="-1.84041">
        <ele>-143.80000305176</ele>
        <time>2021-02-23T09:18:34.000Z</time>
      </trkpt>
      <trkpt lat="46.61967" lon="-1.84036">
        <ele>-143.80000305176</ele>
        <time>2021-02-23T09:18:35.000Z</time>
      </trkpt>
      <trkpt lat="46.6197" lon="-1.84032">
        <ele>-143.60000610352</ele>
        <time>2021-02-23T09:18:36.000Z</time>
      </trkpt>
      <trkpt lat="46.61972" lon="-1.84027">
        <ele>-143.39999389648</ele>
        <time>2021-02-23T09:18:37.000Z</time>
      </trkpt>
      <trkpt lat="46.61975" lon="-1.84023">
        <ele>-143.19999694824</ele>
        <time>2021-02-23T09:18:38.000Z</time>
      </trkpt>
      <trkpt lat="46.61977" lon="-1.84019">
        <ele>-143</ele>
        <time>2021-02-23T09:18:39.000Z</time>
      </trkpt>
      <trkpt lat="46.61979" lon="-1.84015">
        <ele>-142.80000305176</ele>
        <time>2021-02-23T09:18:40.000Z</time>
      </trkpt>
      <trkpt lat="46.61982" lon="-1.84011">
        <ele>-142.60000610352</ele>
        <time>2021-02-23T09:18:41.000Z</time>
      </trkpt>
      <trkpt lat="46.61985" lon="-1.84008">
        <ele>-142.39999389648</ele>
        <time>2021-02-23T09:18:42.000Z</time>
      </trkpt>
      <trkpt lat="46.61987" lon="-1.84006">
        <ele>-142.19999694824</ele>
        <time>2021-02-23T09:18:43.000Z</time>
      </trkpt>
      <trkpt lat="46.6199" lon="-1.84004">
        <ele>-142</ele>
        <time>2021-02-23T09:18:44.000Z</time>
      </trkpt>
      <trkpt lat="46.61993" lon="-1.84003">
        <ele>-142</ele>
        <time>2021-02-23T09:18:45.000Z</time>
      </trkpt>
      <trkpt lat="46.61995" lon="-1.84001">
        <ele>-142</ele>
        <time>2021-02-23T09:18:46.000Z</time>
      </trkpt>
      <trkpt lat="46.62002" lon="-1.83997">
        <ele>-141.60000610352</ele>
        <time>2021-02-23T09:18:49.000Z</time>
      </trkpt>
      <trkpt lat="46.62005" lon="-1.83994">
        <ele>-141.39999389648</ele>
        <time>2021-02-23T09:18:51.000Z</time>
      </trkpt>
      <trkpt lat="46.62008" lon="-1.83992">
        <ele>-141.19999694824</ele>
        <time>2021-02-23T09:18:52.000Z</time>
      </trkpt>
      <trkpt lat="46.6201" lon="-1.8399">
        <ele>-141</ele>
        <time>2021-02-23T09:18:53.000Z</time>
      </trkpt>
      <trkpt lat="46.62013" lon="-1.83988">
        <ele>-140.80000305176</ele>
        <time>2021-02-23T09:18:54.000Z</time>
      </trkpt>
      <trkpt lat="46.62015" lon="-1.83986">
        <ele>-140.60000610352</ele>
        <time>2021-02-23T09:18:55.000Z</time>
      </trkpt>
      <trkpt lat="46.62017" lon="-1.83984">
        <ele>-140.60000610352</ele>
        <time>2021-02-23T09:18:56.000Z</time>
      </trkpt>
      <trkpt lat="46.62019" lon="-1.83981">
        <ele>-140.39999389648</ele>
        <time>2021-02-23T09:18:57.000Z</time>
      </trkpt>
      <trkpt lat="46.62022" lon="-1.83978">
        <ele>-140.19999694824</ele>
        <time>2021-02-23T09:18:58.000Z</time>
      </trkpt>
      <trkpt lat="46.62025" lon="-1.83976">
        <ele>-140.19999694824</ele>
        <time>2021-02-23T09:18:59.000Z</time>
      </trkpt>
      <trkpt lat="46.62028" lon="-1.83974">
        <ele>-140</ele>
        <time>2021-02-23T09:19:00.000Z</time>
      </trkpt>
      <trkpt lat="46.62031" lon="-1.83971">
        <ele>-139.80000305176</ele>
        <time>2021-02-23T09:19:01.000Z</time>
      </trkpt>
      <trkpt lat="46.62033" lon="-1.83967">
        <ele>-139.39999389648</ele>
        <time>2021-02-23T09:19:02.000Z</time>
      </trkpt>
      <trkpt lat="46.62037" lon="-1.83962">
        <ele>-139.19999694824</ele>
        <time>2021-02-23T09:19:03.000Z</time>
      </trkpt>
      <trkpt lat="46.62041" lon="-1.83958">
        <ele>-139</ele>
        <time>2021-02-23T09:19:04.000Z</time>
      </trkpt>
      <trkpt lat="46.62044" lon="-1.83954">
        <ele>-139</ele>
        <time>2021-02-23T09:19:05.000Z</time>
      </trkpt>
      <trkpt lat="46.62047" lon="-1.8395">
        <ele>-138.80000305176</ele>
        <time>2021-02-23T09:19:06.000Z</time>
      </trkpt>
      <trkpt lat="46.6205" lon="-1.83946">
        <ele>-138.60000610352</ele>
        <time>2021-02-23T09:19:07.000Z</time>
      </trkpt>
      <trkpt lat="46.62054" lon="-1.83941">
        <ele>-138.60000610352</ele>
        <time>2021-02-23T09:19:08.000Z</time>
      </trkpt>
      <trkpt lat="46.62056" lon="-1.83936">
        <ele>-138.39999389648</ele>
        <time>2021-02-23T09:19:09.000Z</time>
      </trkpt>
      <trkpt lat="46.6206" lon="-1.83933">
        <ele>-138.39999389648</ele>
        <time>2021-02-23T09:19:10.000Z</time>
      </trkpt>
      <trkpt lat="46.62065" lon="-1.8393">
        <ele>-138.39999389648</ele>
        <time>2021-02-23T09:19:11.000Z</time>
      </trkpt>
      <trkpt lat="46.62069" lon="-1.83927">
        <ele>-138.39999389648</ele>
        <time>2021-02-23T09:19:12.000Z</time>
      </trkpt>
      <trkpt lat="46.62073" lon="-1.83923">
        <ele>-138.19999694824</ele>
        <time>2021-02-23T09:19:13.000Z</time>
      </trkpt>
      <trkpt lat="46.62076" lon="-1.83919">
        <ele>-138</ele>
        <time>2021-02-23T09:19:14.000Z</time>
      </trkpt>
      <trkpt lat="46.6208" lon="-1.83916">
        <ele>-138</ele>
        <time>2021-02-23T09:19:15.000Z</time>
      </trkpt>
      <trkpt lat="46.62085" lon="-1.83914">
        <ele>-137.80000305176</ele>
        <time>2021-02-23T09:19:16.000Z</time>
      </trkpt>
      <trkpt lat="46.62088" lon="-1.83912">
        <ele>-137.80000305176</ele>
        <time>2021-02-23T09:19:17.000Z</time>
      </trkpt>
      <trkpt lat="46.62092" lon="-1.83909">
        <ele>-137.80000305176</ele>
        <time>2021-02-23T09:19:18.000Z</time>
      </trkpt>
      <trkpt lat="46.62097" lon="-1.83907">
        <ele>-137.60000610352</ele>
        <time>2021-02-23T09:19:19.000Z</time>
      </trkpt>
      <trkpt lat="46.62102" lon="-1.83904">
        <ele>-137.39999389648</ele>
        <time>2021-02-23T09:19:20.000Z</time>
      </trkpt>
      <trkpt lat="46.62106" lon="-1.83903">
        <ele>-137.39999389648</ele>
        <time>2021-02-23T09:19:21.000Z</time>
      </trkpt>
      <trkpt lat="46.62109" lon="-1.839">
        <ele>-137.39999389648</ele>
        <time>2021-02-23T09:19:22.000Z</time>
      </trkpt>
      <trkpt lat="46.62112" lon="-1.83898">
        <ele>-137.19999694824</ele>
        <time>2021-02-23T09:19:23.000Z</time>
      </trkpt>
      <trkpt lat="46.62115" lon="-1.83897">
        <ele>-137.19999694824</ele>
        <time>2021-02-23T09:19:24.000Z</time>
      </trkpt>
      <trkpt lat="46.62118" lon="-1.83895">
        <ele>-137.19999694824</ele>
        <time>2021-02-23T09:19:25.000Z</time>
      </trkpt>
      <trkpt lat="46.62121" lon="-1.83894">
        <ele>-137.19999694824</ele>
        <time>2021-02-23T09:19:26.000Z</time>
      </trkpt>
      <trkpt lat="46.62125" lon="-1.83892">
        <ele>-137</ele>
        <time>2021-02-23T09:19:27.000Z</time>
      </trkpt>
      <trkpt lat="46.62127" lon="-1.83889">
        <ele>-136.80000305176</ele>
        <time>2021-02-23T09:19:28.000Z</time>
      </trkpt>
      <trkpt lat="46.62131" lon="-1.83886">
        <ele>-136.60000610352</ele>
        <time>2021-02-23T09:19:29.000Z</time>
      </trkpt>
      <trkpt lat="46.62134" lon="-1.83884">
        <ele>-136.39999389648</ele>
        <time>2021-02-23T09:19:30.000Z</time>
      </trkpt>
      <trkpt lat="46.62136" lon="-1.83882">
        <ele>-136.19999694824</ele>
        <time>2021-02-23T09:19:31.000Z</time>
      </trkpt>
      <trkpt lat="46.62139" lon="-1.83879">
        <ele>-136</ele>
        <time>2021-02-23T09:19:32.000Z</time>
      </trkpt>
      <trkpt lat="46.62142" lon="-1.83876">
        <ele>-136</ele>
        <time>2021-02-23T09:19:33.000Z</time>
      </trkpt>
      <trkpt lat="46.62145" lon="-1.83874">
        <ele>-135.80000305176</ele>
        <time>2021-02-23T09:19:34.000Z</time>
      </trkpt>
      <trkpt lat="46.62148" lon="-1.83871">
        <ele>-135.80000305176</ele>
        <time>2021-02-23T09:19:35.000Z</time>
      </trkpt>
      <trkpt lat="46.62151" lon="-1.83869">
        <ele>-135.80000305176</ele>
        <time>2021-02-23T09:19:36.000Z</time>
      </trkpt>
      <trkpt lat="46.62154" lon="-1.83866">
        <ele>-135.80000305176</ele>
        <time>2021-02-23T09:19:37.000Z</time>
      </trkpt>
      <trkpt lat="46.62155" lon="-1.83861">
        <ele>-135.80000305176</ele>
        <time>2021-02-23T09:19:38.000Z</time>
      </trkpt>
      <trkpt lat="46.62155" lon="-1.83856">
        <ele>-135.80000305176</ele>
        <time>2021-02-23T09:19:39.000Z</time>
      </trkpt>
      <trkpt lat="46.62154" lon="-1.83853">
        <ele>-135.80000305176</ele>
        <time>2021-02-23T09:19:40.000Z</time>
      </trkpt>
      <trkpt lat="46.62152" lon="-1.83851">
        <ele>-135.80000305176</ele>
        <time>2021-02-23T09:19:41.000Z</time>
      </trkpt>
      <trkpt lat="46.62149" lon="-1.83848">
        <ele>-135.80000305176</ele>
        <time>2021-02-23T09:19:42.000Z</time>
      </trkpt>
      <trkpt lat="46.62147" lon="-1.83846">
        <ele>-135.80000305176</ele>
        <time>2021-02-23T09:19:43.000Z</time>
      </trkpt>
      <trkpt lat="46.62145" lon="-1.83843">
        <ele>-135.80000305176</ele>
        <time>2021-02-23T09:19:44.000Z</time>
      </trkpt>
      <trkpt lat="46.62131" lon="-1.83831">
        <ele>-135.80000305176</ele>
        <time>2021-02-23T09:19:49.000Z</time>
      </trkpt>
      <trkpt lat="46.62128" lon="-1.83829">
        <ele>-135.80000305176</ele>
        <time>2021-02-23T09:19:50.000Z</time>
      </trkpt>
      <trkpt lat="46.62115" lon="-1.83821">
        <ele>-135.80000305176</ele>
        <time>2021-02-23T09:19:54.000Z</time>
      </trkpt>
      <trkpt lat="46.62111" lon="-1.83819">
        <ele>-135.80000305176</ele>
        <time>2021-02-23T09:19:55.000Z</time>
      </trkpt>
      <trkpt lat="46.62088" lon="-1.83812">
        <ele>-136.19999694824</ele>
        <time>2021-02-23T09:20:00.000Z</time>
      </trkpt>
      <trkpt lat="46.62072" lon="-1.83806">
        <ele>-136.39999389648</ele>
        <time>2021-02-23T09:20:03.000Z</time>
      </trkpt>
      <trkpt lat="46.62066" lon="-1.83804">
        <ele>-136.39999389648</ele>
        <time>2021-02-23T09:20:04.000Z</time>
      </trkpt>
      <trkpt lat="46.62061" lon="-1.83802">
        <ele>-136.60000610352</ele>
        <time>2021-02-23T09:20:05.000Z</time>
      </trkpt>
      <trkpt lat="46.62056" lon="-1.83801">
        <ele>-136.60000610352</ele>
        <time>2021-02-23T09:20:06.000Z</time>
      </trkpt>
      <trkpt lat="46.6205" lon="-1.83799">
        <ele>-136.80000305176</ele>
        <time>2021-02-23T09:20:07.000Z</time>
      </trkpt>
      <trkpt lat="46.62046" lon="-1.83798">
        <ele>-137</ele>
        <time>2021-02-23T09:20:08.000Z</time>
      </trkpt>
      <trkpt lat="46.62041" lon="-1.83797">
        <ele>-137</ele>
        <time>2021-02-23T09:20:09.000Z</time>
      </trkpt>
      <trkpt lat="46.62036" lon="-1.83797">
        <ele>-137</ele>
        <time>2021-02-23T09:20:10.000Z</time>
      </trkpt>
      <trkpt lat="46.62031" lon="-1.83796">
        <ele>-137</ele>
        <time>2021-02-23T09:20:11.000Z</time>
      </trkpt>
      <trkpt lat="46.62027" lon="-1.83795">
        <ele>-137.19999694824</ele>
        <time>2021-02-23T09:20:12.000Z</time>
      </trkpt>
      <trkpt lat="46.62022" lon="-1.83794">
        <ele>-137.39999389648</ele>
        <time>2021-02-23T09:20:13.000Z</time>
      </trkpt>
      <trkpt lat="46.61996" lon="-1.83788">
        <ele>-138</ele>
        <time>2021-02-23T09:20:19.000Z</time>
      </trkpt>
      <trkpt lat="46.61992" lon="-1.83786">
        <ele>-138</ele>
        <time>2021-02-23T09:20:20.000Z</time>
      </trkpt>
      <trkpt lat="46.61982" lon="-1.83783">
        <ele>-138.39999389648</ele>
        <time>2021-02-23T09:20:22.000Z</time>
      </trkpt>
      <trkpt lat="46.61974" lon="-1.83778">
        <ele>-138.60000610352</ele>
        <time>2021-02-23T09:20:24.000Z</time>
      </trkpt>
      <trkpt lat="46.61965" lon="-1.83772">
        <ele>-138.80000305176</ele>
        <time>2021-02-23T09:20:26.000Z</time>
      </trkpt>
      <trkpt lat="46.6195" lon="-1.83756">
        <ele>-139</ele>
        <time>2021-02-23T09:20:30.000Z</time>
      </trkpt>
      <trkpt lat="46.61947" lon="-1.83751">
        <ele>-139</ele>
        <time>2021-02-23T09:20:31.000Z</time>
      </trkpt>
      <trkpt lat="46.61945" lon="-1.83746">
        <ele>-139</ele>
        <time>2021-02-23T09:20:32.000Z</time>
      </trkpt>
      <trkpt lat="46.61942" lon="-1.83741">
        <ele>-138.80000305176</ele>
        <time>2021-02-23T09:20:33.000Z</time>
      </trkpt>
      <trkpt lat="46.61939" lon="-1.83736">
        <ele>-138.80000305176</ele>
        <time>2021-02-23T09:20:34.000Z</time>
      </trkpt>
      <trkpt lat="46.61937" lon="-1.83732">
        <ele>-138.80000305176</ele>
        <time>2021-02-23T09:20:35.000Z</time>
      </trkpt>
      <trkpt lat="46.61926" lon="-1.83713">
        <ele>-138.60000610352</ele>
        <time>2021-02-23T09:20:39.000Z</time>
      </trkpt>
      <trkpt lat="46.61923" lon="-1.83709">
        <ele>-138.60000610352</ele>
        <time>2021-02-23T09:20:40.000Z</time>
      </trkpt>
      <trkpt lat="46.61914" lon="-1.83696">
        <ele>-138.19999694824</ele>
        <time>2021-02-23T09:20:43.000Z</time>
      </trkpt>
      <trkpt lat="46.61912" lon="-1.83692">
        <ele>-138.19999694824</ele>
        <time>2021-02-23T09:20:44.000Z</time>
      </trkpt>
      <trkpt lat="46.61909" lon="-1.83688">
        <ele>-138</ele>
        <time>2021-02-23T09:20:45.000Z</time>
      </trkpt>
      <trkpt lat="46.61906" lon="-1.83684">
        <ele>-137.80000305176</ele>
        <time>2021-02-23T09:20:46.000Z</time>
      </trkpt>
      <trkpt lat="46.61904" lon="-1.8368">
        <ele>-137.80000305176</ele>
        <time>2021-02-23T09:20:47.000Z</time>
      </trkpt>
      <trkpt lat="46.61901" lon="-1.83676">
        <ele>-137.60000610352</ele>
        <time>2021-02-23T09:20:48.000Z</time>
      </trkpt>
      <trkpt lat="46.61898" lon="-1.83672">
        <ele>-137.60000610352</ele>
        <time>2021-02-23T09:20:49.000Z</time>
      </trkpt>
      <trkpt lat="46.61895" lon="-1.83668">
        <ele>-137.39999389648</ele>
        <time>2021-02-23T09:20:50.000Z</time>
      </trkpt>
      <trkpt lat="46.61893" lon="-1.83663">
        <ele>-137.39999389648</ele>
        <time>2021-02-23T09:20:51.000Z</time>
      </trkpt>
      <trkpt lat="46.61886" lon="-1.83644">
        <ele>-137.39999389648</ele>
        <time>2021-02-23T09:20:55.000Z</time>
      </trkpt>
      <trkpt lat="46.61881" lon="-1.83635">
        <ele>-137.39999389648</ele>
        <time>2021-02-23T09:20:57.000Z</time>
      </trkpt>
      <trkpt lat="46.61871" lon="-1.83621">
        <ele>-137.60000610352</ele>
        <time>2021-02-23T09:21:00.000Z</time>
      </trkpt>
      <trkpt lat="46.61862" lon="-1.83605">
        <ele>-138</ele>
        <time>2021-02-23T09:21:03.000Z</time>
      </trkpt>
      <trkpt lat="46.61852" lon="-1.83589">
        <ele>-139.39999389648</ele>
        <time>2021-02-23T09:21:06.000Z</time>
      </trkpt>
      <trkpt lat="46.61845" lon="-1.83563">
        <ele>-140.39999389648</ele>
        <time>2021-02-23T09:21:09.000Z</time>
      </trkpt>
      <trkpt lat="46.61839" lon="-1.83544">
        <ele>-141.39999389648</ele>
        <time>2021-02-23T09:21:11.000Z</time>
      </trkpt>
      <trkpt lat="46.61836" lon="-1.83535">
        <ele>-141.80000305176</ele>
        <time>2021-02-23T09:21:12.000Z</time>
      </trkpt>
      <trkpt lat="46.61833" lon="-1.83526">
        <ele>-142.80000305176</ele>
        <time>2021-02-23T09:21:13.000Z</time>
      </trkpt>
      <trkpt lat="46.61829" lon="-1.83518">
        <ele>-143.80000305176</ele>
        <time>2021-02-23T09:21:14.000Z</time>
      </trkpt>
      <trkpt lat="46.61827" lon="-1.8351">
        <ele>-144.19999694824</ele>
        <time>2021-02-23T09:21:15.000Z</time>
      </trkpt>
      <trkpt lat="46.61824" lon="-1.83502">
        <ele>-145</ele>
        <time>2021-02-23T09:21:16.000Z</time>
      </trkpt>
      <trkpt lat="46.61821" lon="-1.83496">
        <ele>-145.39999389648</ele>
        <time>2021-02-23T09:21:17.000Z</time>
      </trkpt>
      <trkpt lat="46.61817" lon="-1.8349">
        <ele>-146</ele>
        <time>2021-02-23T09:21:18.000Z</time>
      </trkpt>
      <trkpt lat="46.61814" lon="-1.83484">
        <ele>-146.60000610352</ele>
        <time>2021-02-23T09:21:19.000Z</time>
      </trkpt>
      <trkpt lat="46.6181" lon="-1.83478">
        <ele>-147.19999694824</ele>
        <time>2021-02-23T09:21:20.000Z</time>
      </trkpt>
      <trkpt lat="46.61806" lon="-1.83472">
        <ele>-148.19999694824</ele>
        <time>2021-02-23T09:21:21.000Z</time>
      </trkpt>
      <trkpt lat="46.61803" lon="-1.83468">
        <ele>-148.60000610352</ele>
        <time>2021-02-23T09:21:22.000Z</time>
      </trkpt>
      <trkpt lat="46.61798" lon="-1.83464">
        <ele>-149.80000305176</ele>
        <time>2021-02-23T09:21:23.000Z</time>
      </trkpt>
      <trkpt lat="46.61793" lon="-1.83463">
        <ele>-150.39999389648</ele>
        <time>2021-02-23T09:21:24.000Z</time>
      </trkpt>
      <trkpt lat="46.61788" lon="-1.83461">
        <ele>-151.19999694824</ele>
        <time>2021-02-23T09:21:25.000Z</time>
      </trkpt>
      <trkpt lat="46.61783" lon="-1.8346">
        <ele>-152.19999694824</ele>
        <time>2021-02-23T09:21:26.000Z</time>
      </trkpt>
      <trkpt lat="46.6178" lon="-1.83459">
        <ele>-152.60000610352</ele>
        <time>2021-02-23T09:21:27.000Z</time>
      </trkpt>
      <trkpt lat="46.61776" lon="-1.83457">
        <ele>-153.19999694824</ele>
        <time>2021-02-23T09:21:28.000Z</time>
      </trkpt>
      <trkpt lat="46.61773" lon="-1.83453">
        <ele>-153.80000305176</ele>
        <time>2021-02-23T09:21:29.000Z</time>
      </trkpt>
      <trkpt lat="46.61771" lon="-1.83447">
        <ele>-154.80000305176</ele>
        <time>2021-02-23T09:21:30.000Z</time>
      </trkpt>
      <trkpt lat="46.6177" lon="-1.83443">
        <ele>-155.19999694824</ele>
        <time>2021-02-23T09:21:31.000Z</time>
      </trkpt>
      <trkpt lat="46.61769" lon="-1.8344">
        <ele>-156</ele>
        <time>2021-02-23T09:21:32.000Z</time>
      </trkpt>
      <trkpt lat="46.61769" lon="-1.83438">
        <ele>-156.60000610352</ele>
        <time>2021-02-23T09:21:33.000Z</time>
      </trkpt>
      <trkpt lat="46.61768" lon="-1.83435">
        <ele>-156.80000305176</ele>
        <time>2021-02-23T09:21:34.000Z</time>
      </trkpt>
      <trkpt lat="46.61762" lon="-1.83428">
        <ele>-157.19999694824</ele>
        <time>2021-02-23T09:21:36.000Z</time>
      </trkpt>
      <trkpt lat="46.61761" lon="-1.83426">
        <ele>-157.39999389648</ele>
        <time>2021-02-23T09:21:37.000Z</time>
      </trkpt>
      <trkpt lat="46.61759" lon="-1.83424">
        <ele>-157.39999389648</ele>
        <time>2021-02-23T09:21:38.000Z</time>
      </trkpt>
      <trkpt lat="46.61759" lon="-1.83424">
        <ele>-157.39999389648</ele>
        <time>2021-02-23T09:21:39.000Z</time>
      </trkpt>
      <trkpt lat="46.61759" lon="-1.83421">
        <ele>-157.39999389648</ele>
        <time>2021-02-23T09:21:40.000Z</time>
      </trkpt>
      <trkpt lat="46.61758" lon="-1.83419">
        <ele>-157.39999389648</ele>
        <time>2021-02-23T09:21:41.000Z</time>
      </trkpt>
      <trkpt lat="46.61757" lon="-1.83416">
        <ele>-157.39999389648</ele>
        <time>2021-02-23T09:21:42.000Z</time>
      </trkpt>
      <trkpt lat="46.61757" lon="-1.83414">
        <ele>-157.39999389648</ele>
        <time>2021-02-23T09:21:43.000Z</time>
      </trkpt>
      <trkpt lat="46.61753" lon="-1.83408">
        <ele>-157.39999389648</ele>
        <time>2021-02-23T09:21:46.000Z</time>
      </trkpt>
      <trkpt lat="46.61752" lon="-1.83406">
        <ele>-157.60000610352</ele>
        <time>2021-02-23T09:21:47.000Z</time>
      </trkpt>
      <trkpt lat="46.6175" lon="-1.83395">
        <ele>-157.39999389648</ele>
        <time>2021-02-23T09:21:50.000Z</time>
      </trkpt>
      <trkpt lat="46.61748" lon="-1.83392">
        <ele>-157.39999389648</ele>
        <time>2021-02-23T09:21:51.000Z</time>
      </trkpt>
      <trkpt lat="46.61747" lon="-1.83386">
        <ele>-157.19999694824</ele>
        <time>2021-02-23T09:21:53.000Z</time>
      </trkpt>
      <trkpt lat="46.61745" lon="-1.83385">
        <ele>-156.80000305176</ele>
        <time>2021-02-23T09:21:54.000Z</time>
      </trkpt>
      <trkpt lat="46.61745" lon="-1.83384">
        <ele>-156.80000305176</ele>
        <time>2021-02-23T09:21:55.000Z</time>
      </trkpt>
      <trkpt lat="46.61745" lon="-1.83384">
        <ele>-156.60000610352</ele>
        <time>2021-02-23T09:21:56.000Z</time>
      </trkpt>
      <trkpt lat="46.61745" lon="-1.83384">
        <ele>-156.39999389648</ele>
        <time>2021-02-23T09:21:57.000Z</time>
      </trkpt>
      <trkpt lat="46.61745" lon="-1.83384">
        <ele>-155.39999389648</ele>
        <time>2021-02-23T09:22:00.000Z</time>
      </trkpt>
      <trkpt lat="46.61745" lon="-1.83384">
        <ele>-154.80000305176</ele>
        <time>2021-02-23T09:22:01.000Z</time>
      </trkpt>
      <trkpt lat="46.61745" lon="-1.83384">
        <ele>-154.60000610352</ele>
        <time>2021-02-23T09:22:02.000Z</time>
      </trkpt>
      <trkpt lat="46.61745" lon="-1.83384">
        <ele>-154.39999389648</ele>
        <time>2021-02-23T09:22:03.000Z</time>
      </trkpt>
      <trkpt lat="46.61745" lon="-1.83384">
        <ele>-154.19999694824</ele>
        <time>2021-02-23T09:22:04.000Z</time>
      </trkpt>
      <trkpt lat="46.61745" lon="-1.83384">
        <ele>-153.80000305176</ele>
        <time>2021-02-23T09:22:08.000Z</time>
      </trkpt>
      <trkpt lat="46.61745" lon="-1.83384">
        <ele>-153.80000305176</ele>
        <time>2021-02-23T09:22:10.000Z</time>
      </trkpt>
      <trkpt lat="46.61745" lon="-1.83384">
        <ele>-153.80000305176</ele>
        <time>2021-02-23T09:22:11.000Z</time>
      </trkpt>
      <trkpt lat="46.61745" lon="-1.83384">
        <ele>-153.60000610352</ele>
        <time>2021-02-23T09:22:12.000Z</time>
      </trkpt>
      <trkpt lat="46.61745" lon="-1.83384">
        <ele>-153.60000610352</ele>
        <time>2021-02-23T09:22:13.000Z</time>
      </trkpt>
      <trkpt lat="46.61745" lon="-1.83384">
        <ele>-153.60000610352</ele>
        <time>2021-02-23T09:22:14.000Z</time>
      </trkpt>
      <trkpt lat="46.61745" lon="-1.83384">
        <ele>-153.39999389648</ele>
        <time>2021-02-23T09:22:15.000Z</time>
      </trkpt>
      <trkpt lat="46.61745" lon="-1.83384">
        <ele>-153.19999694824</ele>
        <time>2021-02-23T09:22:16.000Z</time>
      </trkpt>
      <trkpt lat="46.61745" lon="-1.83384">
        <ele>-153.19999694824</ele>
        <time>2021-02-23T09:22:17.000Z</time>
      </trkpt>
      <trkpt lat="46.61731" lon="-1.83382">
        <ele>-152.19999694824</ele>
        <time>2021-02-23T09:22:27.000Z</time>
      </trkpt>
      <trkpt lat="46.61731" lon="-1.83382">
        <ele>-152.19999694824</ele>
        <time>2021-02-23T09:22:28.000Z</time>
      </trkpt>
      <trkpt lat="46.6173" lon="-1.83383">
        <ele>-152</ele>
        <time>2021-02-23T09:22:29.000Z</time>
      </trkpt>
      <trkpt lat="46.6173" lon="-1.83383">
        <ele>-151.80000305176</ele>
        <time>2021-02-23T09:22:30.000Z</time>
      </trkpt>
      <trkpt lat="46.6173" lon="-1.83383">
        <ele>-151.80000305176</ele>
        <time>2021-02-23T09:22:31.000Z</time>
      </trkpt>
      <trkpt lat="46.6173" lon="-1.83383">
        <ele>-151.60000610352</ele>
        <time>2021-02-23T09:22:33.000Z</time>
      </trkpt>
      <trkpt lat="46.6173" lon="-1.83383">
        <ele>-151.39999389648</ele>
        <time>2021-02-23T09:22:34.000Z</time>
      </trkpt>
      <trkpt lat="46.61728" lon="-1.83383">
        <ele>-151.19999694824</ele>
        <time>2021-02-23T09:22:35.000Z</time>
      </trkpt>
      <trkpt lat="46.61728" lon="-1.83383">
        <ele>-151</ele>
        <time>2021-02-23T09:22:36.000Z</time>
      </trkpt>
      <trkpt lat="46.61728" lon="-1.83383">
        <ele>-151</ele>
        <time>2021-02-23T09:22:37.000Z</time>
      </trkpt>
      <trkpt lat="46.61728" lon="-1.83383">
        <ele>-150.80000305176</ele>
        <time>2021-02-23T09:22:38.000Z</time>
      </trkpt>
      <trkpt lat="46.61728" lon="-1.83383">
        <ele>-150.80000305176</ele>
        <time>2021-02-23T09:22:39.000Z</time>
      </trkpt>
      <trkpt lat="46.61727" lon="-1.83381">
        <ele>-150.60000610352</ele>
        <time>2021-02-23T09:22:40.000Z</time>
      </trkpt>
      <trkpt lat="46.61726" lon="-1.8338">
        <ele>-149.60000610352</ele>
        <time>2021-02-23T09:22:45.000Z</time>
      </trkpt>
      <trkpt lat="46.61726" lon="-1.8338">
        <ele>-149.39999389648</ele>
        <time>2021-02-23T09:22:46.000Z</time>
      </trkpt>
      <trkpt lat="46.61725" lon="-1.83378">
        <ele>-149.19999694824</ele>
        <time>2021-02-23T09:22:47.000Z</time>
      </trkpt>
      <trkpt lat="46.61724" lon="-1.83376">
        <ele>-149.19999694824</ele>
        <time>2021-02-23T09:22:48.000Z</time>
      </trkpt>
      <trkpt lat="46.61722" lon="-1.83374">
        <ele>-149.19999694824</ele>
        <time>2021-02-23T09:22:49.000Z</time>
      </trkpt>
      <trkpt lat="46.6172" lon="-1.83371">
        <ele>-149.19999694824</ele>
        <time>2021-02-23T09:22:50.000Z</time>
      </trkpt>
      <trkpt lat="46.61718" lon="-1.83369">
        <ele>-149</ele>
        <time>2021-02-23T09:22:51.000Z</time>
      </trkpt>
      <trkpt lat="46.61716" lon="-1.83366">
        <ele>-149</ele>
        <time>2021-02-23T09:22:52.000Z</time>
      </trkpt>
      <trkpt lat="46.61713" lon="-1.83364">
        <ele>-148.60000610352</ele>
        <time>2021-02-23T09:22:53.000Z</time>
      </trkpt>
      <trkpt lat="46.61711" lon="-1.83361">
        <ele>-148.39999389648</ele>
        <time>2021-02-23T09:22:54.000Z</time>
      </trkpt>
      <trkpt lat="46.61707" lon="-1.83359">
        <ele>-148.19999694824</ele>
        <time>2021-02-23T09:22:55.000Z</time>
      </trkpt>
      <trkpt lat="46.61704" lon="-1.83356">
        <ele>-148</ele>
        <time>2021-02-23T09:22:56.000Z</time>
      </trkpt>
      <trkpt lat="46.61701" lon="-1.83354">
        <ele>-147.80000305176</ele>
        <time>2021-02-23T09:22:57.000Z</time>
      </trkpt>
      <trkpt lat="46.61698" lon="-1.83352">
        <ele>-147.80000305176</ele>
        <time>2021-02-23T09:22:58.000Z</time>
      </trkpt>
      <trkpt lat="46.61696" lon="-1.8335">
        <ele>-147.60000610352</ele>
        <time>2021-02-23T09:22:59.000Z</time>
      </trkpt>
      <trkpt lat="46.61695" lon="-1.83348">
        <ele>-147.39999389648</ele>
        <time>2021-02-23T09:23:00.000Z</time>
      </trkpt>
      <trkpt lat="46.61693" lon="-1.83345">
        <ele>-147.19999694824</ele>
        <time>2021-02-23T09:23:01.000Z</time>
      </trkpt>
      <trkpt lat="46.61692" lon="-1.83343">
        <ele>-146.80000305176</ele>
        <time>2021-02-23T09:23:02.000Z</time>
      </trkpt>
      <trkpt lat="46.6169" lon="-1.83341">
        <ele>-146.60000610352</ele>
        <time>2021-02-23T09:23:03.000Z</time>
      </trkpt>
      <trkpt lat="46.61686" lon="-1.83339">
        <ele>-146.19999694824</ele>
        <time>2021-02-23T09:23:04.000Z</time>
      </trkpt>
      <trkpt lat="46.6168" lon="-1.83337">
        <ele>-146</ele>
        <time>2021-02-23T09:23:05.000Z</time>
      </trkpt>
      <trkpt lat="46.61675" lon="-1.83334">
        <ele>-145.60000610352</ele>
        <time>2021-02-23T09:23:06.000Z</time>
      </trkpt>
      <trkpt lat="46.61671" lon="-1.83331">
        <ele>-145.19999694824</ele>
        <time>2021-02-23T09:23:07.000Z</time>
      </trkpt>
      <trkpt lat="46.61668" lon="-1.83329">
        <ele>-144.80000305176</ele>
        <time>2021-02-23T09:23:08.000Z</time>
      </trkpt>
      <trkpt lat="46.61665" lon="-1.83327">
        <ele>-144.39999389648</ele>
        <time>2021-02-23T09:23:09.000Z</time>
      </trkpt>
      <trkpt lat="46.61663" lon="-1.83324">
        <ele>-144.19999694824</ele>
        <time>2021-02-23T09:23:10.000Z</time>
      </trkpt>
      <trkpt lat="46.61662" lon="-1.83322">
        <ele>-144</ele>
        <time>2021-02-23T09:23:11.000Z</time>
      </trkpt>
      <trkpt lat="46.61662" lon="-1.8332">
        <ele>-144</ele>
        <time>2021-02-23T09:23:12.000Z</time>
      </trkpt>
      <trkpt lat="46.6166" lon="-1.83318">
        <ele>-143.60000610352</ele>
        <time>2021-02-23T09:23:13.000Z</time>
      </trkpt>
      <trkpt lat="46.61657" lon="-1.83315">
        <ele>-143.39999389648</ele>
        <time>2021-02-23T09:23:14.000Z</time>
      </trkpt>
      <trkpt lat="46.61653" lon="-1.83311">
        <ele>-143.19999694824</ele>
        <time>2021-02-23T09:23:15.000Z</time>
      </trkpt>
      <trkpt lat="46.61651" lon="-1.83307">
        <ele>-143</ele>
        <time>2021-02-23T09:23:16.000Z</time>
      </trkpt>
      <trkpt lat="46.6165" lon="-1.83304">
        <ele>-142.80000305176</ele>
        <time>2021-02-23T09:23:17.000Z</time>
      </trkpt>
      <trkpt lat="46.61649" lon="-1.833">
        <ele>-142.19999694824</ele>
        <time>2021-02-23T09:23:18.000Z</time>
      </trkpt>
      <trkpt lat="46.61648" lon="-1.83296">
        <ele>-141.80000305176</ele>
        <time>2021-02-23T09:23:19.000Z</time>
      </trkpt>
      <trkpt lat="46.61646" lon="-1.83292">
        <ele>-141.80000305176</ele>
        <time>2021-02-23T09:23:20.000Z</time>
      </trkpt>
      <trkpt lat="46.61644" lon="-1.83289">
        <ele>-141.60000610352</ele>
        <time>2021-02-23T09:23:21.000Z</time>
      </trkpt>
      <trkpt lat="46.61643" lon="-1.83286">
        <ele>-141.39999389648</ele>
        <time>2021-02-23T09:23:22.000Z</time>
      </trkpt>
      <trkpt lat="46.61641" lon="-1.83282">
        <ele>-141.19999694824</ele>
        <time>2021-02-23T09:23:23.000Z</time>
      </trkpt>
      <trkpt lat="46.61639" lon="-1.83279">
        <ele>-141.19999694824</ele>
        <time>2021-02-23T09:23:24.000Z</time>
      </trkpt>
      <trkpt lat="46.61637" lon="-1.83275">
        <ele>-141</ele>
        <time>2021-02-23T09:23:25.000Z</time>
      </trkpt>
      <trkpt lat="46.61636" lon="-1.83271">
        <ele>-140.80000305176</ele>
        <time>2021-02-23T09:23:26.000Z</time>
      </trkpt>
      <trkpt lat="46.61635" lon="-1.83267">
        <ele>-140.80000305176</ele>
        <time>2021-02-23T09:23:27.000Z</time>
      </trkpt>
      <trkpt lat="46.61635" lon="-1.83263">
        <ele>-140.60000610352</ele>
        <time>2021-02-23T09:23:28.000Z</time>
      </trkpt>
      <trkpt lat="46.61635" lon="-1.83258">
        <ele>-140.60000610352</ele>
        <time>2021-02-23T09:23:29.000Z</time>
      </trkpt>
      <trkpt lat="46.61633" lon="-1.83255">
        <ele>-140.60000610352</ele>
        <time>2021-02-23T09:23:30.000Z</time>
      </trkpt>
      <trkpt lat="46.61632" lon="-1.83251">
        <ele>-140.60000610352</ele>
        <time>2021-02-23T09:23:31.000Z</time>
      </trkpt>
      <trkpt lat="46.61631" lon="-1.83247">
        <ele>-140.39999389648</ele>
        <time>2021-02-23T09:23:32.000Z</time>
      </trkpt>
      <trkpt lat="46.6163" lon="-1.83243">
        <ele>-140.39999389648</ele>
        <time>2021-02-23T09:23:33.000Z</time>
      </trkpt>
      <trkpt lat="46.6163" lon="-1.8324">
        <ele>-140.39999389648</ele>
        <time>2021-02-23T09:23:34.000Z</time>
      </trkpt>
      <trkpt lat="46.61629" lon="-1.83237">
        <ele>-140.39999389648</ele>
        <time>2021-02-23T09:23:35.000Z</time>
      </trkpt>
      <trkpt lat="46.61629" lon="-1.83234">
        <ele>-140.39999389648</ele>
        <time>2021-02-23T09:23:36.000Z</time>
      </trkpt>
      <trkpt lat="46.61628" lon="-1.83231">
        <ele>-140.39999389648</ele>
        <time>2021-02-23T09:23:37.000Z</time>
      </trkpt>
      <trkpt lat="46.61628" lon="-1.83229">
        <ele>-140.39999389648</ele>
        <time>2021-02-23T09:23:38.000Z</time>
      </trkpt>
      <trkpt lat="46.61627" lon="-1.83227">
        <ele>-140.60000610352</ele>
        <time>2021-02-23T09:23:39.000Z</time>
      </trkpt>
      <trkpt lat="46.61627" lon="-1.83227">
        <ele>-139.60000610352</ele>
        <time>2021-02-23T09:24:16.000Z</time>
      </trkpt>
      <trkpt lat="46.61628" lon="-1.8322">
        <ele>-139.39999389648</ele>
        <time>2021-02-23T09:24:18.000Z</time>
      </trkpt>
      <trkpt lat="46.61632" lon="-1.8321">
        <ele>-139.19999694824</ele>
        <time>2021-02-23T09:24:20.000Z</time>
      </trkpt>
      <trkpt lat="46.61636" lon="-1.83197">
        <ele>-139.80000305176</ele>
        <time>2021-02-23T09:24:22.000Z</time>
      </trkpt>
      <trkpt lat="46.61641" lon="-1.83183">
        <ele>-140.80000305176</ele>
        <time>2021-02-23T09:24:24.000Z</time>
      </trkpt>
      <trkpt lat="46.61649" lon="-1.83161">
        <ele>-142.39999389648</ele>
        <time>2021-02-23T09:24:27.000Z</time>
      </trkpt>
      <trkpt lat="46.61651" lon="-1.83154">
        <ele>-142.80000305176</ele>
        <time>2021-02-23T09:24:28.000Z</time>
      </trkpt>
      <trkpt lat="46.61653" lon="-1.83147">
        <ele>-143.19999694824</ele>
        <time>2021-02-23T09:24:29.000Z</time>
      </trkpt>
      <trkpt lat="46.61655" lon="-1.8314">
        <ele>-143.39999389648</ele>
        <time>2021-02-23T09:24:30.000Z</time>
      </trkpt>
      <trkpt lat="46.61657" lon="-1.83133">
        <ele>-143.80000305176</ele>
        <time>2021-02-23T09:24:31.000Z</time>
      </trkpt>
      <trkpt lat="46.6166" lon="-1.83126">
        <ele>-144</ele>
        <time>2021-02-23T09:24:32.000Z</time>
      </trkpt>
      <trkpt lat="46.61678" lon="-1.83082">
        <ele>-144.60000610352</ele>
        <time>2021-02-23T09:24:38.000Z</time>
      </trkpt>
      <trkpt lat="46.61687" lon="-1.83059">
        <ele>-144.80000305176</ele>
        <time>2021-02-23T09:24:41.000Z</time>
      </trkpt>
      <trkpt lat="46.61694" lon="-1.83045">
        <ele>-144.80000305176</ele>
        <time>2021-02-23T09:24:43.000Z</time>
      </trkpt>
      <trkpt lat="46.61699" lon="-1.83029">
        <ele>-144.80000305176</ele>
        <time>2021-02-23T09:24:45.000Z</time>
      </trkpt>
      <trkpt lat="46.61702" lon="-1.83022">
        <ele>-144.60000610352</ele>
        <time>2021-02-23T09:24:46.000Z</time>
      </trkpt>
      <trkpt lat="46.61704" lon="-1.83015">
        <ele>-144.60000610352</ele>
        <time>2021-02-23T09:24:47.000Z</time>
      </trkpt>
      <trkpt lat="46.61707" lon="-1.83009">
        <ele>-144.19999694824</ele>
        <time>2021-02-23T09:24:48.000Z</time>
      </trkpt>
      <trkpt lat="46.61709" lon="-1.83003">
        <ele>-144.19999694824</ele>
        <time>2021-02-23T09:24:49.000Z</time>
      </trkpt>
      <trkpt lat="46.61712" lon="-1.82997">
        <ele>-144</ele>
        <time>2021-02-23T09:24:50.000Z</time>
      </trkpt>
      <trkpt lat="46.61714" lon="-1.82991">
        <ele>-143.80000305176</ele>
        <time>2021-02-23T09:24:51.000Z</time>
      </trkpt>
      <trkpt lat="46.61717" lon="-1.82986">
        <ele>-143.39999389648</ele>
        <time>2021-02-23T09:24:52.000Z</time>
      </trkpt>
      <trkpt lat="46.6172" lon="-1.82981">
        <ele>-142.60000610352</ele>
        <time>2021-02-23T09:24:53.000Z</time>
      </trkpt>
      <trkpt lat="46.61724" lon="-1.82976">
        <ele>-142.19999694824</ele>
        <time>2021-02-23T09:24:54.000Z</time>
      </trkpt>
      <trkpt lat="46.61728" lon="-1.82972">
        <ele>-141.80000305176</ele>
        <time>2021-02-23T09:24:55.000Z</time>
      </trkpt>
      <trkpt lat="46.61731" lon="-1.82968">
        <ele>-141.60000610352</ele>
        <time>2021-02-23T09:24:56.000Z</time>
      </trkpt>
      <trkpt lat="46.61735" lon="-1.82964">
        <ele>-140.80000305176</ele>
        <time>2021-02-23T09:24:57.000Z</time>
      </trkpt>
      <trkpt lat="46.61739" lon="-1.8296">
        <ele>-140.19999694824</ele>
        <time>2021-02-23T09:24:58.000Z</time>
      </trkpt>
      <trkpt lat="46.61746" lon="-1.82953">
        <ele>-139.60000610352</ele>
        <time>2021-02-23T09:25:00.000Z</time>
      </trkpt>
      <trkpt lat="46.6175" lon="-1.82949">
        <ele>-139.39999389648</ele>
        <time>2021-02-23T09:25:01.000Z</time>
      </trkpt>
      <trkpt lat="46.61754" lon="-1.82945">
        <ele>-139.19999694824</ele>
        <time>2021-02-23T09:25:02.000Z</time>
      </trkpt>
      <trkpt lat="46.61758" lon="-1.82941">
        <ele>-139</ele>
        <time>2021-02-23T09:25:03.000Z</time>
      </trkpt>
      <trkpt lat="46.61762" lon="-1.82937">
        <ele>-139</ele>
        <time>2021-02-23T09:25:04.000Z</time>
      </trkpt>
      <trkpt lat="46.61766" lon="-1.82933">
        <ele>-138.80000305176</ele>
        <time>2021-02-23T09:25:05.000Z</time>
      </trkpt>
      <trkpt lat="46.6177" lon="-1.82929">
        <ele>-138.80000305176</ele>
        <time>2021-02-23T09:25:06.000Z</time>
      </trkpt>
      <trkpt lat="46.61775" lon="-1.82925">
        <ele>-138.39999389648</ele>
        <time>2021-02-23T09:25:07.000Z</time>
      </trkpt>
      <trkpt lat="46.6178" lon="-1.82921">
        <ele>-138.39999389648</ele>
        <time>2021-02-23T09:25:08.000Z</time>
      </trkpt>
      <trkpt lat="46.61784" lon="-1.82918">
        <ele>-138.19999694824</ele>
        <time>2021-02-23T09:25:09.000Z</time>
      </trkpt>
      <trkpt lat="46.61789" lon="-1.82913">
        <ele>-138.19999694824</ele>
        <time>2021-02-23T09:25:10.000Z</time>
      </trkpt>
      <trkpt lat="46.61793" lon="-1.82911">
        <ele>-138.19999694824</ele>
        <time>2021-02-23T09:25:11.000Z</time>
      </trkpt>
      <trkpt lat="46.61799" lon="-1.82907">
        <ele>-138.19999694824</ele>
        <time>2021-02-23T09:25:12.000Z</time>
      </trkpt>
      <trkpt lat="46.61804" lon="-1.82904">
        <ele>-138.19999694824</ele>
        <time>2021-02-23T09:25:13.000Z</time>
      </trkpt>
      <trkpt lat="46.61811" lon="-1.82902">
        <ele>-138.19999694824</ele>
        <time>2021-02-23T09:25:14.000Z</time>
      </trkpt>
      <trkpt lat="46.61817" lon="-1.82899">
        <ele>-138.19999694824</ele>
        <time>2021-02-23T09:25:15.000Z</time>
      </trkpt>
      <trkpt lat="46.61823" lon="-1.82895">
        <ele>-138.19999694824</ele>
        <time>2021-02-23T09:25:16.000Z</time>
      </trkpt>
      <trkpt lat="46.61829" lon="-1.82891">
        <ele>-138.19999694824</ele>
        <time>2021-02-23T09:25:17.000Z</time>
      </trkpt>
      <trkpt lat="46.61834" lon="-1.82886">
        <ele>-138.39999389648</ele>
        <time>2021-02-23T09:25:18.000Z</time>
      </trkpt>
      <trkpt lat="46.6184" lon="-1.8288">
        <ele>-138.60000610352</ele>
        <time>2021-02-23T09:25:19.000Z</time>
      </trkpt>
      <trkpt lat="46.61845" lon="-1.82875">
        <ele>-138.60000610352</ele>
        <time>2021-02-23T09:25:20.000Z</time>
      </trkpt>
      <trkpt lat="46.6185" lon="-1.82869">
        <ele>-139</ele>
        <time>2021-02-23T09:25:21.000Z</time>
      </trkpt>
      <trkpt lat="46.61855" lon="-1.82863">
        <ele>-139</ele>
        <time>2021-02-23T09:25:22.000Z</time>
      </trkpt>
      <trkpt lat="46.6186" lon="-1.82856">
        <ele>-139.19999694824</ele>
        <time>2021-02-23T09:25:23.000Z</time>
      </trkpt>
      <trkpt lat="46.61865" lon="-1.8285">
        <ele>-139.39999389648</ele>
        <time>2021-02-23T09:25:24.000Z</time>
      </trkpt>
      <trkpt lat="46.6187" lon="-1.82843">
        <ele>-139.39999389648</ele>
        <time>2021-02-23T09:25:25.000Z</time>
      </trkpt>
      <trkpt lat="46.61874" lon="-1.82836">
        <ele>-139.60000610352</ele>
        <time>2021-02-23T09:25:26.000Z</time>
      </trkpt>
      <trkpt lat="46.61878" lon="-1.82829">
        <ele>-139.60000610352</ele>
        <time>2021-02-23T09:25:27.000Z</time>
      </trkpt>
      <trkpt lat="46.61888" lon="-1.82815">
        <ele>-140.19999694824</ele>
        <time>2021-02-23T09:25:29.000Z</time>
      </trkpt>
      <trkpt lat="46.61892" lon="-1.82808">
        <ele>-140.60000610352</ele>
        <time>2021-02-23T09:25:30.000Z</time>
      </trkpt>
      <trkpt lat="46.61901" lon="-1.82793">
        <ele>-141.19999694824</ele>
        <time>2021-02-23T09:25:32.000Z</time>
      </trkpt>
      <trkpt lat="46.61914" lon="-1.82769">
        <ele>-141.60000610352</ele>
        <time>2021-02-23T09:25:35.000Z</time>
      </trkpt>
      <trkpt lat="46.61922" lon="-1.82752">
        <ele>-141.80000305176</ele>
        <time>2021-02-23T09:25:37.000Z</time>
      </trkpt>
      <trkpt lat="46.61926" lon="-1.82744">
        <ele>-142</ele>
        <time>2021-02-23T09:25:38.000Z</time>
      </trkpt>
      <trkpt lat="46.6193" lon="-1.82736">
        <ele>-142.19999694824</ele>
        <time>2021-02-23T09:25:39.000Z</time>
      </trkpt>
      <trkpt lat="46.61935" lon="-1.82727">
        <ele>-142.39999389648</ele>
        <time>2021-02-23T09:25:40.000Z</time>
      </trkpt>
      <trkpt lat="46.61939" lon="-1.82721">
        <ele>-142.39999389648</ele>
        <time>2021-02-23T09:25:41.000Z</time>
      </trkpt>
      <trkpt lat="46.61942" lon="-1.82714">
        <ele>-142.60000610352</ele>
        <time>2021-02-23T09:25:42.000Z</time>
      </trkpt>
      <trkpt lat="46.61946" lon="-1.82706">
        <ele>-142.80000305176</ele>
        <time>2021-02-23T09:25:43.000Z</time>
      </trkpt>
      <trkpt lat="46.6195" lon="-1.82699">
        <ele>-142.80000305176</ele>
        <time>2021-02-23T09:25:44.000Z</time>
      </trkpt>
      <trkpt lat="46.61953" lon="-1.82691">
        <ele>-142.80000305176</ele>
        <time>2021-02-23T09:25:45.000Z</time>
      </trkpt>
      <trkpt lat="46.61957" lon="-1.82682">
        <ele>-143</ele>
        <time>2021-02-23T09:25:46.000Z</time>
      </trkpt>
      <trkpt lat="46.6196" lon="-1.82676">
        <ele>-142.60000610352</ele>
        <time>2021-02-23T09:25:47.000Z</time>
      </trkpt>
      <trkpt lat="46.61963" lon="-1.82668">
        <ele>-142.60000610352</ele>
        <time>2021-02-23T09:25:48.000Z</time>
      </trkpt>
      <trkpt lat="46.61966" lon="-1.82659">
        <ele>-142.60000610352</ele>
        <time>2021-02-23T09:25:49.000Z</time>
      </trkpt>
      <trkpt lat="46.61968" lon="-1.82653">
        <ele>-142.60000610352</ele>
        <time>2021-02-23T09:25:50.000Z</time>
      </trkpt>
      <trkpt lat="46.61969" lon="-1.82645">
        <ele>-142.60000610352</ele>
        <time>2021-02-23T09:25:51.000Z</time>
      </trkpt>
      <trkpt lat="46.61971" lon="-1.82638">
        <ele>-142.60000610352</ele>
        <time>2021-02-23T09:25:52.000Z</time>
      </trkpt>
      <trkpt lat="46.61972" lon="-1.82633">
        <ele>-142.60000610352</ele>
        <time>2021-02-23T09:25:53.000Z</time>
      </trkpt>
      <trkpt lat="46.61973" lon="-1.82628">
        <ele>-142.60000610352</ele>
        <time>2021-02-23T09:25:54.000Z</time>
      </trkpt>
      <trkpt lat="46.61973" lon="-1.82623">
        <ele>-142.60000610352</ele>
        <time>2021-02-23T09:25:55.000Z</time>
      </trkpt>
      <trkpt lat="46.61973" lon="-1.8262">
        <ele>-142.60000610352</ele>
        <time>2021-02-23T09:25:56.000Z</time>
      </trkpt>
      <trkpt lat="46.61973" lon="-1.82616">
        <ele>-142.60000610352</ele>
        <time>2021-02-23T09:25:57.000Z</time>
      </trkpt>
      <trkpt lat="46.61971" lon="-1.82612">
        <ele>-142.60000610352</ele>
        <time>2021-02-23T09:25:58.000Z</time>
      </trkpt>
      <trkpt lat="46.6197" lon="-1.82608">
        <ele>-142.60000610352</ele>
        <time>2021-02-23T09:25:59.000Z</time>
      </trkpt>
      <trkpt lat="46.61967" lon="-1.82603">
        <ele>-142.60000610352</ele>
        <time>2021-02-23T09:26:00.000Z</time>
      </trkpt>
      <trkpt lat="46.61965" lon="-1.82599">
        <ele>-142.39999389648</ele>
        <time>2021-02-23T09:26:01.000Z</time>
      </trkpt>
      <trkpt lat="46.6195" lon="-1.82571">
        <ele>-142.19999694824</ele>
        <time>2021-02-23T09:26:06.000Z</time>
      </trkpt>
      <trkpt lat="46.61935" lon="-1.82533">
        <ele>-141.80000305176</ele>
        <time>2021-02-23T09:26:12.000Z</time>
      </trkpt>
      <trkpt lat="46.61933" lon="-1.82526">
        <ele>-141.60000610352</ele>
        <time>2021-02-23T09:26:13.000Z</time>
      </trkpt>
      <trkpt lat="46.61927" lon="-1.82514">
        <ele>-141.39999389648</ele>
        <time>2021-02-23T09:26:15.000Z</time>
      </trkpt>
      <trkpt lat="46.61916" lon="-1.82495">
        <ele>-141.19999694824</ele>
        <time>2021-02-23T09:26:18.000Z</time>
      </trkpt>
      <trkpt lat="46.61913" lon="-1.8249">
        <ele>-141</ele>
        <time>2021-02-23T09:26:19.000Z</time>
      </trkpt>
      <trkpt lat="46.61909" lon="-1.82484">
        <ele>-141</ele>
        <time>2021-02-23T09:26:20.000Z</time>
      </trkpt>
      <trkpt lat="46.61906" lon="-1.82477">
        <ele>-140.80000305176</ele>
        <time>2021-02-23T09:26:21.000Z</time>
      </trkpt>
      <trkpt lat="46.61903" lon="-1.82473">
        <ele>-140.80000305176</ele>
        <time>2021-02-23T09:26:22.000Z</time>
      </trkpt>
      <trkpt lat="46.61901" lon="-1.82468">
        <ele>-140.60000610352</ele>
        <time>2021-02-23T09:26:23.000Z</time>
      </trkpt>
      <trkpt lat="46.61898" lon="-1.82463">
        <ele>-140.60000610352</ele>
        <time>2021-02-23T09:26:24.000Z</time>
      </trkpt>
      <trkpt lat="46.61895" lon="-1.82457">
        <ele>-140.39999389648</ele>
        <time>2021-02-23T09:26:25.000Z</time>
      </trkpt>
      <trkpt lat="46.61891" lon="-1.82452">
        <ele>-140.39999389648</ele>
        <time>2021-02-23T09:26:26.000Z</time>
      </trkpt>
      <trkpt lat="46.61888" lon="-1.82446">
        <ele>-140.19999694824</ele>
        <time>2021-02-23T09:26:27.000Z</time>
      </trkpt>
      <trkpt lat="46.61885" lon="-1.82441">
        <ele>-140.19999694824</ele>
        <time>2021-02-23T09:26:28.000Z</time>
      </trkpt>
      <trkpt lat="46.61881" lon="-1.82436">
        <ele>-140</ele>
        <time>2021-02-23T09:26:29.000Z</time>
      </trkpt>
      <trkpt lat="46.61871" lon="-1.82419">
        <ele>-139.39999389648</ele>
        <time>2021-02-23T09:26:32.000Z</time>
      </trkpt>
      <trkpt lat="46.61869" lon="-1.82414">
        <ele>-139.39999389648</ele>
        <time>2021-02-23T09:26:33.000Z</time>
      </trkpt>
      <trkpt lat="46.61866" lon="-1.82408">
        <ele>-139.19999694824</ele>
        <time>2021-02-23T09:26:34.000Z</time>
      </trkpt>
      <trkpt lat="46.61861" lon="-1.82394">
        <ele>-139</ele>
        <time>2021-02-23T09:26:36.000Z</time>
      </trkpt>
      <trkpt lat="46.61858" lon="-1.82381">
        <ele>-138.80000305176</ele>
        <time>2021-02-23T09:26:38.000Z</time>
      </trkpt>
      <trkpt lat="46.61857" lon="-1.82374">
        <ele>-138.60000610352</ele>
        <time>2021-02-23T09:26:39.000Z</time>
      </trkpt>
      <trkpt lat="46.61855" lon="-1.82367">
        <ele>-138.60000610352</ele>
        <time>2021-02-23T09:26:40.000Z</time>
      </trkpt>
      <trkpt lat="46.61854" lon="-1.82361">
        <ele>-138.60000610352</ele>
        <time>2021-02-23T09:26:41.000Z</time>
      </trkpt>
      <trkpt lat="46.61852" lon="-1.82354">
        <ele>-138.39999389648</ele>
        <time>2021-02-23T09:26:42.000Z</time>
      </trkpt>
      <trkpt lat="46.61851" lon="-1.82348">
        <ele>-138.39999389648</ele>
        <time>2021-02-23T09:26:43.000Z</time>
      </trkpt>
      <trkpt lat="46.61849" lon="-1.8234">
        <ele>-138.39999389648</ele>
        <time>2021-02-23T09:26:44.000Z</time>
      </trkpt>
      <trkpt lat="46.61848" lon="-1.82334">
        <ele>-138.19999694824</ele>
        <time>2021-02-23T09:26:45.000Z</time>
      </trkpt>
      <trkpt lat="46.61847" lon="-1.82328">
        <ele>-138</ele>
        <time>2021-02-23T09:26:46.000Z</time>
      </trkpt>
      <trkpt lat="46.61846" lon="-1.82321">
        <ele>-138</ele>
        <time>2021-02-23T09:26:47.000Z</time>
      </trkpt>
      <trkpt lat="46.61846" lon="-1.82314">
        <ele>-137.80000305176</ele>
        <time>2021-02-23T09:26:48.000Z</time>
      </trkpt>
      <trkpt lat="46.61845" lon="-1.82307">
        <ele>-137.80000305176</ele>
        <time>2021-02-23T09:26:49.000Z</time>
      </trkpt>
      <trkpt lat="46.61844" lon="-1.82301">
        <ele>-137.80000305176</ele>
        <time>2021-02-23T09:26:50.000Z</time>
      </trkpt>
      <trkpt lat="46.61843" lon="-1.82294">
        <ele>-137.80000305176</ele>
        <time>2021-02-23T09:26:51.000Z</time>
      </trkpt>
      <trkpt lat="46.61841" lon="-1.82287">
        <ele>-137.60000610352</ele>
        <time>2021-02-23T09:26:52.000Z</time>
      </trkpt>
      <trkpt lat="46.6184" lon="-1.8228">
        <ele>-137.60000610352</ele>
        <time>2021-02-23T09:26:53.000Z</time>
      </trkpt>
      <trkpt lat="46.61839" lon="-1.82274">
        <ele>-137.60000610352</ele>
        <time>2021-02-23T09:26:54.000Z</time>
      </trkpt>
      <trkpt lat="46.61838" lon="-1.82268">
        <ele>-137.60000610352</ele>
        <time>2021-02-23T09:26:55.000Z</time>
      </trkpt>
      <trkpt lat="46.61837" lon="-1.82261">
        <ele>-137.39999389648</ele>
        <time>2021-02-23T09:26:56.000Z</time>
      </trkpt>
      <trkpt lat="46.61835" lon="-1.82255">
        <ele>-137.39999389648</ele>
        <time>2021-02-23T09:26:57.000Z</time>
      </trkpt>
      <trkpt lat="46.61833" lon="-1.82249">
        <ele>-137.19999694824</ele>
        <time>2021-02-23T09:26:58.000Z</time>
      </trkpt>
      <trkpt lat="46.61831" lon="-1.82244">
        <ele>-137.19999694824</ele>
        <time>2021-02-23T09:26:59.000Z</time>
      </trkpt>
      <trkpt lat="46.61829" lon="-1.82239">
        <ele>-137</ele>
        <time>2021-02-23T09:27:00.000Z</time>
      </trkpt>
      <trkpt lat="46.61827" lon="-1.82234">
        <ele>-137</ele>
        <time>2021-02-23T09:27:01.000Z</time>
      </trkpt>
      <trkpt lat="46.61826" lon="-1.82229">
        <ele>-136.80000305176</ele>
        <time>2021-02-23T09:27:02.000Z</time>
      </trkpt>
      <trkpt lat="46.61824" lon="-1.82224">
        <ele>-136.80000305176</ele>
        <time>2021-02-23T09:27:03.000Z</time>
      </trkpt>
      <trkpt lat="46.61822" lon="-1.82219">
        <ele>-136.60000610352</ele>
        <time>2021-02-23T09:27:04.000Z</time>
      </trkpt>
      <trkpt lat="46.61821" lon="-1.82214">
        <ele>-136.19999694824</ele>
        <time>2021-02-23T09:27:05.000Z</time>
      </trkpt>
      <trkpt lat="46.6182" lon="-1.82208">
        <ele>-136.19999694824</ele>
        <time>2021-02-23T09:27:06.000Z</time>
      </trkpt>
      <trkpt lat="46.6182" lon="-1.82203">
        <ele>-136</ele>
        <time>2021-02-23T09:27:07.000Z</time>
      </trkpt>
      <trkpt lat="46.6182" lon="-1.82197">
        <ele>-136</ele>
        <time>2021-02-23T09:27:08.000Z</time>
      </trkpt>
      <trkpt lat="46.61822" lon="-1.82192">
        <ele>-135.80000305176</ele>
        <time>2021-02-23T09:27:09.000Z</time>
      </trkpt>
      <trkpt lat="46.61829" lon="-1.82185">
        <ele>-135.60000610352</ele>
        <time>2021-02-23T09:27:11.000Z</time>
      </trkpt>
      <trkpt lat="46.61832" lon="-1.82182">
        <ele>-135.39999389648</ele>
        <time>2021-02-23T09:27:12.000Z</time>
      </trkpt>
      <trkpt lat="46.61836" lon="-1.8218">
        <ele>-135.39999389648</ele>
        <time>2021-02-23T09:27:13.000Z</time>
      </trkpt>
      <trkpt lat="46.61841" lon="-1.82177">
        <ele>-135.39999389648</ele>
        <time>2021-02-23T09:27:14.000Z</time>
      </trkpt>
      <trkpt lat="46.61845" lon="-1.82175">
        <ele>-135.19999694824</ele>
        <time>2021-02-23T09:27:15.000Z</time>
      </trkpt>
      <trkpt lat="46.61849" lon="-1.82173">
        <ele>-135.19999694824</ele>
        <time>2021-02-23T09:27:16.000Z</time>
      </trkpt>
      <trkpt lat="46.61854" lon="-1.82171">
        <ele>-135.19999694824</ele>
        <time>2021-02-23T09:27:17.000Z</time>
      </trkpt>
      <trkpt lat="46.61859" lon="-1.82169">
        <ele>-135.19999694824</ele>
        <time>2021-02-23T09:27:18.000Z</time>
      </trkpt>
      <trkpt lat="46.61863" lon="-1.82168">
        <ele>-135.19999694824</ele>
        <time>2021-02-23T09:27:19.000Z</time>
      </trkpt>
      <trkpt lat="46.61868" lon="-1.82166">
        <ele>-135.19999694824</ele>
        <time>2021-02-23T09:27:20.000Z</time>
      </trkpt>
      <trkpt lat="46.61873" lon="-1.82163">
        <ele>-135.19999694824</ele>
        <time>2021-02-23T09:27:21.000Z</time>
      </trkpt>
      <trkpt lat="46.61879" lon="-1.82154">
        <ele>-135.39999389648</ele>
        <time>2021-02-23T09:27:23.000Z</time>
      </trkpt>
      <trkpt lat="46.61882" lon="-1.82138">
        <ele>-135.39999389648</ele>
        <time>2021-02-23T09:27:25.000Z</time>
      </trkpt>
      <trkpt lat="46.61881" lon="-1.82132">
        <ele>-135.39999389648</ele>
        <time>2021-02-23T09:27:26.000Z</time>
      </trkpt>
      <trkpt lat="46.6188" lon="-1.82125">
        <ele>-135.39999389648</ele>
        <time>2021-02-23T09:27:27.000Z</time>
      </trkpt>
      <trkpt lat="46.61879" lon="-1.82117">
        <ele>-135.39999389648</ele>
        <time>2021-02-23T09:27:28.000Z</time>
      </trkpt>
      <trkpt lat="46.61877" lon="-1.8211">
        <ele>-135.39999389648</ele>
        <time>2021-02-23T09:27:29.000Z</time>
      </trkpt>
      <trkpt lat="46.61875" lon="-1.82103">
        <ele>-135.39999389648</ele>
        <time>2021-02-23T09:27:30.000Z</time>
      </trkpt>
      <trkpt lat="46.61871" lon="-1.82091">
        <ele>-135.39999389648</ele>
        <time>2021-02-23T09:27:32.000Z</time>
      </trkpt>
      <trkpt lat="46.61868" lon="-1.82084">
        <ele>-135.39999389648</ele>
        <time>2021-02-23T09:27:33.000Z</time>
      </trkpt>
      <trkpt lat="46.61866" lon="-1.82078">
        <ele>-135.39999389648</ele>
        <time>2021-02-23T09:27:34.000Z</time>
      </trkpt>
      <trkpt lat="46.61864" lon="-1.82072">
        <ele>-135.39999389648</ele>
        <time>2021-02-23T09:27:35.000Z</time>
      </trkpt>
      <trkpt lat="46.61862" lon="-1.82066">
        <ele>-135.39999389648</ele>
        <time>2021-02-23T09:27:36.000Z</time>
      </trkpt>
      <trkpt lat="46.6186" lon="-1.82059">
        <ele>-135.39999389648</ele>
        <time>2021-02-23T09:27:37.000Z</time>
      </trkpt>
      <trkpt lat="46.61852" lon="-1.82043">
        <ele>-135.19999694824</ele>
        <time>2021-02-23T09:27:40.000Z</time>
      </trkpt>
      <trkpt lat="46.61833" lon="-1.82004">
        <ele>-134.19999694824</ele>
        <time>2021-02-23T09:27:47.000Z</time>
      </trkpt>
      <trkpt lat="46.6183" lon="-1.81998">
        <ele>-134.19999694824</ele>
        <time>2021-02-23T09:27:48.000Z</time>
      </trkpt>
      <trkpt lat="46.61828" lon="-1.81993">
        <ele>-134</ele>
        <time>2021-02-23T09:27:49.000Z</time>
      </trkpt>
      <trkpt lat="46.61801" lon="-1.81945">
        <ele>-133.19999694824</ele>
        <time>2021-02-23T09:27:58.000Z</time>
      </trkpt>
      <trkpt lat="46.61798" lon="-1.81939">
        <ele>-133</ele>
        <time>2021-02-23T09:27:59.000Z</time>
      </trkpt>
      <trkpt lat="46.61795" lon="-1.81933">
        <ele>-133</ele>
        <time>2021-02-23T09:28:00.000Z</time>
      </trkpt>
      <trkpt lat="46.61792" lon="-1.81928">
        <ele>-132.80000305176</ele>
        <time>2021-02-23T09:28:01.000Z</time>
      </trkpt>
      <trkpt lat="46.61789" lon="-1.81922">
        <ele>-132.80000305176</ele>
        <time>2021-02-23T09:28:02.000Z</time>
      </trkpt>
      <trkpt lat="46.61787" lon="-1.81916">
        <ele>-132.39999389648</ele>
        <time>2021-02-23T09:28:03.000Z</time>
      </trkpt>
      <trkpt lat="46.61784" lon="-1.81912">
        <ele>-132.60000610352</ele>
        <time>2021-02-23T09:28:04.000Z</time>
      </trkpt>
      <trkpt lat="46.61781" lon="-1.81907">
        <ele>-132.19999694824</ele>
        <time>2021-02-23T09:28:05.000Z</time>
      </trkpt>
      <trkpt lat="46.61778" lon="-1.81903">
        <ele>-132.19999694824</ele>
        <time>2021-02-23T09:28:06.000Z</time>
      </trkpt>
      <trkpt lat="46.61775" lon="-1.81897">
        <ele>-132</ele>
        <time>2021-02-23T09:28:07.000Z</time>
      </trkpt>
      <trkpt lat="46.61772" lon="-1.81894">
        <ele>-131.80000305176</ele>
        <time>2021-02-23T09:28:08.000Z</time>
      </trkpt>
      <trkpt lat="46.61769" lon="-1.81889">
        <ele>-131.80000305176</ele>
        <time>2021-02-23T09:28:09.000Z</time>
      </trkpt>
      <trkpt lat="46.61767" lon="-1.81885">
        <ele>-131.60000610352</ele>
        <time>2021-02-23T09:28:10.000Z</time>
      </trkpt>
      <trkpt lat="46.61764" lon="-1.81879">
        <ele>-131.39999389648</ele>
        <time>2021-02-23T09:28:11.000Z</time>
      </trkpt>
      <trkpt lat="46.61763" lon="-1.81876">
        <ele>-131.39999389648</ele>
        <time>2021-02-23T09:28:12.000Z</time>
      </trkpt>
      <trkpt lat="46.61761" lon="-1.81871">
        <ele>-131.39999389648</ele>
        <time>2021-02-23T09:28:13.000Z</time>
      </trkpt>
      <trkpt lat="46.6176" lon="-1.81865">
        <ele>-131.19999694824</ele>
        <time>2021-02-23T09:28:14.000Z</time>
      </trkpt>
      <trkpt lat="46.6176" lon="-1.81859">
        <ele>-131</ele>
        <time>2021-02-23T09:28:15.000Z</time>
      </trkpt>
      <trkpt lat="46.61759" lon="-1.81853">
        <ele>-131</ele>
        <time>2021-02-23T09:28:16.000Z</time>
      </trkpt>
      <trkpt lat="46.61759" lon="-1.81847">
        <ele>-131</ele>
        <time>2021-02-23T09:28:17.000Z</time>
      </trkpt>
      <trkpt lat="46.61759" lon="-1.81841">
        <ele>-131</ele>
        <time>2021-02-23T09:28:18.000Z</time>
      </trkpt>
      <trkpt lat="46.6176" lon="-1.81835">
        <ele>-131</ele>
        <time>2021-02-23T09:28:19.000Z</time>
      </trkpt>
      <trkpt lat="46.6176" lon="-1.8183">
        <ele>-131</ele>
        <time>2021-02-23T09:28:20.000Z</time>
      </trkpt>
      <trkpt lat="46.61761" lon="-1.81823">
        <ele>-131</ele>
        <time>2021-02-23T09:28:21.000Z</time>
      </trkpt>
      <trkpt lat="46.61762" lon="-1.8182">
        <ele>-130.80000305176</ele>
        <time>2021-02-23T09:28:22.000Z</time>
      </trkpt>
      <trkpt lat="46.61763" lon="-1.81815">
        <ele>-130.80000305176</ele>
        <time>2021-02-23T09:28:23.000Z</time>
      </trkpt>
      <trkpt lat="46.61764" lon="-1.81812">
        <ele>-130.60000610352</ele>
        <time>2021-02-23T09:28:24.000Z</time>
      </trkpt>
      <trkpt lat="46.61765" lon="-1.81808">
        <ele>-130.39999389648</ele>
        <time>2021-02-23T09:28:25.000Z</time>
      </trkpt>
      <trkpt lat="46.61767" lon="-1.81801">
        <ele>-129.80000305176</ele>
        <time>2021-02-23T09:28:27.000Z</time>
      </trkpt>
      <trkpt lat="46.61768" lon="-1.81798">
        <ele>-129.60000610352</ele>
        <time>2021-02-23T09:28:28.000Z</time>
      </trkpt>
      <trkpt lat="46.6177" lon="-1.81786">
        <ele>-129.19999694824</ele>
        <time>2021-02-23T09:28:31.000Z</time>
      </trkpt>
      <trkpt lat="46.61771" lon="-1.81782">
        <ele>-129</ele>
        <time>2021-02-23T09:28:32.000Z</time>
      </trkpt>
      <trkpt lat="46.61772" lon="-1.81777">
        <ele>-129</ele>
        <time>2021-02-23T09:28:33.000Z</time>
      </trkpt>
      <trkpt lat="46.61772" lon="-1.81773">
        <ele>-129</ele>
        <time>2021-02-23T09:28:34.000Z</time>
      </trkpt>
      <trkpt lat="46.61773" lon="-1.81768">
        <ele>-128.80000305176</ele>
        <time>2021-02-23T09:28:35.000Z</time>
      </trkpt>
      <trkpt lat="46.61774" lon="-1.81763">
        <ele>-128.80000305176</ele>
        <time>2021-02-23T09:28:36.000Z</time>
      </trkpt>
      <trkpt lat="46.61774" lon="-1.81758">
        <ele>-128.80000305176</ele>
        <time>2021-02-23T09:28:37.000Z</time>
      </trkpt>
      <trkpt lat="46.61775" lon="-1.81754">
        <ele>-129</ele>
        <time>2021-02-23T09:28:38.000Z</time>
      </trkpt>
      <trkpt lat="46.61776" lon="-1.81749">
        <ele>-129</ele>
        <time>2021-02-23T09:28:39.000Z</time>
      </trkpt>
      <trkpt lat="46.61777" lon="-1.81743">
        <ele>-129.19999694824</ele>
        <time>2021-02-23T09:28:40.000Z</time>
      </trkpt>
      <trkpt lat="46.61779" lon="-1.81738">
        <ele>-129</ele>
        <time>2021-02-23T09:28:41.000Z</time>
      </trkpt>
      <trkpt lat="46.6178" lon="-1.81732">
        <ele>-129</ele>
        <time>2021-02-23T09:28:42.000Z</time>
      </trkpt>
      <trkpt lat="46.61783" lon="-1.81723">
        <ele>-128.80000305176</ele>
        <time>2021-02-23T09:28:44.000Z</time>
      </trkpt>
      <trkpt lat="46.61786" lon="-1.81719">
        <ele>-128.80000305176</ele>
        <time>2021-02-23T09:28:45.000Z</time>
      </trkpt>
      <trkpt lat="46.6179" lon="-1.81711">
        <ele>-128.80000305176</ele>
        <time>2021-02-23T09:28:47.000Z</time>
      </trkpt>
      <trkpt lat="46.61795" lon="-1.81702">
        <ele>-128.39999389648</ele>
        <time>2021-02-23T09:28:49.000Z</time>
      </trkpt>
      <trkpt lat="46.61798" lon="-1.81699">
        <ele>-128.39999389648</ele>
        <time>2021-02-23T09:28:50.000Z</time>
      </trkpt>
      <trkpt lat="46.61801" lon="-1.81694">
        <ele>-128.39999389648</ele>
        <time>2021-02-23T09:28:51.000Z</time>
      </trkpt>
      <trkpt lat="46.61811" lon="-1.81686">
        <ele>-128</ele>
        <time>2021-02-23T09:28:54.000Z</time>
      </trkpt>
      <trkpt lat="46.61815" lon="-1.81683">
        <ele>-127.40000152588</ele>
        <time>2021-02-23T09:28:55.000Z</time>
      </trkpt>
      <trkpt lat="46.61824" lon="-1.81675">
        <ele>-127</ele>
        <time>2021-02-23T09:28:58.000Z</time>
      </trkpt>
      <trkpt lat="46.61826" lon="-1.8167">
        <ele>-126.80000305176</ele>
        <time>2021-02-23T09:28:59.000Z</time>
      </trkpt>
      <trkpt lat="46.61828" lon="-1.81665">
        <ele>-126.80000305176</ele>
        <time>2021-02-23T09:29:00.000Z</time>
      </trkpt>
      <trkpt lat="46.61828" lon="-1.81656">
        <ele>-126.80000305176</ele>
        <time>2021-02-23T09:29:02.000Z</time>
      </trkpt>
      <trkpt lat="46.61826" lon="-1.81651">
        <ele>-126.80000305176</ele>
        <time>2021-02-23T09:29:03.000Z</time>
      </trkpt>
      <trkpt lat="46.61824" lon="-1.81647">
        <ele>-126.80000305176</ele>
        <time>2021-02-23T09:29:04.000Z</time>
      </trkpt>
      <trkpt lat="46.61822" lon="-1.81644">
        <ele>-126.80000305176</ele>
        <time>2021-02-23T09:29:05.000Z</time>
      </trkpt>
      <trkpt lat="46.61819" lon="-1.81641">
        <ele>-126.80000305176</ele>
        <time>2021-02-23T09:29:06.000Z</time>
      </trkpt>
      <trkpt lat="46.61817" lon="-1.81637">
        <ele>-126.80000305176</ele>
        <time>2021-02-23T09:29:07.000Z</time>
      </trkpt>
      <trkpt lat="46.61815" lon="-1.81634">
        <ele>-126.80000305176</ele>
        <time>2021-02-23T09:29:08.000Z</time>
      </trkpt>
      <trkpt lat="46.6181" lon="-1.81626">
        <ele>-126.80000305176</ele>
        <time>2021-02-23T09:29:10.000Z</time>
      </trkpt>
      <trkpt lat="46.61796" lon="-1.81603">
        <ele>-126.59999847412</ele>
        <time>2021-02-23T09:29:16.000Z</time>
      </trkpt>
      <trkpt lat="46.61795" lon="-1.81598">
        <ele>-126.59999847412</ele>
        <time>2021-02-23T09:29:17.000Z</time>
      </trkpt>
      <trkpt lat="46.61795" lon="-1.81593">
        <ele>-126.59999847412</ele>
        <time>2021-02-23T09:29:18.000Z</time>
      </trkpt>
      <trkpt lat="46.61796" lon="-1.81589">
        <ele>-126.40000152588</ele>
        <time>2021-02-23T09:29:19.000Z</time>
      </trkpt>
      <trkpt lat="46.61798" lon="-1.81586">
        <ele>-126.40000152588</ele>
        <time>2021-02-23T09:29:20.000Z</time>
      </trkpt>
      <trkpt lat="46.61807" lon="-1.81577">
        <ele>-126</ele>
        <time>2021-02-23T09:29:23.000Z</time>
      </trkpt>
      <trkpt lat="46.61814" lon="-1.81571">
        <ele>-126</ele>
        <time>2021-02-23T09:29:25.000Z</time>
      </trkpt>
      <trkpt lat="46.6182" lon="-1.81563">
        <ele>-126</ele>
        <time>2021-02-23T09:29:27.000Z</time>
      </trkpt>
      <trkpt lat="46.61823" lon="-1.8156">
        <ele>-126</ele>
        <time>2021-02-23T09:29:28.000Z</time>
      </trkpt>
      <trkpt lat="46.61825" lon="-1.81557">
        <ele>-126</ele>
        <time>2021-02-23T09:29:29.000Z</time>
      </trkpt>
      <trkpt lat="46.61827" lon="-1.81553">
        <ele>-126.19999694824</ele>
        <time>2021-02-23T09:29:30.000Z</time>
      </trkpt>
      <trkpt lat="46.61832" lon="-1.81546">
        <ele>-126.40000152588</ele>
        <time>2021-02-23T09:29:32.000Z</time>
      </trkpt>
      <trkpt lat="46.61837" lon="-1.81539">
        <ele>-126.59999847412</ele>
        <time>2021-02-23T09:29:34.000Z</time>
      </trkpt>
      <trkpt lat="46.61839" lon="-1.81535">
        <ele>-126.59999847412</ele>
        <time>2021-02-23T09:29:35.000Z</time>
      </trkpt>
      <trkpt lat="46.61849" lon="-1.81519">
        <ele>-126.80000305176</ele>
        <time>2021-02-23T09:29:39.000Z</time>
      </trkpt>
      <trkpt lat="46.61853" lon="-1.81508">
        <ele>-127.19999694824</ele>
        <time>2021-02-23T09:29:41.000Z</time>
      </trkpt>
      <trkpt lat="46.61856" lon="-1.81498">
        <ele>-127.40000152588</ele>
        <time>2021-02-23T09:29:43.000Z</time>
      </trkpt>
      <trkpt lat="46.61857" lon="-1.81492">
        <ele>-127.40000152588</ele>
        <time>2021-02-23T09:29:44.000Z</time>
      </trkpt>
      <trkpt lat="46.61859" lon="-1.81448">
        <ele>-127.59999847412</ele>
        <time>2021-02-23T09:29:51.000Z</time>
      </trkpt>
      <trkpt lat="46.6186" lon="-1.81442">
        <ele>-127.59999847412</ele>
        <time>2021-02-23T09:29:52.000Z</time>
      </trkpt>
      <trkpt lat="46.6186" lon="-1.81436">
        <ele>-127.59999847412</ele>
        <time>2021-02-23T09:29:53.000Z</time>
      </trkpt>
      <trkpt lat="46.61861" lon="-1.81417">
        <ele>-127.80000305176</ele>
        <time>2021-02-23T09:29:56.000Z</time>
      </trkpt>
      <trkpt lat="46.6186" lon="-1.81411">
        <ele>-127.59999847412</ele>
        <time>2021-02-23T09:29:57.000Z</time>
      </trkpt>
      <trkpt lat="46.6186" lon="-1.81405">
        <ele>-127.59999847412</ele>
        <time>2021-02-23T09:29:58.000Z</time>
      </trkpt>
      <trkpt lat="46.6186" lon="-1.81399">
        <ele>-127.59999847412</ele>
        <time>2021-02-23T09:29:59.000Z</time>
      </trkpt>
      <trkpt lat="46.6186" lon="-1.81393">
        <ele>-127.59999847412</ele>
        <time>2021-02-23T09:30:00.000Z</time>
      </trkpt>
      <trkpt lat="46.6186" lon="-1.81387">
        <ele>-127.40000152588</ele>
        <time>2021-02-23T09:30:01.000Z</time>
      </trkpt>
      <trkpt lat="46.61858" lon="-1.81376">
        <ele>-127.19999694824</ele>
        <time>2021-02-23T09:30:03.000Z</time>
      </trkpt>
      <trkpt lat="46.61857" lon="-1.8137">
        <ele>-127</ele>
        <time>2021-02-23T09:30:04.000Z</time>
      </trkpt>
      <trkpt lat="46.61853" lon="-1.81337">
        <ele>-127</ele>
        <time>2021-02-23T09:30:10.000Z</time>
      </trkpt>
      <trkpt lat="46.61853" lon="-1.8133">
        <ele>-127</ele>
        <time>2021-02-23T09:30:11.000Z</time>
      </trkpt>
      <trkpt lat="46.61853" lon="-1.81324">
        <ele>-127.19999694824</ele>
        <time>2021-02-23T09:30:12.000Z</time>
      </trkpt>
      <trkpt lat="46.61853" lon="-1.81312">
        <ele>-127.59999847412</ele>
        <time>2021-02-23T09:30:14.000Z</time>
      </trkpt>
      <trkpt lat="46.61856" lon="-1.81287">
        <ele>-128</ele>
        <time>2021-02-23T09:30:18.000Z</time>
      </trkpt>
      <trkpt lat="46.61856" lon="-1.81281">
        <ele>-128.39999389648</ele>
        <time>2021-02-23T09:30:19.000Z</time>
      </trkpt>
      <trkpt lat="46.61857" lon="-1.81275">
        <ele>-128.60000610352</ele>
        <time>2021-02-23T09:30:20.000Z</time>
      </trkpt>
      <trkpt lat="46.61858" lon="-1.81268">
        <ele>-128.80000305176</ele>
        <time>2021-02-23T09:30:21.000Z</time>
      </trkpt>
      <trkpt lat="46.61859" lon="-1.81262">
        <ele>-129</ele>
        <time>2021-02-23T09:30:22.000Z</time>
      </trkpt>
      <trkpt lat="46.6186" lon="-1.81256">
        <ele>-129.19999694824</ele>
        <time>2021-02-23T09:30:23.000Z</time>
      </trkpt>
      <trkpt lat="46.61863" lon="-1.81244">
        <ele>-129.39999389648</ele>
        <time>2021-02-23T09:30:25.000Z</time>
      </trkpt>
      <trkpt lat="46.61866" lon="-1.8123">
        <ele>-129.60000610352</ele>
        <time>2021-02-23T09:30:27.000Z</time>
      </trkpt>
      <trkpt lat="46.61871" lon="-1.81211">
        <ele>-129.80000305176</ele>
        <time>2021-02-23T09:30:30.000Z</time>
      </trkpt>
      <trkpt lat="46.61872" lon="-1.81204">
        <ele>-129.80000305176</ele>
        <time>2021-02-23T09:30:31.000Z</time>
      </trkpt>
      <trkpt lat="46.61871" lon="-1.81196">
        <ele>-129.80000305176</ele>
        <time>2021-02-23T09:30:32.000Z</time>
      </trkpt>
      <trkpt lat="46.61869" lon="-1.81188">
        <ele>-129.80000305176</ele>
        <time>2021-02-23T09:30:33.000Z</time>
      </trkpt>
      <trkpt lat="46.61866" lon="-1.81181">
        <ele>-130</ele>
        <time>2021-02-23T09:30:34.000Z</time>
      </trkpt>
      <trkpt lat="46.61863" lon="-1.81174">
        <ele>-130.19999694824</ele>
        <time>2021-02-23T09:30:35.000Z</time>
      </trkpt>
      <trkpt lat="46.6186" lon="-1.81168">
        <ele>-130.19999694824</ele>
        <time>2021-02-23T09:30:36.000Z</time>
      </trkpt>
      <trkpt lat="46.61857" lon="-1.81162">
        <ele>-130.19999694824</ele>
        <time>2021-02-23T09:30:37.000Z</time>
      </trkpt>
      <trkpt lat="46.61855" lon="-1.81155">
        <ele>-130.39999389648</ele>
        <time>2021-02-23T09:30:38.000Z</time>
      </trkpt>
      <trkpt lat="46.61854" lon="-1.81148">
        <ele>-130.39999389648</ele>
        <time>2021-02-23T09:30:39.000Z</time>
      </trkpt>
      <trkpt lat="46.61853" lon="-1.81141">
        <ele>-130.60000610352</ele>
        <time>2021-02-23T09:30:40.000Z</time>
      </trkpt>
      <trkpt lat="46.61853" lon="-1.81134">
        <ele>-130.60000610352</ele>
        <time>2021-02-23T09:30:41.000Z</time>
      </trkpt>
      <trkpt lat="46.61853" lon="-1.81105">
        <ele>-130.60000610352</ele>
        <time>2021-02-23T09:30:45.000Z</time>
      </trkpt>
      <trkpt lat="46.61853" lon="-1.81098">
        <ele>-130.60000610352</ele>
        <time>2021-02-23T09:30:46.000Z</time>
      </trkpt>
      <trkpt lat="46.61853" lon="-1.81091">
        <ele>-130.39999389648</ele>
        <time>2021-02-23T09:30:47.000Z</time>
      </trkpt>
      <trkpt lat="46.61853" lon="-1.81084">
        <ele>-130.39999389648</ele>
        <time>2021-02-23T09:30:48.000Z</time>
      </trkpt>
      <trkpt lat="46.61853" lon="-1.81077">
        <ele>-130.39999389648</ele>
        <time>2021-02-23T09:30:49.000Z</time>
      </trkpt>
      <trkpt lat="46.61853" lon="-1.8107">
        <ele>-130.19999694824</ele>
        <time>2021-02-23T09:30:50.000Z</time>
      </trkpt>
      <trkpt lat="46.61854" lon="-1.81065">
        <ele>-130</ele>
        <time>2021-02-23T09:30:51.000Z</time>
      </trkpt>
      <trkpt lat="46.61854" lon="-1.81059">
        <ele>-129.60000610352</ele>
        <time>2021-02-23T09:30:52.000Z</time>
      </trkpt>
      <trkpt lat="46.61853" lon="-1.81053">
        <ele>-129.39999389648</ele>
        <time>2021-02-23T09:30:53.000Z</time>
      </trkpt>
      <trkpt lat="46.6185" lon="-1.81048">
        <ele>-129.39999389648</ele>
        <time>2021-02-23T09:30:54.000Z</time>
      </trkpt>
      <trkpt lat="46.61847" lon="-1.81045">
        <ele>-129.39999389648</ele>
        <time>2021-02-23T09:30:55.000Z</time>
      </trkpt>
      <trkpt lat="46.61843" lon="-1.81044">
        <ele>-129.39999389648</ele>
        <time>2021-02-23T09:30:56.000Z</time>
      </trkpt>
      <trkpt lat="46.6184" lon="-1.81043">
        <ele>-129.39999389648</ele>
        <time>2021-02-23T09:30:57.000Z</time>
      </trkpt>
      <trkpt lat="46.61836" lon="-1.81043">
        <ele>-129.19999694824</ele>
        <time>2021-02-23T09:30:58.000Z</time>
      </trkpt>
      <trkpt lat="46.61833" lon="-1.81042">
        <ele>-129.19999694824</ele>
        <time>2021-02-23T09:30:59.000Z</time>
      </trkpt>
      <trkpt lat="46.6183" lon="-1.81042">
        <ele>-129.19999694824</ele>
        <time>2021-02-23T09:31:00.000Z</time>
      </trkpt>
      <trkpt lat="46.61827" lon="-1.81041">
        <ele>-129</ele>
        <time>2021-02-23T09:31:01.000Z</time>
      </trkpt>
      <trkpt lat="46.61821" lon="-1.8104">
        <ele>-129</ele>
        <time>2021-02-23T09:31:03.000Z</time>
      </trkpt>
      <trkpt lat="46.61818" lon="-1.8104">
        <ele>-128.80000305176</ele>
        <time>2021-02-23T09:31:04.000Z</time>
      </trkpt>
      <trkpt lat="46.61816" lon="-1.8104">
        <ele>-128.80000305176</ele>
        <time>2021-02-23T09:31:05.000Z</time>
      </trkpt>
      <trkpt lat="46.61813" lon="-1.81039">
        <ele>-128.80000305176</ele>
        <time>2021-02-23T09:31:06.000Z</time>
      </trkpt>
      <trkpt lat="46.61811" lon="-1.81039">
        <ele>-128.80000305176</ele>
        <time>2021-02-23T09:31:07.000Z</time>
      </trkpt>
      <trkpt lat="46.61806" lon="-1.81038">
        <ele>-128.60000610352</ele>
        <time>2021-02-23T09:31:09.000Z</time>
      </trkpt>
      <trkpt lat="46.61803" lon="-1.81038">
        <ele>-128.39999389648</ele>
        <time>2021-02-23T09:31:10.000Z</time>
      </trkpt>
      <trkpt lat="46.61797" lon="-1.81037">
        <ele>-128.39999389648</ele>
        <time>2021-02-23T09:31:12.000Z</time>
      </trkpt>
      <trkpt lat="46.61787" lon="-1.81033">
        <ele>-127.59999847412</ele>
        <time>2021-02-23T09:31:16.000Z</time>
      </trkpt>
      <trkpt lat="46.61785" lon="-1.81032">
        <ele>-127.59999847412</ele>
        <time>2021-02-23T09:31:17.000Z</time>
      </trkpt>
      <trkpt lat="46.6178" lon="-1.81031">
        <ele>-127.59999847412</ele>
        <time>2021-02-23T09:31:19.000Z</time>
      </trkpt>
      <trkpt lat="46.61778" lon="-1.8103">
        <ele>-127.40000152588</ele>
        <time>2021-02-23T09:31:20.000Z</time>
      </trkpt>
      <trkpt lat="46.61775" lon="-1.8103">
        <ele>-127.40000152588</ele>
        <time>2021-02-23T09:31:21.000Z</time>
      </trkpt>
      <trkpt lat="46.61773" lon="-1.8103">
        <ele>-127.19999694824</ele>
        <time>2021-02-23T09:31:22.000Z</time>
      </trkpt>
      <trkpt lat="46.61771" lon="-1.81029">
        <ele>-127</ele>
        <time>2021-02-23T09:31:23.000Z</time>
      </trkpt>
      <trkpt lat="46.61764" lon="-1.81027">
        <ele>-126.59999847412</ele>
        <time>2021-02-23T09:31:26.000Z</time>
      </trkpt>
      <trkpt lat="46.61757" lon="-1.81028">
        <ele>-126.40000152588</ele>
        <time>2021-02-23T09:31:29.000Z</time>
      </trkpt>
      <trkpt lat="46.61755" lon="-1.81028">
        <ele>-126.40000152588</ele>
        <time>2021-02-23T09:31:30.000Z</time>
      </trkpt>
      <trkpt lat="46.61752" lon="-1.81029">
        <ele>-126.19999694824</ele>
        <time>2021-02-23T09:31:31.000Z</time>
      </trkpt>
      <trkpt lat="46.61746" lon="-1.81031">
        <ele>-125.80000305176</ele>
        <time>2021-02-23T09:31:34.000Z</time>
      </trkpt>
      <trkpt lat="46.61736" lon="-1.81034">
        <ele>-125.19999694824</ele>
        <time>2021-02-23T09:31:38.000Z</time>
      </trkpt>
      <trkpt lat="46.61734" lon="-1.81035">
        <ele>-125</ele>
        <time>2021-02-23T09:31:39.000Z</time>
      </trkpt>
      <trkpt lat="46.61731" lon="-1.81036">
        <ele>-124.80000305176</ele>
        <time>2021-02-23T09:31:40.000Z</time>
      </trkpt>
      <trkpt lat="46.61729" lon="-1.81037">
        <ele>-124.59999847412</ele>
        <time>2021-02-23T09:31:41.000Z</time>
      </trkpt>
      <trkpt lat="46.61729" lon="-1.81037">
        <ele>-124.40000152588</ele>
        <time>2021-02-23T09:31:42.000Z</time>
      </trkpt>
      <trkpt lat="46.61724" lon="-1.81039">
        <ele>-124.40000152588</ele>
        <time>2021-02-23T09:31:43.000Z</time>
      </trkpt>
      <trkpt lat="46.61721" lon="-1.8104">
        <ele>-124.19999694824</ele>
        <time>2021-02-23T09:31:44.000Z</time>
      </trkpt>
      <trkpt lat="46.61718" lon="-1.81041">
        <ele>-124</ele>
        <time>2021-02-23T09:31:45.000Z</time>
      </trkpt>
      <trkpt lat="46.61716" lon="-1.81042">
        <ele>-124</ele>
        <time>2021-02-23T09:31:46.000Z</time>
      </trkpt>
      <trkpt lat="46.61713" lon="-1.81043">
        <ele>-124</ele>
        <time>2021-02-23T09:31:47.000Z</time>
      </trkpt>
      <trkpt lat="46.6171" lon="-1.81044">
        <ele>-124</ele>
        <time>2021-02-23T09:31:48.000Z</time>
      </trkpt>
      <trkpt lat="46.61707" lon="-1.81045">
        <ele>-124</ele>
        <time>2021-02-23T09:31:49.000Z</time>
      </trkpt>
      <trkpt lat="46.61705" lon="-1.81046">
        <ele>-124</ele>
        <time>2021-02-23T09:31:50.000Z</time>
      </trkpt>
      <trkpt lat="46.61702" lon="-1.81047">
        <ele>-123.80000305176</ele>
        <time>2021-02-23T09:31:51.000Z</time>
      </trkpt>
      <trkpt lat="46.61699" lon="-1.81048">
        <ele>-123.80000305176</ele>
        <time>2021-02-23T09:31:52.000Z</time>
      </trkpt>
      <trkpt lat="46.61696" lon="-1.81049">
        <ele>-123.80000305176</ele>
        <time>2021-02-23T09:31:53.000Z</time>
      </trkpt>
      <trkpt lat="46.61693" lon="-1.8105">
        <ele>-123.80000305176</ele>
        <time>2021-02-23T09:31:54.000Z</time>
      </trkpt>
      <trkpt lat="46.6169" lon="-1.8105">
        <ele>-123.80000305176</ele>
        <time>2021-02-23T09:31:55.000Z</time>
      </trkpt>
      <trkpt lat="46.61687" lon="-1.81051">
        <ele>-123.59999847412</ele>
        <time>2021-02-23T09:31:56.000Z</time>
      </trkpt>
      <trkpt lat="46.61684" lon="-1.81052">
        <ele>-123.40000152588</ele>
        <time>2021-02-23T09:31:57.000Z</time>
      </trkpt>
      <trkpt lat="46.61681" lon="-1.81053">
        <ele>-123.19999694824</ele>
        <time>2021-02-23T09:31:58.000Z</time>
      </trkpt>
      <trkpt lat="46.61678" lon="-1.81053">
        <ele>-123</ele>
        <time>2021-02-23T09:31:59.000Z</time>
      </trkpt>
      <trkpt lat="46.61676" lon="-1.81054">
        <ele>-122.80000305176</ele>
        <time>2021-02-23T09:32:00.000Z</time>
      </trkpt>
      <trkpt lat="46.61674" lon="-1.81054">
        <ele>-122.80000305176</ele>
        <time>2021-02-23T09:32:01.000Z</time>
      </trkpt>
      <trkpt lat="46.61671" lon="-1.81054">
        <ele>-122.59999847412</ele>
        <time>2021-02-23T09:32:02.000Z</time>
      </trkpt>
      <trkpt lat="46.61669" lon="-1.81055">
        <ele>-122.59999847412</ele>
        <time>2021-02-23T09:32:03.000Z</time>
      </trkpt>
      <trkpt lat="46.61667" lon="-1.81057">
        <ele>-122.40000152588</ele>
        <time>2021-02-23T09:32:04.000Z</time>
      </trkpt>
      <trkpt lat="46.61664" lon="-1.81058">
        <ele>-122.19999694824</ele>
        <time>2021-02-23T09:32:05.000Z</time>
      </trkpt>
      <trkpt lat="46.61662" lon="-1.81059">
        <ele>-122</ele>
        <time>2021-02-23T09:32:06.000Z</time>
      </trkpt>
      <trkpt lat="46.6166" lon="-1.81059">
        <ele>-121.80000305176</ele>
        <time>2021-02-23T09:32:07.000Z</time>
      </trkpt>
      <trkpt lat="46.61658" lon="-1.8106">
        <ele>-121.80000305176</ele>
        <time>2021-02-23T09:32:08.000Z</time>
      </trkpt>
      <trkpt lat="46.61656" lon="-1.81061">
        <ele>-121.59999847412</ele>
        <time>2021-02-23T09:32:09.000Z</time>
      </trkpt>
      <trkpt lat="46.61653" lon="-1.81061">
        <ele>-121.59999847412</ele>
        <time>2021-02-23T09:32:10.000Z</time>
      </trkpt>
      <trkpt lat="46.61651" lon="-1.81062">
        <ele>-121.59999847412</ele>
        <time>2021-02-23T09:32:11.000Z</time>
      </trkpt>
      <trkpt lat="46.61649" lon="-1.81062">
        <ele>-121.59999847412</ele>
        <time>2021-02-23T09:32:12.000Z</time>
      </trkpt>
      <trkpt lat="46.61646" lon="-1.81063">
        <ele>-121.80000305176</ele>
        <time>2021-02-23T09:32:13.000Z</time>
      </trkpt>
      <trkpt lat="46.61644" lon="-1.81064">
        <ele>-121.80000305176</ele>
        <time>2021-02-23T09:32:14.000Z</time>
      </trkpt>
      <trkpt lat="46.61641" lon="-1.81065">
        <ele>-121.80000305176</ele>
        <time>2021-02-23T09:32:15.000Z</time>
      </trkpt>
      <trkpt lat="46.61639" lon="-1.81066">
        <ele>-121.80000305176</ele>
        <time>2021-02-23T09:32:16.000Z</time>
      </trkpt>
      <trkpt lat="46.61637" lon="-1.81067">
        <ele>-121.59999847412</ele>
        <time>2021-02-23T09:32:17.000Z</time>
      </trkpt>
      <trkpt lat="46.61634" lon="-1.81068">
        <ele>-121.59999847412</ele>
        <time>2021-02-23T09:32:18.000Z</time>
      </trkpt>
      <trkpt lat="46.61632" lon="-1.81069">
        <ele>-121.59999847412</ele>
        <time>2021-02-23T09:32:19.000Z</time>
      </trkpt>
      <trkpt lat="46.61627" lon="-1.81071">
        <ele>-121.59999847412</ele>
        <time>2021-02-23T09:32:21.000Z</time>
      </trkpt>
      <trkpt lat="46.61626" lon="-1.81072">
        <ele>-121.59999847412</ele>
        <time>2021-02-23T09:32:22.000Z</time>
      </trkpt>
      <trkpt lat="46.61624" lon="-1.81073">
        <ele>-121.40000152588</ele>
        <time>2021-02-23T09:32:23.000Z</time>
      </trkpt>
      <trkpt lat="46.61622" lon="-1.81074">
        <ele>-121.19999694824</ele>
        <time>2021-02-23T09:32:24.000Z</time>
      </trkpt>
      <trkpt lat="46.6162" lon="-1.81075">
        <ele>-121.19999694824</ele>
        <time>2021-02-23T09:32:25.000Z</time>
      </trkpt>
      <trkpt lat="46.61609" lon="-1.81079">
        <ele>-120.80000305176</ele>
        <time>2021-02-23T09:32:31.000Z</time>
      </trkpt>
      <trkpt lat="46.61607" lon="-1.8108">
        <ele>-120.80000305176</ele>
        <time>2021-02-23T09:32:32.000Z</time>
      </trkpt>
      <trkpt lat="46.61603" lon="-1.81082">
        <ele>-120.59999847412</ele>
        <time>2021-02-23T09:32:34.000Z</time>
      </trkpt>
      <trkpt lat="46.61599" lon="-1.81083">
        <ele>-120.40000152588</ele>
        <time>2021-02-23T09:32:36.000Z</time>
      </trkpt>
      <trkpt lat="46.61595" lon="-1.81085">
        <ele>-120.19999694824</ele>
        <time>2021-02-23T09:32:38.000Z</time>
      </trkpt>
      <trkpt lat="46.61591" lon="-1.81087">
        <ele>-120.19999694824</ele>
        <time>2021-02-23T09:32:40.000Z</time>
      </trkpt>
      <trkpt lat="46.61583" lon="-1.81091">
        <ele>-119.80000305176</ele>
        <time>2021-02-23T09:32:44.000Z</time>
      </trkpt>
      <trkpt lat="46.61581" lon="-1.81092">
        <ele>-119.80000305176</ele>
        <time>2021-02-23T09:32:45.000Z</time>
      </trkpt>
      <trkpt lat="46.6158" lon="-1.81093">
        <ele>-119.59999847412</ele>
        <time>2021-02-23T09:32:46.000Z</time>
      </trkpt>
      <trkpt lat="46.61574" lon="-1.81096">
        <ele>-119.40000152588</ele>
        <time>2021-02-23T09:32:49.000Z</time>
      </trkpt>
      <trkpt lat="46.61568" lon="-1.81099">
        <ele>-119.40000152588</ele>
        <time>2021-02-23T09:32:52.000Z</time>
      </trkpt>
      <trkpt lat="46.61564" lon="-1.811">
        <ele>-119.40000152588</ele>
        <time>2021-02-23T09:32:54.000Z</time>
      </trkpt>
      <trkpt lat="46.61561" lon="-1.81101">
        <ele>-119.19999694824</ele>
        <time>2021-02-23T09:32:55.000Z</time>
      </trkpt>
      <trkpt lat="46.61559" lon="-1.81101">
        <ele>-119.19999694824</ele>
        <time>2021-02-23T09:32:56.000Z</time>
      </trkpt>
      <trkpt lat="46.61555" lon="-1.81103">
        <ele>-119.19999694824</ele>
        <time>2021-02-23T09:32:58.000Z</time>
      </trkpt>
      <trkpt lat="46.61554" lon="-1.81104">
        <ele>-119</ele>
        <time>2021-02-23T09:32:59.000Z</time>
      </trkpt>
      <trkpt lat="46.61549" lon="-1.81105">
        <ele>-118.59999847412</ele>
        <time>2021-02-23T09:33:01.000Z</time>
      </trkpt>
      <trkpt lat="46.61542" lon="-1.81107">
        <ele>-118.19999694824</ele>
        <time>2021-02-23T09:33:04.000Z</time>
      </trkpt>
      <trkpt lat="46.61538" lon="-1.81108">
        <ele>-117.80000305176</ele>
        <time>2021-02-23T09:33:06.000Z</time>
      </trkpt>
      <trkpt lat="46.61536" lon="-1.81109">
        <ele>-117.80000305176</ele>
        <time>2021-02-23T09:33:07.000Z</time>
      </trkpt>
      <trkpt lat="46.61534" lon="-1.8111">
        <ele>-117.80000305176</ele>
        <time>2021-02-23T09:33:08.000Z</time>
      </trkpt>
      <trkpt lat="46.6153" lon="-1.81112">
        <ele>-117.59999847412</ele>
        <time>2021-02-23T09:33:10.000Z</time>
      </trkpt>
      <trkpt lat="46.61528" lon="-1.81112">
        <ele>-117.40000152588</ele>
        <time>2021-02-23T09:33:11.000Z</time>
      </trkpt>
      <trkpt lat="46.61524" lon="-1.81114">
        <ele>-117.40000152588</ele>
        <time>2021-02-23T09:33:13.000Z</time>
      </trkpt>
      <trkpt lat="46.61522" lon="-1.81115">
        <ele>-117.19999694824</ele>
        <time>2021-02-23T09:33:14.000Z</time>
      </trkpt>
      <trkpt lat="46.6152" lon="-1.81116">
        <ele>-117.19999694824</ele>
        <time>2021-02-23T09:33:15.000Z</time>
      </trkpt>
      <trkpt lat="46.61519" lon="-1.81116">
        <ele>-117</ele>
        <time>2021-02-23T09:33:16.000Z</time>
      </trkpt>
      <trkpt lat="46.61517" lon="-1.81117">
        <ele>-117</ele>
        <time>2021-02-23T09:33:17.000Z</time>
      </trkpt>
      <trkpt lat="46.61507" lon="-1.8112">
        <ele>-116.59999847412</ele>
        <time>2021-02-23T09:33:22.000Z</time>
      </trkpt>
      <trkpt lat="46.61497" lon="-1.81125">
        <ele>-116.59999847412</ele>
        <time>2021-02-23T09:33:27.000Z</time>
      </trkpt>
      <trkpt lat="46.61489" lon="-1.81128">
        <ele>-116.59999847412</ele>
        <time>2021-02-23T09:33:31.000Z</time>
      </trkpt>
      <trkpt lat="46.61487" lon="-1.81129">
        <ele>-116.59999847412</ele>
        <time>2021-02-23T09:33:32.000Z</time>
      </trkpt>
      <trkpt lat="46.61485" lon="-1.8113">
        <ele>-116.59999847412</ele>
        <time>2021-02-23T09:33:33.000Z</time>
      </trkpt>
      <trkpt lat="46.61483" lon="-1.8113">
        <ele>-116.59999847412</ele>
        <time>2021-02-23T09:33:34.000Z</time>
      </trkpt>
      <trkpt lat="46.61479" lon="-1.81132">
        <ele>-116.59999847412</ele>
        <time>2021-02-23T09:33:36.000Z</time>
      </trkpt>
      <trkpt lat="46.61477" lon="-1.81133">
        <ele>-116.59999847412</ele>
        <time>2021-02-23T09:33:37.000Z</time>
      </trkpt>
      <trkpt lat="46.61468" lon="-1.81138">
        <ele>-116.40000152588</ele>
        <time>2021-02-23T09:33:42.000Z</time>
      </trkpt>
      <trkpt lat="46.61463" lon="-1.8114">
        <ele>-116.40000152588</ele>
        <time>2021-02-23T09:33:44.000Z</time>
      </trkpt>
      <trkpt lat="46.61451" lon="-1.81144">
        <ele>-116.19999694824</ele>
        <time>2021-02-23T09:33:49.000Z</time>
      </trkpt>
      <trkpt lat="46.61448" lon="-1.81145">
        <ele>-116.19999694824</ele>
        <time>2021-02-23T09:33:50.000Z</time>
      </trkpt>
      <trkpt lat="46.61443" lon="-1.81147">
        <ele>-116.19999694824</ele>
        <time>2021-02-23T09:33:52.000Z</time>
      </trkpt>
      <trkpt lat="46.61435" lon="-1.8115">
        <ele>-116</ele>
        <time>2021-02-23T09:33:55.000Z</time>
      </trkpt>
      <trkpt lat="46.61433" lon="-1.81151">
        <ele>-116</ele>
        <time>2021-02-23T09:33:56.000Z</time>
      </trkpt>
      <trkpt lat="46.6143" lon="-1.81153">
        <ele>-116</ele>
        <time>2021-02-23T09:33:57.000Z</time>
      </trkpt>
      <trkpt lat="46.61425" lon="-1.81155">
        <ele>-116</ele>
        <time>2021-02-23T09:33:59.000Z</time>
      </trkpt>
      <trkpt lat="46.61423" lon="-1.81156">
        <ele>-115.59999847412</ele>
        <time>2021-02-23T09:34:00.000Z</time>
      </trkpt>
      <trkpt lat="46.61421" lon="-1.81157">
        <ele>-115.59999847412</ele>
        <time>2021-02-23T09:34:01.000Z</time>
      </trkpt>
      <trkpt lat="46.61413" lon="-1.81158">
        <ele>-115.40000152588</ele>
        <time>2021-02-23T09:34:04.000Z</time>
      </trkpt>
      <trkpt lat="46.61411" lon="-1.81159">
        <ele>-115.40000152588</ele>
        <time>2021-02-23T09:34:05.000Z</time>
      </trkpt>
      <trkpt lat="46.61409" lon="-1.8116">
        <ele>-115.40000152588</ele>
        <time>2021-02-23T09:34:06.000Z</time>
      </trkpt>
      <trkpt lat="46.61407" lon="-1.81162">
        <ele>-115.40000152588</ele>
        <time>2021-02-23T09:34:07.000Z</time>
      </trkpt>
      <trkpt lat="46.61401" lon="-1.81165">
        <ele>-115.40000152588</ele>
        <time>2021-02-23T09:34:10.000Z</time>
      </trkpt>
      <trkpt lat="46.61399" lon="-1.81166">
        <ele>-115.40000152588</ele>
        <time>2021-02-23T09:34:11.000Z</time>
      </trkpt>
      <trkpt lat="46.61397" lon="-1.81166">
        <ele>-115.40000152588</ele>
        <time>2021-02-23T09:34:12.000Z</time>
      </trkpt>
      <trkpt lat="46.61395" lon="-1.81166">
        <ele>-115.40000152588</ele>
        <time>2021-02-23T09:34:13.000Z</time>
      </trkpt>
      <trkpt lat="46.61387" lon="-1.8117">
        <ele>-115.40000152588</ele>
        <time>2021-02-23T09:34:17.000Z</time>
      </trkpt>
      <trkpt lat="46.61384" lon="-1.81171">
        <ele>-115.40000152588</ele>
        <time>2021-02-23T09:34:18.000Z</time>
      </trkpt>
      <trkpt lat="46.61382" lon="-1.81171">
        <ele>-115.40000152588</ele>
        <time>2021-02-23T09:34:19.000Z</time>
      </trkpt>
      <trkpt lat="46.61377" lon="-1.81171">
        <ele>-115.19999694824</ele>
        <time>2021-02-23T09:34:21.000Z</time>
      </trkpt>
      <trkpt lat="46.61376" lon="-1.81169">
        <ele>-115.19999694824</ele>
        <time>2021-02-23T09:34:22.000Z</time>
      </trkpt>
      <trkpt lat="46.61375" lon="-1.81165">
        <ele>-115.19999694824</ele>
        <time>2021-02-23T09:34:23.000Z</time>
      </trkpt>
      <trkpt lat="46.61375" lon="-1.81162">
        <ele>-115.19999694824</ele>
        <time>2021-02-23T09:34:24.000Z</time>
      </trkpt>
      <trkpt lat="46.61376" lon="-1.81155">
        <ele>-115</ele>
        <time>2021-02-23T09:34:26.000Z</time>
      </trkpt>
      <trkpt lat="46.61377" lon="-1.81151">
        <ele>-115</ele>
        <time>2021-02-23T09:34:27.000Z</time>
      </trkpt>
      <trkpt lat="46.6138" lon="-1.81136">
        <ele>-114.80000305176</ele>
        <time>2021-02-23T09:34:31.000Z</time>
      </trkpt>
      <trkpt lat="46.6138" lon="-1.81132">
        <ele>-114.59999847412</ele>
        <time>2021-02-23T09:34:32.000Z</time>
      </trkpt>
      <trkpt lat="46.61383" lon="-1.81106">
        <ele>-114.40000152588</ele>
        <time>2021-02-23T09:34:38.000Z</time>
      </trkpt>
      <trkpt lat="46.61385" lon="-1.81086">
        <ele>-114.19999694824</ele>
        <time>2021-02-23T09:34:42.000Z</time>
      </trkpt>
      <trkpt lat="46.61388" lon="-1.81055">
        <ele>-114.19999694824</ele>
        <time>2021-02-23T09:34:47.000Z</time>
      </trkpt>
      <trkpt lat="46.61394" lon="-1.81004">
        <ele>-115.19999694824</ele>
        <time>2021-02-23T09:34:54.000Z</time>
      </trkpt>
      <trkpt lat="46.61395" lon="-1.80996">
        <ele>-115.40000152588</ele>
        <time>2021-02-23T09:34:55.000Z</time>
      </trkpt>
      <trkpt lat="46.61397" lon="-1.80981">
        <ele>-115.59999847412</ele>
        <time>2021-02-23T09:34:57.000Z</time>
      </trkpt>
      <trkpt lat="46.61399" lon="-1.80973">
        <ele>-115.59999847412</ele>
        <time>2021-02-23T09:34:58.000Z</time>
      </trkpt>
      <trkpt lat="46.614" lon="-1.80966">
        <ele>-115.59999847412</ele>
        <time>2021-02-23T09:34:59.000Z</time>
      </trkpt>
      <trkpt lat="46.61402" lon="-1.80958">
        <ele>-115.80000305176</ele>
        <time>2021-02-23T09:35:00.000Z</time>
      </trkpt>
      <trkpt lat="46.61403" lon="-1.80951">
        <ele>-115.80000305176</ele>
        <time>2021-02-23T09:35:01.000Z</time>
      </trkpt>
      <trkpt lat="46.61403" lon="-1.80944">
        <ele>-116</ele>
        <time>2021-02-23T09:35:02.000Z</time>
      </trkpt>
      <trkpt lat="46.61402" lon="-1.80938">
        <ele>-116</ele>
        <time>2021-02-23T09:35:03.000Z</time>
      </trkpt>
      <trkpt lat="46.61401" lon="-1.80932">
        <ele>-116</ele>
        <time>2021-02-23T09:35:04.000Z</time>
      </trkpt>
      <trkpt lat="46.614" lon="-1.80926">
        <ele>-116.19999694824</ele>
        <time>2021-02-23T09:35:05.000Z</time>
      </trkpt>
      <trkpt lat="46.61399" lon="-1.80921">
        <ele>-116</ele>
        <time>2021-02-23T09:35:06.000Z</time>
      </trkpt>
      <trkpt lat="46.61398" lon="-1.80916">
        <ele>-116.19999694824</ele>
        <time>2021-02-23T09:35:07.000Z</time>
      </trkpt>
      <trkpt lat="46.61397" lon="-1.8091">
        <ele>-116</ele>
        <time>2021-02-23T09:35:08.000Z</time>
      </trkpt>
      <trkpt lat="46.61396" lon="-1.80905">
        <ele>-116</ele>
        <time>2021-02-23T09:35:09.000Z</time>
      </trkpt>
      <trkpt lat="46.61394" lon="-1.80889">
        <ele>-116</ele>
        <time>2021-02-23T09:35:12.000Z</time>
      </trkpt>
      <trkpt lat="46.61393" lon="-1.80884">
        <ele>-116</ele>
        <time>2021-02-23T09:35:13.000Z</time>
      </trkpt>
      <trkpt lat="46.61391" lon="-1.80873">
        <ele>-116</ele>
        <time>2021-02-23T09:35:15.000Z</time>
      </trkpt>
      <trkpt lat="46.6139" lon="-1.80868">
        <ele>-116</ele>
        <time>2021-02-23T09:35:16.000Z</time>
      </trkpt>
      <trkpt lat="46.61389" lon="-1.80863">
        <ele>-116</ele>
        <time>2021-02-23T09:35:17.000Z</time>
      </trkpt>
      <trkpt lat="46.61387" lon="-1.80853">
        <ele>-116</ele>
        <time>2021-02-23T09:35:19.000Z</time>
      </trkpt>
      <trkpt lat="46.61386" lon="-1.80848">
        <ele>-116</ele>
        <time>2021-02-23T09:35:20.000Z</time>
      </trkpt>
      <trkpt lat="46.61386" lon="-1.80842">
        <ele>-116</ele>
        <time>2021-02-23T09:35:21.000Z</time>
      </trkpt>
      <trkpt lat="46.61385" lon="-1.80837">
        <ele>-116</ele>
        <time>2021-02-23T09:35:22.000Z</time>
      </trkpt>
      <trkpt lat="46.61385" lon="-1.80833">
        <ele>-116</ele>
        <time>2021-02-23T09:35:23.000Z</time>
      </trkpt>
      <trkpt lat="46.61384" lon="-1.80823">
        <ele>-116</ele>
        <time>2021-02-23T09:35:25.000Z</time>
      </trkpt>
      <trkpt lat="46.61383" lon="-1.80818">
        <ele>-116</ele>
        <time>2021-02-23T09:35:26.000Z</time>
      </trkpt>
      <trkpt lat="46.61383" lon="-1.80814">
        <ele>-116</ele>
        <time>2021-02-23T09:35:27.000Z</time>
      </trkpt>
      <trkpt lat="46.61381" lon="-1.80785">
        <ele>-116.19999694824</ele>
        <time>2021-02-23T09:35:33.000Z</time>
      </trkpt>
      <trkpt lat="46.6138" lon="-1.8078">
        <ele>-116.19999694824</ele>
        <time>2021-02-23T09:35:34.000Z</time>
      </trkpt>
      <trkpt lat="46.61376" lon="-1.80755">
        <ele>-115.80000305176</ele>
        <time>2021-02-23T09:35:39.000Z</time>
      </trkpt>
      <trkpt lat="46.61376" lon="-1.8075">
        <ele>-115.59999847412</ele>
        <time>2021-02-23T09:35:40.000Z</time>
      </trkpt>
      <trkpt lat="46.61374" lon="-1.8074">
        <ele>-115.59999847412</ele>
        <time>2021-02-23T09:35:42.000Z</time>
      </trkpt>
      <trkpt lat="46.61372" lon="-1.8073">
        <ele>-115.40000152588</ele>
        <time>2021-02-23T09:35:44.000Z</time>
      </trkpt>
      <trkpt lat="46.61371" lon="-1.80725">
        <ele>-115.40000152588</ele>
        <time>2021-02-23T09:35:45.000Z</time>
      </trkpt>
      <trkpt lat="46.61366" lon="-1.80689">
        <ele>-115.19999694824</ele>
        <time>2021-02-23T09:35:52.000Z</time>
      </trkpt>
      <trkpt lat="46.61365" lon="-1.80683">
        <ele>-115.19999694824</ele>
        <time>2021-02-23T09:35:53.000Z</time>
      </trkpt>
      <trkpt lat="46.61361" lon="-1.80662">
        <ele>-115.19999694824</ele>
        <time>2021-02-23T09:35:57.000Z</time>
      </trkpt>
      <trkpt lat="46.6136" lon="-1.80657">
        <ele>-115.19999694824</ele>
        <time>2021-02-23T09:35:58.000Z</time>
      </trkpt>
      <trkpt lat="46.61358" lon="-1.80652">
        <ele>-115.19999694824</ele>
        <time>2021-02-23T09:35:59.000Z</time>
      </trkpt>
      <trkpt lat="46.61357" lon="-1.80647">
        <ele>-115</ele>
        <time>2021-02-23T09:36:00.000Z</time>
      </trkpt>
      <trkpt lat="46.61356" lon="-1.80642">
        <ele>-115</ele>
        <time>2021-02-23T09:36:01.000Z</time>
      </trkpt>
      <trkpt lat="46.61354" lon="-1.80637">
        <ele>-114.80000305176</ele>
        <time>2021-02-23T09:36:02.000Z</time>
      </trkpt>
      <trkpt lat="46.61352" lon="-1.80632">
        <ele>-114.80000305176</ele>
        <time>2021-02-23T09:36:03.000Z</time>
      </trkpt>
      <trkpt lat="46.61349" lon="-1.80624">
        <ele>-114.80000305176</ele>
        <time>2021-02-23T09:36:05.000Z</time>
      </trkpt>
      <trkpt lat="46.61334" lon="-1.80585">
        <ele>-114.59999847412</ele>
        <time>2021-02-23T09:36:13.000Z</time>
      </trkpt>
      <trkpt lat="46.61332" lon="-1.8058">
        <ele>-114.80000305176</ele>
        <time>2021-02-23T09:36:14.000Z</time>
      </trkpt>
      <trkpt lat="46.61322" lon="-1.80541">
        <ele>-114.59999847412</ele>
        <time>2021-02-23T09:36:21.000Z</time>
      </trkpt>
      <trkpt lat="46.61316" lon="-1.8049">
        <ele>-115</ele>
        <time>2021-02-23T09:36:29.000Z</time>
      </trkpt>
      <trkpt lat="46.61315" lon="-1.80484">
        <ele>-115</ele>
        <time>2021-02-23T09:36:30.000Z</time>
      </trkpt>
      <trkpt lat="46.61314" lon="-1.80478">
        <ele>-115</ele>
        <time>2021-02-23T09:36:31.000Z</time>
      </trkpt>
      <trkpt lat="46.61313" lon="-1.80472">
        <ele>-115</ele>
        <time>2021-02-23T09:36:32.000Z</time>
      </trkpt>
      <trkpt lat="46.61312" lon="-1.80467">
        <ele>-115</ele>
        <time>2021-02-23T09:36:33.000Z</time>
      </trkpt>
      <trkpt lat="46.61311" lon="-1.80461">
        <ele>-114.80000305176</ele>
        <time>2021-02-23T09:36:34.000Z</time>
      </trkpt>
      <trkpt lat="46.6131" lon="-1.80456">
        <ele>-114.80000305176</ele>
        <time>2021-02-23T09:36:35.000Z</time>
      </trkpt>
      <trkpt lat="46.61309" lon="-1.80451">
        <ele>-114.80000305176</ele>
        <time>2021-02-23T09:36:36.000Z</time>
      </trkpt>
      <trkpt lat="46.61308" lon="-1.80446">
        <ele>-114.80000305176</ele>
        <time>2021-02-23T09:36:37.000Z</time>
      </trkpt>
      <trkpt lat="46.61307" lon="-1.80442">
        <ele>-114.80000305176</ele>
        <time>2021-02-23T09:36:38.000Z</time>
      </trkpt>
      <trkpt lat="46.61306" lon="-1.80437">
        <ele>-114.80000305176</ele>
        <time>2021-02-23T09:36:39.000Z</time>
      </trkpt>
      <trkpt lat="46.61302" lon="-1.80415">
        <ele>-115</ele>
        <time>2021-02-23T09:36:44.000Z</time>
      </trkpt>
      <trkpt lat="46.61302" lon="-1.8041">
        <ele>-115</ele>
        <time>2021-02-23T09:36:45.000Z</time>
      </trkpt>
      <trkpt lat="46.613" lon="-1.80401">
        <ele>-115</ele>
        <time>2021-02-23T09:36:47.000Z</time>
      </trkpt>
      <trkpt lat="46.61299" lon="-1.80393">
        <ele>-115</ele>
        <time>2021-02-23T09:36:49.000Z</time>
      </trkpt>
      <trkpt lat="46.61299" lon="-1.80384">
        <ele>-115</ele>
        <time>2021-02-23T09:36:51.000Z</time>
      </trkpt>
      <trkpt lat="46.61299" lon="-1.80381">
        <ele>-115</ele>
        <time>2021-02-23T09:36:52.000Z</time>
      </trkpt>
      <trkpt lat="46.613" lon="-1.80342">
        <ele>-114.80000305176</ele>
        <time>2021-02-23T09:37:00.000Z</time>
      </trkpt>
      <trkpt lat="46.61302" lon="-1.80316">
        <ele>-114.80000305176</ele>
        <time>2021-02-23T09:37:05.000Z</time>
      </trkpt>
      <trkpt lat="46.61303" lon="-1.80311">
        <ele>-114.80000305176</ele>
        <time>2021-02-23T09:37:06.000Z</time>
      </trkpt>
      <trkpt lat="46.61304" lon="-1.80302">
        <ele>-115</ele>
        <time>2021-02-23T09:37:08.000Z</time>
      </trkpt>
      <trkpt lat="46.61313" lon="-1.8026">
        <ele>-115</ele>
        <time>2021-02-23T09:37:16.000Z</time>
      </trkpt>
      <trkpt lat="46.61314" lon="-1.80255">
        <ele>-115</ele>
        <time>2021-02-23T09:37:17.000Z</time>
      </trkpt>
      <trkpt lat="46.61321" lon="-1.80229">
        <ele>-115.40000152588</ele>
        <time>2021-02-23T09:37:22.000Z</time>
      </trkpt>
      <trkpt lat="46.61322" lon="-1.80224">
        <ele>-115.59999847412</ele>
        <time>2021-02-23T09:37:23.000Z</time>
      </trkpt>
      <trkpt lat="46.61323" lon="-1.80219">
        <ele>-115.59999847412</ele>
        <time>2021-02-23T09:37:24.000Z</time>
      </trkpt>
      <trkpt lat="46.61325" lon="-1.80214">
        <ele>-115.59999847412</ele>
        <time>2021-02-23T09:37:25.000Z</time>
      </trkpt>
      <trkpt lat="46.61333" lon="-1.80186">
        <ele>-115.59999847412</ele>
        <time>2021-02-23T09:37:30.000Z</time>
      </trkpt>
      <trkpt lat="46.61334" lon="-1.80181">
        <ele>-115.59999847412</ele>
        <time>2021-02-23T09:37:31.000Z</time>
      </trkpt>
      <trkpt lat="46.61336" lon="-1.80174">
        <ele>-115.59999847412</ele>
        <time>2021-02-23T09:37:32.000Z</time>
      </trkpt>
      <trkpt lat="46.61337" lon="-1.8017">
        <ele>-115.59999847412</ele>
        <time>2021-02-23T09:37:33.000Z</time>
      </trkpt>
      <trkpt lat="46.61339" lon="-1.80165">
        <ele>-115.59999847412</ele>
        <time>2021-02-23T09:37:34.000Z</time>
      </trkpt>
      <trkpt lat="46.61341" lon="-1.80159">
        <ele>-115.80000305176</ele>
        <time>2021-02-23T09:37:35.000Z</time>
      </trkpt>
      <trkpt lat="46.61342" lon="-1.80156">
        <ele>-115.80000305176</ele>
        <time>2021-02-23T09:37:36.000Z</time>
      </trkpt>
      <trkpt lat="46.61343" lon="-1.80152">
        <ele>-116.19999694824</ele>
        <time>2021-02-23T09:37:37.000Z</time>
      </trkpt>
      <trkpt lat="46.61345" lon="-1.80147">
        <ele>-116.19999694824</ele>
        <time>2021-02-23T09:37:38.000Z</time>
      </trkpt>
      <trkpt lat="46.61346" lon="-1.80143">
        <ele>-116.40000152588</ele>
        <time>2021-02-23T09:37:39.000Z</time>
      </trkpt>
      <trkpt lat="46.61348" lon="-1.8014">
        <ele>-116.59999847412</ele>
        <time>2021-02-23T09:37:40.000Z</time>
      </trkpt>
      <trkpt lat="46.61349" lon="-1.80136">
        <ele>-116.80000305176</ele>
        <time>2021-02-23T09:37:41.000Z</time>
      </trkpt>
      <trkpt lat="46.6135" lon="-1.80132">
        <ele>-116.80000305176</ele>
        <time>2021-02-23T09:37:42.000Z</time>
      </trkpt>
      <trkpt lat="46.61349" lon="-1.80129">
        <ele>-117</ele>
        <time>2021-02-23T09:37:43.000Z</time>
      </trkpt>
      <trkpt lat="46.61348" lon="-1.80127">
        <ele>-117.19999694824</ele>
        <time>2021-02-23T09:37:44.000Z</time>
      </trkpt>
      <trkpt lat="46.61347" lon="-1.80125">
        <ele>-117.19999694824</ele>
        <time>2021-02-23T09:37:45.000Z</time>
      </trkpt>
      <trkpt lat="46.61346" lon="-1.80125">
        <ele>-117.40000152588</ele>
        <time>2021-02-23T09:37:46.000Z</time>
      </trkpt>
      <trkpt lat="46.61342" lon="-1.80124">
        <ele>-117.40000152588</ele>
        <time>2021-02-23T09:37:48.000Z</time>
      </trkpt>
      <trkpt lat="46.61339" lon="-1.80124">
        <ele>-117.40000152588</ele>
        <time>2021-02-23T09:37:49.000Z</time>
      </trkpt>
      <trkpt lat="46.61336" lon="-1.80124">
        <ele>-117.40000152588</ele>
        <time>2021-02-23T09:37:50.000Z</time>
      </trkpt>
      <trkpt lat="46.61327" lon="-1.80123">
        <ele>-117.40000152588</ele>
        <time>2021-02-23T09:37:53.000Z</time>
      </trkpt>
      <trkpt lat="46.61321" lon="-1.80123">
        <ele>-117.19999694824</ele>
        <time>2021-02-23T09:37:55.000Z</time>
      </trkpt>
      <trkpt lat="46.61318" lon="-1.80123">
        <ele>-117.19999694824</ele>
        <time>2021-02-23T09:37:56.000Z</time>
      </trkpt>
      <trkpt lat="46.61315" lon="-1.80123">
        <ele>-117.19999694824</ele>
        <time>2021-02-23T09:37:57.000Z</time>
      </trkpt>
      <trkpt lat="46.61312" lon="-1.80124">
        <ele>-117.19999694824</ele>
        <time>2021-02-23T09:37:58.000Z</time>
      </trkpt>
      <trkpt lat="46.61309" lon="-1.80123">
        <ele>-117.19999694824</ele>
        <time>2021-02-23T09:37:59.000Z</time>
      </trkpt>
      <trkpt lat="46.61307" lon="-1.80123">
        <ele>-117.19999694824</ele>
        <time>2021-02-23T09:38:00.000Z</time>
      </trkpt>
      <trkpt lat="46.61305" lon="-1.80123">
        <ele>-117.19999694824</ele>
        <time>2021-02-23T09:38:01.000Z</time>
      </trkpt>
      <trkpt lat="46.61302" lon="-1.80122">
        <ele>-117.19999694824</ele>
        <time>2021-02-23T09:38:02.000Z</time>
      </trkpt>
      <trkpt lat="46.613" lon="-1.80122">
        <ele>-117</ele>
        <time>2021-02-23T09:38:03.000Z</time>
      </trkpt>
      <trkpt lat="46.61298" lon="-1.80121">
        <ele>-117</ele>
        <time>2021-02-23T09:38:04.000Z</time>
      </trkpt>
      <trkpt lat="46.61291" lon="-1.80121">
        <ele>-117</ele>
        <time>2021-02-23T09:38:07.000Z</time>
      </trkpt>
      <trkpt lat="46.61289" lon="-1.8012">
        <ele>-117</ele>
        <time>2021-02-23T09:38:08.000Z</time>
      </trkpt>
      <trkpt lat="46.61287" lon="-1.80119">
        <ele>-117</ele>
        <time>2021-02-23T09:38:09.000Z</time>
      </trkpt>
      <trkpt lat="46.61284" lon="-1.80119">
        <ele>-117</ele>
        <time>2021-02-23T09:38:10.000Z</time>
      </trkpt>
      <trkpt lat="46.61275" lon="-1.80117">
        <ele>-116.40000152588</ele>
        <time>2021-02-23T09:38:14.000Z</time>
      </trkpt>
      <trkpt lat="46.6127" lon="-1.80117">
        <ele>-116.40000152588</ele>
        <time>2021-02-23T09:38:16.000Z</time>
      </trkpt>
      <trkpt lat="46.61268" lon="-1.80117">
        <ele>-116.40000152588</ele>
        <time>2021-02-23T09:38:17.000Z</time>
      </trkpt>
      <trkpt lat="46.61266" lon="-1.80117">
        <ele>-116.40000152588</ele>
        <time>2021-02-23T09:38:18.000Z</time>
      </trkpt>
      <trkpt lat="46.61257" lon="-1.80116">
        <ele>-116.40000152588</ele>
        <time>2021-02-23T09:38:22.000Z</time>
      </trkpt>
      <trkpt lat="46.61254" lon="-1.80115">
        <ele>-116.40000152588</ele>
        <time>2021-02-23T09:38:23.000Z</time>
      </trkpt>
      <trkpt lat="46.61252" lon="-1.80115">
        <ele>-116.40000152588</ele>
        <time>2021-02-23T09:38:24.000Z</time>
      </trkpt>
      <trkpt lat="46.61247" lon="-1.80115">
        <ele>-116.59999847412</ele>
        <time>2021-02-23T09:38:26.000Z</time>
      </trkpt>
      <trkpt lat="46.61242" lon="-1.80115">
        <ele>-116.59999847412</ele>
        <time>2021-02-23T09:38:28.000Z</time>
      </trkpt>
      <trkpt lat="46.6124" lon="-1.80115">
        <ele>-116.40000152588</ele>
        <time>2021-02-23T09:38:29.000Z</time>
      </trkpt>
      <trkpt lat="46.61238" lon="-1.80115">
        <ele>-116.59999847412</ele>
        <time>2021-02-23T09:38:30.000Z</time>
      </trkpt>
      <trkpt lat="46.61235" lon="-1.80115">
        <ele>-116.19999694824</ele>
        <time>2021-02-23T09:38:31.000Z</time>
      </trkpt>
      <trkpt lat="46.61228" lon="-1.80113">
        <ele>-115.80000305176</ele>
        <time>2021-02-23T09:38:34.000Z</time>
      </trkpt>
      <trkpt lat="46.61226" lon="-1.80113">
        <ele>-115.80000305176</ele>
        <time>2021-02-23T09:38:35.000Z</time>
      </trkpt>
      <trkpt lat="46.61222" lon="-1.80114">
        <ele>-115.59999847412</ele>
        <time>2021-02-23T09:38:37.000Z</time>
      </trkpt>
      <trkpt lat="46.61217" lon="-1.80114">
        <ele>-115.59999847412</ele>
        <time>2021-02-23T09:38:39.000Z</time>
      </trkpt>
      <trkpt lat="46.61215" lon="-1.80113">
        <ele>-115.40000152588</ele>
        <time>2021-02-23T09:38:40.000Z</time>
      </trkpt>
      <trkpt lat="46.61212" lon="-1.80113">
        <ele>-115.40000152588</ele>
        <time>2021-02-23T09:38:41.000Z</time>
      </trkpt>
      <trkpt lat="46.61205" lon="-1.80113">
        <ele>-115.19999694824</ele>
        <time>2021-02-23T09:38:44.000Z</time>
      </trkpt>
      <trkpt lat="46.61203" lon="-1.80112">
        <ele>-115.19999694824</ele>
        <time>2021-02-23T09:38:45.000Z</time>
      </trkpt>
      <trkpt lat="46.612" lon="-1.80112">
        <ele>-115</ele>
        <time>2021-02-23T09:38:46.000Z</time>
      </trkpt>
      <trkpt lat="46.61198" lon="-1.80111">
        <ele>-115</ele>
        <time>2021-02-23T09:38:47.000Z</time>
      </trkpt>
      <trkpt lat="46.61196" lon="-1.80111">
        <ele>-115</ele>
        <time>2021-02-23T09:38:48.000Z</time>
      </trkpt>
      <trkpt lat="46.61194" lon="-1.80111">
        <ele>-115</ele>
        <time>2021-02-23T09:38:49.000Z</time>
      </trkpt>
      <trkpt lat="46.61183" lon="-1.80109">
        <ele>-114.80000305176</ele>
        <time>2021-02-23T09:38:54.000Z</time>
      </trkpt>
      <trkpt lat="46.6118" lon="-1.80109">
        <ele>-114.80000305176</ele>
        <time>2021-02-23T09:38:55.000Z</time>
      </trkpt>
      <trkpt lat="46.61179" lon="-1.80109">
        <ele>-114.59999847412</ele>
        <time>2021-02-23T09:38:56.000Z</time>
      </trkpt>
      <trkpt lat="46.61176" lon="-1.80108">
        <ele>-114.59999847412</ele>
        <time>2021-02-23T09:38:57.000Z</time>
      </trkpt>
      <trkpt lat="46.61172" lon="-1.80109">
        <ele>-114.80000305176</ele>
        <time>2021-02-23T09:38:59.000Z</time>
      </trkpt>
      <trkpt lat="46.6117" lon="-1.80109">
        <ele>-114.80000305176</ele>
        <time>2021-02-23T09:39:00.000Z</time>
      </trkpt>
      <trkpt lat="46.61163" lon="-1.8011">
        <ele>-114.80000305176</ele>
        <time>2021-02-23T09:39:03.000Z</time>
      </trkpt>
      <trkpt lat="46.61153" lon="-1.80109">
        <ele>-114.80000305176</ele>
        <time>2021-02-23T09:39:07.000Z</time>
      </trkpt>
      <trkpt lat="46.6115" lon="-1.80109">
        <ele>-114.80000305176</ele>
        <time>2021-02-23T09:39:08.000Z</time>
      </trkpt>
      <trkpt lat="46.61142" lon="-1.80109">
        <ele>-114.80000305176</ele>
        <time>2021-02-23T09:39:11.000Z</time>
      </trkpt>
      <trkpt lat="46.6113" lon="-1.80109">
        <ele>-114.80000305176</ele>
        <time>2021-02-23T09:39:15.000Z</time>
      </trkpt>
      <trkpt lat="46.61127" lon="-1.80108">
        <ele>-114.80000305176</ele>
        <time>2021-02-23T09:39:16.000Z</time>
      </trkpt>
      <trkpt lat="46.61121" lon="-1.80108">
        <ele>-114.80000305176</ele>
        <time>2021-02-23T09:39:18.000Z</time>
      </trkpt>
      <trkpt lat="46.61118" lon="-1.80108">
        <ele>-114.80000305176</ele>
        <time>2021-02-23T09:39:19.000Z</time>
      </trkpt>
      <trkpt lat="46.6111" lon="-1.80107">
        <ele>-114.80000305176</ele>
        <time>2021-02-23T09:39:22.000Z</time>
      </trkpt>
      <trkpt lat="46.61104" lon="-1.80107">
        <ele>-114.80000305176</ele>
        <time>2021-02-23T09:39:24.000Z</time>
      </trkpt>
      <trkpt lat="46.61104" lon="-1.80107">
        <ele>-114.80000305176</ele>
        <time>2021-02-23T09:39:25.000Z</time>
      </trkpt>
      <trkpt lat="46.61098" lon="-1.80107">
        <ele>-114.80000305176</ele>
        <time>2021-02-23T09:39:26.000Z</time>
      </trkpt>
      <trkpt lat="46.61095" lon="-1.80107">
        <ele>-114.59999847412</ele>
        <time>2021-02-23T09:39:27.000Z</time>
      </trkpt>
      <trkpt lat="46.61084" lon="-1.80102">
        <ele>-114.59999847412</ele>
        <time>2021-02-23T09:39:31.000Z</time>
      </trkpt>
      <trkpt lat="46.61082" lon="-1.80099">
        <ele>-114.59999847412</ele>
        <time>2021-02-23T09:39:32.000Z</time>
      </trkpt>
      <trkpt lat="46.6108" lon="-1.80095">
        <ele>-114.59999847412</ele>
        <time>2021-02-23T09:39:33.000Z</time>
      </trkpt>
      <trkpt lat="46.61079" lon="-1.80092">
        <ele>-114.59999847412</ele>
        <time>2021-02-23T09:39:34.000Z</time>
      </trkpt>
      <trkpt lat="46.61075" lon="-1.80078">
        <ele>-114.40000152588</ele>
        <time>2021-02-23T09:39:37.000Z</time>
      </trkpt>
      <trkpt lat="46.61074" lon="-1.80074">
        <ele>-114.40000152588</ele>
        <time>2021-02-23T09:39:38.000Z</time>
      </trkpt>
      <trkpt lat="46.61073" lon="-1.80069">
        <ele>-114.40000152588</ele>
        <time>2021-02-23T09:39:39.000Z</time>
      </trkpt>
      <trkpt lat="46.61073" lon="-1.80065">
        <ele>-114.40000152588</ele>
        <time>2021-02-23T09:39:40.000Z</time>
      </trkpt>
      <trkpt lat="46.6107" lon="-1.80057">
        <ele>-114.19999694824</ele>
        <time>2021-02-23T09:39:42.000Z</time>
      </trkpt>
      <trkpt lat="46.61068" lon="-1.80048">
        <ele>-114.19999694824</ele>
        <time>2021-02-23T09:39:44.000Z</time>
      </trkpt>
      <trkpt lat="46.61067" lon="-1.80044">
        <ele>-114.19999694824</ele>
        <time>2021-02-23T09:39:45.000Z</time>
      </trkpt>
      <trkpt lat="46.61063" lon="-1.80031">
        <ele>-114.19999694824</ele>
        <time>2021-02-23T09:39:48.000Z</time>
      </trkpt>
      <trkpt lat="46.61062" lon="-1.80026">
        <ele>-114.19999694824</ele>
        <time>2021-02-23T09:39:49.000Z</time>
      </trkpt>
      <trkpt lat="46.61057" lon="-1.80009">
        <ele>-114.19999694824</ele>
        <time>2021-02-23T09:39:53.000Z</time>
      </trkpt>
      <trkpt lat="46.61056" lon="-1.80004">
        <ele>-114.19999694824</ele>
        <time>2021-02-23T09:39:54.000Z</time>
      </trkpt>
      <trkpt lat="46.61055" lon="-1.8">
        <ele>-114.19999694824</ele>
        <time>2021-02-23T09:39:55.000Z</time>
      </trkpt>
      <trkpt lat="46.61054" lon="-1.79997">
        <ele>-114</ele>
        <time>2021-02-23T09:39:56.000Z</time>
      </trkpt>
      <trkpt lat="46.61053" lon="-1.79993">
        <ele>-113.80000305176</ele>
        <time>2021-02-23T09:39:57.000Z</time>
      </trkpt>
      <trkpt lat="46.61052" lon="-1.79989">
        <ele>-113.59999847412</ele>
        <time>2021-02-23T09:39:58.000Z</time>
      </trkpt>
      <trkpt lat="46.61051" lon="-1.79984">
        <ele>-113.59999847412</ele>
        <time>2021-02-23T09:39:59.000Z</time>
      </trkpt>
      <trkpt lat="46.61048" lon="-1.79974">
        <ele>-113.40000152588</ele>
        <time>2021-02-23T09:40:02.000Z</time>
      </trkpt>
      <trkpt lat="46.61046" lon="-1.79972">
        <ele>-113.40000152588</ele>
        <time>2021-02-23T09:40:03.000Z</time>
      </trkpt>
      <trkpt lat="46.61043" lon="-1.7997">
        <ele>-113.40000152588</ele>
        <time>2021-02-23T09:40:04.000Z</time>
      </trkpt>
      <trkpt lat="46.61041" lon="-1.79968">
        <ele>-113.40000152588</ele>
        <time>2021-02-23T09:40:05.000Z</time>
      </trkpt>
      <trkpt lat="46.61038" lon="-1.79967">
        <ele>-113.40000152588</ele>
        <time>2021-02-23T09:40:06.000Z</time>
      </trkpt>
      <trkpt lat="46.61027" lon="-1.79964">
        <ele>-113.40000152588</ele>
        <time>2021-02-23T09:40:10.000Z</time>
      </trkpt>
      <trkpt lat="46.61013" lon="-1.79964">
        <ele>-113.19999694824</ele>
        <time>2021-02-23T09:40:14.000Z</time>
      </trkpt>
      <trkpt lat="46.61008" lon="-1.79964">
        <ele>-113.59999847412</ele>
        <time>2021-02-23T09:40:15.000Z</time>
      </trkpt>
      <trkpt lat="46.60995" lon="-1.79962">
        <ele>-113.80000305176</ele>
        <time>2021-02-23T09:40:18.000Z</time>
      </trkpt>
      <trkpt lat="46.60991" lon="-1.79962">
        <ele>-114</ele>
        <time>2021-02-23T09:40:19.000Z</time>
      </trkpt>
      <trkpt lat="46.60979" lon="-1.79959">
        <ele>-114.19999694824</ele>
        <time>2021-02-23T09:40:22.000Z</time>
      </trkpt>
      <trkpt lat="46.60975" lon="-1.79959">
        <ele>-114.59999847412</ele>
        <time>2021-02-23T09:40:23.000Z</time>
      </trkpt>
      <trkpt lat="46.60961" lon="-1.79957">
        <ele>-115</ele>
        <time>2021-02-23T09:40:26.000Z</time>
      </trkpt>
      <trkpt lat="46.60956" lon="-1.79956">
        <ele>-115</ele>
        <time>2021-02-23T09:40:27.000Z</time>
      </trkpt>
      <trkpt lat="46.60939" lon="-1.79954">
        <ele>-116.59999847412</ele>
        <time>2021-02-23T09:40:31.000Z</time>
      </trkpt>
      <trkpt lat="46.60929" lon="-1.79951">
        <ele>-117.40000152588</ele>
        <time>2021-02-23T09:40:33.000Z</time>
      </trkpt>
      <trkpt lat="46.60923" lon="-1.7995">
        <ele>-117.59999847412</ele>
        <time>2021-02-23T09:40:34.000Z</time>
      </trkpt>
      <trkpt lat="46.60905" lon="-1.79947">
        <ele>-119.19999694824</ele>
        <time>2021-02-23T09:40:37.000Z</time>
      </trkpt>
      <trkpt lat="46.60888" lon="-1.79945">
        <ele>-120</ele>
        <time>2021-02-23T09:40:40.000Z</time>
      </trkpt>
      <trkpt lat="46.60876" lon="-1.79943">
        <ele>-120.40000152588</ele>
        <time>2021-02-23T09:40:42.000Z</time>
      </trkpt>
      <trkpt lat="46.60859" lon="-1.79941">
        <ele>-122</ele>
        <time>2021-02-23T09:40:45.000Z</time>
      </trkpt>
      <trkpt lat="46.60841" lon="-1.7994">
        <ele>-123.19999694824</ele>
        <time>2021-02-23T09:40:48.000Z</time>
      </trkpt>
      <trkpt lat="46.60835" lon="-1.79939">
        <ele>-123.40000152588</ele>
        <time>2021-02-23T09:40:49.000Z</time>
      </trkpt>
      <trkpt lat="46.60805" lon="-1.79937">
        <ele>-124.19999694824</ele>
        <time>2021-02-23T09:40:54.000Z</time>
      </trkpt>
      <trkpt lat="46.60799" lon="-1.79937">
        <ele>-124.40000152588</ele>
        <time>2021-02-23T09:40:55.000Z</time>
      </trkpt>
      <trkpt lat="46.60793" lon="-1.79936">
        <ele>-124.80000305176</ele>
        <time>2021-02-23T09:40:56.000Z</time>
      </trkpt>
      <trkpt lat="46.60787" lon="-1.79936">
        <ele>-125</ele>
        <time>2021-02-23T09:40:57.000Z</time>
      </trkpt>
      <trkpt lat="46.60781" lon="-1.79935">
        <ele>-125.19999694824</ele>
        <time>2021-02-23T09:40:58.000Z</time>
      </trkpt>
      <trkpt lat="46.60776" lon="-1.79935">
        <ele>-125.59999847412</ele>
        <time>2021-02-23T09:40:59.000Z</time>
      </trkpt>
      <trkpt lat="46.6077" lon="-1.79934">
        <ele>-125.59999847412</ele>
        <time>2021-02-23T09:41:00.000Z</time>
      </trkpt>
      <trkpt lat="46.60765" lon="-1.79933">
        <ele>-125.80000305176</ele>
        <time>2021-02-23T09:41:01.000Z</time>
      </trkpt>
      <trkpt lat="46.6076" lon="-1.79932">
        <ele>-126</ele>
        <time>2021-02-23T09:41:02.000Z</time>
      </trkpt>
      <trkpt lat="46.6075" lon="-1.79928">
        <ele>-126.19999694824</ele>
        <time>2021-02-23T09:41:04.000Z</time>
      </trkpt>
      <trkpt lat="46.60738" lon="-1.79923">
        <ele>-126.19999694824</ele>
        <time>2021-02-23T09:41:06.000Z</time>
      </trkpt>
      <trkpt lat="46.60713" lon="-1.79912">
        <ele>-127.40000152588</ele>
        <time>2021-02-23T09:41:10.000Z</time>
      </trkpt>
      <trkpt lat="46.60707" lon="-1.79909">
        <ele>-127.59999847412</ele>
        <time>2021-02-23T09:41:11.000Z</time>
      </trkpt>
      <trkpt lat="46.60702" lon="-1.79907">
        <ele>-127.80000305176</ele>
        <time>2021-02-23T09:41:12.000Z</time>
      </trkpt>
      <trkpt lat="46.60696" lon="-1.79904">
        <ele>-128</ele>
        <time>2021-02-23T09:41:13.000Z</time>
      </trkpt>
      <trkpt lat="46.6069" lon="-1.79901">
        <ele>-128</ele>
        <time>2021-02-23T09:41:14.000Z</time>
      </trkpt>
      <trkpt lat="46.60685" lon="-1.79899">
        <ele>-128.19999694824</ele>
        <time>2021-02-23T09:41:15.000Z</time>
      </trkpt>
      <trkpt lat="46.60675" lon="-1.79894">
        <ele>-128.60000610352</ele>
        <time>2021-02-23T09:41:17.000Z</time>
      </trkpt>
      <trkpt lat="46.60664" lon="-1.7989">
        <ele>-128.80000305176</ele>
        <time>2021-02-23T09:41:19.000Z</time>
      </trkpt>
      <trkpt lat="46.60631" lon="-1.79882">
        <ele>-129.80000305176</ele>
        <time>2021-02-23T09:41:24.000Z</time>
      </trkpt>
      <trkpt lat="46.60625" lon="-1.79881">
        <ele>-130.39999389648</ele>
        <time>2021-02-23T09:41:25.000Z</time>
      </trkpt>
      <trkpt lat="46.60609" lon="-1.79878">
        <ele>-131.60000610352</ele>
        <time>2021-02-23T09:41:27.000Z</time>
      </trkpt>
      <trkpt lat="46.6059" lon="-1.79873">
        <ele>-132.60000610352</ele>
        <time>2021-02-23T09:41:29.000Z</time>
      </trkpt>
      <trkpt lat="46.60572" lon="-1.7987">
        <ele>-133.80000305176</ele>
        <time>2021-02-23T09:41:31.000Z</time>
      </trkpt>
      <trkpt lat="46.60563" lon="-1.79868">
        <ele>-134.80000305176</ele>
        <time>2021-02-23T09:41:32.000Z</time>
      </trkpt>
      <trkpt lat="46.60544" lon="-1.79866">
        <ele>-136.60000610352</ele>
        <time>2021-02-23T09:41:34.000Z</time>
      </trkpt>
      <trkpt lat="46.60534" lon="-1.79864">
        <ele>-137.39999389648</ele>
        <time>2021-02-23T09:41:35.000Z</time>
      </trkpt>
      <trkpt lat="46.60525" lon="-1.79862">
        <ele>-138.80000305176</ele>
        <time>2021-02-23T09:41:36.000Z</time>
      </trkpt>
      <trkpt lat="46.60517" lon="-1.79859">
        <ele>-140.19999694824</ele>
        <time>2021-02-23T09:41:37.000Z</time>
      </trkpt>
      <trkpt lat="46.60508" lon="-1.79853">
        <ele>-140.60000610352</ele>
        <time>2021-02-23T09:41:38.000Z</time>
      </trkpt>
      <trkpt lat="46.60502" lon="-1.79847">
        <ele>-141.60000610352</ele>
        <time>2021-02-23T09:41:39.000Z</time>
      </trkpt>
      <trkpt lat="46.60494" lon="-1.7984">
        <ele>-142.19999694824</ele>
        <time>2021-02-23T09:41:40.000Z</time>
      </trkpt>
      <trkpt lat="46.60486" lon="-1.79832">
        <ele>-143.39999389648</ele>
        <time>2021-02-23T09:41:41.000Z</time>
      </trkpt>
      <trkpt lat="46.6048" lon="-1.79825">
        <ele>-144</ele>
        <time>2021-02-23T09:41:42.000Z</time>
      </trkpt>
      <trkpt lat="46.60476" lon="-1.7982">
        <ele>-144.80000305176</ele>
        <time>2021-02-23T09:41:43.000Z</time>
      </trkpt>
      <trkpt lat="46.60465" lon="-1.79805">
        <ele>-146</ele>
        <time>2021-02-23T09:41:45.000Z</time>
      </trkpt>
      <trkpt lat="46.60458" lon="-1.79797">
        <ele>-146.60000610352</ele>
        <time>2021-02-23T09:41:46.000Z</time>
      </trkpt>
      <trkpt lat="46.60454" lon="-1.79791">
        <ele>-147.19999694824</ele>
        <time>2021-02-23T09:41:47.000Z</time>
      </trkpt>
      <trkpt lat="46.60448" lon="-1.79784">
        <ele>-147.80000305176</ele>
        <time>2021-02-23T09:41:48.000Z</time>
      </trkpt>
      <trkpt lat="46.60442" lon="-1.79778">
        <ele>-148.60000610352</ele>
        <time>2021-02-23T09:41:49.000Z</time>
      </trkpt>
      <trkpt lat="46.60436" lon="-1.79774">
        <ele>-149.80000305176</ele>
        <time>2021-02-23T09:41:50.000Z</time>
      </trkpt>
      <trkpt lat="46.60431" lon="-1.7977">
        <ele>-150.60000610352</ele>
        <time>2021-02-23T09:41:51.000Z</time>
      </trkpt>
      <trkpt lat="46.60425" lon="-1.79766">
        <ele>-150.80000305176</ele>
        <time>2021-02-23T09:41:52.000Z</time>
      </trkpt>
      <trkpt lat="46.60421" lon="-1.79765">
        <ele>-151</ele>
        <time>2021-02-23T09:41:53.000Z</time>
      </trkpt>
      <trkpt lat="46.60417" lon="-1.79762">
        <ele>-151.19999694824</ele>
        <time>2021-02-23T09:41:54.000Z</time>
      </trkpt>
      <trkpt lat="46.60411" lon="-1.7976">
        <ele>-151.19999694824</ele>
        <time>2021-02-23T09:41:55.000Z</time>
      </trkpt>
      <trkpt lat="46.60408" lon="-1.79758">
        <ele>-151.19999694824</ele>
        <time>2021-02-23T09:41:56.000Z</time>
      </trkpt>
      <trkpt lat="46.60403" lon="-1.79756">
        <ele>-151</ele>
        <time>2021-02-23T09:41:57.000Z</time>
      </trkpt>
      <trkpt lat="46.604" lon="-1.79754">
        <ele>-151</ele>
        <time>2021-02-23T09:41:58.000Z</time>
      </trkpt>
      <trkpt lat="46.60397" lon="-1.79752">
        <ele>-150.80000305176</ele>
        <time>2021-02-23T09:41:59.000Z</time>
      </trkpt>
      <trkpt lat="46.60392" lon="-1.7975">
        <ele>-150.39999389648</ele>
        <time>2021-02-23T09:42:00.000Z</time>
      </trkpt>
      <trkpt lat="46.60389" lon="-1.79748">
        <ele>-150</ele>
        <time>2021-02-23T09:42:01.000Z</time>
      </trkpt>
      <trkpt lat="46.60386" lon="-1.79747">
        <ele>-149.39999389648</ele>
        <time>2021-02-23T09:42:02.000Z</time>
      </trkpt>
      <trkpt lat="46.60379" lon="-1.79744">
        <ele>-148.39999389648</ele>
        <time>2021-02-23T09:42:04.000Z</time>
      </trkpt>
      <trkpt lat="46.60375" lon="-1.79742">
        <ele>-147.80000305176</ele>
        <time>2021-02-23T09:42:05.000Z</time>
      </trkpt>
      <trkpt lat="46.60371" lon="-1.7974">
        <ele>-147.60000610352</ele>
        <time>2021-02-23T09:42:06.000Z</time>
      </trkpt>
      <trkpt lat="46.60369" lon="-1.79739">
        <ele>-147.19999694824</ele>
        <time>2021-02-23T09:42:07.000Z</time>
      </trkpt>
      <trkpt lat="46.60366" lon="-1.79738">
        <ele>-147</ele>
        <time>2021-02-23T09:42:08.000Z</time>
      </trkpt>
      <trkpt lat="46.60355" lon="-1.79733">
        <ele>-145.60000610352</ele>
        <time>2021-02-23T09:42:11.000Z</time>
      </trkpt>
      <trkpt lat="46.60353" lon="-1.79731">
        <ele>-144.80000305176</ele>
        <time>2021-02-23T09:42:12.000Z</time>
      </trkpt>
      <trkpt lat="46.60345" lon="-1.79728">
        <ele>-144.19999694824</ele>
        <time>2021-02-23T09:42:14.000Z</time>
      </trkpt>
      <trkpt lat="46.60342" lon="-1.79726">
        <ele>-144</ele>
        <time>2021-02-23T09:42:15.000Z</time>
      </trkpt>
      <trkpt lat="46.60339" lon="-1.79725">
        <ele>-143.60000610352</ele>
        <time>2021-02-23T09:42:16.000Z</time>
      </trkpt>
      <trkpt lat="46.60336" lon="-1.79724">
        <ele>-143</ele>
        <time>2021-02-23T09:42:17.000Z</time>
      </trkpt>
      <trkpt lat="46.60333" lon="-1.79722">
        <ele>-142.80000305176</ele>
        <time>2021-02-23T09:42:18.000Z</time>
      </trkpt>
      <trkpt lat="46.60329" lon="-1.7972">
        <ele>-142.39999389648</ele>
        <time>2021-02-23T09:42:19.000Z</time>
      </trkpt>
      <trkpt lat="46.60326" lon="-1.79719">
        <ele>-142.19999694824</ele>
        <time>2021-02-23T09:42:20.000Z</time>
      </trkpt>
      <trkpt lat="46.60322" lon="-1.79717">
        <ele>-142</ele>
        <time>2021-02-23T09:42:21.000Z</time>
      </trkpt>
      <trkpt lat="46.6032" lon="-1.79716">
        <ele>-141.80000305176</ele>
        <time>2021-02-23T09:42:22.000Z</time>
      </trkpt>
      <trkpt lat="46.60317" lon="-1.79714">
        <ele>-141.39999389648</ele>
        <time>2021-02-23T09:42:23.000Z</time>
      </trkpt>
      <trkpt lat="46.60313" lon="-1.79713">
        <ele>-141</ele>
        <time>2021-02-23T09:42:24.000Z</time>
      </trkpt>
      <trkpt lat="46.60309" lon="-1.79711">
        <ele>-140.80000305176</ele>
        <time>2021-02-23T09:42:25.000Z</time>
      </trkpt>
      <trkpt lat="46.60307" lon="-1.7971">
        <ele>-140.39999389648</ele>
        <time>2021-02-23T09:42:26.000Z</time>
      </trkpt>
      <trkpt lat="46.60304" lon="-1.79709">
        <ele>-140.19999694824</ele>
        <time>2021-02-23T09:42:27.000Z</time>
      </trkpt>
      <trkpt lat="46.603" lon="-1.79707">
        <ele>-140</ele>
        <time>2021-02-23T09:42:28.000Z</time>
      </trkpt>
      <trkpt lat="46.60297" lon="-1.79706">
        <ele>-140</ele>
        <time>2021-02-23T09:42:29.000Z</time>
      </trkpt>
      <trkpt lat="46.60294" lon="-1.79705">
        <ele>-140</ele>
        <time>2021-02-23T09:42:30.000Z</time>
      </trkpt>
      <trkpt lat="46.60291" lon="-1.79704">
        <ele>-139.80000305176</ele>
        <time>2021-02-23T09:42:31.000Z</time>
      </trkpt>
      <trkpt lat="46.60288" lon="-1.79703">
        <ele>-139.80000305176</ele>
        <time>2021-02-23T09:42:32.000Z</time>
      </trkpt>
      <trkpt lat="46.60284" lon="-1.79701">
        <ele>-139.39999389648</ele>
        <time>2021-02-23T09:42:33.000Z</time>
      </trkpt>
      <trkpt lat="46.60282" lon="-1.797">
        <ele>-139.39999389648</ele>
        <time>2021-02-23T09:42:34.000Z</time>
      </trkpt>
      <trkpt lat="46.60278" lon="-1.79699">
        <ele>-139</ele>
        <time>2021-02-23T09:42:35.000Z</time>
      </trkpt>
      <trkpt lat="46.60276" lon="-1.79698">
        <ele>-138.80000305176</ele>
        <time>2021-02-23T09:42:36.000Z</time>
      </trkpt>
      <trkpt lat="46.60273" lon="-1.79696">
        <ele>-138.39999389648</ele>
        <time>2021-02-23T09:42:37.000Z</time>
      </trkpt>
      <trkpt lat="46.6027" lon="-1.79695">
        <ele>-138.19999694824</ele>
        <time>2021-02-23T09:42:38.000Z</time>
      </trkpt>
      <trkpt lat="46.60267" lon="-1.79694">
        <ele>-138.19999694824</ele>
        <time>2021-02-23T09:42:39.000Z</time>
      </trkpt>
      <trkpt lat="46.60264" lon="-1.79693">
        <ele>-138</ele>
        <time>2021-02-23T09:42:40.000Z</time>
      </trkpt>
      <trkpt lat="46.60261" lon="-1.79692">
        <ele>-137.80000305176</ele>
        <time>2021-02-23T09:42:41.000Z</time>
      </trkpt>
      <trkpt lat="46.60258" lon="-1.79691">
        <ele>-137.60000610352</ele>
        <time>2021-02-23T09:42:42.000Z</time>
      </trkpt>
      <trkpt lat="46.60254" lon="-1.7969">
        <ele>-137.39999389648</ele>
        <time>2021-02-23T09:42:43.000Z</time>
      </trkpt>
      <trkpt lat="46.60252" lon="-1.79689">
        <ele>-137.19999694824</ele>
        <time>2021-02-23T09:42:44.000Z</time>
      </trkpt>
      <trkpt lat="46.60249" lon="-1.79688">
        <ele>-137</ele>
        <time>2021-02-23T09:42:45.000Z</time>
      </trkpt>
      <trkpt lat="46.60247" lon="-1.79688">
        <ele>-137</ele>
        <time>2021-02-23T09:42:46.000Z</time>
      </trkpt>
      <trkpt lat="46.60244" lon="-1.79687">
        <ele>-136.80000305176</ele>
        <time>2021-02-23T09:42:47.000Z</time>
      </trkpt>
      <trkpt lat="46.6024" lon="-1.79687">
        <ele>-136.80000305176</ele>
        <time>2021-02-23T09:42:48.000Z</time>
      </trkpt>
      <trkpt lat="46.60237" lon="-1.79687">
        <ele>-136.60000610352</ele>
        <time>2021-02-23T09:42:49.000Z</time>
      </trkpt>
      <trkpt lat="46.60234" lon="-1.79687">
        <ele>-136.60000610352</ele>
        <time>2021-02-23T09:42:50.000Z</time>
      </trkpt>
      <trkpt lat="46.60231" lon="-1.79687">
        <ele>-136.60000610352</ele>
        <time>2021-02-23T09:42:51.000Z</time>
      </trkpt>
      <trkpt lat="46.60228" lon="-1.79687">
        <ele>-136.60000610352</ele>
        <time>2021-02-23T09:42:52.000Z</time>
      </trkpt>
      <trkpt lat="46.60224" lon="-1.79687">
        <ele>-136.60000610352</ele>
        <time>2021-02-23T09:42:53.000Z</time>
      </trkpt>
      <trkpt lat="46.6022" lon="-1.79688">
        <ele>-136.39999389648</ele>
        <time>2021-02-23T09:42:54.000Z</time>
      </trkpt>
      <trkpt lat="46.60217" lon="-1.79689">
        <ele>-136.39999389648</ele>
        <time>2021-02-23T09:42:55.000Z</time>
      </trkpt>
      <trkpt lat="46.60213" lon="-1.7969">
        <ele>-136.39999389648</ele>
        <time>2021-02-23T09:42:56.000Z</time>
      </trkpt>
      <trkpt lat="46.60209" lon="-1.79691">
        <ele>-136.39999389648</ele>
        <time>2021-02-23T09:42:57.000Z</time>
      </trkpt>
      <trkpt lat="46.60205" lon="-1.79692">
        <ele>-136.39999389648</ele>
        <time>2021-02-23T09:42:58.000Z</time>
      </trkpt>
      <trkpt lat="46.602" lon="-1.79693">
        <ele>-136.60000610352</ele>
        <time>2021-02-23T09:42:59.000Z</time>
      </trkpt>
      <trkpt lat="46.60196" lon="-1.79695">
        <ele>-136.60000610352</ele>
        <time>2021-02-23T09:43:00.000Z</time>
      </trkpt>
      <trkpt lat="46.60192" lon="-1.79696">
        <ele>-136.80000305176</ele>
        <time>2021-02-23T09:43:01.000Z</time>
      </trkpt>
      <trkpt lat="46.60187" lon="-1.79698">
        <ele>-136.80000305176</ele>
        <time>2021-02-23T09:43:02.000Z</time>
      </trkpt>
      <trkpt lat="46.60182" lon="-1.79698">
        <ele>-137</ele>
        <time>2021-02-23T09:43:03.000Z</time>
      </trkpt>
      <trkpt lat="46.60177" lon="-1.797">
        <ele>-137</ele>
        <time>2021-02-23T09:43:04.000Z</time>
      </trkpt>
      <trkpt lat="46.60172" lon="-1.79701">
        <ele>-137</ele>
        <time>2021-02-23T09:43:05.000Z</time>
      </trkpt>
      <trkpt lat="46.60149" lon="-1.79708">
        <ele>-137.60000610352</ele>
        <time>2021-02-23T09:43:09.000Z</time>
      </trkpt>
      <trkpt lat="46.60134" lon="-1.79711">
        <ele>-138.39999389648</ele>
        <time>2021-02-23T09:43:11.000Z</time>
      </trkpt>
      <trkpt lat="46.60128" lon="-1.79713">
        <ele>-138.60000610352</ele>
        <time>2021-02-23T09:43:12.000Z</time>
      </trkpt>
      <trkpt lat="46.60122" lon="-1.79714">
        <ele>-139.39999389648</ele>
        <time>2021-02-23T09:43:13.000Z</time>
      </trkpt>
      <trkpt lat="46.60116" lon="-1.79715">
        <ele>-139.60000610352</ele>
        <time>2021-02-23T09:43:14.000Z</time>
      </trkpt>
      <trkpt lat="46.60109" lon="-1.79717">
        <ele>-140</ele>
        <time>2021-02-23T09:43:15.000Z</time>
      </trkpt>
      <trkpt lat="46.60102" lon="-1.79718">
        <ele>-140.39999389648</ele>
        <time>2021-02-23T09:43:16.000Z</time>
      </trkpt>
      <trkpt lat="46.60095" lon="-1.79719">
        <ele>-140.60000610352</ele>
        <time>2021-02-23T09:43:17.000Z</time>
      </trkpt>
      <trkpt lat="46.60091" lon="-1.7972">
        <ele>-140.60000610352</ele>
        <time>2021-02-23T09:43:18.000Z</time>
      </trkpt>
      <trkpt lat="46.60085" lon="-1.7972">
        <ele>-140.80000305176</ele>
        <time>2021-02-23T09:43:19.000Z</time>
      </trkpt>
      <trkpt lat="46.6008" lon="-1.79721">
        <ele>-140.80000305176</ele>
        <time>2021-02-23T09:43:20.000Z</time>
      </trkpt>
      <trkpt lat="46.60073" lon="-1.79722">
        <ele>-140.80000305176</ele>
        <time>2021-02-23T09:43:21.000Z</time>
      </trkpt>
      <trkpt lat="46.60068" lon="-1.79723">
        <ele>-140.80000305176</ele>
        <time>2021-02-23T09:43:22.000Z</time>
      </trkpt>
      <trkpt lat="46.60064" lon="-1.79723">
        <ele>-140.80000305176</ele>
        <time>2021-02-23T09:43:23.000Z</time>
      </trkpt>
      <trkpt lat="46.60059" lon="-1.79723">
        <ele>-140.80000305176</ele>
        <time>2021-02-23T09:43:24.000Z</time>
      </trkpt>
      <trkpt lat="46.60053" lon="-1.79723">
        <ele>-140.60000610352</ele>
        <time>2021-02-23T09:43:25.000Z</time>
      </trkpt>
      <trkpt lat="46.60048" lon="-1.79721">
        <ele>-140.60000610352</ele>
        <time>2021-02-23T09:43:26.000Z</time>
      </trkpt>
      <trkpt lat="46.60044" lon="-1.7972">
        <ele>-140.39999389648</ele>
        <time>2021-02-23T09:43:27.000Z</time>
      </trkpt>
      <trkpt lat="46.60038" lon="-1.79719">
        <ele>-140.39999389648</ele>
        <time>2021-02-23T09:43:28.000Z</time>
      </trkpt>
      <trkpt lat="46.60033" lon="-1.79718">
        <ele>-140.19999694824</ele>
        <time>2021-02-23T09:43:29.000Z</time>
      </trkpt>
      <trkpt lat="46.60028" lon="-1.79717">
        <ele>-140.19999694824</ele>
        <time>2021-02-23T09:43:30.000Z</time>
      </trkpt>
      <trkpt lat="46.6001" lon="-1.79711">
        <ele>-139.19999694824</ele>
        <time>2021-02-23T09:43:34.000Z</time>
      </trkpt>
      <trkpt lat="46.60006" lon="-1.79709">
        <ele>-139</ele>
        <time>2021-02-23T09:43:35.000Z</time>
      </trkpt>
      <trkpt lat="46.60002" lon="-1.79707">
        <ele>-138.60000610352</ele>
        <time>2021-02-23T09:43:36.000Z</time>
      </trkpt>
      <trkpt lat="46.59998" lon="-1.79704">
        <ele>-138.60000610352</ele>
        <time>2021-02-23T09:43:37.000Z</time>
      </trkpt>
      <trkpt lat="46.59995" lon="-1.79702">
        <ele>-138.19999694824</ele>
        <time>2021-02-23T09:43:38.000Z</time>
      </trkpt>
      <trkpt lat="46.59992" lon="-1.797">
        <ele>-138</ele>
        <time>2021-02-23T09:43:39.000Z</time>
      </trkpt>
      <trkpt lat="46.59988" lon="-1.79697">
        <ele>-138</ele>
        <time>2021-02-23T09:43:40.000Z</time>
      </trkpt>
      <trkpt lat="46.59985" lon="-1.79694">
        <ele>-137.80000305176</ele>
        <time>2021-02-23T09:43:41.000Z</time>
      </trkpt>
      <trkpt lat="46.5997" lon="-1.79676">
        <ele>-137.60000610352</ele>
        <time>2021-02-23T09:43:46.000Z</time>
      </trkpt>
      <trkpt lat="46.59966" lon="-1.7967">
        <ele>-137.39999389648</ele>
        <time>2021-02-23T09:43:48.000Z</time>
      </trkpt>
      <trkpt lat="46.59962" lon="-1.79666">
        <ele>-137.19999694824</ele>
        <time>2021-02-23T09:43:49.000Z</time>
      </trkpt>
      <trkpt lat="46.59957" lon="-1.79661">
        <ele>-137</ele>
        <time>2021-02-23T09:43:51.000Z</time>
      </trkpt>
      <trkpt lat="46.59954" lon="-1.7966">
        <ele>-136.80000305176</ele>
        <time>2021-02-23T09:43:52.000Z</time>
      </trkpt>
      <trkpt lat="46.5995" lon="-1.79661">
        <ele>-136.60000610352</ele>
        <time>2021-02-23T09:43:53.000Z</time>
      </trkpt>
      <trkpt lat="46.59947" lon="-1.79664">
        <ele>-136.60000610352</ele>
        <time>2021-02-23T09:43:54.000Z</time>
      </trkpt>
      <trkpt lat="46.59945" lon="-1.79669">
        <ele>-136.39999389648</ele>
        <time>2021-02-23T09:43:55.000Z</time>
      </trkpt>
      <trkpt lat="46.59944" lon="-1.79674">
        <ele>-136.39999389648</ele>
        <time>2021-02-23T09:43:56.000Z</time>
      </trkpt>
      <trkpt lat="46.59943" lon="-1.79679">
        <ele>-136.39999389648</ele>
        <time>2021-02-23T09:43:57.000Z</time>
      </trkpt>
      <trkpt lat="46.59942" lon="-1.79684">
        <ele>-136.39999389648</ele>
        <time>2021-02-23T09:43:58.000Z</time>
      </trkpt>
      <trkpt lat="46.59941" lon="-1.79691">
        <ele>-136.39999389648</ele>
        <time>2021-02-23T09:43:59.000Z</time>
      </trkpt>
      <trkpt lat="46.5994" lon="-1.79697">
        <ele>-136.19999694824</ele>
        <time>2021-02-23T09:44:00.000Z</time>
      </trkpt>
      <trkpt lat="46.59939" lon="-1.79701">
        <ele>-136.19999694824</ele>
        <time>2021-02-23T09:44:01.000Z</time>
      </trkpt>
      <trkpt lat="46.59937" lon="-1.79707">
        <ele>-136.19999694824</ele>
        <time>2021-02-23T09:44:02.000Z</time>
      </trkpt>
      <trkpt lat="46.59934" lon="-1.79712">
        <ele>-136.19999694824</ele>
        <time>2021-02-23T09:44:03.000Z</time>
      </trkpt>
      <trkpt lat="46.59932" lon="-1.79716">
        <ele>-136.19999694824</ele>
        <time>2021-02-23T09:44:04.000Z</time>
      </trkpt>
      <trkpt lat="46.59928" lon="-1.79721">
        <ele>-136</ele>
        <time>2021-02-23T09:44:05.000Z</time>
      </trkpt>
      <trkpt lat="46.59919" lon="-1.79732">
        <ele>-136</ele>
        <time>2021-02-23T09:44:08.000Z</time>
      </trkpt>
      <trkpt lat="46.59905" lon="-1.79747">
        <ele>-135.80000305176</ele>
        <time>2021-02-23T09:44:12.000Z</time>
      </trkpt>
      <trkpt lat="46.59898" lon="-1.79756">
        <ele>-135.80000305176</ele>
        <time>2021-02-23T09:44:14.000Z</time>
      </trkpt>
      <trkpt lat="46.59891" lon="-1.79763">
        <ele>-135.80000305176</ele>
        <time>2021-02-23T09:44:16.000Z</time>
      </trkpt>
      <trkpt lat="46.59887" lon="-1.79768">
        <ele>-135.80000305176</ele>
        <time>2021-02-23T09:44:17.000Z</time>
      </trkpt>
      <trkpt lat="46.59879" lon="-1.79776">
        <ele>-135.80000305176</ele>
        <time>2021-02-23T09:44:19.000Z</time>
      </trkpt>
      <trkpt lat="46.59876" lon="-1.7978">
        <ele>-135.80000305176</ele>
        <time>2021-02-23T09:44:20.000Z</time>
      </trkpt>
      <trkpt lat="46.59872" lon="-1.79784">
        <ele>-135.80000305176</ele>
        <time>2021-02-23T09:44:21.000Z</time>
      </trkpt>
      <trkpt lat="46.59864" lon="-1.79793">
        <ele>-135.80000305176</ele>
        <time>2021-02-23T09:44:23.000Z</time>
      </trkpt>
      <trkpt lat="46.5986" lon="-1.79797">
        <ele>-135.80000305176</ele>
        <time>2021-02-23T09:44:24.000Z</time>
      </trkpt>
      <trkpt lat="46.59857" lon="-1.79801">
        <ele>-135.60000610352</ele>
        <time>2021-02-23T09:44:25.000Z</time>
      </trkpt>
      <trkpt lat="46.5983" lon="-1.79831">
        <ele>-135.80000305176</ele>
        <time>2021-02-23T09:44:32.000Z</time>
      </trkpt>
      <trkpt lat="46.59826" lon="-1.79837">
        <ele>-135.80000305176</ele>
        <time>2021-02-23T09:44:33.000Z</time>
      </trkpt>
      <trkpt lat="46.59823" lon="-1.7984">
        <ele>-136</ele>
        <time>2021-02-23T09:44:34.000Z</time>
      </trkpt>
      <trkpt lat="46.59819" lon="-1.79843">
        <ele>-136</ele>
        <time>2021-02-23T09:44:35.000Z</time>
      </trkpt>
      <trkpt lat="46.59813" lon="-1.79843">
        <ele>-136.19999694824</ele>
        <time>2021-02-23T09:44:36.000Z</time>
      </trkpt>
      <trkpt lat="46.5981" lon="-1.79842">
        <ele>-136.19999694824</ele>
        <time>2021-02-23T09:44:37.000Z</time>
      </trkpt>
      <trkpt lat="46.59806" lon="-1.79837">
        <ele>-136.39999389648</ele>
        <time>2021-02-23T09:44:38.000Z</time>
      </trkpt>
      <trkpt lat="46.59803" lon="-1.79832">
        <ele>-136.39999389648</ele>
        <time>2021-02-23T09:44:39.000Z</time>
      </trkpt>
      <trkpt lat="46.598" lon="-1.79827">
        <ele>-136.39999389648</ele>
        <time>2021-02-23T09:44:40.000Z</time>
      </trkpt>
      <trkpt lat="46.59797" lon="-1.79822">
        <ele>-136.39999389648</ele>
        <time>2021-02-23T09:44:41.000Z</time>
      </trkpt>
      <trkpt lat="46.59794" lon="-1.79816">
        <ele>-136.60000610352</ele>
        <time>2021-02-23T09:44:42.000Z</time>
      </trkpt>
      <trkpt lat="46.59791" lon="-1.79809">
        <ele>-136.60000610352</ele>
        <time>2021-02-23T09:44:43.000Z</time>
      </trkpt>
      <trkpt lat="46.59789" lon="-1.79804">
        <ele>-136.60000610352</ele>
        <time>2021-02-23T09:44:44.000Z</time>
      </trkpt>
      <trkpt lat="46.59787" lon="-1.79798">
        <ele>-136.60000610352</ele>
        <time>2021-02-23T09:44:45.000Z</time>
      </trkpt>
      <trkpt lat="46.59784" lon="-1.79793">
        <ele>-136.60000610352</ele>
        <time>2021-02-23T09:44:46.000Z</time>
      </trkpt>
      <trkpt lat="46.59778" lon="-1.79781">
        <ele>-136.80000305176</ele>
        <time>2021-02-23T09:44:48.000Z</time>
      </trkpt>
      <trkpt lat="46.59776" lon="-1.79777">
        <ele>-136.80000305176</ele>
        <time>2021-02-23T09:44:49.000Z</time>
      </trkpt>
      <trkpt lat="46.59769" lon="-1.7976">
        <ele>-136.80000305176</ele>
        <time>2021-02-23T09:44:52.000Z</time>
      </trkpt>
      <trkpt lat="46.59767" lon="-1.79756">
        <ele>-136.80000305176</ele>
        <time>2021-02-23T09:44:53.000Z</time>
      </trkpt>
      <trkpt lat="46.59759" lon="-1.79739">
        <ele>-136.80000305176</ele>
        <time>2021-02-23T09:44:56.000Z</time>
      </trkpt>
      <trkpt lat="46.59751" lon="-1.79726">
        <ele>-136.80000305176</ele>
        <time>2021-02-23T09:44:59.000Z</time>
      </trkpt>
      <trkpt lat="46.59744" lon="-1.79714">
        <ele>-136.60000610352</ele>
        <time>2021-02-23T09:45:01.000Z</time>
      </trkpt>
      <trkpt lat="46.59736" lon="-1.797">
        <ele>-136.60000610352</ele>
        <time>2021-02-23T09:45:04.000Z</time>
      </trkpt>
      <trkpt lat="46.59733" lon="-1.79695">
        <ele>-136.39999389648</ele>
        <time>2021-02-23T09:45:05.000Z</time>
      </trkpt>
      <trkpt lat="46.59729" lon="-1.79688">
        <ele>-136.39999389648</ele>
        <time>2021-02-23T09:45:06.000Z</time>
      </trkpt>
      <trkpt lat="46.59726" lon="-1.79683">
        <ele>-136.39999389648</ele>
        <time>2021-02-23T09:45:07.000Z</time>
      </trkpt>
      <trkpt lat="46.59724" lon="-1.79679">
        <ele>-136.39999389648</ele>
        <time>2021-02-23T09:45:08.000Z</time>
      </trkpt>
      <trkpt lat="46.59702" lon="-1.79644">
        <ele>-136.39999389648</ele>
        <time>2021-02-23T09:45:15.000Z</time>
      </trkpt>
      <trkpt lat="46.59699" lon="-1.79638">
        <ele>-136.39999389648</ele>
        <time>2021-02-23T09:45:16.000Z</time>
      </trkpt>
      <trkpt lat="46.59693" lon="-1.79628">
        <ele>-136.39999389648</ele>
        <time>2021-02-23T09:45:18.000Z</time>
      </trkpt>
      <trkpt lat="46.5969" lon="-1.79623">
        <ele>-136.39999389648</ele>
        <time>2021-02-23T09:45:19.000Z</time>
      </trkpt>
      <trkpt lat="46.59687" lon="-1.79618">
        <ele>-136.60000610352</ele>
        <time>2021-02-23T09:45:20.000Z</time>
      </trkpt>
      <trkpt lat="46.59684" lon="-1.79613">
        <ele>-136.60000610352</ele>
        <time>2021-02-23T09:45:21.000Z</time>
      </trkpt>
      <trkpt lat="46.59681" lon="-1.79607">
        <ele>-136.60000610352</ele>
        <time>2021-02-23T09:45:22.000Z</time>
      </trkpt>
      <trkpt lat="46.59657" lon="-1.79564">
        <ele>-136.39999389648</ele>
        <time>2021-02-23T09:45:30.000Z</time>
      </trkpt>
      <trkpt lat="46.59655" lon="-1.79558">
        <ele>-136.39999389648</ele>
        <time>2021-02-23T09:45:31.000Z</time>
      </trkpt>
      <trkpt lat="46.59652" lon="-1.79552">
        <ele>-136.60000610352</ele>
        <time>2021-02-23T09:45:32.000Z</time>
      </trkpt>
      <trkpt lat="46.59649" lon="-1.79547">
        <ele>-136.60000610352</ele>
        <time>2021-02-23T09:45:33.000Z</time>
      </trkpt>
      <trkpt lat="46.59646" lon="-1.79541">
        <ele>-136.80000305176</ele>
        <time>2021-02-23T09:45:34.000Z</time>
      </trkpt>
      <trkpt lat="46.59644" lon="-1.79535">
        <ele>-136.80000305176</ele>
        <time>2021-02-23T09:45:35.000Z</time>
      </trkpt>
      <trkpt lat="46.59643" lon="-1.79531">
        <ele>-136.80000305176</ele>
        <time>2021-02-23T09:45:36.000Z</time>
      </trkpt>
      <trkpt lat="46.5964" lon="-1.79524">
        <ele>-136.80000305176</ele>
        <time>2021-02-23T09:45:37.000Z</time>
      </trkpt>
      <trkpt lat="46.59639" lon="-1.79519">
        <ele>-136.80000305176</ele>
        <time>2021-02-23T09:45:38.000Z</time>
      </trkpt>
      <trkpt lat="46.59637" lon="-1.79514">
        <ele>-136.80000305176</ele>
        <time>2021-02-23T09:45:39.000Z</time>
      </trkpt>
      <trkpt lat="46.59636" lon="-1.7951">
        <ele>-136.80000305176</ele>
        <time>2021-02-23T09:45:40.000Z</time>
      </trkpt>
      <trkpt lat="46.59634" lon="-1.79506">
        <ele>-136.80000305176</ele>
        <time>2021-02-23T09:45:41.000Z</time>
      </trkpt>
      <trkpt lat="46.59633" lon="-1.795">
        <ele>-136.80000305176</ele>
        <time>2021-02-23T09:45:42.000Z</time>
      </trkpt>
      <trkpt lat="46.59632" lon="-1.79495">
        <ele>-136.80000305176</ele>
        <time>2021-02-23T09:45:43.000Z</time>
      </trkpt>
      <trkpt lat="46.59633" lon="-1.7949">
        <ele>-136.60000610352</ele>
        <time>2021-02-23T09:45:44.000Z</time>
      </trkpt>
      <trkpt lat="46.59634" lon="-1.79485">
        <ele>-136.60000610352</ele>
        <time>2021-02-23T09:45:45.000Z</time>
      </trkpt>
      <trkpt lat="46.59635" lon="-1.79479">
        <ele>-136.60000610352</ele>
        <time>2021-02-23T09:45:46.000Z</time>
      </trkpt>
      <trkpt lat="46.59638" lon="-1.79467">
        <ele>-136.60000610352</ele>
        <time>2021-02-23T09:45:48.000Z</time>
      </trkpt>
      <trkpt lat="46.59642" lon="-1.79456">
        <ele>-136.60000610352</ele>
        <time>2021-02-23T09:45:50.000Z</time>
      </trkpt>
      <trkpt lat="46.59647" lon="-1.79446">
        <ele>-136.60000610352</ele>
        <time>2021-02-23T09:45:52.000Z</time>
      </trkpt>
      <trkpt lat="46.59651" lon="-1.79437">
        <ele>-136.60000610352</ele>
        <time>2021-02-23T09:45:54.000Z</time>
      </trkpt>
      <trkpt lat="46.59657" lon="-1.79427">
        <ele>-136.39999389648</ele>
        <time>2021-02-23T09:45:56.000Z</time>
      </trkpt>
      <trkpt lat="46.59667" lon="-1.79413">
        <ele>-136.19999694824</ele>
        <time>2021-02-23T09:45:59.000Z</time>
      </trkpt>
      <trkpt lat="46.59673" lon="-1.79402">
        <ele>-136</ele>
        <time>2021-02-23T09:46:01.000Z</time>
      </trkpt>
      <trkpt lat="46.59679" lon="-1.79392">
        <ele>-135.80000305176</ele>
        <time>2021-02-23T09:46:03.000Z</time>
      </trkpt>
      <trkpt lat="46.59686" lon="-1.7938">
        <ele>-135.39999389648</ele>
        <time>2021-02-23T09:46:05.000Z</time>
      </trkpt>
      <trkpt lat="46.59698" lon="-1.79357">
        <ele>-135.19999694824</ele>
        <time>2021-02-23T09:46:09.000Z</time>
      </trkpt>
      <trkpt lat="46.59708" lon="-1.79342">
        <ele>-135.19999694824</ele>
        <time>2021-02-23T09:46:12.000Z</time>
      </trkpt>
      <trkpt lat="46.59734" lon="-1.793">
        <ele>-134.80000305176</ele>
        <time>2021-02-23T09:46:19.000Z</time>
      </trkpt>
      <trkpt lat="46.59737" lon="-1.79294">
        <ele>-134.80000305176</ele>
        <time>2021-02-23T09:46:20.000Z</time>
      </trkpt>
      <trkpt lat="46.5974" lon="-1.79289">
        <ele>-134.80000305176</ele>
        <time>2021-02-23T09:46:21.000Z</time>
      </trkpt>
      <trkpt lat="46.59743" lon="-1.79284">
        <ele>-134.80000305176</ele>
        <time>2021-02-23T09:46:22.000Z</time>
      </trkpt>
      <trkpt lat="46.59747" lon="-1.79278">
        <ele>-134.60000610352</ele>
        <time>2021-02-23T09:46:23.000Z</time>
      </trkpt>
      <trkpt lat="46.5975" lon="-1.79272">
        <ele>-134.60000610352</ele>
        <time>2021-02-23T09:46:24.000Z</time>
      </trkpt>
      <trkpt lat="46.59752" lon="-1.79267">
        <ele>-134.60000610352</ele>
        <time>2021-02-23T09:46:25.000Z</time>
      </trkpt>
      <trkpt lat="46.59755" lon="-1.79262">
        <ele>-134.60000610352</ele>
        <time>2021-02-23T09:46:26.000Z</time>
      </trkpt>
      <trkpt lat="46.59757" lon="-1.79257">
        <ele>-134.60000610352</ele>
        <time>2021-02-23T09:46:27.000Z</time>
      </trkpt>
      <trkpt lat="46.59759" lon="-1.79251">
        <ele>-134.60000610352</ele>
        <time>2021-02-23T09:46:28.000Z</time>
      </trkpt>
      <trkpt lat="46.59764" lon="-1.79221">
        <ele>-134.60000610352</ele>
        <time>2021-02-23T09:46:33.000Z</time>
      </trkpt>
      <trkpt lat="46.59766" lon="-1.79215">
        <ele>-134.60000610352</ele>
        <time>2021-02-23T09:46:34.000Z</time>
      </trkpt>
      <trkpt lat="46.59768" lon="-1.79209">
        <ele>-134.39999389648</ele>
        <time>2021-02-23T09:46:35.000Z</time>
      </trkpt>
      <trkpt lat="46.59769" lon="-1.79204">
        <ele>-134.39999389648</ele>
        <time>2021-02-23T09:46:36.000Z</time>
      </trkpt>
      <trkpt lat="46.59771" lon="-1.79197">
        <ele>-134.39999389648</ele>
        <time>2021-02-23T09:46:37.000Z</time>
      </trkpt>
      <trkpt lat="46.59775" lon="-1.7918">
        <ele>-134</ele>
        <time>2021-02-23T09:46:40.000Z</time>
      </trkpt>
      <trkpt lat="46.59777" lon="-1.79175">
        <ele>-134</ele>
        <time>2021-02-23T09:46:41.000Z</time>
      </trkpt>
      <trkpt lat="46.59779" lon="-1.79168">
        <ele>-133.80000305176</ele>
        <time>2021-02-23T09:46:42.000Z</time>
      </trkpt>
      <trkpt lat="46.5978" lon="-1.79162">
        <ele>-133.60000610352</ele>
        <time>2021-02-23T09:46:43.000Z</time>
      </trkpt>
      <trkpt lat="46.59791" lon="-1.79127">
        <ele>-133</ele>
        <time>2021-02-23T09:46:49.000Z</time>
      </trkpt>
      <trkpt lat="46.59793" lon="-1.79122">
        <ele>-132.80000305176</ele>
        <time>2021-02-23T09:46:50.000Z</time>
      </trkpt>
      <trkpt lat="46.59795" lon="-1.79117">
        <ele>-132.60000610352</ele>
        <time>2021-02-23T09:46:51.000Z</time>
      </trkpt>
      <trkpt lat="46.5981" lon="-1.79077">
        <ele>-132</ele>
        <time>2021-02-23T09:46:58.000Z</time>
      </trkpt>
      <trkpt lat="46.59822" lon="-1.79049">
        <ele>-131.60000610352</ele>
        <time>2021-02-23T09:47:03.000Z</time>
      </trkpt>
      <trkpt lat="46.59824" lon="-1.79044">
        <ele>-131.39999389648</ele>
        <time>2021-02-23T09:47:04.000Z</time>
      </trkpt>
      <trkpt lat="46.59828" lon="-1.79033">
        <ele>-131.19999694824</ele>
        <time>2021-02-23T09:47:06.000Z</time>
      </trkpt>
      <trkpt lat="46.59844" lon="-1.78992">
        <ele>-131</ele>
        <time>2021-02-23T09:47:13.000Z</time>
      </trkpt>
      <trkpt lat="46.59848" lon="-1.7898">
        <ele>-131</ele>
        <time>2021-02-23T09:47:15.000Z</time>
      </trkpt>
      <trkpt lat="46.5985" lon="-1.78974">
        <ele>-131</ele>
        <time>2021-02-23T09:47:16.000Z</time>
      </trkpt>
      <trkpt lat="46.59853" lon="-1.78969">
        <ele>-130.80000305176</ele>
        <time>2021-02-23T09:47:17.000Z</time>
      </trkpt>
      <trkpt lat="46.59859" lon="-1.78952">
        <ele>-130.80000305176</ele>
        <time>2021-02-23T09:47:20.000Z</time>
      </trkpt>
      <trkpt lat="46.59864" lon="-1.78935">
        <ele>-130.60000610352</ele>
        <time>2021-02-23T09:47:23.000Z</time>
      </trkpt>
      <trkpt lat="46.59866" lon="-1.78929">
        <ele>-130.60000610352</ele>
        <time>2021-02-23T09:47:24.000Z</time>
      </trkpt>
      <trkpt lat="46.5987" lon="-1.78919">
        <ele>-130.60000610352</ele>
        <time>2021-02-23T09:47:26.000Z</time>
      </trkpt>
      <trkpt lat="46.5988" lon="-1.78881">
        <ele>-130.19999694824</ele>
        <time>2021-02-23T09:47:32.000Z</time>
      </trkpt>
      <trkpt lat="46.59889" lon="-1.7884">
        <ele>-129.39999389648</ele>
        <time>2021-02-23T09:47:38.000Z</time>
      </trkpt>
      <trkpt lat="46.59893" lon="-1.78822">
        <ele>-129.19999694824</ele>
        <time>2021-02-23T09:47:41.000Z</time>
      </trkpt>
      <trkpt lat="46.59895" lon="-1.78813">
        <ele>-129.19999694824</ele>
        <time>2021-02-23T09:47:42.000Z</time>
      </trkpt>
      <trkpt lat="46.59901" lon="-1.78787">
        <ele>-129.19999694824</ele>
        <time>2021-02-23T09:47:46.000Z</time>
      </trkpt>
      <trkpt lat="46.59903" lon="-1.78773">
        <ele>-129.19999694824</ele>
        <time>2021-02-23T09:47:48.000Z</time>
      </trkpt>
      <trkpt lat="46.59917" lon="-1.78699">
        <ele>-128.60000610352</ele>
        <time>2021-02-23T09:47:59.000Z</time>
      </trkpt>
      <trkpt lat="46.59925" lon="-1.78663">
        <ele>-128.39999389648</ele>
        <time>2021-02-23T09:48:04.000Z</time>
      </trkpt>
      <trkpt lat="46.59926" lon="-1.78656">
        <ele>-128.39999389648</ele>
        <time>2021-02-23T09:48:05.000Z</time>
      </trkpt>
      <trkpt lat="46.59929" lon="-1.78644">
        <ele>-128.39999389648</ele>
        <time>2021-02-23T09:48:07.000Z</time>
      </trkpt>
      <trkpt lat="46.5993" lon="-1.78637">
        <ele>-128.39999389648</ele>
        <time>2021-02-23T09:48:08.000Z</time>
      </trkpt>
      <trkpt lat="46.59932" lon="-1.78629">
        <ele>-128.39999389648</ele>
        <time>2021-02-23T09:48:09.000Z</time>
      </trkpt>
      <trkpt lat="46.59941" lon="-1.78581">
        <ele>-128</ele>
        <time>2021-02-23T09:48:16.000Z</time>
      </trkpt>
      <trkpt lat="46.59943" lon="-1.78573">
        <ele>-128</ele>
        <time>2021-02-23T09:48:17.000Z</time>
      </trkpt>
      <trkpt lat="46.59946" lon="-1.78559">
        <ele>-127.80000305176</ele>
        <time>2021-02-23T09:48:19.000Z</time>
      </trkpt>
      <trkpt lat="46.59948" lon="-1.78552">
        <ele>-127.80000305176</ele>
        <time>2021-02-23T09:48:20.000Z</time>
      </trkpt>
      <trkpt lat="46.59952" lon="-1.78533">
        <ele>-127.59999847412</ele>
        <time>2021-02-23T09:48:23.000Z</time>
      </trkpt>
      <trkpt lat="46.59953" lon="-1.78526">
        <ele>-127.59999847412</ele>
        <time>2021-02-23T09:48:24.000Z</time>
      </trkpt>
      <trkpt lat="46.59954" lon="-1.78519">
        <ele>-127.59999847412</ele>
        <time>2021-02-23T09:48:25.000Z</time>
      </trkpt>
      <trkpt lat="46.59955" lon="-1.78513">
        <ele>-127.59999847412</ele>
        <time>2021-02-23T09:48:26.000Z</time>
      </trkpt>
      <trkpt lat="46.59964" lon="-1.78465">
        <ele>-127.59999847412</ele>
        <time>2021-02-23T09:48:33.000Z</time>
      </trkpt>
      <trkpt lat="46.59965" lon="-1.78458">
        <ele>-127.40000152588</ele>
        <time>2021-02-23T09:48:34.000Z</time>
      </trkpt>
      <trkpt lat="46.59967" lon="-1.78446">
        <ele>-127.19999694824</ele>
        <time>2021-02-23T09:48:36.000Z</time>
      </trkpt>
      <trkpt lat="46.59967" lon="-1.78431">
        <ele>-127.40000152588</ele>
        <time>2021-02-23T09:48:38.000Z</time>
      </trkpt>
      <trkpt lat="46.59967" lon="-1.78424">
        <ele>-127.40000152588</ele>
        <time>2021-02-23T09:48:39.000Z</time>
      </trkpt>
      <trkpt lat="46.59965" lon="-1.78417">
        <ele>-127.40000152588</ele>
        <time>2021-02-23T09:48:40.000Z</time>
      </trkpt>
      <trkpt lat="46.59963" lon="-1.7841">
        <ele>-127.40000152588</ele>
        <time>2021-02-23T09:48:41.000Z</time>
      </trkpt>
      <trkpt lat="46.59959" lon="-1.78395">
        <ele>-127.40000152588</ele>
        <time>2021-02-23T09:48:43.000Z</time>
      </trkpt>
      <trkpt lat="46.59957" lon="-1.7839">
        <ele>-127.40000152588</ele>
        <time>2021-02-23T09:48:44.000Z</time>
      </trkpt>
      <trkpt lat="46.59936" lon="-1.78336">
        <ele>-127.59999847412</ele>
        <time>2021-02-23T09:48:52.000Z</time>
      </trkpt>
      <trkpt lat="46.59934" lon="-1.78331">
        <ele>-127.59999847412</ele>
        <time>2021-02-23T09:48:53.000Z</time>
      </trkpt>
      <trkpt lat="46.59929" lon="-1.78317">
        <ele>-127.59999847412</ele>
        <time>2021-02-23T09:48:55.000Z</time>
      </trkpt>
      <trkpt lat="46.59912" lon="-1.78274">
        <ele>-127.40000152588</ele>
        <time>2021-02-23T09:49:02.000Z</time>
      </trkpt>
      <trkpt lat="46.5989" lon="-1.78222">
        <ele>-127.80000305176</ele>
        <time>2021-02-23T09:49:10.000Z</time>
      </trkpt>
      <trkpt lat="46.59876" lon="-1.78189">
        <ele>-128.19999694824</ele>
        <time>2021-02-23T09:49:15.000Z</time>
      </trkpt>
      <trkpt lat="46.59874" lon="-1.78184">
        <ele>-128.19999694824</ele>
        <time>2021-02-23T09:49:16.000Z</time>
      </trkpt>
      <trkpt lat="46.59871" lon="-1.78177">
        <ele>-128.19999694824</ele>
        <time>2021-02-23T09:49:17.000Z</time>
      </trkpt>
      <trkpt lat="46.59868" lon="-1.78169">
        <ele>-128.39999389648</ele>
        <time>2021-02-23T09:49:18.000Z</time>
      </trkpt>
      <trkpt lat="46.59866" lon="-1.78162">
        <ele>-128.39999389648</ele>
        <time>2021-02-23T09:49:19.000Z</time>
      </trkpt>
      <trkpt lat="46.59864" lon="-1.78155">
        <ele>-128.39999389648</ele>
        <time>2021-02-23T09:49:20.000Z</time>
      </trkpt>
      <trkpt lat="46.59863" lon="-1.7815">
        <ele>-128.39999389648</ele>
        <time>2021-02-23T09:49:21.000Z</time>
      </trkpt>
      <trkpt lat="46.5986" lon="-1.78143">
        <ele>-128.39999389648</ele>
        <time>2021-02-23T09:49:22.000Z</time>
      </trkpt>
      <trkpt lat="46.59858" lon="-1.78136">
        <ele>-128.39999389648</ele>
        <time>2021-02-23T09:49:23.000Z</time>
      </trkpt>
      <trkpt lat="46.59856" lon="-1.78129">
        <ele>-128.60000610352</ele>
        <time>2021-02-23T09:49:24.000Z</time>
      </trkpt>
      <trkpt lat="46.59853" lon="-1.78123">
        <ele>-128.60000610352</ele>
        <time>2021-02-23T09:49:25.000Z</time>
      </trkpt>
      <trkpt lat="46.59851" lon="-1.78121">
        <ele>-128.60000610352</ele>
        <time>2021-02-23T09:49:26.000Z</time>
      </trkpt>
      <trkpt lat="46.59847" lon="-1.78119">
        <ele>-128.80000305176</ele>
        <time>2021-02-23T09:49:27.000Z</time>
      </trkpt>
      <trkpt lat="46.59838" lon="-1.78124">
        <ele>-128.80000305176</ele>
        <time>2021-02-23T09:49:29.000Z</time>
      </trkpt>
      <trkpt lat="46.59833" lon="-1.78126">
        <ele>-128.80000305176</ele>
        <time>2021-02-23T09:49:30.000Z</time>
      </trkpt>
      <trkpt lat="46.5983" lon="-1.78129">
        <ele>-129</ele>
        <time>2021-02-23T09:49:31.000Z</time>
      </trkpt>
      <trkpt lat="46.59803" lon="-1.78143">
        <ele>-129.39999389648</ele>
        <time>2021-02-23T09:49:36.000Z</time>
      </trkpt>
      <trkpt lat="46.59793" lon="-1.78149">
        <ele>-129.39999389648</ele>
        <time>2021-02-23T09:49:38.000Z</time>
      </trkpt>
      <trkpt lat="46.5976" lon="-1.78165">
        <ele>-129.60000610352</ele>
        <time>2021-02-23T09:49:44.000Z</time>
      </trkpt>
      <trkpt lat="46.59754" lon="-1.78168">
        <ele>-129.80000305176</ele>
        <time>2021-02-23T09:49:45.000Z</time>
      </trkpt>
      <trkpt lat="46.59747" lon="-1.78171">
        <ele>-129.80000305176</ele>
        <time>2021-02-23T09:49:46.000Z</time>
      </trkpt>
      <trkpt lat="46.59742" lon="-1.78174">
        <ele>-130</ele>
        <time>2021-02-23T09:49:47.000Z</time>
      </trkpt>
      <trkpt lat="46.59737" lon="-1.78176">
        <ele>-130</ele>
        <time>2021-02-23T09:49:48.000Z</time>
      </trkpt>
      <trkpt lat="46.59732" lon="-1.78178">
        <ele>-130</ele>
        <time>2021-02-23T09:49:49.000Z</time>
      </trkpt>
      <trkpt lat="46.59705" lon="-1.78191">
        <ele>-130</ele>
        <time>2021-02-23T09:49:54.000Z</time>
      </trkpt>
      <trkpt lat="46.59683" lon="-1.78202">
        <ele>-130.39999389648</ele>
        <time>2021-02-23T09:49:58.000Z</time>
      </trkpt>
      <trkpt lat="46.59668" lon="-1.78218">
        <ele>-130.39999389648</ele>
        <time>2021-02-23T09:50:01.000Z</time>
      </trkpt>
      <trkpt lat="46.59665" lon="-1.78225">
        <ele>-130.60000610352</ele>
        <time>2021-02-23T09:50:02.000Z</time>
      </trkpt>
      <trkpt lat="46.59663" lon="-1.78232">
        <ele>-130.39999389648</ele>
        <time>2021-02-23T09:50:03.000Z</time>
      </trkpt>
      <trkpt lat="46.5966" lon="-1.78238">
        <ele>-130.60000610352</ele>
        <time>2021-02-23T09:50:04.000Z</time>
      </trkpt>
      <trkpt lat="46.59656" lon="-1.78242">
        <ele>-130.80000305176</ele>
        <time>2021-02-23T09:50:05.000Z</time>
      </trkpt>
      <trkpt lat="46.59652" lon="-1.78244">
        <ele>-131</ele>
        <time>2021-02-23T09:50:06.000Z</time>
      </trkpt>
      <trkpt lat="46.59648" lon="-1.78247">
        <ele>-130.80000305176</ele>
        <time>2021-02-23T09:50:07.000Z</time>
      </trkpt>
      <trkpt lat="46.59643" lon="-1.7825">
        <ele>-131</ele>
        <time>2021-02-23T09:50:08.000Z</time>
      </trkpt>
      <trkpt lat="46.59634" lon="-1.78255">
        <ele>-131.19999694824</ele>
        <time>2021-02-23T09:50:10.000Z</time>
      </trkpt>
      <trkpt lat="46.5963" lon="-1.78256">
        <ele>-131.19999694824</ele>
        <time>2021-02-23T09:50:11.000Z</time>
      </trkpt>
      <trkpt lat="46.59625" lon="-1.78258">
        <ele>-131.19999694824</ele>
        <time>2021-02-23T09:50:12.000Z</time>
      </trkpt>
      <trkpt lat="46.59618" lon="-1.7826">
        <ele>-131.19999694824</ele>
        <time>2021-02-23T09:50:13.000Z</time>
      </trkpt>
      <trkpt lat="46.59608" lon="-1.78263">
        <ele>-131.60000610352</ele>
        <time>2021-02-23T09:50:15.000Z</time>
      </trkpt>
      <trkpt lat="46.59592" lon="-1.78268">
        <ele>-132.19999694824</ele>
        <time>2021-02-23T09:50:18.000Z</time>
      </trkpt>
      <trkpt lat="46.59586" lon="-1.78269">
        <ele>-132.39999389648</ele>
        <time>2021-02-23T09:50:19.000Z</time>
      </trkpt>
      <trkpt lat="46.59576" lon="-1.78271">
        <ele>-132.60000610352</ele>
        <time>2021-02-23T09:50:21.000Z</time>
      </trkpt>
      <trkpt lat="46.5957" lon="-1.78273">
        <ele>-133</ele>
        <time>2021-02-23T09:50:22.000Z</time>
      </trkpt>
      <trkpt lat="46.59566" lon="-1.78274">
        <ele>-133.19999694824</ele>
        <time>2021-02-23T09:50:23.000Z</time>
      </trkpt>
      <trkpt lat="46.59562" lon="-1.78275">
        <ele>-133.80000305176</ele>
        <time>2021-02-23T09:50:24.000Z</time>
      </trkpt>
      <trkpt lat="46.59556" lon="-1.78275">
        <ele>-134.60000610352</ele>
        <time>2021-02-23T09:50:26.000Z</time>
      </trkpt>
      <trkpt lat="46.59548" lon="-1.78275">
        <ele>-135</ele>
        <time>2021-02-23T09:50:28.000Z</time>
      </trkpt>
      <trkpt lat="46.59533" lon="-1.78275">
        <ele>-136.19999694824</ele>
        <time>2021-02-23T09:50:31.000Z</time>
      </trkpt>
      <trkpt lat="46.59528" lon="-1.78273">
        <ele>-136.39999389648</ele>
        <time>2021-02-23T09:50:32.000Z</time>
      </trkpt>
      <trkpt lat="46.59525" lon="-1.78271">
        <ele>-137</ele>
        <time>2021-02-23T09:50:33.000Z</time>
      </trkpt>
      <trkpt lat="46.59523" lon="-1.7827">
        <ele>-137.60000610352</ele>
        <time>2021-02-23T09:50:34.000Z</time>
      </trkpt>
      <trkpt lat="46.59523" lon="-1.78269">
        <ele>-137.80000305176</ele>
        <time>2021-02-23T09:50:35.000Z</time>
      </trkpt>
      <trkpt lat="46.59518" lon="-1.7827">
        <ele>-140.80000305176</ele>
        <time>2021-02-23T09:50:46.000Z</time>
      </trkpt>
      <trkpt lat="46.59515" lon="-1.78271">
        <ele>-140.80000305176</ele>
        <time>2021-02-23T09:50:47.000Z</time>
      </trkpt>
      <trkpt lat="46.59512" lon="-1.78272">
        <ele>-141</ele>
        <time>2021-02-23T09:50:48.000Z</time>
      </trkpt>
      <trkpt lat="46.59496" lon="-1.78275">
        <ele>-141.80000305176</ele>
        <time>2021-02-23T09:50:52.000Z</time>
      </trkpt>
      <trkpt lat="46.59489" lon="-1.78277">
        <ele>-142.80000305176</ele>
        <time>2021-02-23T09:50:54.000Z</time>
      </trkpt>
      <trkpt lat="46.59486" lon="-1.78277">
        <ele>-143.80000305176</ele>
        <time>2021-02-23T09:50:55.000Z</time>
      </trkpt>
      <trkpt lat="46.59481" lon="-1.78279">
        <ele>-144.19999694824</ele>
        <time>2021-02-23T09:50:56.000Z</time>
      </trkpt>
      <trkpt lat="46.59478" lon="-1.7828">
        <ele>-145</ele>
        <time>2021-02-23T09:50:57.000Z</time>
      </trkpt>
      <trkpt lat="46.59468" lon="-1.78283">
        <ele>-146.19999694824</ele>
        <time>2021-02-23T09:50:59.000Z</time>
      </trkpt>
      <trkpt lat="46.59464" lon="-1.78285">
        <ele>-147.19999694824</ele>
        <time>2021-02-23T09:51:00.000Z</time>
      </trkpt>
      <trkpt lat="46.59459" lon="-1.78288">
        <ele>-147.60000610352</ele>
        <time>2021-02-23T09:51:01.000Z</time>
      </trkpt>
      <trkpt lat="46.59455" lon="-1.78292">
        <ele>-149</ele>
        <time>2021-02-23T09:51:02.000Z</time>
      </trkpt>
      <trkpt lat="46.59451" lon="-1.78298">
        <ele>-149.80000305176</ele>
        <time>2021-02-23T09:51:03.000Z</time>
      </trkpt>
      <trkpt lat="46.59447" lon="-1.78306">
        <ele>-151</ele>
        <time>2021-02-23T09:51:04.000Z</time>
      </trkpt>
      <trkpt lat="46.59443" lon="-1.78313">
        <ele>-151.80000305176</ele>
        <time>2021-02-23T09:51:05.000Z</time>
      </trkpt>
      <trkpt lat="46.59438" lon="-1.7832">
        <ele>-152.60000610352</ele>
        <time>2021-02-23T09:51:06.000Z</time>
      </trkpt>
      <trkpt lat="46.59428" lon="-1.78335">
        <ele>-154</ele>
        <time>2021-02-23T09:51:08.000Z</time>
      </trkpt>
      <trkpt lat="46.59423" lon="-1.78342">
        <ele>-155.80000305176</ele>
        <time>2021-02-23T09:51:09.000Z</time>
      </trkpt>
      <trkpt lat="46.59418" lon="-1.78349">
        <ele>-156.39999389648</ele>
        <time>2021-02-23T09:51:10.000Z</time>
      </trkpt>
      <trkpt lat="46.59413" lon="-1.78355">
        <ele>-157.60000610352</ele>
        <time>2021-02-23T09:51:11.000Z</time>
      </trkpt>
      <trkpt lat="46.59409" lon="-1.7836">
        <ele>-158.19999694824</ele>
        <time>2021-02-23T09:51:12.000Z</time>
      </trkpt>
      <trkpt lat="46.59404" lon="-1.78366">
        <ele>-159</ele>
        <time>2021-02-23T09:51:13.000Z</time>
      </trkpt>
      <trkpt lat="46.59399" lon="-1.78371">
        <ele>-159.60000610352</ele>
        <time>2021-02-23T09:51:14.000Z</time>
      </trkpt>
      <trkpt lat="46.59393" lon="-1.78381">
        <ele>-160.19999694824</ele>
        <time>2021-02-23T09:51:16.000Z</time>
      </trkpt>
      <trkpt lat="46.59384" lon="-1.78392">
        <ele>-160.39999389648</ele>
        <time>2021-02-23T09:51:18.000Z</time>
      </trkpt>
      <trkpt lat="46.59381" lon="-1.78397">
        <ele>-160.39999389648</ele>
        <time>2021-02-23T09:51:19.000Z</time>
      </trkpt>
      <trkpt lat="46.59377" lon="-1.78402">
        <ele>-160.80000305176</ele>
        <time>2021-02-23T09:51:20.000Z</time>
      </trkpt>
      <trkpt lat="46.59374" lon="-1.78405">
        <ele>-161</ele>
        <time>2021-02-23T09:51:21.000Z</time>
      </trkpt>
      <trkpt lat="46.59371" lon="-1.78409">
        <ele>-161</ele>
        <time>2021-02-23T09:51:22.000Z</time>
      </trkpt>
      <trkpt lat="46.59366" lon="-1.78415">
        <ele>-160.80000305176</ele>
        <time>2021-02-23T09:51:23.000Z</time>
      </trkpt>
      <trkpt lat="46.59363" lon="-1.78419">
        <ele>-161</ele>
        <time>2021-02-23T09:51:24.000Z</time>
      </trkpt>
      <trkpt lat="46.59358" lon="-1.78426">
        <ele>-160.60000610352</ele>
        <time>2021-02-23T09:51:26.000Z</time>
      </trkpt>
      <trkpt lat="46.59355" lon="-1.78431">
        <ele>-160.60000610352</ele>
        <time>2021-02-23T09:51:27.000Z</time>
      </trkpt>
      <trkpt lat="46.59349" lon="-1.78441">
        <ele>-160.80000305176</ele>
        <time>2021-02-23T09:51:29.000Z</time>
      </trkpt>
      <trkpt lat="46.59344" lon="-1.7845">
        <ele>-160.39999389648</ele>
        <time>2021-02-23T09:51:31.000Z</time>
      </trkpt>
      <trkpt lat="46.59342" lon="-1.78455">
        <ele>-160.19999694824</ele>
        <time>2021-02-23T09:51:32.000Z</time>
      </trkpt>
      <trkpt lat="46.5934" lon="-1.78459">
        <ele>-160</ele>
        <time>2021-02-23T09:51:33.000Z</time>
      </trkpt>
      <trkpt lat="46.5934" lon="-1.78462">
        <ele>-159.80000305176</ele>
        <time>2021-02-23T09:51:34.000Z</time>
      </trkpt>
      <trkpt lat="46.59339" lon="-1.78465">
        <ele>-159.39999389648</ele>
        <time>2021-02-23T09:51:35.000Z</time>
      </trkpt>
      <trkpt lat="46.59339" lon="-1.78468">
        <ele>-159.39999389648</ele>
        <time>2021-02-23T09:51:36.000Z</time>
      </trkpt>
      <trkpt lat="46.59338" lon="-1.78471">
        <ele>-159</ele>
        <time>2021-02-23T09:51:37.000Z</time>
      </trkpt>
      <trkpt lat="46.59337" lon="-1.78474">
        <ele>-158.60000610352</ele>
        <time>2021-02-23T09:51:38.000Z</time>
      </trkpt>
      <trkpt lat="46.59337" lon="-1.78475">
        <ele>-158.19999694824</ele>
        <time>2021-02-23T09:51:39.000Z</time>
      </trkpt>
      <trkpt lat="46.59337" lon="-1.78476">
        <ele>-157.80000305176</ele>
        <time>2021-02-23T09:51:40.000Z</time>
      </trkpt>
      <trkpt lat="46.59337" lon="-1.78475">
        <ele>-157.80000305176</ele>
        <time>2021-02-23T09:51:41.000Z</time>
      </trkpt>
      <trkpt lat="46.59336" lon="-1.78476">
        <ele>-157.60000610352</ele>
        <time>2021-02-23T09:51:42.000Z</time>
      </trkpt>
      <trkpt lat="46.59336" lon="-1.78476">
        <ele>-157.60000610352</ele>
        <time>2021-02-23T09:51:43.000Z</time>
      </trkpt>
      <trkpt lat="46.59336" lon="-1.78476">
        <ele>-157.60000610352</ele>
        <time>2021-02-23T09:51:44.000Z</time>
      </trkpt>
      <trkpt lat="46.59337" lon="-1.78477">
        <ele>-157.60000610352</ele>
        <time>2021-02-23T09:51:45.000Z</time>
      </trkpt>
      <trkpt lat="46.59337" lon="-1.78479">
        <ele>-157.60000610352</ele>
        <time>2021-02-23T09:51:46.000Z</time>
      </trkpt>
      <trkpt lat="46.59336" lon="-1.78482">
        <ele>-157.39999389648</ele>
        <time>2021-02-23T09:51:47.000Z</time>
      </trkpt>
      <trkpt lat="46.59331" lon="-1.78491">
        <ele>-157.39999389648</ele>
        <time>2021-02-23T09:51:50.000Z</time>
      </trkpt>
      <trkpt lat="46.59328" lon="-1.78496">
        <ele>-157.39999389648</ele>
        <time>2021-02-23T09:51:51.000Z</time>
      </trkpt>
      <trkpt lat="46.59326" lon="-1.78502">
        <ele>-157.60000610352</ele>
        <time>2021-02-23T09:51:52.000Z</time>
      </trkpt>
      <trkpt lat="46.59324" lon="-1.78507">
        <ele>-158</ele>
        <time>2021-02-23T09:51:53.000Z</time>
      </trkpt>
      <trkpt lat="46.59323" lon="-1.7851">
        <ele>-158.19999694824</ele>
        <time>2021-02-23T09:51:54.000Z</time>
      </trkpt>
      <trkpt lat="46.59317" lon="-1.78518">
        <ele>-158.19999694824</ele>
        <time>2021-02-23T09:51:56.000Z</time>
      </trkpt>
      <trkpt lat="46.59314" lon="-1.78521">
        <ele>-158.19999694824</ele>
        <time>2021-02-23T09:51:57.000Z</time>
      </trkpt>
      <trkpt lat="46.59311" lon="-1.78524">
        <ele>-158.39999389648</ele>
        <time>2021-02-23T09:51:58.000Z</time>
      </trkpt>
      <trkpt lat="46.59308" lon="-1.78528">
        <ele>-158.60000610352</ele>
        <time>2021-02-23T09:51:59.000Z</time>
      </trkpt>
      <trkpt lat="46.59302" lon="-1.78537">
        <ele>-158.80000305176</ele>
        <time>2021-02-23T09:52:01.000Z</time>
      </trkpt>
      <trkpt lat="46.59297" lon="-1.78544">
        <ele>-159</ele>
        <time>2021-02-23T09:52:03.000Z</time>
      </trkpt>
      <trkpt lat="46.59288" lon="-1.78552">
        <ele>-159</ele>
        <time>2021-02-23T09:52:05.000Z</time>
      </trkpt>
      <trkpt lat="46.59285" lon="-1.78555">
        <ele>-159</ele>
        <time>2021-02-23T09:52:06.000Z</time>
      </trkpt>
      <trkpt lat="46.59281" lon="-1.78558">
        <ele>-159</ele>
        <time>2021-02-23T09:52:07.000Z</time>
      </trkpt>
      <trkpt lat="46.59279" lon="-1.78561">
        <ele>-158.80000305176</ele>
        <time>2021-02-23T09:52:08.000Z</time>
      </trkpt>
      <trkpt lat="46.59275" lon="-1.78564">
        <ele>-158.80000305176</ele>
        <time>2021-02-23T09:52:09.000Z</time>
      </trkpt>
      <trkpt lat="46.59254" lon="-1.78583">
        <ele>-157.80000305176</ele>
        <time>2021-02-23T09:52:15.000Z</time>
      </trkpt>
      <trkpt lat="46.5925" lon="-1.78587">
        <ele>-157.60000610352</ele>
        <time>2021-02-23T09:52:16.000Z</time>
      </trkpt>
      <trkpt lat="46.59247" lon="-1.7859">
        <ele>-157.39999389648</ele>
        <time>2021-02-23T09:52:17.000Z</time>
      </trkpt>
      <trkpt lat="46.59245" lon="-1.78592">
        <ele>-157.39999389648</ele>
        <time>2021-02-23T09:52:18.000Z</time>
      </trkpt>
      <trkpt lat="46.59241" lon="-1.78596">
        <ele>-157.39999389648</ele>
        <time>2021-02-23T09:52:19.000Z</time>
      </trkpt>
      <trkpt lat="46.59236" lon="-1.78601">
        <ele>-157.19999694824</ele>
        <time>2021-02-23T09:52:21.000Z</time>
      </trkpt>
      <trkpt lat="46.59224" lon="-1.78612">
        <ele>-156.80000305176</ele>
        <time>2021-02-23T09:52:25.000Z</time>
      </trkpt>
      <trkpt lat="46.59215" lon="-1.78621">
        <ele>-156.19999694824</ele>
        <time>2021-02-23T09:52:28.000Z</time>
      </trkpt>
      <trkpt lat="46.5921" lon="-1.78624">
        <ele>-156</ele>
        <time>2021-02-23T09:52:29.000Z</time>
      </trkpt>
      <trkpt lat="46.59203" lon="-1.7863">
        <ele>-155.80000305176</ele>
        <time>2021-02-23T09:52:31.000Z</time>
      </trkpt>
      <trkpt lat="46.592" lon="-1.78632">
        <ele>-155.80000305176</ele>
        <time>2021-02-23T09:52:32.000Z</time>
      </trkpt>
      <trkpt lat="46.59197" lon="-1.78634">
        <ele>-155.60000610352</ele>
        <time>2021-02-23T09:52:33.000Z</time>
      </trkpt>
      <trkpt lat="46.5919" lon="-1.7864">
        <ele>-155.39999389648</ele>
        <time>2021-02-23T09:52:35.000Z</time>
      </trkpt>
      <trkpt lat="46.59187" lon="-1.78643">
        <ele>-155.19999694824</ele>
        <time>2021-02-23T09:52:36.000Z</time>
      </trkpt>
      <trkpt lat="46.59184" lon="-1.78645">
        <ele>-155</ele>
        <time>2021-02-23T09:52:37.000Z</time>
      </trkpt>
      <trkpt lat="46.59181" lon="-1.78648">
        <ele>-154.80000305176</ele>
        <time>2021-02-23T09:52:38.000Z</time>
      </trkpt>
      <trkpt lat="46.59179" lon="-1.78651">
        <ele>-154.39999389648</ele>
        <time>2021-02-23T09:52:39.000Z</time>
      </trkpt>
      <trkpt lat="46.59175" lon="-1.78654">
        <ele>-154.19999694824</ele>
        <time>2021-02-23T09:52:40.000Z</time>
      </trkpt>
      <trkpt lat="46.59173" lon="-1.78655">
        <ele>-154</ele>
        <time>2021-02-23T09:52:41.000Z</time>
      </trkpt>
      <trkpt lat="46.5917" lon="-1.78657">
        <ele>-154</ele>
        <time>2021-02-23T09:52:42.000Z</time>
      </trkpt>
      <trkpt lat="46.59166" lon="-1.78661">
        <ele>-153.80000305176</ele>
        <time>2021-02-23T09:52:43.000Z</time>
      </trkpt>
      <trkpt lat="46.59163" lon="-1.78663">
        <ele>-153.60000610352</ele>
        <time>2021-02-23T09:52:44.000Z</time>
      </trkpt>
      <trkpt lat="46.5916" lon="-1.78665">
        <ele>-153.60000610352</ele>
        <time>2021-02-23T09:52:45.000Z</time>
      </trkpt>
      <trkpt lat="46.59156" lon="-1.78667">
        <ele>-153.39999389648</ele>
        <time>2021-02-23T09:52:46.000Z</time>
      </trkpt>
      <trkpt lat="46.59153" lon="-1.7867">
        <ele>-153.39999389648</ele>
        <time>2021-02-23T09:52:47.000Z</time>
      </trkpt>
      <trkpt lat="46.5915" lon="-1.78672">
        <ele>-153.19999694824</ele>
        <time>2021-02-23T09:52:48.000Z</time>
      </trkpt>
      <trkpt lat="46.59148" lon="-1.78674">
        <ele>-153.19999694824</ele>
        <time>2021-02-23T09:52:49.000Z</time>
      </trkpt>
      <trkpt lat="46.59145" lon="-1.78677">
        <ele>-153</ele>
        <time>2021-02-23T09:52:50.000Z</time>
      </trkpt>
      <trkpt lat="46.59143" lon="-1.78679">
        <ele>-152.80000305176</ele>
        <time>2021-02-23T09:52:51.000Z</time>
      </trkpt>
      <trkpt lat="46.5914" lon="-1.78681">
        <ele>-152.60000610352</ele>
        <time>2021-02-23T09:52:52.000Z</time>
      </trkpt>
      <trkpt lat="46.59137" lon="-1.78683">
        <ele>-152.39999389648</ele>
        <time>2021-02-23T09:52:53.000Z</time>
      </trkpt>
      <trkpt lat="46.59134" lon="-1.78685">
        <ele>-152.19999694824</ele>
        <time>2021-02-23T09:52:54.000Z</time>
      </trkpt>
      <trkpt lat="46.59132" lon="-1.78687">
        <ele>-151.80000305176</ele>
        <time>2021-02-23T09:52:55.000Z</time>
      </trkpt>
      <trkpt lat="46.5913" lon="-1.78689">
        <ele>-151.80000305176</ele>
        <time>2021-02-23T09:52:56.000Z</time>
      </trkpt>
      <trkpt lat="46.59127" lon="-1.78691">
        <ele>-151.39999389648</ele>
        <time>2021-02-23T09:52:57.000Z</time>
      </trkpt>
      <trkpt lat="46.59124" lon="-1.78693">
        <ele>-151.19999694824</ele>
        <time>2021-02-23T09:52:58.000Z</time>
      </trkpt>
      <trkpt lat="46.59121" lon="-1.78694">
        <ele>-151</ele>
        <time>2021-02-23T09:52:59.000Z</time>
      </trkpt>
      <trkpt lat="46.59118" lon="-1.78696">
        <ele>-151</ele>
        <time>2021-02-23T09:53:00.000Z</time>
      </trkpt>
      <trkpt lat="46.59115" lon="-1.78698">
        <ele>-151</ele>
        <time>2021-02-23T09:53:01.000Z</time>
      </trkpt>
      <trkpt lat="46.59112" lon="-1.78701">
        <ele>-150.80000305176</ele>
        <time>2021-02-23T09:53:02.000Z</time>
      </trkpt>
      <trkpt lat="46.59109" lon="-1.78703">
        <ele>-150.60000610352</ele>
        <time>2021-02-23T09:53:03.000Z</time>
      </trkpt>
      <trkpt lat="46.59106" lon="-1.78705">
        <ele>-150.60000610352</ele>
        <time>2021-02-23T09:53:04.000Z</time>
      </trkpt>
      <trkpt lat="46.59104" lon="-1.78707">
        <ele>-150.19999694824</ele>
        <time>2021-02-23T09:53:05.000Z</time>
      </trkpt>
      <trkpt lat="46.59101" lon="-1.78709">
        <ele>-150.19999694824</ele>
        <time>2021-02-23T09:53:06.000Z</time>
      </trkpt>
      <trkpt lat="46.59099" lon="-1.78711">
        <ele>-150</ele>
        <time>2021-02-23T09:53:07.000Z</time>
      </trkpt>
      <trkpt lat="46.59096" lon="-1.78713">
        <ele>-149.80000305176</ele>
        <time>2021-02-23T09:53:08.000Z</time>
      </trkpt>
      <trkpt lat="46.59093" lon="-1.78715">
        <ele>-149.60000610352</ele>
        <time>2021-02-23T09:53:09.000Z</time>
      </trkpt>
      <trkpt lat="46.59089" lon="-1.78717">
        <ele>-149.39999389648</ele>
        <time>2021-02-23T09:53:10.000Z</time>
      </trkpt>
      <trkpt lat="46.59086" lon="-1.78719">
        <ele>-149.19999694824</ele>
        <time>2021-02-23T09:53:11.000Z</time>
      </trkpt>
      <trkpt lat="46.59082" lon="-1.78722">
        <ele>-149</ele>
        <time>2021-02-23T09:53:12.000Z</time>
      </trkpt>
      <trkpt lat="46.59078" lon="-1.78725">
        <ele>-149</ele>
        <time>2021-02-23T09:53:13.000Z</time>
      </trkpt>
      <trkpt lat="46.59075" lon="-1.78727">
        <ele>-148.80000305176</ele>
        <time>2021-02-23T09:53:14.000Z</time>
      </trkpt>
      <trkpt lat="46.59072" lon="-1.78729">
        <ele>-148.60000610352</ele>
        <time>2021-02-23T09:53:15.000Z</time>
      </trkpt>
      <trkpt lat="46.59068" lon="-1.78731">
        <ele>-148.39999389648</ele>
        <time>2021-02-23T09:53:16.000Z</time>
      </trkpt>
      <trkpt lat="46.59065" lon="-1.78734">
        <ele>-148.19999694824</ele>
        <time>2021-02-23T09:53:17.000Z</time>
      </trkpt>
      <trkpt lat="46.59062" lon="-1.78735">
        <ele>-148.19999694824</ele>
        <time>2021-02-23T09:53:18.000Z</time>
      </trkpt>
      <trkpt lat="46.59058" lon="-1.78738">
        <ele>-148</ele>
        <time>2021-02-23T09:53:19.000Z</time>
      </trkpt>
      <trkpt lat="46.59054" lon="-1.78741">
        <ele>-148</ele>
        <time>2021-02-23T09:53:20.000Z</time>
      </trkpt>
      <trkpt lat="46.59051" lon="-1.78743">
        <ele>-147.80000305176</ele>
        <time>2021-02-23T09:53:21.000Z</time>
      </trkpt>
      <trkpt lat="46.59048" lon="-1.78745">
        <ele>-147.80000305176</ele>
        <time>2021-02-23T09:53:22.000Z</time>
      </trkpt>
      <trkpt lat="46.59046" lon="-1.78746">
        <ele>-147.60000610352</ele>
        <time>2021-02-23T09:53:23.000Z</time>
      </trkpt>
      <trkpt lat="46.59044" lon="-1.78749">
        <ele>-147.39999389648</ele>
        <time>2021-02-23T09:53:24.000Z</time>
      </trkpt>
      <trkpt lat="46.5904" lon="-1.78751">
        <ele>-147.19999694824</ele>
        <time>2021-02-23T09:53:25.000Z</time>
      </trkpt>
      <trkpt lat="46.59036" lon="-1.78753">
        <ele>-147.19999694824</ele>
        <time>2021-02-23T09:53:26.000Z</time>
      </trkpt>
      <trkpt lat="46.59033" lon="-1.78755">
        <ele>-147</ele>
        <time>2021-02-23T09:53:27.000Z</time>
      </trkpt>
      <trkpt lat="46.5903" lon="-1.78757">
        <ele>-147</ele>
        <time>2021-02-23T09:53:28.000Z</time>
      </trkpt>
      <trkpt lat="46.59027" lon="-1.78759">
        <ele>-146.80000305176</ele>
        <time>2021-02-23T09:53:29.000Z</time>
      </trkpt>
      <trkpt lat="46.59024" lon="-1.78761">
        <ele>-146.60000610352</ele>
        <time>2021-02-23T09:53:30.000Z</time>
      </trkpt>
      <trkpt lat="46.59021" lon="-1.78763">
        <ele>-146.39999389648</ele>
        <time>2021-02-23T09:53:31.000Z</time>
      </trkpt>
      <trkpt lat="46.59019" lon="-1.78765">
        <ele>-146.19999694824</ele>
        <time>2021-02-23T09:53:32.000Z</time>
      </trkpt>
      <trkpt lat="46.59016" lon="-1.78767">
        <ele>-146</ele>
        <time>2021-02-23T09:53:33.000Z</time>
      </trkpt>
      <trkpt lat="46.59013" lon="-1.78769">
        <ele>-146</ele>
        <time>2021-02-23T09:53:34.000Z</time>
      </trkpt>
      <trkpt lat="46.5901" lon="-1.78772">
        <ele>-146</ele>
        <time>2021-02-23T09:53:35.000Z</time>
      </trkpt>
      <trkpt lat="46.59006" lon="-1.78774">
        <ele>-145.80000305176</ele>
        <time>2021-02-23T09:53:36.000Z</time>
      </trkpt>
      <trkpt lat="46.59003" lon="-1.78776">
        <ele>-145.60000610352</ele>
        <time>2021-02-23T09:53:37.000Z</time>
      </trkpt>
      <trkpt lat="46.59" lon="-1.78779">
        <ele>-145.39999389648</ele>
        <time>2021-02-23T09:53:38.000Z</time>
      </trkpt>
      <trkpt lat="46.58997" lon="-1.78781">
        <ele>-145.39999389648</ele>
        <time>2021-02-23T09:53:39.000Z</time>
      </trkpt>
      <trkpt lat="46.58993" lon="-1.78783">
        <ele>-145.39999389648</ele>
        <time>2021-02-23T09:53:40.000Z</time>
      </trkpt>
      <trkpt lat="46.58991" lon="-1.78786">
        <ele>-145.39999389648</ele>
        <time>2021-02-23T09:53:41.000Z</time>
      </trkpt>
      <trkpt lat="46.58987" lon="-1.78789">
        <ele>-145.19999694824</ele>
        <time>2021-02-23T09:53:42.000Z</time>
      </trkpt>
      <trkpt lat="46.58983" lon="-1.78792">
        <ele>-145.19999694824</ele>
        <time>2021-02-23T09:53:43.000Z</time>
      </trkpt>
      <trkpt lat="46.58981" lon="-1.78795">
        <ele>-145.19999694824</ele>
        <time>2021-02-23T09:53:44.000Z</time>
      </trkpt>
      <trkpt lat="46.58977" lon="-1.78798">
        <ele>-145</ele>
        <time>2021-02-23T09:53:45.000Z</time>
      </trkpt>
      <trkpt lat="46.58974" lon="-1.788">
        <ele>-144.80000305176</ele>
        <time>2021-02-23T09:53:46.000Z</time>
      </trkpt>
      <trkpt lat="46.5897" lon="-1.78803">
        <ele>-144.60000610352</ele>
        <time>2021-02-23T09:53:47.000Z</time>
      </trkpt>
      <trkpt lat="46.58965" lon="-1.78808">
        <ele>-144.60000610352</ele>
        <time>2021-02-23T09:53:48.000Z</time>
      </trkpt>
      <trkpt lat="46.58962" lon="-1.78812">
        <ele>-144.39999389648</ele>
        <time>2021-02-23T09:53:49.000Z</time>
      </trkpt>
      <trkpt lat="46.58957" lon="-1.78815">
        <ele>-144.19999694824</ele>
        <time>2021-02-23T09:53:50.000Z</time>
      </trkpt>
      <trkpt lat="46.58951" lon="-1.78819">
        <ele>-144.19999694824</ele>
        <time>2021-02-23T09:53:51.000Z</time>
      </trkpt>
      <trkpt lat="46.58947" lon="-1.78823">
        <ele>-144</ele>
        <time>2021-02-23T09:53:52.000Z</time>
      </trkpt>
      <trkpt lat="46.58942" lon="-1.78827">
        <ele>-143.80000305176</ele>
        <time>2021-02-23T09:53:53.000Z</time>
      </trkpt>
      <trkpt lat="46.58938" lon="-1.7883">
        <ele>-143.80000305176</ele>
        <time>2021-02-23T09:53:54.000Z</time>
      </trkpt>
      <trkpt lat="46.58933" lon="-1.78833">
        <ele>-143.80000305176</ele>
        <time>2021-02-23T09:53:55.000Z</time>
      </trkpt>
      <trkpt lat="46.58929" lon="-1.78836">
        <ele>-143.80000305176</ele>
        <time>2021-02-23T09:53:56.000Z</time>
      </trkpt>
      <trkpt lat="46.58924" lon="-1.78838">
        <ele>-143.80000305176</ele>
        <time>2021-02-23T09:53:57.000Z</time>
      </trkpt>
      <trkpt lat="46.5892" lon="-1.78841">
        <ele>-143.80000305176</ele>
        <time>2021-02-23T09:53:58.000Z</time>
      </trkpt>
      <trkpt lat="46.58914" lon="-1.78845">
        <ele>-144</ele>
        <time>2021-02-23T09:53:59.000Z</time>
      </trkpt>
      <trkpt lat="46.58911" lon="-1.78847">
        <ele>-144</ele>
        <time>2021-02-23T09:54:00.000Z</time>
      </trkpt>
      <trkpt lat="46.58907" lon="-1.7885">
        <ele>-143.80000305176</ele>
        <time>2021-02-23T09:54:01.000Z</time>
      </trkpt>
      <trkpt lat="46.58901" lon="-1.78855">
        <ele>-143.80000305176</ele>
        <time>2021-02-23T09:54:02.000Z</time>
      </trkpt>
      <trkpt lat="46.58898" lon="-1.78858">
        <ele>-143.80000305176</ele>
        <time>2021-02-23T09:54:03.000Z</time>
      </trkpt>
      <trkpt lat="46.5889" lon="-1.78865">
        <ele>-143.80000305176</ele>
        <time>2021-02-23T09:54:05.000Z</time>
      </trkpt>
      <trkpt lat="46.5888" lon="-1.78872">
        <ele>-143.60000610352</ele>
        <time>2021-02-23T09:54:07.000Z</time>
      </trkpt>
      <trkpt lat="46.58876" lon="-1.78876">
        <ele>-143.60000610352</ele>
        <time>2021-02-23T09:54:08.000Z</time>
      </trkpt>
      <trkpt lat="46.58874" lon="-1.78878">
        <ele>-143.39999389648</ele>
        <time>2021-02-23T09:54:09.000Z</time>
      </trkpt>
      <trkpt lat="46.5887" lon="-1.78881">
        <ele>-143.39999389648</ele>
        <time>2021-02-23T09:54:10.000Z</time>
      </trkpt>
      <trkpt lat="46.58865" lon="-1.78885">
        <ele>-143.39999389648</ele>
        <time>2021-02-23T09:54:11.000Z</time>
      </trkpt>
      <trkpt lat="46.58861" lon="-1.78888">
        <ele>-143.19999694824</ele>
        <time>2021-02-23T09:54:12.000Z</time>
      </trkpt>
      <trkpt lat="46.58856" lon="-1.78893">
        <ele>-143.39999389648</ele>
        <time>2021-02-23T09:54:13.000Z</time>
      </trkpt>
      <trkpt lat="46.58853" lon="-1.78895">
        <ele>-143.19999694824</ele>
        <time>2021-02-23T09:54:14.000Z</time>
      </trkpt>
      <trkpt lat="46.5885" lon="-1.78898">
        <ele>-143.39999389648</ele>
        <time>2021-02-23T09:54:15.000Z</time>
      </trkpt>
      <trkpt lat="46.58846" lon="-1.78901">
        <ele>-143.39999389648</ele>
        <time>2021-02-23T09:54:16.000Z</time>
      </trkpt>
      <trkpt lat="46.58841" lon="-1.78906">
        <ele>-143.19999694824</ele>
        <time>2021-02-23T09:54:18.000Z</time>
      </trkpt>
      <trkpt lat="46.58838" lon="-1.78908">
        <ele>-143</ele>
        <time>2021-02-23T09:54:20.000Z</time>
      </trkpt>
      <trkpt lat="46.58831" lon="-1.78915">
        <ele>-143</ele>
        <time>2021-02-23T09:54:21.000Z</time>
      </trkpt>
      <trkpt lat="46.58827" lon="-1.78918">
        <ele>-143</ele>
        <time>2021-02-23T09:54:22.000Z</time>
      </trkpt>
      <trkpt lat="46.58825" lon="-1.7892">
        <ele>-143</ele>
        <time>2021-02-23T09:54:23.000Z</time>
      </trkpt>
      <trkpt lat="46.58823" lon="-1.78923">
        <ele>-142.80000305176</ele>
        <time>2021-02-23T09:54:24.000Z</time>
      </trkpt>
      <trkpt lat="46.58816" lon="-1.7893">
        <ele>-142.60000610352</ele>
        <time>2021-02-23T09:54:26.000Z</time>
      </trkpt>
      <trkpt lat="46.58808" lon="-1.78937">
        <ele>-142.39999389648</ele>
        <time>2021-02-23T09:54:28.000Z</time>
      </trkpt>
      <trkpt lat="46.58792" lon="-1.7895">
        <ele>-142.19999694824</ele>
        <time>2021-02-23T09:54:31.000Z</time>
      </trkpt>
      <trkpt lat="46.58788" lon="-1.78953">
        <ele>-142.19999694824</ele>
        <time>2021-02-23T09:54:32.000Z</time>
      </trkpt>
      <trkpt lat="46.5878" lon="-1.78959">
        <ele>-142</ele>
        <time>2021-02-23T09:54:34.000Z</time>
      </trkpt>
      <trkpt lat="46.5877" lon="-1.78971">
        <ele>-141.80000305176</ele>
        <time>2021-02-23T09:54:37.000Z</time>
      </trkpt>
      <trkpt lat="46.58764" lon="-1.78978">
        <ele>-141.60000610352</ele>
        <time>2021-02-23T09:54:39.000Z</time>
      </trkpt>
      <trkpt lat="46.58751" lon="-1.78989">
        <ele>-141</ele>
        <time>2021-02-23T09:54:42.000Z</time>
      </trkpt>
      <trkpt lat="46.58746" lon="-1.7899">
        <ele>-141</ele>
        <time>2021-02-23T09:54:43.000Z</time>
      </trkpt>
      <trkpt lat="46.58742" lon="-1.78992">
        <ele>-141</ele>
        <time>2021-02-23T09:54:44.000Z</time>
      </trkpt>
      <trkpt lat="46.58738" lon="-1.78993">
        <ele>-140.80000305176</ele>
        <time>2021-02-23T09:54:45.000Z</time>
      </trkpt>
      <trkpt lat="46.58733" lon="-1.78995">
        <ele>-140.80000305176</ele>
        <time>2021-02-23T09:54:46.000Z</time>
      </trkpt>
      <trkpt lat="46.58729" lon="-1.78996">
        <ele>-140.80000305176</ele>
        <time>2021-02-23T09:54:47.000Z</time>
      </trkpt>
      <trkpt lat="46.58714" lon="-1.78998">
        <ele>-140.39999389648</ele>
        <time>2021-02-23T09:54:50.000Z</time>
      </trkpt>
      <trkpt lat="46.58706" lon="-1.79">
        <ele>-140.39999389648</ele>
        <time>2021-02-23T09:54:52.000Z</time>
      </trkpt>
      <trkpt lat="46.58702" lon="-1.79001">
        <ele>-140.19999694824</ele>
        <time>2021-02-23T09:54:53.000Z</time>
      </trkpt>
      <trkpt lat="46.58698" lon="-1.79003">
        <ele>-140.19999694824</ele>
        <time>2021-02-23T09:54:54.000Z</time>
      </trkpt>
      <trkpt lat="46.58679" lon="-1.79007">
        <ele>-140</ele>
        <time>2021-02-23T09:54:58.000Z</time>
      </trkpt>
      <trkpt lat="46.58674" lon="-1.79009">
        <ele>-140</ele>
        <time>2021-02-23T09:54:59.000Z</time>
      </trkpt>
      <trkpt lat="46.58665" lon="-1.79011">
        <ele>-139.80000305176</ele>
        <time>2021-02-23T09:55:01.000Z</time>
      </trkpt>
      <trkpt lat="46.58643" lon="-1.79017">
        <ele>-139.39999389648</ele>
        <time>2021-02-23T09:55:06.000Z</time>
      </trkpt>
      <trkpt lat="46.58618" lon="-1.79022">
        <ele>-139.19999694824</ele>
        <time>2021-02-23T09:55:11.000Z</time>
      </trkpt>
      <trkpt lat="46.58608" lon="-1.79023">
        <ele>-139.19999694824</ele>
        <time>2021-02-23T09:55:13.000Z</time>
      </trkpt>
      <trkpt lat="46.58603" lon="-1.79024">
        <ele>-139.19999694824</ele>
        <time>2021-02-23T09:55:14.000Z</time>
      </trkpt>
      <trkpt lat="46.58576" lon="-1.79028">
        <ele>-139.39999389648</ele>
        <time>2021-02-23T09:55:19.000Z</time>
      </trkpt>
      <trkpt lat="46.58536" lon="-1.79034">
        <ele>-140.19999694824</ele>
        <time>2021-02-23T09:55:26.000Z</time>
      </trkpt>
      <trkpt lat="46.5853" lon="-1.79035">
        <ele>-140.19999694824</ele>
        <time>2021-02-23T09:55:27.000Z</time>
      </trkpt>
      <trkpt lat="46.58525" lon="-1.79035">
        <ele>-140.39999389648</ele>
        <time>2021-02-23T09:55:28.000Z</time>
      </trkpt>
      <trkpt lat="46.5852" lon="-1.79035">
        <ele>-140.60000610352</ele>
        <time>2021-02-23T09:55:29.000Z</time>
      </trkpt>
      <trkpt lat="46.58515" lon="-1.79036">
        <ele>-140.60000610352</ele>
        <time>2021-02-23T09:55:30.000Z</time>
      </trkpt>
      <trkpt lat="46.5851" lon="-1.79037">
        <ele>-140.60000610352</ele>
        <time>2021-02-23T09:55:31.000Z</time>
      </trkpt>
      <trkpt lat="46.58494" lon="-1.79037">
        <ele>-140.80000305176</ele>
        <time>2021-02-23T09:55:34.000Z</time>
      </trkpt>
      <trkpt lat="46.58488" lon="-1.79035">
        <ele>-140.80000305176</ele>
        <time>2021-02-23T09:55:35.000Z</time>
      </trkpt>
      <trkpt lat="46.58483" lon="-1.79033">
        <ele>-141</ele>
        <time>2021-02-23T09:55:36.000Z</time>
      </trkpt>
      <trkpt lat="46.58472" lon="-1.79026">
        <ele>-141.19999694824</ele>
        <time>2021-02-23T09:55:38.000Z</time>
      </trkpt>
      <trkpt lat="46.58444" lon="-1.79012">
        <ele>-142</ele>
        <time>2021-02-23T09:55:43.000Z</time>
      </trkpt>
      <trkpt lat="46.58438" lon="-1.79009">
        <ele>-142.19999694824</ele>
        <time>2021-02-23T09:55:44.000Z</time>
      </trkpt>
      <trkpt lat="46.58432" lon="-1.79006">
        <ele>-142.39999389648</ele>
        <time>2021-02-23T09:55:45.000Z</time>
      </trkpt>
      <trkpt lat="46.58414" lon="-1.79">
        <ele>-143.19999694824</ele>
        <time>2021-02-23T09:55:48.000Z</time>
      </trkpt>
      <trkpt lat="46.58408" lon="-1.78999">
        <ele>-143.19999694824</ele>
        <time>2021-02-23T09:55:49.000Z</time>
      </trkpt>
      <trkpt lat="46.58401" lon="-1.78999">
        <ele>-143.39999389648</ele>
        <time>2021-02-23T09:55:50.000Z</time>
      </trkpt>
      <trkpt lat="46.58395" lon="-1.79">
        <ele>-143.39999389648</ele>
        <time>2021-02-23T09:55:51.000Z</time>
      </trkpt>
      <trkpt lat="46.58378" lon="-1.79003">
        <ele>-143.80000305176</ele>
        <time>2021-02-23T09:55:54.000Z</time>
      </trkpt>
      <trkpt lat="46.58366" lon="-1.79009">
        <ele>-143.80000305176</ele>
        <time>2021-02-23T09:55:56.000Z</time>
      </trkpt>
      <trkpt lat="46.58361" lon="-1.79012">
        <ele>-143.80000305176</ele>
        <time>2021-02-23T09:55:57.000Z</time>
      </trkpt>
      <trkpt lat="46.58337" lon="-1.79024">
        <ele>-144.19999694824</ele>
        <time>2021-02-23T09:56:01.000Z</time>
      </trkpt>
      <trkpt lat="46.58319" lon="-1.79036">
        <ele>-144.60000610352</ele>
        <time>2021-02-23T09:56:04.000Z</time>
      </trkpt>
      <trkpt lat="46.58303" lon="-1.79049">
        <ele>-144.80000305176</ele>
        <time>2021-02-23T09:56:07.000Z</time>
      </trkpt>
      <trkpt lat="46.58297" lon="-1.79053">
        <ele>-145</ele>
        <time>2021-02-23T09:56:08.000Z</time>
      </trkpt>
      <trkpt lat="46.58282" lon="-1.7907">
        <ele>-145.19999694824</ele>
        <time>2021-02-23T09:56:11.000Z</time>
      </trkpt>
      <trkpt lat="46.58272" lon="-1.79082">
        <ele>-145.39999389648</ele>
        <time>2021-02-23T09:56:13.000Z</time>
      </trkpt>
      <trkpt lat="46.58267" lon="-1.79089">
        <ele>-145.60000610352</ele>
        <time>2021-02-23T09:56:14.000Z</time>
      </trkpt>
      <trkpt lat="46.58263" lon="-1.79095">
        <ele>-145.80000305176</ele>
        <time>2021-02-23T09:56:15.000Z</time>
      </trkpt>
      <trkpt lat="46.58258" lon="-1.79101">
        <ele>-146</ele>
        <time>2021-02-23T09:56:16.000Z</time>
      </trkpt>
      <trkpt lat="46.58254" lon="-1.79107">
        <ele>-146.19999694824</ele>
        <time>2021-02-23T09:56:17.000Z</time>
      </trkpt>
      <trkpt lat="46.58249" lon="-1.79113">
        <ele>-146.39999389648</ele>
        <time>2021-02-23T09:56:18.000Z</time>
      </trkpt>
      <trkpt lat="46.58245" lon="-1.79119">
        <ele>-146.39999389648</ele>
        <time>2021-02-23T09:56:19.000Z</time>
      </trkpt>
      <trkpt lat="46.5824" lon="-1.79125">
        <ele>-146.60000610352</ele>
        <time>2021-02-23T09:56:20.000Z</time>
      </trkpt>
      <trkpt lat="46.58236" lon="-1.7913">
        <ele>-146.60000610352</ele>
        <time>2021-02-23T09:56:21.000Z</time>
      </trkpt>
      <trkpt lat="46.58232" lon="-1.79135">
        <ele>-146.60000610352</ele>
        <time>2021-02-23T09:56:22.000Z</time>
      </trkpt>
      <trkpt lat="46.58207" lon="-1.79165">
        <ele>-146.60000610352</ele>
        <time>2021-02-23T09:56:27.000Z</time>
      </trkpt>
      <trkpt lat="46.58202" lon="-1.79169">
        <ele>-146.80000305176</ele>
        <time>2021-02-23T09:56:28.000Z</time>
      </trkpt>
      <trkpt lat="46.58195" lon="-1.7917">
        <ele>-146.80000305176</ele>
        <time>2021-02-23T09:56:29.000Z</time>
      </trkpt>
      <trkpt lat="46.5819" lon="-1.79169">
        <ele>-147</ele>
        <time>2021-02-23T09:56:30.000Z</time>
      </trkpt>
      <trkpt lat="46.58184" lon="-1.79166">
        <ele>-147.19999694824</ele>
        <time>2021-02-23T09:56:31.000Z</time>
      </trkpt>
      <trkpt lat="46.5818" lon="-1.79163">
        <ele>-147.19999694824</ele>
        <time>2021-02-23T09:56:32.000Z</time>
      </trkpt>
      <trkpt lat="46.58175" lon="-1.79157">
        <ele>-147.19999694824</ele>
        <time>2021-02-23T09:56:33.000Z</time>
      </trkpt>
      <trkpt lat="46.58172" lon="-1.79153">
        <ele>-147.39999389648</ele>
        <time>2021-02-23T09:56:34.000Z</time>
      </trkpt>
      <trkpt lat="46.58169" lon="-1.79149">
        <ele>-147.60000610352</ele>
        <time>2021-02-23T09:56:35.000Z</time>
      </trkpt>
      <trkpt lat="46.58162" lon="-1.7914">
        <ele>-147.80000305176</ele>
        <time>2021-02-23T09:56:37.000Z</time>
      </trkpt>
      <trkpt lat="46.58158" lon="-1.79135">
        <ele>-147.80000305176</ele>
        <time>2021-02-23T09:56:38.000Z</time>
      </trkpt>
      <trkpt lat="46.5815" lon="-1.7913">
        <ele>-147.80000305176</ele>
        <time>2021-02-23T09:56:40.000Z</time>
      </trkpt>
      <trkpt lat="46.58146" lon="-1.79126">
        <ele>-147.80000305176</ele>
        <time>2021-02-23T09:56:41.000Z</time>
      </trkpt>
      <trkpt lat="46.58143" lon="-1.7912">
        <ele>-147.80000305176</ele>
        <time>2021-02-23T09:56:42.000Z</time>
      </trkpt>
      <trkpt lat="46.58142" lon="-1.79114">
        <ele>-148</ele>
        <time>2021-02-23T09:56:43.000Z</time>
      </trkpt>
      <trkpt lat="46.5814" lon="-1.791">
        <ele>-148</ele>
        <time>2021-02-23T09:56:45.000Z</time>
      </trkpt>
      <trkpt lat="46.58138" lon="-1.79092">
        <ele>-148</ele>
        <time>2021-02-23T09:56:46.000Z</time>
      </trkpt>
      <trkpt lat="46.58132" lon="-1.7908">
        <ele>-148</ele>
        <time>2021-02-23T09:56:48.000Z</time>
      </trkpt>
      <trkpt lat="46.5813" lon="-1.79075">
        <ele>-148</ele>
        <time>2021-02-23T09:56:49.000Z</time>
      </trkpt>
      <trkpt lat="46.58122" lon="-1.79055">
        <ele>-148</ele>
        <time>2021-02-23T09:56:52.000Z</time>
      </trkpt>
      <trkpt lat="46.58119" lon="-1.79042">
        <ele>-148</ele>
        <time>2021-02-23T09:56:54.000Z</time>
      </trkpt>
      <trkpt lat="46.58116" lon="-1.79019">
        <ele>-148</ele>
        <time>2021-02-23T09:56:57.000Z</time>
      </trkpt>
      <trkpt lat="46.58115" lon="-1.79011">
        <ele>-148.19999694824</ele>
        <time>2021-02-23T09:56:58.000Z</time>
      </trkpt>
      <trkpt lat="46.58114" lon="-1.79004">
        <ele>-148.19999694824</ele>
        <time>2021-02-23T09:56:59.000Z</time>
      </trkpt>
      <trkpt lat="46.58113" lon="-1.78997">
        <ele>-148.19999694824</ele>
        <time>2021-02-23T09:57:00.000Z</time>
      </trkpt>
      <trkpt lat="46.58113" lon="-1.78991">
        <ele>-148.19999694824</ele>
        <time>2021-02-23T09:57:01.000Z</time>
      </trkpt>
      <trkpt lat="46.58112" lon="-1.78983">
        <ele>-148.19999694824</ele>
        <time>2021-02-23T09:57:02.000Z</time>
      </trkpt>
      <trkpt lat="46.58112" lon="-1.78979">
        <ele>-148</ele>
        <time>2021-02-23T09:57:03.000Z</time>
      </trkpt>
      <trkpt lat="46.58112" lon="-1.78973">
        <ele>-148</ele>
        <time>2021-02-23T09:57:04.000Z</time>
      </trkpt>
      <trkpt lat="46.58112" lon="-1.78968">
        <ele>-148</ele>
        <time>2021-02-23T09:57:05.000Z</time>
      </trkpt>
      <trkpt lat="46.58111" lon="-1.78962">
        <ele>-148</ele>
        <time>2021-02-23T09:57:06.000Z</time>
      </trkpt>
      <trkpt lat="46.5811" lon="-1.78947">
        <ele>-147.80000305176</ele>
        <time>2021-02-23T09:57:09.000Z</time>
      </trkpt>
      <trkpt lat="46.58109" lon="-1.78929">
        <ele>-147.80000305176</ele>
        <time>2021-02-23T09:57:12.000Z</time>
      </trkpt>
      <trkpt lat="46.58107" lon="-1.7891">
        <ele>-147.39999389648</ele>
        <time>2021-02-23T09:57:15.000Z</time>
      </trkpt>
      <trkpt lat="46.58108" lon="-1.7889">
        <ele>-147.39999389648</ele>
        <time>2021-02-23T09:57:18.000Z</time>
      </trkpt>
      <trkpt lat="46.58101" lon="-1.78853">
        <ele>-147.19999694824</ele>
        <time>2021-02-23T09:57:23.000Z</time>
      </trkpt>
      <trkpt lat="46.581" lon="-1.78845">
        <ele>-147.19999694824</ele>
        <time>2021-02-23T09:57:24.000Z</time>
      </trkpt>
      <trkpt lat="46.58086" lon="-1.78792">
        <ele>-147.19999694824</ele>
        <time>2021-02-23T09:57:31.000Z</time>
      </trkpt>
      <trkpt lat="46.58084" lon="-1.78785">
        <ele>-147.19999694824</ele>
        <time>2021-02-23T09:57:32.000Z</time>
      </trkpt>
      <trkpt lat="46.58082" lon="-1.78776">
        <ele>-147.19999694824</ele>
        <time>2021-02-23T09:57:33.000Z</time>
      </trkpt>
      <trkpt lat="46.5808" lon="-1.78769">
        <ele>-147.19999694824</ele>
        <time>2021-02-23T09:57:34.000Z</time>
      </trkpt>
      <trkpt lat="46.58079" lon="-1.78763">
        <ele>-147.19999694824</ele>
        <time>2021-02-23T09:57:35.000Z</time>
      </trkpt>
      <trkpt lat="46.58077" lon="-1.78756">
        <ele>-147.19999694824</ele>
        <time>2021-02-23T09:57:36.000Z</time>
      </trkpt>
      <trkpt lat="46.58075" lon="-1.78749">
        <ele>-147.19999694824</ele>
        <time>2021-02-23T09:57:37.000Z</time>
      </trkpt>
      <trkpt lat="46.58074" lon="-1.78742">
        <ele>-147.19999694824</ele>
        <time>2021-02-23T09:57:38.000Z</time>
      </trkpt>
      <trkpt lat="46.5807" lon="-1.78729">
        <ele>-146.80000305176</ele>
        <time>2021-02-23T09:57:40.000Z</time>
      </trkpt>
      <trkpt lat="46.58067" lon="-1.78715">
        <ele>-146.39999389648</ele>
        <time>2021-02-23T09:57:42.000Z</time>
      </trkpt>
      <trkpt lat="46.58065" lon="-1.78708">
        <ele>-146.39999389648</ele>
        <time>2021-02-23T09:57:43.000Z</time>
      </trkpt>
      <trkpt lat="46.58064" lon="-1.78702">
        <ele>-146.39999389648</ele>
        <time>2021-02-23T09:57:44.000Z</time>
      </trkpt>
      <trkpt lat="46.58062" lon="-1.78695">
        <ele>-146.19999694824</ele>
        <time>2021-02-23T09:57:45.000Z</time>
      </trkpt>
      <trkpt lat="46.58061" lon="-1.78689">
        <ele>-146.19999694824</ele>
        <time>2021-02-23T09:57:46.000Z</time>
      </trkpt>
      <trkpt lat="46.58059" lon="-1.78682">
        <ele>-146.19999694824</ele>
        <time>2021-02-23T09:57:47.000Z</time>
      </trkpt>
      <trkpt lat="46.58057" lon="-1.78676">
        <ele>-146.19999694824</ele>
        <time>2021-02-23T09:57:48.000Z</time>
      </trkpt>
      <trkpt lat="46.58055" lon="-1.78669">
        <ele>-146.19999694824</ele>
        <time>2021-02-23T09:57:49.000Z</time>
      </trkpt>
      <trkpt lat="46.58051" lon="-1.78653">
        <ele>-146</ele>
        <time>2021-02-23T09:57:52.000Z</time>
      </trkpt>
      <trkpt lat="46.58049" lon="-1.78645">
        <ele>-146</ele>
        <time>2021-02-23T09:57:53.000Z</time>
      </trkpt>
      <trkpt lat="46.58046" lon="-1.78625">
        <ele>-146</ele>
        <time>2021-02-23T09:57:56.000Z</time>
      </trkpt>
      <trkpt lat="46.58046" lon="-1.78604">
        <ele>-145.80000305176</ele>
        <time>2021-02-23T09:57:59.000Z</time>
      </trkpt>
      <trkpt lat="46.58047" lon="-1.7858">
        <ele>-145.19999694824</ele>
        <time>2021-02-23T09:58:02.000Z</time>
      </trkpt>
      <trkpt lat="46.58048" lon="-1.78574">
        <ele>-145</ele>
        <time>2021-02-23T09:58:03.000Z</time>
      </trkpt>
      <trkpt lat="46.58049" lon="-1.78567">
        <ele>-144.80000305176</ele>
        <time>2021-02-23T09:58:04.000Z</time>
      </trkpt>
      <trkpt lat="46.5805" lon="-1.7856">
        <ele>-144.60000610352</ele>
        <time>2021-02-23T09:58:05.000Z</time>
      </trkpt>
      <trkpt lat="46.58051" lon="-1.78553">
        <ele>-144.60000610352</ele>
        <time>2021-02-23T09:58:06.000Z</time>
      </trkpt>
      <trkpt lat="46.58051" lon="-1.7853">
        <ele>-144.60000610352</ele>
        <time>2021-02-23T09:58:09.000Z</time>
      </trkpt>
      <trkpt lat="46.58049" lon="-1.78513">
        <ele>-144.60000610352</ele>
        <time>2021-02-23T09:58:11.000Z</time>
      </trkpt>
      <trkpt lat="46.5804" lon="-1.78463">
        <ele>-145.19999694824</ele>
        <time>2021-02-23T09:58:17.000Z</time>
      </trkpt>
      <trkpt lat="46.58036" lon="-1.78445">
        <ele>-145.60000610352</ele>
        <time>2021-02-23T09:58:19.000Z</time>
      </trkpt>
      <trkpt lat="46.58034" lon="-1.78435">
        <ele>-145.80000305176</ele>
        <time>2021-02-23T09:58:20.000Z</time>
      </trkpt>
      <trkpt lat="46.58032" lon="-1.78427">
        <ele>-145.80000305176</ele>
        <time>2021-02-23T09:58:21.000Z</time>
      </trkpt>
      <trkpt lat="46.5803" lon="-1.7842">
        <ele>-145.80000305176</ele>
        <time>2021-02-23T09:58:22.000Z</time>
      </trkpt>
      <trkpt lat="46.58029" lon="-1.78412">
        <ele>-146</ele>
        <time>2021-02-23T09:58:23.000Z</time>
      </trkpt>
      <trkpt lat="46.58027" lon="-1.78402">
        <ele>-146</ele>
        <time>2021-02-23T09:58:24.000Z</time>
      </trkpt>
      <trkpt lat="46.58025" lon="-1.78396">
        <ele>-146</ele>
        <time>2021-02-23T09:58:25.000Z</time>
      </trkpt>
      <trkpt lat="46.58023" lon="-1.78388">
        <ele>-146</ele>
        <time>2021-02-23T09:58:26.000Z</time>
      </trkpt>
      <trkpt lat="46.58021" lon="-1.7838">
        <ele>-146.19999694824</ele>
        <time>2021-02-23T09:58:27.000Z</time>
      </trkpt>
      <trkpt lat="46.58019" lon="-1.78373">
        <ele>-146.19999694824</ele>
        <time>2021-02-23T09:58:28.000Z</time>
      </trkpt>
      <trkpt lat="46.58015" lon="-1.78358">
        <ele>-146</ele>
        <time>2021-02-23T09:58:30.000Z</time>
      </trkpt>
      <trkpt lat="46.58013" lon="-1.78349">
        <ele>-146</ele>
        <time>2021-02-23T09:58:31.000Z</time>
      </trkpt>
      <trkpt lat="46.58009" lon="-1.78328">
        <ele>-145.80000305176</ele>
        <time>2021-02-23T09:58:34.000Z</time>
      </trkpt>
      <trkpt lat="46.58001" lon="-1.78297">
        <ele>-145.19999694824</ele>
        <time>2021-02-23T09:58:38.000Z</time>
      </trkpt>
      <trkpt lat="46.58" lon="-1.78291">
        <ele>-145</ele>
        <time>2021-02-23T09:58:39.000Z</time>
      </trkpt>
      <trkpt lat="46.57989" lon="-1.7826">
        <ele>-144.60000610352</ele>
        <time>2021-02-23T09:58:43.000Z</time>
      </trkpt>
      <trkpt lat="46.57987" lon="-1.78254">
        <ele>-144.60000610352</ele>
        <time>2021-02-23T09:58:44.000Z</time>
      </trkpt>
      <trkpt lat="46.57982" lon="-1.78239">
        <ele>-144.39999389648</ele>
        <time>2021-02-23T09:58:46.000Z</time>
      </trkpt>
      <trkpt lat="46.57979" lon="-1.78232">
        <ele>-144.19999694824</ele>
        <time>2021-02-23T09:58:47.000Z</time>
      </trkpt>
      <trkpt lat="46.57968" lon="-1.78193">
        <ele>-144.39999389648</ele>
        <time>2021-02-23T09:58:52.000Z</time>
      </trkpt>
      <trkpt lat="46.57966" lon="-1.78182">
        <ele>-144.39999389648</ele>
        <time>2021-02-23T09:58:53.000Z</time>
      </trkpt>
      <trkpt lat="46.57965" lon="-1.78173">
        <ele>-144.60000610352</ele>
        <time>2021-02-23T09:58:54.000Z</time>
      </trkpt>
      <trkpt lat="46.57965" lon="-1.78165">
        <ele>-144.60000610352</ele>
        <time>2021-02-23T09:58:55.000Z</time>
      </trkpt>
      <trkpt lat="46.57964" lon="-1.78156">
        <ele>-144.80000305176</ele>
        <time>2021-02-23T09:58:56.000Z</time>
      </trkpt>
      <trkpt lat="46.57963" lon="-1.78148">
        <ele>-144.80000305176</ele>
        <time>2021-02-23T09:58:57.000Z</time>
      </trkpt>
      <trkpt lat="46.57962" lon="-1.78139">
        <ele>-145</ele>
        <time>2021-02-23T09:58:58.000Z</time>
      </trkpt>
      <trkpt lat="46.57961" lon="-1.78129">
        <ele>-145.19999694824</ele>
        <time>2021-02-23T09:58:59.000Z</time>
      </trkpt>
      <trkpt lat="46.5796" lon="-1.78123">
        <ele>-145.19999694824</ele>
        <time>2021-02-23T09:59:00.000Z</time>
      </trkpt>
      <trkpt lat="46.57959" lon="-1.78116">
        <ele>-145.19999694824</ele>
        <time>2021-02-23T09:59:01.000Z</time>
      </trkpt>
      <trkpt lat="46.57958" lon="-1.78108">
        <ele>-145.39999389648</ele>
        <time>2021-02-23T09:59:02.000Z</time>
      </trkpt>
      <trkpt lat="46.57954" lon="-1.78092">
        <ele>-145.39999389648</ele>
        <time>2021-02-23T09:59:04.000Z</time>
      </trkpt>
      <trkpt lat="46.57952" lon="-1.78087">
        <ele>-145.39999389648</ele>
        <time>2021-02-23T09:59:05.000Z</time>
      </trkpt>
      <trkpt lat="46.57947" lon="-1.78081">
        <ele>-145.60000610352</ele>
        <time>2021-02-23T09:59:06.000Z</time>
      </trkpt>
      <trkpt lat="46.57942" lon="-1.78078">
        <ele>-145.60000610352</ele>
        <time>2021-02-23T09:59:07.000Z</time>
      </trkpt>
      <trkpt lat="46.57935" lon="-1.78075">
        <ele>-145.80000305176</ele>
        <time>2021-02-23T09:59:08.000Z</time>
      </trkpt>
      <trkpt lat="46.5793" lon="-1.78074">
        <ele>-145.80000305176</ele>
        <time>2021-02-23T09:59:09.000Z</time>
      </trkpt>
      <trkpt lat="46.57923" lon="-1.78074">
        <ele>-146</ele>
        <time>2021-02-23T09:59:10.000Z</time>
      </trkpt>
      <trkpt lat="46.57917" lon="-1.78073">
        <ele>-146.19999694824</ele>
        <time>2021-02-23T09:59:11.000Z</time>
      </trkpt>
      <trkpt lat="46.5791" lon="-1.78072">
        <ele>-146.39999389648</ele>
        <time>2021-02-23T09:59:12.000Z</time>
      </trkpt>
      <trkpt lat="46.57903" lon="-1.78071">
        <ele>-146.60000610352</ele>
        <time>2021-02-23T09:59:13.000Z</time>
      </trkpt>
      <trkpt lat="46.57898" lon="-1.7807">
        <ele>-146.60000610352</ele>
        <time>2021-02-23T09:59:14.000Z</time>
      </trkpt>
      <trkpt lat="46.57892" lon="-1.78069">
        <ele>-146.80000305176</ele>
        <time>2021-02-23T09:59:15.000Z</time>
      </trkpt>
      <trkpt lat="46.57886" lon="-1.78068">
        <ele>-146.80000305176</ele>
        <time>2021-02-23T09:59:16.000Z</time>
      </trkpt>
      <trkpt lat="46.57881" lon="-1.78066">
        <ele>-146.80000305176</ele>
        <time>2021-02-23T09:59:17.000Z</time>
      </trkpt>
      <trkpt lat="46.57875" lon="-1.78064">
        <ele>-146.80000305176</ele>
        <time>2021-02-23T09:59:18.000Z</time>
      </trkpt>
      <trkpt lat="46.5787" lon="-1.78062">
        <ele>-147</ele>
        <time>2021-02-23T09:59:19.000Z</time>
      </trkpt>
      <trkpt lat="46.57865" lon="-1.7806">
        <ele>-147</ele>
        <time>2021-02-23T09:59:20.000Z</time>
      </trkpt>
      <trkpt lat="46.57859" lon="-1.78058">
        <ele>-147</ele>
        <time>2021-02-23T09:59:21.000Z</time>
      </trkpt>
      <trkpt lat="46.57849" lon="-1.78054">
        <ele>-147</ele>
        <time>2021-02-23T09:59:23.000Z</time>
      </trkpt>
      <trkpt lat="46.57844" lon="-1.78051">
        <ele>-147</ele>
        <time>2021-02-23T09:59:24.000Z</time>
      </trkpt>
      <trkpt lat="46.57811" lon="-1.7804">
        <ele>-146.80000305176</ele>
        <time>2021-02-23T09:59:30.000Z</time>
      </trkpt>
      <trkpt lat="46.57805" lon="-1.78038">
        <ele>-146.60000610352</ele>
        <time>2021-02-23T09:59:31.000Z</time>
      </trkpt>
      <trkpt lat="46.57799" lon="-1.78036">
        <ele>-146.60000610352</ele>
        <time>2021-02-23T09:59:32.000Z</time>
      </trkpt>
      <trkpt lat="46.57795" lon="-1.78036">
        <ele>-146.39999389648</ele>
        <time>2021-02-23T09:59:33.000Z</time>
      </trkpt>
      <trkpt lat="46.57763" lon="-1.78028">
        <ele>-145.39999389648</ele>
        <time>2021-02-23T09:59:39.000Z</time>
      </trkpt>
      <trkpt lat="46.57758" lon="-1.78027">
        <ele>-145.19999694824</ele>
        <time>2021-02-23T09:59:40.000Z</time>
      </trkpt>
      <trkpt lat="46.57754" lon="-1.78027">
        <ele>-145</ele>
        <time>2021-02-23T09:59:41.000Z</time>
      </trkpt>
      <trkpt lat="46.57749" lon="-1.78026">
        <ele>-145</ele>
        <time>2021-02-23T09:59:42.000Z</time>
      </trkpt>
      <trkpt lat="46.57745" lon="-1.78027">
        <ele>-144.80000305176</ele>
        <time>2021-02-23T09:59:43.000Z</time>
      </trkpt>
      <trkpt lat="46.57735" lon="-1.7803">
        <ele>-144.60000610352</ele>
        <time>2021-02-23T09:59:45.000Z</time>
      </trkpt>
      <trkpt lat="46.57721" lon="-1.78036">
        <ele>-144.19999694824</ele>
        <time>2021-02-23T09:59:48.000Z</time>
      </trkpt>
      <trkpt lat="46.57716" lon="-1.78037">
        <ele>-144</ele>
        <time>2021-02-23T09:59:49.000Z</time>
      </trkpt>
      <trkpt lat="46.57711" lon="-1.78037">
        <ele>-144</ele>
        <time>2021-02-23T09:59:50.000Z</time>
      </trkpt>
      <trkpt lat="46.57701" lon="-1.78036">
        <ele>-143.80000305176</ele>
        <time>2021-02-23T09:59:52.000Z</time>
      </trkpt>
      <trkpt lat="46.57697" lon="-1.78035">
        <ele>-143.80000305176</ele>
        <time>2021-02-23T09:59:53.000Z</time>
      </trkpt>
      <trkpt lat="46.57692" lon="-1.78034">
        <ele>-143.80000305176</ele>
        <time>2021-02-23T09:59:54.000Z</time>
      </trkpt>
      <trkpt lat="46.57686" lon="-1.78031">
        <ele>-143.80000305176</ele>
        <time>2021-02-23T09:59:55.000Z</time>
      </trkpt>
      <trkpt lat="46.57683" lon="-1.7803">
        <ele>-143.80000305176</ele>
        <time>2021-02-23T09:59:56.000Z</time>
      </trkpt>
      <trkpt lat="46.57678" lon="-1.78027">
        <ele>-143.80000305176</ele>
        <time>2021-02-23T09:59:57.000Z</time>
      </trkpt>
      <trkpt lat="46.57673" lon="-1.78024">
        <ele>-143.60000610352</ele>
        <time>2021-02-23T09:59:58.000Z</time>
      </trkpt>
      <trkpt lat="46.5767" lon="-1.78022">
        <ele>-143.60000610352</ele>
        <time>2021-02-23T09:59:59.000Z</time>
      </trkpt>
      <trkpt lat="46.57666" lon="-1.7802">
        <ele>-143.60000610352</ele>
        <time>2021-02-23T10:00:00.000Z</time>
      </trkpt>
      <trkpt lat="46.57661" lon="-1.78018">
        <ele>-143.60000610352</ele>
        <time>2021-02-23T10:00:01.000Z</time>
      </trkpt>
      <trkpt lat="46.57658" lon="-1.78015">
        <ele>-143.60000610352</ele>
        <time>2021-02-23T10:00:02.000Z</time>
      </trkpt>
      <trkpt lat="46.57654" lon="-1.78012">
        <ele>-143.39999389648</ele>
        <time>2021-02-23T10:00:03.000Z</time>
      </trkpt>
      <trkpt lat="46.5765" lon="-1.78009">
        <ele>-143.39999389648</ele>
        <time>2021-02-23T10:00:04.000Z</time>
      </trkpt>
      <trkpt lat="46.57647" lon="-1.78007">
        <ele>-143.19999694824</ele>
        <time>2021-02-23T10:00:05.000Z</time>
      </trkpt>
      <trkpt lat="46.57619" lon="-1.77989">
        <ele>-143</ele>
        <time>2021-02-23T10:00:12.000Z</time>
      </trkpt>
      <trkpt lat="46.5761" lon="-1.77983">
        <ele>-143.19999694824</ele>
        <time>2021-02-23T10:00:14.000Z</time>
      </trkpt>
      <trkpt lat="46.57599" lon="-1.77975">
        <ele>-143.19999694824</ele>
        <time>2021-02-23T10:00:17.000Z</time>
      </trkpt>
      <trkpt lat="46.5759" lon="-1.77968">
        <ele>-143.39999389648</ele>
        <time>2021-02-23T10:00:19.000Z</time>
      </trkpt>
      <trkpt lat="46.57552" lon="-1.77944">
        <ele>-143.80000305176</ele>
        <time>2021-02-23T10:00:27.000Z</time>
      </trkpt>
      <trkpt lat="46.57541" lon="-1.77939">
        <ele>-144.19999694824</ele>
        <time>2021-02-23T10:00:29.000Z</time>
      </trkpt>
      <trkpt lat="46.57519" lon="-1.77929">
        <ele>-144.60000610352</ele>
        <time>2021-02-23T10:00:33.000Z</time>
      </trkpt>
      <trkpt lat="46.57492" lon="-1.77916">
        <ele>-145.19999694824</ele>
        <time>2021-02-23T10:00:38.000Z</time>
      </trkpt>
      <trkpt lat="46.57486" lon="-1.77914">
        <ele>-145.19999694824</ele>
        <time>2021-02-23T10:00:39.000Z</time>
      </trkpt>
      <trkpt lat="46.57476" lon="-1.77909">
        <ele>-145.19999694824</ele>
        <time>2021-02-23T10:00:41.000Z</time>
      </trkpt>
      <trkpt lat="46.57471" lon="-1.77907">
        <ele>-145.19999694824</ele>
        <time>2021-02-23T10:00:42.000Z</time>
      </trkpt>
      <trkpt lat="46.57466" lon="-1.77904">
        <ele>-145.19999694824</ele>
        <time>2021-02-23T10:00:43.000Z</time>
      </trkpt>
      <trkpt lat="46.57444" lon="-1.77899">
        <ele>-145.19999694824</ele>
        <time>2021-02-23T10:00:47.000Z</time>
      </trkpt>
      <trkpt lat="46.5744" lon="-1.77899">
        <ele>-145.19999694824</ele>
        <time>2021-02-23T10:00:48.000Z</time>
      </trkpt>
      <trkpt lat="46.57435" lon="-1.77899">
        <ele>-145.19999694824</ele>
        <time>2021-02-23T10:00:49.000Z</time>
      </trkpt>
      <trkpt lat="46.57404" lon="-1.77902">
        <ele>-145.60000610352</ele>
        <time>2021-02-23T10:00:55.000Z</time>
      </trkpt>
      <trkpt lat="46.57398" lon="-1.77904">
        <ele>-145.60000610352</ele>
        <time>2021-02-23T10:00:56.000Z</time>
      </trkpt>
      <trkpt lat="46.57393" lon="-1.77906">
        <ele>-145.80000305176</ele>
        <time>2021-02-23T10:00:57.000Z</time>
      </trkpt>
      <trkpt lat="46.57388" lon="-1.77908">
        <ele>-145.80000305176</ele>
        <time>2021-02-23T10:00:58.000Z</time>
      </trkpt>
      <trkpt lat="46.57367" lon="-1.77919">
        <ele>-146</ele>
        <time>2021-02-23T10:01:02.000Z</time>
      </trkpt>
      <trkpt lat="46.57362" lon="-1.7792">
        <ele>-146</ele>
        <time>2021-02-23T10:01:03.000Z</time>
      </trkpt>
      <trkpt lat="46.57356" lon="-1.77921">
        <ele>-146</ele>
        <time>2021-02-23T10:01:04.000Z</time>
      </trkpt>
      <trkpt lat="46.57351" lon="-1.77922">
        <ele>-146</ele>
        <time>2021-02-23T10:01:05.000Z</time>
      </trkpt>
      <trkpt lat="46.57347" lon="-1.77922">
        <ele>-146</ele>
        <time>2021-02-23T10:01:06.000Z</time>
      </trkpt>
      <trkpt lat="46.57342" lon="-1.77922">
        <ele>-146</ele>
        <time>2021-02-23T10:01:07.000Z</time>
      </trkpt>
      <trkpt lat="46.57336" lon="-1.77922">
        <ele>-145.80000305176</ele>
        <time>2021-02-23T10:01:08.000Z</time>
      </trkpt>
      <trkpt lat="46.57322" lon="-1.77923">
        <ele>-145.80000305176</ele>
        <time>2021-02-23T10:01:11.000Z</time>
      </trkpt>
      <trkpt lat="46.57311" lon="-1.77923">
        <ele>-145.60000610352</ele>
        <time>2021-02-23T10:01:13.000Z</time>
      </trkpt>
      <trkpt lat="46.57307" lon="-1.77923">
        <ele>-145.60000610352</ele>
        <time>2021-02-23T10:01:14.000Z</time>
      </trkpt>
      <trkpt lat="46.57297" lon="-1.77922">
        <ele>-145.39999389648</ele>
        <time>2021-02-23T10:01:16.000Z</time>
      </trkpt>
      <trkpt lat="46.57293" lon="-1.77922">
        <ele>-145.39999389648</ele>
        <time>2021-02-23T10:01:17.000Z</time>
      </trkpt>
      <trkpt lat="46.57282" lon="-1.77922">
        <ele>-145.19999694824</ele>
        <time>2021-02-23T10:01:19.000Z</time>
      </trkpt>
      <trkpt lat="46.57279" lon="-1.77922">
        <ele>-145</ele>
        <time>2021-02-23T10:01:20.000Z</time>
      </trkpt>
      <trkpt lat="46.57274" lon="-1.77923">
        <ele>-145</ele>
        <time>2021-02-23T10:01:21.000Z</time>
      </trkpt>
      <trkpt lat="46.57268" lon="-1.77923">
        <ele>-145</ele>
        <time>2021-02-23T10:01:22.000Z</time>
      </trkpt>
      <trkpt lat="46.57264" lon="-1.77923">
        <ele>-145</ele>
        <time>2021-02-23T10:01:23.000Z</time>
      </trkpt>
      <trkpt lat="46.57259" lon="-1.77923">
        <ele>-144.80000305176</ele>
        <time>2021-02-23T10:01:24.000Z</time>
      </trkpt>
      <trkpt lat="46.57256" lon="-1.77923">
        <ele>-144.80000305176</ele>
        <time>2021-02-23T10:01:25.000Z</time>
      </trkpt>
      <trkpt lat="46.57252" lon="-1.77923">
        <ele>-144.80000305176</ele>
        <time>2021-02-23T10:01:26.000Z</time>
      </trkpt>
      <trkpt lat="46.57247" lon="-1.77923">
        <ele>-144.80000305176</ele>
        <time>2021-02-23T10:01:27.000Z</time>
      </trkpt>
      <trkpt lat="46.57243" lon="-1.77923">
        <ele>-144.80000305176</ele>
        <time>2021-02-23T10:01:28.000Z</time>
      </trkpt>
      <trkpt lat="46.57231" lon="-1.77922">
        <ele>-144.60000610352</ele>
        <time>2021-02-23T10:01:31.000Z</time>
      </trkpt>
      <trkpt lat="46.57222" lon="-1.77921">
        <ele>-144.60000610352</ele>
        <time>2021-02-23T10:01:33.000Z</time>
      </trkpt>
      <trkpt lat="46.5721" lon="-1.77919">
        <ele>-144.60000610352</ele>
        <time>2021-02-23T10:01:36.000Z</time>
      </trkpt>
      <trkpt lat="46.57202" lon="-1.77918">
        <ele>-144.60000610352</ele>
        <time>2021-02-23T10:01:38.000Z</time>
      </trkpt>
      <trkpt lat="46.57194" lon="-1.77916">
        <ele>-144.60000610352</ele>
        <time>2021-02-23T10:01:40.000Z</time>
      </trkpt>
      <trkpt lat="46.57189" lon="-1.77915">
        <ele>-144.60000610352</ele>
        <time>2021-02-23T10:01:41.000Z</time>
      </trkpt>
      <trkpt lat="46.57186" lon="-1.77915">
        <ele>-144.60000610352</ele>
        <time>2021-02-23T10:01:42.000Z</time>
      </trkpt>
      <trkpt lat="46.57177" lon="-1.77915">
        <ele>-144.60000610352</ele>
        <time>2021-02-23T10:01:44.000Z</time>
      </trkpt>
      <trkpt lat="46.57173" lon="-1.77914">
        <ele>-144.60000610352</ele>
        <time>2021-02-23T10:01:45.000Z</time>
      </trkpt>
      <trkpt lat="46.5717" lon="-1.77914">
        <ele>-144.60000610352</ele>
        <time>2021-02-23T10:01:46.000Z</time>
      </trkpt>
      <trkpt lat="46.57165" lon="-1.77913">
        <ele>-144.60000610352</ele>
        <time>2021-02-23T10:01:47.000Z</time>
      </trkpt>
      <trkpt lat="46.57161" lon="-1.77913">
        <ele>-144.39999389648</ele>
        <time>2021-02-23T10:01:48.000Z</time>
      </trkpt>
      <trkpt lat="46.57157" lon="-1.77913">
        <ele>-144.39999389648</ele>
        <time>2021-02-23T10:01:49.000Z</time>
      </trkpt>
      <trkpt lat="46.57153" lon="-1.77913">
        <ele>-144.39999389648</ele>
        <time>2021-02-23T10:01:50.000Z</time>
      </trkpt>
      <trkpt lat="46.57149" lon="-1.77912">
        <ele>-144.19999694824</ele>
        <time>2021-02-23T10:01:51.000Z</time>
      </trkpt>
      <trkpt lat="46.57144" lon="-1.77912">
        <ele>-144.19999694824</ele>
        <time>2021-02-23T10:01:52.000Z</time>
      </trkpt>
      <trkpt lat="46.57141" lon="-1.77912">
        <ele>-144.19999694824</ele>
        <time>2021-02-23T10:01:53.000Z</time>
      </trkpt>
      <trkpt lat="46.57121" lon="-1.77911">
        <ele>-143.80000305176</ele>
        <time>2021-02-23T10:01:58.000Z</time>
      </trkpt>
      <trkpt lat="46.57112" lon="-1.7791">
        <ele>-143.60000610352</ele>
        <time>2021-02-23T10:02:00.000Z</time>
      </trkpt>
      <trkpt lat="46.57101" lon="-1.77908">
        <ele>-143.60000610352</ele>
        <time>2021-02-23T10:02:03.000Z</time>
      </trkpt>
      <trkpt lat="46.57092" lon="-1.77906">
        <ele>-143.39999389648</ele>
        <time>2021-02-23T10:02:05.000Z</time>
      </trkpt>
      <trkpt lat="46.57084" lon="-1.77902">
        <ele>-143.39999389648</ele>
        <time>2021-02-23T10:02:07.000Z</time>
      </trkpt>
      <trkpt lat="46.57057" lon="-1.77876">
        <ele>-144</ele>
        <time>2021-02-23T10:02:14.000Z</time>
      </trkpt>
      <trkpt lat="46.57049" lon="-1.77867">
        <ele>-144.19999694824</ele>
        <time>2021-02-23T10:02:16.000Z</time>
      </trkpt>
      <trkpt lat="46.5704" lon="-1.77851">
        <ele>-144.19999694824</ele>
        <time>2021-02-23T10:02:19.000Z</time>
      </trkpt>
      <trkpt lat="46.57037" lon="-1.77847">
        <ele>-144.19999694824</ele>
        <time>2021-02-23T10:02:20.000Z</time>
      </trkpt>
      <trkpt lat="46.57011" lon="-1.77804">
        <ele>-144.39999389648</ele>
        <time>2021-02-23T10:02:28.000Z</time>
      </trkpt>
      <trkpt lat="46.57005" lon="-1.77793">
        <ele>-144.39999389648</ele>
        <time>2021-02-23T10:02:30.000Z</time>
      </trkpt>
      <trkpt lat="46.56975" lon="-1.77751">
        <ele>-145</ele>
        <time>2021-02-23T10:02:38.000Z</time>
      </trkpt>
      <trkpt lat="46.56966" lon="-1.77743">
        <ele>-145.19999694824</ele>
        <time>2021-02-23T10:02:40.000Z</time>
      </trkpt>
      <trkpt lat="46.56949" lon="-1.77735">
        <ele>-145.60000610352</ele>
        <time>2021-02-23T10:02:43.000Z</time>
      </trkpt>
      <trkpt lat="46.56944" lon="-1.77731">
        <ele>-145.80000305176</ele>
        <time>2021-02-23T10:02:44.000Z</time>
      </trkpt>
      <trkpt lat="46.56933" lon="-1.77723">
        <ele>-145.80000305176</ele>
        <time>2021-02-23T10:02:46.000Z</time>
      </trkpt>
      <trkpt lat="46.56928" lon="-1.77717">
        <ele>-146</ele>
        <time>2021-02-23T10:02:47.000Z</time>
      </trkpt>
      <trkpt lat="46.5692" lon="-1.77706">
        <ele>-146.19999694824</ele>
        <time>2021-02-23T10:02:49.000Z</time>
      </trkpt>
      <trkpt lat="46.56916" lon="-1.77699">
        <ele>-146.39999389648</ele>
        <time>2021-02-23T10:02:50.000Z</time>
      </trkpt>
      <trkpt lat="46.56909" lon="-1.77683">
        <ele>-146.80000305176</ele>
        <time>2021-02-23T10:02:52.000Z</time>
      </trkpt>
      <trkpt lat="46.56904" lon="-1.77667">
        <ele>-147</ele>
        <time>2021-02-23T10:02:54.000Z</time>
      </trkpt>
      <trkpt lat="46.56902" lon="-1.77659">
        <ele>-147</ele>
        <time>2021-02-23T10:02:55.000Z</time>
      </trkpt>
      <trkpt lat="46.56901" lon="-1.7765">
        <ele>-147</ele>
        <time>2021-02-23T10:02:56.000Z</time>
      </trkpt>
      <trkpt lat="46.56894" lon="-1.77618">
        <ele>-147.19999694824</ele>
        <time>2021-02-23T10:03:00.000Z</time>
      </trkpt>
      <trkpt lat="46.56883" lon="-1.77586">
        <ele>-147.39999389648</ele>
        <time>2021-02-23T10:03:04.000Z</time>
      </trkpt>
      <trkpt lat="46.56876" lon="-1.7757">
        <ele>-147.39999389648</ele>
        <time>2021-02-23T10:03:06.000Z</time>
      </trkpt>
      <trkpt lat="46.56872" lon="-1.77563">
        <ele>-147.60000610352</ele>
        <time>2021-02-23T10:03:07.000Z</time>
      </trkpt>
      <trkpt lat="46.56867" lon="-1.77556">
        <ele>-147.60000610352</ele>
        <time>2021-02-23T10:03:08.000Z</time>
      </trkpt>
      <trkpt lat="46.56843" lon="-1.77525">
        <ele>-148.19999694824</ele>
        <time>2021-02-23T10:03:13.000Z</time>
      </trkpt>
      <trkpt lat="46.56838" lon="-1.7752">
        <ele>-148.19999694824</ele>
        <time>2021-02-23T10:03:14.000Z</time>
      </trkpt>
      <trkpt lat="46.56834" lon="-1.77514">
        <ele>-148.60000610352</ele>
        <time>2021-02-23T10:03:15.000Z</time>
      </trkpt>
      <trkpt lat="46.56829" lon="-1.77508">
        <ele>-148.80000305176</ele>
        <time>2021-02-23T10:03:16.000Z</time>
      </trkpt>
      <trkpt lat="46.5682" lon="-1.77495">
        <ele>-149.19999694824</ele>
        <time>2021-02-23T10:03:18.000Z</time>
      </trkpt>
      <trkpt lat="46.56816" lon="-1.77489">
        <ele>-149.39999389648</ele>
        <time>2021-02-23T10:03:19.000Z</time>
      </trkpt>
      <trkpt lat="46.56807" lon="-1.77477">
        <ele>-149.80000305176</ele>
        <time>2021-02-23T10:03:21.000Z</time>
      </trkpt>
      <trkpt lat="46.56791" lon="-1.77449">
        <ele>-151</ele>
        <time>2021-02-23T10:03:25.000Z</time>
      </trkpt>
      <trkpt lat="46.56783" lon="-1.77435">
        <ele>-151.60000610352</ele>
        <time>2021-02-23T10:03:27.000Z</time>
      </trkpt>
      <trkpt lat="46.56779" lon="-1.77427">
        <ele>-151.80000305176</ele>
        <time>2021-02-23T10:03:28.000Z</time>
      </trkpt>
      <trkpt lat="46.56776" lon="-1.7742">
        <ele>-151.80000305176</ele>
        <time>2021-02-23T10:03:29.000Z</time>
      </trkpt>
      <trkpt lat="46.56772" lon="-1.77414">
        <ele>-151.80000305176</ele>
        <time>2021-02-23T10:03:30.000Z</time>
      </trkpt>
      <trkpt lat="46.56768" lon="-1.77407">
        <ele>-151.80000305176</ele>
        <time>2021-02-23T10:03:31.000Z</time>
      </trkpt>
      <trkpt lat="46.56764" lon="-1.77401">
        <ele>-151.80000305176</ele>
        <time>2021-02-23T10:03:32.000Z</time>
      </trkpt>
      <trkpt lat="46.56761" lon="-1.77395">
        <ele>-151.80000305176</ele>
        <time>2021-02-23T10:03:33.000Z</time>
      </trkpt>
      <trkpt lat="46.56757" lon="-1.77389">
        <ele>-151.80000305176</ele>
        <time>2021-02-23T10:03:34.000Z</time>
      </trkpt>
      <trkpt lat="46.56753" lon="-1.77384">
        <ele>-151.80000305176</ele>
        <time>2021-02-23T10:03:35.000Z</time>
      </trkpt>
      <trkpt lat="46.56745" lon="-1.77373">
        <ele>-151.80000305176</ele>
        <time>2021-02-23T10:03:37.000Z</time>
      </trkpt>
      <trkpt lat="46.56741" lon="-1.77368">
        <ele>-151.80000305176</ele>
        <time>2021-02-23T10:03:38.000Z</time>
      </trkpt>
      <trkpt lat="46.56736" lon="-1.77363">
        <ele>-151.80000305176</ele>
        <time>2021-02-23T10:03:39.000Z</time>
      </trkpt>
      <trkpt lat="46.56732" lon="-1.7736">
        <ele>-151.80000305176</ele>
        <time>2021-02-23T10:03:40.000Z</time>
      </trkpt>
      <trkpt lat="46.56727" lon="-1.77356">
        <ele>-151.80000305176</ele>
        <time>2021-02-23T10:03:41.000Z</time>
      </trkpt>
      <trkpt lat="46.56723" lon="-1.77352">
        <ele>-151.80000305176</ele>
        <time>2021-02-23T10:03:42.000Z</time>
      </trkpt>
      <trkpt lat="46.56718" lon="-1.77349">
        <ele>-151.80000305176</ele>
        <time>2021-02-23T10:03:43.000Z</time>
      </trkpt>
      <trkpt lat="46.56714" lon="-1.77346">
        <ele>-151.60000610352</ele>
        <time>2021-02-23T10:03:44.000Z</time>
      </trkpt>
      <trkpt lat="46.5671" lon="-1.77342">
        <ele>-151.60000610352</ele>
        <time>2021-02-23T10:03:45.000Z</time>
      </trkpt>
      <trkpt lat="46.56697" lon="-1.77332">
        <ele>-150.60000610352</ele>
        <time>2021-02-23T10:03:48.000Z</time>
      </trkpt>
      <trkpt lat="46.56693" lon="-1.77329">
        <ele>-150</ele>
        <time>2021-02-23T10:03:49.000Z</time>
      </trkpt>
      <trkpt lat="46.56689" lon="-1.77327">
        <ele>-149.80000305176</ele>
        <time>2021-02-23T10:03:50.000Z</time>
      </trkpt>
      <trkpt lat="46.56685" lon="-1.77323">
        <ele>-149.80000305176</ele>
        <time>2021-02-23T10:03:51.000Z</time>
      </trkpt>
      <trkpt lat="46.56681" lon="-1.77321">
        <ele>-149.60000610352</ele>
        <time>2021-02-23T10:03:52.000Z</time>
      </trkpt>
      <trkpt lat="46.56677" lon="-1.77318">
        <ele>-149.60000610352</ele>
        <time>2021-02-23T10:03:53.000Z</time>
      </trkpt>
      <trkpt lat="46.56664" lon="-1.77309">
        <ele>-149.39999389648</ele>
        <time>2021-02-23T10:03:56.000Z</time>
      </trkpt>
      <trkpt lat="46.5666" lon="-1.77307">
        <ele>-149.39999389648</ele>
        <time>2021-02-23T10:03:57.000Z</time>
      </trkpt>
      <trkpt lat="46.56656" lon="-1.77304">
        <ele>-149.39999389648</ele>
        <time>2021-02-23T10:03:58.000Z</time>
      </trkpt>
      <trkpt lat="46.56652" lon="-1.77301">
        <ele>-149.39999389648</ele>
        <time>2021-02-23T10:03:59.000Z</time>
      </trkpt>
      <trkpt lat="46.56648" lon="-1.77298">
        <ele>-149.39999389648</ele>
        <time>2021-02-23T10:04:00.000Z</time>
      </trkpt>
      <trkpt lat="46.56645" lon="-1.77296">
        <ele>-149.39999389648</ele>
        <time>2021-02-23T10:04:01.000Z</time>
      </trkpt>
      <trkpt lat="46.56634" lon="-1.77288">
        <ele>-149.39999389648</ele>
        <time>2021-02-23T10:04:04.000Z</time>
      </trkpt>
      <trkpt lat="46.56631" lon="-1.77285">
        <ele>-149.39999389648</ele>
        <time>2021-02-23T10:04:05.000Z</time>
      </trkpt>
      <trkpt lat="46.56627" lon="-1.77281">
        <ele>-149.39999389648</ele>
        <time>2021-02-23T10:04:06.000Z</time>
      </trkpt>
      <trkpt lat="46.56623" lon="-1.77278">
        <ele>-149.39999389648</ele>
        <time>2021-02-23T10:04:07.000Z</time>
      </trkpt>
      <trkpt lat="46.5662" lon="-1.77274">
        <ele>-149.19999694824</ele>
        <time>2021-02-23T10:04:08.000Z</time>
      </trkpt>
      <trkpt lat="46.56618" lon="-1.7727">
        <ele>-149.19999694824</ele>
        <time>2021-02-23T10:04:09.000Z</time>
      </trkpt>
      <trkpt lat="46.56615" lon="-1.77265">
        <ele>-149.19999694824</ele>
        <time>2021-02-23T10:04:10.000Z</time>
      </trkpt>
      <trkpt lat="46.56612" lon="-1.77261">
        <ele>-149.19999694824</ele>
        <time>2021-02-23T10:04:11.000Z</time>
      </trkpt>
      <trkpt lat="46.566" lon="-1.7725">
        <ele>-149</ele>
        <time>2021-02-23T10:04:15.000Z</time>
      </trkpt>
      <trkpt lat="46.56596" lon="-1.77249">
        <ele>-149</ele>
        <time>2021-02-23T10:04:16.000Z</time>
      </trkpt>
      <trkpt lat="46.56591" lon="-1.77247">
        <ele>-149</ele>
        <time>2021-02-23T10:04:17.000Z</time>
      </trkpt>
      <trkpt lat="46.56588" lon="-1.77245">
        <ele>-149</ele>
        <time>2021-02-23T10:04:18.000Z</time>
      </trkpt>
      <trkpt lat="46.56575" lon="-1.77238">
        <ele>-149</ele>
        <time>2021-02-23T10:04:21.000Z</time>
      </trkpt>
      <trkpt lat="46.5655" lon="-1.77227">
        <ele>-149.39999389648</ele>
        <time>2021-02-23T10:04:26.000Z</time>
      </trkpt>
      <trkpt lat="46.56533" lon="-1.77221">
        <ele>-149.60000610352</ele>
        <time>2021-02-23T10:04:29.000Z</time>
      </trkpt>
      <trkpt lat="46.56533" lon="-1.77221">
        <ele>-149.60000610352</ele>
        <time>2021-02-23T10:04:30.000Z</time>
      </trkpt>
      <trkpt lat="46.56523" lon="-1.77217">
        <ele>-149.60000610352</ele>
        <time>2021-02-23T10:04:31.000Z</time>
      </trkpt>
      <trkpt lat="46.56516" lon="-1.77214">
        <ele>-149.80000305176</ele>
        <time>2021-02-23T10:04:32.000Z</time>
      </trkpt>
      <trkpt lat="46.5651" lon="-1.77212">
        <ele>-149.80000305176</ele>
        <time>2021-02-23T10:04:33.000Z</time>
      </trkpt>
      <trkpt lat="46.56505" lon="-1.77211">
        <ele>-149.80000305176</ele>
        <time>2021-02-23T10:04:34.000Z</time>
      </trkpt>
      <trkpt lat="46.565" lon="-1.77209">
        <ele>-150</ele>
        <time>2021-02-23T10:04:35.000Z</time>
      </trkpt>
      <trkpt lat="46.56494" lon="-1.77207">
        <ele>-150.19999694824</ele>
        <time>2021-02-23T10:04:36.000Z</time>
      </trkpt>
      <trkpt lat="46.56494" lon="-1.77207">
        <ele>-150.19999694824</ele>
        <time>2021-02-23T10:04:37.000Z</time>
      </trkpt>
      <trkpt lat="46.56485" lon="-1.77206">
        <ele>-150.19999694824</ele>
        <time>2021-02-23T10:04:38.000Z</time>
      </trkpt>
      <trkpt lat="46.5648" lon="-1.77205">
        <ele>-150.39999389648</ele>
        <time>2021-02-23T10:04:39.000Z</time>
      </trkpt>
      <trkpt lat="46.56475" lon="-1.77204">
        <ele>-150.39999389648</ele>
        <time>2021-02-23T10:04:40.000Z</time>
      </trkpt>
      <trkpt lat="46.5647" lon="-1.77203">
        <ele>-150.60000610352</ele>
        <time>2021-02-23T10:04:41.000Z</time>
      </trkpt>
      <trkpt lat="46.56467" lon="-1.77203">
        <ele>-150.80000305176</ele>
        <time>2021-02-23T10:04:42.000Z</time>
      </trkpt>
      <trkpt lat="46.5646" lon="-1.77207">
        <ele>-151</ele>
        <time>2021-02-23T10:04:44.000Z</time>
      </trkpt>
      <trkpt lat="46.56457" lon="-1.7721">
        <ele>-151.19999694824</ele>
        <time>2021-02-23T10:04:45.000Z</time>
      </trkpt>
      <trkpt lat="46.56454" lon="-1.77213">
        <ele>-151.19999694824</ele>
        <time>2021-02-23T10:04:46.000Z</time>
      </trkpt>
      <trkpt lat="46.56444" lon="-1.77215">
        <ele>-151.60000610352</ele>
        <time>2021-02-23T10:04:48.000Z</time>
      </trkpt>
      <trkpt lat="46.5644" lon="-1.77215">
        <ele>-151.60000610352</ele>
        <time>2021-02-23T10:04:49.000Z</time>
      </trkpt>
      <trkpt lat="46.56435" lon="-1.77214">
        <ele>-151.80000305176</ele>
        <time>2021-02-23T10:04:50.000Z</time>
      </trkpt>
      <trkpt lat="46.56431" lon="-1.77212">
        <ele>-151.80000305176</ele>
        <time>2021-02-23T10:04:51.000Z</time>
      </trkpt>
      <trkpt lat="46.56431" lon="-1.77212">
        <ele>-151.80000305176</ele>
        <time>2021-02-23T10:04:52.000Z</time>
      </trkpt>
      <trkpt lat="46.56422" lon="-1.77207">
        <ele>-151.80000305176</ele>
        <time>2021-02-23T10:04:53.000Z</time>
      </trkpt>
      <trkpt lat="46.5641" lon="-1.77196">
        <ele>-151.60000610352</ele>
        <time>2021-02-23T10:04:56.000Z</time>
      </trkpt>
      <trkpt lat="46.56404" lon="-1.77184">
        <ele>-151.60000610352</ele>
        <time>2021-02-23T10:04:58.000Z</time>
      </trkpt>
      <trkpt lat="46.56401" lon="-1.77178">
        <ele>-151.39999389648</ele>
        <time>2021-02-23T10:05:00.000Z</time>
      </trkpt>
      <trkpt lat="46.5639" lon="-1.77158">
        <ele>-151</ele>
        <time>2021-02-23T10:05:03.000Z</time>
      </trkpt>
      <trkpt lat="46.56388" lon="-1.77152">
        <ele>-151</ele>
        <time>2021-02-23T10:05:04.000Z</time>
      </trkpt>
      <trkpt lat="46.56385" lon="-1.77147">
        <ele>-151</ele>
        <time>2021-02-23T10:05:05.000Z</time>
      </trkpt>
      <trkpt lat="46.56375" lon="-1.77125">
        <ele>-150.80000305176</ele>
        <time>2021-02-23T10:05:09.000Z</time>
      </trkpt>
      <trkpt lat="46.56363" lon="-1.77104">
        <ele>-151</ele>
        <time>2021-02-23T10:05:14.000Z</time>
      </trkpt>
      <trkpt lat="46.56351" lon="-1.77081">
        <ele>-151</ele>
        <time>2021-02-23T10:05:17.000Z</time>
      </trkpt>
      <trkpt lat="46.56334" lon="-1.77046">
        <ele>-150.60000610352</ele>
        <time>2021-02-23T10:05:23.000Z</time>
      </trkpt>
      <trkpt lat="46.56331" lon="-1.77041">
        <ele>-150.60000610352</ele>
        <time>2021-02-23T10:05:24.000Z</time>
      </trkpt>
      <trkpt lat="46.56328" lon="-1.77034">
        <ele>-150.60000610352</ele>
        <time>2021-02-23T10:05:25.000Z</time>
      </trkpt>
      <trkpt lat="46.56326" lon="-1.77028">
        <ele>-150.60000610352</ele>
        <time>2021-02-23T10:05:26.000Z</time>
      </trkpt>
      <trkpt lat="46.56323" lon="-1.77022">
        <ele>-150.60000610352</ele>
        <time>2021-02-23T10:05:27.000Z</time>
      </trkpt>
      <trkpt lat="46.5632" lon="-1.77016">
        <ele>-150.60000610352</ele>
        <time>2021-02-23T10:05:28.000Z</time>
      </trkpt>
      <trkpt lat="46.56317" lon="-1.77011">
        <ele>-150.39999389648</ele>
        <time>2021-02-23T10:05:29.000Z</time>
      </trkpt>
      <trkpt lat="46.56313" lon="-1.77005">
        <ele>-150.39999389648</ele>
        <time>2021-02-23T10:05:30.000Z</time>
      </trkpt>
      <trkpt lat="46.56309" lon="-1.77001">
        <ele>-150.39999389648</ele>
        <time>2021-02-23T10:05:31.000Z</time>
      </trkpt>
      <trkpt lat="46.563" lon="-1.76992">
        <ele>-150.39999389648</ele>
        <time>2021-02-23T10:05:33.000Z</time>
      </trkpt>
      <trkpt lat="46.56292" lon="-1.76986">
        <ele>-150.19999694824</ele>
        <time>2021-02-23T10:05:35.000Z</time>
      </trkpt>
      <trkpt lat="46.56288" lon="-1.76984">
        <ele>-150.19999694824</ele>
        <time>2021-02-23T10:05:36.000Z</time>
      </trkpt>
      <trkpt lat="46.56283" lon="-1.76982">
        <ele>-150</ele>
        <time>2021-02-23T10:05:37.000Z</time>
      </trkpt>
      <trkpt lat="46.56256" lon="-1.76976">
        <ele>-150</ele>
        <time>2021-02-23T10:05:42.000Z</time>
      </trkpt>
      <trkpt lat="46.56245" lon="-1.76977">
        <ele>-150</ele>
        <time>2021-02-23T10:05:44.000Z</time>
      </trkpt>
      <trkpt lat="46.5624" lon="-1.76978">
        <ele>-150</ele>
        <time>2021-02-23T10:05:45.000Z</time>
      </trkpt>
      <trkpt lat="46.56229" lon="-1.76982">
        <ele>-150</ele>
        <time>2021-02-23T10:05:47.000Z</time>
      </trkpt>
      <trkpt lat="46.56224" lon="-1.76984">
        <ele>-150</ele>
        <time>2021-02-23T10:05:48.000Z</time>
      </trkpt>
      <trkpt lat="46.56214" lon="-1.76988">
        <ele>-150</ele>
        <time>2021-02-23T10:05:50.000Z</time>
      </trkpt>
      <trkpt lat="46.56189" lon="-1.77">
        <ele>-150.19999694824</ele>
        <time>2021-02-23T10:05:55.000Z</time>
      </trkpt>
      <trkpt lat="46.56184" lon="-1.77002">
        <ele>-150</ele>
        <time>2021-02-23T10:05:56.000Z</time>
      </trkpt>
      <trkpt lat="46.56179" lon="-1.77004">
        <ele>-150</ele>
        <time>2021-02-23T10:05:57.000Z</time>
      </trkpt>
      <trkpt lat="46.56174" lon="-1.77005">
        <ele>-150.19999694824</ele>
        <time>2021-02-23T10:05:58.000Z</time>
      </trkpt>
      <trkpt lat="46.56169" lon="-1.77005">
        <ele>-150.19999694824</ele>
        <time>2021-02-23T10:05:59.000Z</time>
      </trkpt>
      <trkpt lat="46.56165" lon="-1.77003">
        <ele>-150.19999694824</ele>
        <time>2021-02-23T10:06:00.000Z</time>
      </trkpt>
      <trkpt lat="46.5616" lon="-1.76999">
        <ele>-150.39999389648</ele>
        <time>2021-02-23T10:06:01.000Z</time>
      </trkpt>
      <trkpt lat="46.56157" lon="-1.76994">
        <ele>-150.39999389648</ele>
        <time>2021-02-23T10:06:02.000Z</time>
      </trkpt>
      <trkpt lat="46.56155" lon="-1.76987">
        <ele>-150.39999389648</ele>
        <time>2021-02-23T10:06:03.000Z</time>
      </trkpt>
      <trkpt lat="46.56154" lon="-1.7698">
        <ele>-150.39999389648</ele>
        <time>2021-02-23T10:06:04.000Z</time>
      </trkpt>
      <trkpt lat="46.56153" lon="-1.76973">
        <ele>-150.39999389648</ele>
        <time>2021-02-23T10:06:05.000Z</time>
      </trkpt>
      <trkpt lat="46.56152" lon="-1.76966">
        <ele>-150.39999389648</ele>
        <time>2021-02-23T10:06:06.000Z</time>
      </trkpt>
      <trkpt lat="46.56143" lon="-1.76916">
        <ele>-150.60000610352</ele>
        <time>2021-02-23T10:06:13.000Z</time>
      </trkpt>
      <trkpt lat="46.56142" lon="-1.76909">
        <ele>-150.60000610352</ele>
        <time>2021-02-23T10:06:14.000Z</time>
      </trkpt>
      <trkpt lat="46.56139" lon="-1.76895">
        <ele>-150.60000610352</ele>
        <time>2021-02-23T10:06:16.000Z</time>
      </trkpt>
      <trkpt lat="46.56137" lon="-1.76888">
        <ele>-150.60000610352</ele>
        <time>2021-02-23T10:06:17.000Z</time>
      </trkpt>
      <trkpt lat="46.56135" lon="-1.76882">
        <ele>-150.60000610352</ele>
        <time>2021-02-23T10:06:18.000Z</time>
      </trkpt>
      <trkpt lat="46.56133" lon="-1.76876">
        <ele>-150.39999389648</ele>
        <time>2021-02-23T10:06:19.000Z</time>
      </trkpt>
      <trkpt lat="46.56132" lon="-1.7687">
        <ele>-150.39999389648</ele>
        <time>2021-02-23T10:06:20.000Z</time>
      </trkpt>
      <trkpt lat="46.5613" lon="-1.76864">
        <ele>-150.19999694824</ele>
        <time>2021-02-23T10:06:21.000Z</time>
      </trkpt>
      <trkpt lat="46.56128" lon="-1.76858">
        <ele>-150</ele>
        <time>2021-02-23T10:06:22.000Z</time>
      </trkpt>
      <trkpt lat="46.56127" lon="-1.76853">
        <ele>-149.80000305176</ele>
        <time>2021-02-23T10:06:23.000Z</time>
      </trkpt>
      <trkpt lat="46.56125" lon="-1.76847">
        <ele>-149.39999389648</ele>
        <time>2021-02-23T10:06:24.000Z</time>
      </trkpt>
      <trkpt lat="46.56123" lon="-1.76842">
        <ele>-149.39999389648</ele>
        <time>2021-02-23T10:06:25.000Z</time>
      </trkpt>
      <trkpt lat="46.56121" lon="-1.76831">
        <ele>-149.19999694824</ele>
        <time>2021-02-23T10:06:27.000Z</time>
      </trkpt>
      <trkpt lat="46.56119" lon="-1.76825">
        <ele>-149</ele>
        <time>2021-02-23T10:06:28.000Z</time>
      </trkpt>
      <trkpt lat="46.56115" lon="-1.76807">
        <ele>-149</ele>
        <time>2021-02-23T10:06:31.000Z</time>
      </trkpt>
      <trkpt lat="46.56113" lon="-1.76802">
        <ele>-149</ele>
        <time>2021-02-23T10:06:32.000Z</time>
      </trkpt>
      <trkpt lat="46.56112" lon="-1.76796">
        <ele>-148.80000305176</ele>
        <time>2021-02-23T10:06:33.000Z</time>
      </trkpt>
      <trkpt lat="46.5611" lon="-1.7679">
        <ele>-148.80000305176</ele>
        <time>2021-02-23T10:06:34.000Z</time>
      </trkpt>
      <trkpt lat="46.56105" lon="-1.76776">
        <ele>-148.60000610352</ele>
        <time>2021-02-23T10:06:37.000Z</time>
      </trkpt>
      <trkpt lat="46.56102" lon="-1.76766">
        <ele>-148.60000610352</ele>
        <time>2021-02-23T10:06:39.000Z</time>
      </trkpt>
      <trkpt lat="46.56101" lon="-1.76761">
        <ele>-148.39999389648</ele>
        <time>2021-02-23T10:06:40.000Z</time>
      </trkpt>
      <trkpt lat="46.561" lon="-1.76755">
        <ele>-148.39999389648</ele>
        <time>2021-02-23T10:06:41.000Z</time>
      </trkpt>
      <trkpt lat="46.56099" lon="-1.76751">
        <ele>-148.39999389648</ele>
        <time>2021-02-23T10:06:42.000Z</time>
      </trkpt>
      <trkpt lat="46.56096" lon="-1.76741">
        <ele>-148.39999389648</ele>
        <time>2021-02-23T10:06:44.000Z</time>
      </trkpt>
      <trkpt lat="46.5609" lon="-1.76722">
        <ele>-148</ele>
        <time>2021-02-23T10:06:48.000Z</time>
      </trkpt>
      <trkpt lat="46.56081" lon="-1.76687">
        <ele>-147.80000305176</ele>
        <time>2021-02-23T10:06:54.000Z</time>
      </trkpt>
      <trkpt lat="46.56079" lon="-1.76682">
        <ele>-147.80000305176</ele>
        <time>2021-02-23T10:06:55.000Z</time>
      </trkpt>
      <trkpt lat="46.56074" lon="-1.76665">
        <ele>-147.60000610352</ele>
        <time>2021-02-23T10:06:58.000Z</time>
      </trkpt>
      <trkpt lat="46.56072" lon="-1.7666">
        <ele>-147.60000610352</ele>
        <time>2021-02-23T10:06:59.000Z</time>
      </trkpt>
      <trkpt lat="46.5607" lon="-1.76654">
        <ele>-147.39999389648</ele>
        <time>2021-02-23T10:07:00.000Z</time>
      </trkpt>
      <trkpt lat="46.56069" lon="-1.76648">
        <ele>-147.19999694824</ele>
        <time>2021-02-23T10:07:01.000Z</time>
      </trkpt>
      <trkpt lat="46.56067" lon="-1.76643">
        <ele>-147</ele>
        <time>2021-02-23T10:07:02.000Z</time>
      </trkpt>
      <trkpt lat="46.56066" lon="-1.76637">
        <ele>-147</ele>
        <time>2021-02-23T10:07:03.000Z</time>
      </trkpt>
      <trkpt lat="46.56064" lon="-1.76631">
        <ele>-147</ele>
        <time>2021-02-23T10:07:04.000Z</time>
      </trkpt>
      <trkpt lat="46.56062" lon="-1.76614">
        <ele>-146.80000305176</ele>
        <time>2021-02-23T10:07:07.000Z</time>
      </trkpt>
      <trkpt lat="46.5606" lon="-1.76597">
        <ele>-146.80000305176</ele>
        <time>2021-02-23T10:07:10.000Z</time>
      </trkpt>
      <trkpt lat="46.56059" lon="-1.76592">
        <ele>-146.60000610352</ele>
        <time>2021-02-23T10:07:11.000Z</time>
      </trkpt>
      <trkpt lat="46.56059" lon="-1.76586">
        <ele>-146.60000610352</ele>
        <time>2021-02-23T10:07:12.000Z</time>
      </trkpt>
      <trkpt lat="46.56059" lon="-1.76581">
        <ele>-146.60000610352</ele>
        <time>2021-02-23T10:07:13.000Z</time>
      </trkpt>
      <trkpt lat="46.56059" lon="-1.76575">
        <ele>-146.60000610352</ele>
        <time>2021-02-23T10:07:14.000Z</time>
      </trkpt>
      <trkpt lat="46.56059" lon="-1.7657">
        <ele>-146.39999389648</ele>
        <time>2021-02-23T10:07:15.000Z</time>
      </trkpt>
      <trkpt lat="46.56058" lon="-1.76565">
        <ele>-146.39999389648</ele>
        <time>2021-02-23T10:07:16.000Z</time>
      </trkpt>
      <trkpt lat="46.56058" lon="-1.76559">
        <ele>-146.39999389648</ele>
        <time>2021-02-23T10:07:17.000Z</time>
      </trkpt>
      <trkpt lat="46.56058" lon="-1.76554">
        <ele>-146.19999694824</ele>
        <time>2021-02-23T10:07:18.000Z</time>
      </trkpt>
      <trkpt lat="46.56058" lon="-1.76549">
        <ele>-146.19999694824</ele>
        <time>2021-02-23T10:07:19.000Z</time>
      </trkpt>
      <trkpt lat="46.56058" lon="-1.76545">
        <ele>-146.19999694824</ele>
        <time>2021-02-23T10:07:20.000Z</time>
      </trkpt>
      <trkpt lat="46.56059" lon="-1.76542">
        <ele>-146</ele>
        <time>2021-02-23T10:07:21.000Z</time>
      </trkpt>
      <trkpt lat="46.56059" lon="-1.76538">
        <ele>-146</ele>
        <time>2021-02-23T10:07:22.000Z</time>
      </trkpt>
      <trkpt lat="46.5606" lon="-1.76535">
        <ele>-145.80000305176</ele>
        <time>2021-02-23T10:07:23.000Z</time>
      </trkpt>
      <trkpt lat="46.56062" lon="-1.76505">
        <ele>-145</ele>
        <time>2021-02-23T10:07:29.000Z</time>
      </trkpt>
      <trkpt lat="46.56063" lon="-1.76495">
        <ele>-144.80000305176</ele>
        <time>2021-02-23T10:07:31.000Z</time>
      </trkpt>
      <trkpt lat="46.56063" lon="-1.76462">
        <ele>-144.60000610352</ele>
        <time>2021-02-23T10:07:37.000Z</time>
      </trkpt>
      <trkpt lat="46.56065" lon="-1.76444">
        <ele>-144.39999389648</ele>
        <time>2021-02-23T10:07:41.000Z</time>
      </trkpt>
      <trkpt lat="46.56065" lon="-1.76422">
        <ele>-144.19999694824</ele>
        <time>2021-02-23T10:07:44.000Z</time>
      </trkpt>
      <trkpt lat="46.56065" lon="-1.7641">
        <ele>-144.19999694824</ele>
        <time>2021-02-23T10:07:46.000Z</time>
      </trkpt>
      <trkpt lat="46.56064" lon="-1.76404">
        <ele>-144</ele>
        <time>2021-02-23T10:07:47.000Z</time>
      </trkpt>
      <trkpt lat="46.56063" lon="-1.76388">
        <ele>-143.80000305176</ele>
        <time>2021-02-23T10:07:50.000Z</time>
      </trkpt>
      <trkpt lat="46.56056" lon="-1.76344">
        <ele>-143.39999389648</ele>
        <time>2021-02-23T10:07:57.000Z</time>
      </trkpt>
      <trkpt lat="46.56055" lon="-1.76338">
        <ele>-143.39999389648</ele>
        <time>2021-02-23T10:07:58.000Z</time>
      </trkpt>
      <trkpt lat="46.56054" lon="-1.76332">
        <ele>-143.39999389648</ele>
        <time>2021-02-23T10:07:59.000Z</time>
      </trkpt>
      <trkpt lat="46.56054" lon="-1.76332">
        <ele>-143.39999389648</ele>
        <time>2021-02-23T10:08:00.000Z</time>
      </trkpt>
      <trkpt lat="46.56046" lon="-1.76278">
        <ele>-143.39999389648</ele>
        <time>2021-02-23T10:08:08.000Z</time>
      </trkpt>
      <trkpt lat="46.5604" lon="-1.76232">
        <ele>-144.39999389648</ele>
        <time>2021-02-23T10:08:15.000Z</time>
      </trkpt>
      <trkpt lat="46.5604" lon="-1.76225">
        <ele>-144.39999389648</ele>
        <time>2021-02-23T10:08:16.000Z</time>
      </trkpt>
      <trkpt lat="46.56037" lon="-1.76191">
        <ele>-144.80000305176</ele>
        <time>2021-02-23T10:08:20.000Z</time>
      </trkpt>
      <trkpt lat="46.56035" lon="-1.76173">
        <ele>-144.80000305176</ele>
        <time>2021-02-23T10:08:22.000Z</time>
      </trkpt>
      <trkpt lat="46.5603" lon="-1.76132">
        <ele>-145.39999389648</ele>
        <time>2021-02-23T10:08:26.000Z</time>
      </trkpt>
      <trkpt lat="46.56026" lon="-1.76098">
        <ele>-146</ele>
        <time>2021-02-23T10:08:29.000Z</time>
      </trkpt>
      <trkpt lat="46.56021" lon="-1.76064">
        <ele>-147.19999694824</ele>
        <time>2021-02-23T10:08:32.000Z</time>
      </trkpt>
      <trkpt lat="46.5602" lon="-1.76052">
        <ele>-147.60000610352</ele>
        <time>2021-02-23T10:08:33.000Z</time>
      </trkpt>
      <trkpt lat="46.56015" lon="-1.76015">
        <ele>-148.60000610352</ele>
        <time>2021-02-23T10:08:36.000Z</time>
      </trkpt>
      <trkpt lat="46.56011" lon="-1.75989">
        <ele>-149.60000610352</ele>
        <time>2021-02-23T10:08:38.000Z</time>
      </trkpt>
      <trkpt lat="46.56009" lon="-1.75977">
        <ele>-150.39999389648</ele>
        <time>2021-02-23T10:08:39.000Z</time>
      </trkpt>
      <trkpt lat="46.56008" lon="-1.75963">
        <ele>-150.80000305176</ele>
        <time>2021-02-23T10:08:40.000Z</time>
      </trkpt>
      <trkpt lat="46.56004" lon="-1.75934">
        <ele>-152</ele>
        <time>2021-02-23T10:08:42.000Z</time>
      </trkpt>
      <trkpt lat="46.56003" lon="-1.75924">
        <ele>-153</ele>
        <time>2021-02-23T10:08:43.000Z</time>
      </trkpt>
      <trkpt lat="46.56001" lon="-1.75911">
        <ele>-153.39999389648</ele>
        <time>2021-02-23T10:08:44.000Z</time>
      </trkpt>
      <trkpt lat="46.56" lon="-1.75898">
        <ele>-154.19999694824</ele>
        <time>2021-02-23T10:08:45.000Z</time>
      </trkpt>
      <trkpt lat="46.55998" lon="-1.75887">
        <ele>-155</ele>
        <time>2021-02-23T10:08:46.000Z</time>
      </trkpt>
      <trkpt lat="46.55997" lon="-1.75876">
        <ele>-155.39999389648</ele>
        <time>2021-02-23T10:08:47.000Z</time>
      </trkpt>
      <trkpt lat="46.55996" lon="-1.75868">
        <ele>-156</ele>
        <time>2021-02-23T10:08:48.000Z</time>
      </trkpt>
      <trkpt lat="46.55995" lon="-1.75858">
        <ele>-156.19999694824</ele>
        <time>2021-02-23T10:08:49.000Z</time>
      </trkpt>
      <trkpt lat="46.55993" lon="-1.75851">
        <ele>-156.60000610352</ele>
        <time>2021-02-23T10:08:50.000Z</time>
      </trkpt>
      <trkpt lat="46.55989" lon="-1.75847">
        <ele>-157</ele>
        <time>2021-02-23T10:08:51.000Z</time>
      </trkpt>
      <trkpt lat="46.55985" lon="-1.75844">
        <ele>-157.19999694824</ele>
        <time>2021-02-23T10:08:52.000Z</time>
      </trkpt>
      <trkpt lat="46.5598" lon="-1.75844">
        <ele>-157.80000305176</ele>
        <time>2021-02-23T10:08:53.000Z</time>
      </trkpt>
      <trkpt lat="46.55968" lon="-1.75844">
        <ele>-158.19999694824</ele>
        <time>2021-02-23T10:08:55.000Z</time>
      </trkpt>
      <trkpt lat="46.55963" lon="-1.75845">
        <ele>-158.39999389648</ele>
        <time>2021-02-23T10:08:56.000Z</time>
      </trkpt>
      <trkpt lat="46.55952" lon="-1.75848">
        <ele>-158.60000610352</ele>
        <time>2021-02-23T10:08:58.000Z</time>
      </trkpt>
      <trkpt lat="46.55941" lon="-1.75846">
        <ele>-158.80000305176</ele>
        <time>2021-02-23T10:09:00.000Z</time>
      </trkpt>
      <trkpt lat="46.55935" lon="-1.75843">
        <ele>-158.80000305176</ele>
        <time>2021-02-23T10:09:01.000Z</time>
      </trkpt>
      <trkpt lat="46.55929" lon="-1.7584">
        <ele>-159</ele>
        <time>2021-02-23T10:09:02.000Z</time>
      </trkpt>
      <trkpt lat="46.55908" lon="-1.75826">
        <ele>-159.39999389648</ele>
        <time>2021-02-23T10:09:06.000Z</time>
      </trkpt>
      <trkpt lat="46.55887" lon="-1.75814">
        <ele>-159.80000305176</ele>
        <time>2021-02-23T10:09:10.000Z</time>
      </trkpt>
      <trkpt lat="46.55881" lon="-1.75813">
        <ele>-159.80000305176</ele>
        <time>2021-02-23T10:09:11.000Z</time>
      </trkpt>
      <trkpt lat="46.55875" lon="-1.75813">
        <ele>-160</ele>
        <time>2021-02-23T10:09:12.000Z</time>
      </trkpt>
      <trkpt lat="46.5587" lon="-1.75814">
        <ele>-160</ele>
        <time>2021-02-23T10:09:13.000Z</time>
      </trkpt>
      <trkpt lat="46.55864" lon="-1.75815">
        <ele>-160</ele>
        <time>2021-02-23T10:09:14.000Z</time>
      </trkpt>
      <trkpt lat="46.55858" lon="-1.75816">
        <ele>-160</ele>
        <time>2021-02-23T10:09:15.000Z</time>
      </trkpt>
      <trkpt lat="46.55853" lon="-1.75817">
        <ele>-160</ele>
        <time>2021-02-23T10:09:16.000Z</time>
      </trkpt>
      <trkpt lat="46.55847" lon="-1.75819">
        <ele>-160</ele>
        <time>2021-02-23T10:09:17.000Z</time>
      </trkpt>
      <trkpt lat="46.55842" lon="-1.75821">
        <ele>-160</ele>
        <time>2021-02-23T10:09:18.000Z</time>
      </trkpt>
      <trkpt lat="46.55837" lon="-1.75823">
        <ele>-159.80000305176</ele>
        <time>2021-02-23T10:09:19.000Z</time>
      </trkpt>
      <trkpt lat="46.55832" lon="-1.75826">
        <ele>-159.80000305176</ele>
        <time>2021-02-23T10:09:20.000Z</time>
      </trkpt>
      <trkpt lat="46.55828" lon="-1.7583">
        <ele>-159.80000305176</ele>
        <time>2021-02-23T10:09:21.000Z</time>
      </trkpt>
      <trkpt lat="46.55808" lon="-1.75852">
        <ele>-159.80000305176</ele>
        <time>2021-02-23T10:09:26.000Z</time>
      </trkpt>
      <trkpt lat="46.55804" lon="-1.75855">
        <ele>-159.80000305176</ele>
        <time>2021-02-23T10:09:27.000Z</time>
      </trkpt>
      <trkpt lat="46.55801" lon="-1.75858">
        <ele>-159.80000305176</ele>
        <time>2021-02-23T10:09:28.000Z</time>
      </trkpt>
      <trkpt lat="46.55796" lon="-1.75863">
        <ele>-159.80000305176</ele>
        <time>2021-02-23T10:09:29.000Z</time>
      </trkpt>
      <trkpt lat="46.55792" lon="-1.75866">
        <ele>-159.80000305176</ele>
        <time>2021-02-23T10:09:30.000Z</time>
      </trkpt>
      <trkpt lat="46.55787" lon="-1.75868">
        <ele>-159.80000305176</ele>
        <time>2021-02-23T10:09:31.000Z</time>
      </trkpt>
      <trkpt lat="46.55783" lon="-1.7587">
        <ele>-159.80000305176</ele>
        <time>2021-02-23T10:09:32.000Z</time>
      </trkpt>
      <trkpt lat="46.55778" lon="-1.75871">
        <ele>-159.80000305176</ele>
        <time>2021-02-23T10:09:33.000Z</time>
      </trkpt>
      <trkpt lat="46.55773" lon="-1.75871">
        <ele>-159.80000305176</ele>
        <time>2021-02-23T10:09:34.000Z</time>
      </trkpt>
      <trkpt lat="46.55764" lon="-1.75873">
        <ele>-159.80000305176</ele>
        <time>2021-02-23T10:09:36.000Z</time>
      </trkpt>
      <trkpt lat="46.5576" lon="-1.75875">
        <ele>-159.60000610352</ele>
        <time>2021-02-23T10:09:37.000Z</time>
      </trkpt>
      <trkpt lat="46.55756" lon="-1.75878">
        <ele>-159.60000610352</ele>
        <time>2021-02-23T10:09:38.000Z</time>
      </trkpt>
      <trkpt lat="46.55753" lon="-1.75882">
        <ele>-159.60000610352</ele>
        <time>2021-02-23T10:09:39.000Z</time>
      </trkpt>
      <trkpt lat="46.55749" lon="-1.75885">
        <ele>-159.60000610352</ele>
        <time>2021-02-23T10:09:40.000Z</time>
      </trkpt>
      <trkpt lat="46.55741" lon="-1.75892">
        <ele>-159.60000610352</ele>
        <time>2021-02-23T10:09:42.000Z</time>
      </trkpt>
      <trkpt lat="46.55737" lon="-1.75895">
        <ele>-159.60000610352</ele>
        <time>2021-02-23T10:09:43.000Z</time>
      </trkpt>
      <trkpt lat="46.55725" lon="-1.75907">
        <ele>-159.60000610352</ele>
        <time>2021-02-23T10:09:46.000Z</time>
      </trkpt>
      <trkpt lat="46.55716" lon="-1.75915">
        <ele>-159.80000305176</ele>
        <time>2021-02-23T10:09:48.000Z</time>
      </trkpt>
      <trkpt lat="46.55706" lon="-1.75923">
        <ele>-159.80000305176</ele>
        <time>2021-02-23T10:09:50.000Z</time>
      </trkpt>
      <trkpt lat="46.55701" lon="-1.75928">
        <ele>-159.80000305176</ele>
        <time>2021-02-23T10:09:51.000Z</time>
      </trkpt>
      <trkpt lat="46.55696" lon="-1.75934">
        <ele>-159.80000305176</ele>
        <time>2021-02-23T10:09:52.000Z</time>
      </trkpt>
      <trkpt lat="46.55692" lon="-1.75939">
        <ele>-159.80000305176</ele>
        <time>2021-02-23T10:09:53.000Z</time>
      </trkpt>
      <trkpt lat="46.55688" lon="-1.75945">
        <ele>-159.80000305176</ele>
        <time>2021-02-23T10:09:54.000Z</time>
      </trkpt>
      <trkpt lat="46.55684" lon="-1.7595">
        <ele>-159.80000305176</ele>
        <time>2021-02-23T10:09:55.000Z</time>
      </trkpt>
      <trkpt lat="46.5568" lon="-1.75955">
        <ele>-159.80000305176</ele>
        <time>2021-02-23T10:09:56.000Z</time>
      </trkpt>
      <trkpt lat="46.55676" lon="-1.7596">
        <ele>-159.80000305176</ele>
        <time>2021-02-23T10:09:57.000Z</time>
      </trkpt>
      <trkpt lat="46.55673" lon="-1.75966">
        <ele>-159.60000610352</ele>
        <time>2021-02-23T10:09:58.000Z</time>
      </trkpt>
      <trkpt lat="46.5567" lon="-1.7597">
        <ele>-159.39999389648</ele>
        <time>2021-02-23T10:09:59.000Z</time>
      </trkpt>
      <trkpt lat="46.55667" lon="-1.75975">
        <ele>-159.39999389648</ele>
        <time>2021-02-23T10:10:00.000Z</time>
      </trkpt>
      <trkpt lat="46.55664" lon="-1.75978">
        <ele>-159.19999694824</ele>
        <time>2021-02-23T10:10:01.000Z</time>
      </trkpt>
      <trkpt lat="46.5565" lon="-1.75996">
        <ele>-158.39999389648</ele>
        <time>2021-02-23T10:10:05.000Z</time>
      </trkpt>
      <trkpt lat="46.55641" lon="-1.76009">
        <ele>-157.80000305176</ele>
        <time>2021-02-23T10:10:08.000Z</time>
      </trkpt>
      <trkpt lat="46.55636" lon="-1.76017">
        <ele>-157.60000610352</ele>
        <time>2021-02-23T10:10:10.000Z</time>
      </trkpt>
      <trkpt lat="46.55633" lon="-1.76022">
        <ele>-157.39999389648</ele>
        <time>2021-02-23T10:10:11.000Z</time>
      </trkpt>
      <trkpt lat="46.5563" lon="-1.76026">
        <ele>-157.19999694824</ele>
        <time>2021-02-23T10:10:12.000Z</time>
      </trkpt>
      <trkpt lat="46.55628" lon="-1.7603">
        <ele>-157.19999694824</ele>
        <time>2021-02-23T10:10:13.000Z</time>
      </trkpt>
      <trkpt lat="46.55625" lon="-1.76034">
        <ele>-157</ele>
        <time>2021-02-23T10:10:14.000Z</time>
      </trkpt>
      <trkpt lat="46.55622" lon="-1.76038">
        <ele>-157</ele>
        <time>2021-02-23T10:10:15.000Z</time>
      </trkpt>
      <trkpt lat="46.5562" lon="-1.76041">
        <ele>-156.80000305176</ele>
        <time>2021-02-23T10:10:16.000Z</time>
      </trkpt>
      <trkpt lat="46.55618" lon="-1.76044">
        <ele>-156.80000305176</ele>
        <time>2021-02-23T10:10:17.000Z</time>
      </trkpt>
      <trkpt lat="46.55616" lon="-1.76048">
        <ele>-156.60000610352</ele>
        <time>2021-02-23T10:10:18.000Z</time>
      </trkpt>
      <trkpt lat="46.55614" lon="-1.76051">
        <ele>-156.60000610352</ele>
        <time>2021-02-23T10:10:19.000Z</time>
      </trkpt>
      <trkpt lat="46.55611" lon="-1.76054">
        <ele>-156.39999389648</ele>
        <time>2021-02-23T10:10:20.000Z</time>
      </trkpt>
      <trkpt lat="46.55609" lon="-1.76057">
        <ele>-156.39999389648</ele>
        <time>2021-02-23T10:10:21.000Z</time>
      </trkpt>
      <trkpt lat="46.55606" lon="-1.7606">
        <ele>-156</ele>
        <time>2021-02-23T10:10:22.000Z</time>
      </trkpt>
      <trkpt lat="46.55604" lon="-1.76063">
        <ele>-155.80000305176</ele>
        <time>2021-02-23T10:10:23.000Z</time>
      </trkpt>
      <trkpt lat="46.55601" lon="-1.76067">
        <ele>-155.60000610352</ele>
        <time>2021-02-23T10:10:24.000Z</time>
      </trkpt>
      <trkpt lat="46.55599" lon="-1.7607">
        <ele>-155.60000610352</ele>
        <time>2021-02-23T10:10:25.000Z</time>
      </trkpt>
      <trkpt lat="46.55596" lon="-1.76073">
        <ele>-155.39999389648</ele>
        <time>2021-02-23T10:10:26.000Z</time>
      </trkpt>
      <trkpt lat="46.55594" lon="-1.76076">
        <ele>-155.39999389648</ele>
        <time>2021-02-23T10:10:27.000Z</time>
      </trkpt>
      <trkpt lat="46.55591" lon="-1.76079">
        <ele>-155.39999389648</ele>
        <time>2021-02-23T10:10:28.000Z</time>
      </trkpt>
      <trkpt lat="46.55589" lon="-1.76081">
        <ele>-155.19999694824</ele>
        <time>2021-02-23T10:10:29.000Z</time>
      </trkpt>
      <trkpt lat="46.55586" lon="-1.76084">
        <ele>-155.19999694824</ele>
        <time>2021-02-23T10:10:30.000Z</time>
      </trkpt>
      <trkpt lat="46.55584" lon="-1.76086">
        <ele>-155</ele>
        <time>2021-02-23T10:10:31.000Z</time>
      </trkpt>
      <trkpt lat="46.55582" lon="-1.76087">
        <ele>-155</ele>
        <time>2021-02-23T10:10:32.000Z</time>
      </trkpt>
      <trkpt lat="46.55579" lon="-1.76089">
        <ele>-155</ele>
        <time>2021-02-23T10:10:33.000Z</time>
      </trkpt>
      <trkpt lat="46.55577" lon="-1.76092">
        <ele>-154.80000305176</ele>
        <time>2021-02-23T10:10:34.000Z</time>
      </trkpt>
      <trkpt lat="46.55574" lon="-1.76094">
        <ele>-154.80000305176</ele>
        <time>2021-02-23T10:10:35.000Z</time>
      </trkpt>
      <trkpt lat="46.55572" lon="-1.76096">
        <ele>-154.80000305176</ele>
        <time>2021-02-23T10:10:36.000Z</time>
      </trkpt>
      <trkpt lat="46.5557" lon="-1.76098">
        <ele>-154.80000305176</ele>
        <time>2021-02-23T10:10:37.000Z</time>
      </trkpt>
      <trkpt lat="46.55567" lon="-1.76099">
        <ele>-154.80000305176</ele>
        <time>2021-02-23T10:10:38.000Z</time>
      </trkpt>
      <trkpt lat="46.55564" lon="-1.76101">
        <ele>-154.60000610352</ele>
        <time>2021-02-23T10:10:39.000Z</time>
      </trkpt>
      <trkpt lat="46.55561" lon="-1.76103">
        <ele>-154.39999389648</ele>
        <time>2021-02-23T10:10:40.000Z</time>
      </trkpt>
      <trkpt lat="46.55558" lon="-1.76105">
        <ele>-154.19999694824</ele>
        <time>2021-02-23T10:10:41.000Z</time>
      </trkpt>
      <trkpt lat="46.55555" lon="-1.76107">
        <ele>-154</ele>
        <time>2021-02-23T10:10:42.000Z</time>
      </trkpt>
      <trkpt lat="46.55552" lon="-1.76108">
        <ele>-153.80000305176</ele>
        <time>2021-02-23T10:10:43.000Z</time>
      </trkpt>
      <trkpt lat="46.55549" lon="-1.7611">
        <ele>-153.80000305176</ele>
        <time>2021-02-23T10:10:44.000Z</time>
      </trkpt>
      <trkpt lat="46.55545" lon="-1.76112">
        <ele>-153.60000610352</ele>
        <time>2021-02-23T10:10:45.000Z</time>
      </trkpt>
      <trkpt lat="46.55542" lon="-1.76113">
        <ele>-153.60000610352</ele>
        <time>2021-02-23T10:10:46.000Z</time>
      </trkpt>
      <trkpt lat="46.55539" lon="-1.76115">
        <ele>-153.60000610352</ele>
        <time>2021-02-23T10:10:47.000Z</time>
      </trkpt>
      <trkpt lat="46.55535" lon="-1.76117">
        <ele>-153.39999389648</ele>
        <time>2021-02-23T10:10:48.000Z</time>
      </trkpt>
      <trkpt lat="46.55532" lon="-1.76119">
        <ele>-153.39999389648</ele>
        <time>2021-02-23T10:10:49.000Z</time>
      </trkpt>
      <trkpt lat="46.55528" lon="-1.76121">
        <ele>-153.19999694824</ele>
        <time>2021-02-23T10:10:50.000Z</time>
      </trkpt>
      <trkpt lat="46.55525" lon="-1.76122">
        <ele>-153</ele>
        <time>2021-02-23T10:10:51.000Z</time>
      </trkpt>
      <trkpt lat="46.55522" lon="-1.76123">
        <ele>-153</ele>
        <time>2021-02-23T10:10:52.000Z</time>
      </trkpt>
      <trkpt lat="46.55519" lon="-1.76124">
        <ele>-152.80000305176</ele>
        <time>2021-02-23T10:10:53.000Z</time>
      </trkpt>
      <trkpt lat="46.55515" lon="-1.76125">
        <ele>-152.60000610352</ele>
        <time>2021-02-23T10:10:54.000Z</time>
      </trkpt>
      <trkpt lat="46.55512" lon="-1.76126">
        <ele>-152.39999389648</ele>
        <time>2021-02-23T10:10:55.000Z</time>
      </trkpt>
      <trkpt lat="46.55509" lon="-1.76127">
        <ele>-152</ele>
        <time>2021-02-23T10:10:56.000Z</time>
      </trkpt>
      <trkpt lat="46.55506" lon="-1.76128">
        <ele>-151.80000305176</ele>
        <time>2021-02-23T10:10:57.000Z</time>
      </trkpt>
      <trkpt lat="46.55502" lon="-1.76129">
        <ele>-151.39999389648</ele>
        <time>2021-02-23T10:10:58.000Z</time>
      </trkpt>
      <trkpt lat="46.55499" lon="-1.7613">
        <ele>-151.39999389648</ele>
        <time>2021-02-23T10:10:59.000Z</time>
      </trkpt>
      <trkpt lat="46.55496" lon="-1.76131">
        <ele>-151.19999694824</ele>
        <time>2021-02-23T10:11:00.000Z</time>
      </trkpt>
      <trkpt lat="46.55493" lon="-1.76132">
        <ele>-151.19999694824</ele>
        <time>2021-02-23T10:11:01.000Z</time>
      </trkpt>
      <trkpt lat="46.5549" lon="-1.76133">
        <ele>-151</ele>
        <time>2021-02-23T10:11:02.000Z</time>
      </trkpt>
      <trkpt lat="46.55486" lon="-1.76134">
        <ele>-150.80000305176</ele>
        <time>2021-02-23T10:11:03.000Z</time>
      </trkpt>
      <trkpt lat="46.55483" lon="-1.76135">
        <ele>-150.80000305176</ele>
        <time>2021-02-23T10:11:04.000Z</time>
      </trkpt>
      <trkpt lat="46.5548" lon="-1.76136">
        <ele>-150.80000305176</ele>
        <time>2021-02-23T10:11:05.000Z</time>
      </trkpt>
      <trkpt lat="46.55476" lon="-1.76137">
        <ele>-150.60000610352</ele>
        <time>2021-02-23T10:11:06.000Z</time>
      </trkpt>
      <trkpt lat="46.55472" lon="-1.76138">
        <ele>-150.60000610352</ele>
        <time>2021-02-23T10:11:07.000Z</time>
      </trkpt>
      <trkpt lat="46.55469" lon="-1.76139">
        <ele>-150.60000610352</ele>
        <time>2021-02-23T10:11:08.000Z</time>
      </trkpt>
      <trkpt lat="46.55465" lon="-1.7614">
        <ele>-150.60000610352</ele>
        <time>2021-02-23T10:11:09.000Z</time>
      </trkpt>
      <trkpt lat="46.55462" lon="-1.76142">
        <ele>-150.39999389648</ele>
        <time>2021-02-23T10:11:10.000Z</time>
      </trkpt>
      <trkpt lat="46.55459" lon="-1.76143">
        <ele>-150.39999389648</ele>
        <time>2021-02-23T10:11:11.000Z</time>
      </trkpt>
      <trkpt lat="46.55456" lon="-1.76143">
        <ele>-150.39999389648</ele>
        <time>2021-02-23T10:11:12.000Z</time>
      </trkpt>
      <trkpt lat="46.55452" lon="-1.76144">
        <ele>-150.19999694824</ele>
        <time>2021-02-23T10:11:13.000Z</time>
      </trkpt>
      <trkpt lat="46.55449" lon="-1.76145">
        <ele>-150.19999694824</ele>
        <time>2021-02-23T10:11:14.000Z</time>
      </trkpt>
      <trkpt lat="46.55446" lon="-1.76146">
        <ele>-150</ele>
        <time>2021-02-23T10:11:15.000Z</time>
      </trkpt>
      <trkpt lat="46.55443" lon="-1.76147">
        <ele>-150</ele>
        <time>2021-02-23T10:11:16.000Z</time>
      </trkpt>
      <trkpt lat="46.55439" lon="-1.76148">
        <ele>-150</ele>
        <time>2021-02-23T10:11:17.000Z</time>
      </trkpt>
      <trkpt lat="46.55436" lon="-1.76149">
        <ele>-150</ele>
        <time>2021-02-23T10:11:18.000Z</time>
      </trkpt>
      <trkpt lat="46.55432" lon="-1.76149">
        <ele>-150</ele>
        <time>2021-02-23T10:11:19.000Z</time>
      </trkpt>
      <trkpt lat="46.55428" lon="-1.76151">
        <ele>-150.19999694824</ele>
        <time>2021-02-23T10:11:20.000Z</time>
      </trkpt>
      <trkpt lat="46.55424" lon="-1.76152">
        <ele>-150.19999694824</ele>
        <time>2021-02-23T10:11:21.000Z</time>
      </trkpt>
      <trkpt lat="46.5542" lon="-1.76152">
        <ele>-150</ele>
        <time>2021-02-23T10:11:22.000Z</time>
      </trkpt>
      <trkpt lat="46.55416" lon="-1.76153">
        <ele>-150</ele>
        <time>2021-02-23T10:11:23.000Z</time>
      </trkpt>
      <trkpt lat="46.55413" lon="-1.76153">
        <ele>-150.19999694824</ele>
        <time>2021-02-23T10:11:24.000Z</time>
      </trkpt>
      <trkpt lat="46.55381" lon="-1.76158">
        <ele>-150.39999389648</ele>
        <time>2021-02-23T10:11:32.000Z</time>
      </trkpt>
      <trkpt lat="46.55377" lon="-1.76159">
        <ele>-150.39999389648</ele>
        <time>2021-02-23T10:11:33.000Z</time>
      </trkpt>
      <trkpt lat="46.55365" lon="-1.76161">
        <ele>-150.39999389648</ele>
        <time>2021-02-23T10:11:36.000Z</time>
      </trkpt>
      <trkpt lat="46.55356" lon="-1.76163">
        <ele>-150.80000305176</ele>
        <time>2021-02-23T10:11:38.000Z</time>
      </trkpt>
      <trkpt lat="46.55352" lon="-1.76163">
        <ele>-150.80000305176</ele>
        <time>2021-02-23T10:11:39.000Z</time>
      </trkpt>
      <trkpt lat="46.55349" lon="-1.76165">
        <ele>-150.80000305176</ele>
        <time>2021-02-23T10:11:40.000Z</time>
      </trkpt>
      <trkpt lat="46.55345" lon="-1.76168">
        <ele>-150.80000305176</ele>
        <time>2021-02-23T10:11:41.000Z</time>
      </trkpt>
      <trkpt lat="46.55343" lon="-1.76171">
        <ele>-150.80000305176</ele>
        <time>2021-02-23T10:11:42.000Z</time>
      </trkpt>
      <trkpt lat="46.55341" lon="-1.76175">
        <ele>-150.80000305176</ele>
        <time>2021-02-23T10:11:43.000Z</time>
      </trkpt>
      <trkpt lat="46.5534" lon="-1.7618">
        <ele>-150.80000305176</ele>
        <time>2021-02-23T10:11:44.000Z</time>
      </trkpt>
      <trkpt lat="46.5534" lon="-1.76185">
        <ele>-150.80000305176</ele>
        <time>2021-02-23T10:11:45.000Z</time>
      </trkpt>
      <trkpt lat="46.5534" lon="-1.7619">
        <ele>-150.80000305176</ele>
        <time>2021-02-23T10:11:46.000Z</time>
      </trkpt>
      <trkpt lat="46.55339" lon="-1.76196">
        <ele>-150.80000305176</ele>
        <time>2021-02-23T10:11:47.000Z</time>
      </trkpt>
      <trkpt lat="46.55336" lon="-1.76225">
        <ele>-150.60000610352</ele>
        <time>2021-02-23T10:11:52.000Z</time>
      </trkpt>
      <trkpt lat="46.55335" lon="-1.76236">
        <ele>-150.39999389648</ele>
        <time>2021-02-23T10:11:54.000Z</time>
      </trkpt>
      <trkpt lat="46.55334" lon="-1.76242">
        <ele>-150.19999694824</ele>
        <time>2021-02-23T10:11:55.000Z</time>
      </trkpt>
      <trkpt lat="46.55333" lon="-1.76253">
        <ele>-150</ele>
        <time>2021-02-23T10:11:57.000Z</time>
      </trkpt>
      <trkpt lat="46.55331" lon="-1.7627">
        <ele>-149.19999694824</ele>
        <time>2021-02-23T10:12:00.000Z</time>
      </trkpt>
      <trkpt lat="46.5533" lon="-1.76281">
        <ele>-149</ele>
        <time>2021-02-23T10:12:02.000Z</time>
      </trkpt>
      <trkpt lat="46.55326" lon="-1.76325">
        <ele>-149.19999694824</ele>
        <time>2021-02-23T10:12:09.000Z</time>
      </trkpt>
      <trkpt lat="46.55319" lon="-1.76379">
        <ele>-150.80000305176</ele>
        <time>2021-02-23T10:12:16.000Z</time>
      </trkpt>
      <trkpt lat="46.55318" lon="-1.76388">
        <ele>-151</ele>
        <time>2021-02-23T10:12:17.000Z</time>
      </trkpt>
      <trkpt lat="46.55313" lon="-1.76423">
        <ele>-152.19999694824</ele>
        <time>2021-02-23T10:12:21.000Z</time>
      </trkpt>
      <trkpt lat="46.5531" lon="-1.76442">
        <ele>-152.39999389648</ele>
        <time>2021-02-23T10:12:23.000Z</time>
      </trkpt>
      <trkpt lat="46.55308" lon="-1.76452">
        <ele>-152.60000610352</ele>
        <time>2021-02-23T10:12:24.000Z</time>
      </trkpt>
      <trkpt lat="46.55306" lon="-1.7646">
        <ele>-152.80000305176</ele>
        <time>2021-02-23T10:12:25.000Z</time>
      </trkpt>
      <trkpt lat="46.55304" lon="-1.76468">
        <ele>-153</ele>
        <time>2021-02-23T10:12:26.000Z</time>
      </trkpt>
      <trkpt lat="46.55302" lon="-1.76474">
        <ele>-153.39999389648</ele>
        <time>2021-02-23T10:12:27.000Z</time>
      </trkpt>
      <trkpt lat="46.55299" lon="-1.7648">
        <ele>-153.60000610352</ele>
        <time>2021-02-23T10:12:28.000Z</time>
      </trkpt>
      <trkpt lat="46.55298" lon="-1.76486">
        <ele>-153.60000610352</ele>
        <time>2021-02-23T10:12:29.000Z</time>
      </trkpt>
      <trkpt lat="46.55296" lon="-1.76492">
        <ele>-153.80000305176</ele>
        <time>2021-02-23T10:12:30.000Z</time>
      </trkpt>
      <trkpt lat="46.55296" lon="-1.76498">
        <ele>-153.80000305176</ele>
        <time>2021-02-23T10:12:31.000Z</time>
      </trkpt>
      <trkpt lat="46.55296" lon="-1.76504">
        <ele>-154.19999694824</ele>
        <time>2021-02-23T10:12:32.000Z</time>
      </trkpt>
      <trkpt lat="46.55297" lon="-1.7651">
        <ele>-154.19999694824</ele>
        <time>2021-02-23T10:12:33.000Z</time>
      </trkpt>
      <trkpt lat="46.55295" lon="-1.76523">
        <ele>-154.19999694824</ele>
        <time>2021-02-23T10:12:35.000Z</time>
      </trkpt>
      <trkpt lat="46.55292" lon="-1.76528">
        <ele>-154.19999694824</ele>
        <time>2021-02-23T10:12:36.000Z</time>
      </trkpt>
      <trkpt lat="46.55289" lon="-1.76533">
        <ele>-154.19999694824</ele>
        <time>2021-02-23T10:12:37.000Z</time>
      </trkpt>
      <trkpt lat="46.55285" lon="-1.76537">
        <ele>-154.19999694824</ele>
        <time>2021-02-23T10:12:38.000Z</time>
      </trkpt>
      <trkpt lat="46.55281" lon="-1.7654">
        <ele>-154.19999694824</ele>
        <time>2021-02-23T10:12:39.000Z</time>
      </trkpt>
      <trkpt lat="46.55276" lon="-1.76542">
        <ele>-154.19999694824</ele>
        <time>2021-02-23T10:12:40.000Z</time>
      </trkpt>
      <trkpt lat="46.55271" lon="-1.76541">
        <ele>-154.19999694824</ele>
        <time>2021-02-23T10:12:41.000Z</time>
      </trkpt>
      <trkpt lat="46.55266" lon="-1.76539">
        <ele>-154.19999694824</ele>
        <time>2021-02-23T10:12:42.000Z</time>
      </trkpt>
      <trkpt lat="46.55261" lon="-1.76535">
        <ele>-154.19999694824</ele>
        <time>2021-02-23T10:12:43.000Z</time>
      </trkpt>
      <trkpt lat="46.55255" lon="-1.76523">
        <ele>-154.39999389648</ele>
        <time>2021-02-23T10:12:45.000Z</time>
      </trkpt>
      <trkpt lat="46.55252" lon="-1.76517">
        <ele>-154.80000305176</ele>
        <time>2021-02-23T10:12:46.000Z</time>
      </trkpt>
      <trkpt lat="46.55249" lon="-1.76511">
        <ele>-154.80000305176</ele>
        <time>2021-02-23T10:12:47.000Z</time>
      </trkpt>
      <trkpt lat="46.55239" lon="-1.76503">
        <ele>-155</ele>
        <time>2021-02-23T10:12:49.000Z</time>
      </trkpt>
      <trkpt lat="46.55234" lon="-1.76499">
        <ele>-155.39999389648</ele>
        <time>2021-02-23T10:12:50.000Z</time>
      </trkpt>
      <trkpt lat="46.55229" lon="-1.76496">
        <ele>-155.60000610352</ele>
        <time>2021-02-23T10:12:51.000Z</time>
      </trkpt>
      <trkpt lat="46.55207" lon="-1.76483">
        <ele>-156.60000610352</ele>
        <time>2021-02-23T10:12:55.000Z</time>
      </trkpt>
      <trkpt lat="46.55201" lon="-1.7648">
        <ele>-156.80000305176</ele>
        <time>2021-02-23T10:12:56.000Z</time>
      </trkpt>
      <trkpt lat="46.55196" lon="-1.76477">
        <ele>-156.80000305176</ele>
        <time>2021-02-23T10:12:57.000Z</time>
      </trkpt>
      <trkpt lat="46.55191" lon="-1.76474">
        <ele>-157.39999389648</ele>
        <time>2021-02-23T10:12:58.000Z</time>
      </trkpt>
      <trkpt lat="46.55169" lon="-1.76461">
        <ele>-158</ele>
        <time>2021-02-23T10:13:02.000Z</time>
      </trkpt>
      <trkpt lat="46.55158" lon="-1.76455">
        <ele>-158.19999694824</ele>
        <time>2021-02-23T10:13:04.000Z</time>
      </trkpt>
      <trkpt lat="46.55148" lon="-1.76449">
        <ele>-158.19999694824</ele>
        <time>2021-02-23T10:13:06.000Z</time>
      </trkpt>
      <trkpt lat="46.55121" lon="-1.76435">
        <ele>-158.19999694824</ele>
        <time>2021-02-23T10:13:11.000Z</time>
      </trkpt>
      <trkpt lat="46.55088" lon="-1.76428">
        <ele>-158.39999389648</ele>
        <time>2021-02-23T10:13:17.000Z</time>
      </trkpt>
      <trkpt lat="46.5507" lon="-1.76436">
        <ele>-158.80000305176</ele>
        <time>2021-02-23T10:13:20.000Z</time>
      </trkpt>
      <trkpt lat="46.55065" lon="-1.76441">
        <ele>-158.80000305176</ele>
        <time>2021-02-23T10:13:21.000Z</time>
      </trkpt>
      <trkpt lat="46.5506" lon="-1.76446">
        <ele>-159.19999694824</ele>
        <time>2021-02-23T10:13:22.000Z</time>
      </trkpt>
      <trkpt lat="46.55055" lon="-1.76453">
        <ele>-159.60000610352</ele>
        <time>2021-02-23T10:13:23.000Z</time>
      </trkpt>
      <trkpt lat="46.55051" lon="-1.7646">
        <ele>-159.60000610352</ele>
        <time>2021-02-23T10:13:24.000Z</time>
      </trkpt>
      <trkpt lat="46.55047" lon="-1.76467">
        <ele>-159.60000610352</ele>
        <time>2021-02-23T10:13:25.000Z</time>
      </trkpt>
      <trkpt lat="46.55043" lon="-1.76475">
        <ele>-159.80000305176</ele>
        <time>2021-02-23T10:13:26.000Z</time>
      </trkpt>
      <trkpt lat="46.55039" lon="-1.76482">
        <ele>-159.80000305176</ele>
        <time>2021-02-23T10:13:27.000Z</time>
      </trkpt>
      <trkpt lat="46.55029" lon="-1.76503">
        <ele>-160</ele>
        <time>2021-02-23T10:13:30.000Z</time>
      </trkpt>
      <trkpt lat="46.5502" lon="-1.76526">
        <ele>-160.19999694824</ele>
        <time>2021-02-23T10:13:33.000Z</time>
      </trkpt>
      <trkpt lat="46.55017" lon="-1.76533">
        <ele>-160.19999694824</ele>
        <time>2021-02-23T10:13:34.000Z</time>
      </trkpt>
      <trkpt lat="46.55014" lon="-1.76541">
        <ele>-160.19999694824</ele>
        <time>2021-02-23T10:13:35.000Z</time>
      </trkpt>
      <trkpt lat="46.55011" lon="-1.76548">
        <ele>-160.19999694824</ele>
        <time>2021-02-23T10:13:36.000Z</time>
      </trkpt>
      <trkpt lat="46.55009" lon="-1.76555">
        <ele>-160.19999694824</ele>
        <time>2021-02-23T10:13:37.000Z</time>
      </trkpt>
      <trkpt lat="46.55006" lon="-1.76562">
        <ele>-160.19999694824</ele>
        <time>2021-02-23T10:13:38.000Z</time>
      </trkpt>
      <trkpt lat="46.55003" lon="-1.76569">
        <ele>-160.19999694824</ele>
        <time>2021-02-23T10:13:39.000Z</time>
      </trkpt>
      <trkpt lat="46.54999" lon="-1.76582">
        <ele>-160</ele>
        <time>2021-02-23T10:13:41.000Z</time>
      </trkpt>
      <trkpt lat="46.54994" lon="-1.76596">
        <ele>-160</ele>
        <time>2021-02-23T10:13:43.000Z</time>
      </trkpt>
      <trkpt lat="46.54988" lon="-1.76609">
        <ele>-160</ele>
        <time>2021-02-23T10:13:45.000Z</time>
      </trkpt>
      <trkpt lat="46.54985" lon="-1.76616">
        <ele>-159.80000305176</ele>
        <time>2021-02-23T10:13:46.000Z</time>
      </trkpt>
      <trkpt lat="46.54983" lon="-1.76623">
        <ele>-159.80000305176</ele>
        <time>2021-02-23T10:13:47.000Z</time>
      </trkpt>
      <trkpt lat="46.5498" lon="-1.7663">
        <ele>-159.80000305176</ele>
        <time>2021-02-23T10:13:48.000Z</time>
      </trkpt>
      <trkpt lat="46.54973" lon="-1.7665">
        <ele>-159.80000305176</ele>
        <time>2021-02-23T10:13:51.000Z</time>
      </trkpt>
      <trkpt lat="46.5497" lon="-1.76656">
        <ele>-159.60000610352</ele>
        <time>2021-02-23T10:13:52.000Z</time>
      </trkpt>
      <trkpt lat="46.54968" lon="-1.76662">
        <ele>-159.60000610352</ele>
        <time>2021-02-23T10:13:53.000Z</time>
      </trkpt>
      <trkpt lat="46.54963" lon="-1.76675">
        <ele>-159.60000610352</ele>
        <time>2021-02-23T10:13:55.000Z</time>
      </trkpt>
      <trkpt lat="46.5496" lon="-1.76681">
        <ele>-159.60000610352</ele>
        <time>2021-02-23T10:13:56.000Z</time>
      </trkpt>
      <trkpt lat="46.54957" lon="-1.76687">
        <ele>-159.60000610352</ele>
        <time>2021-02-23T10:13:57.000Z</time>
      </trkpt>
      <trkpt lat="46.54948" lon="-1.76705">
        <ele>-159</ele>
        <time>2021-02-23T10:14:00.000Z</time>
      </trkpt>
      <trkpt lat="46.54945" lon="-1.7671">
        <ele>-158.80000305176</ele>
        <time>2021-02-23T10:14:01.000Z</time>
      </trkpt>
      <trkpt lat="46.54941" lon="-1.76715">
        <ele>-158.60000610352</ele>
        <time>2021-02-23T10:14:02.000Z</time>
      </trkpt>
      <trkpt lat="46.54937" lon="-1.76719">
        <ele>-158.39999389648</ele>
        <time>2021-02-23T10:14:03.000Z</time>
      </trkpt>
      <trkpt lat="46.54928" lon="-1.76728">
        <ele>-158.19999694824</ele>
        <time>2021-02-23T10:14:05.000Z</time>
      </trkpt>
      <trkpt lat="46.54924" lon="-1.76731">
        <ele>-158</ele>
        <time>2021-02-23T10:14:06.000Z</time>
      </trkpt>
      <trkpt lat="46.5492" lon="-1.76734">
        <ele>-157.60000610352</ele>
        <time>2021-02-23T10:14:07.000Z</time>
      </trkpt>
      <trkpt lat="46.54917" lon="-1.76737">
        <ele>-157.60000610352</ele>
        <time>2021-02-23T10:14:08.000Z</time>
      </trkpt>
      <trkpt lat="46.54914" lon="-1.7674">
        <ele>-157.39999389648</ele>
        <time>2021-02-23T10:14:09.000Z</time>
      </trkpt>
      <trkpt lat="46.54908" lon="-1.76746">
        <ele>-156.60000610352</ele>
        <time>2021-02-23T10:14:11.000Z</time>
      </trkpt>
      <trkpt lat="46.54905" lon="-1.7675">
        <ele>-156.19999694824</ele>
        <time>2021-02-23T10:14:12.000Z</time>
      </trkpt>
      <trkpt lat="46.54902" lon="-1.76754">
        <ele>-156</ele>
        <time>2021-02-23T10:14:13.000Z</time>
      </trkpt>
      <trkpt lat="46.54899" lon="-1.76759">
        <ele>-156</ele>
        <time>2021-02-23T10:14:14.000Z</time>
      </trkpt>
      <trkpt lat="46.54895" lon="-1.76765">
        <ele>-156</ele>
        <time>2021-02-23T10:14:15.000Z</time>
      </trkpt>
      <trkpt lat="46.54892" lon="-1.76771">
        <ele>-155.60000610352</ele>
        <time>2021-02-23T10:14:16.000Z</time>
      </trkpt>
      <trkpt lat="46.54889" lon="-1.76776">
        <ele>-155.60000610352</ele>
        <time>2021-02-23T10:14:17.000Z</time>
      </trkpt>
      <trkpt lat="46.54886" lon="-1.76782">
        <ele>-155.60000610352</ele>
        <time>2021-02-23T10:14:18.000Z</time>
      </trkpt>
      <trkpt lat="46.54883" lon="-1.76788">
        <ele>-155.60000610352</ele>
        <time>2021-02-23T10:14:19.000Z</time>
      </trkpt>
      <trkpt lat="46.5488" lon="-1.76794">
        <ele>-155.60000610352</ele>
        <time>2021-02-23T10:14:20.000Z</time>
      </trkpt>
      <trkpt lat="46.54877" lon="-1.768">
        <ele>-155.60000610352</ele>
        <time>2021-02-23T10:14:21.000Z</time>
      </trkpt>
      <trkpt lat="46.54873" lon="-1.76805">
        <ele>-155.39999389648</ele>
        <time>2021-02-23T10:14:22.000Z</time>
      </trkpt>
      <trkpt lat="46.54868" lon="-1.76809">
        <ele>-155.39999389648</ele>
        <time>2021-02-23T10:14:23.000Z</time>
      </trkpt>
      <trkpt lat="46.54863" lon="-1.76812">
        <ele>-155.39999389648</ele>
        <time>2021-02-23T10:14:24.000Z</time>
      </trkpt>
      <trkpt lat="46.54858" lon="-1.76814">
        <ele>-155.39999389648</ele>
        <time>2021-02-23T10:14:25.000Z</time>
      </trkpt>
      <trkpt lat="46.54853" lon="-1.76815">
        <ele>-155.39999389648</ele>
        <time>2021-02-23T10:14:26.000Z</time>
      </trkpt>
      <trkpt lat="46.54848" lon="-1.76814">
        <ele>-155.39999389648</ele>
        <time>2021-02-23T10:14:27.000Z</time>
      </trkpt>
      <trkpt lat="46.54844" lon="-1.76813">
        <ele>-155.39999389648</ele>
        <time>2021-02-23T10:14:28.000Z</time>
      </trkpt>
      <trkpt lat="46.54839" lon="-1.7681">
        <ele>-155.39999389648</ele>
        <time>2021-02-23T10:14:29.000Z</time>
      </trkpt>
      <trkpt lat="46.54836" lon="-1.76807">
        <ele>-155.39999389648</ele>
        <time>2021-02-23T10:14:30.000Z</time>
      </trkpt>
      <trkpt lat="46.54833" lon="-1.76803">
        <ele>-155.39999389648</ele>
        <time>2021-02-23T10:14:31.000Z</time>
      </trkpt>
      <trkpt lat="46.54831" lon="-1.768">
        <ele>-155.39999389648</ele>
        <time>2021-02-23T10:14:32.000Z</time>
      </trkpt>
      <trkpt lat="46.54829" lon="-1.76796">
        <ele>-155.39999389648</ele>
        <time>2021-02-23T10:14:33.000Z</time>
      </trkpt>
      <trkpt lat="46.54827" lon="-1.76792">
        <ele>-155.39999389648</ele>
        <time>2021-02-23T10:14:34.000Z</time>
      </trkpt>
      <trkpt lat="46.54824" lon="-1.76789">
        <ele>-155.39999389648</ele>
        <time>2021-02-23T10:14:35.000Z</time>
      </trkpt>
      <trkpt lat="46.54821" lon="-1.76787">
        <ele>-155.39999389648</ele>
        <time>2021-02-23T10:14:36.000Z</time>
      </trkpt>
      <trkpt lat="46.54818" lon="-1.76786">
        <ele>-155.60000610352</ele>
        <time>2021-02-23T10:14:37.000Z</time>
      </trkpt>
      <trkpt lat="46.54816" lon="-1.76784">
        <ele>-155.60000610352</ele>
        <time>2021-02-23T10:14:38.000Z</time>
      </trkpt>
      <trkpt lat="46.54813" lon="-1.76784">
        <ele>-155.60000610352</ele>
        <time>2021-02-23T10:14:39.000Z</time>
      </trkpt>
      <trkpt lat="46.54811" lon="-1.76783">
        <ele>-155.60000610352</ele>
        <time>2021-02-23T10:14:40.000Z</time>
      </trkpt>
      <trkpt lat="46.54809" lon="-1.76782">
        <ele>-155.60000610352</ele>
        <time>2021-02-23T10:14:41.000Z</time>
      </trkpt>
      <trkpt lat="46.54808" lon="-1.76779">
        <ele>-155.60000610352</ele>
        <time>2021-02-23T10:14:42.000Z</time>
      </trkpt>
      <trkpt lat="46.54809" lon="-1.76773">
        <ele>-155.60000610352</ele>
        <time>2021-02-23T10:14:44.000Z</time>
      </trkpt>
      <trkpt lat="46.54812" lon="-1.76764">
        <ele>-155.39999389648</ele>
        <time>2021-02-23T10:14:46.000Z</time>
      </trkpt>
      <trkpt lat="46.54813" lon="-1.76759">
        <ele>-155.39999389648</ele>
        <time>2021-02-23T10:14:47.000Z</time>
      </trkpt>
      <trkpt lat="46.54815" lon="-1.76755">
        <ele>-155</ele>
        <time>2021-02-23T10:14:48.000Z</time>
      </trkpt>
      <trkpt lat="46.5482" lon="-1.76745">
        <ele>-154.80000305176</ele>
        <time>2021-02-23T10:14:50.000Z</time>
      </trkpt>
      <trkpt lat="46.54824" lon="-1.76735">
        <ele>-154.80000305176</ele>
        <time>2021-02-23T10:14:52.000Z</time>
      </trkpt>
      <trkpt lat="46.54828" lon="-1.76724">
        <ele>-154.80000305176</ele>
        <time>2021-02-23T10:14:54.000Z</time>
      </trkpt>
      <trkpt lat="46.54829" lon="-1.76718">
        <ele>-154.80000305176</ele>
        <time>2021-02-23T10:14:55.000Z</time>
      </trkpt>
      <trkpt lat="46.54829" lon="-1.76713">
        <ele>-154.80000305176</ele>
        <time>2021-02-23T10:14:56.000Z</time>
      </trkpt>
      <trkpt lat="46.54827" lon="-1.76707">
        <ele>-154.80000305176</ele>
        <time>2021-02-23T10:14:57.000Z</time>
      </trkpt>
      <trkpt lat="46.54825" lon="-1.76702">
        <ele>-154.80000305176</ele>
        <time>2021-02-23T10:14:58.000Z</time>
      </trkpt>
      <trkpt lat="46.54823" lon="-1.76697">
        <ele>-154.80000305176</ele>
        <time>2021-02-23T10:14:59.000Z</time>
      </trkpt>
      <trkpt lat="46.54821" lon="-1.76692">
        <ele>-154.80000305176</ele>
        <time>2021-02-23T10:15:00.000Z</time>
      </trkpt>
      <trkpt lat="46.54818" lon="-1.76688">
        <ele>-154.80000305176</ele>
        <time>2021-02-23T10:15:01.000Z</time>
      </trkpt>
      <trkpt lat="46.54816" lon="-1.76684">
        <ele>-154.80000305176</ele>
        <time>2021-02-23T10:15:02.000Z</time>
      </trkpt>
      <trkpt lat="46.54813" lon="-1.7668">
        <ele>-154.80000305176</ele>
        <time>2021-02-23T10:15:03.000Z</time>
      </trkpt>
      <trkpt lat="46.54805" lon="-1.76667">
        <ele>-154.19999694824</ele>
        <time>2021-02-23T10:15:06.000Z</time>
      </trkpt>
      <trkpt lat="46.54795" lon="-1.7665">
        <ele>-154.19999694824</ele>
        <time>2021-02-23T10:15:10.000Z</time>
      </trkpt>
      <trkpt lat="46.54792" lon="-1.76646">
        <ele>-154.19999694824</ele>
        <time>2021-02-23T10:15:11.000Z</time>
      </trkpt>
      <trkpt lat="46.54786" lon="-1.76637">
        <ele>-154.19999694824</ele>
        <time>2021-02-23T10:15:13.000Z</time>
      </trkpt>
      <trkpt lat="46.54764" lon="-1.76603">
        <ele>-154.80000305176</ele>
        <time>2021-02-23T10:15:20.000Z</time>
      </trkpt>
      <trkpt lat="46.54761" lon="-1.76598">
        <ele>-154.80000305176</ele>
        <time>2021-02-23T10:15:21.000Z</time>
      </trkpt>
      <trkpt lat="46.54757" lon="-1.76594">
        <ele>-154.80000305176</ele>
        <time>2021-02-23T10:15:22.000Z</time>
      </trkpt>
      <trkpt lat="46.54742" lon="-1.7657">
        <ele>-155</ele>
        <time>2021-02-23T10:15:27.000Z</time>
      </trkpt>
      <trkpt lat="46.54736" lon="-1.7656">
        <ele>-155</ele>
        <time>2021-02-23T10:15:29.000Z</time>
      </trkpt>
      <trkpt lat="46.54729" lon="-1.76551">
        <ele>-155.39999389648</ele>
        <time>2021-02-23T10:15:31.000Z</time>
      </trkpt>
      <trkpt lat="46.54721" lon="-1.76545">
        <ele>-155.39999389648</ele>
        <time>2021-02-23T10:15:33.000Z</time>
      </trkpt>
      <trkpt lat="46.54717" lon="-1.76543">
        <ele>-155.39999389648</ele>
        <time>2021-02-23T10:15:34.000Z</time>
      </trkpt>
      <trkpt lat="46.54712" lon="-1.76541">
        <ele>-155</ele>
        <time>2021-02-23T10:15:35.000Z</time>
      </trkpt>
      <trkpt lat="46.54689" lon="-1.76535">
        <ele>-154.80000305176</ele>
        <time>2021-02-23T10:15:40.000Z</time>
      </trkpt>
      <trkpt lat="46.54678" lon="-1.76534">
        <ele>-154.80000305176</ele>
        <time>2021-02-23T10:15:42.000Z</time>
      </trkpt>
      <trkpt lat="46.54673" lon="-1.76533">
        <ele>-154.80000305176</ele>
        <time>2021-02-23T10:15:43.000Z</time>
      </trkpt>
      <trkpt lat="46.54668" lon="-1.76532">
        <ele>-154.39999389648</ele>
        <time>2021-02-23T10:15:44.000Z</time>
      </trkpt>
      <trkpt lat="46.54663" lon="-1.7653">
        <ele>-154.39999389648</ele>
        <time>2021-02-23T10:15:45.000Z</time>
      </trkpt>
      <trkpt lat="46.54658" lon="-1.76528">
        <ele>-154.39999389648</ele>
        <time>2021-02-23T10:15:46.000Z</time>
      </trkpt>
      <trkpt lat="46.54644" lon="-1.76517">
        <ele>-154.39999389648</ele>
        <time>2021-02-23T10:15:49.000Z</time>
      </trkpt>
      <trkpt lat="46.54641" lon="-1.76512">
        <ele>-154.39999389648</ele>
        <time>2021-02-23T10:15:50.000Z</time>
      </trkpt>
      <trkpt lat="46.54637" lon="-1.76507">
        <ele>-154.39999389648</ele>
        <time>2021-02-23T10:15:51.000Z</time>
      </trkpt>
      <trkpt lat="46.54634" lon="-1.76502">
        <ele>-154.39999389648</ele>
        <time>2021-02-23T10:15:52.000Z</time>
      </trkpt>
      <trkpt lat="46.54632" lon="-1.76497">
        <ele>-154.80000305176</ele>
        <time>2021-02-23T10:15:53.000Z</time>
      </trkpt>
      <trkpt lat="46.54631" lon="-1.76492">
        <ele>-154.80000305176</ele>
        <time>2021-02-23T10:15:54.000Z</time>
      </trkpt>
      <trkpt lat="46.54629" lon="-1.76486">
        <ele>-154.80000305176</ele>
        <time>2021-02-23T10:15:55.000Z</time>
      </trkpt>
      <trkpt lat="46.54618" lon="-1.76454">
        <ele>-156</ele>
        <time>2021-02-23T10:16:01.000Z</time>
      </trkpt>
      <trkpt lat="46.54615" lon="-1.76449">
        <ele>-156.19999694824</ele>
        <time>2021-02-23T10:16:02.000Z</time>
      </trkpt>
      <trkpt lat="46.54605" lon="-1.76432">
        <ele>-156.60000610352</ele>
        <time>2021-02-23T10:16:05.000Z</time>
      </trkpt>
      <trkpt lat="46.54596" lon="-1.76423">
        <ele>-156.80000305176</ele>
        <time>2021-02-23T10:16:07.000Z</time>
      </trkpt>
      <trkpt lat="46.54592" lon="-1.76418">
        <ele>-156.80000305176</ele>
        <time>2021-02-23T10:16:08.000Z</time>
      </trkpt>
      <trkpt lat="46.54587" lon="-1.76414">
        <ele>-157</ele>
        <time>2021-02-23T10:16:09.000Z</time>
      </trkpt>
      <trkpt lat="46.54582" lon="-1.76409">
        <ele>-157</ele>
        <time>2021-02-23T10:16:10.000Z</time>
      </trkpt>
      <trkpt lat="46.54576" lon="-1.76405">
        <ele>-157</ele>
        <time>2021-02-23T10:16:11.000Z</time>
      </trkpt>
      <trkpt lat="46.54571" lon="-1.76401">
        <ele>-157</ele>
        <time>2021-02-23T10:16:12.000Z</time>
      </trkpt>
      <trkpt lat="46.54566" lon="-1.76398">
        <ele>-157</ele>
        <time>2021-02-23T10:16:13.000Z</time>
      </trkpt>
      <trkpt lat="46.54562" lon="-1.76394">
        <ele>-157.39999389648</ele>
        <time>2021-02-23T10:16:14.000Z</time>
      </trkpt>
      <trkpt lat="46.54547" lon="-1.76386">
        <ele>-157.39999389648</ele>
        <time>2021-02-23T10:16:17.000Z</time>
      </trkpt>
      <trkpt lat="46.54536" lon="-1.76381">
        <ele>-157.39999389648</ele>
        <time>2021-02-23T10:16:19.000Z</time>
      </trkpt>
      <trkpt lat="46.54525" lon="-1.76376">
        <ele>-157.39999389648</ele>
        <time>2021-02-23T10:16:21.000Z</time>
      </trkpt>
      <trkpt lat="46.54514" lon="-1.76373">
        <ele>-157.39999389648</ele>
        <time>2021-02-23T10:16:23.000Z</time>
      </trkpt>
      <trkpt lat="46.54508" lon="-1.7637">
        <ele>-157.39999389648</ele>
        <time>2021-02-23T10:16:24.000Z</time>
      </trkpt>
      <trkpt lat="46.54503" lon="-1.76368">
        <ele>-157.39999389648</ele>
        <time>2021-02-23T10:16:25.000Z</time>
      </trkpt>
      <trkpt lat="46.54497" lon="-1.76366">
        <ele>-157.39999389648</ele>
        <time>2021-02-23T10:16:26.000Z</time>
      </trkpt>
      <trkpt lat="46.54492" lon="-1.76364">
        <ele>-157.39999389648</ele>
        <time>2021-02-23T10:16:27.000Z</time>
      </trkpt>
      <trkpt lat="46.54487" lon="-1.76362">
        <ele>-157.39999389648</ele>
        <time>2021-02-23T10:16:28.000Z</time>
      </trkpt>
      <trkpt lat="46.54483" lon="-1.76361">
        <ele>-157.39999389648</ele>
        <time>2021-02-23T10:16:29.000Z</time>
      </trkpt>
      <trkpt lat="46.54479" lon="-1.76359">
        <ele>-157.39999389648</ele>
        <time>2021-02-23T10:16:30.000Z</time>
      </trkpt>
      <trkpt lat="46.54475" lon="-1.76358">
        <ele>-157</ele>
        <time>2021-02-23T10:16:31.000Z</time>
      </trkpt>
      <trkpt lat="46.54468" lon="-1.76355">
        <ele>-156.80000305176</ele>
        <time>2021-02-23T10:16:33.000Z</time>
      </trkpt>
      <trkpt lat="46.54464" lon="-1.76357">
        <ele>-156.80000305176</ele>
        <time>2021-02-23T10:16:34.000Z</time>
      </trkpt>
      <trkpt lat="46.54461" lon="-1.7636">
        <ele>-156.60000610352</ele>
        <time>2021-02-23T10:16:35.000Z</time>
      </trkpt>
      <trkpt lat="46.54459" lon="-1.76365">
        <ele>-156.60000610352</ele>
        <time>2021-02-23T10:16:36.000Z</time>
      </trkpt>
      <trkpt lat="46.54456" lon="-1.76377">
        <ele>-156.60000610352</ele>
        <time>2021-02-23T10:16:38.000Z</time>
      </trkpt>
      <trkpt lat="46.54454" lon="-1.76383">
        <ele>-156.60000610352</ele>
        <time>2021-02-23T10:16:39.000Z</time>
      </trkpt>
      <trkpt lat="46.54452" lon="-1.76388">
        <ele>-156.60000610352</ele>
        <time>2021-02-23T10:16:40.000Z</time>
      </trkpt>
      <trkpt lat="46.54446" lon="-1.76411">
        <ele>-156.19999694824</ele>
        <time>2021-02-23T10:16:44.000Z</time>
      </trkpt>
      <trkpt lat="46.54444" lon="-1.76418">
        <ele>-156.19999694824</ele>
        <time>2021-02-23T10:16:45.000Z</time>
      </trkpt>
      <trkpt lat="46.54443" lon="-1.76423">
        <ele>-156.19999694824</ele>
        <time>2021-02-23T10:16:46.000Z</time>
      </trkpt>
      <trkpt lat="46.54438" lon="-1.76446">
        <ele>-155.39999389648</ele>
        <time>2021-02-23T10:16:50.000Z</time>
      </trkpt>
      <trkpt lat="46.54437" lon="-1.76452">
        <ele>-155.39999389648</ele>
        <time>2021-02-23T10:16:51.000Z</time>
      </trkpt>
      <trkpt lat="46.54436" lon="-1.76457">
        <ele>-155.19999694824</ele>
        <time>2021-02-23T10:16:52.000Z</time>
      </trkpt>
      <trkpt lat="46.54434" lon="-1.76463">
        <ele>-154.80000305176</ele>
        <time>2021-02-23T10:16:53.000Z</time>
      </trkpt>
      <trkpt lat="46.54433" lon="-1.76469">
        <ele>-154.39999389648</ele>
        <time>2021-02-23T10:16:54.000Z</time>
      </trkpt>
      <trkpt lat="46.54432" lon="-1.76474">
        <ele>-154.19999694824</ele>
        <time>2021-02-23T10:16:55.000Z</time>
      </trkpt>
      <trkpt lat="46.54429" lon="-1.76485">
        <ele>-153.80000305176</ele>
        <time>2021-02-23T10:16:57.000Z</time>
      </trkpt>
      <trkpt lat="46.54428" lon="-1.7649">
        <ele>-153.60000610352</ele>
        <time>2021-02-23T10:16:58.000Z</time>
      </trkpt>
      <trkpt lat="46.54426" lon="-1.76496">
        <ele>-153.39999389648</ele>
        <time>2021-02-23T10:16:59.000Z</time>
      </trkpt>
      <trkpt lat="46.54424" lon="-1.76501">
        <ele>-153.39999389648</ele>
        <time>2021-02-23T10:17:00.000Z</time>
      </trkpt>
      <trkpt lat="46.54423" lon="-1.76506">
        <ele>-153.39999389648</ele>
        <time>2021-02-23T10:17:01.000Z</time>
      </trkpt>
      <trkpt lat="46.54421" lon="-1.76511">
        <ele>-153.39999389648</ele>
        <time>2021-02-23T10:17:02.000Z</time>
      </trkpt>
      <trkpt lat="46.54419" lon="-1.76516">
        <ele>-153.39999389648</ele>
        <time>2021-02-23T10:17:03.000Z</time>
      </trkpt>
      <trkpt lat="46.54417" lon="-1.7652">
        <ele>-153</ele>
        <time>2021-02-23T10:17:04.000Z</time>
      </trkpt>
      <trkpt lat="46.54415" lon="-1.76523">
        <ele>-153</ele>
        <time>2021-02-23T10:17:05.000Z</time>
      </trkpt>
      <trkpt lat="46.54413" lon="-1.76527">
        <ele>-153</ele>
        <time>2021-02-23T10:17:06.000Z</time>
      </trkpt>
      <trkpt lat="46.54411" lon="-1.7653">
        <ele>-153</ele>
        <time>2021-02-23T10:17:07.000Z</time>
      </trkpt>
      <trkpt lat="46.54408" lon="-1.76534">
        <ele>-153.39999389648</ele>
        <time>2021-02-23T10:17:08.000Z</time>
      </trkpt>
      <trkpt lat="46.54405" lon="-1.76538">
        <ele>-153.39999389648</ele>
        <time>2021-02-23T10:17:09.000Z</time>
      </trkpt>
      <trkpt lat="46.54402" lon="-1.76542">
        <ele>-153.39999389648</ele>
        <time>2021-02-23T10:17:10.000Z</time>
      </trkpt>
      <trkpt lat="46.54399" lon="-1.76545">
        <ele>-153.39999389648</ele>
        <time>2021-02-23T10:17:11.000Z</time>
      </trkpt>
      <trkpt lat="46.54395" lon="-1.76549">
        <ele>-153.60000610352</ele>
        <time>2021-02-23T10:17:12.000Z</time>
      </trkpt>
      <trkpt lat="46.54392" lon="-1.76552">
        <ele>-153.60000610352</ele>
        <time>2021-02-23T10:17:13.000Z</time>
      </trkpt>
      <trkpt lat="46.54389" lon="-1.76555">
        <ele>-153.60000610352</ele>
        <time>2021-02-23T10:17:14.000Z</time>
      </trkpt>
      <trkpt lat="46.54366" lon="-1.76575">
        <ele>-153.39999389648</ele>
        <time>2021-02-23T10:17:20.000Z</time>
      </trkpt>
      <trkpt lat="46.54361" lon="-1.7658">
        <ele>-153.39999389648</ele>
        <time>2021-02-23T10:17:21.000Z</time>
      </trkpt>
      <trkpt lat="46.54345" lon="-1.76596">
        <ele>-153.39999389648</ele>
        <time>2021-02-23T10:17:25.000Z</time>
      </trkpt>
      <trkpt lat="46.54341" lon="-1.766">
        <ele>-153.39999389648</ele>
        <time>2021-02-23T10:17:26.000Z</time>
      </trkpt>
      <trkpt lat="46.54336" lon="-1.76606">
        <ele>-153.39999389648</ele>
        <time>2021-02-23T10:17:27.000Z</time>
      </trkpt>
      <trkpt lat="46.54332" lon="-1.7661">
        <ele>-153</ele>
        <time>2021-02-23T10:17:28.000Z</time>
      </trkpt>
      <trkpt lat="46.54329" lon="-1.76614">
        <ele>-153</ele>
        <time>2021-02-23T10:17:29.000Z</time>
      </trkpt>
      <trkpt lat="46.54321" lon="-1.76624">
        <ele>-153</ele>
        <time>2021-02-23T10:17:31.000Z</time>
      </trkpt>
      <trkpt lat="46.54314" lon="-1.76631">
        <ele>-153</ele>
        <time>2021-02-23T10:17:33.000Z</time>
      </trkpt>
      <trkpt lat="46.54306" lon="-1.76639">
        <ele>-152.80000305176</ele>
        <time>2021-02-23T10:17:35.000Z</time>
      </trkpt>
      <trkpt lat="46.54302" lon="-1.76644">
        <ele>-152.80000305176</ele>
        <time>2021-02-23T10:17:36.000Z</time>
      </trkpt>
      <trkpt lat="46.54298" lon="-1.76648">
        <ele>-152.60000610352</ele>
        <time>2021-02-23T10:17:37.000Z</time>
      </trkpt>
      <trkpt lat="46.54294" lon="-1.76652">
        <ele>-152.60000610352</ele>
        <time>2021-02-23T10:17:38.000Z</time>
      </trkpt>
      <trkpt lat="46.54291" lon="-1.76655">
        <ele>-152.60000610352</ele>
        <time>2021-02-23T10:17:39.000Z</time>
      </trkpt>
      <trkpt lat="46.54287" lon="-1.7666">
        <ele>-152.60000610352</ele>
        <time>2021-02-23T10:17:40.000Z</time>
      </trkpt>
      <trkpt lat="46.54283" lon="-1.76664">
        <ele>-152.60000610352</ele>
        <time>2021-02-23T10:17:41.000Z</time>
      </trkpt>
      <trkpt lat="46.54279" lon="-1.76668">
        <ele>-152.39999389648</ele>
        <time>2021-02-23T10:17:42.000Z</time>
      </trkpt>
      <trkpt lat="46.54276" lon="-1.76671">
        <ele>-152.39999389648</ele>
        <time>2021-02-23T10:17:43.000Z</time>
      </trkpt>
      <trkpt lat="46.54273" lon="-1.76674">
        <ele>-152.39999389648</ele>
        <time>2021-02-23T10:17:44.000Z</time>
      </trkpt>
      <trkpt lat="46.5427" lon="-1.76678">
        <ele>-152.19999694824</ele>
        <time>2021-02-23T10:17:45.000Z</time>
      </trkpt>
      <trkpt lat="46.54266" lon="-1.76682">
        <ele>-152.19999694824</ele>
        <time>2021-02-23T10:17:46.000Z</time>
      </trkpt>
      <trkpt lat="46.54263" lon="-1.76687">
        <ele>-152.19999694824</ele>
        <time>2021-02-23T10:17:47.000Z</time>
      </trkpt>
      <trkpt lat="46.5426" lon="-1.76691">
        <ele>-152.19999694824</ele>
        <time>2021-02-23T10:17:48.000Z</time>
      </trkpt>
      <trkpt lat="46.54258" lon="-1.76694">
        <ele>-152.19999694824</ele>
        <time>2021-02-23T10:17:49.000Z</time>
      </trkpt>
      <trkpt lat="46.54251" lon="-1.76701">
        <ele>-151.80000305176</ele>
        <time>2021-02-23T10:17:51.000Z</time>
      </trkpt>
      <trkpt lat="46.54245" lon="-1.76709">
        <ele>-151.60000610352</ele>
        <time>2021-02-23T10:17:53.000Z</time>
      </trkpt>
      <trkpt lat="46.54227" lon="-1.76734">
        <ele>-151.19999694824</ele>
        <time>2021-02-23T10:17:59.000Z</time>
      </trkpt>
      <trkpt lat="46.54224" lon="-1.76738">
        <ele>-151.19999694824</ele>
        <time>2021-02-23T10:18:00.000Z</time>
      </trkpt>
      <trkpt lat="46.54212" lon="-1.76753">
        <ele>-150.80000305176</ele>
        <time>2021-02-23T10:18:04.000Z</time>
      </trkpt>
      <trkpt lat="46.54208" lon="-1.76756">
        <ele>-150.80000305176</ele>
        <time>2021-02-23T10:18:05.000Z</time>
      </trkpt>
      <trkpt lat="46.54205" lon="-1.76759">
        <ele>-150.80000305176</ele>
        <time>2021-02-23T10:18:06.000Z</time>
      </trkpt>
      <trkpt lat="46.54198" lon="-1.76765">
        <ele>-150.80000305176</ele>
        <time>2021-02-23T10:18:08.000Z</time>
      </trkpt>
      <trkpt lat="46.54192" lon="-1.7677">
        <ele>-150.39999389648</ele>
        <time>2021-02-23T10:18:10.000Z</time>
      </trkpt>
      <trkpt lat="46.54188" lon="-1.76773">
        <ele>-150.39999389648</ele>
        <time>2021-02-23T10:18:11.000Z</time>
      </trkpt>
      <trkpt lat="46.54182" lon="-1.76778">
        <ele>-150.19999694824</ele>
        <time>2021-02-23T10:18:13.000Z</time>
      </trkpt>
      <trkpt lat="46.54179" lon="-1.76781">
        <ele>-150.19999694824</ele>
        <time>2021-02-23T10:18:14.000Z</time>
      </trkpt>
      <trkpt lat="46.54175" lon="-1.76784">
        <ele>-150.19999694824</ele>
        <time>2021-02-23T10:18:15.000Z</time>
      </trkpt>
      <trkpt lat="46.54162" lon="-1.76795">
        <ele>-150.19999694824</ele>
        <time>2021-02-23T10:18:19.000Z</time>
      </trkpt>
      <trkpt lat="46.54158" lon="-1.76798">
        <ele>-150.19999694824</ele>
        <time>2021-02-23T10:18:20.000Z</time>
      </trkpt>
      <trkpt lat="46.54155" lon="-1.76801">
        <ele>-150.19999694824</ele>
        <time>2021-02-23T10:18:21.000Z</time>
      </trkpt>
      <trkpt lat="46.54152" lon="-1.76804">
        <ele>-150.19999694824</ele>
        <time>2021-02-23T10:18:22.000Z</time>
      </trkpt>
      <trkpt lat="46.54136" lon="-1.76817">
        <ele>-149.80000305176</ele>
        <time>2021-02-23T10:18:27.000Z</time>
      </trkpt>
      <trkpt lat="46.5412" lon="-1.76831">
        <ele>-149.60000610352</ele>
        <time>2021-02-23T10:18:32.000Z</time>
      </trkpt>
      <trkpt lat="46.54117" lon="-1.76833">
        <ele>-149.60000610352</ele>
        <time>2021-02-23T10:18:33.000Z</time>
      </trkpt>
      <trkpt lat="46.54113" lon="-1.76837">
        <ele>-149.60000610352</ele>
        <time>2021-02-23T10:18:34.000Z</time>
      </trkpt>
      <trkpt lat="46.5411" lon="-1.76839">
        <ele>-149.60000610352</ele>
        <time>2021-02-23T10:18:35.000Z</time>
      </trkpt>
      <trkpt lat="46.54107" lon="-1.76842">
        <ele>-149.60000610352</ele>
        <time>2021-02-23T10:18:36.000Z</time>
      </trkpt>
      <trkpt lat="46.54104" lon="-1.76844">
        <ele>-149.60000610352</ele>
        <time>2021-02-23T10:18:37.000Z</time>
      </trkpt>
      <trkpt lat="46.54102" lon="-1.76846">
        <ele>-149.60000610352</ele>
        <time>2021-02-23T10:18:38.000Z</time>
      </trkpt>
      <trkpt lat="46.54098" lon="-1.7685">
        <ele>-149.60000610352</ele>
        <time>2021-02-23T10:18:39.000Z</time>
      </trkpt>
      <trkpt lat="46.54092" lon="-1.76857">
        <ele>-149.60000610352</ele>
        <time>2021-02-23T10:18:41.000Z</time>
      </trkpt>
      <trkpt lat="46.54088" lon="-1.76865">
        <ele>-149.19999694824</ele>
        <time>2021-02-23T10:18:43.000Z</time>
      </trkpt>
      <trkpt lat="46.54086" lon="-1.76869">
        <ele>-149.19999694824</ele>
        <time>2021-02-23T10:18:44.000Z</time>
      </trkpt>
      <trkpt lat="46.54084" lon="-1.76874">
        <ele>-149</ele>
        <time>2021-02-23T10:18:45.000Z</time>
      </trkpt>
      <trkpt lat="46.54083" lon="-1.76878">
        <ele>-149</ele>
        <time>2021-02-23T10:18:46.000Z</time>
      </trkpt>
      <trkpt lat="46.54082" lon="-1.76885">
        <ele>-149</ele>
        <time>2021-02-23T10:18:47.000Z</time>
      </trkpt>
      <trkpt lat="46.54081" lon="-1.7689">
        <ele>-149</ele>
        <time>2021-02-23T10:18:48.000Z</time>
      </trkpt>
      <trkpt lat="46.54076" lon="-1.76917">
        <ele>-149</ele>
        <time>2021-02-23T10:18:53.000Z</time>
      </trkpt>
      <trkpt lat="46.54073" lon="-1.76922">
        <ele>-148.80000305176</ele>
        <time>2021-02-23T10:18:54.000Z</time>
      </trkpt>
      <trkpt lat="46.54066" lon="-1.76933">
        <ele>-148.80000305176</ele>
        <time>2021-02-23T10:18:57.000Z</time>
      </trkpt>
      <trkpt lat="46.54063" lon="-1.76936">
        <ele>-149</ele>
        <time>2021-02-23T10:18:58.000Z</time>
      </trkpt>
      <trkpt lat="46.5406" lon="-1.76939">
        <ele>-149</ele>
        <time>2021-02-23T10:18:59.000Z</time>
      </trkpt>
      <trkpt lat="46.54056" lon="-1.76941">
        <ele>-148.80000305176</ele>
        <time>2021-02-23T10:19:00.000Z</time>
      </trkpt>
      <trkpt lat="46.54053" lon="-1.76943">
        <ele>-148.60000610352</ele>
        <time>2021-02-23T10:19:01.000Z</time>
      </trkpt>
      <trkpt lat="46.54049" lon="-1.76945">
        <ele>-148.19999694824</ele>
        <time>2021-02-23T10:19:02.000Z</time>
      </trkpt>
      <trkpt lat="46.54046" lon="-1.76947">
        <ele>-148.19999694824</ele>
        <time>2021-02-23T10:19:03.000Z</time>
      </trkpt>
      <trkpt lat="46.54042" lon="-1.76948">
        <ele>-148.19999694824</ele>
        <time>2021-02-23T10:19:04.000Z</time>
      </trkpt>
      <trkpt lat="46.5404" lon="-1.76949">
        <ele>-148.19999694824</ele>
        <time>2021-02-23T10:19:05.000Z</time>
      </trkpt>
      <trkpt lat="46.54036" lon="-1.76951">
        <ele>-148</ele>
        <time>2021-02-23T10:19:06.000Z</time>
      </trkpt>
      <trkpt lat="46.54032" lon="-1.76952">
        <ele>-148</ele>
        <time>2021-02-23T10:19:07.000Z</time>
      </trkpt>
      <trkpt lat="46.54029" lon="-1.76954">
        <ele>-147.80000305176</ele>
        <time>2021-02-23T10:19:08.000Z</time>
      </trkpt>
      <trkpt lat="46.54026" lon="-1.76955">
        <ele>-147.80000305176</ele>
        <time>2021-02-23T10:19:09.000Z</time>
      </trkpt>
      <trkpt lat="46.54023" lon="-1.76956">
        <ele>-147.60000610352</ele>
        <time>2021-02-23T10:19:10.000Z</time>
      </trkpt>
      <trkpt lat="46.54019" lon="-1.76957">
        <ele>-147.39999389648</ele>
        <time>2021-02-23T10:19:11.000Z</time>
      </trkpt>
      <trkpt lat="46.54013" lon="-1.76958">
        <ele>-147</ele>
        <time>2021-02-23T10:19:13.000Z</time>
      </trkpt>
      <trkpt lat="46.5401" lon="-1.76959">
        <ele>-147</ele>
        <time>2021-02-23T10:19:14.000Z</time>
      </trkpt>
      <trkpt lat="46.54007" lon="-1.7696">
        <ele>-146.80000305176</ele>
        <time>2021-02-23T10:19:15.000Z</time>
      </trkpt>
      <trkpt lat="46.54004" lon="-1.76961">
        <ele>-146.80000305176</ele>
        <time>2021-02-23T10:19:16.000Z</time>
      </trkpt>
      <trkpt lat="46.54001" lon="-1.76962">
        <ele>-146.60000610352</ele>
        <time>2021-02-23T10:19:17.000Z</time>
      </trkpt>
      <trkpt lat="46.53998" lon="-1.76963">
        <ele>-146.39999389648</ele>
        <time>2021-02-23T10:19:18.000Z</time>
      </trkpt>
      <trkpt lat="46.53996" lon="-1.76964">
        <ele>-146.19999694824</ele>
        <time>2021-02-23T10:19:19.000Z</time>
      </trkpt>
      <trkpt lat="46.53993" lon="-1.76964">
        <ele>-146.19999694824</ele>
        <time>2021-02-23T10:19:20.000Z</time>
      </trkpt>
      <trkpt lat="46.53991" lon="-1.76965">
        <ele>-146</ele>
        <time>2021-02-23T10:19:21.000Z</time>
      </trkpt>
      <trkpt lat="46.53989" lon="-1.76966">
        <ele>-145.80000305176</ele>
        <time>2021-02-23T10:19:22.000Z</time>
      </trkpt>
      <trkpt lat="46.53987" lon="-1.76966">
        <ele>-145.60000610352</ele>
        <time>2021-02-23T10:19:23.000Z</time>
      </trkpt>
      <trkpt lat="46.53985" lon="-1.76967">
        <ele>-145.39999389648</ele>
        <time>2021-02-23T10:19:24.000Z</time>
      </trkpt>
      <trkpt lat="46.53982" lon="-1.76968">
        <ele>-145.19999694824</ele>
        <time>2021-02-23T10:19:25.000Z</time>
      </trkpt>
      <trkpt lat="46.5398" lon="-1.76969">
        <ele>-145</ele>
        <time>2021-02-23T10:19:26.000Z</time>
      </trkpt>
      <trkpt lat="46.53979" lon="-1.76969">
        <ele>-144.80000305176</ele>
        <time>2021-02-23T10:19:27.000Z</time>
      </trkpt>
      <trkpt lat="46.53977" lon="-1.76969">
        <ele>-144.60000610352</ele>
        <time>2021-02-23T10:19:28.000Z</time>
      </trkpt>
      <trkpt lat="46.53975" lon="-1.7697">
        <ele>-144.60000610352</ele>
        <time>2021-02-23T10:19:29.000Z</time>
      </trkpt>
      <trkpt lat="46.53973" lon="-1.76971">
        <ele>-144.39999389648</ele>
        <time>2021-02-23T10:19:30.000Z</time>
      </trkpt>
      <trkpt lat="46.53971" lon="-1.76972">
        <ele>-144.39999389648</ele>
        <time>2021-02-23T10:19:31.000Z</time>
      </trkpt>
      <trkpt lat="46.53969" lon="-1.76972">
        <ele>-144.19999694824</ele>
        <time>2021-02-23T10:19:32.000Z</time>
      </trkpt>
      <trkpt lat="46.53967" lon="-1.76973">
        <ele>-144.19999694824</ele>
        <time>2021-02-23T10:19:33.000Z</time>
      </trkpt>
      <trkpt lat="46.53965" lon="-1.76974">
        <ele>-144</ele>
        <time>2021-02-23T10:19:34.000Z</time>
      </trkpt>
      <trkpt lat="46.53963" lon="-1.76975">
        <ele>-143.80000305176</ele>
        <time>2021-02-23T10:19:35.000Z</time>
      </trkpt>
      <trkpt lat="46.53961" lon="-1.76975">
        <ele>-143.80000305176</ele>
        <time>2021-02-23T10:19:36.000Z</time>
      </trkpt>
      <trkpt lat="46.53958" lon="-1.76976">
        <ele>-143.80000305176</ele>
        <time>2021-02-23T10:19:37.000Z</time>
      </trkpt>
      <trkpt lat="46.53956" lon="-1.76977">
        <ele>-143.60000610352</ele>
        <time>2021-02-23T10:19:38.000Z</time>
      </trkpt>
      <trkpt lat="46.53954" lon="-1.76977">
        <ele>-143.60000610352</ele>
        <time>2021-02-23T10:19:39.000Z</time>
      </trkpt>
      <trkpt lat="46.53952" lon="-1.76977">
        <ele>-143.39999389648</ele>
        <time>2021-02-23T10:19:40.000Z</time>
      </trkpt>
      <trkpt lat="46.5395" lon="-1.76978">
        <ele>-143.19999694824</ele>
        <time>2021-02-23T10:19:41.000Z</time>
      </trkpt>
      <trkpt lat="46.53947" lon="-1.76978">
        <ele>-143.19999694824</ele>
        <time>2021-02-23T10:19:42.000Z</time>
      </trkpt>
      <trkpt lat="46.53945" lon="-1.76979">
        <ele>-143</ele>
        <time>2021-02-23T10:19:43.000Z</time>
      </trkpt>
      <trkpt lat="46.53943" lon="-1.7698">
        <ele>-142.80000305176</ele>
        <time>2021-02-23T10:19:44.000Z</time>
      </trkpt>
      <trkpt lat="46.53941" lon="-1.76982">
        <ele>-142.60000610352</ele>
        <time>2021-02-23T10:19:45.000Z</time>
      </trkpt>
      <trkpt lat="46.5394" lon="-1.76983">
        <ele>-142.39999389648</ele>
        <time>2021-02-23T10:19:46.000Z</time>
      </trkpt>
      <trkpt lat="46.53939" lon="-1.76985">
        <ele>-142.39999389648</ele>
        <time>2021-02-23T10:19:47.000Z</time>
      </trkpt>
      <trkpt lat="46.53939" lon="-1.76987">
        <ele>-142.39999389648</ele>
        <time>2021-02-23T10:19:48.000Z</time>
      </trkpt>
      <trkpt lat="46.53938" lon="-1.7699">
        <ele>-142.19999694824</ele>
        <time>2021-02-23T10:19:49.000Z</time>
      </trkpt>
      <trkpt lat="46.53938" lon="-1.76993">
        <ele>-142.19999694824</ele>
        <time>2021-02-23T10:19:50.000Z</time>
      </trkpt>
      <trkpt lat="46.53937" lon="-1.76996">
        <ele>-142</ele>
        <time>2021-02-23T10:19:51.000Z</time>
      </trkpt>
      <trkpt lat="46.53936" lon="-1.76999">
        <ele>-141.80000305176</ele>
        <time>2021-02-23T10:19:52.000Z</time>
      </trkpt>
      <trkpt lat="46.53935" lon="-1.77002">
        <ele>-141.80000305176</ele>
        <time>2021-02-23T10:19:53.000Z</time>
      </trkpt>
      <trkpt lat="46.53934" lon="-1.77005">
        <ele>-141.60000610352</ele>
        <time>2021-02-23T10:19:54.000Z</time>
      </trkpt>
      <trkpt lat="46.53933" lon="-1.77008">
        <ele>-141.60000610352</ele>
        <time>2021-02-23T10:19:55.000Z</time>
      </trkpt>
      <trkpt lat="46.53932" lon="-1.77012">
        <ele>-141.39999389648</ele>
        <time>2021-02-23T10:19:56.000Z</time>
      </trkpt>
      <trkpt lat="46.53932" lon="-1.77015">
        <ele>-141.39999389648</ele>
        <time>2021-02-23T10:19:57.000Z</time>
      </trkpt>
      <trkpt lat="46.53931" lon="-1.77018">
        <ele>-141.19999694824</ele>
        <time>2021-02-23T10:19:58.000Z</time>
      </trkpt>
      <trkpt lat="46.5393" lon="-1.77022">
        <ele>-141</ele>
        <time>2021-02-23T10:19:59.000Z</time>
      </trkpt>
      <trkpt lat="46.5393" lon="-1.77025">
        <ele>-141</ele>
        <time>2021-02-23T10:20:00.000Z</time>
      </trkpt>
      <trkpt lat="46.5393" lon="-1.77028">
        <ele>-140.80000305176</ele>
        <time>2021-02-23T10:20:01.000Z</time>
      </trkpt>
      <trkpt lat="46.5393" lon="-1.77031">
        <ele>-140.80000305176</ele>
        <time>2021-02-23T10:20:02.000Z</time>
      </trkpt>
      <trkpt lat="46.53929" lon="-1.77034">
        <ele>-140.60000610352</ele>
        <time>2021-02-23T10:20:03.000Z</time>
      </trkpt>
      <trkpt lat="46.53929" lon="-1.77037">
        <ele>-140.39999389648</ele>
        <time>2021-02-23T10:20:04.000Z</time>
      </trkpt>
      <trkpt lat="46.53929" lon="-1.77042">
        <ele>-140.39999389648</ele>
        <time>2021-02-23T10:20:05.000Z</time>
      </trkpt>
      <trkpt lat="46.53927" lon="-1.77045">
        <ele>-140.19999694824</ele>
        <time>2021-02-23T10:20:06.000Z</time>
      </trkpt>
      <trkpt lat="46.53926" lon="-1.7705">
        <ele>-140</ele>
        <time>2021-02-23T10:20:07.000Z</time>
      </trkpt>
      <trkpt lat="46.53924" lon="-1.77056">
        <ele>-139.80000305176</ele>
        <time>2021-02-23T10:20:08.000Z</time>
      </trkpt>
      <trkpt lat="46.53923" lon="-1.77061">
        <ele>-139.80000305176</ele>
        <time>2021-02-23T10:20:09.000Z</time>
      </trkpt>
      <trkpt lat="46.53921" lon="-1.77065">
        <ele>-139.60000610352</ele>
        <time>2021-02-23T10:20:10.000Z</time>
      </trkpt>
      <trkpt lat="46.53919" lon="-1.7707">
        <ele>-139.39999389648</ele>
        <time>2021-02-23T10:20:11.000Z</time>
      </trkpt>
      <trkpt lat="46.53918" lon="-1.77074">
        <ele>-139.19999694824</ele>
        <time>2021-02-23T10:20:12.000Z</time>
      </trkpt>
      <trkpt lat="46.53918" lon="-1.77078">
        <ele>-139</ele>
        <time>2021-02-23T10:20:13.000Z</time>
      </trkpt>
      <trkpt lat="46.53917" lon="-1.77082">
        <ele>-139</ele>
        <time>2021-02-23T10:20:14.000Z</time>
      </trkpt>
      <trkpt lat="46.53916" lon="-1.77085">
        <ele>-139</ele>
        <time>2021-02-23T10:20:15.000Z</time>
      </trkpt>
      <trkpt lat="46.53915" lon="-1.77088">
        <ele>-138.80000305176</ele>
        <time>2021-02-23T10:20:16.000Z</time>
      </trkpt>
      <trkpt lat="46.53914" lon="-1.77091">
        <ele>-138.39999389648</ele>
        <time>2021-02-23T10:20:17.000Z</time>
      </trkpt>
      <trkpt lat="46.53912" lon="-1.77093">
        <ele>-138.19999694824</ele>
        <time>2021-02-23T10:20:18.000Z</time>
      </trkpt>
      <trkpt lat="46.5391" lon="-1.77096">
        <ele>-138</ele>
        <time>2021-02-23T10:20:19.000Z</time>
      </trkpt>
      <trkpt lat="46.53909" lon="-1.77099">
        <ele>-137.80000305176</ele>
        <time>2021-02-23T10:20:20.000Z</time>
      </trkpt>
      <trkpt lat="46.53907" lon="-1.77101">
        <ele>-137.80000305176</ele>
        <time>2021-02-23T10:20:21.000Z</time>
      </trkpt>
      <trkpt lat="46.53905" lon="-1.77103">
        <ele>-137.39999389648</ele>
        <time>2021-02-23T10:20:22.000Z</time>
      </trkpt>
      <trkpt lat="46.53905" lon="-1.77106">
        <ele>-137.19999694824</ele>
        <time>2021-02-23T10:20:23.000Z</time>
      </trkpt>
      <trkpt lat="46.53905" lon="-1.77109">
        <ele>-137</ele>
        <time>2021-02-23T10:20:24.000Z</time>
      </trkpt>
      <trkpt lat="46.53904" lon="-1.77111">
        <ele>-136.80000305176</ele>
        <time>2021-02-23T10:20:25.000Z</time>
      </trkpt>
      <trkpt lat="46.53903" lon="-1.77114">
        <ele>-136.80000305176</ele>
        <time>2021-02-23T10:20:26.000Z</time>
      </trkpt>
      <trkpt lat="46.53902" lon="-1.77116">
        <ele>-136.80000305176</ele>
        <time>2021-02-23T10:20:27.000Z</time>
      </trkpt>
      <trkpt lat="46.539" lon="-1.77117">
        <ele>-136.60000610352</ele>
        <time>2021-02-23T10:20:28.000Z</time>
      </trkpt>
      <trkpt lat="46.53899" lon="-1.7712">
        <ele>-136.60000610352</ele>
        <time>2021-02-23T10:20:29.000Z</time>
      </trkpt>
      <trkpt lat="46.53898" lon="-1.77121">
        <ele>-136.60000610352</ele>
        <time>2021-02-23T10:20:30.000Z</time>
      </trkpt>
      <trkpt lat="46.53896" lon="-1.77123">
        <ele>-136.60000610352</ele>
        <time>2021-02-23T10:20:31.000Z</time>
      </trkpt>
      <trkpt lat="46.53895" lon="-1.77125">
        <ele>-136.60000610352</ele>
        <time>2021-02-23T10:20:32.000Z</time>
      </trkpt>
      <trkpt lat="46.53893" lon="-1.77128">
        <ele>-136.39999389648</ele>
        <time>2021-02-23T10:20:33.000Z</time>
      </trkpt>
      <trkpt lat="46.53892" lon="-1.7713">
        <ele>-136.39999389648</ele>
        <time>2021-02-23T10:20:34.000Z</time>
      </trkpt>
      <trkpt lat="46.5389" lon="-1.77132">
        <ele>-136.39999389648</ele>
        <time>2021-02-23T10:20:35.000Z</time>
      </trkpt>
      <trkpt lat="46.53889" lon="-1.77134">
        <ele>-136.39999389648</ele>
        <time>2021-02-23T10:20:36.000Z</time>
      </trkpt>
      <trkpt lat="46.53888" lon="-1.77136">
        <ele>-136.39999389648</ele>
        <time>2021-02-23T10:20:37.000Z</time>
      </trkpt>
      <trkpt lat="46.53886" lon="-1.77138">
        <ele>-136.19999694824</ele>
        <time>2021-02-23T10:20:38.000Z</time>
      </trkpt>
      <trkpt lat="46.53885" lon="-1.7714">
        <ele>-136.19999694824</ele>
        <time>2021-02-23T10:20:39.000Z</time>
      </trkpt>
      <trkpt lat="46.53884" lon="-1.77142">
        <ele>-136.19999694824</ele>
        <time>2021-02-23T10:20:40.000Z</time>
      </trkpt>
      <trkpt lat="46.53883" lon="-1.77144">
        <ele>-136.19999694824</ele>
        <time>2021-02-23T10:20:41.000Z</time>
      </trkpt>
      <trkpt lat="46.53882" lon="-1.77146">
        <ele>-136.19999694824</ele>
        <time>2021-02-23T10:20:42.000Z</time>
      </trkpt>
      <trkpt lat="46.53881" lon="-1.77148">
        <ele>-136.19999694824</ele>
        <time>2021-02-23T10:20:43.000Z</time>
      </trkpt>
      <trkpt lat="46.5388" lon="-1.77152">
        <ele>-136.19999694824</ele>
        <time>2021-02-23T10:20:44.000Z</time>
      </trkpt>
      <trkpt lat="46.53874" lon="-1.77165">
        <ele>-136.19999694824</ele>
        <time>2021-02-23T10:20:47.000Z</time>
      </trkpt>
      <trkpt lat="46.53872" lon="-1.77169">
        <ele>-136.19999694824</ele>
        <time>2021-02-23T10:20:48.000Z</time>
      </trkpt>
      <trkpt lat="46.5387" lon="-1.77172">
        <ele>-136.19999694824</ele>
        <time>2021-02-23T10:20:49.000Z</time>
      </trkpt>
      <trkpt lat="46.53868" lon="-1.77175">
        <ele>-136.19999694824</ele>
        <time>2021-02-23T10:20:50.000Z</time>
      </trkpt>
      <trkpt lat="46.53865" lon="-1.77178">
        <ele>-136.39999389648</ele>
        <time>2021-02-23T10:20:51.000Z</time>
      </trkpt>
      <trkpt lat="46.53862" lon="-1.7718">
        <ele>-136.39999389648</ele>
        <time>2021-02-23T10:20:52.000Z</time>
      </trkpt>
      <trkpt lat="46.5386" lon="-1.77182">
        <ele>-136.39999389648</ele>
        <time>2021-02-23T10:20:53.000Z</time>
      </trkpt>
      <trkpt lat="46.53858" lon="-1.77183">
        <ele>-136.39999389648</ele>
        <time>2021-02-23T10:20:54.000Z</time>
      </trkpt>
      <trkpt lat="46.53856" lon="-1.77183">
        <ele>-136.19999694824</ele>
        <time>2021-02-23T10:20:55.000Z</time>
      </trkpt>
      <trkpt lat="46.53856" lon="-1.77187">
        <ele>-136</ele>
        <time>2021-02-23T10:20:57.000Z</time>
      </trkpt>
      <trkpt lat="46.53857" lon="-1.7719">
        <ele>-135.80000305176</ele>
        <time>2021-02-23T10:20:58.000Z</time>
      </trkpt>
      <trkpt lat="46.53857" lon="-1.77194">
        <ele>-135.80000305176</ele>
        <time>2021-02-23T10:20:59.000Z</time>
      </trkpt>
      <trkpt lat="46.53858" lon="-1.77201">
        <ele>-135.60000610352</ele>
        <time>2021-02-23T10:21:01.000Z</time>
      </trkpt>
      <trkpt lat="46.53861" lon="-1.77213">
        <ele>-135.39999389648</ele>
        <time>2021-02-23T10:21:04.000Z</time>
      </trkpt>
      <trkpt lat="46.53868" lon="-1.77238">
        <ele>-135.39999389648</ele>
        <time>2021-02-23T10:21:09.000Z</time>
      </trkpt>
      <trkpt lat="46.53872" lon="-1.7725">
        <ele>-135.39999389648</ele>
        <time>2021-02-23T10:21:11.000Z</time>
      </trkpt>
      <trkpt lat="46.53878" lon="-1.77273">
        <ele>-135.80000305176</ele>
        <time>2021-02-23T10:21:15.000Z</time>
      </trkpt>
      <trkpt lat="46.53881" lon="-1.77287">
        <ele>-136.60000610352</ele>
        <time>2021-02-23T10:21:17.000Z</time>
      </trkpt>
      <trkpt lat="46.53889" lon="-1.77322">
        <ele>-137</ele>
        <time>2021-02-23T10:21:22.000Z</time>
      </trkpt>
      <trkpt lat="46.53893" lon="-1.77336">
        <ele>-137.39999389648</ele>
        <time>2021-02-23T10:21:24.000Z</time>
      </trkpt>
      <trkpt lat="46.53895" lon="-1.77343">
        <ele>-137.39999389648</ele>
        <time>2021-02-23T10:21:25.000Z</time>
      </trkpt>
      <trkpt lat="46.53897" lon="-1.77349">
        <ele>-137.60000610352</ele>
        <time>2021-02-23T10:21:26.000Z</time>
      </trkpt>
      <trkpt lat="46.53899" lon="-1.77354">
        <ele>-137.80000305176</ele>
        <time>2021-02-23T10:21:27.000Z</time>
      </trkpt>
      <trkpt lat="46.53901" lon="-1.7736">
        <ele>-138.19999694824</ele>
        <time>2021-02-23T10:21:28.000Z</time>
      </trkpt>
      <trkpt lat="46.53902" lon="-1.77365">
        <ele>-138.39999389648</ele>
        <time>2021-02-23T10:21:29.000Z</time>
      </trkpt>
      <trkpt lat="46.53903" lon="-1.7737">
        <ele>-138.60000610352</ele>
        <time>2021-02-23T10:21:30.000Z</time>
      </trkpt>
      <trkpt lat="46.53905" lon="-1.77381">
        <ele>-139</ele>
        <time>2021-02-23T10:21:32.000Z</time>
      </trkpt>
      <trkpt lat="46.53903" lon="-1.77413">
        <ele>-139.60000610352</ele>
        <time>2021-02-23T10:21:38.000Z</time>
      </trkpt>
      <trkpt lat="46.53902" lon="-1.77421">
        <ele>-139.80000305176</ele>
        <time>2021-02-23T10:21:39.000Z</time>
      </trkpt>
      <trkpt lat="46.53893" lon="-1.77454">
        <ele>-140</ele>
        <time>2021-02-23T10:21:45.000Z</time>
      </trkpt>
      <trkpt lat="46.53888" lon="-1.77475">
        <ele>-140.19999694824</ele>
        <time>2021-02-23T10:21:48.000Z</time>
      </trkpt>
      <trkpt lat="46.53889" lon="-1.77481">
        <ele>-140.19999694824</ele>
        <time>2021-02-23T10:21:49.000Z</time>
      </trkpt>
      <trkpt lat="46.53889" lon="-1.77488">
        <ele>-140.39999389648</ele>
        <time>2021-02-23T10:21:50.000Z</time>
      </trkpt>
      <trkpt lat="46.5389" lon="-1.77495">
        <ele>-140.39999389648</ele>
        <time>2021-02-23T10:21:51.000Z</time>
      </trkpt>
      <trkpt lat="46.5389" lon="-1.77504">
        <ele>-140.39999389648</ele>
        <time>2021-02-23T10:21:52.000Z</time>
      </trkpt>
      <trkpt lat="46.53891" lon="-1.77509">
        <ele>-140.39999389648</ele>
        <time>2021-02-23T10:21:53.000Z</time>
      </trkpt>
      <trkpt lat="46.53892" lon="-1.77515">
        <ele>-140.60000610352</ele>
        <time>2021-02-23T10:21:54.000Z</time>
      </trkpt>
      <trkpt lat="46.53892" lon="-1.77522">
        <ele>-140.60000610352</ele>
        <time>2021-02-23T10:21:55.000Z</time>
      </trkpt>
      <trkpt lat="46.53892" lon="-1.77535">
        <ele>-140.60000610352</ele>
        <time>2021-02-23T10:21:57.000Z</time>
      </trkpt>
      <trkpt lat="46.53892" lon="-1.77541">
        <ele>-140.80000305176</ele>
        <time>2021-02-23T10:21:58.000Z</time>
      </trkpt>
      <trkpt lat="46.53893" lon="-1.77547">
        <ele>-141</ele>
        <time>2021-02-23T10:21:59.000Z</time>
      </trkpt>
      <trkpt lat="46.53894" lon="-1.77554">
        <ele>-141.19999694824</ele>
        <time>2021-02-23T10:22:00.000Z</time>
      </trkpt>
      <trkpt lat="46.53896" lon="-1.77566">
        <ele>-141.19999694824</ele>
        <time>2021-02-23T10:22:02.000Z</time>
      </trkpt>
      <trkpt lat="46.53897" lon="-1.77571">
        <ele>-141.39999389648</ele>
        <time>2021-02-23T10:22:03.000Z</time>
      </trkpt>
      <trkpt lat="46.53899" lon="-1.77595">
        <ele>-141.60000610352</ele>
        <time>2021-02-23T10:22:06.000Z</time>
      </trkpt>
      <trkpt lat="46.53899" lon="-1.77602">
        <ele>-141.60000610352</ele>
        <time>2021-02-23T10:22:07.000Z</time>
      </trkpt>
      <trkpt lat="46.53899" lon="-1.7761">
        <ele>-142.39999389648</ele>
        <time>2021-02-23T10:22:08.000Z</time>
      </trkpt>
      <trkpt lat="46.53899" lon="-1.77625">
        <ele>-143</ele>
        <time>2021-02-23T10:22:10.000Z</time>
      </trkpt>
      <trkpt lat="46.53899" lon="-1.77632">
        <ele>-143</ele>
        <time>2021-02-23T10:22:11.000Z</time>
      </trkpt>
      <trkpt lat="46.53899" lon="-1.77637">
        <ele>-143.19999694824</ele>
        <time>2021-02-23T10:22:12.000Z</time>
      </trkpt>
      <trkpt lat="46.53899" lon="-1.77642">
        <ele>-143.39999389648</ele>
        <time>2021-02-23T10:22:13.000Z</time>
      </trkpt>
      <trkpt lat="46.53898" lon="-1.77648">
        <ele>-143.39999389648</ele>
        <time>2021-02-23T10:22:14.000Z</time>
      </trkpt>
      <trkpt lat="46.53896" lon="-1.7766">
        <ele>-143.80000305176</ele>
        <time>2021-02-23T10:22:16.000Z</time>
      </trkpt>
      <trkpt lat="46.53892" lon="-1.77673">
        <ele>-143.80000305176</ele>
        <time>2021-02-23T10:22:18.000Z</time>
      </trkpt>
      <trkpt lat="46.53889" lon="-1.77679">
        <ele>-143.80000305176</ele>
        <time>2021-02-23T10:22:19.000Z</time>
      </trkpt>
      <trkpt lat="46.53887" lon="-1.77687">
        <ele>-143.80000305176</ele>
        <time>2021-02-23T10:22:20.000Z</time>
      </trkpt>
      <trkpt lat="46.53885" lon="-1.77691">
        <ele>-143.39999389648</ele>
        <time>2021-02-23T10:22:21.000Z</time>
      </trkpt>
      <trkpt lat="46.53883" lon="-1.77697">
        <ele>-143.19999694824</ele>
        <time>2021-02-23T10:22:22.000Z</time>
      </trkpt>
      <trkpt lat="46.53881" lon="-1.77704">
        <ele>-143.19999694824</ele>
        <time>2021-02-23T10:22:23.000Z</time>
      </trkpt>
      <trkpt lat="46.5388" lon="-1.77709">
        <ele>-143</ele>
        <time>2021-02-23T10:22:24.000Z</time>
      </trkpt>
      <trkpt lat="46.53877" lon="-1.77732">
        <ele>-142.60000610352</ele>
        <time>2021-02-23T10:22:28.000Z</time>
      </trkpt>
      <trkpt lat="46.53876" lon="-1.77739">
        <ele>-142.39999389648</ele>
        <time>2021-02-23T10:22:29.000Z</time>
      </trkpt>
      <trkpt lat="46.53874" lon="-1.77743">
        <ele>-142.39999389648</ele>
        <time>2021-02-23T10:22:30.000Z</time>
      </trkpt>
      <trkpt lat="46.53872" lon="-1.77746">
        <ele>-142.39999389648</ele>
        <time>2021-02-23T10:22:31.000Z</time>
      </trkpt>
      <trkpt lat="46.5387" lon="-1.77748">
        <ele>-142.39999389648</ele>
        <time>2021-02-23T10:22:32.000Z</time>
      </trkpt>
      <trkpt lat="46.53867" lon="-1.77749">
        <ele>-142.39999389648</ele>
        <time>2021-02-23T10:22:33.000Z</time>
      </trkpt>
      <trkpt lat="46.53864" lon="-1.77749">
        <ele>-142.39999389648</ele>
        <time>2021-02-23T10:22:34.000Z</time>
      </trkpt>
      <trkpt lat="46.53861" lon="-1.77748">
        <ele>-142.19999694824</ele>
        <time>2021-02-23T10:22:35.000Z</time>
      </trkpt>
      <trkpt lat="46.53858" lon="-1.77747">
        <ele>-142.19999694824</ele>
        <time>2021-02-23T10:22:36.000Z</time>
      </trkpt>
      <trkpt lat="46.53854" lon="-1.77744">
        <ele>-142.19999694824</ele>
        <time>2021-02-23T10:22:37.000Z</time>
      </trkpt>
      <trkpt lat="46.53852" lon="-1.77742">
        <ele>-142</ele>
        <time>2021-02-23T10:22:38.000Z</time>
      </trkpt>
      <trkpt lat="46.53849" lon="-1.77738">
        <ele>-141.80000305176</ele>
        <time>2021-02-23T10:22:39.000Z</time>
      </trkpt>
      <trkpt lat="46.53847" lon="-1.77735">
        <ele>-141.80000305176</ele>
        <time>2021-02-23T10:22:40.000Z</time>
      </trkpt>
      <trkpt lat="46.53845" lon="-1.7773">
        <ele>-141.80000305176</ele>
        <time>2021-02-23T10:22:41.000Z</time>
      </trkpt>
      <trkpt lat="46.53839" lon="-1.77717">
        <ele>-141.60000610352</ele>
        <time>2021-02-23T10:22:44.000Z</time>
      </trkpt>
      <trkpt lat="46.53836" lon="-1.77713">
        <ele>-141.39999389648</ele>
        <time>2021-02-23T10:22:45.000Z</time>
      </trkpt>
      <trkpt lat="46.53834" lon="-1.77709">
        <ele>-141</ele>
        <time>2021-02-23T10:22:46.000Z</time>
      </trkpt>
      <trkpt lat="46.53821" lon="-1.77683">
        <ele>-140.19999694824</ele>
        <time>2021-02-23T10:22:52.000Z</time>
      </trkpt>
      <trkpt lat="46.5382" lon="-1.77679">
        <ele>-140</ele>
        <time>2021-02-23T10:22:53.000Z</time>
      </trkpt>
      <trkpt lat="46.53817" lon="-1.77674">
        <ele>-139.80000305176</ele>
        <time>2021-02-23T10:22:54.000Z</time>
      </trkpt>
      <trkpt lat="46.53816" lon="-1.7767">
        <ele>-139.80000305176</ele>
        <time>2021-02-23T10:22:55.000Z</time>
      </trkpt>
      <trkpt lat="46.53811" lon="-1.77662">
        <ele>-139.19999694824</ele>
        <time>2021-02-23T10:22:57.000Z</time>
      </trkpt>
      <trkpt lat="46.53809" lon="-1.77659">
        <ele>-139</ele>
        <time>2021-02-23T10:22:58.000Z</time>
      </trkpt>
      <trkpt lat="46.53806" lon="-1.77656">
        <ele>-138.80000305176</ele>
        <time>2021-02-23T10:22:59.000Z</time>
      </trkpt>
      <trkpt lat="46.53804" lon="-1.77653">
        <ele>-138.60000610352</ele>
        <time>2021-02-23T10:23:00.000Z</time>
      </trkpt>
      <trkpt lat="46.53801" lon="-1.77651">
        <ele>-138.60000610352</ele>
        <time>2021-02-23T10:23:01.000Z</time>
      </trkpt>
      <trkpt lat="46.53799" lon="-1.77649">
        <ele>-138.39999389648</ele>
        <time>2021-02-23T10:23:02.000Z</time>
      </trkpt>
      <trkpt lat="46.53796" lon="-1.77647">
        <ele>-138.39999389648</ele>
        <time>2021-02-23T10:23:03.000Z</time>
      </trkpt>
      <trkpt lat="46.53794" lon="-1.77646">
        <ele>-138.19999694824</ele>
        <time>2021-02-23T10:23:04.000Z</time>
      </trkpt>
      <trkpt lat="46.53791" lon="-1.77644">
        <ele>-138.19999694824</ele>
        <time>2021-02-23T10:23:05.000Z</time>
      </trkpt>
      <trkpt lat="46.53788" lon="-1.77643">
        <ele>-138</ele>
        <time>2021-02-23T10:23:06.000Z</time>
      </trkpt>
      <trkpt lat="46.53785" lon="-1.77642">
        <ele>-138</ele>
        <time>2021-02-23T10:23:07.000Z</time>
      </trkpt>
      <trkpt lat="46.53782" lon="-1.77641">
        <ele>-138</ele>
        <time>2021-02-23T10:23:08.000Z</time>
      </trkpt>
      <trkpt lat="46.53779" lon="-1.77641">
        <ele>-138</ele>
        <time>2021-02-23T10:23:09.000Z</time>
      </trkpt>
      <trkpt lat="46.53776" lon="-1.7764">
        <ele>-138</ele>
        <time>2021-02-23T10:23:10.000Z</time>
      </trkpt>
      <trkpt lat="46.53773" lon="-1.7764">
        <ele>-138</ele>
        <time>2021-02-23T10:23:11.000Z</time>
      </trkpt>
      <trkpt lat="46.53771" lon="-1.77639">
        <ele>-137.80000305176</ele>
        <time>2021-02-23T10:23:12.000Z</time>
      </trkpt>
      <trkpt lat="46.53768" lon="-1.77639">
        <ele>-137.80000305176</ele>
        <time>2021-02-23T10:23:13.000Z</time>
      </trkpt>
      <trkpt lat="46.53766" lon="-1.77639">
        <ele>-137.80000305176</ele>
        <time>2021-02-23T10:23:14.000Z</time>
      </trkpt>
      <trkpt lat="46.53763" lon="-1.7764">
        <ele>-137.80000305176</ele>
        <time>2021-02-23T10:23:15.000Z</time>
      </trkpt>
      <trkpt lat="46.5376" lon="-1.7764">
        <ele>-137.80000305176</ele>
        <time>2021-02-23T10:23:16.000Z</time>
      </trkpt>
      <trkpt lat="46.53758" lon="-1.7764">
        <ele>-137.80000305176</ele>
        <time>2021-02-23T10:23:17.000Z</time>
      </trkpt>
      <trkpt lat="46.53755" lon="-1.77641">
        <ele>-137.80000305176</ele>
        <time>2021-02-23T10:23:18.000Z</time>
      </trkpt>
      <trkpt lat="46.53753" lon="-1.77641">
        <ele>-137.80000305176</ele>
        <time>2021-02-23T10:23:19.000Z</time>
      </trkpt>
      <trkpt lat="46.53751" lon="-1.77642">
        <ele>-137.80000305176</ele>
        <time>2021-02-23T10:23:20.000Z</time>
      </trkpt>
      <trkpt lat="46.5375" lon="-1.77643">
        <ele>-138</ele>
        <time>2021-02-23T10:23:21.000Z</time>
      </trkpt>
      <trkpt lat="46.53749" lon="-1.77643">
        <ele>-139.19999694824</ele>
        <time>2021-02-23T10:23:26.000Z</time>
      </trkpt>
      <trkpt lat="46.53739" lon="-1.77648">
        <ele>-139.39999389648</ele>
        <time>2021-02-23T10:23:31.000Z</time>
      </trkpt>
      <trkpt lat="46.53731" lon="-1.7765">
        <ele>-139.19999694824</ele>
        <time>2021-02-23T10:23:34.000Z</time>
      </trkpt>
      <trkpt lat="46.53728" lon="-1.7765">
        <ele>-139.19999694824</ele>
        <time>2021-02-23T10:23:35.000Z</time>
      </trkpt>
      <trkpt lat="46.53721" lon="-1.7765">
        <ele>-139</ele>
        <time>2021-02-23T10:23:37.000Z</time>
      </trkpt>
      <trkpt lat="46.53715" lon="-1.77647">
        <ele>-139</ele>
        <time>2021-02-23T10:23:39.000Z</time>
      </trkpt>
      <trkpt lat="46.53712" lon="-1.77645">
        <ele>-138.80000305176</ele>
        <time>2021-02-23T10:23:40.000Z</time>
      </trkpt>
      <trkpt lat="46.53709" lon="-1.77643">
        <ele>-138.80000305176</ele>
        <time>2021-02-23T10:23:41.000Z</time>
      </trkpt>
      <trkpt lat="46.53703" lon="-1.77637">
        <ele>-138.80000305176</ele>
        <time>2021-02-23T10:23:43.000Z</time>
      </trkpt>
      <trkpt lat="46.53692" lon="-1.7762">
        <ele>-138.19999694824</ele>
        <time>2021-02-23T10:23:48.000Z</time>
      </trkpt>
      <trkpt lat="46.53688" lon="-1.77613">
        <ele>-138.19999694824</ele>
        <time>2021-02-23T10:23:50.000Z</time>
      </trkpt>
      <trkpt lat="46.53681" lon="-1.77597">
        <ele>-138</ele>
        <time>2021-02-23T10:23:54.000Z</time>
      </trkpt>
      <trkpt lat="46.53678" lon="-1.77589">
        <ele>-138</ele>
        <time>2021-02-23T10:23:56.000Z</time>
      </trkpt>
      <trkpt lat="46.53677" lon="-1.77585">
        <ele>-138</ele>
        <time>2021-02-23T10:23:57.000Z</time>
      </trkpt>
      <trkpt lat="46.53675" lon="-1.77581">
        <ele>-138</ele>
        <time>2021-02-23T10:23:58.000Z</time>
      </trkpt>
      <trkpt lat="46.53673" lon="-1.77578">
        <ele>-138</ele>
        <time>2021-02-23T10:23:59.000Z</time>
      </trkpt>
      <trkpt lat="46.53671" lon="-1.77575">
        <ele>-137.80000305176</ele>
        <time>2021-02-23T10:24:00.000Z</time>
      </trkpt>
      <trkpt lat="46.53669" lon="-1.77571">
        <ele>-137.80000305176</ele>
        <time>2021-02-23T10:24:01.000Z</time>
      </trkpt>
      <trkpt lat="46.53664" lon="-1.77567">
        <ele>-137.60000610352</ele>
        <time>2021-02-23T10:24:03.000Z</time>
      </trkpt>
      <trkpt lat="46.53662" lon="-1.77565">
        <ele>-137.60000610352</ele>
        <time>2021-02-23T10:24:04.000Z</time>
      </trkpt>
      <trkpt lat="46.53659" lon="-1.77565">
        <ele>-137.60000610352</ele>
        <time>2021-02-23T10:24:05.000Z</time>
      </trkpt>
      <trkpt lat="46.53657" lon="-1.77564">
        <ele>-137.60000610352</ele>
        <time>2021-02-23T10:24:06.000Z</time>
      </trkpt>
      <trkpt lat="46.53654" lon="-1.77564">
        <ele>-137.60000610352</ele>
        <time>2021-02-23T10:24:07.000Z</time>
      </trkpt>
      <trkpt lat="46.53649" lon="-1.77565">
        <ele>-137.60000610352</ele>
        <time>2021-02-23T10:24:09.000Z</time>
      </trkpt>
      <trkpt lat="46.53647" lon="-1.77567">
        <ele>-137.60000610352</ele>
        <time>2021-02-23T10:24:10.000Z</time>
      </trkpt>
      <trkpt lat="46.53644" lon="-1.77571">
        <ele>-137.60000610352</ele>
        <time>2021-02-23T10:24:11.000Z</time>
      </trkpt>
      <trkpt lat="46.53641" lon="-1.77575">
        <ele>-137.60000610352</ele>
        <time>2021-02-23T10:24:12.000Z</time>
      </trkpt>
      <trkpt lat="46.53638" lon="-1.77579">
        <ele>-137.60000610352</ele>
        <time>2021-02-23T10:24:13.000Z</time>
      </trkpt>
      <trkpt lat="46.53634" lon="-1.77589">
        <ele>-137.80000305176</ele>
        <time>2021-02-23T10:24:15.000Z</time>
      </trkpt>
      <trkpt lat="46.53633" lon="-1.77596">
        <ele>-138</ele>
        <time>2021-02-23T10:24:16.000Z</time>
      </trkpt>
      <trkpt lat="46.53631" lon="-1.77603">
        <ele>-138</ele>
        <time>2021-02-23T10:24:17.000Z</time>
      </trkpt>
      <trkpt lat="46.53625" lon="-1.77628">
        <ele>-139</ele>
        <time>2021-02-23T10:24:20.000Z</time>
      </trkpt>
      <trkpt lat="46.53623" lon="-1.77637">
        <ele>-139</ele>
        <time>2021-02-23T10:24:21.000Z</time>
      </trkpt>
      <trkpt lat="46.5362" lon="-1.77645">
        <ele>-139.80000305176</ele>
        <time>2021-02-23T10:24:22.000Z</time>
      </trkpt>
      <trkpt lat="46.53616" lon="-1.77652">
        <ele>-140</ele>
        <time>2021-02-23T10:24:23.000Z</time>
      </trkpt>
      <trkpt lat="46.53613" lon="-1.77659">
        <ele>-140.80000305176</ele>
        <time>2021-02-23T10:24:24.000Z</time>
      </trkpt>
      <trkpt lat="46.5361" lon="-1.77667">
        <ele>-141.19999694824</ele>
        <time>2021-02-23T10:24:25.000Z</time>
      </trkpt>
      <trkpt lat="46.53609" lon="-1.77675">
        <ele>-141.39999389648</ele>
        <time>2021-02-23T10:24:26.000Z</time>
      </trkpt>
      <trkpt lat="46.53609" lon="-1.77683">
        <ele>-141.80000305176</ele>
        <time>2021-02-23T10:24:27.000Z</time>
      </trkpt>
      <trkpt lat="46.53608" lon="-1.77692">
        <ele>-142</ele>
        <time>2021-02-23T10:24:28.000Z</time>
      </trkpt>
      <trkpt lat="46.53605" lon="-1.77698">
        <ele>-142.19999694824</ele>
        <time>2021-02-23T10:24:29.000Z</time>
      </trkpt>
      <trkpt lat="46.53602" lon="-1.77703">
        <ele>-142.39999389648</ele>
        <time>2021-02-23T10:24:30.000Z</time>
      </trkpt>
      <trkpt lat="46.53592" lon="-1.77711">
        <ele>-143</ele>
        <time>2021-02-23T10:24:32.000Z</time>
      </trkpt>
      <trkpt lat="46.53588" lon="-1.77716">
        <ele>-143.19999694824</ele>
        <time>2021-02-23T10:24:33.000Z</time>
      </trkpt>
      <trkpt lat="46.53584" lon="-1.7772">
        <ele>-143.39999389648</ele>
        <time>2021-02-23T10:24:34.000Z</time>
      </trkpt>
      <trkpt lat="46.5358" lon="-1.77724">
        <ele>-143.60000610352</ele>
        <time>2021-02-23T10:24:35.000Z</time>
      </trkpt>
      <trkpt lat="46.53568" lon="-1.77732">
        <ele>-143.80000305176</ele>
        <time>2021-02-23T10:24:38.000Z</time>
      </trkpt>
      <trkpt lat="46.5356" lon="-1.77737">
        <ele>-145</ele>
        <time>2021-02-23T10:24:40.000Z</time>
      </trkpt>
      <trkpt lat="46.53551" lon="-1.77742">
        <ele>-146.19999694824</ele>
        <time>2021-02-23T10:24:42.000Z</time>
      </trkpt>
      <trkpt lat="46.53541" lon="-1.77749">
        <ele>-146.60000610352</ele>
        <time>2021-02-23T10:24:44.000Z</time>
      </trkpt>
      <trkpt lat="46.53536" lon="-1.77752">
        <ele>-147</ele>
        <time>2021-02-23T10:24:45.000Z</time>
      </trkpt>
      <trkpt lat="46.53532" lon="-1.77755">
        <ele>-147</ele>
        <time>2021-02-23T10:24:46.000Z</time>
      </trkpt>
      <trkpt lat="46.53527" lon="-1.77758">
        <ele>-147.19999694824</ele>
        <time>2021-02-23T10:24:47.000Z</time>
      </trkpt>
      <trkpt lat="46.53523" lon="-1.77761">
        <ele>-147.39999389648</ele>
        <time>2021-02-23T10:24:48.000Z</time>
      </trkpt>
      <trkpt lat="46.53518" lon="-1.77765">
        <ele>-147.60000610352</ele>
        <time>2021-02-23T10:24:49.000Z</time>
      </trkpt>
      <trkpt lat="46.53514" lon="-1.77768">
        <ele>-148.19999694824</ele>
        <time>2021-02-23T10:24:50.000Z</time>
      </trkpt>
      <trkpt lat="46.5351" lon="-1.77772">
        <ele>-148.39999389648</ele>
        <time>2021-02-23T10:24:51.000Z</time>
      </trkpt>
      <trkpt lat="46.53506" lon="-1.77776">
        <ele>-148.60000610352</ele>
        <time>2021-02-23T10:24:52.000Z</time>
      </trkpt>
      <trkpt lat="46.53501" lon="-1.7778">
        <ele>-148.80000305176</ele>
        <time>2021-02-23T10:24:53.000Z</time>
      </trkpt>
      <trkpt lat="46.53492" lon="-1.77788">
        <ele>-149.39999389648</ele>
        <time>2021-02-23T10:24:55.000Z</time>
      </trkpt>
      <trkpt lat="46.53488" lon="-1.77792">
        <ele>-149.60000610352</ele>
        <time>2021-02-23T10:24:56.000Z</time>
      </trkpt>
      <trkpt lat="46.53484" lon="-1.77795">
        <ele>-149.80000305176</ele>
        <time>2021-02-23T10:24:57.000Z</time>
      </trkpt>
      <trkpt lat="46.5348" lon="-1.77799">
        <ele>-150</ele>
        <time>2021-02-23T10:24:58.000Z</time>
      </trkpt>
      <trkpt lat="46.53475" lon="-1.77802">
        <ele>-150.19999694824</ele>
        <time>2021-02-23T10:24:59.000Z</time>
      </trkpt>
      <trkpt lat="46.53472" lon="-1.77805">
        <ele>-150.39999389648</ele>
        <time>2021-02-23T10:25:00.000Z</time>
      </trkpt>
      <trkpt lat="46.53456" lon="-1.77819">
        <ele>-150.80000305176</ele>
        <time>2021-02-23T10:25:04.000Z</time>
      </trkpt>
      <trkpt lat="46.53452" lon="-1.77823">
        <ele>-150.80000305176</ele>
        <time>2021-02-23T10:25:05.000Z</time>
      </trkpt>
      <trkpt lat="46.53448" lon="-1.77826">
        <ele>-151</ele>
        <time>2021-02-23T10:25:06.000Z</time>
      </trkpt>
      <trkpt lat="46.53433" lon="-1.7784">
        <ele>-151.39999389648</ele>
        <time>2021-02-23T10:25:10.000Z</time>
      </trkpt>
      <trkpt lat="46.53429" lon="-1.77843">
        <ele>-151.39999389648</ele>
        <time>2021-02-23T10:25:11.000Z</time>
      </trkpt>
      <trkpt lat="46.53425" lon="-1.77847">
        <ele>-151.60000610352</ele>
        <time>2021-02-23T10:25:12.000Z</time>
      </trkpt>
      <trkpt lat="46.5342" lon="-1.77851">
        <ele>-151.60000610352</ele>
        <time>2021-02-23T10:25:13.000Z</time>
      </trkpt>
      <trkpt lat="46.53416" lon="-1.77854">
        <ele>-151.80000305176</ele>
        <time>2021-02-23T10:25:14.000Z</time>
      </trkpt>
      <trkpt lat="46.53412" lon="-1.77857">
        <ele>-151.80000305176</ele>
        <time>2021-02-23T10:25:15.000Z</time>
      </trkpt>
      <trkpt lat="46.53403" lon="-1.77863">
        <ele>-152</ele>
        <time>2021-02-23T10:25:17.000Z</time>
      </trkpt>
      <trkpt lat="46.53399" lon="-1.77863">
        <ele>-152</ele>
        <time>2021-02-23T10:25:18.000Z</time>
      </trkpt>
      <trkpt lat="46.53396" lon="-1.77861">
        <ele>-152</ele>
        <time>2021-02-23T10:25:19.000Z</time>
      </trkpt>
      <trkpt lat="46.53393" lon="-1.77857">
        <ele>-152</ele>
        <time>2021-02-23T10:25:20.000Z</time>
      </trkpt>
      <trkpt lat="46.53387" lon="-1.77846">
        <ele>-152.19999694824</ele>
        <time>2021-02-23T10:25:22.000Z</time>
      </trkpt>
      <trkpt lat="46.5337" lon="-1.77818">
        <ele>-152.19999694824</ele>
        <time>2021-02-23T10:25:29.000Z</time>
      </trkpt>
      <trkpt lat="46.53367" lon="-1.77812">
        <ele>-152.19999694824</ele>
        <time>2021-02-23T10:25:30.000Z</time>
      </trkpt>
      <trkpt lat="46.53364" lon="-1.778">
        <ele>-152.39999389648</ele>
        <time>2021-02-23T10:25:32.000Z</time>
      </trkpt>
      <trkpt lat="46.53359" lon="-1.77789">
        <ele>-152.39999389648</ele>
        <time>2021-02-23T10:25:34.000Z</time>
      </trkpt>
      <trkpt lat="46.53356" lon="-1.77783">
        <ele>-152.60000610352</ele>
        <time>2021-02-23T10:25:35.000Z</time>
      </trkpt>
      <trkpt lat="46.53353" lon="-1.77778">
        <ele>-152.60000610352</ele>
        <time>2021-02-23T10:25:36.000Z</time>
      </trkpt>
      <trkpt lat="46.53348" lon="-1.77772">
        <ele>-152.60000610352</ele>
        <time>2021-02-23T10:25:37.000Z</time>
      </trkpt>
      <trkpt lat="46.53346" lon="-1.77768">
        <ele>-152.60000610352</ele>
        <time>2021-02-23T10:25:38.000Z</time>
      </trkpt>
      <trkpt lat="46.53339" lon="-1.77759">
        <ele>-152.60000610352</ele>
        <time>2021-02-23T10:25:40.000Z</time>
      </trkpt>
      <trkpt lat="46.53335" lon="-1.77753">
        <ele>-152.60000610352</ele>
        <time>2021-02-23T10:25:41.000Z</time>
      </trkpt>
      <trkpt lat="46.53333" lon="-1.77749">
        <ele>-152.60000610352</ele>
        <time>2021-02-23T10:25:42.000Z</time>
      </trkpt>
      <trkpt lat="46.5333" lon="-1.77745">
        <ele>-152.39999389648</ele>
        <time>2021-02-23T10:25:43.000Z</time>
      </trkpt>
      <trkpt lat="46.53326" lon="-1.77739">
        <ele>-152.39999389648</ele>
        <time>2021-02-23T10:25:44.000Z</time>
      </trkpt>
      <trkpt lat="46.53323" lon="-1.77734">
        <ele>-152.19999694824</ele>
        <time>2021-02-23T10:25:45.000Z</time>
      </trkpt>
      <trkpt lat="46.53321" lon="-1.77731">
        <ele>-152.19999694824</ele>
        <time>2021-02-23T10:25:46.000Z</time>
      </trkpt>
      <trkpt lat="46.53318" lon="-1.77727">
        <ele>-152</ele>
        <time>2021-02-23T10:25:47.000Z</time>
      </trkpt>
      <trkpt lat="46.53315" lon="-1.77723">
        <ele>-152</ele>
        <time>2021-02-23T10:25:48.000Z</time>
      </trkpt>
      <trkpt lat="46.53312" lon="-1.77718">
        <ele>-152</ele>
        <time>2021-02-23T10:25:49.000Z</time>
      </trkpt>
      <trkpt lat="46.53306" lon="-1.77712">
        <ele>-151.80000305176</ele>
        <time>2021-02-23T10:25:51.000Z</time>
      </trkpt>
      <trkpt lat="46.53302" lon="-1.77712">
        <ele>-151.80000305176</ele>
        <time>2021-02-23T10:25:52.000Z</time>
      </trkpt>
      <trkpt lat="46.53299" lon="-1.77712">
        <ele>-151.60000610352</ele>
        <time>2021-02-23T10:25:53.000Z</time>
      </trkpt>
      <trkpt lat="46.53295" lon="-1.77712">
        <ele>-151.60000610352</ele>
        <time>2021-02-23T10:25:54.000Z</time>
      </trkpt>
      <trkpt lat="46.53291" lon="-1.77712">
        <ele>-151.39999389648</ele>
        <time>2021-02-23T10:25:55.000Z</time>
      </trkpt>
      <trkpt lat="46.53288" lon="-1.7771">
        <ele>-151.39999389648</ele>
        <time>2021-02-23T10:25:56.000Z</time>
      </trkpt>
      <trkpt lat="46.53285" lon="-1.77706">
        <ele>-151.19999694824</ele>
        <time>2021-02-23T10:25:57.000Z</time>
      </trkpt>
      <trkpt lat="46.53282" lon="-1.77702">
        <ele>-151.19999694824</ele>
        <time>2021-02-23T10:25:58.000Z</time>
      </trkpt>
      <trkpt lat="46.5328" lon="-1.77698">
        <ele>-151</ele>
        <time>2021-02-23T10:25:59.000Z</time>
      </trkpt>
      <trkpt lat="46.53274" lon="-1.77691">
        <ele>-151</ele>
        <time>2021-02-23T10:26:01.000Z</time>
      </trkpt>
      <trkpt lat="46.53271" lon="-1.77687">
        <ele>-151</ele>
        <time>2021-02-23T10:26:02.000Z</time>
      </trkpt>
      <trkpt lat="46.53269" lon="-1.77683">
        <ele>-151</ele>
        <time>2021-02-23T10:26:03.000Z</time>
      </trkpt>
      <trkpt lat="46.53266" lon="-1.7768">
        <ele>-151</ele>
        <time>2021-02-23T10:26:04.000Z</time>
      </trkpt>
      <trkpt lat="46.53264" lon="-1.77677">
        <ele>-151</ele>
        <time>2021-02-23T10:26:05.000Z</time>
      </trkpt>
      <trkpt lat="46.53262" lon="-1.77675">
        <ele>-151</ele>
        <time>2021-02-23T10:26:06.000Z</time>
      </trkpt>
      <trkpt lat="46.53262" lon="-1.77674">
        <ele>-151.39999389648</ele>
        <time>2021-02-23T10:26:32.000Z</time>
      </trkpt>
      <trkpt lat="46.5326" lon="-1.77679">
        <ele>-151.19999694824</ele>
        <time>2021-02-23T10:26:36.000Z</time>
      </trkpt>
      <trkpt lat="46.5326" lon="-1.7768">
        <ele>-151.19999694824</ele>
        <time>2021-02-23T10:26:37.000Z</time>
      </trkpt>
      <trkpt lat="46.5326" lon="-1.77682">
        <ele>-151.19999694824</ele>
        <time>2021-02-23T10:26:38.000Z</time>
      </trkpt>
      <trkpt lat="46.5326" lon="-1.77683">
        <ele>-151.19999694824</ele>
        <time>2021-02-23T10:26:39.000Z</time>
      </trkpt>
      <trkpt lat="46.5326" lon="-1.77685">
        <ele>-151</ele>
        <time>2021-02-23T10:26:40.000Z</time>
      </trkpt>
      <trkpt lat="46.5326" lon="-1.77688">
        <ele>-151</ele>
        <time>2021-02-23T10:26:42.000Z</time>
      </trkpt>
      <trkpt lat="46.5326" lon="-1.77689">
        <ele>-151</ele>
        <time>2021-02-23T10:26:43.000Z</time>
      </trkpt>
      <trkpt lat="46.53261" lon="-1.77691">
        <ele>-151</ele>
        <time>2021-02-23T10:26:44.000Z</time>
      </trkpt>
      <trkpt lat="46.53261" lon="-1.77692">
        <ele>-150.80000305176</ele>
        <time>2021-02-23T10:26:45.000Z</time>
      </trkpt>
      <trkpt lat="46.53262" lon="-1.77694">
        <ele>-150.80000305176</ele>
        <time>2021-02-23T10:26:46.000Z</time>
      </trkpt>
      <trkpt lat="46.53262" lon="-1.77695">
        <ele>-150.80000305176</ele>
        <time>2021-02-23T10:26:47.000Z</time>
      </trkpt>
      <trkpt lat="46.53262" lon="-1.77697">
        <ele>-150.80000305176</ele>
        <time>2021-02-23T10:26:48.000Z</time>
      </trkpt>
      <trkpt lat="46.53262" lon="-1.77699">
        <ele>-150.80000305176</ele>
        <time>2021-02-23T10:26:49.000Z</time>
      </trkpt>
      <trkpt lat="46.53262" lon="-1.77702">
        <ele>-150.80000305176</ele>
        <time>2021-02-23T10:26:50.000Z</time>
      </trkpt>
      <trkpt lat="46.53261" lon="-1.77709">
        <ele>-150.80000305176</ele>
        <time>2021-02-23T10:26:52.000Z</time>
      </trkpt>
      <trkpt lat="46.53257" lon="-1.77716">
        <ele>-150.80000305176</ele>
        <time>2021-02-23T10:26:55.000Z</time>
      </trkpt>
      <trkpt lat="46.53255" lon="-1.77718">
        <ele>-150.80000305176</ele>
        <time>2021-02-23T10:26:56.000Z</time>
      </trkpt>
      <trkpt lat="46.53252" lon="-1.7772">
        <ele>-150.39999389648</ele>
        <time>2021-02-23T10:26:57.000Z</time>
      </trkpt>
      <trkpt lat="46.5325" lon="-1.77721">
        <ele>-150.19999694824</ele>
        <time>2021-02-23T10:26:58.000Z</time>
      </trkpt>
      <trkpt lat="46.53248" lon="-1.77722">
        <ele>-150.19999694824</ele>
        <time>2021-02-23T10:26:59.000Z</time>
      </trkpt>
      <trkpt lat="46.53246" lon="-1.77722">
        <ele>-150.19999694824</ele>
        <time>2021-02-23T10:27:00.000Z</time>
      </trkpt>
      <trkpt lat="46.53244" lon="-1.77723">
        <ele>-150.19999694824</ele>
        <time>2021-02-23T10:27:01.000Z</time>
      </trkpt>
      <trkpt lat="46.53243" lon="-1.77722">
        <ele>-149.80000305176</ele>
        <time>2021-02-23T10:27:02.000Z</time>
      </trkpt>
      <trkpt lat="46.53242" lon="-1.77721">
        <ele>-149.80000305176</ele>
        <time>2021-02-23T10:27:03.000Z</time>
      </trkpt>
      <trkpt lat="46.53241" lon="-1.7772">
        <ele>-149.60000610352</ele>
        <time>2021-02-23T10:27:04.000Z</time>
      </trkpt>
      <trkpt lat="46.53241" lon="-1.77719">
        <ele>-149.60000610352</ele>
        <time>2021-02-23T10:27:06.000Z</time>
      </trkpt>
      <trkpt lat="46.53241" lon="-1.77719">
        <ele>-149.60000610352</ele>
        <time>2021-02-23T10:27:08.000Z</time>
      </trkpt>
      <trkpt lat="46.53242" lon="-1.77718">
        <ele>-149.60000610352</ele>
        <time>2021-02-23T10:27:10.000Z</time>
      </trkpt>
      <trkpt lat="46.53242" lon="-1.77718">
        <ele>-149.39999389648</ele>
        <time>2021-02-23T10:27:11.000Z</time>
      </trkpt>
      <trkpt lat="46.53242" lon="-1.77719">
        <ele>-149.39999389648</ele>
        <time>2021-02-23T10:27:12.000Z</time>
      </trkpt>
      <trkpt lat="46.53245" lon="-1.77719">
        <ele>-149.39999389648</ele>
        <time>2021-02-23T11:08:33.000Z</time>
      </trkpt>
      <trkpt lat="46.53257" lon="-1.77711">
        <ele>-149</ele>
        <time>2021-02-23T11:08:38.000Z</time>
      </trkpt>
    </trkseg>
  </trk>
</gpx>